<?xml version="1.0" encoding="UTF-8" standalone="no" ?>
<gpx xmlns="http://www.topografix.com/GPX/1/1" xmlns:xsi="http://www.w3.org/2001/XMLSchema-instance" xsi:schemaLocation="http://www.topografix.com/GPX/1/1 http://www.topografix.com/GPX/1/1/gpx.xsd" version="1.1" creator="VisuGPX - https://www.visugpx.com">
  <metadata>
    <name>13 mars 2020 21:40:14</name>
    <desc><![CDATA[
parcours du vendredi 13 mars 2020]]></desc>
  </metadata>
  <trk>
    <name><![CDATA[13 mars 2020 21:40:14]]></name>
    <trkseg>
      <trkpt lat="48.84069" lon="2.32068">
        <ele>227.04</ele>
        <time>2020-03-13T20:40:17.103Z</time>
      </trkpt>
      <trkpt lat="48.84067" lon="2.32069">
        <ele>228.12</ele>
        <time>2020-03-13T20:40:18.108Z</time>
      </trkpt>
      <trkpt lat="48.84078" lon="2.32074">
        <ele>217.49</ele>
        <time>2020-03-13T20:40:19.108Z</time>
      </trkpt>
      <trkpt lat="48.84077" lon="2.32079">
        <ele>203.29</ele>
        <time>2020-03-13T20:40:20.108Z</time>
      </trkpt>
      <trkpt lat="48.84075" lon="2.32091">
        <ele>192.06</ele>
        <time>2020-03-13T20:40:21.999Z</time>
      </trkpt>
      <trkpt lat="48.84075" lon="2.32096">
        <ele>189.55</ele>
        <time>2020-03-13T20:40:22.999Z</time>
      </trkpt>
      <trkpt lat="48.84076" lon="2.32099">
        <ele>184.85</ele>
        <time>2020-03-13T20:40:23.999Z</time>
      </trkpt>
      <trkpt lat="48.84076" lon="2.32105">
        <ele>175.79</ele>
        <time>2020-03-13T20:40:24.999Z</time>
      </trkpt>
      <trkpt lat="48.84077" lon="2.32109">
        <ele>174.31</ele>
        <time>2020-03-13T20:40:25.999Z</time>
      </trkpt>
      <trkpt lat="48.84079" lon="2.32117">
        <ele>165.65</ele>
        <time>2020-03-13T20:40:26.999Z</time>
      </trkpt>
      <trkpt lat="48.8408" lon="2.32119">
        <ele>161.76</ele>
        <time>2020-03-13T20:40:27.999Z</time>
      </trkpt>
      <trkpt lat="48.84081" lon="2.32125">
        <ele>152.88</ele>
        <time>2020-03-13T20:40:28.999Z</time>
      </trkpt>
      <trkpt lat="48.84084" lon="2.32129">
        <ele>144.88</ele>
        <time>2020-03-13T20:40:29.999Z</time>
      </trkpt>
      <trkpt lat="48.84088" lon="2.32129">
        <ele>139.03</ele>
        <time>2020-03-13T20:40:30.999Z</time>
      </trkpt>
      <trkpt lat="48.84088" lon="2.32127">
        <ele>137.16</ele>
        <time>2020-03-13T20:40:31.999Z</time>
      </trkpt>
      <trkpt lat="48.84088" lon="2.32125">
        <ele>137.38</ele>
        <time>2020-03-13T20:40:32.999Z</time>
      </trkpt>
      <trkpt lat="48.8409" lon="2.32127">
        <ele>133.23</ele>
        <time>2020-03-13T20:40:33.999Z</time>
      </trkpt>
      <trkpt lat="48.84089" lon="2.32128">
        <ele>134.24</ele>
        <time>2020-03-13T20:40:36.999Z</time>
      </trkpt>
      <trkpt lat="48.8409" lon="2.3213">
        <ele>129.27</ele>
        <time>2020-03-13T20:40:38.999Z</time>
      </trkpt>
      <trkpt lat="48.8409" lon="2.32132">
        <ele>126.01</ele>
        <time>2020-03-13T20:40:39.999Z</time>
      </trkpt>
      <trkpt lat="48.8409" lon="2.32134">
        <ele>123.3</ele>
        <time>2020-03-13T20:40:40.999Z</time>
      </trkpt>
      <trkpt lat="48.84089" lon="2.32134">
        <ele>121.21</ele>
        <time>2020-03-13T20:40:41.999Z</time>
      </trkpt>
      <trkpt lat="48.84087" lon="2.32134">
        <ele>119.85</ele>
        <time>2020-03-13T20:40:42.999Z</time>
      </trkpt>
      <trkpt lat="48.84085" lon="2.32134">
        <ele>119.23</ele>
        <time>2020-03-13T20:40:43.999Z</time>
      </trkpt>
      <trkpt lat="48.84083" lon="2.32134">
        <ele>118.63</ele>
        <time>2020-03-13T20:40:44.999Z</time>
      </trkpt>
      <trkpt lat="48.8408" lon="2.32134">
        <ele>117.86</ele>
        <time>2020-03-13T20:40:45.999Z</time>
      </trkpt>
      <trkpt lat="48.84078" lon="2.32134">
        <ele>117.31</ele>
        <time>2020-03-13T20:40:46.999Z</time>
      </trkpt>
      <trkpt lat="48.84077" lon="2.32134">
        <ele>117.31</ele>
        <time>2020-03-13T20:40:47.999Z</time>
      </trkpt>
      <trkpt lat="48.84076" lon="2.32135">
        <ele>117.3</ele>
        <time>2020-03-13T20:40:48.999Z</time>
      </trkpt>
      <trkpt lat="48.84074" lon="2.32136">
        <ele>117.3</ele>
        <time>2020-03-13T20:40:49.999Z</time>
      </trkpt>
      <trkpt lat="48.84071" lon="2.32137">
        <ele>117.32</ele>
        <time>2020-03-13T20:40:50.999Z</time>
      </trkpt>
      <trkpt lat="48.84069" lon="2.32139">
        <ele>117.34</ele>
        <time>2020-03-13T20:40:51.999Z</time>
      </trkpt>
      <trkpt lat="48.84068" lon="2.32139">
        <ele>117.35</ele>
        <time>2020-03-13T20:40:52.999Z</time>
      </trkpt>
      <trkpt lat="48.84066" lon="2.32141">
        <ele>117.37</ele>
        <time>2020-03-13T20:40:53.999Z</time>
      </trkpt>
      <trkpt lat="48.84064" lon="2.32143">
        <ele>117.41</ele>
        <time>2020-03-13T20:40:54.999Z</time>
      </trkpt>
      <trkpt lat="48.84062" lon="2.32144">
        <ele>117.44</ele>
        <time>2020-03-13T20:40:55.999Z</time>
      </trkpt>
      <trkpt lat="48.8406" lon="2.32146">
        <ele>117.48</ele>
        <time>2020-03-13T20:40:56.999Z</time>
      </trkpt>
      <trkpt lat="48.84057" lon="2.32148">
        <ele>117.51</ele>
        <time>2020-03-13T20:40:57.999Z</time>
      </trkpt>
      <trkpt lat="48.84055" lon="2.3215">
        <ele>117.54</ele>
        <time>2020-03-13T20:40:58.999Z</time>
      </trkpt>
      <trkpt lat="48.84052" lon="2.32152">
        <ele>117.58</ele>
        <time>2020-03-13T20:40:59.999Z</time>
      </trkpt>
      <trkpt lat="48.84049" lon="2.32153">
        <ele>117.61</ele>
        <time>2020-03-13T20:41:00.999Z</time>
      </trkpt>
      <trkpt lat="48.84047" lon="2.32154">
        <ele>117.64</ele>
        <time>2020-03-13T20:41:01.999Z</time>
      </trkpt>
      <trkpt lat="48.84044" lon="2.32155">
        <ele>117.66</ele>
        <time>2020-03-13T20:41:02.999Z</time>
      </trkpt>
      <trkpt lat="48.84042" lon="2.32157">
        <ele>117.68</ele>
        <time>2020-03-13T20:41:03.999Z</time>
      </trkpt>
      <trkpt lat="48.84039" lon="2.32158">
        <ele>117.7</ele>
        <time>2020-03-13T20:41:04.999Z</time>
      </trkpt>
      <trkpt lat="48.84036" lon="2.32158">
        <ele>117.72</ele>
        <time>2020-03-13T20:41:05.999Z</time>
      </trkpt>
      <trkpt lat="48.84034" lon="2.32158">
        <ele>117.73</ele>
        <time>2020-03-13T20:41:06.999Z</time>
      </trkpt>
      <trkpt lat="48.84032" lon="2.32158">
        <ele>117.74</ele>
        <time>2020-03-13T20:41:07.999Z</time>
      </trkpt>
      <trkpt lat="48.8403" lon="2.3216">
        <ele>117.76</ele>
        <time>2020-03-13T20:41:08.999Z</time>
      </trkpt>
      <trkpt lat="48.84028" lon="2.32162">
        <ele>117.77</ele>
        <time>2020-03-13T20:41:09.999Z</time>
      </trkpt>
      <trkpt lat="48.84025" lon="2.32163">
        <ele>117.77</ele>
        <time>2020-03-13T20:41:10.999Z</time>
      </trkpt>
      <trkpt lat="48.84023" lon="2.32165">
        <ele>117.78</ele>
        <time>2020-03-13T20:41:11.999Z</time>
      </trkpt>
      <trkpt lat="48.84021" lon="2.32169">
        <ele>117.8</ele>
        <time>2020-03-13T20:41:12.999Z</time>
      </trkpt>
      <trkpt lat="48.8402" lon="2.32173">
        <ele>117.84</ele>
        <time>2020-03-13T20:41:13.999Z</time>
      </trkpt>
      <trkpt lat="48.84018" lon="2.32176">
        <ele>117.89</ele>
        <time>2020-03-13T20:41:14.999Z</time>
      </trkpt>
      <trkpt lat="48.84016" lon="2.32177">
        <ele>117.94</ele>
        <time>2020-03-13T20:41:15.999Z</time>
      </trkpt>
      <trkpt lat="48.84012" lon="2.32178">
        <ele>118</ele>
        <time>2020-03-13T20:41:16.999Z</time>
      </trkpt>
      <trkpt lat="48.8401" lon="2.32179">
        <ele>118.06</ele>
        <time>2020-03-13T20:41:17.999Z</time>
      </trkpt>
      <trkpt lat="48.84006" lon="2.32179">
        <ele>118.12</ele>
        <time>2020-03-13T20:41:18.999Z</time>
      </trkpt>
      <trkpt lat="48.84003" lon="2.32179">
        <ele>118.18</ele>
        <time>2020-03-13T20:41:19.999Z</time>
      </trkpt>
      <trkpt lat="48.83999" lon="2.32177">
        <ele>118.25</ele>
        <time>2020-03-13T20:41:20.999Z</time>
      </trkpt>
      <trkpt lat="48.83996" lon="2.32176">
        <ele>118.31</ele>
        <time>2020-03-13T20:41:21.999Z</time>
      </trkpt>
      <trkpt lat="48.83993" lon="2.32174">
        <ele>118.37</ele>
        <time>2020-03-13T20:41:22.999Z</time>
      </trkpt>
      <trkpt lat="48.83989" lon="2.32171">
        <ele>118.43</ele>
        <time>2020-03-13T20:41:23.999Z</time>
      </trkpt>
      <trkpt lat="48.83987" lon="2.32169">
        <ele>118.49</ele>
        <time>2020-03-13T20:41:24.999Z</time>
      </trkpt>
      <trkpt lat="48.83984" lon="2.32166">
        <ele>118.55</ele>
        <time>2020-03-13T20:41:25.999Z</time>
      </trkpt>
      <trkpt lat="48.83982" lon="2.32163">
        <ele>118.61</ele>
        <time>2020-03-13T20:41:26.999Z</time>
      </trkpt>
      <trkpt lat="48.83979" lon="2.3216">
        <ele>118.66</ele>
        <time>2020-03-13T20:41:27.999Z</time>
      </trkpt>
      <trkpt lat="48.83977" lon="2.32158">
        <ele>118.71</ele>
        <time>2020-03-13T20:41:28.999Z</time>
      </trkpt>
      <trkpt lat="48.83974" lon="2.32156">
        <ele>118.76</ele>
        <time>2020-03-13T20:41:29.999Z</time>
      </trkpt>
      <trkpt lat="48.83973" lon="2.32153">
        <ele>118.81</ele>
        <time>2020-03-13T20:41:30.999Z</time>
      </trkpt>
      <trkpt lat="48.8397" lon="2.32152">
        <ele>118.87</ele>
        <time>2020-03-13T20:41:31.999Z</time>
      </trkpt>
      <trkpt lat="48.83968" lon="2.32148">
        <ele>118.93</ele>
        <time>2020-03-13T20:41:32.999Z</time>
      </trkpt>
      <trkpt lat="48.83965" lon="2.32149">
        <ele>119</ele>
        <time>2020-03-13T20:41:33.999Z</time>
      </trkpt>
      <trkpt lat="48.83962" lon="2.32148">
        <ele>119.07</ele>
        <time>2020-03-13T20:41:34.999Z</time>
      </trkpt>
      <trkpt lat="48.83959" lon="2.32148">
        <ele>119.14</ele>
        <time>2020-03-13T20:41:35.999Z</time>
      </trkpt>
      <trkpt lat="48.83956" lon="2.32146">
        <ele>119.22</ele>
        <time>2020-03-13T20:41:36.999Z</time>
      </trkpt>
      <trkpt lat="48.83952" lon="2.32143">
        <ele>119.3</ele>
        <time>2020-03-13T20:41:37.999Z</time>
      </trkpt>
      <trkpt lat="48.83949" lon="2.32141">
        <ele>119.38</ele>
        <time>2020-03-13T20:41:38.999Z</time>
      </trkpt>
      <trkpt lat="48.83944" lon="2.32138">
        <ele>120.21</ele>
        <time>2020-03-13T20:41:39.999Z</time>
      </trkpt>
      <trkpt lat="48.83939" lon="2.32135">
        <ele>120.28</ele>
        <time>2020-03-13T20:41:40.999Z</time>
      </trkpt>
      <trkpt lat="48.83934" lon="2.32131">
        <ele>120.35</ele>
        <time>2020-03-13T20:41:41.999Z</time>
      </trkpt>
      <trkpt lat="48.8393" lon="2.32127">
        <ele>120.4</ele>
        <time>2020-03-13T20:41:42.999Z</time>
      </trkpt>
      <trkpt lat="48.83926" lon="2.32126">
        <ele>120.45</ele>
        <time>2020-03-13T20:41:43.999Z</time>
      </trkpt>
      <trkpt lat="48.83922" lon="2.32125">
        <ele>120.51</ele>
        <time>2020-03-13T20:41:44.999Z</time>
      </trkpt>
      <trkpt lat="48.83919" lon="2.32122">
        <ele>120.58</ele>
        <time>2020-03-13T20:41:45.999Z</time>
      </trkpt>
      <trkpt lat="48.83914" lon="2.32121">
        <ele>120.65</ele>
        <time>2020-03-13T20:41:46.999Z</time>
      </trkpt>
      <trkpt lat="48.83911" lon="2.32119">
        <ele>120.73</ele>
        <time>2020-03-13T20:41:47.999Z</time>
      </trkpt>
      <trkpt lat="48.83907" lon="2.32118">
        <ele>120.8</ele>
        <time>2020-03-13T20:41:48.999Z</time>
      </trkpt>
      <trkpt lat="48.83904" lon="2.32118">
        <ele>120.88</ele>
        <time>2020-03-13T20:41:49.999Z</time>
      </trkpt>
      <trkpt lat="48.83902" lon="2.32118">
        <ele>120.96</ele>
        <time>2020-03-13T20:41:50.999Z</time>
      </trkpt>
      <trkpt lat="48.83899" lon="2.32118">
        <ele>121.03</ele>
        <time>2020-03-13T20:41:51.999Z</time>
      </trkpt>
      <trkpt lat="48.83895" lon="2.32117">
        <ele>121.1</ele>
        <time>2020-03-13T20:41:52.999Z</time>
      </trkpt>
      <trkpt lat="48.83892" lon="2.32114">
        <ele>121.17</ele>
        <time>2020-03-13T20:41:53.999Z</time>
      </trkpt>
      <trkpt lat="48.83888" lon="2.32109">
        <ele>121.26</ele>
        <time>2020-03-13T20:41:54.999Z</time>
      </trkpt>
      <trkpt lat="48.83886" lon="2.32105">
        <ele>121.34</ele>
        <time>2020-03-13T20:41:55.999Z</time>
      </trkpt>
      <trkpt lat="48.83883" lon="2.321">
        <ele>121.43</ele>
        <time>2020-03-13T20:41:56.999Z</time>
      </trkpt>
      <trkpt lat="48.83879" lon="2.32093">
        <ele>121.51</ele>
        <time>2020-03-13T20:41:57.999Z</time>
      </trkpt>
      <trkpt lat="48.83875" lon="2.32085">
        <ele>121.59</ele>
        <time>2020-03-13T20:41:58.999Z</time>
      </trkpt>
      <trkpt lat="48.83873" lon="2.32081">
        <ele>121.68</ele>
        <time>2020-03-13T20:41:59.999Z</time>
      </trkpt>
      <trkpt lat="48.83871" lon="2.32076">
        <ele>121.76</ele>
        <time>2020-03-13T20:42:00.999Z</time>
      </trkpt>
      <trkpt lat="48.83868" lon="2.32074">
        <ele>121.85</ele>
        <time>2020-03-13T20:42:01.999Z</time>
      </trkpt>
      <trkpt lat="48.83867" lon="2.32071">
        <ele>121.93</ele>
        <time>2020-03-13T20:42:03.999Z</time>
      </trkpt>
      <trkpt lat="48.83866" lon="2.32068">
        <ele>121.98</ele>
        <time>2020-03-13T20:42:04.999Z</time>
      </trkpt>
      <trkpt lat="48.83865" lon="2.32064">
        <ele>122.05</ele>
        <time>2020-03-13T20:42:05.999Z</time>
      </trkpt>
      <trkpt lat="48.83863" lon="2.3206">
        <ele>122.12</ele>
        <time>2020-03-13T20:42:06.999Z</time>
      </trkpt>
      <trkpt lat="48.83862" lon="2.32057">
        <ele>122.23</ele>
        <time>2020-03-13T20:42:07.999Z</time>
      </trkpt>
      <trkpt lat="48.8386" lon="2.32055">
        <ele>122.36</ele>
        <time>2020-03-13T20:42:08.999Z</time>
      </trkpt>
      <trkpt lat="48.83858" lon="2.32052">
        <ele>122.52</ele>
        <time>2020-03-13T20:42:09.999Z</time>
      </trkpt>
      <trkpt lat="48.83857" lon="2.32048">
        <ele>122.69</ele>
        <time>2020-03-13T20:42:10.999Z</time>
      </trkpt>
      <trkpt lat="48.83855" lon="2.32044">
        <ele>122.87</ele>
        <time>2020-03-13T20:42:11.999Z</time>
      </trkpt>
      <trkpt lat="48.83853" lon="2.3204">
        <ele>123.06</ele>
        <time>2020-03-13T20:42:12.999Z</time>
      </trkpt>
      <trkpt lat="48.83852" lon="2.32036">
        <ele>123.26</ele>
        <time>2020-03-13T20:42:13.999Z</time>
      </trkpt>
      <trkpt lat="48.8385" lon="2.32032">
        <ele>123.47</ele>
        <time>2020-03-13T20:42:14.999Z</time>
      </trkpt>
      <trkpt lat="48.83849" lon="2.32029">
        <ele>123.68</ele>
        <time>2020-03-13T20:42:15.999Z</time>
      </trkpt>
      <trkpt lat="48.83847" lon="2.32025">
        <ele>123.88</ele>
        <time>2020-03-13T20:42:16.999Z</time>
      </trkpt>
      <trkpt lat="48.83845" lon="2.32023">
        <ele>124.08</ele>
        <time>2020-03-13T20:42:17.999Z</time>
      </trkpt>
      <trkpt lat="48.83844" lon="2.32021">
        <ele>124.27</ele>
        <time>2020-03-13T20:42:18.999Z</time>
      </trkpt>
      <trkpt lat="48.83843" lon="2.32019">
        <ele>124.45</ele>
        <time>2020-03-13T20:42:19.999Z</time>
      </trkpt>
      <trkpt lat="48.83841" lon="2.32016">
        <ele>124.63</ele>
        <time>2020-03-13T20:42:20.999Z</time>
      </trkpt>
      <trkpt lat="48.8384" lon="2.32015">
        <ele>124.8</ele>
        <time>2020-03-13T20:42:21.999Z</time>
      </trkpt>
      <trkpt lat="48.83838" lon="2.32013">
        <ele>124.95</ele>
        <time>2020-03-13T20:42:22.999Z</time>
      </trkpt>
      <trkpt lat="48.83836" lon="2.32012">
        <ele>125.08</ele>
        <time>2020-03-13T20:42:23.999Z</time>
      </trkpt>
      <trkpt lat="48.83833" lon="2.3201">
        <ele>125.21</ele>
        <time>2020-03-13T20:42:24.999Z</time>
      </trkpt>
      <trkpt lat="48.83831" lon="2.32008">
        <ele>125.32</ele>
        <time>2020-03-13T20:42:25.999Z</time>
      </trkpt>
      <trkpt lat="48.83829" lon="2.32005">
        <ele>125.43</ele>
        <time>2020-03-13T20:42:26.999Z</time>
      </trkpt>
      <trkpt lat="48.83825" lon="2.32002">
        <ele>125.53</ele>
        <time>2020-03-13T20:42:27.999Z</time>
      </trkpt>
      <trkpt lat="48.83822" lon="2.31996">
        <ele>125.62</ele>
        <time>2020-03-13T20:42:28.999Z</time>
      </trkpt>
      <trkpt lat="48.83818" lon="2.31991">
        <ele>125.71</ele>
        <time>2020-03-13T20:42:29.999Z</time>
      </trkpt>
      <trkpt lat="48.83814" lon="2.31985">
        <ele>125.8</ele>
        <time>2020-03-13T20:42:30.999Z</time>
      </trkpt>
      <trkpt lat="48.8381" lon="2.31978">
        <ele>126.63</ele>
        <time>2020-03-13T20:42:31.999Z</time>
      </trkpt>
      <trkpt lat="48.83807" lon="2.31974">
        <ele>127.22</ele>
        <time>2020-03-13T20:42:32.999Z</time>
      </trkpt>
      <trkpt lat="48.83803" lon="2.3197">
        <ele>127.26</ele>
        <time>2020-03-13T20:42:33.999Z</time>
      </trkpt>
      <trkpt lat="48.838" lon="2.31966">
        <ele>127.29</ele>
        <time>2020-03-13T20:42:34.999Z</time>
      </trkpt>
      <trkpt lat="48.83798" lon="2.31962">
        <ele>127.32</ele>
        <time>2020-03-13T20:42:35.999Z</time>
      </trkpt>
      <trkpt lat="48.83796" lon="2.31958">
        <ele>127.52</ele>
        <time>2020-03-13T20:42:36.999Z</time>
      </trkpt>
      <trkpt lat="48.83794" lon="2.31953">
        <ele>127.71</ele>
        <time>2020-03-13T20:42:37.999Z</time>
      </trkpt>
      <trkpt lat="48.83792" lon="2.3195">
        <ele>127.92</ele>
        <time>2020-03-13T20:42:38.999Z</time>
      </trkpt>
      <trkpt lat="48.8379" lon="2.31946">
        <ele>127.94</ele>
        <time>2020-03-13T20:42:39.999Z</time>
      </trkpt>
      <trkpt lat="48.83787" lon="2.31943">
        <ele>127.96</ele>
        <time>2020-03-13T20:42:40.999Z</time>
      </trkpt>
      <trkpt lat="48.83786" lon="2.3194">
        <ele>127.98</ele>
        <time>2020-03-13T20:42:41.999Z</time>
      </trkpt>
      <trkpt lat="48.83784" lon="2.31936">
        <ele>128</ele>
        <time>2020-03-13T20:42:42.999Z</time>
      </trkpt>
      <trkpt lat="48.83781" lon="2.31929">
        <ele>128.02</ele>
        <time>2020-03-13T20:42:43.999Z</time>
      </trkpt>
      <trkpt lat="48.83778" lon="2.31924">
        <ele>128.04</ele>
        <time>2020-03-13T20:42:44.999Z</time>
      </trkpt>
      <trkpt lat="48.83776" lon="2.31919">
        <ele>128.05</ele>
        <time>2020-03-13T20:42:45.999Z</time>
      </trkpt>
      <trkpt lat="48.83773" lon="2.31913">
        <ele>128.06</ele>
        <time>2020-03-13T20:42:46.999Z</time>
      </trkpt>
      <trkpt lat="48.83771" lon="2.3191">
        <ele>128.07</ele>
        <time>2020-03-13T20:42:47.999Z</time>
      </trkpt>
      <trkpt lat="48.83768" lon="2.31906">
        <ele>128.08</ele>
        <time>2020-03-13T20:42:48.999Z</time>
      </trkpt>
      <trkpt lat="48.83764" lon="2.31902">
        <ele>128.09</ele>
        <time>2020-03-13T20:42:49.999Z</time>
      </trkpt>
      <trkpt lat="48.83761" lon="2.31898">
        <ele>128.09</ele>
        <time>2020-03-13T20:42:50.999Z</time>
      </trkpt>
      <trkpt lat="48.83758" lon="2.31895">
        <ele>128.1</ele>
        <time>2020-03-13T20:42:51.999Z</time>
      </trkpt>
      <trkpt lat="48.83755" lon="2.3189">
        <ele>128.1</ele>
        <time>2020-03-13T20:42:52.999Z</time>
      </trkpt>
      <trkpt lat="48.83752" lon="2.31885">
        <ele>128.07</ele>
        <time>2020-03-13T20:42:53.999Z</time>
      </trkpt>
      <trkpt lat="48.83751" lon="2.31883">
        <ele>128.03</ele>
        <time>2020-03-13T20:42:54.999Z</time>
      </trkpt>
      <trkpt lat="48.83749" lon="2.31879">
        <ele>127.98</ele>
        <time>2020-03-13T20:42:55.999Z</time>
      </trkpt>
      <trkpt lat="48.83747" lon="2.31874">
        <ele>127.9</ele>
        <time>2020-03-13T20:42:56.999Z</time>
      </trkpt>
      <trkpt lat="48.83745" lon="2.31869">
        <ele>127.82</ele>
        <time>2020-03-13T20:42:57.999Z</time>
      </trkpt>
      <trkpt lat="48.83745" lon="2.31864">
        <ele>127.72</ele>
        <time>2020-03-13T20:42:58.999Z</time>
      </trkpt>
      <trkpt lat="48.83744" lon="2.3186">
        <ele>127.6</ele>
        <time>2020-03-13T20:42:59.999Z</time>
      </trkpt>
      <trkpt lat="48.83743" lon="2.31855">
        <ele>127.45</ele>
        <time>2020-03-13T20:43:00.999Z</time>
      </trkpt>
      <trkpt lat="48.83743" lon="2.31849">
        <ele>127.3</ele>
        <time>2020-03-13T20:43:01.999Z</time>
      </trkpt>
      <trkpt lat="48.83742" lon="2.31843">
        <ele>127.14</ele>
        <time>2020-03-13T20:43:02.999Z</time>
      </trkpt>
      <trkpt lat="48.83742" lon="2.31838">
        <ele>126.98</ele>
        <time>2020-03-13T20:43:03.999Z</time>
      </trkpt>
      <trkpt lat="48.83741" lon="2.31833">
        <ele>126.82</ele>
        <time>2020-03-13T20:43:04.999Z</time>
      </trkpt>
      <trkpt lat="48.8374" lon="2.31827">
        <ele>125.05</ele>
        <time>2020-03-13T20:43:05.999Z</time>
      </trkpt>
      <trkpt lat="48.83739" lon="2.31821">
        <ele>123.62</ele>
        <time>2020-03-13T20:43:06.999Z</time>
      </trkpt>
      <trkpt lat="48.83737" lon="2.31816">
        <ele>123.5</ele>
        <time>2020-03-13T20:43:07.999Z</time>
      </trkpt>
      <trkpt lat="48.83735" lon="2.31811">
        <ele>123.39</ele>
        <time>2020-03-13T20:43:08.999Z</time>
      </trkpt>
      <trkpt lat="48.83733" lon="2.31806">
        <ele>122.12</ele>
        <time>2020-03-13T20:43:09.999Z</time>
      </trkpt>
      <trkpt lat="48.83732" lon="2.31801">
        <ele>122</ele>
        <time>2020-03-13T20:43:10.999Z</time>
      </trkpt>
      <trkpt lat="48.8373" lon="2.31795">
        <ele>121.87</ele>
        <time>2020-03-13T20:43:11.999Z</time>
      </trkpt>
      <trkpt lat="48.83729" lon="2.31791">
        <ele>120.52</ele>
        <time>2020-03-13T20:43:12.999Z</time>
      </trkpt>
      <trkpt lat="48.83728" lon="2.31785">
        <ele>120.4</ele>
        <time>2020-03-13T20:43:13.999Z</time>
      </trkpt>
      <trkpt lat="48.83727" lon="2.31779">
        <ele>120.28</ele>
        <time>2020-03-13T20:43:14.999Z</time>
      </trkpt>
      <trkpt lat="48.83726" lon="2.31774">
        <ele>120.17</ele>
        <time>2020-03-13T20:43:15.999Z</time>
      </trkpt>
      <trkpt lat="48.83727" lon="2.31769">
        <ele>120.06</ele>
        <time>2020-03-13T20:43:16.999Z</time>
      </trkpt>
      <trkpt lat="48.83728" lon="2.31765">
        <ele>119.95</ele>
        <time>2020-03-13T20:43:17.999Z</time>
      </trkpt>
      <trkpt lat="48.83729" lon="2.3176">
        <ele>118.81</ele>
        <time>2020-03-13T20:43:18.999Z</time>
      </trkpt>
      <trkpt lat="48.8373" lon="2.31755">
        <ele>117.84</ele>
        <time>2020-03-13T20:43:19.999Z</time>
      </trkpt>
      <trkpt lat="48.8373" lon="2.31748">
        <ele>116.99</ele>
        <time>2020-03-13T20:43:20.999Z</time>
      </trkpt>
      <trkpt lat="48.83729" lon="2.3174">
        <ele>116.3</ele>
        <time>2020-03-13T20:43:21.999Z</time>
      </trkpt>
      <trkpt lat="48.83729" lon="2.31731">
        <ele>115.73</ele>
        <time>2020-03-13T20:43:22.999Z</time>
      </trkpt>
      <trkpt lat="48.83729" lon="2.31724">
        <ele>115.27</ele>
        <time>2020-03-13T20:43:23.999Z</time>
      </trkpt>
      <trkpt lat="48.83729" lon="2.31716">
        <ele>114.93</ele>
        <time>2020-03-13T20:43:24.999Z</time>
      </trkpt>
      <trkpt lat="48.83729" lon="2.31709">
        <ele>114.66</ele>
        <time>2020-03-13T20:43:25.999Z</time>
      </trkpt>
      <trkpt lat="48.83726" lon="2.31702">
        <ele>114.46</ele>
        <time>2020-03-13T20:43:26.999Z</time>
      </trkpt>
      <trkpt lat="48.83724" lon="2.31695">
        <ele>114.3</ele>
        <time>2020-03-13T20:43:27.999Z</time>
      </trkpt>
      <trkpt lat="48.8372" lon="2.3169">
        <ele>114.16</ele>
        <time>2020-03-13T20:43:28.999Z</time>
      </trkpt>
      <trkpt lat="48.83713" lon="2.31684">
        <ele>114.15</ele>
        <time>2020-03-13T20:43:29.999Z</time>
      </trkpt>
      <trkpt lat="48.83706" lon="2.31678">
        <ele>114.15</ele>
        <time>2020-03-13T20:43:30.999Z</time>
      </trkpt>
      <trkpt lat="48.83701" lon="2.31672">
        <ele>114.13</ele>
        <time>2020-03-13T20:43:31.999Z</time>
      </trkpt>
      <trkpt lat="48.83696" lon="2.31665">
        <ele>114.12</ele>
        <time>2020-03-13T20:43:32.999Z</time>
      </trkpt>
      <trkpt lat="48.83691" lon="2.31658">
        <ele>114.15</ele>
        <time>2020-03-13T20:43:33.999Z</time>
      </trkpt>
      <trkpt lat="48.83687" lon="2.31651">
        <ele>114.15</ele>
        <time>2020-03-13T20:43:34.999Z</time>
      </trkpt>
      <trkpt lat="48.83683" lon="2.31645">
        <ele>114.15</ele>
        <time>2020-03-13T20:43:35.999Z</time>
      </trkpt>
      <trkpt lat="48.8368" lon="2.31638">
        <ele>114.16</ele>
        <time>2020-03-13T20:43:36.999Z</time>
      </trkpt>
      <trkpt lat="48.83676" lon="2.31631">
        <ele>114.15</ele>
        <time>2020-03-13T20:43:37.999Z</time>
      </trkpt>
      <trkpt lat="48.83672" lon="2.31625">
        <ele>114.16</ele>
        <time>2020-03-13T20:43:38.999Z</time>
      </trkpt>
      <trkpt lat="48.83669" lon="2.3162">
        <ele>114.14</ele>
        <time>2020-03-13T20:43:39.999Z</time>
      </trkpt>
      <trkpt lat="48.83666" lon="2.31614">
        <ele>114.1</ele>
        <time>2020-03-13T20:43:40.999Z</time>
      </trkpt>
      <trkpt lat="48.83663" lon="2.31609">
        <ele>114.07</ele>
        <time>2020-03-13T20:43:41.999Z</time>
      </trkpt>
      <trkpt lat="48.8366" lon="2.31603">
        <ele>114.02</ele>
        <time>2020-03-13T20:43:42.999Z</time>
      </trkpt>
      <trkpt lat="48.83656" lon="2.31598">
        <ele>113.98</ele>
        <time>2020-03-13T20:43:43.999Z</time>
      </trkpt>
      <trkpt lat="48.83652" lon="2.31594">
        <ele>113.92</ele>
        <time>2020-03-13T20:43:44.999Z</time>
      </trkpt>
      <trkpt lat="48.83648" lon="2.3159">
        <ele>113.85</ele>
        <time>2020-03-13T20:43:45.999Z</time>
      </trkpt>
      <trkpt lat="48.83644" lon="2.31586">
        <ele>113.79</ele>
        <time>2020-03-13T20:43:46.999Z</time>
      </trkpt>
      <trkpt lat="48.8364" lon="2.31582">
        <ele>113.7</ele>
        <time>2020-03-13T20:43:47.999Z</time>
      </trkpt>
      <trkpt lat="48.83636" lon="2.31577">
        <ele>113.61</ele>
        <time>2020-03-13T20:43:48.999Z</time>
      </trkpt>
      <trkpt lat="48.83633" lon="2.31574">
        <ele>113.52</ele>
        <time>2020-03-13T20:43:49.999Z</time>
      </trkpt>
      <trkpt lat="48.83629" lon="2.31569">
        <ele>113.43</ele>
        <time>2020-03-13T20:43:50.999Z</time>
      </trkpt>
      <trkpt lat="48.83626" lon="2.31565">
        <ele>113.33</ele>
        <time>2020-03-13T20:43:51.999Z</time>
      </trkpt>
      <trkpt lat="48.83622" lon="2.31561">
        <ele>113.24</ele>
        <time>2020-03-13T20:43:52.999Z</time>
      </trkpt>
      <trkpt lat="48.83618" lon="2.31557">
        <ele>113.14</ele>
        <time>2020-03-13T20:43:53.999Z</time>
      </trkpt>
      <trkpt lat="48.83614" lon="2.31553">
        <ele>113.07</ele>
        <time>2020-03-13T20:43:54.999Z</time>
      </trkpt>
      <trkpt lat="48.8361" lon="2.31551">
        <ele>113.03</ele>
        <time>2020-03-13T20:43:55.999Z</time>
      </trkpt>
      <trkpt lat="48.83605" lon="2.31548">
        <ele>112.99</ele>
        <time>2020-03-13T20:43:56.999Z</time>
      </trkpt>
      <trkpt lat="48.836" lon="2.31546">
        <ele>112.95</ele>
        <time>2020-03-13T20:43:57.999Z</time>
      </trkpt>
      <trkpt lat="48.83595" lon="2.31545">
        <ele>112.93</ele>
        <time>2020-03-13T20:43:58.999Z</time>
      </trkpt>
      <trkpt lat="48.83591" lon="2.31545">
        <ele>112.93</ele>
        <time>2020-03-13T20:43:59.999Z</time>
      </trkpt>
      <trkpt lat="48.83586" lon="2.31545">
        <ele>112.93</ele>
        <time>2020-03-13T20:44:00.999Z</time>
      </trkpt>
      <trkpt lat="48.83581" lon="2.31545">
        <ele>112.95</ele>
        <time>2020-03-13T20:44:01.999Z</time>
      </trkpt>
      <trkpt lat="48.83575" lon="2.31545">
        <ele>112.98</ele>
        <time>2020-03-13T20:44:02.999Z</time>
      </trkpt>
      <trkpt lat="48.8357" lon="2.31546">
        <ele>113</ele>
        <time>2020-03-13T20:44:03.999Z</time>
      </trkpt>
      <trkpt lat="48.83565" lon="2.31547">
        <ele>113.04</ele>
        <time>2020-03-13T20:44:04.999Z</time>
      </trkpt>
      <trkpt lat="48.8356" lon="2.31548">
        <ele>113.05</ele>
        <time>2020-03-13T20:44:05.999Z</time>
      </trkpt>
      <trkpt lat="48.83555" lon="2.31549">
        <ele>113.09</ele>
        <time>2020-03-13T20:44:06.999Z</time>
      </trkpt>
      <trkpt lat="48.8355" lon="2.31549">
        <ele>113.17</ele>
        <time>2020-03-13T20:44:07.999Z</time>
      </trkpt>
      <trkpt lat="48.83545" lon="2.31548">
        <ele>113.18</ele>
        <time>2020-03-13T20:44:08.999Z</time>
      </trkpt>
      <trkpt lat="48.83541" lon="2.31544">
        <ele>113.19</ele>
        <time>2020-03-13T20:44:09.999Z</time>
      </trkpt>
      <trkpt lat="48.83539" lon="2.31541">
        <ele>113.21</ele>
        <time>2020-03-13T20:44:10.999Z</time>
      </trkpt>
      <trkpt lat="48.83537" lon="2.31537">
        <ele>113.32</ele>
        <time>2020-03-13T20:44:11.999Z</time>
      </trkpt>
      <trkpt lat="48.83533" lon="2.31531">
        <ele>113.42</ele>
        <time>2020-03-13T20:44:12.999Z</time>
      </trkpt>
      <trkpt lat="48.83529" lon="2.31528">
        <ele>113.45</ele>
        <time>2020-03-13T20:44:13.999Z</time>
      </trkpt>
      <trkpt lat="48.83525" lon="2.31523">
        <ele>113.48</ele>
        <time>2020-03-13T20:44:14.999Z</time>
      </trkpt>
      <trkpt lat="48.83521" lon="2.31518">
        <ele>113.51</ele>
        <time>2020-03-13T20:44:15.999Z</time>
      </trkpt>
      <trkpt lat="48.83518" lon="2.31512">
        <ele>113.53</ele>
        <time>2020-03-13T20:44:16.999Z</time>
      </trkpt>
      <trkpt lat="48.83515" lon="2.31507">
        <ele>113.54</ele>
        <time>2020-03-13T20:44:17.999Z</time>
      </trkpt>
      <trkpt lat="48.83513" lon="2.31502">
        <ele>113.54</ele>
        <time>2020-03-13T20:44:18.999Z</time>
      </trkpt>
      <trkpt lat="48.83511" lon="2.31497">
        <ele>113.53</ele>
        <time>2020-03-13T20:44:19.999Z</time>
      </trkpt>
      <trkpt lat="48.83509" lon="2.31489">
        <ele>113.49</ele>
        <time>2020-03-13T20:44:20.999Z</time>
      </trkpt>
      <trkpt lat="48.83505" lon="2.31484">
        <ele>113.41</ele>
        <time>2020-03-13T20:44:21.999Z</time>
      </trkpt>
      <trkpt lat="48.83501" lon="2.31481">
        <ele>113.32</ele>
        <time>2020-03-13T20:44:22.999Z</time>
      </trkpt>
      <trkpt lat="48.83498" lon="2.31476">
        <ele>113.2</ele>
        <time>2020-03-13T20:44:23.999Z</time>
      </trkpt>
      <trkpt lat="48.83494" lon="2.31471">
        <ele>113.11</ele>
        <time>2020-03-13T20:44:24.999Z</time>
      </trkpt>
      <trkpt lat="48.8349" lon="2.31466">
        <ele>112.98</ele>
        <time>2020-03-13T20:44:25.999Z</time>
      </trkpt>
      <trkpt lat="48.83487" lon="2.31462">
        <ele>112.89</ele>
        <time>2020-03-13T20:44:26.999Z</time>
      </trkpt>
      <trkpt lat="48.83483" lon="2.31456">
        <ele>112.83</ele>
        <time>2020-03-13T20:44:27.999Z</time>
      </trkpt>
      <trkpt lat="48.83478" lon="2.31451">
        <ele>112.8</ele>
        <time>2020-03-13T20:44:28.999Z</time>
      </trkpt>
      <trkpt lat="48.83475" lon="2.31448">
        <ele>112.77</ele>
        <time>2020-03-13T20:44:29.999Z</time>
      </trkpt>
      <trkpt lat="48.83473" lon="2.31444">
        <ele>112.2</ele>
        <time>2020-03-13T20:44:30.999Z</time>
      </trkpt>
      <trkpt lat="48.83468" lon="2.31437">
        <ele>111.39</ele>
        <time>2020-03-13T20:44:31.999Z</time>
      </trkpt>
      <trkpt lat="48.83464" lon="2.31431">
        <ele>110.83</ele>
        <time>2020-03-13T20:44:32.999Z</time>
      </trkpt>
      <trkpt lat="48.83461" lon="2.31425">
        <ele>110.4</ele>
        <time>2020-03-13T20:44:33.999Z</time>
      </trkpt>
      <trkpt lat="48.83458" lon="2.3142">
        <ele>109.98</ele>
        <time>2020-03-13T20:44:34.999Z</time>
      </trkpt>
      <trkpt lat="48.83455" lon="2.31415">
        <ele>109.66</ele>
        <time>2020-03-13T20:44:35.999Z</time>
      </trkpt>
      <trkpt lat="48.83452" lon="2.31409">
        <ele>109.4</ele>
        <time>2020-03-13T20:44:36.999Z</time>
      </trkpt>
      <trkpt lat="48.83449" lon="2.31403">
        <ele>109.02</ele>
        <time>2020-03-13T20:44:37.999Z</time>
      </trkpt>
      <trkpt lat="48.83445" lon="2.31397">
        <ele>108.6</ele>
        <time>2020-03-13T20:44:38.999Z</time>
      </trkpt>
      <trkpt lat="48.83441" lon="2.3139">
        <ele>108.14</ele>
        <time>2020-03-13T20:44:39.999Z</time>
      </trkpt>
      <trkpt lat="48.83437" lon="2.31383">
        <ele>107.64</ele>
        <time>2020-03-13T20:44:40.999Z</time>
      </trkpt>
      <trkpt lat="48.83433" lon="2.31376">
        <ele>107.22</ele>
        <time>2020-03-13T20:44:41.999Z</time>
      </trkpt>
      <trkpt lat="48.83429" lon="2.31369">
        <ele>106.79</ele>
        <time>2020-03-13T20:44:42.999Z</time>
      </trkpt>
      <trkpt lat="48.83424" lon="2.31363">
        <ele>106.48</ele>
        <time>2020-03-13T20:44:43.999Z</time>
      </trkpt>
      <trkpt lat="48.8342" lon="2.31357">
        <ele>106.24</ele>
        <time>2020-03-13T20:44:44.999Z</time>
      </trkpt>
      <trkpt lat="48.83417" lon="2.31353">
        <ele>106.07</ele>
        <time>2020-03-13T20:44:45.999Z</time>
      </trkpt>
      <trkpt lat="48.83413" lon="2.31348">
        <ele>105.95</ele>
        <time>2020-03-13T20:44:46.999Z</time>
      </trkpt>
      <trkpt lat="48.8341" lon="2.31345">
        <ele>105.88</ele>
        <time>2020-03-13T20:44:47.999Z</time>
      </trkpt>
      <trkpt lat="48.83407" lon="2.31341">
        <ele>105.88</ele>
        <time>2020-03-13T20:44:48.999Z</time>
      </trkpt>
      <trkpt lat="48.83403" lon="2.31337">
        <ele>105.87</ele>
        <time>2020-03-13T20:44:49.999Z</time>
      </trkpt>
      <trkpt lat="48.83399" lon="2.31333">
        <ele>105.95</ele>
        <time>2020-03-13T20:44:50.999Z</time>
      </trkpt>
      <trkpt lat="48.83395" lon="2.3133">
        <ele>105.95</ele>
        <time>2020-03-13T20:44:51.999Z</time>
      </trkpt>
      <trkpt lat="48.83393" lon="2.31326">
        <ele>105.94</ele>
        <time>2020-03-13T20:44:52.999Z</time>
      </trkpt>
      <trkpt lat="48.8339" lon="2.3132">
        <ele>105.94</ele>
        <time>2020-03-13T20:44:53.999Z</time>
      </trkpt>
      <trkpt lat="48.83388" lon="2.31315">
        <ele>105.95</ele>
        <time>2020-03-13T20:44:54.999Z</time>
      </trkpt>
      <trkpt lat="48.83385" lon="2.31312">
        <ele>105.95</ele>
        <time>2020-03-13T20:44:55.999Z</time>
      </trkpt>
      <trkpt lat="48.83383" lon="2.31309">
        <ele>105.96</ele>
        <time>2020-03-13T20:44:56.999Z</time>
      </trkpt>
      <trkpt lat="48.83381" lon="2.31303">
        <ele>105.95</ele>
        <time>2020-03-13T20:44:57.999Z</time>
      </trkpt>
      <trkpt lat="48.83377" lon="2.31295">
        <ele>105.91</ele>
        <time>2020-03-13T20:44:58.999Z</time>
      </trkpt>
      <trkpt lat="48.83371" lon="2.31286">
        <ele>105.99</ele>
        <time>2020-03-13T20:44:59.999Z</time>
      </trkpt>
      <trkpt lat="48.83367" lon="2.31282">
        <ele>106</ele>
        <time>2020-03-13T20:45:00.999Z</time>
      </trkpt>
      <trkpt lat="48.83363" lon="2.31277">
        <ele>105.99</ele>
        <time>2020-03-13T20:45:01.999Z</time>
      </trkpt>
      <trkpt lat="48.83358" lon="2.31272">
        <ele>105.93</ele>
        <time>2020-03-13T20:45:02.999Z</time>
      </trkpt>
      <trkpt lat="48.83353" lon="2.31268">
        <ele>105.81</ele>
        <time>2020-03-13T20:45:03.999Z</time>
      </trkpt>
      <trkpt lat="48.83348" lon="2.31264">
        <ele>105.79</ele>
        <time>2020-03-13T20:45:04.999Z</time>
      </trkpt>
      <trkpt lat="48.83343" lon="2.3126">
        <ele>105.78</ele>
        <time>2020-03-13T20:45:05.999Z</time>
      </trkpt>
      <trkpt lat="48.8334" lon="2.31256">
        <ele>105.59</ele>
        <time>2020-03-13T20:45:06.999Z</time>
      </trkpt>
      <trkpt lat="48.83337" lon="2.3125">
        <ele>105.56</ele>
        <time>2020-03-13T20:45:07.999Z</time>
      </trkpt>
      <trkpt lat="48.83332" lon="2.31242">
        <ele>105.3</ele>
        <time>2020-03-13T20:45:08.999Z</time>
      </trkpt>
      <trkpt lat="48.83329" lon="2.31237">
        <ele>105.03</ele>
        <time>2020-03-13T20:45:09.999Z</time>
      </trkpt>
      <trkpt lat="48.83326" lon="2.31231">
        <ele>104.78</ele>
        <time>2020-03-13T20:45:10.999Z</time>
      </trkpt>
      <trkpt lat="48.83321" lon="2.31225">
        <ele>104.69</ele>
        <time>2020-03-13T20:45:11.999Z</time>
      </trkpt>
      <trkpt lat="48.83317" lon="2.3122">
        <ele>104.72</ele>
        <time>2020-03-13T20:45:12.999Z</time>
      </trkpt>
      <trkpt lat="48.83314" lon="2.31218">
        <ele>104.67</ele>
        <time>2020-03-13T20:45:13.999Z</time>
      </trkpt>
      <trkpt lat="48.8331" lon="2.31214">
        <ele>104.66</ele>
        <time>2020-03-13T20:45:14.999Z</time>
      </trkpt>
      <trkpt lat="48.83307" lon="2.31211">
        <ele>104.63</ele>
        <time>2020-03-13T20:45:15.999Z</time>
      </trkpt>
      <trkpt lat="48.83304" lon="2.31209">
        <ele>104.59</ele>
        <time>2020-03-13T20:45:16.999Z</time>
      </trkpt>
      <trkpt lat="48.83302" lon="2.31205">
        <ele>104.54</ele>
        <time>2020-03-13T20:45:17.999Z</time>
      </trkpt>
      <trkpt lat="48.83298" lon="2.31201">
        <ele>104.5</ele>
        <time>2020-03-13T20:45:18.999Z</time>
      </trkpt>
      <trkpt lat="48.83294" lon="2.31198">
        <ele>104.44</ele>
        <time>2020-03-13T20:45:19.999Z</time>
      </trkpt>
      <trkpt lat="48.83291" lon="2.31195">
        <ele>104.37</ele>
        <time>2020-03-13T20:45:20.999Z</time>
      </trkpt>
      <trkpt lat="48.83287" lon="2.31192">
        <ele>104.3</ele>
        <time>2020-03-13T20:45:21.999Z</time>
      </trkpt>
      <trkpt lat="48.83284" lon="2.31188">
        <ele>104.23</ele>
        <time>2020-03-13T20:45:22.999Z</time>
      </trkpt>
      <trkpt lat="48.83282" lon="2.31183">
        <ele>104.18</ele>
        <time>2020-03-13T20:45:23.999Z</time>
      </trkpt>
      <trkpt lat="48.8328" lon="2.31181">
        <ele>104.12</ele>
        <time>2020-03-13T20:45:24.999Z</time>
      </trkpt>
      <trkpt lat="48.83279" lon="2.31179">
        <ele>104.07</ele>
        <time>2020-03-13T20:45:25.999Z</time>
      </trkpt>
      <trkpt lat="48.83277" lon="2.31177">
        <ele>104.02</ele>
        <time>2020-03-13T20:45:26.999Z</time>
      </trkpt>
      <trkpt lat="48.83276" lon="2.31175">
        <ele>103.98</ele>
        <time>2020-03-13T20:45:27.999Z</time>
      </trkpt>
      <trkpt lat="48.83276" lon="2.31173">
        <ele>103.94</ele>
        <time>2020-03-13T20:45:28.999Z</time>
      </trkpt>
      <trkpt lat="48.83276" lon="2.31171">
        <ele>103.97</ele>
        <time>2020-03-13T20:45:35.999Z</time>
      </trkpt>
      <trkpt lat="48.83275" lon="2.3117">
        <ele>103.97</ele>
        <time>2020-03-13T20:45:36.999Z</time>
      </trkpt>
      <trkpt lat="48.83274" lon="2.31167">
        <ele>104.09</ele>
        <time>2020-03-13T20:45:41.999Z</time>
      </trkpt>
      <trkpt lat="48.83274" lon="2.31165">
        <ele>104.44</ele>
        <time>2020-03-13T20:45:47.999Z</time>
      </trkpt>
      <trkpt lat="48.83274" lon="2.31163">
        <ele>104.56</ele>
        <time>2020-03-13T20:45:48.999Z</time>
      </trkpt>
      <trkpt lat="48.83275" lon="2.31161">
        <ele>104.7</ele>
        <time>2020-03-13T20:45:50.999Z</time>
      </trkpt>
      <trkpt lat="48.83275" lon="2.3116">
        <ele>105.06</ele>
        <time>2020-03-13T20:46:10.999Z</time>
      </trkpt>
      <trkpt lat="48.83276" lon="2.31158">
        <ele>105.5</ele>
        <time>2020-03-13T20:46:21.999Z</time>
      </trkpt>
      <trkpt lat="48.83275" lon="2.31157">
        <ele>105.6</ele>
        <time>2020-03-13T20:46:22.999Z</time>
      </trkpt>
      <trkpt lat="48.83274" lon="2.31157">
        <ele>105.79</ele>
        <time>2020-03-13T20:46:24.999Z</time>
      </trkpt>
      <trkpt lat="48.83276" lon="2.31158">
        <ele>105.95</ele>
        <time>2020-03-13T20:46:26.999Z</time>
      </trkpt>
      <trkpt lat="48.83276" lon="2.31154">
        <ele>106.02</ele>
        <time>2020-03-13T20:46:27.999Z</time>
      </trkpt>
      <trkpt lat="48.83276" lon="2.31156">
        <ele>106.08</ele>
        <time>2020-03-13T20:46:28.999Z</time>
      </trkpt>
      <trkpt lat="48.83277" lon="2.31158">
        <ele>106.16</ele>
        <time>2020-03-13T20:46:31.999Z</time>
      </trkpt>
      <trkpt lat="48.83276" lon="2.31156">
        <ele>106.3</ele>
        <time>2020-03-13T20:46:33.999Z</time>
      </trkpt>
      <trkpt lat="48.83276" lon="2.31155">
        <ele>106.43</ele>
        <time>2020-03-13T20:46:35.999Z</time>
      </trkpt>
      <trkpt lat="48.83275" lon="2.31154">
        <ele>106.57</ele>
        <time>2020-03-13T20:46:37.999Z</time>
      </trkpt>
      <trkpt lat="48.83275" lon="2.31156">
        <ele>106.63</ele>
        <time>2020-03-13T20:46:38.999Z</time>
      </trkpt>
      <trkpt lat="48.83276" lon="2.31155">
        <ele>106.7</ele>
        <time>2020-03-13T20:46:40.999Z</time>
      </trkpt>
      <trkpt lat="48.83276" lon="2.31153">
        <ele>106.87</ele>
        <time>2020-03-13T20:46:43.999Z</time>
      </trkpt>
      <trkpt lat="48.83277" lon="2.31151">
        <ele>106.92</ele>
        <time>2020-03-13T20:46:44.999Z</time>
      </trkpt>
      <trkpt lat="48.83277" lon="2.31149">
        <ele>106.97</ele>
        <time>2020-03-13T20:46:45.999Z</time>
      </trkpt>
      <trkpt lat="48.83277" lon="2.31147">
        <ele>107.03</ele>
        <time>2020-03-13T20:46:46.999Z</time>
      </trkpt>
      <trkpt lat="48.83277" lon="2.31144">
        <ele>107.08</ele>
        <time>2020-03-13T20:46:47.999Z</time>
      </trkpt>
      <trkpt lat="48.83278" lon="2.3114">
        <ele>107.14</ele>
        <time>2020-03-13T20:46:48.999Z</time>
      </trkpt>
      <trkpt lat="48.8328" lon="2.31136">
        <ele>107.19</ele>
        <time>2020-03-13T20:46:49.999Z</time>
      </trkpt>
      <trkpt lat="48.83281" lon="2.31133">
        <ele>107.25</ele>
        <time>2020-03-13T20:46:50.999Z</time>
      </trkpt>
      <trkpt lat="48.83282" lon="2.31129">
        <ele>107.31</ele>
        <time>2020-03-13T20:46:51.999Z</time>
      </trkpt>
      <trkpt lat="48.83283" lon="2.31127">
        <ele>107.38</ele>
        <time>2020-03-13T20:46:52.999Z</time>
      </trkpt>
      <trkpt lat="48.83284" lon="2.31124">
        <ele>107.44</ele>
        <time>2020-03-13T20:46:53.999Z</time>
      </trkpt>
      <trkpt lat="48.83286" lon="2.3112">
        <ele>107.5</ele>
        <time>2020-03-13T20:46:54.999Z</time>
      </trkpt>
      <trkpt lat="48.83287" lon="2.31117">
        <ele>107.56</ele>
        <time>2020-03-13T20:46:55.999Z</time>
      </trkpt>
      <trkpt lat="48.83289" lon="2.31115">
        <ele>107.62</ele>
        <time>2020-03-13T20:46:56.999Z</time>
      </trkpt>
      <trkpt lat="48.83291" lon="2.31111">
        <ele>107.68</ele>
        <time>2020-03-13T20:46:57.999Z</time>
      </trkpt>
      <trkpt lat="48.83293" lon="2.31108">
        <ele>107.73</ele>
        <time>2020-03-13T20:46:58.999Z</time>
      </trkpt>
      <trkpt lat="48.83295" lon="2.31105">
        <ele>107.79</ele>
        <time>2020-03-13T20:46:59.999Z</time>
      </trkpt>
      <trkpt lat="48.83298" lon="2.31101">
        <ele>107.85</ele>
        <time>2020-03-13T20:47:00.999Z</time>
      </trkpt>
      <trkpt lat="48.833" lon="2.31097">
        <ele>108.38</ele>
        <time>2020-03-13T20:47:01.999Z</time>
      </trkpt>
      <trkpt lat="48.83312" lon="2.31055">
        <ele>109.26</ele>
        <time>2020-03-13T20:47:09.000Z</time>
      </trkpt>
      <trkpt lat="48.83313" lon="2.31046">
        <ele>109.29</ele>
        <time>2020-03-13T20:47:10.000Z</time>
      </trkpt>
      <trkpt lat="48.83314" lon="2.31039">
        <ele>109.28</ele>
        <time>2020-03-13T20:47:11.000Z</time>
      </trkpt>
      <trkpt lat="48.83315" lon="2.31032">
        <ele>109.24</ele>
        <time>2020-03-13T20:47:12.000Z</time>
      </trkpt>
      <trkpt lat="48.83318" lon="2.31026">
        <ele>109.21</ele>
        <time>2020-03-13T20:47:13.000Z</time>
      </trkpt>
      <trkpt lat="48.83318" lon="2.31022">
        <ele>109.21</ele>
        <time>2020-03-13T20:47:14.000Z</time>
      </trkpt>
      <trkpt lat="48.83321" lon="2.31015">
        <ele>109.13</ele>
        <time>2020-03-13T20:47:15.000Z</time>
      </trkpt>
      <trkpt lat="48.83322" lon="2.31007">
        <ele>109.07</ele>
        <time>2020-03-13T20:47:16.000Z</time>
      </trkpt>
      <trkpt lat="48.83322" lon="2.30999">
        <ele>109.03</ele>
        <time>2020-03-13T20:47:17.000Z</time>
      </trkpt>
      <trkpt lat="48.83321" lon="2.30994">
        <ele>109.01</ele>
        <time>2020-03-13T20:47:18.000Z</time>
      </trkpt>
      <trkpt lat="48.83323" lon="2.30989">
        <ele>109.01</ele>
        <time>2020-03-13T20:47:19.000Z</time>
      </trkpt>
      <trkpt lat="48.83327" lon="2.30983">
        <ele>109.01</ele>
        <time>2020-03-13T20:47:20.000Z</time>
      </trkpt>
      <trkpt lat="48.83333" lon="2.30977">
        <ele>109</ele>
        <time>2020-03-13T20:47:21.000Z</time>
      </trkpt>
      <trkpt lat="48.83337" lon="2.30973">
        <ele>108.97</ele>
        <time>2020-03-13T20:47:22.000Z</time>
      </trkpt>
      <trkpt lat="48.8334" lon="2.30971">
        <ele>108.97</ele>
        <time>2020-03-13T20:47:23.000Z</time>
      </trkpt>
      <trkpt lat="48.83343" lon="2.30967">
        <ele>108.97</ele>
        <time>2020-03-13T20:47:24.000Z</time>
      </trkpt>
      <trkpt lat="48.83345" lon="2.30963">
        <ele>108.93</ele>
        <time>2020-03-13T20:47:25.000Z</time>
      </trkpt>
      <trkpt lat="48.83347" lon="2.30956">
        <ele>108.93</ele>
        <time>2020-03-13T20:47:26.000Z</time>
      </trkpt>
      <trkpt lat="48.8335" lon="2.30951">
        <ele>108.93</ele>
        <time>2020-03-13T20:47:27.000Z</time>
      </trkpt>
      <trkpt lat="48.83351" lon="2.30946">
        <ele>108.93</ele>
        <time>2020-03-13T20:47:28.000Z</time>
      </trkpt>
      <trkpt lat="48.83352" lon="2.30939">
        <ele>108.92</ele>
        <time>2020-03-13T20:47:29.000Z</time>
      </trkpt>
      <trkpt lat="48.83353" lon="2.30933">
        <ele>108.92</ele>
        <time>2020-03-13T20:47:30.000Z</time>
      </trkpt>
      <trkpt lat="48.83355" lon="2.30929">
        <ele>108.92</ele>
        <time>2020-03-13T20:47:31.000Z</time>
      </trkpt>
      <trkpt lat="48.83357" lon="2.30925">
        <ele>108.91</ele>
        <time>2020-03-13T20:47:32.000Z</time>
      </trkpt>
      <trkpt lat="48.83359" lon="2.30919">
        <ele>108.91</ele>
        <time>2020-03-13T20:47:33.000Z</time>
      </trkpt>
      <trkpt lat="48.83361" lon="2.30914">
        <ele>108.91</ele>
        <time>2020-03-13T20:47:34.000Z</time>
      </trkpt>
      <trkpt lat="48.83362" lon="2.30908">
        <ele>108.87</ele>
        <time>2020-03-13T20:47:35.000Z</time>
      </trkpt>
      <trkpt lat="48.83364" lon="2.30902">
        <ele>108.86</ele>
        <time>2020-03-13T20:47:36.000Z</time>
      </trkpt>
      <trkpt lat="48.83365" lon="2.30896">
        <ele>108.87</ele>
        <time>2020-03-13T20:47:37.000Z</time>
      </trkpt>
      <trkpt lat="48.83367" lon="2.30889">
        <ele>108.87</ele>
        <time>2020-03-13T20:47:38.000Z</time>
      </trkpt>
      <trkpt lat="48.83368" lon="2.30884">
        <ele>108.87</ele>
        <time>2020-03-13T20:47:39.000Z</time>
      </trkpt>
      <trkpt lat="48.83369" lon="2.30879">
        <ele>108.87</ele>
        <time>2020-03-13T20:47:40.000Z</time>
      </trkpt>
      <trkpt lat="48.83371" lon="2.30873">
        <ele>108.9</ele>
        <time>2020-03-13T20:47:41.000Z</time>
      </trkpt>
      <trkpt lat="48.83373" lon="2.30867">
        <ele>108.89</ele>
        <time>2020-03-13T20:47:42.000Z</time>
      </trkpt>
      <trkpt lat="48.83374" lon="2.30861">
        <ele>108.89</ele>
        <time>2020-03-13T20:47:43.000Z</time>
      </trkpt>
      <trkpt lat="48.83375" lon="2.30855">
        <ele>108.89</ele>
        <time>2020-03-13T20:47:44.000Z</time>
      </trkpt>
      <trkpt lat="48.83376" lon="2.30847">
        <ele>108.88</ele>
        <time>2020-03-13T20:47:45.000Z</time>
      </trkpt>
      <trkpt lat="48.83377" lon="2.30841">
        <ele>108.87</ele>
        <time>2020-03-13T20:47:46.000Z</time>
      </trkpt>
      <trkpt lat="48.83378" lon="2.30836">
        <ele>108.8</ele>
        <time>2020-03-13T20:47:47.000Z</time>
      </trkpt>
      <trkpt lat="48.83381" lon="2.30828">
        <ele>108.74</ele>
        <time>2020-03-13T20:47:48.000Z</time>
      </trkpt>
      <trkpt lat="48.83383" lon="2.30822">
        <ele>108.73</ele>
        <time>2020-03-13T20:47:49.000Z</time>
      </trkpt>
      <trkpt lat="48.83384" lon="2.30817">
        <ele>108.72</ele>
        <time>2020-03-13T20:47:50.000Z</time>
      </trkpt>
      <trkpt lat="48.83386" lon="2.30811">
        <ele>108.71</ele>
        <time>2020-03-13T20:47:51.000Z</time>
      </trkpt>
      <trkpt lat="48.83387" lon="2.30805">
        <ele>108.7</ele>
        <time>2020-03-13T20:47:52.000Z</time>
      </trkpt>
      <trkpt lat="48.83389" lon="2.30799">
        <ele>108.7</ele>
        <time>2020-03-13T20:47:53.000Z</time>
      </trkpt>
      <trkpt lat="48.83391" lon="2.30794">
        <ele>108.69</ele>
        <time>2020-03-13T20:47:54.000Z</time>
      </trkpt>
      <trkpt lat="48.83392" lon="2.30786">
        <ele>108.69</ele>
        <time>2020-03-13T20:47:55.000Z</time>
      </trkpt>
      <trkpt lat="48.83393" lon="2.30781">
        <ele>108.68</ele>
        <time>2020-03-13T20:47:56.000Z</time>
      </trkpt>
      <trkpt lat="48.83394" lon="2.30773">
        <ele>108.68</ele>
        <time>2020-03-13T20:47:57.000Z</time>
      </trkpt>
      <trkpt lat="48.83395" lon="2.30766">
        <ele>108.63</ele>
        <time>2020-03-13T20:47:58.000Z</time>
      </trkpt>
      <trkpt lat="48.83397" lon="2.30758">
        <ele>108.59</ele>
        <time>2020-03-13T20:47:59.000Z</time>
      </trkpt>
      <trkpt lat="48.83397" lon="2.30749">
        <ele>108.53</ele>
        <time>2020-03-13T20:48:00.000Z</time>
      </trkpt>
      <trkpt lat="48.83395" lon="2.30737">
        <ele>108.52</ele>
        <time>2020-03-13T20:48:01.000Z</time>
      </trkpt>
      <trkpt lat="48.83393" lon="2.30731">
        <ele>108.52</ele>
        <time>2020-03-13T20:48:02.000Z</time>
      </trkpt>
      <trkpt lat="48.8339" lon="2.30724">
        <ele>108.51</ele>
        <time>2020-03-13T20:48:03.000Z</time>
      </trkpt>
      <trkpt lat="48.83388" lon="2.30715">
        <ele>108.5</ele>
        <time>2020-03-13T20:48:04.000Z</time>
      </trkpt>
      <trkpt lat="48.83388" lon="2.3071">
        <ele>108.4</ele>
        <time>2020-03-13T20:48:05.000Z</time>
      </trkpt>
      <trkpt lat="48.83389" lon="2.30701">
        <ele>108.3</ele>
        <time>2020-03-13T20:48:06.000Z</time>
      </trkpt>
      <trkpt lat="48.83395" lon="2.30694">
        <ele>108.19</ele>
        <time>2020-03-13T20:48:07.000Z</time>
      </trkpt>
      <trkpt lat="48.83399" lon="2.30685">
        <ele>108.08</ele>
        <time>2020-03-13T20:48:08.000Z</time>
      </trkpt>
      <trkpt lat="48.83398" lon="2.30678">
        <ele>107.97</ele>
        <time>2020-03-13T20:48:09.000Z</time>
      </trkpt>
      <trkpt lat="48.83401" lon="2.30673">
        <ele>107.84</ele>
        <time>2020-03-13T20:48:10.000Z</time>
      </trkpt>
      <trkpt lat="48.83403" lon="2.30663">
        <ele>107.72</ele>
        <time>2020-03-13T20:48:11.000Z</time>
      </trkpt>
      <trkpt lat="48.83404" lon="2.30654">
        <ele>107.6</ele>
        <time>2020-03-13T20:48:12.000Z</time>
      </trkpt>
      <trkpt lat="48.83405" lon="2.30646">
        <ele>107.5</ele>
        <time>2020-03-13T20:48:13.000Z</time>
      </trkpt>
      <trkpt lat="48.83405" lon="2.30639">
        <ele>107.42</ele>
        <time>2020-03-13T20:48:14.000Z</time>
      </trkpt>
      <trkpt lat="48.83411" lon="2.30635">
        <ele>107.35</ele>
        <time>2020-03-13T20:48:15.000Z</time>
      </trkpt>
      <trkpt lat="48.83414" lon="2.30629">
        <ele>107.26</ele>
        <time>2020-03-13T20:48:16.000Z</time>
      </trkpt>
      <trkpt lat="48.83417" lon="2.30622">
        <ele>107.17</ele>
        <time>2020-03-13T20:48:17.000Z</time>
      </trkpt>
      <trkpt lat="48.83419" lon="2.30615">
        <ele>107.09</ele>
        <time>2020-03-13T20:48:18.000Z</time>
      </trkpt>
      <trkpt lat="48.83421" lon="2.3061">
        <ele>107.03</ele>
        <time>2020-03-13T20:48:19.000Z</time>
      </trkpt>
      <trkpt lat="48.83424" lon="2.30601">
        <ele>106.97</ele>
        <time>2020-03-13T20:48:20.000Z</time>
      </trkpt>
      <trkpt lat="48.83425" lon="2.30593">
        <ele>106.97</ele>
        <time>2020-03-13T20:48:21.000Z</time>
      </trkpt>
      <trkpt lat="48.83427" lon="2.30585">
        <ele>106.88</ele>
        <time>2020-03-13T20:48:22.000Z</time>
      </trkpt>
      <trkpt lat="48.83426" lon="2.30573">
        <ele>106.8</ele>
        <time>2020-03-13T20:48:23.000Z</time>
      </trkpt>
      <trkpt lat="48.8343" lon="2.3057">
        <ele>106.73</ele>
        <time>2020-03-13T20:48:24.000Z</time>
      </trkpt>
      <trkpt lat="48.83435" lon="2.30567">
        <ele>106.65</ele>
        <time>2020-03-13T20:48:25.000Z</time>
      </trkpt>
      <trkpt lat="48.83437" lon="2.30559">
        <ele>106.55</ele>
        <time>2020-03-13T20:48:26.000Z</time>
      </trkpt>
      <trkpt lat="48.83435" lon="2.30551">
        <ele>106.45</ele>
        <time>2020-03-13T20:48:27.000Z</time>
      </trkpt>
      <trkpt lat="48.83432" lon="2.30542">
        <ele>106.37</ele>
        <time>2020-03-13T20:48:28.000Z</time>
      </trkpt>
      <trkpt lat="48.83435" lon="2.30536">
        <ele>106.28</ele>
        <time>2020-03-13T20:48:29.000Z</time>
      </trkpt>
      <trkpt lat="48.83438" lon="2.30529">
        <ele>106.2</ele>
        <time>2020-03-13T20:48:30.000Z</time>
      </trkpt>
      <trkpt lat="48.83442" lon="2.30519">
        <ele>106.14</ele>
        <time>2020-03-13T20:48:31.000Z</time>
      </trkpt>
      <trkpt lat="48.83447" lon="2.30514">
        <ele>106.1</ele>
        <time>2020-03-13T20:48:32.000Z</time>
      </trkpt>
      <trkpt lat="48.83452" lon="2.30507">
        <ele>106.05</ele>
        <time>2020-03-13T20:48:33.000Z</time>
      </trkpt>
      <trkpt lat="48.8346" lon="2.30499">
        <ele>106</ele>
        <time>2020-03-13T20:48:34.000Z</time>
      </trkpt>
      <trkpt lat="48.8346" lon="2.30492">
        <ele>105.96</ele>
        <time>2020-03-13T20:48:35.000Z</time>
      </trkpt>
      <trkpt lat="48.83459" lon="2.30486">
        <ele>105.91</ele>
        <time>2020-03-13T20:48:36.000Z</time>
      </trkpt>
      <trkpt lat="48.83461" lon="2.3048">
        <ele>105.86</ele>
        <time>2020-03-13T20:48:37.000Z</time>
      </trkpt>
      <trkpt lat="48.83463" lon="2.30472">
        <ele>105.82</ele>
        <time>2020-03-13T20:48:38.000Z</time>
      </trkpt>
      <trkpt lat="48.83463" lon="2.30465">
        <ele>105.77</ele>
        <time>2020-03-13T20:48:39.000Z</time>
      </trkpt>
      <trkpt lat="48.83466" lon="2.30459">
        <ele>105.71</ele>
        <time>2020-03-13T20:48:40.000Z</time>
      </trkpt>
      <trkpt lat="48.83466" lon="2.30452">
        <ele>105.64</ele>
        <time>2020-03-13T20:48:41.000Z</time>
      </trkpt>
      <trkpt lat="48.83469" lon="2.30442">
        <ele>105.64</ele>
        <time>2020-03-13T20:48:42.000Z</time>
      </trkpt>
      <trkpt lat="48.83468" lon="2.30431">
        <ele>105.57</ele>
        <time>2020-03-13T20:48:43.000Z</time>
      </trkpt>
      <trkpt lat="48.83467" lon="2.30422">
        <ele>105.52</ele>
        <time>2020-03-13T20:48:44.000Z</time>
      </trkpt>
      <trkpt lat="48.8347" lon="2.30416">
        <ele>105.49</ele>
        <time>2020-03-13T20:48:45.000Z</time>
      </trkpt>
      <trkpt lat="48.83473" lon="2.30409">
        <ele>105.46</ele>
        <time>2020-03-13T20:48:46.000Z</time>
      </trkpt>
      <trkpt lat="48.83472" lon="2.30402">
        <ele>105.45</ele>
        <time>2020-03-13T20:48:47.000Z</time>
      </trkpt>
      <trkpt lat="48.83472" lon="2.30395">
        <ele>105.44</ele>
        <time>2020-03-13T20:48:48.000Z</time>
      </trkpt>
      <trkpt lat="48.83473" lon="2.30389">
        <ele>105.45</ele>
        <time>2020-03-13T20:48:49.000Z</time>
      </trkpt>
      <trkpt lat="48.83473" lon="2.30381">
        <ele>105.45</ele>
        <time>2020-03-13T20:48:50.000Z</time>
      </trkpt>
      <trkpt lat="48.83474" lon="2.30373">
        <ele>105.46</ele>
        <time>2020-03-13T20:48:51.000Z</time>
      </trkpt>
      <trkpt lat="48.83475" lon="2.30368">
        <ele>105.46</ele>
        <time>2020-03-13T20:48:52.000Z</time>
      </trkpt>
      <trkpt lat="48.83477" lon="2.30362">
        <ele>105.46</ele>
        <time>2020-03-13T20:48:53.000Z</time>
      </trkpt>
      <trkpt lat="48.83478" lon="2.30356">
        <ele>105.46</ele>
        <time>2020-03-13T20:48:54.000Z</time>
      </trkpt>
      <trkpt lat="48.8348" lon="2.30347">
        <ele>105.45</ele>
        <time>2020-03-13T20:48:55.000Z</time>
      </trkpt>
      <trkpt lat="48.8348" lon="2.30341">
        <ele>105.44</ele>
        <time>2020-03-13T20:48:56.000Z</time>
      </trkpt>
      <trkpt lat="48.83479" lon="2.30333">
        <ele>105.42</ele>
        <time>2020-03-13T20:48:57.000Z</time>
      </trkpt>
      <trkpt lat="48.83478" lon="2.30329">
        <ele>105.41</ele>
        <time>2020-03-13T20:48:58.000Z</time>
      </trkpt>
      <trkpt lat="48.83478" lon="2.30321">
        <ele>105.38</ele>
        <time>2020-03-13T20:48:59.000Z</time>
      </trkpt>
      <trkpt lat="48.83477" lon="2.30315">
        <ele>105.36</ele>
        <time>2020-03-13T20:49:00.000Z</time>
      </trkpt>
      <trkpt lat="48.83481" lon="2.3031">
        <ele>105.33</ele>
        <time>2020-03-13T20:49:01.000Z</time>
      </trkpt>
      <trkpt lat="48.83486" lon="2.30302">
        <ele>105.28</ele>
        <time>2020-03-13T20:49:02.000Z</time>
      </trkpt>
      <trkpt lat="48.83487" lon="2.30294">
        <ele>105.28</ele>
        <time>2020-03-13T20:49:03.000Z</time>
      </trkpt>
      <trkpt lat="48.8349" lon="2.3029">
        <ele>105.23</ele>
        <time>2020-03-13T20:49:04.000Z</time>
      </trkpt>
      <trkpt lat="48.83493" lon="2.30282">
        <ele>105.17</ele>
        <time>2020-03-13T20:49:05.000Z</time>
      </trkpt>
      <trkpt lat="48.83496" lon="2.30272">
        <ele>105.12</ele>
        <time>2020-03-13T20:49:06.000Z</time>
      </trkpt>
      <trkpt lat="48.83496" lon="2.30267">
        <ele>105.07</ele>
        <time>2020-03-13T20:49:07.000Z</time>
      </trkpt>
      <trkpt lat="48.83498" lon="2.30262">
        <ele>105.01</ele>
        <time>2020-03-13T20:49:08.000Z</time>
      </trkpt>
      <trkpt lat="48.83501" lon="2.30253">
        <ele>104.94</ele>
        <time>2020-03-13T20:49:09.000Z</time>
      </trkpt>
      <trkpt lat="48.83502" lon="2.30243">
        <ele>104.88</ele>
        <time>2020-03-13T20:49:10.000Z</time>
      </trkpt>
      <trkpt lat="48.83504" lon="2.30239">
        <ele>104.81</ele>
        <time>2020-03-13T20:49:11.000Z</time>
      </trkpt>
      <trkpt lat="48.83509" lon="2.30236">
        <ele>104.76</ele>
        <time>2020-03-13T20:49:12.000Z</time>
      </trkpt>
      <trkpt lat="48.8351" lon="2.3023">
        <ele>104.7</ele>
        <time>2020-03-13T20:49:13.000Z</time>
      </trkpt>
      <trkpt lat="48.83513" lon="2.30222">
        <ele>104.63</ele>
        <time>2020-03-13T20:49:14.000Z</time>
      </trkpt>
      <trkpt lat="48.83518" lon="2.30219">
        <ele>104.56</ele>
        <time>2020-03-13T20:49:15.000Z</time>
      </trkpt>
      <trkpt lat="48.8352" lon="2.30209">
        <ele>104.48</ele>
        <time>2020-03-13T20:49:16.000Z</time>
      </trkpt>
      <trkpt lat="48.83523" lon="2.30204">
        <ele>104.42</ele>
        <time>2020-03-13T20:49:17.000Z</time>
      </trkpt>
      <trkpt lat="48.83527" lon="2.30198">
        <ele>104.35</ele>
        <time>2020-03-13T20:49:18.000Z</time>
      </trkpt>
      <trkpt lat="48.83525" lon="2.30192">
        <ele>104.3</ele>
        <time>2020-03-13T20:49:19.000Z</time>
      </trkpt>
      <trkpt lat="48.83526" lon="2.30185">
        <ele>104.29</ele>
        <time>2020-03-13T20:49:20.000Z</time>
      </trkpt>
      <trkpt lat="48.83531" lon="2.30175">
        <ele>104.29</ele>
        <time>2020-03-13T20:49:21.000Z</time>
      </trkpt>
      <trkpt lat="48.83538" lon="2.30168">
        <ele>104.28</ele>
        <time>2020-03-13T20:49:22.000Z</time>
      </trkpt>
      <trkpt lat="48.8354" lon="2.30162">
        <ele>104.28</ele>
        <time>2020-03-13T20:49:23.000Z</time>
      </trkpt>
      <trkpt lat="48.8354" lon="2.30154">
        <ele>104.28</ele>
        <time>2020-03-13T20:49:24.000Z</time>
      </trkpt>
      <trkpt lat="48.8354" lon="2.30148">
        <ele>104.25</ele>
        <time>2020-03-13T20:49:25.000Z</time>
      </trkpt>
      <trkpt lat="48.8354" lon="2.30141">
        <ele>104.22</ele>
        <time>2020-03-13T20:49:26.000Z</time>
      </trkpt>
      <trkpt lat="48.8354" lon="2.30133">
        <ele>104.2</ele>
        <time>2020-03-13T20:49:27.000Z</time>
      </trkpt>
      <trkpt lat="48.83545" lon="2.30128">
        <ele>104.18</ele>
        <time>2020-03-13T20:49:28.000Z</time>
      </trkpt>
      <trkpt lat="48.83548" lon="2.30114">
        <ele>104.17</ele>
        <time>2020-03-13T20:49:29.000Z</time>
      </trkpt>
      <trkpt lat="48.83553" lon="2.30109">
        <ele>104.15</ele>
        <time>2020-03-13T20:49:30.000Z</time>
      </trkpt>
      <trkpt lat="48.83556" lon="2.30103">
        <ele>104.14</ele>
        <time>2020-03-13T20:49:31.000Z</time>
      </trkpt>
      <trkpt lat="48.83558" lon="2.30096">
        <ele>104.12</ele>
        <time>2020-03-13T20:49:32.000Z</time>
      </trkpt>
      <trkpt lat="48.8356" lon="2.30089">
        <ele>104.12</ele>
        <time>2020-03-13T20:49:33.000Z</time>
      </trkpt>
      <trkpt lat="48.83559" lon="2.3008">
        <ele>104.13</ele>
        <time>2020-03-13T20:49:34.000Z</time>
      </trkpt>
      <trkpt lat="48.83561" lon="2.30071">
        <ele>104.14</ele>
        <time>2020-03-13T20:49:35.000Z</time>
      </trkpt>
      <trkpt lat="48.83563" lon="2.30063">
        <ele>104.15</ele>
        <time>2020-03-13T20:49:36.000Z</time>
      </trkpt>
      <trkpt lat="48.83566" lon="2.30058">
        <ele>104.14</ele>
        <time>2020-03-13T20:49:37.000Z</time>
      </trkpt>
      <trkpt lat="48.8357" lon="2.30052">
        <ele>104.13</ele>
        <time>2020-03-13T20:49:38.000Z</time>
      </trkpt>
      <trkpt lat="48.83571" lon="2.30047">
        <ele>104.1</ele>
        <time>2020-03-13T20:49:39.000Z</time>
      </trkpt>
      <trkpt lat="48.83573" lon="2.30041">
        <ele>104.07</ele>
        <time>2020-03-13T20:49:40.000Z</time>
      </trkpt>
      <trkpt lat="48.83576" lon="2.30036">
        <ele>104.06</ele>
        <time>2020-03-13T20:49:41.000Z</time>
      </trkpt>
      <trkpt lat="48.83575" lon="2.30028">
        <ele>104.03</ele>
        <time>2020-03-13T20:49:42.000Z</time>
      </trkpt>
      <trkpt lat="48.83576" lon="2.30019">
        <ele>103.99</ele>
        <time>2020-03-13T20:49:43.000Z</time>
      </trkpt>
      <trkpt lat="48.83577" lon="2.30014">
        <ele>103.95</ele>
        <time>2020-03-13T20:49:44.000Z</time>
      </trkpt>
      <trkpt lat="48.83578" lon="2.30007">
        <ele>103.94</ele>
        <time>2020-03-13T20:49:45.000Z</time>
      </trkpt>
      <trkpt lat="48.8358" lon="2.29998">
        <ele>103.88</ele>
        <time>2020-03-13T20:49:46.000Z</time>
      </trkpt>
      <trkpt lat="48.83582" lon="2.2999">
        <ele>103.87</ele>
        <time>2020-03-13T20:49:47.000Z</time>
      </trkpt>
      <trkpt lat="48.83584" lon="2.29981">
        <ele>103.81</ele>
        <time>2020-03-13T20:49:48.000Z</time>
      </trkpt>
      <trkpt lat="48.83586" lon="2.29976">
        <ele>103.77</ele>
        <time>2020-03-13T20:49:49.000Z</time>
      </trkpt>
      <trkpt lat="48.83588" lon="2.29963">
        <ele>103.73</ele>
        <time>2020-03-13T20:49:50.000Z</time>
      </trkpt>
      <trkpt lat="48.83592" lon="2.29956">
        <ele>103.71</ele>
        <time>2020-03-13T20:49:51.000Z</time>
      </trkpt>
      <trkpt lat="48.83595" lon="2.2995">
        <ele>103.69</ele>
        <time>2020-03-13T20:49:52.000Z</time>
      </trkpt>
      <trkpt lat="48.83597" lon="2.29943">
        <ele>103.68</ele>
        <time>2020-03-13T20:49:53.000Z</time>
      </trkpt>
      <trkpt lat="48.83604" lon="2.29933">
        <ele>103.66</ele>
        <time>2020-03-13T20:49:54.000Z</time>
      </trkpt>
      <trkpt lat="48.83607" lon="2.29928">
        <ele>103.64</ele>
        <time>2020-03-13T20:49:55.000Z</time>
      </trkpt>
      <trkpt lat="48.83606" lon="2.29923">
        <ele>103.64</ele>
        <time>2020-03-13T20:49:56.000Z</time>
      </trkpt>
      <trkpt lat="48.83607" lon="2.29917">
        <ele>103.64</ele>
        <time>2020-03-13T20:49:57.000Z</time>
      </trkpt>
      <trkpt lat="48.83608" lon="2.29911">
        <ele>103.64</ele>
        <time>2020-03-13T20:49:58.000Z</time>
      </trkpt>
      <trkpt lat="48.83609" lon="2.29905">
        <ele>103.64</ele>
        <time>2020-03-13T20:49:59.000Z</time>
      </trkpt>
      <trkpt lat="48.83612" lon="2.29898">
        <ele>103.63</ele>
        <time>2020-03-13T20:50:00.000Z</time>
      </trkpt>
      <trkpt lat="48.83614" lon="2.29891">
        <ele>103.62</ele>
        <time>2020-03-13T20:50:01.000Z</time>
      </trkpt>
      <trkpt lat="48.83617" lon="2.29886">
        <ele>103.61</ele>
        <time>2020-03-13T20:50:02.000Z</time>
      </trkpt>
      <trkpt lat="48.8362" lon="2.29879">
        <ele>103.61</ele>
        <time>2020-03-13T20:50:03.000Z</time>
      </trkpt>
      <trkpt lat="48.83623" lon="2.29871">
        <ele>103.6</ele>
        <time>2020-03-13T20:50:04.000Z</time>
      </trkpt>
      <trkpt lat="48.83625" lon="2.29865">
        <ele>103.6</ele>
        <time>2020-03-13T20:50:05.000Z</time>
      </trkpt>
      <trkpt lat="48.83628" lon="2.29857">
        <ele>103.61</ele>
        <time>2020-03-13T20:50:06.000Z</time>
      </trkpt>
      <trkpt lat="48.83629" lon="2.29851">
        <ele>103.61</ele>
        <time>2020-03-13T20:50:07.000Z</time>
      </trkpt>
      <trkpt lat="48.8363" lon="2.29844">
        <ele>103.61</ele>
        <time>2020-03-13T20:50:08.000Z</time>
      </trkpt>
      <trkpt lat="48.83631" lon="2.29838">
        <ele>103.62</ele>
        <time>2020-03-13T20:50:09.000Z</time>
      </trkpt>
      <trkpt lat="48.83632" lon="2.29831">
        <ele>103.63</ele>
        <time>2020-03-13T20:50:10.000Z</time>
      </trkpt>
      <trkpt lat="48.83632" lon="2.29823">
        <ele>103.64</ele>
        <time>2020-03-13T20:50:11.000Z</time>
      </trkpt>
      <trkpt lat="48.83635" lon="2.29819">
        <ele>103.64</ele>
        <time>2020-03-13T20:50:12.000Z</time>
      </trkpt>
      <trkpt lat="48.83637" lon="2.29813">
        <ele>103.64</ele>
        <time>2020-03-13T20:50:13.000Z</time>
      </trkpt>
      <trkpt lat="48.83639" lon="2.29807">
        <ele>103.64</ele>
        <time>2020-03-13T20:50:14.000Z</time>
      </trkpt>
      <trkpt lat="48.83641" lon="2.29802">
        <ele>103.62</ele>
        <time>2020-03-13T20:50:15.000Z</time>
      </trkpt>
      <trkpt lat="48.83643" lon="2.29797">
        <ele>103.61</ele>
        <time>2020-03-13T20:50:16.000Z</time>
      </trkpt>
      <trkpt lat="48.83645" lon="2.2979">
        <ele>103.59</ele>
        <time>2020-03-13T20:50:17.000Z</time>
      </trkpt>
      <trkpt lat="48.83647" lon="2.29784">
        <ele>103.57</ele>
        <time>2020-03-13T20:50:18.000Z</time>
      </trkpt>
      <trkpt lat="48.83651" lon="2.29781">
        <ele>103.56</ele>
        <time>2020-03-13T20:50:19.000Z</time>
      </trkpt>
      <trkpt lat="48.83652" lon="2.29777">
        <ele>103.56</ele>
        <time>2020-03-13T20:50:20.000Z</time>
      </trkpt>
      <trkpt lat="48.83653" lon="2.29771">
        <ele>103.56</ele>
        <time>2020-03-13T20:50:21.000Z</time>
      </trkpt>
      <trkpt lat="48.83653" lon="2.29766">
        <ele>103.55</ele>
        <time>2020-03-13T20:50:22.000Z</time>
      </trkpt>
      <trkpt lat="48.83655" lon="2.29763">
        <ele>103.55</ele>
        <time>2020-03-13T20:50:23.000Z</time>
      </trkpt>
      <trkpt lat="48.83656" lon="2.2976">
        <ele>103.54</ele>
        <time>2020-03-13T20:50:24.000Z</time>
      </trkpt>
      <trkpt lat="48.83657" lon="2.29754">
        <ele>103.53</ele>
        <time>2020-03-13T20:50:25.000Z</time>
      </trkpt>
      <trkpt lat="48.83657" lon="2.29749">
        <ele>103.52</ele>
        <time>2020-03-13T20:50:26.000Z</time>
      </trkpt>
      <trkpt lat="48.83659" lon="2.29747">
        <ele>103.51</ele>
        <time>2020-03-13T20:50:27.000Z</time>
      </trkpt>
      <trkpt lat="48.8366" lon="2.29742">
        <ele>103.5</ele>
        <time>2020-03-13T20:50:28.000Z</time>
      </trkpt>
      <trkpt lat="48.83662" lon="2.29736">
        <ele>103.38</ele>
        <time>2020-03-13T20:50:29.000Z</time>
      </trkpt>
      <trkpt lat="48.83665" lon="2.29731">
        <ele>103.37</ele>
        <time>2020-03-13T20:50:30.000Z</time>
      </trkpt>
      <trkpt lat="48.83668" lon="2.29725">
        <ele>103.36</ele>
        <time>2020-03-13T20:50:31.000Z</time>
      </trkpt>
      <trkpt lat="48.83671" lon="2.29717">
        <ele>103.35</ele>
        <time>2020-03-13T20:50:32.000Z</time>
      </trkpt>
      <trkpt lat="48.83673" lon="2.2971">
        <ele>103.33</ele>
        <time>2020-03-13T20:50:33.000Z</time>
      </trkpt>
      <trkpt lat="48.83675" lon="2.29705">
        <ele>103.32</ele>
        <time>2020-03-13T20:50:34.000Z</time>
      </trkpt>
      <trkpt lat="48.83678" lon="2.29699">
        <ele>103.3</ele>
        <time>2020-03-13T20:50:35.000Z</time>
      </trkpt>
      <trkpt lat="48.8368" lon="2.29693">
        <ele>103.28</ele>
        <time>2020-03-13T20:50:36.000Z</time>
      </trkpt>
      <trkpt lat="48.83682" lon="2.29689">
        <ele>103.27</ele>
        <time>2020-03-13T20:50:37.000Z</time>
      </trkpt>
      <trkpt lat="48.83685" lon="2.29683">
        <ele>103.24</ele>
        <time>2020-03-13T20:50:38.000Z</time>
      </trkpt>
      <trkpt lat="48.83688" lon="2.29677">
        <ele>103.03</ele>
        <time>2020-03-13T20:50:39.000Z</time>
      </trkpt>
      <trkpt lat="48.83691" lon="2.29674">
        <ele>103.01</ele>
        <time>2020-03-13T20:50:40.000Z</time>
      </trkpt>
      <trkpt lat="48.83694" lon="2.29669">
        <ele>102.99</ele>
        <time>2020-03-13T20:50:41.000Z</time>
      </trkpt>
      <trkpt lat="48.83697" lon="2.29663">
        <ele>102.97</ele>
        <time>2020-03-13T20:50:42.000Z</time>
      </trkpt>
      <trkpt lat="48.83699" lon="2.29656">
        <ele>102.95</ele>
        <time>2020-03-13T20:50:43.000Z</time>
      </trkpt>
      <trkpt lat="48.83702" lon="2.2965">
        <ele>102.93</ele>
        <time>2020-03-13T20:50:44.000Z</time>
      </trkpt>
      <trkpt lat="48.83704" lon="2.29647">
        <ele>102.91</ele>
        <time>2020-03-13T20:50:45.000Z</time>
      </trkpt>
      <trkpt lat="48.83705" lon="2.29644">
        <ele>102.89</ele>
        <time>2020-03-13T20:50:46.000Z</time>
      </trkpt>
      <trkpt lat="48.83707" lon="2.29638">
        <ele>102.86</ele>
        <time>2020-03-13T20:50:47.000Z</time>
      </trkpt>
      <trkpt lat="48.83711" lon="2.29634">
        <ele>102.84</ele>
        <time>2020-03-13T20:50:48.000Z</time>
      </trkpt>
      <trkpt lat="48.83715" lon="2.2963">
        <ele>102.82</ele>
        <time>2020-03-13T20:50:49.000Z</time>
      </trkpt>
      <trkpt lat="48.83721" lon="2.29624">
        <ele>102.8</ele>
        <time>2020-03-13T20:50:50.000Z</time>
      </trkpt>
      <trkpt lat="48.83724" lon="2.29618">
        <ele>102.77</ele>
        <time>2020-03-13T20:50:51.000Z</time>
      </trkpt>
      <trkpt lat="48.83727" lon="2.29612">
        <ele>102.56</ele>
        <time>2020-03-13T20:50:52.000Z</time>
      </trkpt>
      <trkpt lat="48.83729" lon="2.29606">
        <ele>102.39</ele>
        <time>2020-03-13T20:50:53.000Z</time>
      </trkpt>
      <trkpt lat="48.83733" lon="2.29602">
        <ele>102.38</ele>
        <time>2020-03-13T20:50:54.000Z</time>
      </trkpt>
      <trkpt lat="48.83734" lon="2.29597">
        <ele>102.36</ele>
        <time>2020-03-13T20:50:55.000Z</time>
      </trkpt>
      <trkpt lat="48.83736" lon="2.29592">
        <ele>102.23</ele>
        <time>2020-03-13T20:50:56.000Z</time>
      </trkpt>
      <trkpt lat="48.83738" lon="2.29586">
        <ele>102.11</ele>
        <time>2020-03-13T20:50:57.000Z</time>
      </trkpt>
      <trkpt lat="48.83741" lon="2.29582">
        <ele>102.1</ele>
        <time>2020-03-13T20:50:58.000Z</time>
      </trkpt>
      <trkpt lat="48.83744" lon="2.29577">
        <ele>101.99</ele>
        <time>2020-03-13T20:50:59.000Z</time>
      </trkpt>
      <trkpt lat="48.83748" lon="2.29573">
        <ele>101.88</ele>
        <time>2020-03-13T20:51:00.000Z</time>
      </trkpt>
      <trkpt lat="48.83752" lon="2.29566">
        <ele>101.8</ele>
        <time>2020-03-13T20:51:01.000Z</time>
      </trkpt>
      <trkpt lat="48.83755" lon="2.2956">
        <ele>101.74</ele>
        <time>2020-03-13T20:51:02.000Z</time>
      </trkpt>
      <trkpt lat="48.83759" lon="2.29555">
        <ele>101.69</ele>
        <time>2020-03-13T20:51:03.000Z</time>
      </trkpt>
      <trkpt lat="48.83763" lon="2.29551">
        <ele>101.64</ele>
        <time>2020-03-13T20:51:04.000Z</time>
      </trkpt>
      <trkpt lat="48.83767" lon="2.29546">
        <ele>101.61</ele>
        <time>2020-03-13T20:51:05.000Z</time>
      </trkpt>
      <trkpt lat="48.83771" lon="2.2954">
        <ele>101.58</ele>
        <time>2020-03-13T20:51:06.000Z</time>
      </trkpt>
      <trkpt lat="48.83774" lon="2.29533">
        <ele>101.55</ele>
        <time>2020-03-13T20:51:07.000Z</time>
      </trkpt>
      <trkpt lat="48.83777" lon="2.29526">
        <ele>101.53</ele>
        <time>2020-03-13T20:51:08.000Z</time>
      </trkpt>
      <trkpt lat="48.8378" lon="2.2952">
        <ele>101.51</ele>
        <time>2020-03-13T20:51:09.000Z</time>
      </trkpt>
      <trkpt lat="48.83782" lon="2.29513">
        <ele>101.51</ele>
        <time>2020-03-13T20:51:10.000Z</time>
      </trkpt>
      <trkpt lat="48.83785" lon="2.29505">
        <ele>101.49</ele>
        <time>2020-03-13T20:51:11.000Z</time>
      </trkpt>
      <trkpt lat="48.83788" lon="2.29499">
        <ele>101.49</ele>
        <time>2020-03-13T20:51:12.000Z</time>
      </trkpt>
      <trkpt lat="48.8379" lon="2.29492">
        <ele>101.47</ele>
        <time>2020-03-13T20:51:13.000Z</time>
      </trkpt>
      <trkpt lat="48.83793" lon="2.29485">
        <ele>101.46</ele>
        <time>2020-03-13T20:51:14.000Z</time>
      </trkpt>
      <trkpt lat="48.83797" lon="2.29479">
        <ele>101.44</ele>
        <time>2020-03-13T20:51:15.000Z</time>
      </trkpt>
      <trkpt lat="48.83799" lon="2.29471">
        <ele>101.42</ele>
        <time>2020-03-13T20:51:16.000Z</time>
      </trkpt>
      <trkpt lat="48.83803" lon="2.29463">
        <ele>101.4</ele>
        <time>2020-03-13T20:51:17.000Z</time>
      </trkpt>
      <trkpt lat="48.83805" lon="2.29456">
        <ele>101.39</ele>
        <time>2020-03-13T20:51:18.000Z</time>
      </trkpt>
      <trkpt lat="48.83808" lon="2.29449">
        <ele>101.38</ele>
        <time>2020-03-13T20:51:19.000Z</time>
      </trkpt>
      <trkpt lat="48.8381" lon="2.29443">
        <ele>101.36</ele>
        <time>2020-03-13T20:51:20.000Z</time>
      </trkpt>
      <trkpt lat="48.83812" lon="2.29437">
        <ele>101.34</ele>
        <time>2020-03-13T20:51:21.000Z</time>
      </trkpt>
      <trkpt lat="48.83815" lon="2.29432">
        <ele>101.33</ele>
        <time>2020-03-13T20:51:22.000Z</time>
      </trkpt>
      <trkpt lat="48.83817" lon="2.29425">
        <ele>101.31</ele>
        <time>2020-03-13T20:51:23.000Z</time>
      </trkpt>
      <trkpt lat="48.8382" lon="2.29419">
        <ele>101.29</ele>
        <time>2020-03-13T20:51:24.000Z</time>
      </trkpt>
      <trkpt lat="48.83823" lon="2.29414">
        <ele>101.28</ele>
        <time>2020-03-13T20:51:25.000Z</time>
      </trkpt>
      <trkpt lat="48.83826" lon="2.29409">
        <ele>101.28</ele>
        <time>2020-03-13T20:51:26.000Z</time>
      </trkpt>
      <trkpt lat="48.83828" lon="2.29403">
        <ele>101.27</ele>
        <time>2020-03-13T20:51:27.000Z</time>
      </trkpt>
      <trkpt lat="48.83831" lon="2.29397">
        <ele>101.27</ele>
        <time>2020-03-13T20:51:28.000Z</time>
      </trkpt>
      <trkpt lat="48.83834" lon="2.29391">
        <ele>101.28</ele>
        <time>2020-03-13T20:51:29.000Z</time>
      </trkpt>
      <trkpt lat="48.83838" lon="2.29385">
        <ele>101.28</ele>
        <time>2020-03-13T20:51:30.000Z</time>
      </trkpt>
      <trkpt lat="48.83841" lon="2.29379">
        <ele>101.28</ele>
        <time>2020-03-13T20:51:31.000Z</time>
      </trkpt>
      <trkpt lat="48.83844" lon="2.29373">
        <ele>101.28</ele>
        <time>2020-03-13T20:51:32.000Z</time>
      </trkpt>
      <trkpt lat="48.83847" lon="2.29368">
        <ele>101.29</ele>
        <time>2020-03-13T20:51:33.000Z</time>
      </trkpt>
      <trkpt lat="48.8385" lon="2.29362">
        <ele>101.28</ele>
        <time>2020-03-13T20:51:34.000Z</time>
      </trkpt>
      <trkpt lat="48.83853" lon="2.29357">
        <ele>101.27</ele>
        <time>2020-03-13T20:51:35.000Z</time>
      </trkpt>
      <trkpt lat="48.83856" lon="2.29352">
        <ele>101.27</ele>
        <time>2020-03-13T20:51:36.000Z</time>
      </trkpt>
      <trkpt lat="48.83859" lon="2.29347">
        <ele>101.27</ele>
        <time>2020-03-13T20:51:37.000Z</time>
      </trkpt>
      <trkpt lat="48.83862" lon="2.29341">
        <ele>101.27</ele>
        <time>2020-03-13T20:51:38.000Z</time>
      </trkpt>
      <trkpt lat="48.83865" lon="2.29335">
        <ele>101.27</ele>
        <time>2020-03-13T20:51:39.000Z</time>
      </trkpt>
      <trkpt lat="48.83869" lon="2.2933">
        <ele>101.27</ele>
        <time>2020-03-13T20:51:40.000Z</time>
      </trkpt>
      <trkpt lat="48.83874" lon="2.29324">
        <ele>101.27</ele>
        <time>2020-03-13T20:51:41.000Z</time>
      </trkpt>
      <trkpt lat="48.83878" lon="2.29318">
        <ele>101.27</ele>
        <time>2020-03-13T20:51:42.000Z</time>
      </trkpt>
      <trkpt lat="48.83881" lon="2.29313">
        <ele>101.27</ele>
        <time>2020-03-13T20:51:43.000Z</time>
      </trkpt>
      <trkpt lat="48.83884" lon="2.29307">
        <ele>101.27</ele>
        <time>2020-03-13T20:51:44.000Z</time>
      </trkpt>
      <trkpt lat="48.83887" lon="2.29301">
        <ele>101.27</ele>
        <time>2020-03-13T20:51:45.000Z</time>
      </trkpt>
      <trkpt lat="48.8389" lon="2.29296">
        <ele>101.25</ele>
        <time>2020-03-13T20:51:46.000Z</time>
      </trkpt>
      <trkpt lat="48.83893" lon="2.2929">
        <ele>101.23</ele>
        <time>2020-03-13T20:51:47.000Z</time>
      </trkpt>
      <trkpt lat="48.83896" lon="2.29285">
        <ele>101.23</ele>
        <time>2020-03-13T20:51:48.000Z</time>
      </trkpt>
      <trkpt lat="48.83899" lon="2.29281">
        <ele>101.23</ele>
        <time>2020-03-13T20:51:49.000Z</time>
      </trkpt>
      <trkpt lat="48.83901" lon="2.29273">
        <ele>101.22</ele>
        <time>2020-03-13T20:51:50.000Z</time>
      </trkpt>
      <trkpt lat="48.83904" lon="2.29267">
        <ele>101.22</ele>
        <time>2020-03-13T20:51:51.000Z</time>
      </trkpt>
      <trkpt lat="48.83906" lon="2.29264">
        <ele>101.22</ele>
        <time>2020-03-13T20:51:52.000Z</time>
      </trkpt>
      <trkpt lat="48.83909" lon="2.29259">
        <ele>101.21</ele>
        <time>2020-03-13T20:51:53.000Z</time>
      </trkpt>
      <trkpt lat="48.83911" lon="2.29255">
        <ele>101.21</ele>
        <time>2020-03-13T20:51:54.000Z</time>
      </trkpt>
      <trkpt lat="48.83914" lon="2.29247">
        <ele>101.21</ele>
        <time>2020-03-13T20:51:55.000Z</time>
      </trkpt>
      <trkpt lat="48.83917" lon="2.2924">
        <ele>101.2</ele>
        <time>2020-03-13T20:51:56.000Z</time>
      </trkpt>
      <trkpt lat="48.83919" lon="2.29235">
        <ele>101.2</ele>
        <time>2020-03-13T20:51:57.000Z</time>
      </trkpt>
      <trkpt lat="48.83922" lon="2.29231">
        <ele>101.19</ele>
        <time>2020-03-13T20:51:58.000Z</time>
      </trkpt>
      <trkpt lat="48.83924" lon="2.29225">
        <ele>101.19</ele>
        <time>2020-03-13T20:51:59.000Z</time>
      </trkpt>
      <trkpt lat="48.83926" lon="2.2922">
        <ele>101.18</ele>
        <time>2020-03-13T20:52:00.000Z</time>
      </trkpt>
      <trkpt lat="48.83928" lon="2.29215">
        <ele>101.18</ele>
        <time>2020-03-13T20:52:01.000Z</time>
      </trkpt>
      <trkpt lat="48.83929" lon="2.2921">
        <ele>101.17</ele>
        <time>2020-03-13T20:52:02.000Z</time>
      </trkpt>
      <trkpt lat="48.8393" lon="2.29204">
        <ele>101.17</ele>
        <time>2020-03-13T20:52:03.000Z</time>
      </trkpt>
      <trkpt lat="48.83931" lon="2.29198">
        <ele>101.16</ele>
        <time>2020-03-13T20:52:04.000Z</time>
      </trkpt>
      <trkpt lat="48.83933" lon="2.29193">
        <ele>101.16</ele>
        <time>2020-03-13T20:52:05.000Z</time>
      </trkpt>
      <trkpt lat="48.83935" lon="2.29188">
        <ele>101.1</ele>
        <time>2020-03-13T20:52:06.000Z</time>
      </trkpt>
      <trkpt lat="48.83937" lon="2.29181">
        <ele>101.05</ele>
        <time>2020-03-13T20:52:07.000Z</time>
      </trkpt>
      <trkpt lat="48.83939" lon="2.29173">
        <ele>101.01</ele>
        <time>2020-03-13T20:52:08.000Z</time>
      </trkpt>
      <trkpt lat="48.83942" lon="2.29167">
        <ele>100.99</ele>
        <time>2020-03-13T20:52:09.000Z</time>
      </trkpt>
      <trkpt lat="48.83945" lon="2.29161">
        <ele>100.97</ele>
        <time>2020-03-13T20:52:10.000Z</time>
      </trkpt>
      <trkpt lat="48.83948" lon="2.29154">
        <ele>100.96</ele>
        <time>2020-03-13T20:52:11.000Z</time>
      </trkpt>
      <trkpt lat="48.83951" lon="2.29146">
        <ele>100.95</ele>
        <time>2020-03-13T20:52:12.000Z</time>
      </trkpt>
      <trkpt lat="48.83955" lon="2.29139">
        <ele>100.95</ele>
        <time>2020-03-13T20:52:13.000Z</time>
      </trkpt>
      <trkpt lat="48.83957" lon="2.29132">
        <ele>100.94</ele>
        <time>2020-03-13T20:52:14.000Z</time>
      </trkpt>
      <trkpt lat="48.83959" lon="2.29125">
        <ele>100.92</ele>
        <time>2020-03-13T20:52:15.000Z</time>
      </trkpt>
      <trkpt lat="48.83963" lon="2.29118">
        <ele>100.91</ele>
        <time>2020-03-13T20:52:16.000Z</time>
      </trkpt>
      <trkpt lat="48.83966" lon="2.29111">
        <ele>100.91</ele>
        <time>2020-03-13T20:52:17.000Z</time>
      </trkpt>
      <trkpt lat="48.83969" lon="2.29105">
        <ele>100.9</ele>
        <time>2020-03-13T20:52:18.000Z</time>
      </trkpt>
      <trkpt lat="48.83973" lon="2.29099">
        <ele>100.9</ele>
        <time>2020-03-13T20:52:19.000Z</time>
      </trkpt>
      <trkpt lat="48.83976" lon="2.29093">
        <ele>100.9</ele>
        <time>2020-03-13T20:52:20.000Z</time>
      </trkpt>
      <trkpt lat="48.8398" lon="2.29087">
        <ele>100.9</ele>
        <time>2020-03-13T20:52:21.000Z</time>
      </trkpt>
      <trkpt lat="48.83983" lon="2.2908">
        <ele>100.9</ele>
        <time>2020-03-13T20:52:22.000Z</time>
      </trkpt>
      <trkpt lat="48.83986" lon="2.29073">
        <ele>100.9</ele>
        <time>2020-03-13T20:52:23.000Z</time>
      </trkpt>
      <trkpt lat="48.83988" lon="2.29067">
        <ele>100.9</ele>
        <time>2020-03-13T20:52:24.000Z</time>
      </trkpt>
      <trkpt lat="48.8399" lon="2.2906">
        <ele>100.9</ele>
        <time>2020-03-13T20:52:25.000Z</time>
      </trkpt>
      <trkpt lat="48.83992" lon="2.29053">
        <ele>100.89</ele>
        <time>2020-03-13T20:52:26.000Z</time>
      </trkpt>
      <trkpt lat="48.83996" lon="2.29049">
        <ele>100.89</ele>
        <time>2020-03-13T20:52:27.000Z</time>
      </trkpt>
      <trkpt lat="48.84" lon="2.29042">
        <ele>100.88</ele>
        <time>2020-03-13T20:52:28.000Z</time>
      </trkpt>
      <trkpt lat="48.84003" lon="2.29037">
        <ele>100.88</ele>
        <time>2020-03-13T20:52:29.000Z</time>
      </trkpt>
      <trkpt lat="48.84006" lon="2.29028">
        <ele>100.88</ele>
        <time>2020-03-13T20:52:30.000Z</time>
      </trkpt>
      <trkpt lat="48.84008" lon="2.29023">
        <ele>100.88</ele>
        <time>2020-03-13T20:52:31.000Z</time>
      </trkpt>
      <trkpt lat="48.84011" lon="2.29015">
        <ele>100.86</ele>
        <time>2020-03-13T20:52:32.000Z</time>
      </trkpt>
      <trkpt lat="48.84014" lon="2.2901">
        <ele>100.85</ele>
        <time>2020-03-13T20:52:33.000Z</time>
      </trkpt>
      <trkpt lat="48.84016" lon="2.29004">
        <ele>100.83</ele>
        <time>2020-03-13T20:52:34.000Z</time>
      </trkpt>
      <trkpt lat="48.84018" lon="2.28998">
        <ele>100.8</ele>
        <time>2020-03-13T20:52:35.000Z</time>
      </trkpt>
      <trkpt lat="48.8402" lon="2.28993">
        <ele>100.78</ele>
        <time>2020-03-13T20:52:36.000Z</time>
      </trkpt>
      <trkpt lat="48.84023" lon="2.28987">
        <ele>100.76</ele>
        <time>2020-03-13T20:52:37.000Z</time>
      </trkpt>
      <trkpt lat="48.84025" lon="2.28981">
        <ele>100.74</ele>
        <time>2020-03-13T20:52:38.000Z</time>
      </trkpt>
      <trkpt lat="48.84028" lon="2.28975">
        <ele>100.71</ele>
        <time>2020-03-13T20:52:39.000Z</time>
      </trkpt>
      <trkpt lat="48.8403" lon="2.28967">
        <ele>100.67</ele>
        <time>2020-03-13T20:52:40.000Z</time>
      </trkpt>
      <trkpt lat="48.84032" lon="2.28959">
        <ele>100.62</ele>
        <time>2020-03-13T20:52:41.000Z</time>
      </trkpt>
      <trkpt lat="48.84035" lon="2.28952">
        <ele>100.58</ele>
        <time>2020-03-13T20:52:42.000Z</time>
      </trkpt>
      <trkpt lat="48.84037" lon="2.28945">
        <ele>100.54</ele>
        <time>2020-03-13T20:52:43.000Z</time>
      </trkpt>
      <trkpt lat="48.84039" lon="2.28939">
        <ele>100.5</ele>
        <time>2020-03-13T20:52:44.000Z</time>
      </trkpt>
      <trkpt lat="48.84042" lon="2.28933">
        <ele>100.46</ele>
        <time>2020-03-13T20:52:45.000Z</time>
      </trkpt>
      <trkpt lat="48.84045" lon="2.28927">
        <ele>100.42</ele>
        <time>2020-03-13T20:52:46.000Z</time>
      </trkpt>
      <trkpt lat="48.84048" lon="2.2892">
        <ele>100.38</ele>
        <time>2020-03-13T20:52:47.000Z</time>
      </trkpt>
      <trkpt lat="48.84051" lon="2.28914">
        <ele>100.34</ele>
        <time>2020-03-13T20:52:48.000Z</time>
      </trkpt>
      <trkpt lat="48.84054" lon="2.28908">
        <ele>100.31</ele>
        <time>2020-03-13T20:52:49.000Z</time>
      </trkpt>
      <trkpt lat="48.84057" lon="2.28903">
        <ele>100.28</ele>
        <time>2020-03-13T20:52:50.000Z</time>
      </trkpt>
      <trkpt lat="48.84061" lon="2.28897">
        <ele>100.24</ele>
        <time>2020-03-13T20:52:51.000Z</time>
      </trkpt>
      <trkpt lat="48.84064" lon="2.28892">
        <ele>100.21</ele>
        <time>2020-03-13T20:52:52.000Z</time>
      </trkpt>
      <trkpt lat="48.84068" lon="2.28885">
        <ele>100.18</ele>
        <time>2020-03-13T20:52:53.000Z</time>
      </trkpt>
      <trkpt lat="48.84072" lon="2.28879">
        <ele>100.16</ele>
        <time>2020-03-13T20:52:54.000Z</time>
      </trkpt>
      <trkpt lat="48.84076" lon="2.28873">
        <ele>100.15</ele>
        <time>2020-03-13T20:52:55.000Z</time>
      </trkpt>
      <trkpt lat="48.8408" lon="2.28867">
        <ele>100.14</ele>
        <time>2020-03-13T20:52:56.000Z</time>
      </trkpt>
      <trkpt lat="48.84084" lon="2.28859">
        <ele>100.13</ele>
        <time>2020-03-13T20:52:57.000Z</time>
      </trkpt>
      <trkpt lat="48.84087" lon="2.28852">
        <ele>100.13</ele>
        <time>2020-03-13T20:52:58.000Z</time>
      </trkpt>
      <trkpt lat="48.84091" lon="2.28844">
        <ele>100.13</ele>
        <time>2020-03-13T20:52:59.000Z</time>
      </trkpt>
      <trkpt lat="48.84095" lon="2.28837">
        <ele>100.13</ele>
        <time>2020-03-13T20:53:00.000Z</time>
      </trkpt>
      <trkpt lat="48.84098" lon="2.2883">
        <ele>100.14</ele>
        <time>2020-03-13T20:53:01.000Z</time>
      </trkpt>
      <trkpt lat="48.84102" lon="2.28822">
        <ele>100.14</ele>
        <time>2020-03-13T20:53:02.000Z</time>
      </trkpt>
      <trkpt lat="48.84105" lon="2.28815">
        <ele>100.13</ele>
        <time>2020-03-13T20:53:03.000Z</time>
      </trkpt>
      <trkpt lat="48.84109" lon="2.28809">
        <ele>100.13</ele>
        <time>2020-03-13T20:53:04.000Z</time>
      </trkpt>
      <trkpt lat="48.84113" lon="2.28803">
        <ele>100.13</ele>
        <time>2020-03-13T20:53:05.000Z</time>
      </trkpt>
      <trkpt lat="48.84116" lon="2.28796">
        <ele>100.12</ele>
        <time>2020-03-13T20:53:06.000Z</time>
      </trkpt>
      <trkpt lat="48.8412" lon="2.28791">
        <ele>100.11</ele>
        <time>2020-03-13T20:53:07.000Z</time>
      </trkpt>
      <trkpt lat="48.84124" lon="2.28785">
        <ele>100.11</ele>
        <time>2020-03-13T20:53:08.000Z</time>
      </trkpt>
      <trkpt lat="48.84126" lon="2.28781">
        <ele>100.12</ele>
        <time>2020-03-13T20:53:09.000Z</time>
      </trkpt>
      <trkpt lat="48.8413" lon="2.28774">
        <ele>100.12</ele>
        <time>2020-03-13T20:53:10.000Z</time>
      </trkpt>
      <trkpt lat="48.84135" lon="2.28769">
        <ele>100.12</ele>
        <time>2020-03-13T20:53:11.000Z</time>
      </trkpt>
      <trkpt lat="48.84141" lon="2.28763">
        <ele>100.13</ele>
        <time>2020-03-13T20:53:12.000Z</time>
      </trkpt>
      <trkpt lat="48.84146" lon="2.28753">
        <ele>100.14</ele>
        <time>2020-03-13T20:53:13.000Z</time>
      </trkpt>
      <trkpt lat="48.8415" lon="2.28743">
        <ele>100.14</ele>
        <time>2020-03-13T20:53:14.000Z</time>
      </trkpt>
      <trkpt lat="48.84154" lon="2.28732">
        <ele>100.15</ele>
        <time>2020-03-13T20:53:15.000Z</time>
      </trkpt>
      <trkpt lat="48.84158" lon="2.28724">
        <ele>100.15</ele>
        <time>2020-03-13T20:53:16.000Z</time>
      </trkpt>
      <trkpt lat="48.84163" lon="2.28714">
        <ele>100.15</ele>
        <time>2020-03-13T20:53:17.000Z</time>
      </trkpt>
      <trkpt lat="48.84167" lon="2.28705">
        <ele>100.15</ele>
        <time>2020-03-13T20:53:18.000Z</time>
      </trkpt>
      <trkpt lat="48.84171" lon="2.28697">
        <ele>100.16</ele>
        <time>2020-03-13T20:53:19.000Z</time>
      </trkpt>
      <trkpt lat="48.84175" lon="2.28689">
        <ele>100.16</ele>
        <time>2020-03-13T20:53:20.000Z</time>
      </trkpt>
      <trkpt lat="48.84178" lon="2.28681">
        <ele>100.17</ele>
        <time>2020-03-13T20:53:21.000Z</time>
      </trkpt>
      <trkpt lat="48.84181" lon="2.28673">
        <ele>100.18</ele>
        <time>2020-03-13T20:53:22.000Z</time>
      </trkpt>
      <trkpt lat="48.84184" lon="2.28665">
        <ele>100.18</ele>
        <time>2020-03-13T20:53:23.000Z</time>
      </trkpt>
      <trkpt lat="48.84187" lon="2.28657">
        <ele>100.18</ele>
        <time>2020-03-13T20:53:24.000Z</time>
      </trkpt>
      <trkpt lat="48.8419" lon="2.28649">
        <ele>100.19</ele>
        <time>2020-03-13T20:53:25.000Z</time>
      </trkpt>
      <trkpt lat="48.84193" lon="2.28642">
        <ele>100.19</ele>
        <time>2020-03-13T20:53:26.000Z</time>
      </trkpt>
      <trkpt lat="48.84197" lon="2.28636">
        <ele>100.19</ele>
        <time>2020-03-13T20:53:27.000Z</time>
      </trkpt>
      <trkpt lat="48.84201" lon="2.2863">
        <ele>100.2</ele>
        <time>2020-03-13T20:53:28.000Z</time>
      </trkpt>
      <trkpt lat="48.84204" lon="2.28625">
        <ele>100.21</ele>
        <time>2020-03-13T20:53:29.000Z</time>
      </trkpt>
      <trkpt lat="48.84207" lon="2.28618">
        <ele>100.22</ele>
        <time>2020-03-13T20:53:30.000Z</time>
      </trkpt>
      <trkpt lat="48.8421" lon="2.28612">
        <ele>100.23</ele>
        <time>2020-03-13T20:53:31.000Z</time>
      </trkpt>
      <trkpt lat="48.84213" lon="2.28605">
        <ele>100.24</ele>
        <time>2020-03-13T20:53:32.000Z</time>
      </trkpt>
      <trkpt lat="48.84216" lon="2.28597">
        <ele>100.24</ele>
        <time>2020-03-13T20:53:33.000Z</time>
      </trkpt>
      <trkpt lat="48.84218" lon="2.2859">
        <ele>100.24</ele>
        <time>2020-03-13T20:53:34.000Z</time>
      </trkpt>
      <trkpt lat="48.8422" lon="2.28582">
        <ele>100.24</ele>
        <time>2020-03-13T20:53:35.000Z</time>
      </trkpt>
      <trkpt lat="48.84223" lon="2.28576">
        <ele>100.25</ele>
        <time>2020-03-13T20:53:36.000Z</time>
      </trkpt>
      <trkpt lat="48.84225" lon="2.2857">
        <ele>100.25</ele>
        <time>2020-03-13T20:53:37.000Z</time>
      </trkpt>
      <trkpt lat="48.84228" lon="2.28564">
        <ele>100.26</ele>
        <time>2020-03-13T20:53:38.000Z</time>
      </trkpt>
      <trkpt lat="48.84231" lon="2.28559">
        <ele>100.27</ele>
        <time>2020-03-13T20:53:39.000Z</time>
      </trkpt>
      <trkpt lat="48.84234" lon="2.28554">
        <ele>100.28</ele>
        <time>2020-03-13T20:53:40.000Z</time>
      </trkpt>
      <trkpt lat="48.84236" lon="2.28547">
        <ele>100.29</ele>
        <time>2020-03-13T20:53:41.000Z</time>
      </trkpt>
      <trkpt lat="48.84238" lon="2.28541">
        <ele>100.3</ele>
        <time>2020-03-13T20:53:42.000Z</time>
      </trkpt>
      <trkpt lat="48.84241" lon="2.28534">
        <ele>100.31</ele>
        <time>2020-03-13T20:53:43.000Z</time>
      </trkpt>
      <trkpt lat="48.84242" lon="2.28529">
        <ele>100.32</ele>
        <time>2020-03-13T20:53:44.000Z</time>
      </trkpt>
      <trkpt lat="48.84243" lon="2.28523">
        <ele>100.31</ele>
        <time>2020-03-13T20:53:45.000Z</time>
      </trkpt>
      <trkpt lat="48.84244" lon="2.28517">
        <ele>100.3</ele>
        <time>2020-03-13T20:53:46.000Z</time>
      </trkpt>
      <trkpt lat="48.84246" lon="2.28511">
        <ele>100.29</ele>
        <time>2020-03-13T20:53:47.000Z</time>
      </trkpt>
      <trkpt lat="48.84247" lon="2.28506">
        <ele>100.29</ele>
        <time>2020-03-13T20:53:48.000Z</time>
      </trkpt>
      <trkpt lat="48.84249" lon="2.28501">
        <ele>100.29</ele>
        <time>2020-03-13T20:53:49.000Z</time>
      </trkpt>
      <trkpt lat="48.84251" lon="2.28496">
        <ele>100.28</ele>
        <time>2020-03-13T20:53:50.000Z</time>
      </trkpt>
      <trkpt lat="48.84253" lon="2.28492">
        <ele>100.28</ele>
        <time>2020-03-13T20:53:51.000Z</time>
      </trkpt>
      <trkpt lat="48.84255" lon="2.28488">
        <ele>100.27</ele>
        <time>2020-03-13T20:53:52.000Z</time>
      </trkpt>
      <trkpt lat="48.84258" lon="2.28485">
        <ele>100.27</ele>
        <time>2020-03-13T20:53:53.000Z</time>
      </trkpt>
      <trkpt lat="48.8426" lon="2.28481">
        <ele>100.26</ele>
        <time>2020-03-13T20:53:54.000Z</time>
      </trkpt>
      <trkpt lat="48.84262" lon="2.28476">
        <ele>100.25</ele>
        <time>2020-03-13T20:53:55.000Z</time>
      </trkpt>
      <trkpt lat="48.84264" lon="2.28471">
        <ele>100.22</ele>
        <time>2020-03-13T20:53:56.000Z</time>
      </trkpt>
      <trkpt lat="48.84267" lon="2.28465">
        <ele>100.21</ele>
        <time>2020-03-13T20:53:57.000Z</time>
      </trkpt>
      <trkpt lat="48.84269" lon="2.2846">
        <ele>100.2</ele>
        <time>2020-03-13T20:53:58.000Z</time>
      </trkpt>
      <trkpt lat="48.84271" lon="2.28456">
        <ele>100.19</ele>
        <time>2020-03-13T20:53:59.000Z</time>
      </trkpt>
      <trkpt lat="48.84273" lon="2.28451">
        <ele>100.17</ele>
        <time>2020-03-13T20:54:00.000Z</time>
      </trkpt>
      <trkpt lat="48.84276" lon="2.28446">
        <ele>100.17</ele>
        <time>2020-03-13T20:54:01.000Z</time>
      </trkpt>
      <trkpt lat="48.84278" lon="2.28441">
        <ele>100.17</ele>
        <time>2020-03-13T20:54:02.000Z</time>
      </trkpt>
      <trkpt lat="48.8428" lon="2.28437">
        <ele>100.17</ele>
        <time>2020-03-13T20:54:03.000Z</time>
      </trkpt>
      <trkpt lat="48.84282" lon="2.28432">
        <ele>100.17</ele>
        <time>2020-03-13T20:54:04.000Z</time>
      </trkpt>
      <trkpt lat="48.84284" lon="2.28426">
        <ele>100.17</ele>
        <time>2020-03-13T20:54:05.000Z</time>
      </trkpt>
      <trkpt lat="48.84286" lon="2.2842">
        <ele>100.17</ele>
        <time>2020-03-13T20:54:06.000Z</time>
      </trkpt>
      <trkpt lat="48.84289" lon="2.28415">
        <ele>100.17</ele>
        <time>2020-03-13T20:54:07.000Z</time>
      </trkpt>
      <trkpt lat="48.84291" lon="2.28409">
        <ele>100.18</ele>
        <time>2020-03-13T20:54:08.000Z</time>
      </trkpt>
      <trkpt lat="48.84294" lon="2.28404">
        <ele>100.18</ele>
        <time>2020-03-13T20:54:09.000Z</time>
      </trkpt>
      <trkpt lat="48.84297" lon="2.28398">
        <ele>100.18</ele>
        <time>2020-03-13T20:54:10.000Z</time>
      </trkpt>
      <trkpt lat="48.84301" lon="2.28394">
        <ele>100.18</ele>
        <time>2020-03-13T20:54:11.000Z</time>
      </trkpt>
      <trkpt lat="48.84304" lon="2.28388">
        <ele>100.17</ele>
        <time>2020-03-13T20:54:12.000Z</time>
      </trkpt>
      <trkpt lat="48.84307" lon="2.28382">
        <ele>100.15</ele>
        <time>2020-03-13T20:54:13.000Z</time>
      </trkpt>
      <trkpt lat="48.84311" lon="2.28378">
        <ele>100.13</ele>
        <time>2020-03-13T20:54:14.000Z</time>
      </trkpt>
      <trkpt lat="48.84313" lon="2.28372">
        <ele>100.11</ele>
        <time>2020-03-13T20:54:15.000Z</time>
      </trkpt>
      <trkpt lat="48.84316" lon="2.28367">
        <ele>100.08</ele>
        <time>2020-03-13T20:54:16.000Z</time>
      </trkpt>
      <trkpt lat="48.84319" lon="2.28361">
        <ele>100.05</ele>
        <time>2020-03-13T20:54:17.000Z</time>
      </trkpt>
      <trkpt lat="48.84322" lon="2.28355">
        <ele>100.02</ele>
        <time>2020-03-13T20:54:18.000Z</time>
      </trkpt>
      <trkpt lat="48.84324" lon="2.2835">
        <ele>100</ele>
        <time>2020-03-13T20:54:19.000Z</time>
      </trkpt>
      <trkpt lat="48.84327" lon="2.28343">
        <ele>99.98</ele>
        <time>2020-03-13T20:54:20.000Z</time>
      </trkpt>
      <trkpt lat="48.84331" lon="2.28338">
        <ele>99.97</ele>
        <time>2020-03-13T20:54:21.000Z</time>
      </trkpt>
      <trkpt lat="48.84334" lon="2.28331">
        <ele>99.96</ele>
        <time>2020-03-13T20:54:22.000Z</time>
      </trkpt>
      <trkpt lat="48.84336" lon="2.28325">
        <ele>99.96</ele>
        <time>2020-03-13T20:54:23.000Z</time>
      </trkpt>
      <trkpt lat="48.84339" lon="2.28318">
        <ele>99.97</ele>
        <time>2020-03-13T20:54:24.000Z</time>
      </trkpt>
      <trkpt lat="48.84342" lon="2.28311">
        <ele>99.98</ele>
        <time>2020-03-13T20:54:25.000Z</time>
      </trkpt>
      <trkpt lat="48.84345" lon="2.28304">
        <ele>99.98</ele>
        <time>2020-03-13T20:54:26.000Z</time>
      </trkpt>
      <trkpt lat="48.84347" lon="2.28298">
        <ele>99.99</ele>
        <time>2020-03-13T20:54:27.000Z</time>
      </trkpt>
      <trkpt lat="48.8435" lon="2.28294">
        <ele>100</ele>
        <time>2020-03-13T20:54:28.000Z</time>
      </trkpt>
      <trkpt lat="48.84353" lon="2.28289">
        <ele>100</ele>
        <time>2020-03-13T20:54:29.000Z</time>
      </trkpt>
      <trkpt lat="48.84356" lon="2.28286">
        <ele>100</ele>
        <time>2020-03-13T20:54:30.000Z</time>
      </trkpt>
      <trkpt lat="48.84357" lon="2.28282">
        <ele>100</ele>
        <time>2020-03-13T20:54:31.000Z</time>
      </trkpt>
      <trkpt lat="48.8436" lon="2.28276">
        <ele>100</ele>
        <time>2020-03-13T20:54:32.000Z</time>
      </trkpt>
      <trkpt lat="48.84363" lon="2.28271">
        <ele>100</ele>
        <time>2020-03-13T20:54:33.000Z</time>
      </trkpt>
      <trkpt lat="48.84366" lon="2.28265">
        <ele>100</ele>
        <time>2020-03-13T20:54:34.000Z</time>
      </trkpt>
      <trkpt lat="48.84369" lon="2.28261">
        <ele>100</ele>
        <time>2020-03-13T20:54:35.000Z</time>
      </trkpt>
      <trkpt lat="48.84372" lon="2.28257">
        <ele>99.99</ele>
        <time>2020-03-13T20:54:36.000Z</time>
      </trkpt>
      <trkpt lat="48.84374" lon="2.2825">
        <ele>99.99</ele>
        <time>2020-03-13T20:54:37.000Z</time>
      </trkpt>
      <trkpt lat="48.84377" lon="2.28244">
        <ele>99.98</ele>
        <time>2020-03-13T20:54:38.000Z</time>
      </trkpt>
      <trkpt lat="48.84381" lon="2.28237">
        <ele>99.96</ele>
        <time>2020-03-13T20:54:39.000Z</time>
      </trkpt>
      <trkpt lat="48.84385" lon="2.28231">
        <ele>99.94</ele>
        <time>2020-03-13T20:54:40.000Z</time>
      </trkpt>
      <trkpt lat="48.8439" lon="2.28224">
        <ele>99.91</ele>
        <time>2020-03-13T20:54:41.000Z</time>
      </trkpt>
      <trkpt lat="48.84393" lon="2.28221">
        <ele>99.9</ele>
        <time>2020-03-13T20:54:42.000Z</time>
      </trkpt>
      <trkpt lat="48.84396" lon="2.28214">
        <ele>99.89</ele>
        <time>2020-03-13T20:54:43.000Z</time>
      </trkpt>
      <trkpt lat="48.844" lon="2.28207">
        <ele>99.88</ele>
        <time>2020-03-13T20:54:44.000Z</time>
      </trkpt>
      <trkpt lat="48.84403" lon="2.28203">
        <ele>99.88</ele>
        <time>2020-03-13T20:54:45.000Z</time>
      </trkpt>
      <trkpt lat="48.84407" lon="2.28199">
        <ele>99.88</ele>
        <time>2020-03-13T20:54:46.000Z</time>
      </trkpt>
      <trkpt lat="48.84411" lon="2.28194">
        <ele>99.87</ele>
        <time>2020-03-13T20:54:47.000Z</time>
      </trkpt>
      <trkpt lat="48.84414" lon="2.28189">
        <ele>99.87</ele>
        <time>2020-03-13T20:54:48.000Z</time>
      </trkpt>
      <trkpt lat="48.84417" lon="2.28181">
        <ele>99.86</ele>
        <time>2020-03-13T20:54:49.000Z</time>
      </trkpt>
      <trkpt lat="48.8442" lon="2.28174">
        <ele>99.86</ele>
        <time>2020-03-13T20:54:50.000Z</time>
      </trkpt>
      <trkpt lat="48.84422" lon="2.28168">
        <ele>99.86</ele>
        <time>2020-03-13T20:54:51.000Z</time>
      </trkpt>
      <trkpt lat="48.84424" lon="2.28162">
        <ele>99.85</ele>
        <time>2020-03-13T20:54:52.000Z</time>
      </trkpt>
      <trkpt lat="48.84427" lon="2.28156">
        <ele>99.85</ele>
        <time>2020-03-13T20:54:53.000Z</time>
      </trkpt>
      <trkpt lat="48.84431" lon="2.2815">
        <ele>99.85</ele>
        <time>2020-03-13T20:54:54.000Z</time>
      </trkpt>
      <trkpt lat="48.84433" lon="2.28144">
        <ele>99.85</ele>
        <time>2020-03-13T20:54:55.000Z</time>
      </trkpt>
      <trkpt lat="48.84437" lon="2.28138">
        <ele>99.85</ele>
        <time>2020-03-13T20:54:56.000Z</time>
      </trkpt>
      <trkpt lat="48.8444" lon="2.28131">
        <ele>99.83</ele>
        <time>2020-03-13T20:54:57.000Z</time>
      </trkpt>
      <trkpt lat="48.84442" lon="2.28124">
        <ele>99.83</ele>
        <time>2020-03-13T20:54:58.000Z</time>
      </trkpt>
      <trkpt lat="48.84446" lon="2.28117">
        <ele>99.83</ele>
        <time>2020-03-13T20:54:59.000Z</time>
      </trkpt>
      <trkpt lat="48.84448" lon="2.2811">
        <ele>99.83</ele>
        <time>2020-03-13T20:55:00.000Z</time>
      </trkpt>
      <trkpt lat="48.84451" lon="2.28105">
        <ele>99.84</ele>
        <time>2020-03-13T20:55:01.000Z</time>
      </trkpt>
      <trkpt lat="48.84453" lon="2.281">
        <ele>99.84</ele>
        <time>2020-03-13T20:55:02.000Z</time>
      </trkpt>
      <trkpt lat="48.84454" lon="2.28094">
        <ele>99.85</ele>
        <time>2020-03-13T20:55:03.000Z</time>
      </trkpt>
      <trkpt lat="48.84456" lon="2.28089">
        <ele>99.85</ele>
        <time>2020-03-13T20:55:04.000Z</time>
      </trkpt>
      <trkpt lat="48.84458" lon="2.28083">
        <ele>99.87</ele>
        <time>2020-03-13T20:55:05.000Z</time>
      </trkpt>
      <trkpt lat="48.8446" lon="2.28076">
        <ele>99.88</ele>
        <time>2020-03-13T20:55:06.000Z</time>
      </trkpt>
      <trkpt lat="48.84463" lon="2.28067">
        <ele>99.9</ele>
        <time>2020-03-13T20:55:07.000Z</time>
      </trkpt>
      <trkpt lat="48.84465" lon="2.2806">
        <ele>99.92</ele>
        <time>2020-03-13T20:55:08.000Z</time>
      </trkpt>
      <trkpt lat="48.84467" lon="2.28053">
        <ele>99.95</ele>
        <time>2020-03-13T20:55:09.000Z</time>
      </trkpt>
      <trkpt lat="48.84469" lon="2.28046">
        <ele>99.97</ele>
        <time>2020-03-13T20:55:10.000Z</time>
      </trkpt>
      <trkpt lat="48.8447" lon="2.28038">
        <ele>99.97</ele>
        <time>2020-03-13T20:55:11.000Z</time>
      </trkpt>
      <trkpt lat="48.84472" lon="2.28033">
        <ele>100.01</ele>
        <time>2020-03-13T20:55:12.000Z</time>
      </trkpt>
      <trkpt lat="48.84474" lon="2.28028">
        <ele>100.04</ele>
        <time>2020-03-13T20:55:13.000Z</time>
      </trkpt>
      <trkpt lat="48.84477" lon="2.28023">
        <ele>100.05</ele>
        <time>2020-03-13T20:55:14.000Z</time>
      </trkpt>
      <trkpt lat="48.84482" lon="2.28013">
        <ele>100.07</ele>
        <time>2020-03-13T20:55:16.000Z</time>
      </trkpt>
      <trkpt lat="48.84484" lon="2.28008">
        <ele>100.06</ele>
        <time>2020-03-13T20:55:17.000Z</time>
      </trkpt>
      <trkpt lat="48.84485" lon="2.28003">
        <ele>100.04</ele>
        <time>2020-03-13T20:55:18.000Z</time>
      </trkpt>
      <trkpt lat="48.84487" lon="2.27998">
        <ele>100.03</ele>
        <time>2020-03-13T20:55:19.000Z</time>
      </trkpt>
      <trkpt lat="48.8449" lon="2.27993">
        <ele>100.01</ele>
        <time>2020-03-13T20:55:20.000Z</time>
      </trkpt>
      <trkpt lat="48.84493" lon="2.27987">
        <ele>100</ele>
        <time>2020-03-13T20:55:21.000Z</time>
      </trkpt>
      <trkpt lat="48.84498" lon="2.27976">
        <ele>100</ele>
        <time>2020-03-13T20:55:23.000Z</time>
      </trkpt>
      <trkpt lat="48.84501" lon="2.2797">
        <ele>100.01</ele>
        <time>2020-03-13T20:55:24.000Z</time>
      </trkpt>
      <trkpt lat="48.84505" lon="2.27964">
        <ele>100.01</ele>
        <time>2020-03-13T20:55:25.000Z</time>
      </trkpt>
      <trkpt lat="48.84509" lon="2.27959">
        <ele>100.02</ele>
        <time>2020-03-13T20:55:26.000Z</time>
      </trkpt>
      <trkpt lat="48.84518" lon="2.27946">
        <ele>100</ele>
        <time>2020-03-13T20:55:28.000Z</time>
      </trkpt>
      <trkpt lat="48.84522" lon="2.27939">
        <ele>99.99</ele>
        <time>2020-03-13T20:55:29.000Z</time>
      </trkpt>
      <trkpt lat="48.84525" lon="2.2793">
        <ele>99.99</ele>
        <time>2020-03-13T20:55:30.000Z</time>
      </trkpt>
      <trkpt lat="48.84532" lon="2.27904">
        <ele>99.96</ele>
        <time>2020-03-13T20:55:32.000Z</time>
      </trkpt>
      <trkpt lat="48.84536" lon="2.27897">
        <ele>99.94</ele>
        <time>2020-03-13T20:55:33.000Z</time>
      </trkpt>
      <trkpt lat="48.84538" lon="2.2789">
        <ele>99.92</ele>
        <time>2020-03-13T20:55:34.000Z</time>
      </trkpt>
      <trkpt lat="48.84541" lon="2.27883">
        <ele>99.9</ele>
        <time>2020-03-13T20:55:35.000Z</time>
      </trkpt>
      <trkpt lat="48.84543" lon="2.27877">
        <ele>99.89</ele>
        <time>2020-03-13T20:55:36.000Z</time>
      </trkpt>
      <trkpt lat="48.84548" lon="2.27873">
        <ele>99.87</ele>
        <time>2020-03-13T20:55:37.000Z</time>
      </trkpt>
      <trkpt lat="48.84553" lon="2.27869">
        <ele>99.86</ele>
        <time>2020-03-13T20:55:38.000Z</time>
      </trkpt>
      <trkpt lat="48.84563" lon="2.27858">
        <ele>99.85</ele>
        <time>2020-03-13T20:55:40.000Z</time>
      </trkpt>
      <trkpt lat="48.84566" lon="2.27851">
        <ele>99.84</ele>
        <time>2020-03-13T20:55:41.000Z</time>
      </trkpt>
      <trkpt lat="48.84571" lon="2.2784">
        <ele>99.83</ele>
        <time>2020-03-13T20:55:43.000Z</time>
      </trkpt>
      <trkpt lat="48.84574" lon="2.27834">
        <ele>99.83</ele>
        <time>2020-03-13T20:55:44.000Z</time>
      </trkpt>
      <trkpt lat="48.84577" lon="2.27831">
        <ele>99.84</ele>
        <time>2020-03-13T20:55:45.000Z</time>
      </trkpt>
      <trkpt lat="48.8458" lon="2.27826">
        <ele>99.85</ele>
        <time>2020-03-13T20:55:46.000Z</time>
      </trkpt>
      <trkpt lat="48.84583" lon="2.27822">
        <ele>99.85</ele>
        <time>2020-03-13T20:55:47.000Z</time>
      </trkpt>
      <trkpt lat="48.84588" lon="2.27809">
        <ele>99.85</ele>
        <time>2020-03-13T20:55:49.000Z</time>
      </trkpt>
      <trkpt lat="48.84591" lon="2.27804">
        <ele>99.85</ele>
        <time>2020-03-13T20:55:50.000Z</time>
      </trkpt>
      <trkpt lat="48.84594" lon="2.27797">
        <ele>99.84</ele>
        <time>2020-03-13T20:55:51.000Z</time>
      </trkpt>
      <trkpt lat="48.84597" lon="2.27791">
        <ele>99.82</ele>
        <time>2020-03-13T20:55:52.000Z</time>
      </trkpt>
      <trkpt lat="48.846" lon="2.27784">
        <ele>99.8</ele>
        <time>2020-03-13T20:55:53.000Z</time>
      </trkpt>
      <trkpt lat="48.84605" lon="2.27771">
        <ele>99.76</ele>
        <time>2020-03-13T20:55:55.000Z</time>
      </trkpt>
      <trkpt lat="48.84609" lon="2.27759">
        <ele>99.72</ele>
        <time>2020-03-13T20:55:57.000Z</time>
      </trkpt>
      <trkpt lat="48.84611" lon="2.27748">
        <ele>99.69</ele>
        <time>2020-03-13T20:55:59.000Z</time>
      </trkpt>
      <trkpt lat="48.84612" lon="2.27743">
        <ele>99.68</ele>
        <time>2020-03-13T20:56:00.000Z</time>
      </trkpt>
      <trkpt lat="48.84612" lon="2.27737">
        <ele>99.68</ele>
        <time>2020-03-13T20:56:01.000Z</time>
      </trkpt>
      <trkpt lat="48.84613" lon="2.27725">
        <ele>99.67</ele>
        <time>2020-03-13T20:56:03.000Z</time>
      </trkpt>
      <trkpt lat="48.84613" lon="2.27721">
        <ele>99.66</ele>
        <time>2020-03-13T20:56:04.000Z</time>
      </trkpt>
      <trkpt lat="48.84613" lon="2.27715">
        <ele>99.65</ele>
        <time>2020-03-13T20:56:05.000Z</time>
      </trkpt>
      <trkpt lat="48.84612" lon="2.27706">
        <ele>99.64</ele>
        <time>2020-03-13T20:56:07.000Z</time>
      </trkpt>
      <trkpt lat="48.84611" lon="2.27705">
        <ele>99.64</ele>
        <time>2020-03-13T20:56:08.000Z</time>
      </trkpt>
      <trkpt lat="48.84611" lon="2.27701">
        <ele>99.62</ele>
        <time>2020-03-13T20:56:11.000Z</time>
      </trkpt>
      <trkpt lat="48.84611" lon="2.277">
        <ele>99.61</ele>
        <time>2020-03-13T20:56:19.000Z</time>
      </trkpt>
      <trkpt lat="48.84612" lon="2.27699">
        <ele>99.58</ele>
        <time>2020-03-13T20:56:34.000Z</time>
      </trkpt>
      <trkpt lat="48.84612" lon="2.27698">
        <ele>99.53</ele>
        <time>2020-03-13T20:56:51.000Z</time>
      </trkpt>
      <trkpt lat="48.8461" lon="2.27697">
        <ele>99.48</ele>
        <time>2020-03-13T20:56:54.000Z</time>
      </trkpt>
      <trkpt lat="48.8461" lon="2.27694">
        <ele>99.43</ele>
        <time>2020-03-13T20:56:55.000Z</time>
      </trkpt>
      <trkpt lat="48.84609" lon="2.27691">
        <ele>99.38</ele>
        <time>2020-03-13T20:56:56.000Z</time>
      </trkpt>
      <trkpt lat="48.84607" lon="2.27688">
        <ele>99.33</ele>
        <time>2020-03-13T20:56:57.000Z</time>
      </trkpt>
      <trkpt lat="48.84604" lon="2.27685">
        <ele>99.27</ele>
        <time>2020-03-13T20:56:58.000Z</time>
      </trkpt>
      <trkpt lat="48.84599" lon="2.27681">
        <ele>99.22</ele>
        <time>2020-03-13T20:56:59.000Z</time>
      </trkpt>
      <trkpt lat="48.84595" lon="2.27677">
        <ele>99.16</ele>
        <time>2020-03-13T20:57:00.000Z</time>
      </trkpt>
      <trkpt lat="48.84591" lon="2.27673">
        <ele>98.61</ele>
        <time>2020-03-13T20:57:01.000Z</time>
      </trkpt>
      <trkpt lat="48.84587" lon="2.27669">
        <ele>98.15</ele>
        <time>2020-03-13T20:57:02.000Z</time>
      </trkpt>
      <trkpt lat="48.84582" lon="2.27664">
        <ele>97.78</ele>
        <time>2020-03-13T20:57:03.000Z</time>
      </trkpt>
      <trkpt lat="48.84577" lon="2.2766">
        <ele>97.48</ele>
        <time>2020-03-13T20:57:04.000Z</time>
      </trkpt>
      <trkpt lat="48.84571" lon="2.27655">
        <ele>97.22</ele>
        <time>2020-03-13T20:57:05.000Z</time>
      </trkpt>
      <trkpt lat="48.84566" lon="2.2765">
        <ele>97</ele>
        <time>2020-03-13T20:57:06.000Z</time>
      </trkpt>
      <trkpt lat="48.84561" lon="2.27646">
        <ele>96.82</ele>
        <time>2020-03-13T20:57:07.000Z</time>
      </trkpt>
      <trkpt lat="48.84557" lon="2.27642">
        <ele>96.67</ele>
        <time>2020-03-13T20:57:08.000Z</time>
      </trkpt>
      <trkpt lat="48.84552" lon="2.27638">
        <ele>96.54</ele>
        <time>2020-03-13T20:57:09.000Z</time>
      </trkpt>
      <trkpt lat="48.84547" lon="2.27634">
        <ele>96.42</ele>
        <time>2020-03-13T20:57:10.000Z</time>
      </trkpt>
      <trkpt lat="48.84542" lon="2.2763">
        <ele>96.32</ele>
        <time>2020-03-13T20:57:11.000Z</time>
      </trkpt>
      <trkpt lat="48.84537" lon="2.27626">
        <ele>96.22</ele>
        <time>2020-03-13T20:57:12.000Z</time>
      </trkpt>
      <trkpt lat="48.84532" lon="2.27624">
        <ele>96.14</ele>
        <time>2020-03-13T20:57:13.000Z</time>
      </trkpt>
      <trkpt lat="48.84527" lon="2.27621">
        <ele>96.07</ele>
        <time>2020-03-13T20:57:14.000Z</time>
      </trkpt>
      <trkpt lat="48.84522" lon="2.27619">
        <ele>95.99</ele>
        <time>2020-03-13T20:57:15.000Z</time>
      </trkpt>
      <trkpt lat="48.84516" lon="2.27616">
        <ele>95.92</ele>
        <time>2020-03-13T20:57:16.000Z</time>
      </trkpt>
      <trkpt lat="48.8451" lon="2.27613">
        <ele>95.86</ele>
        <time>2020-03-13T20:57:17.000Z</time>
      </trkpt>
      <trkpt lat="48.84505" lon="2.27609">
        <ele>95.79</ele>
        <time>2020-03-13T20:57:18.000Z</time>
      </trkpt>
      <trkpt lat="48.845" lon="2.27605">
        <ele>95.73</ele>
        <time>2020-03-13T20:57:19.000Z</time>
      </trkpt>
      <trkpt lat="48.84495" lon="2.27601">
        <ele>95.67</ele>
        <time>2020-03-13T20:57:20.000Z</time>
      </trkpt>
      <trkpt lat="48.8449" lon="2.27597">
        <ele>95.61</ele>
        <time>2020-03-13T20:57:21.000Z</time>
      </trkpt>
      <trkpt lat="48.84485" lon="2.27592">
        <ele>95.55</ele>
        <time>2020-03-13T20:57:22.000Z</time>
      </trkpt>
      <trkpt lat="48.84479" lon="2.27587">
        <ele>95.5</ele>
        <time>2020-03-13T20:57:23.000Z</time>
      </trkpt>
      <trkpt lat="48.84473" lon="2.27582">
        <ele>95.43</ele>
        <time>2020-03-13T20:57:24.000Z</time>
      </trkpt>
      <trkpt lat="48.84468" lon="2.27578">
        <ele>95.36</ele>
        <time>2020-03-13T20:57:25.000Z</time>
      </trkpt>
      <trkpt lat="48.84463" lon="2.27573">
        <ele>95.31</ele>
        <time>2020-03-13T20:57:26.000Z</time>
      </trkpt>
      <trkpt lat="48.84458" lon="2.27568">
        <ele>95.26</ele>
        <time>2020-03-13T20:57:27.000Z</time>
      </trkpt>
      <trkpt lat="48.84453" lon="2.27563">
        <ele>95.2</ele>
        <time>2020-03-13T20:57:28.000Z</time>
      </trkpt>
      <trkpt lat="48.84448" lon="2.27558">
        <ele>95.14</ele>
        <time>2020-03-13T20:57:29.000Z</time>
      </trkpt>
      <trkpt lat="48.84443" lon="2.27553">
        <ele>95.09</ele>
        <time>2020-03-13T20:57:30.000Z</time>
      </trkpt>
      <trkpt lat="48.84438" lon="2.27548">
        <ele>95.05</ele>
        <time>2020-03-13T20:57:31.000Z</time>
      </trkpt>
      <trkpt lat="48.84432" lon="2.27541">
        <ele>95.01</ele>
        <time>2020-03-13T20:57:32.000Z</time>
      </trkpt>
      <trkpt lat="48.84426" lon="2.27535">
        <ele>94.98</ele>
        <time>2020-03-13T20:57:33.000Z</time>
      </trkpt>
      <trkpt lat="48.84419" lon="2.27531">
        <ele>94.96</ele>
        <time>2020-03-13T20:57:34.000Z</time>
      </trkpt>
      <trkpt lat="48.84413" lon="2.27525">
        <ele>94.94</ele>
        <time>2020-03-13T20:57:35.000Z</time>
      </trkpt>
      <trkpt lat="48.84037" lon="2.27228">
        <ele>88.79</ele>
        <time>2020-03-13T20:58:33.000Z</time>
      </trkpt>
      <trkpt lat="48.84035" lon="2.27222">
        <ele>88.89</ele>
        <time>2020-03-13T20:58:34.000Z</time>
      </trkpt>
      <trkpt lat="48.84035" lon="2.27217">
        <ele>89.01</ele>
        <time>2020-03-13T20:58:35.000Z</time>
      </trkpt>
      <trkpt lat="48.84035" lon="2.2721">
        <ele>89.14</ele>
        <time>2020-03-13T20:58:36.000Z</time>
      </trkpt>
      <trkpt lat="48.84037" lon="2.27203">
        <ele>89.32</ele>
        <time>2020-03-13T20:58:37.000Z</time>
      </trkpt>
      <trkpt lat="48.84038" lon="2.27196">
        <ele>89.51</ele>
        <time>2020-03-13T20:58:38.000Z</time>
      </trkpt>
      <trkpt lat="48.84038" lon="2.27192">
        <ele>89.68</ele>
        <time>2020-03-13T20:58:39.000Z</time>
      </trkpt>
      <trkpt lat="48.84037" lon="2.27188">
        <ele>89.83</ele>
        <time>2020-03-13T20:58:40.000Z</time>
      </trkpt>
      <trkpt lat="48.84037" lon="2.27185">
        <ele>89.98</ele>
        <time>2020-03-13T20:58:41.000Z</time>
      </trkpt>
      <trkpt lat="48.84036" lon="2.2718">
        <ele>90.13</ele>
        <time>2020-03-13T20:58:42.000Z</time>
      </trkpt>
      <trkpt lat="48.84036" lon="2.27176">
        <ele>90.26</ele>
        <time>2020-03-13T20:58:43.000Z</time>
      </trkpt>
      <trkpt lat="48.84035" lon="2.27172">
        <ele>90.4</ele>
        <time>2020-03-13T20:58:44.000Z</time>
      </trkpt>
      <trkpt lat="48.84034" lon="2.27167">
        <ele>90.52</ele>
        <time>2020-03-13T20:58:45.000Z</time>
      </trkpt>
      <trkpt lat="48.84034" lon="2.2716">
        <ele>90.63</ele>
        <time>2020-03-13T20:58:46.000Z</time>
      </trkpt>
      <trkpt lat="48.84032" lon="2.27147">
        <ele>90.74</ele>
        <time>2020-03-13T20:58:47.000Z</time>
      </trkpt>
      <trkpt lat="48.8403" lon="2.27139">
        <ele>91.77</ele>
        <time>2020-03-13T20:58:48.000Z</time>
      </trkpt>
      <trkpt lat="48.84029" lon="2.27132">
        <ele>91.85</ele>
        <time>2020-03-13T20:58:49.000Z</time>
      </trkpt>
      <trkpt lat="48.84028" lon="2.27123">
        <ele>91.93</ele>
        <time>2020-03-13T20:58:50.000Z</time>
      </trkpt>
      <trkpt lat="48.84029" lon="2.27116">
        <ele>92.01</ele>
        <time>2020-03-13T20:58:51.000Z</time>
      </trkpt>
      <trkpt lat="48.84029" lon="2.27112">
        <ele>92.1</ele>
        <time>2020-03-13T20:58:52.000Z</time>
      </trkpt>
      <trkpt lat="48.84028" lon="2.27106">
        <ele>92.19</ele>
        <time>2020-03-13T20:58:53.000Z</time>
      </trkpt>
      <trkpt lat="48.84028" lon="2.27102">
        <ele>92.28</ele>
        <time>2020-03-13T20:58:54.000Z</time>
      </trkpt>
      <trkpt lat="48.84028" lon="2.271">
        <ele>92.37</ele>
        <time>2020-03-13T20:58:55.000Z</time>
      </trkpt>
      <trkpt lat="48.84027" lon="2.27097">
        <ele>92.46</ele>
        <time>2020-03-13T20:58:56.000Z</time>
      </trkpt>
      <trkpt lat="48.84027" lon="2.27095">
        <ele>92.56</ele>
        <time>2020-03-13T20:58:57.000Z</time>
      </trkpt>
      <trkpt lat="48.84028" lon="2.27094">
        <ele>92.7</ele>
        <time>2020-03-13T20:58:59.000Z</time>
      </trkpt>
      <trkpt lat="48.84028" lon="2.27093">
        <ele>92.76</ele>
        <time>2020-03-13T20:59:00.000Z</time>
      </trkpt>
      <trkpt lat="48.84027" lon="2.27091">
        <ele>92.82</ele>
        <time>2020-03-13T20:59:01.000Z</time>
      </trkpt>
      <trkpt lat="48.84026" lon="2.27089">
        <ele>92.86</ele>
        <time>2020-03-13T20:59:02.000Z</time>
      </trkpt>
      <trkpt lat="48.84025" lon="2.27088">
        <ele>92.9</ele>
        <time>2020-03-13T20:59:03.000Z</time>
      </trkpt>
      <trkpt lat="48.84023" lon="2.27086">
        <ele>92.94</ele>
        <time>2020-03-13T20:59:04.000Z</time>
      </trkpt>
      <trkpt lat="48.84021" lon="2.27085">
        <ele>92.97</ele>
        <time>2020-03-13T20:59:05.000Z</time>
      </trkpt>
      <trkpt lat="48.84019" lon="2.27083">
        <ele>93</ele>
        <time>2020-03-13T20:59:06.000Z</time>
      </trkpt>
      <trkpt lat="48.84017" lon="2.27081">
        <ele>93.03</ele>
        <time>2020-03-13T20:59:07.000Z</time>
      </trkpt>
      <trkpt lat="48.84014" lon="2.27079">
        <ele>93.05</ele>
        <time>2020-03-13T20:59:08.000Z</time>
      </trkpt>
      <trkpt lat="48.84011" lon="2.27076">
        <ele>93.21</ele>
        <time>2020-03-13T20:59:09.000Z</time>
      </trkpt>
      <trkpt lat="48.84007" lon="2.27074">
        <ele>93.28</ele>
        <time>2020-03-13T20:59:10.000Z</time>
      </trkpt>
      <trkpt lat="48.84004" lon="2.27071">
        <ele>93.27</ele>
        <time>2020-03-13T20:59:11.000Z</time>
      </trkpt>
      <trkpt lat="48.84" lon="2.27068">
        <ele>93.21</ele>
        <time>2020-03-13T20:59:12.000Z</time>
      </trkpt>
      <trkpt lat="48.83996" lon="2.27065">
        <ele>93.08</ele>
        <time>2020-03-13T20:59:13.000Z</time>
      </trkpt>
      <trkpt lat="48.83992" lon="2.27063">
        <ele>92.93</ele>
        <time>2020-03-13T20:59:14.000Z</time>
      </trkpt>
      <trkpt lat="48.83988" lon="2.2706">
        <ele>92.77</ele>
        <time>2020-03-13T20:59:15.000Z</time>
      </trkpt>
      <trkpt lat="48.83985" lon="2.27057">
        <ele>92.58</ele>
        <time>2020-03-13T20:59:16.000Z</time>
      </trkpt>
      <trkpt lat="48.83982" lon="2.27055">
        <ele>92.56</ele>
        <time>2020-03-13T20:59:17.000Z</time>
      </trkpt>
      <trkpt lat="48.83978" lon="2.27052">
        <ele>92.54</ele>
        <time>2020-03-13T20:59:18.000Z</time>
      </trkpt>
      <trkpt lat="48.83975" lon="2.2705">
        <ele>92.52</ele>
        <time>2020-03-13T20:59:19.000Z</time>
      </trkpt>
      <trkpt lat="48.83972" lon="2.27047">
        <ele>92.48</ele>
        <time>2020-03-13T20:59:20.000Z</time>
      </trkpt>
      <trkpt lat="48.83969" lon="2.27045">
        <ele>92.45</ele>
        <time>2020-03-13T20:59:21.000Z</time>
      </trkpt>
      <trkpt lat="48.83967" lon="2.27042">
        <ele>92.41</ele>
        <time>2020-03-13T20:59:22.000Z</time>
      </trkpt>
      <trkpt lat="48.83964" lon="2.2704">
        <ele>92.37</ele>
        <time>2020-03-13T20:59:23.000Z</time>
      </trkpt>
      <trkpt lat="48.83961" lon="2.27038">
        <ele>92.33</ele>
        <time>2020-03-13T20:59:24.000Z</time>
      </trkpt>
      <trkpt lat="48.83958" lon="2.27036">
        <ele>92.29</ele>
        <time>2020-03-13T20:59:25.000Z</time>
      </trkpt>
      <trkpt lat="48.83955" lon="2.27033">
        <ele>92.24</ele>
        <time>2020-03-13T20:59:26.000Z</time>
      </trkpt>
      <trkpt lat="48.83952" lon="2.27031">
        <ele>92.2</ele>
        <time>2020-03-13T20:59:27.000Z</time>
      </trkpt>
      <trkpt lat="48.8395" lon="2.27029">
        <ele>92.15</ele>
        <time>2020-03-13T20:59:28.000Z</time>
      </trkpt>
      <trkpt lat="48.83948" lon="2.27027">
        <ele>92.1</ele>
        <time>2020-03-13T20:59:29.000Z</time>
      </trkpt>
      <trkpt lat="48.83946" lon="2.27026">
        <ele>92.06</ele>
        <time>2020-03-13T20:59:30.000Z</time>
      </trkpt>
      <trkpt lat="48.83944" lon="2.27024">
        <ele>92.01</ele>
        <time>2020-03-13T20:59:31.000Z</time>
      </trkpt>
      <trkpt lat="48.83942" lon="2.27022">
        <ele>91.96</ele>
        <time>2020-03-13T20:59:32.000Z</time>
      </trkpt>
      <trkpt lat="48.83939" lon="2.2702">
        <ele>91.91</ele>
        <time>2020-03-13T20:59:33.000Z</time>
      </trkpt>
      <trkpt lat="48.83937" lon="2.27019">
        <ele>91.86</ele>
        <time>2020-03-13T20:59:34.000Z</time>
      </trkpt>
      <trkpt lat="48.83935" lon="2.27018">
        <ele>91.8</ele>
        <time>2020-03-13T20:59:35.000Z</time>
      </trkpt>
      <trkpt lat="48.83933" lon="2.27016">
        <ele>91.75</ele>
        <time>2020-03-13T20:59:36.000Z</time>
      </trkpt>
      <trkpt lat="48.8393" lon="2.27015">
        <ele>91.7</ele>
        <time>2020-03-13T20:59:37.000Z</time>
      </trkpt>
      <trkpt lat="48.83928" lon="2.27015">
        <ele>91.65</ele>
        <time>2020-03-13T20:59:38.000Z</time>
      </trkpt>
      <trkpt lat="48.83924" lon="2.27014">
        <ele>91.6</ele>
        <time>2020-03-13T20:59:39.000Z</time>
      </trkpt>
      <trkpt lat="48.83922" lon="2.27014">
        <ele>91.55</ele>
        <time>2020-03-13T20:59:40.000Z</time>
      </trkpt>
      <trkpt lat="48.83919" lon="2.27014">
        <ele>91.5</ele>
        <time>2020-03-13T20:59:41.000Z</time>
      </trkpt>
      <trkpt lat="48.83916" lon="2.27013">
        <ele>91.46</ele>
        <time>2020-03-13T20:59:42.000Z</time>
      </trkpt>
      <trkpt lat="48.83914" lon="2.27012">
        <ele>91.41</ele>
        <time>2020-03-13T20:59:43.000Z</time>
      </trkpt>
      <trkpt lat="48.83911" lon="2.27011">
        <ele>91.37</ele>
        <time>2020-03-13T20:59:44.000Z</time>
      </trkpt>
      <trkpt lat="48.83909" lon="2.2701">
        <ele>91.32</ele>
        <time>2020-03-13T20:59:45.000Z</time>
      </trkpt>
      <trkpt lat="48.83907" lon="2.27009">
        <ele>91.28</ele>
        <time>2020-03-13T20:59:46.000Z</time>
      </trkpt>
      <trkpt lat="48.83905" lon="2.27008">
        <ele>91.24</ele>
        <time>2020-03-13T20:59:47.000Z</time>
      </trkpt>
      <trkpt lat="48.83903" lon="2.27007">
        <ele>91.2</ele>
        <time>2020-03-13T20:59:48.000Z</time>
      </trkpt>
      <trkpt lat="48.83901" lon="2.27007">
        <ele>91.16</ele>
        <time>2020-03-13T20:59:49.000Z</time>
      </trkpt>
      <trkpt lat="48.839" lon="2.27005">
        <ele>91.12</ele>
        <time>2020-03-13T20:59:50.000Z</time>
      </trkpt>
      <trkpt lat="48.83898" lon="2.27003">
        <ele>91.08</ele>
        <time>2020-03-13T20:59:51.000Z</time>
      </trkpt>
      <trkpt lat="48.83896" lon="2.27002">
        <ele>91.04</ele>
        <time>2020-03-13T20:59:52.000Z</time>
      </trkpt>
      <trkpt lat="48.83895" lon="2.27">
        <ele>91</ele>
        <time>2020-03-13T20:59:53.000Z</time>
      </trkpt>
      <trkpt lat="48.83893" lon="2.26998">
        <ele>90.95</ele>
        <time>2020-03-13T20:59:54.000Z</time>
      </trkpt>
      <trkpt lat="48.83892" lon="2.26996">
        <ele>90.91</ele>
        <time>2020-03-13T20:59:55.000Z</time>
      </trkpt>
      <trkpt lat="48.8389" lon="2.26995">
        <ele>90.87</ele>
        <time>2020-03-13T20:59:56.000Z</time>
      </trkpt>
      <trkpt lat="48.8389" lon="2.26994">
        <ele>90.82</ele>
        <time>2020-03-13T20:59:57.000Z</time>
      </trkpt>
      <trkpt lat="48.83889" lon="2.26992">
        <ele>90.77</ele>
        <time>2020-03-13T20:59:58.000Z</time>
      </trkpt>
      <trkpt lat="48.83888" lon="2.26992">
        <ele>90.73</ele>
        <time>2020-03-13T20:59:59.000Z</time>
      </trkpt>
      <trkpt lat="48.83887" lon="2.2699">
        <ele>90.69</ele>
        <time>2020-03-13T21:00:00.000Z</time>
      </trkpt>
      <trkpt lat="48.83886" lon="2.26988">
        <ele>90.61</ele>
        <time>2020-03-13T21:00:02.000Z</time>
      </trkpt>
      <trkpt lat="48.83885" lon="2.26987">
        <ele>90.58</ele>
        <time>2020-03-13T21:00:03.000Z</time>
      </trkpt>
      <trkpt lat="48.83885" lon="2.26986">
        <ele>90.57</ele>
        <time>2020-03-13T21:00:05.000Z</time>
      </trkpt>
      <trkpt lat="48.83884" lon="2.26985">
        <ele>90.54</ele>
        <time>2020-03-13T21:00:15.000Z</time>
      </trkpt>
      <trkpt lat="48.83884" lon="2.26983">
        <ele>90.38</ele>
        <time>2020-03-13T21:00:33.000Z</time>
      </trkpt>
      <trkpt lat="48.83883" lon="2.26984">
        <ele>89.77</ele>
        <time>2020-03-13T21:00:59.000Z</time>
      </trkpt>
      <trkpt lat="48.83883" lon="2.26983">
        <ele>89.03</ele>
        <time>2020-03-13T21:01:14.000Z</time>
      </trkpt>
      <trkpt lat="48.83883" lon="2.2698">
        <ele>88.86</ele>
        <time>2020-03-13T21:01:16.000Z</time>
      </trkpt>
      <trkpt lat="48.83883" lon="2.26978">
        <ele>88.78</ele>
        <time>2020-03-13T21:01:17.000Z</time>
      </trkpt>
      <trkpt lat="48.83883" lon="2.26975">
        <ele>88.7</ele>
        <time>2020-03-13T21:01:18.000Z</time>
      </trkpt>
      <trkpt lat="48.83882" lon="2.26973">
        <ele>88.62</ele>
        <time>2020-03-13T21:01:19.000Z</time>
      </trkpt>
      <trkpt lat="48.83883" lon="2.26968">
        <ele>88.55</ele>
        <time>2020-03-13T21:01:20.000Z</time>
      </trkpt>
      <trkpt lat="48.83884" lon="2.26964">
        <ele>88.48</ele>
        <time>2020-03-13T21:01:21.000Z</time>
      </trkpt>
      <trkpt lat="48.83885" lon="2.2696">
        <ele>88.41</ele>
        <time>2020-03-13T21:01:22.000Z</time>
      </trkpt>
      <trkpt lat="48.83887" lon="2.26956">
        <ele>88.34</ele>
        <time>2020-03-13T21:01:23.000Z</time>
      </trkpt>
      <trkpt lat="48.83889" lon="2.26951">
        <ele>88.28</ele>
        <time>2020-03-13T21:01:24.000Z</time>
      </trkpt>
      <trkpt lat="48.83891" lon="2.26947">
        <ele>88.22</ele>
        <time>2020-03-13T21:01:25.000Z</time>
      </trkpt>
      <trkpt lat="48.83894" lon="2.26943">
        <ele>88.16</ele>
        <time>2020-03-13T21:01:26.000Z</time>
      </trkpt>
      <trkpt lat="48.83896" lon="2.26938">
        <ele>88.1</ele>
        <time>2020-03-13T21:01:27.000Z</time>
      </trkpt>
      <trkpt lat="48.83899" lon="2.26933">
        <ele>88.05</ele>
        <time>2020-03-13T21:01:28.000Z</time>
      </trkpt>
      <trkpt lat="48.83901" lon="2.26928">
        <ele>88</ele>
        <time>2020-03-13T21:01:29.000Z</time>
      </trkpt>
      <trkpt lat="48.83903" lon="2.26923">
        <ele>87.95</ele>
        <time>2020-03-13T21:01:30.000Z</time>
      </trkpt>
      <trkpt lat="48.83905" lon="2.26918">
        <ele>87.5</ele>
        <time>2020-03-13T21:01:31.000Z</time>
      </trkpt>
      <trkpt lat="48.83906" lon="2.26914">
        <ele>87.17</ele>
        <time>2020-03-13T21:01:32.000Z</time>
      </trkpt>
      <trkpt lat="48.83909" lon="2.26909">
        <ele>87.14</ele>
        <time>2020-03-13T21:01:33.000Z</time>
      </trkpt>
      <trkpt lat="48.83911" lon="2.26903">
        <ele>86.9</ele>
        <time>2020-03-13T21:01:34.000Z</time>
      </trkpt>
      <trkpt lat="48.83913" lon="2.26898">
        <ele>86.71</ele>
        <time>2020-03-13T21:01:35.000Z</time>
      </trkpt>
      <trkpt lat="48.83915" lon="2.26892">
        <ele>86.58</ele>
        <time>2020-03-13T21:01:36.000Z</time>
      </trkpt>
      <trkpt lat="48.83917" lon="2.26887">
        <ele>86.48</ele>
        <time>2020-03-13T21:01:37.000Z</time>
      </trkpt>
      <trkpt lat="48.83919" lon="2.26883">
        <ele>86.42</ele>
        <time>2020-03-13T21:01:38.000Z</time>
      </trkpt>
      <trkpt lat="48.83921" lon="2.26878">
        <ele>86.41</ele>
        <time>2020-03-13T21:01:39.000Z</time>
      </trkpt>
      <trkpt lat="48.83923" lon="2.26873">
        <ele>86.4</ele>
        <time>2020-03-13T21:01:40.000Z</time>
      </trkpt>
      <trkpt lat="48.83925" lon="2.26868">
        <ele>86.4</ele>
        <time>2020-03-13T21:01:41.000Z</time>
      </trkpt>
      <trkpt lat="48.83928" lon="2.26862">
        <ele>86.41</ele>
        <time>2020-03-13T21:01:42.000Z</time>
      </trkpt>
      <trkpt lat="48.8393" lon="2.26857">
        <ele>86.42</ele>
        <time>2020-03-13T21:01:43.000Z</time>
      </trkpt>
      <trkpt lat="48.83933" lon="2.26851">
        <ele>86.43</ele>
        <time>2020-03-13T21:01:44.000Z</time>
      </trkpt>
      <trkpt lat="48.83935" lon="2.26846">
        <ele>86.44</ele>
        <time>2020-03-13T21:01:45.000Z</time>
      </trkpt>
      <trkpt lat="48.83938" lon="2.26841">
        <ele>86.46</ele>
        <time>2020-03-13T21:01:46.000Z</time>
      </trkpt>
      <trkpt lat="48.8394" lon="2.26836">
        <ele>86.47</ele>
        <time>2020-03-13T21:01:47.000Z</time>
      </trkpt>
      <trkpt lat="48.83943" lon="2.2683">
        <ele>86.49</ele>
        <time>2020-03-13T21:01:48.000Z</time>
      </trkpt>
      <trkpt lat="48.83945" lon="2.26824">
        <ele>86.51</ele>
        <time>2020-03-13T21:01:49.000Z</time>
      </trkpt>
      <trkpt lat="48.83947" lon="2.26818">
        <ele>86.52</ele>
        <time>2020-03-13T21:01:50.000Z</time>
      </trkpt>
      <trkpt lat="48.8395" lon="2.26813">
        <ele>86.54</ele>
        <time>2020-03-13T21:01:51.000Z</time>
      </trkpt>
      <trkpt lat="48.83952" lon="2.26808">
        <ele>86.56</ele>
        <time>2020-03-13T21:01:52.000Z</time>
      </trkpt>
      <trkpt lat="48.83955" lon="2.26802">
        <ele>86.59</ele>
        <time>2020-03-13T21:01:53.000Z</time>
      </trkpt>
      <trkpt lat="48.83957" lon="2.26797">
        <ele>86.62</ele>
        <time>2020-03-13T21:01:54.000Z</time>
      </trkpt>
      <trkpt lat="48.8396" lon="2.26791">
        <ele>86.64</ele>
        <time>2020-03-13T21:01:55.000Z</time>
      </trkpt>
      <trkpt lat="48.83963" lon="2.26785">
        <ele>86.66</ele>
        <time>2020-03-13T21:01:56.000Z</time>
      </trkpt>
      <trkpt lat="48.83966" lon="2.2678">
        <ele>86.69</ele>
        <time>2020-03-13T21:01:57.000Z</time>
      </trkpt>
      <trkpt lat="48.83968" lon="2.26774">
        <ele>86.71</ele>
        <time>2020-03-13T21:01:58.000Z</time>
      </trkpt>
      <trkpt lat="48.83971" lon="2.26768">
        <ele>86.73</ele>
        <time>2020-03-13T21:01:59.000Z</time>
      </trkpt>
      <trkpt lat="48.83974" lon="2.26762">
        <ele>86.75</ele>
        <time>2020-03-13T21:02:00.000Z</time>
      </trkpt>
      <trkpt lat="48.83977" lon="2.26756">
        <ele>86.77</ele>
        <time>2020-03-13T21:02:01.000Z</time>
      </trkpt>
      <trkpt lat="48.83979" lon="2.2675">
        <ele>86.79</ele>
        <time>2020-03-13T21:02:02.000Z</time>
      </trkpt>
      <trkpt lat="48.83982" lon="2.26745">
        <ele>86.8</ele>
        <time>2020-03-13T21:02:03.000Z</time>
      </trkpt>
      <trkpt lat="48.83986" lon="2.26739">
        <ele>86.82</ele>
        <time>2020-03-13T21:02:04.000Z</time>
      </trkpt>
      <trkpt lat="48.83989" lon="2.26734">
        <ele>86.84</ele>
        <time>2020-03-13T21:02:05.000Z</time>
      </trkpt>
      <trkpt lat="48.83993" lon="2.26728">
        <ele>86.87</ele>
        <time>2020-03-13T21:02:06.000Z</time>
      </trkpt>
      <trkpt lat="48.83996" lon="2.26722">
        <ele>86.9</ele>
        <time>2020-03-13T21:02:07.000Z</time>
      </trkpt>
      <trkpt lat="48.84" lon="2.26717">
        <ele>86.94</ele>
        <time>2020-03-13T21:02:08.000Z</time>
      </trkpt>
      <trkpt lat="48.84002" lon="2.26711">
        <ele>86.98</ele>
        <time>2020-03-13T21:02:09.000Z</time>
      </trkpt>
      <trkpt lat="48.84005" lon="2.26705">
        <ele>87.02</ele>
        <time>2020-03-13T21:02:10.000Z</time>
      </trkpt>
      <trkpt lat="48.84008" lon="2.26698">
        <ele>87.07</ele>
        <time>2020-03-13T21:02:11.000Z</time>
      </trkpt>
      <trkpt lat="48.84011" lon="2.26691">
        <ele>87.1</ele>
        <time>2020-03-13T21:02:12.000Z</time>
      </trkpt>
      <trkpt lat="48.84014" lon="2.26684">
        <ele>87.13</ele>
        <time>2020-03-13T21:02:13.000Z</time>
      </trkpt>
      <trkpt lat="48.84017" lon="2.26677">
        <ele>87.15</ele>
        <time>2020-03-13T21:02:14.000Z</time>
      </trkpt>
      <trkpt lat="48.84021" lon="2.26667">
        <ele>87.16</ele>
        <time>2020-03-13T21:02:15.000Z</time>
      </trkpt>
      <trkpt lat="48.84025" lon="2.26658">
        <ele>87.16</ele>
        <time>2020-03-13T21:02:16.000Z</time>
      </trkpt>
      <trkpt lat="48.84029" lon="2.2665">
        <ele>87.16</ele>
        <time>2020-03-13T21:02:17.000Z</time>
      </trkpt>
      <trkpt lat="48.84033" lon="2.26641">
        <ele>87.16</ele>
        <time>2020-03-13T21:02:18.000Z</time>
      </trkpt>
      <trkpt lat="48.84037" lon="2.26631">
        <ele>87.16</ele>
        <time>2020-03-13T21:02:19.000Z</time>
      </trkpt>
      <trkpt lat="48.84042" lon="2.26621">
        <ele>87.15</ele>
        <time>2020-03-13T21:02:20.000Z</time>
      </trkpt>
      <trkpt lat="48.84047" lon="2.26612">
        <ele>87.13</ele>
        <time>2020-03-13T21:02:21.000Z</time>
      </trkpt>
      <trkpt lat="48.84051" lon="2.26602">
        <ele>87.09</ele>
        <time>2020-03-13T21:02:22.000Z</time>
      </trkpt>
      <trkpt lat="48.84055" lon="2.26591">
        <ele>87.05</ele>
        <time>2020-03-13T21:02:23.000Z</time>
      </trkpt>
      <trkpt lat="48.84059" lon="2.26581">
        <ele>87</ele>
        <time>2020-03-13T21:02:24.000Z</time>
      </trkpt>
      <trkpt lat="48.84064" lon="2.26571">
        <ele>86.95</ele>
        <time>2020-03-13T21:02:25.000Z</time>
      </trkpt>
      <trkpt lat="48.84068" lon="2.26561">
        <ele>86.88</ele>
        <time>2020-03-13T21:02:26.000Z</time>
      </trkpt>
      <trkpt lat="48.84073" lon="2.26551">
        <ele>86.81</ele>
        <time>2020-03-13T21:02:27.000Z</time>
      </trkpt>
      <trkpt lat="48.84078" lon="2.2654">
        <ele>86.73</ele>
        <time>2020-03-13T21:02:28.000Z</time>
      </trkpt>
      <trkpt lat="48.84154" lon="2.26344">
        <ele>86.62</ele>
        <time>2020-03-13T21:02:48.000Z</time>
      </trkpt>
      <trkpt lat="48.84155" lon="2.26342">
        <ele>86.14</ele>
        <time>2020-03-13T21:02:49.000Z</time>
      </trkpt>
      <trkpt lat="48.84158" lon="2.26335">
        <ele>85.69</ele>
        <time>2020-03-13T21:02:50.000Z</time>
      </trkpt>
      <trkpt lat="48.84161" lon="2.26326">
        <ele>85.06</ele>
        <time>2020-03-13T21:02:51.000Z</time>
      </trkpt>
      <trkpt lat="48.84163" lon="2.26319">
        <ele>84.4</ele>
        <time>2020-03-13T21:02:52.000Z</time>
      </trkpt>
      <trkpt lat="48.84167" lon="2.26312">
        <ele>84.27</ele>
        <time>2020-03-13T21:02:53.000Z</time>
      </trkpt>
      <trkpt lat="48.8417" lon="2.26306">
        <ele>84.27</ele>
        <time>2020-03-13T21:02:54.000Z</time>
      </trkpt>
      <trkpt lat="48.84173" lon="2.26302">
        <ele>84.31</ele>
        <time>2020-03-13T21:02:55.000Z</time>
      </trkpt>
      <trkpt lat="48.84176" lon="2.26297">
        <ele>84.49</ele>
        <time>2020-03-13T21:02:56.000Z</time>
      </trkpt>
      <trkpt lat="48.84178" lon="2.26293">
        <ele>84.49</ele>
        <time>2020-03-13T21:02:57.000Z</time>
      </trkpt>
      <trkpt lat="48.84181" lon="2.26289">
        <ele>84.48</ele>
        <time>2020-03-13T21:02:58.000Z</time>
      </trkpt>
      <trkpt lat="48.84182" lon="2.26285">
        <ele>84.47</ele>
        <time>2020-03-13T21:02:59.000Z</time>
      </trkpt>
      <trkpt lat="48.84185" lon="2.2628">
        <ele>84.47</ele>
        <time>2020-03-13T21:03:00.000Z</time>
      </trkpt>
      <trkpt lat="48.84188" lon="2.26276">
        <ele>84.47</ele>
        <time>2020-03-13T21:03:01.000Z</time>
      </trkpt>
      <trkpt lat="48.84191" lon="2.26273">
        <ele>84.48</ele>
        <time>2020-03-13T21:03:02.000Z</time>
      </trkpt>
      <trkpt lat="48.84192" lon="2.26269">
        <ele>84.48</ele>
        <time>2020-03-13T21:03:03.000Z</time>
      </trkpt>
      <trkpt lat="48.84192" lon="2.26265">
        <ele>84.47</ele>
        <time>2020-03-13T21:03:04.000Z</time>
      </trkpt>
      <trkpt lat="48.84194" lon="2.26262">
        <ele>84.46</ele>
        <time>2020-03-13T21:03:05.000Z</time>
      </trkpt>
      <trkpt lat="48.84195" lon="2.26258">
        <ele>84.46</ele>
        <time>2020-03-13T21:03:06.000Z</time>
      </trkpt>
      <trkpt lat="48.84197" lon="2.26254">
        <ele>84.46</ele>
        <time>2020-03-13T21:03:07.000Z</time>
      </trkpt>
      <trkpt lat="48.84199" lon="2.26251">
        <ele>84.45</ele>
        <time>2020-03-13T21:03:08.000Z</time>
      </trkpt>
      <trkpt lat="48.84201" lon="2.26246">
        <ele>84.44</ele>
        <time>2020-03-13T21:03:09.000Z</time>
      </trkpt>
      <trkpt lat="48.84203" lon="2.26243">
        <ele>84.41</ele>
        <time>2020-03-13T21:03:10.000Z</time>
      </trkpt>
      <trkpt lat="48.84204" lon="2.26239">
        <ele>84.39</ele>
        <time>2020-03-13T21:03:11.000Z</time>
      </trkpt>
      <trkpt lat="48.84206" lon="2.26234">
        <ele>84.37</ele>
        <time>2020-03-13T21:03:12.000Z</time>
      </trkpt>
      <trkpt lat="48.84208" lon="2.26229">
        <ele>84.35</ele>
        <time>2020-03-13T21:03:13.000Z</time>
      </trkpt>
      <trkpt lat="48.8421" lon="2.26225">
        <ele>84.32</ele>
        <time>2020-03-13T21:03:14.000Z</time>
      </trkpt>
      <trkpt lat="48.84213" lon="2.26223">
        <ele>84.29</ele>
        <time>2020-03-13T21:03:15.000Z</time>
      </trkpt>
      <trkpt lat="48.84216" lon="2.2622">
        <ele>84.26</ele>
        <time>2020-03-13T21:03:16.000Z</time>
      </trkpt>
      <trkpt lat="48.84218" lon="2.26217">
        <ele>84.22</ele>
        <time>2020-03-13T21:03:17.000Z</time>
      </trkpt>
      <trkpt lat="48.8422" lon="2.26212">
        <ele>84.19</ele>
        <time>2020-03-13T21:03:18.000Z</time>
      </trkpt>
      <trkpt lat="48.84222" lon="2.26207">
        <ele>84.15</ele>
        <time>2020-03-13T21:03:19.000Z</time>
      </trkpt>
      <trkpt lat="48.84224" lon="2.26204">
        <ele>84.11</ele>
        <time>2020-03-13T21:03:20.000Z</time>
      </trkpt>
      <trkpt lat="48.84226" lon="2.26201">
        <ele>84.07</ele>
        <time>2020-03-13T21:03:21.000Z</time>
      </trkpt>
      <trkpt lat="48.84228" lon="2.26195">
        <ele>84.02</ele>
        <time>2020-03-13T21:03:22.000Z</time>
      </trkpt>
      <trkpt lat="48.84231" lon="2.26189">
        <ele>83.98</ele>
        <time>2020-03-13T21:03:23.000Z</time>
      </trkpt>
      <trkpt lat="48.84233" lon="2.26183">
        <ele>83.94</ele>
        <time>2020-03-13T21:03:24.000Z</time>
      </trkpt>
      <trkpt lat="48.84235" lon="2.26179">
        <ele>83.9</ele>
        <time>2020-03-13T21:03:25.000Z</time>
      </trkpt>
      <trkpt lat="48.84237" lon="2.26174">
        <ele>83.48</ele>
        <time>2020-03-13T21:03:26.000Z</time>
      </trkpt>
      <trkpt lat="48.8424" lon="2.26168">
        <ele>83.14</ele>
        <time>2020-03-13T21:03:27.000Z</time>
      </trkpt>
      <trkpt lat="48.84243" lon="2.26164">
        <ele>82.9</ele>
        <time>2020-03-13T21:03:28.000Z</time>
      </trkpt>
      <trkpt lat="48.84246" lon="2.2616">
        <ele>82.71</ele>
        <time>2020-03-13T21:03:29.000Z</time>
      </trkpt>
      <trkpt lat="48.8425" lon="2.26155">
        <ele>82.6</ele>
        <time>2020-03-13T21:03:30.000Z</time>
      </trkpt>
      <trkpt lat="48.84252" lon="2.26151">
        <ele>82.51</ele>
        <time>2020-03-13T21:03:31.000Z</time>
      </trkpt>
      <trkpt lat="48.84255" lon="2.26146">
        <ele>82.5</ele>
        <time>2020-03-13T21:03:32.000Z</time>
      </trkpt>
      <trkpt lat="48.84257" lon="2.26142">
        <ele>82.49</ele>
        <time>2020-03-13T21:03:33.000Z</time>
      </trkpt>
      <trkpt lat="48.84257" lon="2.26138">
        <ele>82.49</ele>
        <time>2020-03-13T21:03:34.000Z</time>
      </trkpt>
      <trkpt lat="48.84258" lon="2.26132">
        <ele>82.41</ele>
        <time>2020-03-13T21:03:35.000Z</time>
      </trkpt>
      <trkpt lat="48.8426" lon="2.26124">
        <ele>82.41</ele>
        <time>2020-03-13T21:03:36.000Z</time>
      </trkpt>
      <trkpt lat="48.8426" lon="2.26117">
        <ele>82.41</ele>
        <time>2020-03-13T21:03:37.000Z</time>
      </trkpt>
      <trkpt lat="48.84263" lon="2.26108">
        <ele>82.42</ele>
        <time>2020-03-13T21:03:38.000Z</time>
      </trkpt>
      <trkpt lat="48.84266" lon="2.26103">
        <ele>82.43</ele>
        <time>2020-03-13T21:03:39.000Z</time>
      </trkpt>
      <trkpt lat="48.8427" lon="2.26098">
        <ele>82.54</ele>
        <time>2020-03-13T21:03:40.000Z</time>
      </trkpt>
      <trkpt lat="48.84272" lon="2.26094">
        <ele>82.55</ele>
        <time>2020-03-13T21:03:41.000Z</time>
      </trkpt>
      <trkpt lat="48.84273" lon="2.2609">
        <ele>82.56</ele>
        <time>2020-03-13T21:03:42.000Z</time>
      </trkpt>
      <trkpt lat="48.84274" lon="2.26085">
        <ele>82.57</ele>
        <time>2020-03-13T21:03:43.000Z</time>
      </trkpt>
      <trkpt lat="48.84275" lon="2.26079">
        <ele>82.58</ele>
        <time>2020-03-13T21:03:44.000Z</time>
      </trkpt>
      <trkpt lat="48.84276" lon="2.26073">
        <ele>82.6</ele>
        <time>2020-03-13T21:03:45.000Z</time>
      </trkpt>
      <trkpt lat="48.84277" lon="2.26066">
        <ele>82.62</ele>
        <time>2020-03-13T21:03:46.000Z</time>
      </trkpt>
      <trkpt lat="48.84278" lon="2.2606">
        <ele>82.64</ele>
        <time>2020-03-13T21:03:47.000Z</time>
      </trkpt>
      <trkpt lat="48.8428" lon="2.26057">
        <ele>82.66</ele>
        <time>2020-03-13T21:03:48.000Z</time>
      </trkpt>
      <trkpt lat="48.84282" lon="2.2605">
        <ele>82.69</ele>
        <time>2020-03-13T21:03:49.000Z</time>
      </trkpt>
      <trkpt lat="48.84288" lon="2.26048">
        <ele>82.73</ele>
        <time>2020-03-13T21:03:50.000Z</time>
      </trkpt>
      <trkpt lat="48.84291" lon="2.26044">
        <ele>82.76</ele>
        <time>2020-03-13T21:03:51.000Z</time>
      </trkpt>
      <trkpt lat="48.84296" lon="2.26042">
        <ele>83.17</ele>
        <time>2020-03-13T21:03:52.000Z</time>
      </trkpt>
      <trkpt lat="48.84301" lon="2.26039">
        <ele>83.5</ele>
        <time>2020-03-13T21:03:53.000Z</time>
      </trkpt>
      <trkpt lat="48.84305" lon="2.26035">
        <ele>83.81</ele>
        <time>2020-03-13T21:03:54.000Z</time>
      </trkpt>
      <trkpt lat="48.84308" lon="2.26034">
        <ele>84.1</ele>
        <time>2020-03-13T21:03:55.000Z</time>
      </trkpt>
      <trkpt lat="48.84312" lon="2.26034">
        <ele>84.36</ele>
        <time>2020-03-13T21:03:56.000Z</time>
      </trkpt>
      <trkpt lat="48.84316" lon="2.26035">
        <ele>84.39</ele>
        <time>2020-03-13T21:03:57.000Z</time>
      </trkpt>
      <trkpt lat="48.8432" lon="2.26037">
        <ele>84.42</ele>
        <time>2020-03-13T21:03:58.000Z</time>
      </trkpt>
      <trkpt lat="48.84323" lon="2.26038">
        <ele>84.46</ele>
        <time>2020-03-13T21:03:59.000Z</time>
      </trkpt>
      <trkpt lat="48.84325" lon="2.26042">
        <ele>84.49</ele>
        <time>2020-03-13T21:04:00.000Z</time>
      </trkpt>
      <trkpt lat="48.84327" lon="2.26045">
        <ele>84.53</ele>
        <time>2020-03-13T21:04:01.000Z</time>
      </trkpt>
      <trkpt lat="48.84332" lon="2.26051">
        <ele>84.61</ele>
        <time>2020-03-13T21:04:03.000Z</time>
      </trkpt>
      <trkpt lat="48.84335" lon="2.26054">
        <ele>84.66</ele>
        <time>2020-03-13T21:04:04.000Z</time>
      </trkpt>
      <trkpt lat="48.84339" lon="2.26057">
        <ele>85.12</ele>
        <time>2020-03-13T21:04:05.000Z</time>
      </trkpt>
      <trkpt lat="48.84343" lon="2.2606">
        <ele>85.5</ele>
        <time>2020-03-13T21:04:06.000Z</time>
      </trkpt>
      <trkpt lat="48.84348" lon="2.26063">
        <ele>85.52</ele>
        <time>2020-03-13T21:04:07.000Z</time>
      </trkpt>
      <trkpt lat="48.84352" lon="2.26066">
        <ele>85.56</ele>
        <time>2020-03-13T21:04:08.000Z</time>
      </trkpt>
      <trkpt lat="48.84356" lon="2.26069">
        <ele>85.89</ele>
        <time>2020-03-13T21:04:09.000Z</time>
      </trkpt>
      <trkpt lat="48.84361" lon="2.26072">
        <ele>85.92</ele>
        <time>2020-03-13T21:04:10.000Z</time>
      </trkpt>
      <trkpt lat="48.84366" lon="2.26075">
        <ele>86.21</ele>
        <time>2020-03-13T21:04:11.000Z</time>
      </trkpt>
      <trkpt lat="48.84373" lon="2.26081">
        <ele>86.46</ele>
        <time>2020-03-13T21:04:12.000Z</time>
      </trkpt>
      <trkpt lat="48.84378" lon="2.26087">
        <ele>86.67</ele>
        <time>2020-03-13T21:04:13.000Z</time>
      </trkpt>
      <trkpt lat="48.84382" lon="2.26093">
        <ele>86.82</ele>
        <time>2020-03-13T21:04:14.000Z</time>
      </trkpt>
      <trkpt lat="48.84385" lon="2.26096">
        <ele>86.91</ele>
        <time>2020-03-13T21:04:15.000Z</time>
      </trkpt>
      <trkpt lat="48.84393" lon="2.26101">
        <ele>87.08</ele>
        <time>2020-03-13T21:04:16.000Z</time>
      </trkpt>
      <trkpt lat="48.844" lon="2.26106">
        <ele>87.32</ele>
        <time>2020-03-13T21:04:17.000Z</time>
      </trkpt>
      <trkpt lat="48.84407" lon="2.26111">
        <ele>87.56</ele>
        <time>2020-03-13T21:04:18.000Z</time>
      </trkpt>
      <trkpt lat="48.84414" lon="2.26115">
        <ele>87.85</ele>
        <time>2020-03-13T21:04:19.000Z</time>
      </trkpt>
      <trkpt lat="48.84419" lon="2.26118">
        <ele>88.14</ele>
        <time>2020-03-13T21:04:20.000Z</time>
      </trkpt>
      <trkpt lat="48.84424" lon="2.26122">
        <ele>88.4</ele>
        <time>2020-03-13T21:04:21.000Z</time>
      </trkpt>
      <trkpt lat="48.8443" lon="2.26126">
        <ele>88.67</ele>
        <time>2020-03-13T21:04:22.000Z</time>
      </trkpt>
      <trkpt lat="48.84437" lon="2.2613">
        <ele>88.94</ele>
        <time>2020-03-13T21:04:23.000Z</time>
      </trkpt>
      <trkpt lat="48.84442" lon="2.26132">
        <ele>89.18</ele>
        <time>2020-03-13T21:04:24.000Z</time>
      </trkpt>
      <trkpt lat="48.84447" lon="2.26136">
        <ele>89.39</ele>
        <time>2020-03-13T21:04:25.000Z</time>
      </trkpt>
      <trkpt lat="48.84451" lon="2.26139">
        <ele>89.57</ele>
        <time>2020-03-13T21:04:26.000Z</time>
      </trkpt>
      <trkpt lat="48.84457" lon="2.26144">
        <ele>89.73</ele>
        <time>2020-03-13T21:04:27.000Z</time>
      </trkpt>
      <trkpt lat="48.84462" lon="2.26149">
        <ele>89.85</ele>
        <time>2020-03-13T21:04:28.000Z</time>
      </trkpt>
      <trkpt lat="48.84468" lon="2.26153">
        <ele>89.96</ele>
        <time>2020-03-13T21:04:29.000Z</time>
      </trkpt>
      <trkpt lat="48.84473" lon="2.26157">
        <ele>90.05</ele>
        <time>2020-03-13T21:04:30.000Z</time>
      </trkpt>
      <trkpt lat="48.84479" lon="2.26161">
        <ele>90.13</ele>
        <time>2020-03-13T21:04:31.000Z</time>
      </trkpt>
      <trkpt lat="48.84485" lon="2.26165">
        <ele>90.2</ele>
        <time>2020-03-13T21:04:32.000Z</time>
      </trkpt>
      <trkpt lat="48.8449" lon="2.2617">
        <ele>90.28</ele>
        <time>2020-03-13T21:04:33.000Z</time>
      </trkpt>
      <trkpt lat="48.84493" lon="2.26174">
        <ele>90.29</ele>
        <time>2020-03-13T21:04:34.000Z</time>
      </trkpt>
      <trkpt lat="48.84495" lon="2.26177">
        <ele>90.38</ele>
        <time>2020-03-13T21:04:35.000Z</time>
      </trkpt>
      <trkpt lat="48.84498" lon="2.26182">
        <ele>90.48</ele>
        <time>2020-03-13T21:04:36.000Z</time>
      </trkpt>
      <trkpt lat="48.84502" lon="2.26185">
        <ele>90.49</ele>
        <time>2020-03-13T21:04:37.000Z</time>
      </trkpt>
      <trkpt lat="48.84504" lon="2.26186">
        <ele>90.49</ele>
        <time>2020-03-13T21:04:38.000Z</time>
      </trkpt>
      <trkpt lat="48.84506" lon="2.2619">
        <ele>90.5</ele>
        <time>2020-03-13T21:04:39.000Z</time>
      </trkpt>
      <trkpt lat="48.84508" lon="2.26194">
        <ele>90.54</ele>
        <time>2020-03-13T21:04:40.000Z</time>
      </trkpt>
      <trkpt lat="48.84511" lon="2.262">
        <ele>90.54</ele>
        <time>2020-03-13T21:04:41.000Z</time>
      </trkpt>
      <trkpt lat="48.84515" lon="2.26204">
        <ele>90.53</ele>
        <time>2020-03-13T21:04:42.000Z</time>
      </trkpt>
      <trkpt lat="48.8452" lon="2.26208">
        <ele>90.54</ele>
        <time>2020-03-13T21:04:43.000Z</time>
      </trkpt>
      <trkpt lat="48.84527" lon="2.26213">
        <ele>90.57</ele>
        <time>2020-03-13T21:04:44.000Z</time>
      </trkpt>
      <trkpt lat="48.84533" lon="2.26217">
        <ele>90.64</ele>
        <time>2020-03-13T21:04:45.000Z</time>
      </trkpt>
      <trkpt lat="48.84538" lon="2.26223">
        <ele>90.64</ele>
        <time>2020-03-13T21:04:46.000Z</time>
      </trkpt>
      <trkpt lat="48.84544" lon="2.26227">
        <ele>90.67</ele>
        <time>2020-03-13T21:04:47.000Z</time>
      </trkpt>
      <trkpt lat="48.8455" lon="2.2623">
        <ele>90.72</ele>
        <time>2020-03-13T21:04:48.000Z</time>
      </trkpt>
      <trkpt lat="48.84558" lon="2.26236">
        <ele>90.77</ele>
        <time>2020-03-13T21:04:49.000Z</time>
      </trkpt>
      <trkpt lat="48.84564" lon="2.2624">
        <ele>90.82</ele>
        <time>2020-03-13T21:04:50.000Z</time>
      </trkpt>
      <trkpt lat="48.8457" lon="2.26244">
        <ele>90.88</ele>
        <time>2020-03-13T21:04:51.000Z</time>
      </trkpt>
      <trkpt lat="48.84575" lon="2.26248">
        <ele>90.94</ele>
        <time>2020-03-13T21:04:52.000Z</time>
      </trkpt>
      <trkpt lat="48.84581" lon="2.26251">
        <ele>91</ele>
        <time>2020-03-13T21:04:53.000Z</time>
      </trkpt>
      <trkpt lat="48.84586" lon="2.26257">
        <ele>91.05</ele>
        <time>2020-03-13T21:04:54.000Z</time>
      </trkpt>
      <trkpt lat="48.84593" lon="2.26263">
        <ele>91.09</ele>
        <time>2020-03-13T21:04:55.000Z</time>
      </trkpt>
      <trkpt lat="48.846" lon="2.26268">
        <ele>91.12</ele>
        <time>2020-03-13T21:04:56.000Z</time>
      </trkpt>
      <trkpt lat="48.84607" lon="2.26274">
        <ele>91.16</ele>
        <time>2020-03-13T21:04:57.000Z</time>
      </trkpt>
      <trkpt lat="48.84612" lon="2.26279">
        <ele>91.2</ele>
        <time>2020-03-13T21:04:58.000Z</time>
      </trkpt>
      <trkpt lat="48.84618" lon="2.26283">
        <ele>91.23</ele>
        <time>2020-03-13T21:04:59.000Z</time>
      </trkpt>
      <trkpt lat="48.84625" lon="2.26287">
        <ele>91.27</ele>
        <time>2020-03-13T21:05:00.000Z</time>
      </trkpt>
      <trkpt lat="48.84631" lon="2.2629">
        <ele>91.31</ele>
        <time>2020-03-13T21:05:01.000Z</time>
      </trkpt>
      <trkpt lat="48.84637" lon="2.26295">
        <ele>91.34</ele>
        <time>2020-03-13T21:05:02.000Z</time>
      </trkpt>
      <trkpt lat="48.84641" lon="2.26299">
        <ele>91.34</ele>
        <time>2020-03-13T21:05:03.000Z</time>
      </trkpt>
      <trkpt lat="48.84644" lon="2.26303">
        <ele>91.34</ele>
        <time>2020-03-13T21:05:04.000Z</time>
      </trkpt>
      <trkpt lat="48.84647" lon="2.26308">
        <ele>91.35</ele>
        <time>2020-03-13T21:05:05.000Z</time>
      </trkpt>
      <trkpt lat="48.84652" lon="2.26312">
        <ele>91.4</ele>
        <time>2020-03-13T21:05:06.000Z</time>
      </trkpt>
      <trkpt lat="48.84659" lon="2.26317">
        <ele>91.51</ele>
        <time>2020-03-13T21:05:07.000Z</time>
      </trkpt>
      <trkpt lat="48.84664" lon="2.26321">
        <ele>91.62</ele>
        <time>2020-03-13T21:05:08.000Z</time>
      </trkpt>
      <trkpt lat="48.8467" lon="2.26324">
        <ele>91.71</ele>
        <time>2020-03-13T21:05:09.000Z</time>
      </trkpt>
      <trkpt lat="48.84675" lon="2.26328">
        <ele>91.83</ele>
        <time>2020-03-13T21:05:10.000Z</time>
      </trkpt>
      <trkpt lat="48.84682" lon="2.26332">
        <ele>91.94</ele>
        <time>2020-03-13T21:05:11.000Z</time>
      </trkpt>
      <trkpt lat="48.8469" lon="2.26337">
        <ele>92.05</ele>
        <time>2020-03-13T21:05:12.000Z</time>
      </trkpt>
      <trkpt lat="48.84697" lon="2.26341">
        <ele>92.12</ele>
        <time>2020-03-13T21:05:13.000Z</time>
      </trkpt>
      <trkpt lat="48.84702" lon="2.26345">
        <ele>92.2</ele>
        <time>2020-03-13T21:05:14.000Z</time>
      </trkpt>
      <trkpt lat="48.84708" lon="2.26349">
        <ele>92.25</ele>
        <time>2020-03-13T21:05:15.000Z</time>
      </trkpt>
      <trkpt lat="48.84714" lon="2.26353">
        <ele>92.29</ele>
        <time>2020-03-13T21:05:16.000Z</time>
      </trkpt>
      <trkpt lat="48.8472" lon="2.26357">
        <ele>92.32</ele>
        <time>2020-03-13T21:05:17.000Z</time>
      </trkpt>
      <trkpt lat="48.84725" lon="2.26361">
        <ele>92.35</ele>
        <time>2020-03-13T21:05:18.000Z</time>
      </trkpt>
      <trkpt lat="48.8473" lon="2.26366">
        <ele>92.36</ele>
        <time>2020-03-13T21:05:19.000Z</time>
      </trkpt>
      <trkpt lat="48.84735" lon="2.26369">
        <ele>92.37</ele>
        <time>2020-03-13T21:05:20.000Z</time>
      </trkpt>
      <trkpt lat="48.8474" lon="2.26372">
        <ele>92.37</ele>
        <time>2020-03-13T21:05:21.000Z</time>
      </trkpt>
      <trkpt lat="48.84745" lon="2.26376">
        <ele>92.36</ele>
        <time>2020-03-13T21:05:22.000Z</time>
      </trkpt>
      <trkpt lat="48.8475" lon="2.2638">
        <ele>92.34</ele>
        <time>2020-03-13T21:05:23.000Z</time>
      </trkpt>
      <trkpt lat="48.84754" lon="2.26384">
        <ele>92.31</ele>
        <time>2020-03-13T21:05:24.000Z</time>
      </trkpt>
      <trkpt lat="48.84758" lon="2.26387">
        <ele>92.3</ele>
        <time>2020-03-13T21:05:25.000Z</time>
      </trkpt>
      <trkpt lat="48.84762" lon="2.26391">
        <ele>92.3</ele>
        <time>2020-03-13T21:05:26.000Z</time>
      </trkpt>
      <trkpt lat="48.84767" lon="2.26395">
        <ele>92.29</ele>
        <time>2020-03-13T21:05:27.000Z</time>
      </trkpt>
      <trkpt lat="48.84771" lon="2.26398">
        <ele>92.19</ele>
        <time>2020-03-13T21:05:28.000Z</time>
      </trkpt>
      <trkpt lat="48.84775" lon="2.264">
        <ele>92.18</ele>
        <time>2020-03-13T21:05:29.000Z</time>
      </trkpt>
      <trkpt lat="48.84779" lon="2.26403">
        <ele>92.17</ele>
        <time>2020-03-13T21:05:30.000Z</time>
      </trkpt>
      <trkpt lat="48.84782" lon="2.26406">
        <ele>92.17</ele>
        <time>2020-03-13T21:05:31.000Z</time>
      </trkpt>
      <trkpt lat="48.84784" lon="2.26411">
        <ele>92.17</ele>
        <time>2020-03-13T21:05:32.000Z</time>
      </trkpt>
      <trkpt lat="48.84786" lon="2.26412">
        <ele>92.17</ele>
        <time>2020-03-13T21:05:33.000Z</time>
      </trkpt>
      <trkpt lat="48.8479" lon="2.26417">
        <ele>92.16</ele>
        <time>2020-03-13T21:05:48.000Z</time>
      </trkpt>
      <trkpt lat="48.84791" lon="2.26424">
        <ele>92.25</ele>
        <time>2020-03-13T21:06:39.000Z</time>
      </trkpt>
      <trkpt lat="48.84792" lon="2.26427">
        <ele>92.28</ele>
        <time>2020-03-13T21:06:41.000Z</time>
      </trkpt>
      <trkpt lat="48.84791" lon="2.26429">
        <ele>92.29</ele>
        <time>2020-03-13T21:06:42.000Z</time>
      </trkpt>
      <trkpt lat="48.84792" lon="2.2643">
        <ele>92.3</ele>
        <time>2020-03-13T21:06:43.000Z</time>
      </trkpt>
      <trkpt lat="48.84792" lon="2.26432">
        <ele>92.31</ele>
        <time>2020-03-13T21:06:44.000Z</time>
      </trkpt>
      <trkpt lat="48.84793" lon="2.26434">
        <ele>92.32</ele>
        <time>2020-03-13T21:06:45.000Z</time>
      </trkpt>
      <trkpt lat="48.84794" lon="2.26436">
        <ele>92.33</ele>
        <time>2020-03-13T21:06:46.000Z</time>
      </trkpt>
      <trkpt lat="48.84795" lon="2.26439">
        <ele>92.34</ele>
        <time>2020-03-13T21:06:47.000Z</time>
      </trkpt>
      <trkpt lat="48.84796" lon="2.26442">
        <ele>92.34</ele>
        <time>2020-03-13T21:06:48.000Z</time>
      </trkpt>
      <trkpt lat="48.84798" lon="2.26444">
        <ele>92.35</ele>
        <time>2020-03-13T21:06:49.000Z</time>
      </trkpt>
      <trkpt lat="48.848" lon="2.26448">
        <ele>92.36</ele>
        <time>2020-03-13T21:06:50.000Z</time>
      </trkpt>
      <trkpt lat="48.84802" lon="2.26452">
        <ele>92.36</ele>
        <time>2020-03-13T21:06:51.000Z</time>
      </trkpt>
      <trkpt lat="48.84805" lon="2.26456">
        <ele>92.37</ele>
        <time>2020-03-13T21:06:52.000Z</time>
      </trkpt>
      <trkpt lat="48.84809" lon="2.26463">
        <ele>92.38</ele>
        <time>2020-03-13T21:06:53.000Z</time>
      </trkpt>
      <trkpt lat="48.84814" lon="2.2647">
        <ele>92.39</ele>
        <time>2020-03-13T21:06:54.000Z</time>
      </trkpt>
      <trkpt lat="48.8482" lon="2.26474">
        <ele>92.4</ele>
        <time>2020-03-13T21:06:55.000Z</time>
      </trkpt>
      <trkpt lat="48.84824" lon="2.26476">
        <ele>92.4</ele>
        <time>2020-03-13T21:06:56.000Z</time>
      </trkpt>
      <trkpt lat="48.84829" lon="2.26478">
        <ele>92.41</ele>
        <time>2020-03-13T21:06:57.000Z</time>
      </trkpt>
      <trkpt lat="48.84831" lon="2.26482">
        <ele>92.42</ele>
        <time>2020-03-13T21:06:58.000Z</time>
      </trkpt>
      <trkpt lat="48.84831" lon="2.26487">
        <ele>92.42</ele>
        <time>2020-03-13T21:06:59.000Z</time>
      </trkpt>
      <trkpt lat="48.84834" lon="2.26492">
        <ele>92.48</ele>
        <time>2020-03-13T21:07:00.000Z</time>
      </trkpt>
      <trkpt lat="48.84838" lon="2.26499">
        <ele>92.52</ele>
        <time>2020-03-13T21:07:01.000Z</time>
      </trkpt>
      <trkpt lat="48.8484" lon="2.26508">
        <ele>92.55</ele>
        <time>2020-03-13T21:07:02.000Z</time>
      </trkpt>
      <trkpt lat="48.84842" lon="2.26514">
        <ele>92.57</ele>
        <time>2020-03-13T21:07:03.000Z</time>
      </trkpt>
      <trkpt lat="48.84842" lon="2.26521">
        <ele>92.58</ele>
        <time>2020-03-13T21:07:04.000Z</time>
      </trkpt>
      <trkpt lat="48.84844" lon="2.26525">
        <ele>92.58</ele>
        <time>2020-03-13T21:07:05.000Z</time>
      </trkpt>
      <trkpt lat="48.84848" lon="2.2653">
        <ele>92.6</ele>
        <time>2020-03-13T21:07:06.000Z</time>
      </trkpt>
      <trkpt lat="48.8485" lon="2.26537">
        <ele>92.61</ele>
        <time>2020-03-13T21:07:07.000Z</time>
      </trkpt>
      <trkpt lat="48.84854" lon="2.26542">
        <ele>92.61</ele>
        <time>2020-03-13T21:07:08.000Z</time>
      </trkpt>
      <trkpt lat="48.84859" lon="2.26547">
        <ele>92.62</ele>
        <time>2020-03-13T21:07:09.000Z</time>
      </trkpt>
      <trkpt lat="48.84862" lon="2.26551">
        <ele>92.61</ele>
        <time>2020-03-13T21:07:10.000Z</time>
      </trkpt>
      <trkpt lat="48.84863" lon="2.26557">
        <ele>92.61</ele>
        <time>2020-03-13T21:07:11.000Z</time>
      </trkpt>
      <trkpt lat="48.84865" lon="2.26565">
        <ele>92.61</ele>
        <time>2020-03-13T21:07:12.000Z</time>
      </trkpt>
      <trkpt lat="48.84868" lon="2.26572">
        <ele>92.6</ele>
        <time>2020-03-13T21:07:13.000Z</time>
      </trkpt>
      <trkpt lat="48.84871" lon="2.26581">
        <ele>92.6</ele>
        <time>2020-03-13T21:07:14.000Z</time>
      </trkpt>
      <trkpt lat="48.84875" lon="2.26583">
        <ele>92.59</ele>
        <time>2020-03-13T21:07:15.000Z</time>
      </trkpt>
      <trkpt lat="48.84876" lon="2.26586">
        <ele>92.59</ele>
        <time>2020-03-13T21:07:16.000Z</time>
      </trkpt>
      <trkpt lat="48.84877" lon="2.26586">
        <ele>92.58</ele>
        <time>2020-03-13T21:07:17.000Z</time>
      </trkpt>
      <trkpt lat="48.84879" lon="2.26587">
        <ele>92.57</ele>
        <time>2020-03-13T21:07:19.000Z</time>
      </trkpt>
      <trkpt lat="48.8488" lon="2.26589">
        <ele>92.57</ele>
        <time>2020-03-13T21:07:20.000Z</time>
      </trkpt>
      <trkpt lat="48.84882" lon="2.26592">
        <ele>92.56</ele>
        <time>2020-03-13T21:07:21.000Z</time>
      </trkpt>
      <trkpt lat="48.84884" lon="2.26597">
        <ele>92.56</ele>
        <time>2020-03-13T21:07:22.000Z</time>
      </trkpt>
      <trkpt lat="48.84886" lon="2.26601">
        <ele>92.55</ele>
        <time>2020-03-13T21:07:23.000Z</time>
      </trkpt>
      <trkpt lat="48.84887" lon="2.26606">
        <ele>92.55</ele>
        <time>2020-03-13T21:07:24.000Z</time>
      </trkpt>
      <trkpt lat="48.84887" lon="2.2661">
        <ele>92.54</ele>
        <time>2020-03-13T21:07:25.000Z</time>
      </trkpt>
      <trkpt lat="48.84888" lon="2.26613">
        <ele>92.54</ele>
        <time>2020-03-13T21:07:26.000Z</time>
      </trkpt>
      <trkpt lat="48.84889" lon="2.26617">
        <ele>92.53</ele>
        <time>2020-03-13T21:07:27.000Z</time>
      </trkpt>
      <trkpt lat="48.84891" lon="2.2662">
        <ele>92.53</ele>
        <time>2020-03-13T21:07:28.000Z</time>
      </trkpt>
      <trkpt lat="48.84893" lon="2.26625">
        <ele>92.52</ele>
        <time>2020-03-13T21:07:29.000Z</time>
      </trkpt>
      <trkpt lat="48.84896" lon="2.26629">
        <ele>92.48</ele>
        <time>2020-03-13T21:07:30.000Z</time>
      </trkpt>
      <trkpt lat="48.84899" lon="2.26633">
        <ele>92.47</ele>
        <time>2020-03-13T21:07:31.000Z</time>
      </trkpt>
      <trkpt lat="48.84902" lon="2.26638">
        <ele>92.47</ele>
        <time>2020-03-13T21:07:32.000Z</time>
      </trkpt>
      <trkpt lat="48.84905" lon="2.26642">
        <ele>92.43</ele>
        <time>2020-03-13T21:07:33.000Z</time>
      </trkpt>
      <trkpt lat="48.84909" lon="2.26644">
        <ele>92.41</ele>
        <time>2020-03-13T21:07:34.000Z</time>
      </trkpt>
      <trkpt lat="48.84912" lon="2.26647">
        <ele>92.4</ele>
        <time>2020-03-13T21:07:35.000Z</time>
      </trkpt>
      <trkpt lat="48.84916" lon="2.26648">
        <ele>92.4</ele>
        <time>2020-03-13T21:07:36.000Z</time>
      </trkpt>
      <trkpt lat="48.8492" lon="2.26649">
        <ele>92.4</ele>
        <time>2020-03-13T21:07:37.000Z</time>
      </trkpt>
      <trkpt lat="48.84925" lon="2.2665">
        <ele>92.4</ele>
        <time>2020-03-13T21:07:38.000Z</time>
      </trkpt>
      <trkpt lat="48.84929" lon="2.2665">
        <ele>92.38</ele>
        <time>2020-03-13T21:07:39.000Z</time>
      </trkpt>
      <trkpt lat="48.84934" lon="2.26652">
        <ele>92.37</ele>
        <time>2020-03-13T21:07:40.000Z</time>
      </trkpt>
      <trkpt lat="48.84939" lon="2.26655">
        <ele>92.37</ele>
        <time>2020-03-13T21:07:41.000Z</time>
      </trkpt>
      <trkpt lat="48.84943" lon="2.26658">
        <ele>92.37</ele>
        <time>2020-03-13T21:07:42.000Z</time>
      </trkpt>
      <trkpt lat="48.84947" lon="2.2666">
        <ele>92.38</ele>
        <time>2020-03-13T21:07:43.000Z</time>
      </trkpt>
      <trkpt lat="48.84951" lon="2.26662">
        <ele>92.39</ele>
        <time>2020-03-13T21:07:44.000Z</time>
      </trkpt>
      <trkpt lat="48.84955" lon="2.26664">
        <ele>92.39</ele>
        <time>2020-03-13T21:07:45.000Z</time>
      </trkpt>
      <trkpt lat="48.8496" lon="2.26667">
        <ele>92.4</ele>
        <time>2020-03-13T21:07:46.000Z</time>
      </trkpt>
      <trkpt lat="48.84966" lon="2.26671">
        <ele>92.41</ele>
        <time>2020-03-13T21:07:47.000Z</time>
      </trkpt>
      <trkpt lat="48.84972" lon="2.26674">
        <ele>92.41</ele>
        <time>2020-03-13T21:07:48.000Z</time>
      </trkpt>
      <trkpt lat="48.84979" lon="2.26677">
        <ele>92.42</ele>
        <time>2020-03-13T21:07:49.000Z</time>
      </trkpt>
      <trkpt lat="48.84985" lon="2.26678">
        <ele>92.42</ele>
        <time>2020-03-13T21:07:50.000Z</time>
      </trkpt>
      <trkpt lat="48.84992" lon="2.26681">
        <ele>92.42</ele>
        <time>2020-03-13T21:07:51.000Z</time>
      </trkpt>
      <trkpt lat="48.84997" lon="2.26683">
        <ele>92.43</ele>
        <time>2020-03-13T21:07:52.000Z</time>
      </trkpt>
      <trkpt lat="48.85005" lon="2.26687">
        <ele>92.44</ele>
        <time>2020-03-13T21:07:53.000Z</time>
      </trkpt>
      <trkpt lat="48.85011" lon="2.26689">
        <ele>92.46</ele>
        <time>2020-03-13T21:07:54.000Z</time>
      </trkpt>
      <trkpt lat="48.85019" lon="2.26692">
        <ele>92.49</ele>
        <time>2020-03-13T21:07:55.000Z</time>
      </trkpt>
      <trkpt lat="48.85026" lon="2.26696">
        <ele>92.54</ele>
        <time>2020-03-13T21:07:56.000Z</time>
      </trkpt>
      <trkpt lat="48.85031" lon="2.26701">
        <ele>92.57</ele>
        <time>2020-03-13T21:07:57.000Z</time>
      </trkpt>
      <trkpt lat="48.85038" lon="2.26705">
        <ele>92.59</ele>
        <time>2020-03-13T21:07:58.000Z</time>
      </trkpt>
      <trkpt lat="48.85044" lon="2.26708">
        <ele>92.6</ele>
        <time>2020-03-13T21:07:59.000Z</time>
      </trkpt>
      <trkpt lat="48.85048" lon="2.2671">
        <ele>92.58</ele>
        <time>2020-03-13T21:08:00.000Z</time>
      </trkpt>
      <trkpt lat="48.85053" lon="2.26712">
        <ele>92.58</ele>
        <time>2020-03-13T21:08:01.000Z</time>
      </trkpt>
      <trkpt lat="48.85056" lon="2.26714">
        <ele>92.59</ele>
        <time>2020-03-13T21:08:02.000Z</time>
      </trkpt>
      <trkpt lat="48.85061" lon="2.26715">
        <ele>92.58</ele>
        <time>2020-03-13T21:08:03.000Z</time>
      </trkpt>
      <trkpt lat="48.85067" lon="2.26721">
        <ele>92.57</ele>
        <time>2020-03-13T21:08:04.000Z</time>
      </trkpt>
      <trkpt lat="48.85075" lon="2.26728">
        <ele>92.55</ele>
        <time>2020-03-13T21:08:05.000Z</time>
      </trkpt>
      <trkpt lat="48.85081" lon="2.26732">
        <ele>92.53</ele>
        <time>2020-03-13T21:08:06.000Z</time>
      </trkpt>
      <trkpt lat="48.85086" lon="2.26735">
        <ele>92.51</ele>
        <time>2020-03-13T21:08:07.000Z</time>
      </trkpt>
      <trkpt lat="48.85093" lon="2.26738">
        <ele>92.5</ele>
        <time>2020-03-13T21:08:08.000Z</time>
      </trkpt>
      <trkpt lat="48.85101" lon="2.26742">
        <ele>92.51</ele>
        <time>2020-03-13T21:08:09.000Z</time>
      </trkpt>
      <trkpt lat="48.85108" lon="2.26748">
        <ele>92.52</ele>
        <time>2020-03-13T21:08:10.000Z</time>
      </trkpt>
      <trkpt lat="48.85115" lon="2.26751">
        <ele>92.52</ele>
        <time>2020-03-13T21:08:11.000Z</time>
      </trkpt>
      <trkpt lat="48.85121" lon="2.26755">
        <ele>92.53</ele>
        <time>2020-03-13T21:08:12.000Z</time>
      </trkpt>
      <trkpt lat="48.85127" lon="2.26757">
        <ele>92.54</ele>
        <time>2020-03-13T21:08:13.000Z</time>
      </trkpt>
      <trkpt lat="48.85135" lon="2.2676">
        <ele>92.56</ele>
        <time>2020-03-13T21:08:14.000Z</time>
      </trkpt>
      <trkpt lat="48.85141" lon="2.26763">
        <ele>92.57</ele>
        <time>2020-03-13T21:08:15.000Z</time>
      </trkpt>
      <trkpt lat="48.85147" lon="2.26764">
        <ele>92.56</ele>
        <time>2020-03-13T21:08:16.000Z</time>
      </trkpt>
      <trkpt lat="48.85153" lon="2.26768">
        <ele>92.55</ele>
        <time>2020-03-13T21:08:17.000Z</time>
      </trkpt>
      <trkpt lat="48.85158" lon="2.26772">
        <ele>92.55</ele>
        <time>2020-03-13T21:08:18.000Z</time>
      </trkpt>
      <trkpt lat="48.85164" lon="2.26776">
        <ele>92.55</ele>
        <time>2020-03-13T21:08:19.000Z</time>
      </trkpt>
      <trkpt lat="48.85169" lon="2.2678">
        <ele>92.55</ele>
        <time>2020-03-13T21:08:20.000Z</time>
      </trkpt>
      <trkpt lat="48.85174" lon="2.26784">
        <ele>92.54</ele>
        <time>2020-03-13T21:08:21.000Z</time>
      </trkpt>
      <trkpt lat="48.8518" lon="2.26788">
        <ele>92.53</ele>
        <time>2020-03-13T21:08:22.000Z</time>
      </trkpt>
      <trkpt lat="48.85186" lon="2.26791">
        <ele>92.52</ele>
        <time>2020-03-13T21:08:23.000Z</time>
      </trkpt>
      <trkpt lat="48.85191" lon="2.26794">
        <ele>92.53</ele>
        <time>2020-03-13T21:08:24.000Z</time>
      </trkpt>
      <trkpt lat="48.85195" lon="2.26797">
        <ele>92.55</ele>
        <time>2020-03-13T21:08:25.000Z</time>
      </trkpt>
      <trkpt lat="48.85202" lon="2.26802">
        <ele>92.56</ele>
        <time>2020-03-13T21:08:26.000Z</time>
      </trkpt>
      <trkpt lat="48.85209" lon="2.26804">
        <ele>92.59</ele>
        <time>2020-03-13T21:08:27.000Z</time>
      </trkpt>
      <trkpt lat="48.85216" lon="2.26808">
        <ele>92.63</ele>
        <time>2020-03-13T21:08:28.000Z</time>
      </trkpt>
      <trkpt lat="48.85222" lon="2.26811">
        <ele>92.7</ele>
        <time>2020-03-13T21:08:29.000Z</time>
      </trkpt>
      <trkpt lat="48.85228" lon="2.26815">
        <ele>92.79</ele>
        <time>2020-03-13T21:08:30.000Z</time>
      </trkpt>
      <trkpt lat="48.85235" lon="2.26815">
        <ele>92.82</ele>
        <time>2020-03-13T21:08:31.000Z</time>
      </trkpt>
      <trkpt lat="48.85241" lon="2.26819">
        <ele>92.89</ele>
        <time>2020-03-13T21:08:32.000Z</time>
      </trkpt>
      <trkpt lat="48.85246" lon="2.26821">
        <ele>92.89</ele>
        <time>2020-03-13T21:08:33.000Z</time>
      </trkpt>
      <trkpt lat="48.85249" lon="2.26824">
        <ele>92.9</ele>
        <time>2020-03-13T21:08:34.000Z</time>
      </trkpt>
      <trkpt lat="48.85251" lon="2.26826">
        <ele>92.91</ele>
        <time>2020-03-13T21:08:35.000Z</time>
      </trkpt>
      <trkpt lat="48.85255" lon="2.2683">
        <ele>92.97</ele>
        <time>2020-03-13T21:08:36.000Z</time>
      </trkpt>
      <trkpt lat="48.85259" lon="2.26834">
        <ele>93.02</ele>
        <time>2020-03-13T21:08:37.000Z</time>
      </trkpt>
      <trkpt lat="48.85264" lon="2.26837">
        <ele>93.05</ele>
        <time>2020-03-13T21:08:38.000Z</time>
      </trkpt>
      <trkpt lat="48.8527" lon="2.26841">
        <ele>93.06</ele>
        <time>2020-03-13T21:08:39.000Z</time>
      </trkpt>
      <trkpt lat="48.85277" lon="2.26845">
        <ele>93.06</ele>
        <time>2020-03-13T21:08:40.000Z</time>
      </trkpt>
      <trkpt lat="48.85282" lon="2.26847">
        <ele>93.1</ele>
        <time>2020-03-13T21:08:41.000Z</time>
      </trkpt>
      <trkpt lat="48.85288" lon="2.26849">
        <ele>93.17</ele>
        <time>2020-03-13T21:08:42.000Z</time>
      </trkpt>
      <trkpt lat="48.85295" lon="2.26853">
        <ele>93.22</ele>
        <time>2020-03-13T21:08:43.000Z</time>
      </trkpt>
      <trkpt lat="48.85301" lon="2.26855">
        <ele>93.26</ele>
        <time>2020-03-13T21:08:44.000Z</time>
      </trkpt>
      <trkpt lat="48.85306" lon="2.26857">
        <ele>93.3</ele>
        <time>2020-03-13T21:08:45.000Z</time>
      </trkpt>
      <trkpt lat="48.85313" lon="2.26861">
        <ele>93.35</ele>
        <time>2020-03-13T21:08:46.000Z</time>
      </trkpt>
      <trkpt lat="48.85321" lon="2.26865">
        <ele>93.36</ele>
        <time>2020-03-13T21:08:47.000Z</time>
      </trkpt>
      <trkpt lat="48.85328" lon="2.26867">
        <ele>93.37</ele>
        <time>2020-03-13T21:08:48.000Z</time>
      </trkpt>
      <trkpt lat="48.85334" lon="2.26869">
        <ele>93.38</ele>
        <time>2020-03-13T21:08:49.000Z</time>
      </trkpt>
      <trkpt lat="48.85339" lon="2.26869">
        <ele>93.38</ele>
        <time>2020-03-13T21:08:50.000Z</time>
      </trkpt>
      <trkpt lat="48.85344" lon="2.2687">
        <ele>93.38</ele>
        <time>2020-03-13T21:08:51.000Z</time>
      </trkpt>
      <trkpt lat="48.85347" lon="2.26874">
        <ele>93.39</ele>
        <time>2020-03-13T21:08:52.000Z</time>
      </trkpt>
      <trkpt lat="48.85351" lon="2.26877">
        <ele>93.39</ele>
        <time>2020-03-13T21:08:53.000Z</time>
      </trkpt>
      <trkpt lat="48.85357" lon="2.26882">
        <ele>93.4</ele>
        <time>2020-03-13T21:08:54.000Z</time>
      </trkpt>
      <trkpt lat="48.8536" lon="2.26887">
        <ele>93.41</ele>
        <time>2020-03-13T21:08:55.000Z</time>
      </trkpt>
      <trkpt lat="48.85363" lon="2.2689">
        <ele>93.42</ele>
        <time>2020-03-13T21:08:56.000Z</time>
      </trkpt>
      <trkpt lat="48.85366" lon="2.26895">
        <ele>93.54</ele>
        <time>2020-03-13T21:08:57.000Z</time>
      </trkpt>
      <trkpt lat="48.8537" lon="2.26896">
        <ele>93.65</ele>
        <time>2020-03-13T21:08:58.000Z</time>
      </trkpt>
      <trkpt lat="48.85374" lon="2.26898">
        <ele>93.66</ele>
        <time>2020-03-13T21:08:59.000Z</time>
      </trkpt>
      <trkpt lat="48.85378" lon="2.269">
        <ele>93.65</ele>
        <time>2020-03-13T21:09:00.000Z</time>
      </trkpt>
      <trkpt lat="48.85381" lon="2.26901">
        <ele>93.65</ele>
        <time>2020-03-13T21:09:01.000Z</time>
      </trkpt>
      <trkpt lat="48.85386" lon="2.26902">
        <ele>93.66</ele>
        <time>2020-03-13T21:09:02.000Z</time>
      </trkpt>
      <trkpt lat="48.85388" lon="2.26905">
        <ele>93.66</ele>
        <time>2020-03-13T21:09:03.000Z</time>
      </trkpt>
      <trkpt lat="48.85392" lon="2.26908">
        <ele>93.68</ele>
        <time>2020-03-13T21:09:04.000Z</time>
      </trkpt>
      <trkpt lat="48.85395" lon="2.2691">
        <ele>93.69</ele>
        <time>2020-03-13T21:09:05.000Z</time>
      </trkpt>
      <trkpt lat="48.854" lon="2.26914">
        <ele>93.71</ele>
        <time>2020-03-13T21:09:06.000Z</time>
      </trkpt>
      <trkpt lat="48.85406" lon="2.26918">
        <ele>93.77</ele>
        <time>2020-03-13T21:09:07.000Z</time>
      </trkpt>
      <trkpt lat="48.85413" lon="2.2692">
        <ele>93.73</ele>
        <time>2020-03-13T21:09:08.000Z</time>
      </trkpt>
      <trkpt lat="48.85419" lon="2.26925">
        <ele>93.74</ele>
        <time>2020-03-13T21:09:09.000Z</time>
      </trkpt>
      <trkpt lat="48.85425" lon="2.26928">
        <ele>93.73</ele>
        <time>2020-03-13T21:09:10.000Z</time>
      </trkpt>
      <trkpt lat="48.85431" lon="2.26932">
        <ele>93.73</ele>
        <time>2020-03-13T21:09:11.000Z</time>
      </trkpt>
      <trkpt lat="48.85437" lon="2.26936">
        <ele>93.73</ele>
        <time>2020-03-13T21:09:12.000Z</time>
      </trkpt>
      <trkpt lat="48.8544" lon="2.26938">
        <ele>93.71</ele>
        <time>2020-03-13T21:09:13.000Z</time>
      </trkpt>
      <trkpt lat="48.85445" lon="2.26939">
        <ele>93.67</ele>
        <time>2020-03-13T21:09:14.000Z</time>
      </trkpt>
      <trkpt lat="48.8545" lon="2.26943">
        <ele>93.61</ele>
        <time>2020-03-13T21:09:15.000Z</time>
      </trkpt>
      <trkpt lat="48.85456" lon="2.26949">
        <ele>93.53</ele>
        <time>2020-03-13T21:09:16.000Z</time>
      </trkpt>
      <trkpt lat="48.85464" lon="2.26956">
        <ele>93.46</ele>
        <time>2020-03-13T21:09:17.000Z</time>
      </trkpt>
      <trkpt lat="48.8547" lon="2.26962">
        <ele>93.42</ele>
        <time>2020-03-13T21:09:18.000Z</time>
      </trkpt>
      <trkpt lat="48.85479" lon="2.26967">
        <ele>93.47</ele>
        <time>2020-03-13T21:09:19.000Z</time>
      </trkpt>
      <trkpt lat="48.85486" lon="2.26972">
        <ele>93.53</ele>
        <time>2020-03-13T21:09:20.000Z</time>
      </trkpt>
      <trkpt lat="48.8549" lon="2.26976">
        <ele>93.6</ele>
        <time>2020-03-13T21:09:21.000Z</time>
      </trkpt>
      <trkpt lat="48.855" lon="2.26983">
        <ele>93.7</ele>
        <time>2020-03-13T21:09:22.000Z</time>
      </trkpt>
      <trkpt lat="48.85507" lon="2.26988">
        <ele>93.79</ele>
        <time>2020-03-13T21:09:23.000Z</time>
      </trkpt>
      <trkpt lat="48.85512" lon="2.26993">
        <ele>93.9</ele>
        <time>2020-03-13T21:09:24.000Z</time>
      </trkpt>
      <trkpt lat="48.85518" lon="2.26998">
        <ele>94.02</ele>
        <time>2020-03-13T21:09:25.000Z</time>
      </trkpt>
      <trkpt lat="48.85525" lon="2.27002">
        <ele>94.13</ele>
        <time>2020-03-13T21:09:26.000Z</time>
      </trkpt>
      <trkpt lat="48.8553" lon="2.27006">
        <ele>94.2</ele>
        <time>2020-03-13T21:09:27.000Z</time>
      </trkpt>
      <trkpt lat="48.85537" lon="2.27011">
        <ele>94.24</ele>
        <time>2020-03-13T21:09:28.000Z</time>
      </trkpt>
      <trkpt lat="48.85541" lon="2.27017">
        <ele>94.36</ele>
        <time>2020-03-13T21:09:29.000Z</time>
      </trkpt>
      <trkpt lat="48.85546" lon="2.27025">
        <ele>94.52</ele>
        <time>2020-03-13T21:09:30.000Z</time>
      </trkpt>
      <trkpt lat="48.85552" lon="2.27032">
        <ele>94.65</ele>
        <time>2020-03-13T21:09:31.000Z</time>
      </trkpt>
      <trkpt lat="48.85557" lon="2.2704">
        <ele>94.76</ele>
        <time>2020-03-13T21:09:32.000Z</time>
      </trkpt>
      <trkpt lat="48.85562" lon="2.27048">
        <ele>94.83</ele>
        <time>2020-03-13T21:09:33.000Z</time>
      </trkpt>
      <trkpt lat="48.85567" lon="2.27053">
        <ele>94.91</ele>
        <time>2020-03-13T21:09:34.000Z</time>
      </trkpt>
      <trkpt lat="48.85573" lon="2.27061">
        <ele>94.96</ele>
        <time>2020-03-13T21:09:35.000Z</time>
      </trkpt>
      <trkpt lat="48.85578" lon="2.27069">
        <ele>94.95</ele>
        <time>2020-03-13T21:09:36.000Z</time>
      </trkpt>
      <trkpt lat="48.85583" lon="2.27076">
        <ele>94.92</ele>
        <time>2020-03-13T21:09:37.000Z</time>
      </trkpt>
      <trkpt lat="48.85588" lon="2.27084">
        <ele>94.9</ele>
        <time>2020-03-13T21:09:38.000Z</time>
      </trkpt>
      <trkpt lat="48.85592" lon="2.27091">
        <ele>94.88</ele>
        <time>2020-03-13T21:09:39.000Z</time>
      </trkpt>
      <trkpt lat="48.85597" lon="2.27099">
        <ele>94.87</ele>
        <time>2020-03-13T21:09:40.000Z</time>
      </trkpt>
      <trkpt lat="48.85602" lon="2.27106">
        <ele>94.85</ele>
        <time>2020-03-13T21:09:41.000Z</time>
      </trkpt>
      <trkpt lat="48.85605" lon="2.27113">
        <ele>94.85</ele>
        <time>2020-03-13T21:09:42.000Z</time>
      </trkpt>
      <trkpt lat="48.85611" lon="2.2712">
        <ele>94.83</ele>
        <time>2020-03-13T21:09:43.000Z</time>
      </trkpt>
      <trkpt lat="48.85616" lon="2.27127">
        <ele>94.82</ele>
        <time>2020-03-13T21:09:44.000Z</time>
      </trkpt>
      <trkpt lat="48.85621" lon="2.27134">
        <ele>94.84</ele>
        <time>2020-03-13T21:09:45.000Z</time>
      </trkpt>
      <trkpt lat="48.85626" lon="2.27141">
        <ele>94.86</ele>
        <time>2020-03-13T21:09:46.000Z</time>
      </trkpt>
      <trkpt lat="48.8563" lon="2.27148">
        <ele>94.9</ele>
        <time>2020-03-13T21:09:47.000Z</time>
      </trkpt>
      <trkpt lat="48.85634" lon="2.27154">
        <ele>94.92</ele>
        <time>2020-03-13T21:09:48.000Z</time>
      </trkpt>
      <trkpt lat="48.85638" lon="2.2716">
        <ele>94.95</ele>
        <time>2020-03-13T21:09:49.000Z</time>
      </trkpt>
      <trkpt lat="48.85642" lon="2.27165">
        <ele>94.95</ele>
        <time>2020-03-13T21:09:50.000Z</time>
      </trkpt>
      <trkpt lat="48.85647" lon="2.27171">
        <ele>94.96</ele>
        <time>2020-03-13T21:09:51.000Z</time>
      </trkpt>
      <trkpt lat="48.85652" lon="2.27178">
        <ele>94.97</ele>
        <time>2020-03-13T21:09:52.000Z</time>
      </trkpt>
      <trkpt lat="48.85656" lon="2.27184">
        <ele>95</ele>
        <time>2020-03-13T21:09:53.000Z</time>
      </trkpt>
      <trkpt lat="48.85661" lon="2.27191">
        <ele>95.03</ele>
        <time>2020-03-13T21:09:54.000Z</time>
      </trkpt>
      <trkpt lat="48.85665" lon="2.27197">
        <ele>95.07</ele>
        <time>2020-03-13T21:09:55.000Z</time>
      </trkpt>
      <trkpt lat="48.85669" lon="2.27204">
        <ele>95.12</ele>
        <time>2020-03-13T21:09:56.000Z</time>
      </trkpt>
      <trkpt lat="48.85673" lon="2.2721">
        <ele>95.19</ele>
        <time>2020-03-13T21:09:57.000Z</time>
      </trkpt>
      <trkpt lat="48.85677" lon="2.27216">
        <ele>95.25</ele>
        <time>2020-03-13T21:09:58.000Z</time>
      </trkpt>
      <trkpt lat="48.8568" lon="2.2722">
        <ele>95.31</ele>
        <time>2020-03-13T21:09:59.000Z</time>
      </trkpt>
      <trkpt lat="48.85684" lon="2.27226">
        <ele>95.36</ele>
        <time>2020-03-13T21:10:00.000Z</time>
      </trkpt>
      <trkpt lat="48.85688" lon="2.27232">
        <ele>95.41</ele>
        <time>2020-03-13T21:10:01.000Z</time>
      </trkpt>
      <trkpt lat="48.85692" lon="2.27238">
        <ele>95.45</ele>
        <time>2020-03-13T21:10:02.000Z</time>
      </trkpt>
      <trkpt lat="48.85696" lon="2.27244">
        <ele>95.5</ele>
        <time>2020-03-13T21:10:03.000Z</time>
      </trkpt>
      <trkpt lat="48.857" lon="2.2725">
        <ele>95.54</ele>
        <time>2020-03-13T21:10:04.000Z</time>
      </trkpt>
      <trkpt lat="48.85704" lon="2.27256">
        <ele>95.58</ele>
        <time>2020-03-13T21:10:05.000Z</time>
      </trkpt>
      <trkpt lat="48.85708" lon="2.27262">
        <ele>95.62</ele>
        <time>2020-03-13T21:10:06.000Z</time>
      </trkpt>
      <trkpt lat="48.85712" lon="2.27268">
        <ele>95.65</ele>
        <time>2020-03-13T21:10:07.000Z</time>
      </trkpt>
      <trkpt lat="48.85716" lon="2.27274">
        <ele>95.7</ele>
        <time>2020-03-13T21:10:08.000Z</time>
      </trkpt>
      <trkpt lat="48.85719" lon="2.2728">
        <ele>95.74</ele>
        <time>2020-03-13T21:10:09.000Z</time>
      </trkpt>
      <trkpt lat="48.85722" lon="2.27286">
        <ele>95.8</ele>
        <time>2020-03-13T21:10:10.000Z</time>
      </trkpt>
      <trkpt lat="48.85725" lon="2.27291">
        <ele>95.86</ele>
        <time>2020-03-13T21:10:11.000Z</time>
      </trkpt>
      <trkpt lat="48.85729" lon="2.27296">
        <ele>95.92</ele>
        <time>2020-03-13T21:10:12.000Z</time>
      </trkpt>
      <trkpt lat="48.85731" lon="2.27301">
        <ele>95.99</ele>
        <time>2020-03-13T21:10:13.000Z</time>
      </trkpt>
      <trkpt lat="48.85735" lon="2.27305">
        <ele>96.06</ele>
        <time>2020-03-13T21:10:14.000Z</time>
      </trkpt>
      <trkpt lat="48.85738" lon="2.2731">
        <ele>96.13</ele>
        <time>2020-03-13T21:10:15.000Z</time>
      </trkpt>
      <trkpt lat="48.85741" lon="2.27317">
        <ele>96.22</ele>
        <time>2020-03-13T21:10:16.000Z</time>
      </trkpt>
      <trkpt lat="48.85744" lon="2.27323">
        <ele>96.32</ele>
        <time>2020-03-13T21:10:17.000Z</time>
      </trkpt>
      <trkpt lat="48.85748" lon="2.27329">
        <ele>96.41</ele>
        <time>2020-03-13T21:10:18.000Z</time>
      </trkpt>
      <trkpt lat="48.85752" lon="2.27334">
        <ele>96.49</ele>
        <time>2020-03-13T21:10:19.000Z</time>
      </trkpt>
      <trkpt lat="48.85755" lon="2.2734">
        <ele>96.55</ele>
        <time>2020-03-13T21:10:20.000Z</time>
      </trkpt>
      <trkpt lat="48.85759" lon="2.27346">
        <ele>96.65</ele>
        <time>2020-03-13T21:10:21.000Z</time>
      </trkpt>
      <trkpt lat="48.85762" lon="2.27352">
        <ele>96.77</ele>
        <time>2020-03-13T21:10:22.000Z</time>
      </trkpt>
      <trkpt lat="48.85766" lon="2.27358">
        <ele>96.89</ele>
        <time>2020-03-13T21:10:23.000Z</time>
      </trkpt>
      <trkpt lat="48.8577" lon="2.27363">
        <ele>97</ele>
        <time>2020-03-13T21:10:24.000Z</time>
      </trkpt>
      <trkpt lat="48.85773" lon="2.2737">
        <ele>97.11</ele>
        <time>2020-03-13T21:10:25.000Z</time>
      </trkpt>
      <trkpt lat="48.85776" lon="2.27375">
        <ele>97.2</ele>
        <time>2020-03-13T21:10:26.000Z</time>
      </trkpt>
      <trkpt lat="48.8578" lon="2.27381">
        <ele>97.29</ele>
        <time>2020-03-13T21:10:27.000Z</time>
      </trkpt>
      <trkpt lat="48.85784" lon="2.27386">
        <ele>97.4</ele>
        <time>2020-03-13T21:10:28.000Z</time>
      </trkpt>
      <trkpt lat="48.85787" lon="2.27391">
        <ele>97.5</ele>
        <time>2020-03-13T21:10:29.000Z</time>
      </trkpt>
      <trkpt lat="48.85791" lon="2.27396">
        <ele>97.6</ele>
        <time>2020-03-13T21:10:30.000Z</time>
      </trkpt>
      <trkpt lat="48.85795" lon="2.27401">
        <ele>97.62</ele>
        <time>2020-03-13T21:10:31.000Z</time>
      </trkpt>
      <trkpt lat="48.85797" lon="2.27404">
        <ele>97.63</ele>
        <time>2020-03-13T21:10:32.000Z</time>
      </trkpt>
      <trkpt lat="48.85799" lon="2.27407">
        <ele>97.64</ele>
        <time>2020-03-13T21:10:33.000Z</time>
      </trkpt>
      <trkpt lat="48.85802" lon="2.27413">
        <ele>97.67</ele>
        <time>2020-03-13T21:10:34.000Z</time>
      </trkpt>
      <trkpt lat="48.85804" lon="2.2742">
        <ele>97.7</ele>
        <time>2020-03-13T21:10:35.000Z</time>
      </trkpt>
      <trkpt lat="48.85805" lon="2.27425">
        <ele>97.73</ele>
        <time>2020-03-13T21:10:36.000Z</time>
      </trkpt>
      <trkpt lat="48.85806" lon="2.27431">
        <ele>97.78</ele>
        <time>2020-03-13T21:10:37.000Z</time>
      </trkpt>
      <trkpt lat="48.85807" lon="2.27434">
        <ele>97.84</ele>
        <time>2020-03-13T21:10:38.000Z</time>
      </trkpt>
      <trkpt lat="48.85808" lon="2.27438">
        <ele>97.9</ele>
        <time>2020-03-13T21:10:39.000Z</time>
      </trkpt>
      <trkpt lat="48.85808" lon="2.27442">
        <ele>97.96</ele>
        <time>2020-03-13T21:10:40.000Z</time>
      </trkpt>
      <trkpt lat="48.85809" lon="2.27446">
        <ele>98.04</ele>
        <time>2020-03-13T21:10:41.000Z</time>
      </trkpt>
      <trkpt lat="48.8581" lon="2.2745">
        <ele>98.11</ele>
        <time>2020-03-13T21:10:42.000Z</time>
      </trkpt>
      <trkpt lat="48.8581" lon="2.27453">
        <ele>98.19</ele>
        <time>2020-03-13T21:10:43.000Z</time>
      </trkpt>
      <trkpt lat="48.85811" lon="2.27456">
        <ele>98.27</ele>
        <time>2020-03-13T21:10:44.000Z</time>
      </trkpt>
      <trkpt lat="48.85811" lon="2.27459">
        <ele>98.35</ele>
        <time>2020-03-13T21:10:45.000Z</time>
      </trkpt>
      <trkpt lat="48.8581" lon="2.2746">
        <ele>98.43</ele>
        <time>2020-03-13T21:10:46.000Z</time>
      </trkpt>
      <trkpt lat="48.8581" lon="2.27465">
        <ele>98.5</ele>
        <time>2020-03-13T21:10:47.000Z</time>
      </trkpt>
      <trkpt lat="48.85809" lon="2.27469">
        <ele>98.64</ele>
        <time>2020-03-13T21:10:49.000Z</time>
      </trkpt>
      <trkpt lat="48.85812" lon="2.27469">
        <ele>98.71</ele>
        <time>2020-03-13T21:10:50.000Z</time>
      </trkpt>
      <trkpt lat="48.85814" lon="2.2747">
        <ele>98.77</ele>
        <time>2020-03-13T21:10:51.000Z</time>
      </trkpt>
      <trkpt lat="48.85815" lon="2.27471">
        <ele>98.78</ele>
        <time>2020-03-13T21:10:52.000Z</time>
      </trkpt>
      <trkpt lat="48.85816" lon="2.27471">
        <ele>98.92</ele>
        <time>2020-03-13T21:11:03.000Z</time>
      </trkpt>
      <trkpt lat="48.85816" lon="2.2747">
        <ele>99.05</ele>
        <time>2020-03-13T21:11:06.000Z</time>
      </trkpt>
      <trkpt lat="48.85815" lon="2.27471">
        <ele>99.2</ele>
        <time>2020-03-13T21:11:13.000Z</time>
      </trkpt>
      <trkpt lat="48.85816" lon="2.2747">
        <ele>99.29</ele>
        <time>2020-03-13T21:11:22.000Z</time>
      </trkpt>
      <trkpt lat="48.85817" lon="2.2747">
        <ele>99.38</ele>
        <time>2020-03-13T21:11:25.000Z</time>
      </trkpt>
      <trkpt lat="48.85818" lon="2.27469">
        <ele>99.44</ele>
        <time>2020-03-13T21:11:27.000Z</time>
      </trkpt>
      <trkpt lat="48.8582" lon="2.27471">
        <ele>99.56</ele>
        <time>2020-03-13T21:11:33.000Z</time>
      </trkpt>
      <trkpt lat="48.85821" lon="2.27471">
        <ele>99.58</ele>
        <time>2020-03-13T21:11:35.000Z</time>
      </trkpt>
      <trkpt lat="48.85822" lon="2.27471">
        <ele>99.58</ele>
        <time>2020-03-13T21:11:36.000Z</time>
      </trkpt>
      <trkpt lat="48.85822" lon="2.27469">
        <ele>99.59</ele>
        <time>2020-03-13T21:11:38.000Z</time>
      </trkpt>
      <trkpt lat="48.85823" lon="2.27467">
        <ele>99.59</ele>
        <time>2020-03-13T21:11:40.000Z</time>
      </trkpt>
      <trkpt lat="48.85824" lon="2.27466">
        <ele>99.59</ele>
        <time>2020-03-13T21:11:41.000Z</time>
      </trkpt>
      <trkpt lat="48.85824" lon="2.27464">
        <ele>99.6</ele>
        <time>2020-03-13T21:11:42.000Z</time>
      </trkpt>
      <trkpt lat="48.85824" lon="2.27461">
        <ele>99.6</ele>
        <time>2020-03-13T21:11:44.000Z</time>
      </trkpt>
      <trkpt lat="48.85823" lon="2.2746">
        <ele>99.6</ele>
        <time>2020-03-13T21:11:46.000Z</time>
      </trkpt>
      <trkpt lat="48.85823" lon="2.27458">
        <ele>99.61</ele>
        <time>2020-03-13T21:11:48.000Z</time>
      </trkpt>
      <trkpt lat="48.85822" lon="2.27458">
        <ele>99.61</ele>
        <time>2020-03-13T21:11:51.000Z</time>
      </trkpt>
      <trkpt lat="48.85821" lon="2.27458">
        <ele>99.62</ele>
        <time>2020-03-13T21:11:53.000Z</time>
      </trkpt>
      <trkpt lat="48.85822" lon="2.27461">
        <ele>99.75</ele>
        <time>2020-03-13T21:11:58.000Z</time>
      </trkpt>
      <trkpt lat="48.85823" lon="2.27463">
        <ele>99.78</ele>
        <time>2020-03-13T21:11:59.000Z</time>
      </trkpt>
      <trkpt lat="48.85823" lon="2.27465">
        <ele>99.8</ele>
        <time>2020-03-13T21:12:01.000Z</time>
      </trkpt>
      <trkpt lat="48.85824" lon="2.27467">
        <ele>99.85</ele>
        <time>2020-03-13T21:12:03.000Z</time>
      </trkpt>
      <trkpt lat="48.85825" lon="2.27468">
        <ele>99.92</ele>
        <time>2020-03-13T21:12:06.000Z</time>
      </trkpt>
      <trkpt lat="48.85825" lon="2.2747">
        <ele>100.01</ele>
        <time>2020-03-13T21:12:13.000Z</time>
      </trkpt>
      <trkpt lat="48.85824" lon="2.27471">
        <ele>100.03</ele>
        <time>2020-03-13T21:12:14.000Z</time>
      </trkpt>
      <trkpt lat="48.85822" lon="2.27472">
        <ele>100.06</ele>
        <time>2020-03-13T21:12:16.000Z</time>
      </trkpt>
      <trkpt lat="48.85824" lon="2.27471">
        <ele>100.1</ele>
        <time>2020-03-13T21:12:19.000Z</time>
      </trkpt>
      <trkpt lat="48.85823" lon="2.27471">
        <ele>100.13</ele>
        <time>2020-03-13T21:12:24.000Z</time>
      </trkpt>
      <trkpt lat="48.85825" lon="2.27471">
        <ele>100.14</ele>
        <time>2020-03-13T21:12:25.000Z</time>
      </trkpt>
      <trkpt lat="48.85823" lon="2.2747">
        <ele>100.16</ele>
        <time>2020-03-13T21:12:28.000Z</time>
      </trkpt>
      <trkpt lat="48.85822" lon="2.2747">
        <ele>100.17</ele>
        <time>2020-03-13T21:12:29.000Z</time>
      </trkpt>
      <trkpt lat="48.8582" lon="2.2747">
        <ele>100.18</ele>
        <time>2020-03-13T21:12:31.000Z</time>
      </trkpt>
      <trkpt lat="48.85819" lon="2.27472">
        <ele>100.19</ele>
        <time>2020-03-13T21:12:34.000Z</time>
      </trkpt>
      <trkpt lat="48.8582" lon="2.27471">
        <ele>100.19</ele>
        <time>2020-03-13T21:12:38.000Z</time>
      </trkpt>
      <trkpt lat="48.85821" lon="2.27471">
        <ele>100.19</ele>
        <time>2020-03-13T21:12:39.000Z</time>
      </trkpt>
      <trkpt lat="48.85822" lon="2.27472">
        <ele>100.19</ele>
        <time>2020-03-13T21:12:40.000Z</time>
      </trkpt>
      <trkpt lat="48.85824" lon="2.27473">
        <ele>100.19</ele>
        <time>2020-03-13T21:12:42.000Z</time>
      </trkpt>
      <trkpt lat="48.85825" lon="2.27474">
        <ele>100.16</ele>
        <time>2020-03-13T21:12:53.000Z</time>
      </trkpt>
      <trkpt lat="48.85826" lon="2.27474">
        <ele>100.15</ele>
        <time>2020-03-13T21:12:54.000Z</time>
      </trkpt>
      <trkpt lat="48.85827" lon="2.27474">
        <ele>100.13</ele>
        <time>2020-03-13T21:12:55.000Z</time>
      </trkpt>
      <trkpt lat="48.85826" lon="2.27472">
        <ele>100.09</ele>
        <time>2020-03-13T21:13:02.000Z</time>
      </trkpt>
      <trkpt lat="48.85824" lon="2.27471">
        <ele>100.07</ele>
        <time>2020-03-13T21:13:03.000Z</time>
      </trkpt>
      <trkpt lat="48.85823" lon="2.27469">
        <ele>100.07</ele>
        <time>2020-03-13T21:13:04.000Z</time>
      </trkpt>
      <trkpt lat="48.85822" lon="2.27468">
        <ele>100.06</ele>
        <time>2020-03-13T21:13:05.000Z</time>
      </trkpt>
      <trkpt lat="48.85822" lon="2.2747">
        <ele>100.03</ele>
        <time>2020-03-13T21:13:07.000Z</time>
      </trkpt>
      <trkpt lat="48.85823" lon="2.27473">
        <ele>100.01</ele>
        <time>2020-03-13T21:13:08.000Z</time>
      </trkpt>
      <trkpt lat="48.85823" lon="2.27475">
        <ele>100</ele>
        <time>2020-03-13T21:13:09.000Z</time>
      </trkpt>
      <trkpt lat="48.85824" lon="2.27478">
        <ele>99.99</ele>
        <time>2020-03-13T21:13:10.000Z</time>
      </trkpt>
      <trkpt lat="48.85824" lon="2.27481">
        <ele>99.98</ele>
        <time>2020-03-13T21:13:11.000Z</time>
      </trkpt>
      <trkpt lat="48.85825" lon="2.27482">
        <ele>99.97</ele>
        <time>2020-03-13T21:13:12.000Z</time>
      </trkpt>
      <trkpt lat="48.85825" lon="2.27484">
        <ele>99.96</ele>
        <time>2020-03-13T21:13:13.000Z</time>
      </trkpt>
      <trkpt lat="48.85826" lon="2.27486">
        <ele>99.95</ele>
        <time>2020-03-13T21:13:14.000Z</time>
      </trkpt>
      <trkpt lat="48.85826" lon="2.27488">
        <ele>99.94</ele>
        <time>2020-03-13T21:13:15.000Z</time>
      </trkpt>
      <trkpt lat="48.85827" lon="2.2749">
        <ele>99.93</ele>
        <time>2020-03-13T21:13:16.000Z</time>
      </trkpt>
      <trkpt lat="48.85828" lon="2.27493">
        <ele>99.93</ele>
        <time>2020-03-13T21:13:17.000Z</time>
      </trkpt>
      <trkpt lat="48.85829" lon="2.27496">
        <ele>99.92</ele>
        <time>2020-03-13T21:13:18.000Z</time>
      </trkpt>
      <trkpt lat="48.85831" lon="2.27499">
        <ele>99.92</ele>
        <time>2020-03-13T21:13:19.000Z</time>
      </trkpt>
      <trkpt lat="48.85832" lon="2.27502">
        <ele>99.91</ele>
        <time>2020-03-13T21:13:20.000Z</time>
      </trkpt>
      <trkpt lat="48.85833" lon="2.27505">
        <ele>99.91</ele>
        <time>2020-03-13T21:13:21.000Z</time>
      </trkpt>
      <trkpt lat="48.85836" lon="2.27507">
        <ele>99.9</ele>
        <time>2020-03-13T21:13:22.000Z</time>
      </trkpt>
      <trkpt lat="48.85839" lon="2.27507">
        <ele>99.9</ele>
        <time>2020-03-13T21:13:23.000Z</time>
      </trkpt>
      <trkpt lat="48.85843" lon="2.27508">
        <ele>99.88</ele>
        <time>2020-03-13T21:13:24.000Z</time>
      </trkpt>
      <trkpt lat="48.85846" lon="2.27509">
        <ele>99.46</ele>
        <time>2020-03-13T21:13:25.000Z</time>
      </trkpt>
      <trkpt lat="48.8585" lon="2.2751">
        <ele>99.43</ele>
        <time>2020-03-13T21:13:26.000Z</time>
      </trkpt>
      <trkpt lat="48.85854" lon="2.27511">
        <ele>99.14</ele>
        <time>2020-03-13T21:13:27.000Z</time>
      </trkpt>
      <trkpt lat="48.85858" lon="2.27512">
        <ele>98.88</ele>
        <time>2020-03-13T21:13:28.000Z</time>
      </trkpt>
      <trkpt lat="48.85862" lon="2.27514">
        <ele>98.44</ele>
        <time>2020-03-13T21:13:29.000Z</time>
      </trkpt>
      <trkpt lat="48.85866" lon="2.27515">
        <ele>98.35</ele>
        <time>2020-03-13T21:13:30.000Z</time>
      </trkpt>
      <trkpt lat="48.85869" lon="2.27517">
        <ele>98.25</ele>
        <time>2020-03-13T21:13:31.000Z</time>
      </trkpt>
      <trkpt lat="48.85873" lon="2.27518">
        <ele>97.21</ele>
        <time>2020-03-13T21:13:32.000Z</time>
      </trkpt>
      <trkpt lat="48.85879" lon="2.2752">
        <ele>96.33</ele>
        <time>2020-03-13T21:13:33.000Z</time>
      </trkpt>
      <trkpt lat="48.85883" lon="2.27522">
        <ele>96.26</ele>
        <time>2020-03-13T21:13:34.000Z</time>
      </trkpt>
      <trkpt lat="48.85886" lon="2.27524">
        <ele>96.2</ele>
        <time>2020-03-13T21:13:35.000Z</time>
      </trkpt>
      <trkpt lat="48.85888" lon="2.27524">
        <ele>96.14</ele>
        <time>2020-03-13T21:13:36.000Z</time>
      </trkpt>
      <trkpt lat="48.85892" lon="2.27526">
        <ele>96.07</ele>
        <time>2020-03-13T21:13:37.000Z</time>
      </trkpt>
      <trkpt lat="48.85896" lon="2.27527">
        <ele>96.01</ele>
        <time>2020-03-13T21:13:38.000Z</time>
      </trkpt>
      <trkpt lat="48.85898" lon="2.27529">
        <ele>95.97</ele>
        <time>2020-03-13T21:13:39.000Z</time>
      </trkpt>
      <trkpt lat="48.85902" lon="2.2753">
        <ele>95.47</ele>
        <time>2020-03-13T21:13:40.000Z</time>
      </trkpt>
      <trkpt lat="48.85906" lon="2.27532">
        <ele>95.05</ele>
        <time>2020-03-13T21:13:41.000Z</time>
      </trkpt>
      <trkpt lat="48.85911" lon="2.27532">
        <ele>94.67</ele>
        <time>2020-03-13T21:13:42.000Z</time>
      </trkpt>
      <trkpt lat="48.85914" lon="2.27533">
        <ele>94.64</ele>
        <time>2020-03-13T21:13:43.000Z</time>
      </trkpt>
      <trkpt lat="48.85919" lon="2.27531">
        <ele>94.41</ele>
        <time>2020-03-13T21:13:44.000Z</time>
      </trkpt>
      <trkpt lat="48.85924" lon="2.27531">
        <ele>94.28</ele>
        <time>2020-03-13T21:13:45.000Z</time>
      </trkpt>
      <trkpt lat="48.85929" lon="2.27531">
        <ele>94.2</ele>
        <time>2020-03-13T21:13:46.000Z</time>
      </trkpt>
      <trkpt lat="48.85935" lon="2.2753">
        <ele>94.11</ele>
        <time>2020-03-13T21:13:47.000Z</time>
      </trkpt>
      <trkpt lat="48.85939" lon="2.27529">
        <ele>94.11</ele>
        <time>2020-03-13T21:13:48.000Z</time>
      </trkpt>
      <trkpt lat="48.85943" lon="2.27529">
        <ele>94.1</ele>
        <time>2020-03-13T21:13:49.000Z</time>
      </trkpt>
      <trkpt lat="48.85947" lon="2.2753">
        <ele>94.1</ele>
        <time>2020-03-13T21:13:50.000Z</time>
      </trkpt>
      <trkpt lat="48.8595" lon="2.27529">
        <ele>94.09</ele>
        <time>2020-03-13T21:13:51.000Z</time>
      </trkpt>
      <trkpt lat="48.85954" lon="2.27528">
        <ele>94.08</ele>
        <time>2020-03-13T21:13:52.000Z</time>
      </trkpt>
      <trkpt lat="48.85959" lon="2.27528">
        <ele>94.07</ele>
        <time>2020-03-13T21:13:53.000Z</time>
      </trkpt>
      <trkpt lat="48.85963" lon="2.27528">
        <ele>94.06</ele>
        <time>2020-03-13T21:13:54.000Z</time>
      </trkpt>
      <trkpt lat="48.85968" lon="2.27527">
        <ele>93.97</ele>
        <time>2020-03-13T21:13:55.000Z</time>
      </trkpt>
      <trkpt lat="48.85976" lon="2.27525">
        <ele>93.9</ele>
        <time>2020-03-13T21:13:56.000Z</time>
      </trkpt>
      <trkpt lat="48.85983" lon="2.27526">
        <ele>93.9</ele>
        <time>2020-03-13T21:13:57.000Z</time>
      </trkpt>
      <trkpt lat="48.85988" lon="2.27526">
        <ele>93.89</ele>
        <time>2020-03-13T21:13:58.000Z</time>
      </trkpt>
      <trkpt lat="48.85991" lon="2.27526">
        <ele>93.89</ele>
        <time>2020-03-13T21:13:59.000Z</time>
      </trkpt>
      <trkpt lat="48.85999" lon="2.2752">
        <ele>93.89</ele>
        <time>2020-03-13T21:14:00.000Z</time>
      </trkpt>
      <trkpt lat="48.86003" lon="2.27518">
        <ele>93.89</ele>
        <time>2020-03-13T21:14:01.000Z</time>
      </trkpt>
      <trkpt lat="48.86008" lon="2.27516">
        <ele>93.89</ele>
        <time>2020-03-13T21:14:02.000Z</time>
      </trkpt>
      <trkpt lat="48.86013" lon="2.27513">
        <ele>93.89</ele>
        <time>2020-03-13T21:14:03.000Z</time>
      </trkpt>
      <trkpt lat="48.8602" lon="2.27509">
        <ele>93.88</ele>
        <time>2020-03-13T21:14:04.000Z</time>
      </trkpt>
      <trkpt lat="48.86023" lon="2.27508">
        <ele>93.88</ele>
        <time>2020-03-13T21:14:05.000Z</time>
      </trkpt>
      <trkpt lat="48.86026" lon="2.2751">
        <ele>93.87</ele>
        <time>2020-03-13T21:14:06.000Z</time>
      </trkpt>
      <trkpt lat="48.86028" lon="2.27511">
        <ele>93.87</ele>
        <time>2020-03-13T21:14:07.000Z</time>
      </trkpt>
      <trkpt lat="48.86034" lon="2.27516">
        <ele>93.87</ele>
        <time>2020-03-13T21:14:08.000Z</time>
      </trkpt>
      <trkpt lat="48.86036" lon="2.27517">
        <ele>93.87</ele>
        <time>2020-03-13T21:14:09.000Z</time>
      </trkpt>
      <trkpt lat="48.8604" lon="2.27521">
        <ele>93.87</ele>
        <time>2020-03-13T21:14:10.000Z</time>
      </trkpt>
      <trkpt lat="48.86044" lon="2.27522">
        <ele>93.86</ele>
        <time>2020-03-13T21:14:11.000Z</time>
      </trkpt>
      <trkpt lat="48.86047" lon="2.27522">
        <ele>93.86</ele>
        <time>2020-03-13T21:14:12.000Z</time>
      </trkpt>
      <trkpt lat="48.8605" lon="2.27522">
        <ele>93.87</ele>
        <time>2020-03-13T21:14:13.000Z</time>
      </trkpt>
      <trkpt lat="48.86055" lon="2.27525">
        <ele>93.86</ele>
        <time>2020-03-13T21:14:14.000Z</time>
      </trkpt>
      <trkpt lat="48.86058" lon="2.27526">
        <ele>93.86</ele>
        <time>2020-03-13T21:14:15.000Z</time>
      </trkpt>
      <trkpt lat="48.86061" lon="2.27529">
        <ele>93.86</ele>
        <time>2020-03-13T21:14:16.000Z</time>
      </trkpt>
      <trkpt lat="48.86067" lon="2.27529">
        <ele>93.74</ele>
        <time>2020-03-13T21:14:17.000Z</time>
      </trkpt>
      <trkpt lat="48.86072" lon="2.2753">
        <ele>93.72</ele>
        <time>2020-03-13T21:14:18.000Z</time>
      </trkpt>
      <trkpt lat="48.86077" lon="2.27531">
        <ele>93.7</ele>
        <time>2020-03-13T21:14:19.000Z</time>
      </trkpt>
      <trkpt lat="48.86081" lon="2.27532">
        <ele>93.69</ele>
        <time>2020-03-13T21:14:20.000Z</time>
      </trkpt>
      <trkpt lat="48.86087" lon="2.27534">
        <ele>93.69</ele>
        <time>2020-03-13T21:14:21.000Z</time>
      </trkpt>
      <trkpt lat="48.8609" lon="2.27536">
        <ele>93.69</ele>
        <time>2020-03-13T21:14:22.000Z</time>
      </trkpt>
      <trkpt lat="48.86094" lon="2.27537">
        <ele>93.69</ele>
        <time>2020-03-13T21:14:23.000Z</time>
      </trkpt>
      <trkpt lat="48.86098" lon="2.27539">
        <ele>93.7</ele>
        <time>2020-03-13T21:14:24.000Z</time>
      </trkpt>
      <trkpt lat="48.86104" lon="2.27541">
        <ele>93.81</ele>
        <time>2020-03-13T21:14:25.000Z</time>
      </trkpt>
      <trkpt lat="48.86109" lon="2.27545">
        <ele>93.95</ele>
        <time>2020-03-13T21:14:26.000Z</time>
      </trkpt>
      <trkpt lat="48.86115" lon="2.27549">
        <ele>94.02</ele>
        <time>2020-03-13T21:14:27.000Z</time>
      </trkpt>
      <trkpt lat="48.86121" lon="2.27553">
        <ele>94.03</ele>
        <time>2020-03-13T21:14:28.000Z</time>
      </trkpt>
      <trkpt lat="48.86124" lon="2.27554">
        <ele>94.03</ele>
        <time>2020-03-13T21:14:29.000Z</time>
      </trkpt>
      <trkpt lat="48.86127" lon="2.27554">
        <ele>94.04</ele>
        <time>2020-03-13T21:14:30.000Z</time>
      </trkpt>
      <trkpt lat="48.86133" lon="2.2756">
        <ele>94.19</ele>
        <time>2020-03-13T21:14:31.000Z</time>
      </trkpt>
      <trkpt lat="48.8614" lon="2.27568">
        <ele>94.27</ele>
        <time>2020-03-13T21:14:32.000Z</time>
      </trkpt>
      <trkpt lat="48.86145" lon="2.27573">
        <ele>94.29</ele>
        <time>2020-03-13T21:14:33.000Z</time>
      </trkpt>
      <trkpt lat="48.8615" lon="2.27577">
        <ele>94.33</ele>
        <time>2020-03-13T21:14:34.000Z</time>
      </trkpt>
      <trkpt lat="48.86155" lon="2.2758">
        <ele>94.34</ele>
        <time>2020-03-13T21:14:35.000Z</time>
      </trkpt>
      <trkpt lat="48.86161" lon="2.27585">
        <ele>94.34</ele>
        <time>2020-03-13T21:14:36.000Z</time>
      </trkpt>
      <trkpt lat="48.8617" lon="2.27591">
        <ele>94.34</ele>
        <time>2020-03-13T21:14:37.000Z</time>
      </trkpt>
      <trkpt lat="48.86178" lon="2.27596">
        <ele>94.35</ele>
        <time>2020-03-13T21:14:38.000Z</time>
      </trkpt>
      <trkpt lat="48.86183" lon="2.27598">
        <ele>94.37</ele>
        <time>2020-03-13T21:14:39.000Z</time>
      </trkpt>
      <trkpt lat="48.8619" lon="2.276">
        <ele>94.38</ele>
        <time>2020-03-13T21:14:40.000Z</time>
      </trkpt>
      <trkpt lat="48.86193" lon="2.27601">
        <ele>94.45</ele>
        <time>2020-03-13T21:14:41.000Z</time>
      </trkpt>
      <trkpt lat="48.86197" lon="2.27603">
        <ele>94.51</ele>
        <time>2020-03-13T21:14:42.000Z</time>
      </trkpt>
      <trkpt lat="48.86201" lon="2.27605">
        <ele>94.51</ele>
        <time>2020-03-13T21:14:43.000Z</time>
      </trkpt>
      <trkpt lat="48.86205" lon="2.27605">
        <ele>94.51</ele>
        <time>2020-03-13T21:14:44.000Z</time>
      </trkpt>
      <trkpt lat="48.86211" lon="2.27608">
        <ele>94.49</ele>
        <time>2020-03-13T21:14:45.000Z</time>
      </trkpt>
      <trkpt lat="48.86216" lon="2.2761">
        <ele>94.47</ele>
        <time>2020-03-13T21:14:46.000Z</time>
      </trkpt>
      <trkpt lat="48.8622" lon="2.27612">
        <ele>94.47</ele>
        <time>2020-03-13T21:14:47.000Z</time>
      </trkpt>
      <trkpt lat="48.86224" lon="2.27615">
        <ele>94.48</ele>
        <time>2020-03-13T21:14:48.000Z</time>
      </trkpt>
      <trkpt lat="48.86227" lon="2.27618">
        <ele>94.52</ele>
        <time>2020-03-13T21:14:49.000Z</time>
      </trkpt>
      <trkpt lat="48.8623" lon="2.2762">
        <ele>94.58</ele>
        <time>2020-03-13T21:14:50.000Z</time>
      </trkpt>
      <trkpt lat="48.86234" lon="2.27622">
        <ele>94.67</ele>
        <time>2020-03-13T21:14:51.000Z</time>
      </trkpt>
      <trkpt lat="48.86237" lon="2.27623">
        <ele>94.74</ele>
        <time>2020-03-13T21:14:52.000Z</time>
      </trkpt>
      <trkpt lat="48.86242" lon="2.27626">
        <ele>94.83</ele>
        <time>2020-03-13T21:14:53.000Z</time>
      </trkpt>
      <trkpt lat="48.86248" lon="2.2763">
        <ele>94.92</ele>
        <time>2020-03-13T21:14:54.000Z</time>
      </trkpt>
      <trkpt lat="48.86253" lon="2.27632">
        <ele>95</ele>
        <time>2020-03-13T21:14:55.000Z</time>
      </trkpt>
      <trkpt lat="48.86256" lon="2.27635">
        <ele>95.01</ele>
        <time>2020-03-13T21:14:56.000Z</time>
      </trkpt>
      <trkpt lat="48.8626" lon="2.2764">
        <ele>95.09</ele>
        <time>2020-03-13T21:14:57.000Z</time>
      </trkpt>
      <trkpt lat="48.86262" lon="2.27643">
        <ele>95.15</ele>
        <time>2020-03-13T21:14:58.000Z</time>
      </trkpt>
      <trkpt lat="48.86266" lon="2.27646">
        <ele>95.2</ele>
        <time>2020-03-13T21:14:59.000Z</time>
      </trkpt>
      <trkpt lat="48.86272" lon="2.27648">
        <ele>95.24</ele>
        <time>2020-03-13T21:15:00.000Z</time>
      </trkpt>
      <trkpt lat="48.86278" lon="2.27649">
        <ele>95.28</ele>
        <time>2020-03-13T21:15:01.000Z</time>
      </trkpt>
      <trkpt lat="48.86284" lon="2.27651">
        <ele>95.29</ele>
        <time>2020-03-13T21:15:02.000Z</time>
      </trkpt>
      <trkpt lat="48.86289" lon="2.27652">
        <ele>95.3</ele>
        <time>2020-03-13T21:15:03.000Z</time>
      </trkpt>
      <trkpt lat="48.86294" lon="2.27655">
        <ele>95.3</ele>
        <time>2020-03-13T21:15:04.000Z</time>
      </trkpt>
      <trkpt lat="48.86299" lon="2.27657">
        <ele>95.31</ele>
        <time>2020-03-13T21:15:05.000Z</time>
      </trkpt>
      <trkpt lat="48.86306" lon="2.27661">
        <ele>95.32</ele>
        <time>2020-03-13T21:15:06.000Z</time>
      </trkpt>
      <trkpt lat="48.86311" lon="2.27666">
        <ele>95.33</ele>
        <time>2020-03-13T21:15:07.000Z</time>
      </trkpt>
      <trkpt lat="48.86316" lon="2.27669">
        <ele>95.45</ele>
        <time>2020-03-13T21:15:08.000Z</time>
      </trkpt>
      <trkpt lat="48.86319" lon="2.27673">
        <ele>95.55</ele>
        <time>2020-03-13T21:15:09.000Z</time>
      </trkpt>
      <trkpt lat="48.86323" lon="2.27677">
        <ele>95.62</ele>
        <time>2020-03-13T21:15:10.000Z</time>
      </trkpt>
      <trkpt lat="48.86328" lon="2.27682">
        <ele>95.66</ele>
        <time>2020-03-13T21:15:11.000Z</time>
      </trkpt>
      <trkpt lat="48.86334" lon="2.27686">
        <ele>95.68</ele>
        <time>2020-03-13T21:15:12.000Z</time>
      </trkpt>
      <trkpt lat="48.86338" lon="2.2769">
        <ele>95.71</ele>
        <time>2020-03-13T21:15:13.000Z</time>
      </trkpt>
      <trkpt lat="48.86344" lon="2.27696">
        <ele>95.73</ele>
        <time>2020-03-13T21:15:14.000Z</time>
      </trkpt>
      <trkpt lat="48.86349" lon="2.277">
        <ele>95.78</ele>
        <time>2020-03-13T21:15:15.000Z</time>
      </trkpt>
      <trkpt lat="48.86354" lon="2.27704">
        <ele>95.83</ele>
        <time>2020-03-13T21:15:16.000Z</time>
      </trkpt>
      <trkpt lat="48.86359" lon="2.27708">
        <ele>95.87</ele>
        <time>2020-03-13T21:15:17.000Z</time>
      </trkpt>
      <trkpt lat="48.86364" lon="2.27712">
        <ele>95.92</ele>
        <time>2020-03-13T21:15:18.000Z</time>
      </trkpt>
      <trkpt lat="48.86368" lon="2.27715">
        <ele>95.96</ele>
        <time>2020-03-13T21:15:19.000Z</time>
      </trkpt>
      <trkpt lat="48.86373" lon="2.2772">
        <ele>96.03</ele>
        <time>2020-03-13T21:15:20.000Z</time>
      </trkpt>
      <trkpt lat="48.86377" lon="2.27724">
        <ele>96.07</ele>
        <time>2020-03-13T21:15:21.000Z</time>
      </trkpt>
      <trkpt lat="48.8638" lon="2.27729">
        <ele>96.14</ele>
        <time>2020-03-13T21:15:22.000Z</time>
      </trkpt>
      <trkpt lat="48.86383" lon="2.27734">
        <ele>96.21</ele>
        <time>2020-03-13T21:15:23.000Z</time>
      </trkpt>
      <trkpt lat="48.86387" lon="2.2774">
        <ele>96.27</ele>
        <time>2020-03-13T21:15:24.000Z</time>
      </trkpt>
      <trkpt lat="48.86389" lon="2.27747">
        <ele>96.31</ele>
        <time>2020-03-13T21:15:25.000Z</time>
      </trkpt>
      <trkpt lat="48.86391" lon="2.27754">
        <ele>96.37</ele>
        <time>2020-03-13T21:15:26.000Z</time>
      </trkpt>
      <trkpt lat="48.86393" lon="2.27762">
        <ele>96.44</ele>
        <time>2020-03-13T21:15:27.000Z</time>
      </trkpt>
      <trkpt lat="48.86392" lon="2.27768">
        <ele>96.48</ele>
        <time>2020-03-13T21:15:28.000Z</time>
      </trkpt>
      <trkpt lat="48.86392" lon="2.27776">
        <ele>96.53</ele>
        <time>2020-03-13T21:15:29.000Z</time>
      </trkpt>
      <trkpt lat="48.86392" lon="2.27783">
        <ele>96.57</ele>
        <time>2020-03-13T21:15:30.000Z</time>
      </trkpt>
      <trkpt lat="48.86392" lon="2.2779">
        <ele>96.58</ele>
        <time>2020-03-13T21:15:31.000Z</time>
      </trkpt>
      <trkpt lat="48.86391" lon="2.27795">
        <ele>96.59</ele>
        <time>2020-03-13T21:15:32.000Z</time>
      </trkpt>
      <trkpt lat="48.86391" lon="2.27802">
        <ele>96.66</ele>
        <time>2020-03-13T21:15:33.000Z</time>
      </trkpt>
      <trkpt lat="48.8639" lon="2.27809">
        <ele>96.71</ele>
        <time>2020-03-13T21:15:34.000Z</time>
      </trkpt>
      <trkpt lat="48.86389" lon="2.27818">
        <ele>96.73</ele>
        <time>2020-03-13T21:15:35.000Z</time>
      </trkpt>
      <trkpt lat="48.86389" lon="2.27827">
        <ele>96.75</ele>
        <time>2020-03-13T21:15:36.000Z</time>
      </trkpt>
      <trkpt lat="48.86389" lon="2.27835">
        <ele>96.72</ele>
        <time>2020-03-13T21:15:37.000Z</time>
      </trkpt>
      <trkpt lat="48.86388" lon="2.27843">
        <ele>96.69</ele>
        <time>2020-03-13T21:15:38.000Z</time>
      </trkpt>
      <trkpt lat="48.86387" lon="2.27851">
        <ele>96.64</ele>
        <time>2020-03-13T21:15:39.000Z</time>
      </trkpt>
      <trkpt lat="48.86385" lon="2.27859">
        <ele>96.6</ele>
        <time>2020-03-13T21:15:40.000Z</time>
      </trkpt>
      <trkpt lat="48.86384" lon="2.27866">
        <ele>96.58</ele>
        <time>2020-03-13T21:15:41.000Z</time>
      </trkpt>
      <trkpt lat="48.86383" lon="2.27873">
        <ele>96.55</ele>
        <time>2020-03-13T21:15:42.000Z</time>
      </trkpt>
      <trkpt lat="48.86382" lon="2.2788">
        <ele>96.54</ele>
        <time>2020-03-13T21:15:43.000Z</time>
      </trkpt>
      <trkpt lat="48.86382" lon="2.27888">
        <ele>96.51</ele>
        <time>2020-03-13T21:15:44.000Z</time>
      </trkpt>
      <trkpt lat="48.86382" lon="2.27895">
        <ele>96.5</ele>
        <time>2020-03-13T21:15:45.000Z</time>
      </trkpt>
      <trkpt lat="48.86382" lon="2.27902">
        <ele>96.51</ele>
        <time>2020-03-13T21:15:46.000Z</time>
      </trkpt>
      <trkpt lat="48.86381" lon="2.2791">
        <ele>96.52</ele>
        <time>2020-03-13T21:15:47.000Z</time>
      </trkpt>
      <trkpt lat="48.86379" lon="2.27919">
        <ele>96.54</ele>
        <time>2020-03-13T21:15:48.000Z</time>
      </trkpt>
      <trkpt lat="48.86378" lon="2.27928">
        <ele>96.54</ele>
        <time>2020-03-13T21:15:49.000Z</time>
      </trkpt>
      <trkpt lat="48.86378" lon="2.27937">
        <ele>96.56</ele>
        <time>2020-03-13T21:15:50.000Z</time>
      </trkpt>
      <trkpt lat="48.86378" lon="2.27945">
        <ele>96.57</ele>
        <time>2020-03-13T21:15:51.000Z</time>
      </trkpt>
      <trkpt lat="48.86376" lon="2.27954">
        <ele>96.56</ele>
        <time>2020-03-13T21:15:52.000Z</time>
      </trkpt>
      <trkpt lat="48.86375" lon="2.27964">
        <ele>96.54</ele>
        <time>2020-03-13T21:15:53.000Z</time>
      </trkpt>
      <trkpt lat="48.86375" lon="2.27972">
        <ele>96.51</ele>
        <time>2020-03-13T21:15:54.000Z</time>
      </trkpt>
      <trkpt lat="48.86374" lon="2.27981">
        <ele>96.47</ele>
        <time>2020-03-13T21:15:55.000Z</time>
      </trkpt>
      <trkpt lat="48.86374" lon="2.27989">
        <ele>96.43</ele>
        <time>2020-03-13T21:15:56.000Z</time>
      </trkpt>
      <trkpt lat="48.86373" lon="2.27999">
        <ele>96.38</ele>
        <time>2020-03-13T21:15:57.000Z</time>
      </trkpt>
      <trkpt lat="48.86374" lon="2.28009">
        <ele>96.33</ele>
        <time>2020-03-13T21:15:58.000Z</time>
      </trkpt>
      <trkpt lat="48.86373" lon="2.28018">
        <ele>96.29</ele>
        <time>2020-03-13T21:15:59.000Z</time>
      </trkpt>
      <trkpt lat="48.86373" lon="2.28025">
        <ele>96.25</ele>
        <time>2020-03-13T21:16:00.000Z</time>
      </trkpt>
      <trkpt lat="48.86373" lon="2.28035">
        <ele>96.21</ele>
        <time>2020-03-13T21:16:01.000Z</time>
      </trkpt>
      <trkpt lat="48.86373" lon="2.28044">
        <ele>96.17</ele>
        <time>2020-03-13T21:16:02.000Z</time>
      </trkpt>
      <trkpt lat="48.86372" lon="2.28054">
        <ele>96.13</ele>
        <time>2020-03-13T21:16:03.000Z</time>
      </trkpt>
      <trkpt lat="48.86372" lon="2.28064">
        <ele>96.1</ele>
        <time>2020-03-13T21:16:04.000Z</time>
      </trkpt>
      <trkpt lat="48.86371" lon="2.28075">
        <ele>96.07</ele>
        <time>2020-03-13T21:16:05.000Z</time>
      </trkpt>
      <trkpt lat="48.8637" lon="2.28086">
        <ele>96.07</ele>
        <time>2020-03-13T21:16:06.000Z</time>
      </trkpt>
      <trkpt lat="48.86369" lon="2.28096">
        <ele>96.05</ele>
        <time>2020-03-13T21:16:07.000Z</time>
      </trkpt>
      <trkpt lat="48.86369" lon="2.28105">
        <ele>96.05</ele>
        <time>2020-03-13T21:16:08.000Z</time>
      </trkpt>
      <trkpt lat="48.86368" lon="2.28112">
        <ele>96.03</ele>
        <time>2020-03-13T21:16:09.000Z</time>
      </trkpt>
      <trkpt lat="48.86367" lon="2.28121">
        <ele>95.98</ele>
        <time>2020-03-13T21:16:10.000Z</time>
      </trkpt>
      <trkpt lat="48.86367" lon="2.2813">
        <ele>95.94</ele>
        <time>2020-03-13T21:16:11.000Z</time>
      </trkpt>
      <trkpt lat="48.86367" lon="2.28138">
        <ele>95.93</ele>
        <time>2020-03-13T21:16:12.000Z</time>
      </trkpt>
      <trkpt lat="48.86365" lon="2.28145">
        <ele>95.93</ele>
        <time>2020-03-13T21:16:13.000Z</time>
      </trkpt>
      <trkpt lat="48.86365" lon="2.2815">
        <ele>95.86</ele>
        <time>2020-03-13T21:16:14.000Z</time>
      </trkpt>
      <trkpt lat="48.86364" lon="2.28158">
        <ele>95.65</ele>
        <time>2020-03-13T21:16:15.000Z</time>
      </trkpt>
      <trkpt lat="48.86363" lon="2.28166">
        <ele>95.44</ele>
        <time>2020-03-13T21:16:16.000Z</time>
      </trkpt>
      <trkpt lat="48.86362" lon="2.28177">
        <ele>95.24</ele>
        <time>2020-03-13T21:16:17.000Z</time>
      </trkpt>
      <trkpt lat="48.86361" lon="2.28187">
        <ele>95</ele>
        <time>2020-03-13T21:16:18.000Z</time>
      </trkpt>
      <trkpt lat="48.86361" lon="2.28194">
        <ele>94.77</ele>
        <time>2020-03-13T21:16:19.000Z</time>
      </trkpt>
      <trkpt lat="48.8636" lon="2.28204">
        <ele>94.57</ele>
        <time>2020-03-13T21:16:20.000Z</time>
      </trkpt>
      <trkpt lat="48.8636" lon="2.28215">
        <ele>94.4</ele>
        <time>2020-03-13T21:16:21.000Z</time>
      </trkpt>
      <trkpt lat="48.86359" lon="2.28224">
        <ele>94.26</ele>
        <time>2020-03-13T21:16:22.000Z</time>
      </trkpt>
      <trkpt lat="48.86357" lon="2.28236">
        <ele>94.17</ele>
        <time>2020-03-13T21:16:23.000Z</time>
      </trkpt>
      <trkpt lat="48.86356" lon="2.28245">
        <ele>94.08</ele>
        <time>2020-03-13T21:16:24.000Z</time>
      </trkpt>
      <trkpt lat="48.86355" lon="2.28254">
        <ele>94.02</ele>
        <time>2020-03-13T21:16:25.000Z</time>
      </trkpt>
      <trkpt lat="48.86353" lon="2.28264">
        <ele>93.97</ele>
        <time>2020-03-13T21:16:26.000Z</time>
      </trkpt>
      <trkpt lat="48.86351" lon="2.28275">
        <ele>93.92</ele>
        <time>2020-03-13T21:16:27.000Z</time>
      </trkpt>
      <trkpt lat="48.86349" lon="2.28287">
        <ele>93.86</ele>
        <time>2020-03-13T21:16:28.000Z</time>
      </trkpt>
      <trkpt lat="48.86347" lon="2.28297">
        <ele>93.79</ele>
        <time>2020-03-13T21:16:29.000Z</time>
      </trkpt>
      <trkpt lat="48.86346" lon="2.28308">
        <ele>93.74</ele>
        <time>2020-03-13T21:16:30.000Z</time>
      </trkpt>
      <trkpt lat="48.86345" lon="2.28317">
        <ele>93.71</ele>
        <time>2020-03-13T21:16:31.000Z</time>
      </trkpt>
      <trkpt lat="48.86344" lon="2.28327">
        <ele>93.69</ele>
        <time>2020-03-13T21:16:32.000Z</time>
      </trkpt>
      <trkpt lat="48.86341" lon="2.28338">
        <ele>93.67</ele>
        <time>2020-03-13T21:16:33.000Z</time>
      </trkpt>
      <trkpt lat="48.86339" lon="2.28349">
        <ele>93.65</ele>
        <time>2020-03-13T21:16:34.000Z</time>
      </trkpt>
      <trkpt lat="48.86338" lon="2.28359">
        <ele>93.65</ele>
        <time>2020-03-13T21:16:35.000Z</time>
      </trkpt>
      <trkpt lat="48.86337" lon="2.2837">
        <ele>93.68</ele>
        <time>2020-03-13T21:16:36.000Z</time>
      </trkpt>
      <trkpt lat="48.86336" lon="2.28381">
        <ele>93.72</ele>
        <time>2020-03-13T21:16:37.000Z</time>
      </trkpt>
      <trkpt lat="48.86334" lon="2.28392">
        <ele>93.81</ele>
        <time>2020-03-13T21:16:38.000Z</time>
      </trkpt>
      <trkpt lat="48.86331" lon="2.28403">
        <ele>93.9</ele>
        <time>2020-03-13T21:16:39.000Z</time>
      </trkpt>
      <trkpt lat="48.8633" lon="2.28412">
        <ele>94.01</ele>
        <time>2020-03-13T21:16:40.000Z</time>
      </trkpt>
      <trkpt lat="48.86329" lon="2.28423">
        <ele>94.17</ele>
        <time>2020-03-13T21:16:41.000Z</time>
      </trkpt>
      <trkpt lat="48.86328" lon="2.28433">
        <ele>94.37</ele>
        <time>2020-03-13T21:16:42.000Z</time>
      </trkpt>
      <trkpt lat="48.86327" lon="2.28444">
        <ele>94.59</ele>
        <time>2020-03-13T21:16:43.000Z</time>
      </trkpt>
      <trkpt lat="48.86326" lon="2.28455">
        <ele>94.8</ele>
        <time>2020-03-13T21:16:44.000Z</time>
      </trkpt>
      <trkpt lat="48.86326" lon="2.28465">
        <ele>94.97</ele>
        <time>2020-03-13T21:16:45.000Z</time>
      </trkpt>
      <trkpt lat="48.86325" lon="2.28476">
        <ele>95.15</ele>
        <time>2020-03-13T21:16:46.000Z</time>
      </trkpt>
      <trkpt lat="48.86323" lon="2.28486">
        <ele>95.34</ele>
        <time>2020-03-13T21:16:47.000Z</time>
      </trkpt>
      <trkpt lat="48.86323" lon="2.28495">
        <ele>95.55</ele>
        <time>2020-03-13T21:16:48.000Z</time>
      </trkpt>
      <trkpt lat="48.86321" lon="2.28503">
        <ele>95.77</ele>
        <time>2020-03-13T21:16:49.000Z</time>
      </trkpt>
      <trkpt lat="48.8632" lon="2.28511">
        <ele>95.98</ele>
        <time>2020-03-13T21:16:50.000Z</time>
      </trkpt>
      <trkpt lat="48.86319" lon="2.28517">
        <ele>96.2</ele>
        <time>2020-03-13T21:16:51.000Z</time>
      </trkpt>
      <trkpt lat="48.86318" lon="2.28524">
        <ele>96.44</ele>
        <time>2020-03-13T21:16:52.000Z</time>
      </trkpt>
      <trkpt lat="48.86316" lon="2.28531">
        <ele>96.67</ele>
        <time>2020-03-13T21:16:53.000Z</time>
      </trkpt>
      <trkpt lat="48.86315" lon="2.28537">
        <ele>96.93</ele>
        <time>2020-03-13T21:16:54.000Z</time>
      </trkpt>
      <trkpt lat="48.86314" lon="2.28543">
        <ele>96.95</ele>
        <time>2020-03-13T21:16:55.000Z</time>
      </trkpt>
      <trkpt lat="48.86313" lon="2.28549">
        <ele>96.99</ele>
        <time>2020-03-13T21:16:56.000Z</time>
      </trkpt>
      <trkpt lat="48.86313" lon="2.28554">
        <ele>97.02</ele>
        <time>2020-03-13T21:16:57.000Z</time>
      </trkpt>
      <trkpt lat="48.86312" lon="2.28559">
        <ele>97.06</ele>
        <time>2020-03-13T21:16:58.000Z</time>
      </trkpt>
      <trkpt lat="48.86311" lon="2.28565">
        <ele>97.11</ele>
        <time>2020-03-13T21:16:59.000Z</time>
      </trkpt>
      <trkpt lat="48.86311" lon="2.2857">
        <ele>97.16</ele>
        <time>2020-03-13T21:17:00.000Z</time>
      </trkpt>
      <trkpt lat="48.8631" lon="2.28575">
        <ele>97.72</ele>
        <time>2020-03-13T21:17:01.000Z</time>
      </trkpt>
      <trkpt lat="48.86309" lon="2.28581">
        <ele>97.77</ele>
        <time>2020-03-13T21:17:02.000Z</time>
      </trkpt>
      <trkpt lat="48.86307" lon="2.28586">
        <ele>97.83</ele>
        <time>2020-03-13T21:17:03.000Z</time>
      </trkpt>
      <trkpt lat="48.86306" lon="2.2859">
        <ele>97.9</ele>
        <time>2020-03-13T21:17:04.000Z</time>
      </trkpt>
      <trkpt lat="48.86303" lon="2.28596">
        <ele>97.99</ele>
        <time>2020-03-13T21:17:05.000Z</time>
      </trkpt>
      <trkpt lat="48.863" lon="2.28601">
        <ele>98.08</ele>
        <time>2020-03-13T21:17:06.000Z</time>
      </trkpt>
      <trkpt lat="48.86297" lon="2.28603">
        <ele>98.18</ele>
        <time>2020-03-13T21:17:07.000Z</time>
      </trkpt>
      <trkpt lat="48.86295" lon="2.28605">
        <ele>98.29</ele>
        <time>2020-03-13T21:17:08.000Z</time>
      </trkpt>
      <trkpt lat="48.86294" lon="2.28607">
        <ele>98.4</ele>
        <time>2020-03-13T21:17:09.000Z</time>
      </trkpt>
      <trkpt lat="48.86293" lon="2.28609">
        <ele>98.52</ele>
        <time>2020-03-13T21:17:10.000Z</time>
      </trkpt>
      <trkpt lat="48.86292" lon="2.2861">
        <ele>98.65</ele>
        <time>2020-03-13T21:17:11.000Z</time>
      </trkpt>
      <trkpt lat="48.86291" lon="2.28612">
        <ele>98.79</ele>
        <time>2020-03-13T21:17:12.000Z</time>
      </trkpt>
      <trkpt lat="48.8629" lon="2.28613">
        <ele>98.93</ele>
        <time>2020-03-13T21:17:13.000Z</time>
      </trkpt>
      <trkpt lat="48.86288" lon="2.28621">
        <ele>99.76</ele>
        <time>2020-03-13T21:17:36.000Z</time>
      </trkpt>
      <trkpt lat="48.86286" lon="2.28627">
        <ele>99.96</ele>
        <time>2020-03-13T21:17:48.000Z</time>
      </trkpt>
      <trkpt lat="48.86286" lon="2.28628">
        <ele>100.66</ele>
        <time>2020-03-13T21:17:55.000Z</time>
      </trkpt>
      <trkpt lat="48.86286" lon="2.2863">
        <ele>101.1</ele>
        <time>2020-03-13T21:18:13.000Z</time>
      </trkpt>
      <trkpt lat="48.86285" lon="2.28631">
        <ele>101.42</ele>
        <time>2020-03-13T21:18:15.000Z</time>
      </trkpt>
      <trkpt lat="48.86284" lon="2.28632">
        <ele>101.58</ele>
        <time>2020-03-13T21:18:16.000Z</time>
      </trkpt>
      <trkpt lat="48.86282" lon="2.28633">
        <ele>101.73</ele>
        <time>2020-03-13T21:18:17.000Z</time>
      </trkpt>
      <trkpt lat="48.8628" lon="2.28634">
        <ele>101.87</ele>
        <time>2020-03-13T21:18:18.000Z</time>
      </trkpt>
      <trkpt lat="48.86278" lon="2.28635">
        <ele>102.02</ele>
        <time>2020-03-13T21:18:19.000Z</time>
      </trkpt>
      <trkpt lat="48.86276" lon="2.28636">
        <ele>102.16</ele>
        <time>2020-03-13T21:18:20.000Z</time>
      </trkpt>
      <trkpt lat="48.86274" lon="2.28638">
        <ele>102.29</ele>
        <time>2020-03-13T21:18:21.000Z</time>
      </trkpt>
      <trkpt lat="48.86272" lon="2.28639">
        <ele>102.43</ele>
        <time>2020-03-13T21:18:22.000Z</time>
      </trkpt>
      <trkpt lat="48.8627" lon="2.28641">
        <ele>102.56</ele>
        <time>2020-03-13T21:18:23.000Z</time>
      </trkpt>
      <trkpt lat="48.86268" lon="2.28643">
        <ele>102.69</ele>
        <time>2020-03-13T21:18:24.000Z</time>
      </trkpt>
      <trkpt lat="48.86266" lon="2.28645">
        <ele>102.82</ele>
        <time>2020-03-13T21:18:25.000Z</time>
      </trkpt>
      <trkpt lat="48.86263" lon="2.28648">
        <ele>102.94</ele>
        <time>2020-03-13T21:18:26.000Z</time>
      </trkpt>
      <trkpt lat="48.86261" lon="2.2865">
        <ele>103.07</ele>
        <time>2020-03-13T21:18:27.000Z</time>
      </trkpt>
      <trkpt lat="48.8626" lon="2.28652">
        <ele>103.19</ele>
        <time>2020-03-13T21:18:28.000Z</time>
      </trkpt>
      <trkpt lat="48.86257" lon="2.28654">
        <ele>103.3</ele>
        <time>2020-03-13T21:18:29.000Z</time>
      </trkpt>
      <trkpt lat="48.86255" lon="2.28656">
        <ele>103.42</ele>
        <time>2020-03-13T21:18:30.000Z</time>
      </trkpt>
      <trkpt lat="48.86254" lon="2.28658">
        <ele>103.53</ele>
        <time>2020-03-13T21:18:31.000Z</time>
      </trkpt>
      <trkpt lat="48.86252" lon="2.28661">
        <ele>103.65</ele>
        <time>2020-03-13T21:18:32.000Z</time>
      </trkpt>
      <trkpt lat="48.86251" lon="2.28664">
        <ele>103.76</ele>
        <time>2020-03-13T21:18:33.000Z</time>
      </trkpt>
      <trkpt lat="48.8625" lon="2.28666">
        <ele>103.86</ele>
        <time>2020-03-13T21:18:34.000Z</time>
      </trkpt>
      <trkpt lat="48.86248" lon="2.28668">
        <ele>103.97</ele>
        <time>2020-03-13T21:18:35.000Z</time>
      </trkpt>
      <trkpt lat="48.86247" lon="2.2867">
        <ele>104.07</ele>
        <time>2020-03-13T21:18:36.000Z</time>
      </trkpt>
      <trkpt lat="48.86246" lon="2.28671">
        <ele>104.17</ele>
        <time>2020-03-13T21:18:37.000Z</time>
      </trkpt>
      <trkpt lat="48.86245" lon="2.28672">
        <ele>104.27</ele>
        <time>2020-03-13T21:18:38.000Z</time>
      </trkpt>
      <trkpt lat="48.86244" lon="2.28672">
        <ele>104.36</ele>
        <time>2020-03-13T21:18:39.000Z</time>
      </trkpt>
      <trkpt lat="48.86242" lon="2.28672">
        <ele>104.55</ele>
        <time>2020-03-13T21:18:41.000Z</time>
      </trkpt>
      <trkpt lat="48.86241" lon="2.28674">
        <ele>104.72</ele>
        <time>2020-03-13T21:18:43.000Z</time>
      </trkpt>
      <trkpt lat="48.8624" lon="2.28675">
        <ele>104.81</ele>
        <time>2020-03-13T21:18:44.000Z</time>
      </trkpt>
      <trkpt lat="48.8624" lon="2.28678">
        <ele>104.9</ele>
        <time>2020-03-13T21:18:45.000Z</time>
      </trkpt>
      <trkpt lat="48.8624" lon="2.28681">
        <ele>104.98</ele>
        <time>2020-03-13T21:18:46.000Z</time>
      </trkpt>
      <trkpt lat="48.86241" lon="2.28685">
        <ele>105.06</ele>
        <time>2020-03-13T21:18:47.000Z</time>
      </trkpt>
      <trkpt lat="48.8624" lon="2.28688">
        <ele>105.14</ele>
        <time>2020-03-13T21:18:48.000Z</time>
      </trkpt>
      <trkpt lat="48.86239" lon="2.28692">
        <ele>105.22</ele>
        <time>2020-03-13T21:18:49.000Z</time>
      </trkpt>
      <trkpt lat="48.86239" lon="2.28697">
        <ele>105.3</ele>
        <time>2020-03-13T21:18:50.000Z</time>
      </trkpt>
      <trkpt lat="48.86239" lon="2.28701">
        <ele>105.38</ele>
        <time>2020-03-13T21:18:51.000Z</time>
      </trkpt>
      <trkpt lat="48.86241" lon="2.28705">
        <ele>105.46</ele>
        <time>2020-03-13T21:18:52.000Z</time>
      </trkpt>
      <trkpt lat="48.86243" lon="2.28708">
        <ele>105.53</ele>
        <time>2020-03-13T21:18:53.000Z</time>
      </trkpt>
      <trkpt lat="48.86246" lon="2.2871">
        <ele>105.61</ele>
        <time>2020-03-13T21:18:54.000Z</time>
      </trkpt>
      <trkpt lat="48.86248" lon="2.28713">
        <ele>105.68</ele>
        <time>2020-03-13T21:18:55.000Z</time>
      </trkpt>
      <trkpt lat="48.86251" lon="2.28715">
        <ele>105.75</ele>
        <time>2020-03-13T21:18:56.000Z</time>
      </trkpt>
      <trkpt lat="48.86253" lon="2.28718">
        <ele>105.82</ele>
        <time>2020-03-13T21:18:57.000Z</time>
      </trkpt>
      <trkpt lat="48.86256" lon="2.28721">
        <ele>105.89</ele>
        <time>2020-03-13T21:18:58.000Z</time>
      </trkpt>
      <trkpt lat="48.86258" lon="2.28724">
        <ele>105.96</ele>
        <time>2020-03-13T21:18:59.000Z</time>
      </trkpt>
      <trkpt lat="48.86261" lon="2.28727">
        <ele>106.03</ele>
        <time>2020-03-13T21:19:00.000Z</time>
      </trkpt>
      <trkpt lat="48.86263" lon="2.2873">
        <ele>106.09</ele>
        <time>2020-03-13T21:19:01.000Z</time>
      </trkpt>
      <trkpt lat="48.86265" lon="2.28733">
        <ele>106.16</ele>
        <time>2020-03-13T21:19:02.000Z</time>
      </trkpt>
      <trkpt lat="48.86267" lon="2.28736">
        <ele>106.22</ele>
        <time>2020-03-13T21:19:03.000Z</time>
      </trkpt>
      <trkpt lat="48.86269" lon="2.2874">
        <ele>106.28</ele>
        <time>2020-03-13T21:19:04.000Z</time>
      </trkpt>
      <trkpt lat="48.86271" lon="2.28743">
        <ele>106.34</ele>
        <time>2020-03-13T21:19:05.000Z</time>
      </trkpt>
      <trkpt lat="48.86273" lon="2.28745">
        <ele>106.4</ele>
        <time>2020-03-13T21:19:06.000Z</time>
      </trkpt>
      <trkpt lat="48.86275" lon="2.28748">
        <ele>106.45</ele>
        <time>2020-03-13T21:19:07.000Z</time>
      </trkpt>
      <trkpt lat="48.86277" lon="2.28752">
        <ele>106.51</ele>
        <time>2020-03-13T21:19:08.000Z</time>
      </trkpt>
      <trkpt lat="48.86279" lon="2.28755">
        <ele>106.56</ele>
        <time>2020-03-13T21:19:09.000Z</time>
      </trkpt>
      <trkpt lat="48.86281" lon="2.28758">
        <ele>106.61</ele>
        <time>2020-03-13T21:19:10.000Z</time>
      </trkpt>
      <trkpt lat="48.86283" lon="2.28761">
        <ele>106.67</ele>
        <time>2020-03-13T21:19:11.000Z</time>
      </trkpt>
      <trkpt lat="48.86285" lon="2.28765">
        <ele>106.72</ele>
        <time>2020-03-13T21:19:12.000Z</time>
      </trkpt>
      <trkpt lat="48.86287" lon="2.28768">
        <ele>106.77</ele>
        <time>2020-03-13T21:19:13.000Z</time>
      </trkpt>
      <trkpt lat="48.86289" lon="2.28771">
        <ele>106.83</ele>
        <time>2020-03-13T21:19:14.000Z</time>
      </trkpt>
      <trkpt lat="48.8629" lon="2.28774">
        <ele>106.88</ele>
        <time>2020-03-13T21:19:15.000Z</time>
      </trkpt>
      <trkpt lat="48.86292" lon="2.28778">
        <ele>106.93</ele>
        <time>2020-03-13T21:19:16.000Z</time>
      </trkpt>
      <trkpt lat="48.86293" lon="2.28781">
        <ele>106.99</ele>
        <time>2020-03-13T21:19:17.000Z</time>
      </trkpt>
      <trkpt lat="48.86295" lon="2.28785">
        <ele>107.04</ele>
        <time>2020-03-13T21:19:18.000Z</time>
      </trkpt>
      <trkpt lat="48.86297" lon="2.28789">
        <ele>107.09</ele>
        <time>2020-03-13T21:19:19.000Z</time>
      </trkpt>
      <trkpt lat="48.86298" lon="2.28793">
        <ele>107.14</ele>
        <time>2020-03-13T21:19:20.000Z</time>
      </trkpt>
      <trkpt lat="48.863" lon="2.28797">
        <ele>107.19</ele>
        <time>2020-03-13T21:19:21.000Z</time>
      </trkpt>
      <trkpt lat="48.86301" lon="2.28801">
        <ele>107.24</ele>
        <time>2020-03-13T21:19:22.000Z</time>
      </trkpt>
      <trkpt lat="48.86302" lon="2.28805">
        <ele>107.28</ele>
        <time>2020-03-13T21:19:23.000Z</time>
      </trkpt>
      <trkpt lat="48.86303" lon="2.28809">
        <ele>107.33</ele>
        <time>2020-03-13T21:19:24.000Z</time>
      </trkpt>
      <trkpt lat="48.86304" lon="2.28812">
        <ele>107.38</ele>
        <time>2020-03-13T21:19:25.000Z</time>
      </trkpt>
      <trkpt lat="48.86306" lon="2.28815">
        <ele>107.42</ele>
        <time>2020-03-13T21:19:26.000Z</time>
      </trkpt>
      <trkpt lat="48.86307" lon="2.28817">
        <ele>107.47</ele>
        <time>2020-03-13T21:19:27.000Z</time>
      </trkpt>
      <trkpt lat="48.86307" lon="2.2882">
        <ele>107.51</ele>
        <time>2020-03-13T21:19:28.000Z</time>
      </trkpt>
      <trkpt lat="48.86308" lon="2.28822">
        <ele>107.56</ele>
        <time>2020-03-13T21:19:29.000Z</time>
      </trkpt>
      <trkpt lat="48.86309" lon="2.28824">
        <ele>107.6</ele>
        <time>2020-03-13T21:19:30.000Z</time>
      </trkpt>
      <trkpt lat="48.8631" lon="2.28826">
        <ele>107.65</ele>
        <time>2020-03-13T21:19:31.000Z</time>
      </trkpt>
      <trkpt lat="48.8631" lon="2.28827">
        <ele>107.69</ele>
        <time>2020-03-13T21:19:32.000Z</time>
      </trkpt>
      <trkpt lat="48.86311" lon="2.28829">
        <ele>107.74</ele>
        <time>2020-03-13T21:19:33.000Z</time>
      </trkpt>
      <trkpt lat="48.86312" lon="2.2883">
        <ele>107.83</ele>
        <time>2020-03-13T21:19:35.000Z</time>
      </trkpt>
      <trkpt lat="48.86312" lon="2.28832">
        <ele>108.08</ele>
        <time>2020-03-13T21:19:46.000Z</time>
      </trkpt>
      <trkpt lat="48.86313" lon="2.28833">
        <ele>108.15</ele>
        <time>2020-03-13T21:19:47.000Z</time>
      </trkpt>
      <trkpt lat="48.86313" lon="2.28834">
        <ele>108.22</ele>
        <time>2020-03-13T21:19:48.000Z</time>
      </trkpt>
      <trkpt lat="48.86314" lon="2.28836">
        <ele>108.3</ele>
        <time>2020-03-13T21:19:49.000Z</time>
      </trkpt>
      <trkpt lat="48.86315" lon="2.28838">
        <ele>108.37</ele>
        <time>2020-03-13T21:19:50.000Z</time>
      </trkpt>
      <trkpt lat="48.86316" lon="2.28841">
        <ele>108.44</ele>
        <time>2020-03-13T21:19:51.000Z</time>
      </trkpt>
      <trkpt lat="48.86317" lon="2.28843">
        <ele>108.51</ele>
        <time>2020-03-13T21:19:52.000Z</time>
      </trkpt>
      <trkpt lat="48.86319" lon="2.28845">
        <ele>108.57</ele>
        <time>2020-03-13T21:19:53.000Z</time>
      </trkpt>
      <trkpt lat="48.8632" lon="2.28848">
        <ele>108.64</ele>
        <time>2020-03-13T21:19:54.000Z</time>
      </trkpt>
      <trkpt lat="48.86321" lon="2.28852">
        <ele>108.71</ele>
        <time>2020-03-13T21:19:55.000Z</time>
      </trkpt>
      <trkpt lat="48.86322" lon="2.28856">
        <ele>108.77</ele>
        <time>2020-03-13T21:19:56.000Z</time>
      </trkpt>
      <trkpt lat="48.86323" lon="2.28859">
        <ele>108.83</ele>
        <time>2020-03-13T21:19:57.000Z</time>
      </trkpt>
      <trkpt lat="48.86324" lon="2.28864">
        <ele>108.89</ele>
        <time>2020-03-13T21:19:58.000Z</time>
      </trkpt>
      <trkpt lat="48.86326" lon="2.28869">
        <ele>108.95</ele>
        <time>2020-03-13T21:19:59.000Z</time>
      </trkpt>
      <trkpt lat="48.86327" lon="2.28874">
        <ele>109.01</ele>
        <time>2020-03-13T21:20:00.000Z</time>
      </trkpt>
      <trkpt lat="48.86328" lon="2.28879">
        <ele>109.06</ele>
        <time>2020-03-13T21:20:01.000Z</time>
      </trkpt>
      <trkpt lat="48.86329" lon="2.28884">
        <ele>109.12</ele>
        <time>2020-03-13T21:20:02.000Z</time>
      </trkpt>
      <trkpt lat="48.8633" lon="2.2889">
        <ele>109.65</ele>
        <time>2020-03-13T21:20:03.000Z</time>
      </trkpt>
      <trkpt lat="48.86331" lon="2.28898">
        <ele>110.07</ele>
        <time>2020-03-13T21:20:04.000Z</time>
      </trkpt>
      <trkpt lat="48.86331" lon="2.28906">
        <ele>110.41</ele>
        <time>2020-03-13T21:20:05.000Z</time>
      </trkpt>
      <trkpt lat="48.86332" lon="2.28916">
        <ele>110.66</ele>
        <time>2020-03-13T21:20:06.000Z</time>
      </trkpt>
      <trkpt lat="48.86334" lon="2.28922">
        <ele>110.86</ele>
        <time>2020-03-13T21:20:07.000Z</time>
      </trkpt>
      <trkpt lat="48.86335" lon="2.28929">
        <ele>111.02</ele>
        <time>2020-03-13T21:20:08.000Z</time>
      </trkpt>
      <trkpt lat="48.86336" lon="2.28936">
        <ele>111.14</ele>
        <time>2020-03-13T21:20:09.000Z</time>
      </trkpt>
      <trkpt lat="48.86338" lon="2.28943">
        <ele>111.23</ele>
        <time>2020-03-13T21:20:10.000Z</time>
      </trkpt>
      <trkpt lat="48.86338" lon="2.28952">
        <ele>111.31</ele>
        <time>2020-03-13T21:20:11.000Z</time>
      </trkpt>
      <trkpt lat="48.86339" lon="2.28959">
        <ele>111.35</ele>
        <time>2020-03-13T21:20:12.000Z</time>
      </trkpt>
      <trkpt lat="48.86339" lon="2.28969">
        <ele>111.38</ele>
        <time>2020-03-13T21:20:13.000Z</time>
      </trkpt>
      <trkpt lat="48.86341" lon="2.28977">
        <ele>111.41</ele>
        <time>2020-03-13T21:20:14.000Z</time>
      </trkpt>
      <trkpt lat="48.86343" lon="2.28985">
        <ele>111.42</ele>
        <time>2020-03-13T21:20:15.000Z</time>
      </trkpt>
      <trkpt lat="48.86346" lon="2.28994">
        <ele>111.43</ele>
        <time>2020-03-13T21:20:16.000Z</time>
      </trkpt>
      <trkpt lat="48.86347" lon="2.29004">
        <ele>111.44</ele>
        <time>2020-03-13T21:20:17.000Z</time>
      </trkpt>
      <trkpt lat="48.8635" lon="2.29012">
        <ele>111.44</ele>
        <time>2020-03-13T21:20:18.000Z</time>
      </trkpt>
      <trkpt lat="48.86352" lon="2.29021">
        <ele>111.44</ele>
        <time>2020-03-13T21:20:19.000Z</time>
      </trkpt>
      <trkpt lat="48.86353" lon="2.29031">
        <ele>111.41</ele>
        <time>2020-03-13T21:20:20.000Z</time>
      </trkpt>
      <trkpt lat="48.86356" lon="2.29041">
        <ele>111.39</ele>
        <time>2020-03-13T21:20:21.000Z</time>
      </trkpt>
      <trkpt lat="48.86358" lon="2.29051">
        <ele>111.37</ele>
        <time>2020-03-13T21:20:22.000Z</time>
      </trkpt>
      <trkpt lat="48.86361" lon="2.29061">
        <ele>111.34</ele>
        <time>2020-03-13T21:20:23.000Z</time>
      </trkpt>
      <trkpt lat="48.86364" lon="2.2907">
        <ele>111.3</ele>
        <time>2020-03-13T21:20:24.000Z</time>
      </trkpt>
      <trkpt lat="48.86367" lon="2.29078">
        <ele>111.25</ele>
        <time>2020-03-13T21:20:25.000Z</time>
      </trkpt>
      <trkpt lat="48.86369" lon="2.29087">
        <ele>111.21</ele>
        <time>2020-03-13T21:20:26.000Z</time>
      </trkpt>
      <trkpt lat="48.86371" lon="2.29097">
        <ele>111.18</ele>
        <time>2020-03-13T21:20:27.000Z</time>
      </trkpt>
      <trkpt lat="48.86373" lon="2.29106">
        <ele>111.15</ele>
        <time>2020-03-13T21:20:28.000Z</time>
      </trkpt>
      <trkpt lat="48.86375" lon="2.29116">
        <ele>111.13</ele>
        <time>2020-03-13T21:20:29.000Z</time>
      </trkpt>
      <trkpt lat="48.86378" lon="2.29125">
        <ele>111.09</ele>
        <time>2020-03-13T21:20:30.000Z</time>
      </trkpt>
      <trkpt lat="48.86381" lon="2.29135">
        <ele>111.06</ele>
        <time>2020-03-13T21:20:31.000Z</time>
      </trkpt>
      <trkpt lat="48.86383" lon="2.29144">
        <ele>111.02</ele>
        <time>2020-03-13T21:20:32.000Z</time>
      </trkpt>
      <trkpt lat="48.86385" lon="2.29154">
        <ele>110.99</ele>
        <time>2020-03-13T21:20:33.000Z</time>
      </trkpt>
      <trkpt lat="48.86388" lon="2.29163">
        <ele>110.97</ele>
        <time>2020-03-13T21:20:34.000Z</time>
      </trkpt>
      <trkpt lat="48.8639" lon="2.29173">
        <ele>110.97</ele>
        <time>2020-03-13T21:20:35.000Z</time>
      </trkpt>
      <trkpt lat="48.86392" lon="2.29182">
        <ele>110.97</ele>
        <time>2020-03-13T21:20:36.000Z</time>
      </trkpt>
      <trkpt lat="48.86394" lon="2.29192">
        <ele>110.98</ele>
        <time>2020-03-13T21:20:37.000Z</time>
      </trkpt>
      <trkpt lat="48.86396" lon="2.29201">
        <ele>110.95</ele>
        <time>2020-03-13T21:20:38.000Z</time>
      </trkpt>
      <trkpt lat="48.86399" lon="2.29211">
        <ele>110.94</ele>
        <time>2020-03-13T21:20:39.000Z</time>
      </trkpt>
      <trkpt lat="48.86402" lon="2.2922">
        <ele>110.89</ele>
        <time>2020-03-13T21:20:40.000Z</time>
      </trkpt>
      <trkpt lat="48.86404" lon="2.2923">
        <ele>110.85</ele>
        <time>2020-03-13T21:20:41.000Z</time>
      </trkpt>
      <trkpt lat="48.86407" lon="2.29239">
        <ele>110.8</ele>
        <time>2020-03-13T21:20:42.000Z</time>
      </trkpt>
      <trkpt lat="48.86409" lon="2.29248">
        <ele>110.75</ele>
        <time>2020-03-13T21:20:43.000Z</time>
      </trkpt>
      <trkpt lat="48.86412" lon="2.29258">
        <ele>110.44</ele>
        <time>2020-03-13T21:20:44.000Z</time>
      </trkpt>
      <trkpt lat="48.86415" lon="2.29267">
        <ele>110.02</ele>
        <time>2020-03-13T21:20:45.000Z</time>
      </trkpt>
      <trkpt lat="48.86417" lon="2.29277">
        <ele>109.76</ele>
        <time>2020-03-13T21:20:46.000Z</time>
      </trkpt>
      <trkpt lat="48.8642" lon="2.29286">
        <ele>109.67</ele>
        <time>2020-03-13T21:20:47.000Z</time>
      </trkpt>
      <trkpt lat="48.86422" lon="2.29296">
        <ele>109.45</ele>
        <time>2020-03-13T21:20:48.000Z</time>
      </trkpt>
      <trkpt lat="48.86424" lon="2.29306">
        <ele>109.2</ele>
        <time>2020-03-13T21:20:49.000Z</time>
      </trkpt>
      <trkpt lat="48.86427" lon="2.29316">
        <ele>109.04</ele>
        <time>2020-03-13T21:20:50.000Z</time>
      </trkpt>
      <trkpt lat="48.86428" lon="2.29325">
        <ele>108.71</ele>
        <time>2020-03-13T21:20:51.000Z</time>
      </trkpt>
      <trkpt lat="48.86431" lon="2.29335">
        <ele>108.44</ele>
        <time>2020-03-13T21:20:52.000Z</time>
      </trkpt>
      <trkpt lat="48.86433" lon="2.29344">
        <ele>108.17</ele>
        <time>2020-03-13T21:20:53.000Z</time>
      </trkpt>
      <trkpt lat="48.86434" lon="2.29353">
        <ele>108</ele>
        <time>2020-03-13T21:20:54.000Z</time>
      </trkpt>
      <trkpt lat="48.86436" lon="2.29361">
        <ele>107.94</ele>
        <time>2020-03-13T21:20:55.000Z</time>
      </trkpt>
      <trkpt lat="48.86438" lon="2.2937">
        <ele>107.9</ele>
        <time>2020-03-13T21:20:56.000Z</time>
      </trkpt>
      <trkpt lat="48.86439" lon="2.29379">
        <ele>107.99</ele>
        <time>2020-03-13T21:20:57.000Z</time>
      </trkpt>
      <trkpt lat="48.86441" lon="2.29388">
        <ele>108.14</ele>
        <time>2020-03-13T21:20:58.000Z</time>
      </trkpt>
      <trkpt lat="48.86443" lon="2.29397">
        <ele>108.29</ele>
        <time>2020-03-13T21:20:59.000Z</time>
      </trkpt>
      <trkpt lat="48.86445" lon="2.29406">
        <ele>108.39</ele>
        <time>2020-03-13T21:21:00.000Z</time>
      </trkpt>
      <trkpt lat="48.86446" lon="2.29415">
        <ele>108.38</ele>
        <time>2020-03-13T21:21:01.000Z</time>
      </trkpt>
      <trkpt lat="48.86448" lon="2.29423">
        <ele>108.45</ele>
        <time>2020-03-13T21:21:02.000Z</time>
      </trkpt>
      <trkpt lat="48.86449" lon="2.29431">
        <ele>108.42</ele>
        <time>2020-03-13T21:21:03.000Z</time>
      </trkpt>
      <trkpt lat="48.8645" lon="2.29439">
        <ele>108.45</ele>
        <time>2020-03-13T21:21:04.000Z</time>
      </trkpt>
      <trkpt lat="48.86452" lon="2.29448">
        <ele>108.48</ele>
        <time>2020-03-13T21:21:05.000Z</time>
      </trkpt>
      <trkpt lat="48.86454" lon="2.29455">
        <ele>108.46</ele>
        <time>2020-03-13T21:21:06.000Z</time>
      </trkpt>
      <trkpt lat="48.86455" lon="2.29462">
        <ele>108.33</ele>
        <time>2020-03-13T21:21:07.000Z</time>
      </trkpt>
      <trkpt lat="48.86455" lon="2.2947">
        <ele>108.18</ele>
        <time>2020-03-13T21:21:08.000Z</time>
      </trkpt>
      <trkpt lat="48.86456" lon="2.29477">
        <ele>108.01</ele>
        <time>2020-03-13T21:21:09.000Z</time>
      </trkpt>
      <trkpt lat="48.86456" lon="2.29483">
        <ele>107.82</ele>
        <time>2020-03-13T21:21:10.000Z</time>
      </trkpt>
      <trkpt lat="48.86457" lon="2.29491">
        <ele>107.58</ele>
        <time>2020-03-13T21:21:11.000Z</time>
      </trkpt>
      <trkpt lat="48.86457" lon="2.29499">
        <ele>107.33</ele>
        <time>2020-03-13T21:21:12.000Z</time>
      </trkpt>
      <trkpt lat="48.86458" lon="2.29507">
        <ele>107.01</ele>
        <time>2020-03-13T21:21:13.000Z</time>
      </trkpt>
      <trkpt lat="48.86458" lon="2.29515">
        <ele>106.78</ele>
        <time>2020-03-13T21:21:14.000Z</time>
      </trkpt>
      <trkpt lat="48.86459" lon="2.29522">
        <ele>106.61</ele>
        <time>2020-03-13T21:21:15.000Z</time>
      </trkpt>
      <trkpt lat="48.8646" lon="2.2953">
        <ele>106.49</ele>
        <time>2020-03-13T21:21:16.000Z</time>
      </trkpt>
      <trkpt lat="48.86461" lon="2.29539">
        <ele>106.28</ele>
        <time>2020-03-13T21:21:17.000Z</time>
      </trkpt>
      <trkpt lat="48.86461" lon="2.29547">
        <ele>105.74</ele>
        <time>2020-03-13T21:21:18.000Z</time>
      </trkpt>
      <trkpt lat="48.86461" lon="2.29556">
        <ele>105.39</ele>
        <time>2020-03-13T21:21:19.000Z</time>
      </trkpt>
      <trkpt lat="48.86462" lon="2.29564">
        <ele>105.09</ele>
        <time>2020-03-13T21:21:20.000Z</time>
      </trkpt>
      <trkpt lat="48.86463" lon="2.29572">
        <ele>104.7</ele>
        <time>2020-03-13T21:21:21.000Z</time>
      </trkpt>
      <trkpt lat="48.86465" lon="2.2958">
        <ele>104.38</ele>
        <time>2020-03-13T21:21:22.000Z</time>
      </trkpt>
      <trkpt lat="48.86465" lon="2.29588">
        <ele>104.04</ele>
        <time>2020-03-13T21:21:23.000Z</time>
      </trkpt>
      <trkpt lat="48.86466" lon="2.29597">
        <ele>103.65</ele>
        <time>2020-03-13T21:21:24.000Z</time>
      </trkpt>
      <trkpt lat="48.86467" lon="2.29606">
        <ele>103.22</ele>
        <time>2020-03-13T21:21:25.000Z</time>
      </trkpt>
      <trkpt lat="48.86468" lon="2.29614">
        <ele>102.91</ele>
        <time>2020-03-13T21:21:26.000Z</time>
      </trkpt>
      <trkpt lat="48.86469" lon="2.29623">
        <ele>102.84</ele>
        <time>2020-03-13T21:21:27.000Z</time>
      </trkpt>
      <trkpt lat="48.86471" lon="2.29632">
        <ele>102.85</ele>
        <time>2020-03-13T21:21:28.000Z</time>
      </trkpt>
      <trkpt lat="48.86471" lon="2.2964">
        <ele>102.82</ele>
        <time>2020-03-13T21:21:29.000Z</time>
      </trkpt>
      <trkpt lat="48.86473" lon="2.29648">
        <ele>102.78</ele>
        <time>2020-03-13T21:21:30.000Z</time>
      </trkpt>
      <trkpt lat="48.86473" lon="2.29656">
        <ele>102.77</ele>
        <time>2020-03-13T21:21:31.000Z</time>
      </trkpt>
      <trkpt lat="48.86474" lon="2.29665">
        <ele>102.79</ele>
        <time>2020-03-13T21:21:32.000Z</time>
      </trkpt>
      <trkpt lat="48.86475" lon="2.29674">
        <ele>102.76</ele>
        <time>2020-03-13T21:21:33.000Z</time>
      </trkpt>
      <trkpt lat="48.86476" lon="2.29683">
        <ele>102.61</ele>
        <time>2020-03-13T21:21:34.000Z</time>
      </trkpt>
      <trkpt lat="48.86476" lon="2.29692">
        <ele>102.48</ele>
        <time>2020-03-13T21:21:35.000Z</time>
      </trkpt>
      <trkpt lat="48.86477" lon="2.297">
        <ele>102.34</ele>
        <time>2020-03-13T21:21:36.000Z</time>
      </trkpt>
      <trkpt lat="48.86477" lon="2.29708">
        <ele>102.2</ele>
        <time>2020-03-13T21:21:37.000Z</time>
      </trkpt>
      <trkpt lat="48.86477" lon="2.29716">
        <ele>102.06</ele>
        <time>2020-03-13T21:21:38.000Z</time>
      </trkpt>
      <trkpt lat="48.86477" lon="2.29725">
        <ele>101.93</ele>
        <time>2020-03-13T21:21:39.000Z</time>
      </trkpt>
      <trkpt lat="48.86477" lon="2.29733">
        <ele>101.7</ele>
        <time>2020-03-13T21:21:40.000Z</time>
      </trkpt>
      <trkpt lat="48.86477" lon="2.29741">
        <ele>101.48</ele>
        <time>2020-03-13T21:21:41.000Z</time>
      </trkpt>
      <trkpt lat="48.86477" lon="2.29749">
        <ele>101.28</ele>
        <time>2020-03-13T21:21:42.000Z</time>
      </trkpt>
      <trkpt lat="48.86478" lon="2.29757">
        <ele>101.12</ele>
        <time>2020-03-13T21:21:43.000Z</time>
      </trkpt>
      <trkpt lat="48.86478" lon="2.29767">
        <ele>100.97</ele>
        <time>2020-03-13T21:21:44.000Z</time>
      </trkpt>
      <trkpt lat="48.86478" lon="2.29777">
        <ele>100.85</ele>
        <time>2020-03-13T21:21:45.000Z</time>
      </trkpt>
      <trkpt lat="48.86478" lon="2.29787">
        <ele>100.7</ele>
        <time>2020-03-13T21:21:46.000Z</time>
      </trkpt>
      <trkpt lat="48.86479" lon="2.29797">
        <ele>100.51</ele>
        <time>2020-03-13T21:21:47.000Z</time>
      </trkpt>
      <trkpt lat="48.86481" lon="2.29807">
        <ele>100.34</ele>
        <time>2020-03-13T21:21:48.000Z</time>
      </trkpt>
      <trkpt lat="48.86481" lon="2.29816">
        <ele>100.16</ele>
        <time>2020-03-13T21:21:49.000Z</time>
      </trkpt>
      <trkpt lat="48.86482" lon="2.29825">
        <ele>99.96</ele>
        <time>2020-03-13T21:21:50.000Z</time>
      </trkpt>
      <trkpt lat="48.86482" lon="2.29834">
        <ele>99.74</ele>
        <time>2020-03-13T21:21:51.000Z</time>
      </trkpt>
      <trkpt lat="48.86483" lon="2.29844">
        <ele>99.49</ele>
        <time>2020-03-13T21:21:52.000Z</time>
      </trkpt>
      <trkpt lat="48.86483" lon="2.29853">
        <ele>99.24</ele>
        <time>2020-03-13T21:21:53.000Z</time>
      </trkpt>
      <trkpt lat="48.86484" lon="2.29862">
        <ele>99.01</ele>
        <time>2020-03-13T21:21:54.000Z</time>
      </trkpt>
      <trkpt lat="48.86484" lon="2.2987">
        <ele>98.83</ele>
        <time>2020-03-13T21:21:55.000Z</time>
      </trkpt>
      <trkpt lat="48.86484" lon="2.29879">
        <ele>98.68</ele>
        <time>2020-03-13T21:21:56.000Z</time>
      </trkpt>
      <trkpt lat="48.86485" lon="2.29887">
        <ele>98.55</ele>
        <time>2020-03-13T21:21:57.000Z</time>
      </trkpt>
      <trkpt lat="48.86485" lon="2.29895">
        <ele>98.39</ele>
        <time>2020-03-13T21:21:58.000Z</time>
      </trkpt>
      <trkpt lat="48.86484" lon="2.29904">
        <ele>98.24</ele>
        <time>2020-03-13T21:21:59.000Z</time>
      </trkpt>
      <trkpt lat="48.86485" lon="2.29911">
        <ele>98.05</ele>
        <time>2020-03-13T21:22:00.000Z</time>
      </trkpt>
      <trkpt lat="48.86486" lon="2.29919">
        <ele>97.87</ele>
        <time>2020-03-13T21:22:01.000Z</time>
      </trkpt>
      <trkpt lat="48.86486" lon="2.29926">
        <ele>97.69</ele>
        <time>2020-03-13T21:22:02.000Z</time>
      </trkpt>
      <trkpt lat="48.86486" lon="2.29932">
        <ele>97.53</ele>
        <time>2020-03-13T21:22:03.000Z</time>
      </trkpt>
      <trkpt lat="48.86488" lon="2.2994">
        <ele>97.4</ele>
        <time>2020-03-13T21:22:04.000Z</time>
      </trkpt>
      <trkpt lat="48.86488" lon="2.2995">
        <ele>97.27</ele>
        <time>2020-03-13T21:22:05.000Z</time>
      </trkpt>
      <trkpt lat="48.86488" lon="2.29957">
        <ele>97.16</ele>
        <time>2020-03-13T21:22:06.000Z</time>
      </trkpt>
      <trkpt lat="48.86489" lon="2.29963">
        <ele>97.06</ele>
        <time>2020-03-13T21:22:07.000Z</time>
      </trkpt>
      <trkpt lat="48.8649" lon="2.29971">
        <ele>97.05</ele>
        <time>2020-03-13T21:22:08.000Z</time>
      </trkpt>
      <trkpt lat="48.8649" lon="2.29978">
        <ele>97.04</ele>
        <time>2020-03-13T21:22:09.000Z</time>
      </trkpt>
      <trkpt lat="48.86491" lon="2.29983">
        <ele>97.03</ele>
        <time>2020-03-13T21:22:10.000Z</time>
      </trkpt>
      <trkpt lat="48.8649" lon="2.29989">
        <ele>97.02</ele>
        <time>2020-03-13T21:22:11.000Z</time>
      </trkpt>
      <trkpt lat="48.86489" lon="2.29995">
        <ele>97.01</ele>
        <time>2020-03-13T21:22:12.000Z</time>
      </trkpt>
      <trkpt lat="48.86488" lon="2.3">
        <ele>97</ele>
        <time>2020-03-13T21:22:13.000Z</time>
      </trkpt>
      <trkpt lat="48.86486" lon="2.30007">
        <ele>96.98</ele>
        <time>2020-03-13T21:22:14.000Z</time>
      </trkpt>
      <trkpt lat="48.86484" lon="2.30012">
        <ele>96.97</ele>
        <time>2020-03-13T21:22:15.000Z</time>
      </trkpt>
      <trkpt lat="48.8648" lon="2.30018">
        <ele>96.96</ele>
        <time>2020-03-13T21:22:16.000Z</time>
      </trkpt>
      <trkpt lat="48.86478" lon="2.30026">
        <ele>96.94</ele>
        <time>2020-03-13T21:22:17.000Z</time>
      </trkpt>
      <trkpt lat="48.86478" lon="2.30028">
        <ele>96.92</ele>
        <time>2020-03-13T21:22:18.000Z</time>
      </trkpt>
      <trkpt lat="48.86477" lon="2.30033">
        <ele>96.9</ele>
        <time>2020-03-13T21:22:19.000Z</time>
      </trkpt>
      <trkpt lat="48.86477" lon="2.30038">
        <ele>96.88</ele>
        <time>2020-03-13T21:22:20.000Z</time>
      </trkpt>
      <trkpt lat="48.86478" lon="2.30045">
        <ele>96.87</ele>
        <time>2020-03-13T21:22:21.000Z</time>
      </trkpt>
      <trkpt lat="48.86478" lon="2.30047">
        <ele>96.85</ele>
        <time>2020-03-13T21:22:22.000Z</time>
      </trkpt>
      <trkpt lat="48.86477" lon="2.3005">
        <ele>96.82</ele>
        <time>2020-03-13T21:22:23.000Z</time>
      </trkpt>
      <trkpt lat="48.86477" lon="2.30054">
        <ele>96.8</ele>
        <time>2020-03-13T21:22:24.000Z</time>
      </trkpt>
      <trkpt lat="48.86473" lon="2.30057">
        <ele>96.78</ele>
        <time>2020-03-13T21:22:25.000Z</time>
      </trkpt>
      <trkpt lat="48.86471" lon="2.3006">
        <ele>96.76</ele>
        <time>2020-03-13T21:22:26.000Z</time>
      </trkpt>
      <trkpt lat="48.86469" lon="2.30066">
        <ele>96.73</ele>
        <time>2020-03-13T21:22:27.000Z</time>
      </trkpt>
      <trkpt lat="48.86467" lon="2.30073">
        <ele>96.45</ele>
        <time>2020-03-13T21:22:28.000Z</time>
      </trkpt>
      <trkpt lat="48.86465" lon="2.3008">
        <ele>96.43</ele>
        <time>2020-03-13T21:22:29.000Z</time>
      </trkpt>
      <trkpt lat="48.86463" lon="2.30088">
        <ele>96.41</ele>
        <time>2020-03-13T21:22:30.000Z</time>
      </trkpt>
      <trkpt lat="48.86462" lon="2.30093">
        <ele>96.38</ele>
        <time>2020-03-13T21:22:31.000Z</time>
      </trkpt>
      <trkpt lat="48.8646" lon="2.30099">
        <ele>96.14</ele>
        <time>2020-03-13T21:22:32.000Z</time>
      </trkpt>
      <trkpt lat="48.86457" lon="2.30103">
        <ele>95.94</ele>
        <time>2020-03-13T21:22:33.000Z</time>
      </trkpt>
      <trkpt lat="48.86454" lon="2.30107">
        <ele>95.93</ele>
        <time>2020-03-13T21:22:34.000Z</time>
      </trkpt>
      <trkpt lat="48.86452" lon="2.3011">
        <ele>95.91</ele>
        <time>2020-03-13T21:22:35.000Z</time>
      </trkpt>
      <trkpt lat="48.8645" lon="2.30115">
        <ele>95.77</ele>
        <time>2020-03-13T21:22:36.000Z</time>
      </trkpt>
      <trkpt lat="48.86447" lon="2.3012">
        <ele>95.76</ele>
        <time>2020-03-13T21:22:37.000Z</time>
      </trkpt>
      <trkpt lat="48.86444" lon="2.30124">
        <ele>95.74</ele>
        <time>2020-03-13T21:22:38.000Z</time>
      </trkpt>
      <trkpt lat="48.8644" lon="2.30127">
        <ele>95.73</ele>
        <time>2020-03-13T21:22:39.000Z</time>
      </trkpt>
      <trkpt lat="48.86438" lon="2.30132">
        <ele>95.72</ele>
        <time>2020-03-13T21:22:40.000Z</time>
      </trkpt>
      <trkpt lat="48.86435" lon="2.30135">
        <ele>95.7</ele>
        <time>2020-03-13T21:22:41.000Z</time>
      </trkpt>
      <trkpt lat="48.86433" lon="2.3014">
        <ele>95.69</ele>
        <time>2020-03-13T21:22:42.000Z</time>
      </trkpt>
      <trkpt lat="48.86431" lon="2.30143">
        <ele>95.68</ele>
        <time>2020-03-13T21:22:43.000Z</time>
      </trkpt>
      <trkpt lat="48.8643" lon="2.30146">
        <ele>95.67</ele>
        <time>2020-03-13T21:22:44.000Z</time>
      </trkpt>
      <trkpt lat="48.86429" lon="2.3015">
        <ele>95.66</ele>
        <time>2020-03-13T21:22:45.000Z</time>
      </trkpt>
      <trkpt lat="48.86428" lon="2.30154">
        <ele>95.66</ele>
        <time>2020-03-13T21:22:46.000Z</time>
      </trkpt>
      <trkpt lat="48.86427" lon="2.30157">
        <ele>95.65</ele>
        <time>2020-03-13T21:22:47.000Z</time>
      </trkpt>
      <trkpt lat="48.86426" lon="2.30158">
        <ele>95.64</ele>
        <time>2020-03-13T21:22:48.000Z</time>
      </trkpt>
      <trkpt lat="48.86426" lon="2.30159">
        <ele>95.64</ele>
        <time>2020-03-13T21:22:49.000Z</time>
      </trkpt>
      <trkpt lat="48.86425" lon="2.30161">
        <ele>95.63</ele>
        <time>2020-03-13T21:22:50.000Z</time>
      </trkpt>
      <trkpt lat="48.86425" lon="2.30162">
        <ele>95.62</ele>
        <time>2020-03-13T21:22:51.000Z</time>
      </trkpt>
      <trkpt lat="48.86423" lon="2.30164">
        <ele>95.61</ele>
        <time>2020-03-13T21:22:52.000Z</time>
      </trkpt>
      <trkpt lat="48.86422" lon="2.30166">
        <ele>95.6</ele>
        <time>2020-03-13T21:22:53.000Z</time>
      </trkpt>
      <trkpt lat="48.86421" lon="2.30167">
        <ele>95.59</ele>
        <time>2020-03-13T21:22:54.000Z</time>
      </trkpt>
      <trkpt lat="48.86419" lon="2.30169">
        <ele>95.56</ele>
        <time>2020-03-13T21:22:56.000Z</time>
      </trkpt>
      <trkpt lat="48.8642" lon="2.30165">
        <ele>95.54</ele>
        <time>2020-03-13T21:22:57.000Z</time>
      </trkpt>
      <trkpt lat="48.8642" lon="2.30162">
        <ele>95.52</ele>
        <time>2020-03-13T21:22:58.000Z</time>
      </trkpt>
      <trkpt lat="48.8642" lon="2.30159">
        <ele>95.49</ele>
        <time>2020-03-13T21:22:59.000Z</time>
      </trkpt>
      <trkpt lat="48.86419" lon="2.30159">
        <ele>95.42</ele>
        <time>2020-03-13T21:23:01.000Z</time>
      </trkpt>
      <trkpt lat="48.86418" lon="2.30158">
        <ele>95.38</ele>
        <time>2020-03-13T21:23:02.000Z</time>
      </trkpt>
      <trkpt lat="48.86416" lon="2.30158">
        <ele>95.34</ele>
        <time>2020-03-13T21:23:03.000Z</time>
      </trkpt>
      <trkpt lat="48.86415" lon="2.3016">
        <ele>95.29</ele>
        <time>2020-03-13T21:23:04.000Z</time>
      </trkpt>
      <trkpt lat="48.86413" lon="2.30161">
        <ele>95.24</ele>
        <time>2020-03-13T21:23:05.000Z</time>
      </trkpt>
      <trkpt lat="48.8641" lon="2.30162">
        <ele>95.18</ele>
        <time>2020-03-13T21:23:06.000Z</time>
      </trkpt>
      <trkpt lat="48.86407" lon="2.30163">
        <ele>95.13</ele>
        <time>2020-03-13T21:23:07.000Z</time>
      </trkpt>
      <trkpt lat="48.86405" lon="2.30165">
        <ele>95.07</ele>
        <time>2020-03-13T21:23:08.000Z</time>
      </trkpt>
      <trkpt lat="48.86402" lon="2.30165">
        <ele>95.02</ele>
        <time>2020-03-13T21:23:09.000Z</time>
      </trkpt>
      <trkpt lat="48.86399" lon="2.30166">
        <ele>94.96</ele>
        <time>2020-03-13T21:23:10.000Z</time>
      </trkpt>
      <trkpt lat="48.86396" lon="2.30167">
        <ele>94.9</ele>
        <time>2020-03-13T21:23:11.000Z</time>
      </trkpt>
      <trkpt lat="48.86393" lon="2.30167">
        <ele>94.84</ele>
        <time>2020-03-13T21:23:12.000Z</time>
      </trkpt>
      <trkpt lat="48.86391" lon="2.30168">
        <ele>94.78</ele>
        <time>2020-03-13T21:23:13.000Z</time>
      </trkpt>
      <trkpt lat="48.86388" lon="2.30168">
        <ele>94.72</ele>
        <time>2020-03-13T21:23:14.000Z</time>
      </trkpt>
      <trkpt lat="48.86386" lon="2.30169">
        <ele>94.65</ele>
        <time>2020-03-13T21:23:15.000Z</time>
      </trkpt>
      <trkpt lat="48.86383" lon="2.30169">
        <ele>94.59</ele>
        <time>2020-03-13T21:23:16.000Z</time>
      </trkpt>
      <trkpt lat="48.86381" lon="2.3017">
        <ele>94.52</ele>
        <time>2020-03-13T21:23:17.000Z</time>
      </trkpt>
      <trkpt lat="48.86378" lon="2.30171">
        <ele>94.46</ele>
        <time>2020-03-13T21:23:18.000Z</time>
      </trkpt>
      <trkpt lat="48.86375" lon="2.30172">
        <ele>94.39</ele>
        <time>2020-03-13T21:23:19.000Z</time>
      </trkpt>
      <trkpt lat="48.86373" lon="2.30173">
        <ele>94.32</ele>
        <time>2020-03-13T21:23:20.000Z</time>
      </trkpt>
      <trkpt lat="48.8637" lon="2.30175">
        <ele>94.26</ele>
        <time>2020-03-13T21:23:21.000Z</time>
      </trkpt>
      <trkpt lat="48.86367" lon="2.30176">
        <ele>94.19</ele>
        <time>2020-03-13T21:23:22.000Z</time>
      </trkpt>
      <trkpt lat="48.86363" lon="2.30175">
        <ele>94.12</ele>
        <time>2020-03-13T21:23:23.000Z</time>
      </trkpt>
      <trkpt lat="48.8636" lon="2.30176">
        <ele>94.05</ele>
        <time>2020-03-13T21:23:24.000Z</time>
      </trkpt>
      <trkpt lat="48.86357" lon="2.30177">
        <ele>93.98</ele>
        <time>2020-03-13T21:23:25.000Z</time>
      </trkpt>
      <trkpt lat="48.86354" lon="2.30177">
        <ele>93.91</ele>
        <time>2020-03-13T21:23:26.000Z</time>
      </trkpt>
      <trkpt lat="48.86351" lon="2.30178">
        <ele>93.83</ele>
        <time>2020-03-13T21:23:27.000Z</time>
      </trkpt>
      <trkpt lat="48.86348" lon="2.30178">
        <ele>93.76</ele>
        <time>2020-03-13T21:23:28.000Z</time>
      </trkpt>
      <trkpt lat="48.86344" lon="2.30178">
        <ele>93.69</ele>
        <time>2020-03-13T21:23:29.000Z</time>
      </trkpt>
      <trkpt lat="48.86341" lon="2.30178">
        <ele>93.61</ele>
        <time>2020-03-13T21:23:30.000Z</time>
      </trkpt>
      <trkpt lat="48.86337" lon="2.30178">
        <ele>93.54</ele>
        <time>2020-03-13T21:23:31.000Z</time>
      </trkpt>
      <trkpt lat="48.86333" lon="2.30178">
        <ele>93.46</ele>
        <time>2020-03-13T21:23:32.000Z</time>
      </trkpt>
      <trkpt lat="48.86329" lon="2.30178">
        <ele>93.39</ele>
        <time>2020-03-13T21:23:33.000Z</time>
      </trkpt>
      <trkpt lat="48.86326" lon="2.30178">
        <ele>93.31</ele>
        <time>2020-03-13T21:23:34.000Z</time>
      </trkpt>
      <trkpt lat="48.86322" lon="2.30177">
        <ele>93.23</ele>
        <time>2020-03-13T21:23:35.000Z</time>
      </trkpt>
      <trkpt lat="48.86319" lon="2.30177">
        <ele>93.15</ele>
        <time>2020-03-13T21:23:36.000Z</time>
      </trkpt>
      <trkpt lat="48.86316" lon="2.30178">
        <ele>93.08</ele>
        <time>2020-03-13T21:23:37.000Z</time>
      </trkpt>
      <trkpt lat="48.86312" lon="2.30178">
        <ele>93</ele>
        <time>2020-03-13T21:23:38.000Z</time>
      </trkpt>
      <trkpt lat="48.86309" lon="2.30178">
        <ele>92.93</ele>
        <time>2020-03-13T21:23:39.000Z</time>
      </trkpt>
      <trkpt lat="48.86307" lon="2.30177">
        <ele>92.85</ele>
        <time>2020-03-13T21:23:40.000Z</time>
      </trkpt>
      <trkpt lat="48.86304" lon="2.30177">
        <ele>92.78</ele>
        <time>2020-03-13T21:23:41.000Z</time>
      </trkpt>
      <trkpt lat="48.863" lon="2.30177">
        <ele>92.71</ele>
        <time>2020-03-13T21:23:42.000Z</time>
      </trkpt>
      <trkpt lat="48.86297" lon="2.30177">
        <ele>92.64</ele>
        <time>2020-03-13T21:23:43.000Z</time>
      </trkpt>
      <trkpt lat="48.86293" lon="2.30178">
        <ele>91.92</ele>
        <time>2020-03-13T21:23:44.000Z</time>
      </trkpt>
      <trkpt lat="48.86288" lon="2.30178">
        <ele>91.35</ele>
        <time>2020-03-13T21:23:45.000Z</time>
      </trkpt>
      <trkpt lat="48.86284" lon="2.30178">
        <ele>90.88</ele>
        <time>2020-03-13T21:23:46.000Z</time>
      </trkpt>
      <trkpt lat="48.8628" lon="2.30179">
        <ele>90.84</ele>
        <time>2020-03-13T21:23:47.000Z</time>
      </trkpt>
      <trkpt lat="48.86276" lon="2.30178">
        <ele>90.81</ele>
        <time>2020-03-13T21:23:48.000Z</time>
      </trkpt>
      <trkpt lat="48.86274" lon="2.30178">
        <ele>90.77</ele>
        <time>2020-03-13T21:23:49.000Z</time>
      </trkpt>
      <trkpt lat="48.86271" lon="2.30178">
        <ele>90.73</ele>
        <time>2020-03-13T21:23:50.000Z</time>
      </trkpt>
      <trkpt lat="48.86267" lon="2.30178">
        <ele>90.69</ele>
        <time>2020-03-13T21:23:51.000Z</time>
      </trkpt>
      <trkpt lat="48.86264" lon="2.30177">
        <ele>90.65</ele>
        <time>2020-03-13T21:23:52.000Z</time>
      </trkpt>
      <trkpt lat="48.86261" lon="2.30176">
        <ele>90.61</ele>
        <time>2020-03-13T21:23:53.000Z</time>
      </trkpt>
      <trkpt lat="48.86258" lon="2.30175">
        <ele>90.58</ele>
        <time>2020-03-13T21:23:54.000Z</time>
      </trkpt>
      <trkpt lat="48.86254" lon="2.30174">
        <ele>90.54</ele>
        <time>2020-03-13T21:23:55.000Z</time>
      </trkpt>
      <trkpt lat="48.86251" lon="2.30173">
        <ele>90.5</ele>
        <time>2020-03-13T21:23:56.000Z</time>
      </trkpt>
      <trkpt lat="48.86248" lon="2.30173">
        <ele>90.14</ele>
        <time>2020-03-13T21:23:57.000Z</time>
      </trkpt>
      <trkpt lat="48.86244" lon="2.30175">
        <ele>90.11</ele>
        <time>2020-03-13T21:23:58.000Z</time>
      </trkpt>
      <trkpt lat="48.8624" lon="2.30176">
        <ele>90.09</ele>
        <time>2020-03-13T21:23:59.000Z</time>
      </trkpt>
      <trkpt lat="48.86236" lon="2.30176">
        <ele>90.06</ele>
        <time>2020-03-13T21:24:00.000Z</time>
      </trkpt>
      <trkpt lat="48.86233" lon="2.30176">
        <ele>90.03</ele>
        <time>2020-03-13T21:24:01.000Z</time>
      </trkpt>
      <trkpt lat="48.8623" lon="2.30177">
        <ele>90</ele>
        <time>2020-03-13T21:24:02.000Z</time>
      </trkpt>
      <trkpt lat="48.86229" lon="2.30178">
        <ele>89.97</ele>
        <time>2020-03-13T21:24:03.000Z</time>
      </trkpt>
      <trkpt lat="48.86228" lon="2.30181">
        <ele>89.94</ele>
        <time>2020-03-13T21:24:04.000Z</time>
      </trkpt>
      <trkpt lat="48.86228" lon="2.30184">
        <ele>89.91</ele>
        <time>2020-03-13T21:24:05.000Z</time>
      </trkpt>
      <trkpt lat="48.86229" lon="2.30186">
        <ele>89.88</ele>
        <time>2020-03-13T21:24:06.000Z</time>
      </trkpt>
      <trkpt lat="48.86229" lon="2.30189">
        <ele>89.85</ele>
        <time>2020-03-13T21:24:07.000Z</time>
      </trkpt>
      <trkpt lat="48.86229" lon="2.3019">
        <ele>89.83</ele>
        <time>2020-03-13T21:24:07.999Z</time>
      </trkpt>
      <trkpt lat="48.86229" lon="2.30192">
        <ele>89.8</ele>
        <time>2020-03-13T21:24:08.999Z</time>
      </trkpt>
      <trkpt lat="48.86229" lon="2.30193">
        <ele>89.74</ele>
        <time>2020-03-13T21:24:10.999Z</time>
      </trkpt>
      <trkpt lat="48.86229" lon="2.30194">
        <ele>89.66</ele>
        <time>2020-03-13T21:24:13.999Z</time>
      </trkpt>
      <trkpt lat="48.86229" lon="2.30196">
        <ele>89.63</ele>
        <time>2020-03-13T21:24:14.999Z</time>
      </trkpt>
      <trkpt lat="48.86229" lon="2.30198">
        <ele>89.6</ele>
        <time>2020-03-13T21:24:15.999Z</time>
      </trkpt>
      <trkpt lat="48.8623" lon="2.30202">
        <ele>89.57</ele>
        <time>2020-03-13T21:24:16.999Z</time>
      </trkpt>
      <trkpt lat="48.8623" lon="2.30206">
        <ele>89.54</ele>
        <time>2020-03-13T21:24:17.999Z</time>
      </trkpt>
      <trkpt lat="48.8623" lon="2.30211">
        <ele>89.52</ele>
        <time>2020-03-13T21:24:18.999Z</time>
      </trkpt>
      <trkpt lat="48.86231" lon="2.30216">
        <ele>89.49</ele>
        <time>2020-03-13T21:24:19.999Z</time>
      </trkpt>
      <trkpt lat="48.86232" lon="2.30222">
        <ele>89.46</ele>
        <time>2020-03-13T21:24:20.999Z</time>
      </trkpt>
      <trkpt lat="48.86232" lon="2.30228">
        <ele>89.43</ele>
        <time>2020-03-13T21:24:21.999Z</time>
      </trkpt>
      <trkpt lat="48.86233" lon="2.30233">
        <ele>89.4</ele>
        <time>2020-03-13T21:24:22.999Z</time>
      </trkpt>
      <trkpt lat="48.86233" lon="2.3024">
        <ele>89.37</ele>
        <time>2020-03-13T21:24:23.999Z</time>
      </trkpt>
      <trkpt lat="48.86234" lon="2.30246">
        <ele>89.35</ele>
        <time>2020-03-13T21:24:24.999Z</time>
      </trkpt>
      <trkpt lat="48.86234" lon="2.30252">
        <ele>89.07</ele>
        <time>2020-03-13T21:24:25.999Z</time>
      </trkpt>
      <trkpt lat="48.86235" lon="2.30258">
        <ele>88.84</ele>
        <time>2020-03-13T21:24:26.999Z</time>
      </trkpt>
      <trkpt lat="48.86235" lon="2.30265">
        <ele>88.66</ele>
        <time>2020-03-13T21:24:27.999Z</time>
      </trkpt>
      <trkpt lat="48.86235" lon="2.30271">
        <ele>88.51</ele>
        <time>2020-03-13T21:24:28.999Z</time>
      </trkpt>
      <trkpt lat="48.86235" lon="2.30278">
        <ele>88.38</ele>
        <time>2020-03-13T21:24:29.999Z</time>
      </trkpt>
      <trkpt lat="48.86235" lon="2.30285">
        <ele>88.27</ele>
        <time>2020-03-13T21:24:30.999Z</time>
      </trkpt>
      <trkpt lat="48.86235" lon="2.30292">
        <ele>88.2</ele>
        <time>2020-03-13T21:24:31.999Z</time>
      </trkpt>
      <trkpt lat="48.86236" lon="2.30299">
        <ele>88.13</ele>
        <time>2020-03-13T21:24:32.999Z</time>
      </trkpt>
      <trkpt lat="48.86236" lon="2.30305">
        <ele>88.07</ele>
        <time>2020-03-13T21:24:33.999Z</time>
      </trkpt>
      <trkpt lat="48.86236" lon="2.30313">
        <ele>88.03</ele>
        <time>2020-03-13T21:24:34.999Z</time>
      </trkpt>
      <trkpt lat="48.86236" lon="2.3032">
        <ele>87.98</ele>
        <time>2020-03-13T21:24:35.999Z</time>
      </trkpt>
      <trkpt lat="48.86236" lon="2.30329">
        <ele>87.93</ele>
        <time>2020-03-13T21:24:36.999Z</time>
      </trkpt>
      <trkpt lat="48.86236" lon="2.30335">
        <ele>87.89</ele>
        <time>2020-03-13T21:24:37.999Z</time>
      </trkpt>
      <trkpt lat="48.86236" lon="2.30342">
        <ele>87.86</ele>
        <time>2020-03-13T21:24:38.999Z</time>
      </trkpt>
      <trkpt lat="48.86236" lon="2.30349">
        <ele>87.82</ele>
        <time>2020-03-13T21:24:39.999Z</time>
      </trkpt>
      <trkpt lat="48.86236" lon="2.30356">
        <ele>87.8</ele>
        <time>2020-03-13T21:24:40.999Z</time>
      </trkpt>
      <trkpt lat="48.86236" lon="2.30364">
        <ele>87.77</ele>
        <time>2020-03-13T21:24:41.999Z</time>
      </trkpt>
      <trkpt lat="48.86236" lon="2.30372">
        <ele>87.74</ele>
        <time>2020-03-13T21:24:42.999Z</time>
      </trkpt>
      <trkpt lat="48.86236" lon="2.30382">
        <ele>87.71</ele>
        <time>2020-03-13T21:24:43.999Z</time>
      </trkpt>
      <trkpt lat="48.86236" lon="2.30392">
        <ele>87.68</ele>
        <time>2020-03-13T21:24:44.999Z</time>
      </trkpt>
      <trkpt lat="48.86235" lon="2.304">
        <ele>87.65</ele>
        <time>2020-03-13T21:24:45.999Z</time>
      </trkpt>
      <trkpt lat="48.86235" lon="2.30409">
        <ele>87.63</ele>
        <time>2020-03-13T21:24:46.999Z</time>
      </trkpt>
      <trkpt lat="48.86235" lon="2.30418">
        <ele>87.6</ele>
        <time>2020-03-13T21:24:47.999Z</time>
      </trkpt>
      <trkpt lat="48.86235" lon="2.30428">
        <ele>87.57</ele>
        <time>2020-03-13T21:24:48.999Z</time>
      </trkpt>
      <trkpt lat="48.86236" lon="2.30439">
        <ele>87.56</ele>
        <time>2020-03-13T21:24:49.999Z</time>
      </trkpt>
      <trkpt lat="48.86236" lon="2.30448">
        <ele>87.54</ele>
        <time>2020-03-13T21:24:50.999Z</time>
      </trkpt>
      <trkpt lat="48.86235" lon="2.30457">
        <ele>87.52</ele>
        <time>2020-03-13T21:24:51.999Z</time>
      </trkpt>
      <trkpt lat="48.86235" lon="2.30468">
        <ele>87.5</ele>
        <time>2020-03-13T21:24:52.999Z</time>
      </trkpt>
      <trkpt lat="48.86235" lon="2.30479">
        <ele>87.48</ele>
        <time>2020-03-13T21:24:53.999Z</time>
      </trkpt>
      <trkpt lat="48.86234" lon="2.30488">
        <ele>87.47</ele>
        <time>2020-03-13T21:24:54.999Z</time>
      </trkpt>
      <trkpt lat="48.86233" lon="2.30496">
        <ele>87.47</ele>
        <time>2020-03-13T21:24:55.999Z</time>
      </trkpt>
      <trkpt lat="48.86231" lon="2.30506">
        <ele>87.45</ele>
        <time>2020-03-13T21:24:56.999Z</time>
      </trkpt>
      <trkpt lat="48.86231" lon="2.30514">
        <ele>87.45</ele>
        <time>2020-03-13T21:24:57.999Z</time>
      </trkpt>
      <trkpt lat="48.86231" lon="2.30522">
        <ele>87.44</ele>
        <time>2020-03-13T21:24:58.999Z</time>
      </trkpt>
      <trkpt lat="48.86231" lon="2.3053">
        <ele>87.43</ele>
        <time>2020-03-13T21:24:59.999Z</time>
      </trkpt>
      <trkpt lat="48.86232" lon="2.30539">
        <ele>87.41</ele>
        <time>2020-03-13T21:25:00.999Z</time>
      </trkpt>
      <trkpt lat="48.86232" lon="2.30548">
        <ele>87.41</ele>
        <time>2020-03-13T21:25:01.999Z</time>
      </trkpt>
      <trkpt lat="48.86231" lon="2.30556">
        <ele>87.4</ele>
        <time>2020-03-13T21:25:02.999Z</time>
      </trkpt>
      <trkpt lat="48.86231" lon="2.30565">
        <ele>87.4</ele>
        <time>2020-03-13T21:25:03.999Z</time>
      </trkpt>
      <trkpt lat="48.8623" lon="2.30574">
        <ele>87.4</ele>
        <time>2020-03-13T21:25:04.999Z</time>
      </trkpt>
      <trkpt lat="48.86229" lon="2.30583">
        <ele>87.41</ele>
        <time>2020-03-13T21:25:05.999Z</time>
      </trkpt>
      <trkpt lat="48.86229" lon="2.30591">
        <ele>87.42</ele>
        <time>2020-03-13T21:25:06.999Z</time>
      </trkpt>
      <trkpt lat="48.86229" lon="2.306">
        <ele>87.42</ele>
        <time>2020-03-13T21:25:07.999Z</time>
      </trkpt>
      <trkpt lat="48.86229" lon="2.30609">
        <ele>87.43</ele>
        <time>2020-03-13T21:25:08.999Z</time>
      </trkpt>
      <trkpt lat="48.86229" lon="2.30617">
        <ele>87.42</ele>
        <time>2020-03-13T21:25:09.999Z</time>
      </trkpt>
      <trkpt lat="48.86229" lon="2.30625">
        <ele>87.43</ele>
        <time>2020-03-13T21:25:10.999Z</time>
      </trkpt>
      <trkpt lat="48.86229" lon="2.30634">
        <ele>87.43</ele>
        <time>2020-03-13T21:25:11.999Z</time>
      </trkpt>
      <trkpt lat="48.86229" lon="2.30642">
        <ele>87.43</ele>
        <time>2020-03-13T21:25:12.999Z</time>
      </trkpt>
      <trkpt lat="48.86229" lon="2.30651">
        <ele>87.42</ele>
        <time>2020-03-13T21:25:13.999Z</time>
      </trkpt>
      <trkpt lat="48.86229" lon="2.30659">
        <ele>87.42</ele>
        <time>2020-03-13T21:25:14.999Z</time>
      </trkpt>
      <trkpt lat="48.86229" lon="2.30667">
        <ele>87.41</ele>
        <time>2020-03-13T21:25:15.999Z</time>
      </trkpt>
      <trkpt lat="48.8623" lon="2.30676">
        <ele>87.4</ele>
        <time>2020-03-13T21:25:16.999Z</time>
      </trkpt>
      <trkpt lat="48.86231" lon="2.30687">
        <ele>87.39</ele>
        <time>2020-03-13T21:25:17.999Z</time>
      </trkpt>
      <trkpt lat="48.86231" lon="2.30696">
        <ele>87.37</ele>
        <time>2020-03-13T21:25:18.999Z</time>
      </trkpt>
      <trkpt lat="48.86231" lon="2.30707">
        <ele>87.34</ele>
        <time>2020-03-13T21:25:19.999Z</time>
      </trkpt>
      <trkpt lat="48.86232" lon="2.30717">
        <ele>87.33</ele>
        <time>2020-03-13T21:25:20.999Z</time>
      </trkpt>
      <trkpt lat="48.86232" lon="2.30726">
        <ele>87.32</ele>
        <time>2020-03-13T21:25:21.999Z</time>
      </trkpt>
      <trkpt lat="48.86233" lon="2.30735">
        <ele>87.32</ele>
        <time>2020-03-13T21:25:22.999Z</time>
      </trkpt>
      <trkpt lat="48.86233" lon="2.30744">
        <ele>87.31</ele>
        <time>2020-03-13T21:25:23.999Z</time>
      </trkpt>
      <trkpt lat="48.86233" lon="2.30754">
        <ele>87.31</ele>
        <time>2020-03-13T21:25:24.999Z</time>
      </trkpt>
      <trkpt lat="48.86233" lon="2.30763">
        <ele>87.31</ele>
        <time>2020-03-13T21:25:25.999Z</time>
      </trkpt>
      <trkpt lat="48.86233" lon="2.30771">
        <ele>87.31</ele>
        <time>2020-03-13T21:25:26.999Z</time>
      </trkpt>
      <trkpt lat="48.86232" lon="2.3078">
        <ele>87.32</ele>
        <time>2020-03-13T21:25:27.999Z</time>
      </trkpt>
      <trkpt lat="48.86232" lon="2.30789">
        <ele>87.31</ele>
        <time>2020-03-13T21:25:28.999Z</time>
      </trkpt>
      <trkpt lat="48.86231" lon="2.30799">
        <ele>87.31</ele>
        <time>2020-03-13T21:25:29.999Z</time>
      </trkpt>
      <trkpt lat="48.86231" lon="2.30807">
        <ele>87.32</ele>
        <time>2020-03-13T21:25:30.999Z</time>
      </trkpt>
      <trkpt lat="48.86231" lon="2.30815">
        <ele>87.32</ele>
        <time>2020-03-13T21:25:31.999Z</time>
      </trkpt>
      <trkpt lat="48.86231" lon="2.30824">
        <ele>87.31</ele>
        <time>2020-03-13T21:25:32.999Z</time>
      </trkpt>
      <trkpt lat="48.86231" lon="2.30832">
        <ele>87.31</ele>
        <time>2020-03-13T21:25:33.999Z</time>
      </trkpt>
      <trkpt lat="48.86231" lon="2.3084">
        <ele>87.31</ele>
        <time>2020-03-13T21:25:34.999Z</time>
      </trkpt>
      <trkpt lat="48.86231" lon="2.30848">
        <ele>87.31</ele>
        <time>2020-03-13T21:25:35.999Z</time>
      </trkpt>
      <trkpt lat="48.86231" lon="2.30854">
        <ele>87.31</ele>
        <time>2020-03-13T21:25:36.999Z</time>
      </trkpt>
      <trkpt lat="48.86231" lon="2.30861">
        <ele>87.31</ele>
        <time>2020-03-13T21:25:37.999Z</time>
      </trkpt>
      <trkpt lat="48.86232" lon="2.30869">
        <ele>87.3</ele>
        <time>2020-03-13T21:25:38.999Z</time>
      </trkpt>
      <trkpt lat="48.86231" lon="2.30876">
        <ele>87.28</ele>
        <time>2020-03-13T21:25:39.999Z</time>
      </trkpt>
      <trkpt lat="48.86231" lon="2.30884">
        <ele>87.27</ele>
        <time>2020-03-13T21:25:40.999Z</time>
      </trkpt>
      <trkpt lat="48.86231" lon="2.30892">
        <ele>87.25</ele>
        <time>2020-03-13T21:25:41.999Z</time>
      </trkpt>
      <trkpt lat="48.86231" lon="2.309">
        <ele>87.25</ele>
        <time>2020-03-13T21:25:42.999Z</time>
      </trkpt>
      <trkpt lat="48.86232" lon="2.30907">
        <ele>87.25</ele>
        <time>2020-03-13T21:25:43.999Z</time>
      </trkpt>
      <trkpt lat="48.86232" lon="2.30914">
        <ele>87.25</ele>
        <time>2020-03-13T21:25:44.999Z</time>
      </trkpt>
      <trkpt lat="48.86233" lon="2.30922">
        <ele>87.24</ele>
        <time>2020-03-13T21:25:45.999Z</time>
      </trkpt>
      <trkpt lat="48.86233" lon="2.30929">
        <ele>87.24</ele>
        <time>2020-03-13T21:25:46.999Z</time>
      </trkpt>
      <trkpt lat="48.86233" lon="2.30937">
        <ele>87.23</ele>
        <time>2020-03-13T21:25:47.999Z</time>
      </trkpt>
      <trkpt lat="48.86233" lon="2.30945">
        <ele>87.23</ele>
        <time>2020-03-13T21:25:48.999Z</time>
      </trkpt>
      <trkpt lat="48.86233" lon="2.30953">
        <ele>87.22</ele>
        <time>2020-03-13T21:25:49.999Z</time>
      </trkpt>
      <trkpt lat="48.86232" lon="2.30962">
        <ele>87.22</ele>
        <time>2020-03-13T21:25:50.999Z</time>
      </trkpt>
      <trkpt lat="48.86233" lon="2.3097">
        <ele>87.22</ele>
        <time>2020-03-13T21:25:51.999Z</time>
      </trkpt>
      <trkpt lat="48.86232" lon="2.3098">
        <ele>87.22</ele>
        <time>2020-03-13T21:25:52.999Z</time>
      </trkpt>
      <trkpt lat="48.86232" lon="2.30989">
        <ele>87.22</ele>
        <time>2020-03-13T21:25:53.999Z</time>
      </trkpt>
      <trkpt lat="48.86232" lon="2.30998">
        <ele>87.21</ele>
        <time>2020-03-13T21:25:54.999Z</time>
      </trkpt>
      <trkpt lat="48.86232" lon="2.31008">
        <ele>87.21</ele>
        <time>2020-03-13T21:25:55.999Z</time>
      </trkpt>
      <trkpt lat="48.86232" lon="2.31014">
        <ele>87.19</ele>
        <time>2020-03-13T21:25:56.999Z</time>
      </trkpt>
      <trkpt lat="48.86233" lon="2.31021">
        <ele>87.17</ele>
        <time>2020-03-13T21:25:57.999Z</time>
      </trkpt>
      <trkpt lat="48.86232" lon="2.31031">
        <ele>87.15</ele>
        <time>2020-03-13T21:25:58.999Z</time>
      </trkpt>
      <trkpt lat="48.86231" lon="2.31039">
        <ele>87.15</ele>
        <time>2020-03-13T21:25:59.999Z</time>
      </trkpt>
      <trkpt lat="48.86231" lon="2.31047">
        <ele>87.14</ele>
        <time>2020-03-13T21:26:00.999Z</time>
      </trkpt>
      <trkpt lat="48.86231" lon="2.31055">
        <ele>87.14</ele>
        <time>2020-03-13T21:26:01.999Z</time>
      </trkpt>
      <trkpt lat="48.86232" lon="2.31066">
        <ele>87.15</ele>
        <time>2020-03-13T21:26:02.999Z</time>
      </trkpt>
      <trkpt lat="48.86232" lon="2.31075">
        <ele>87.15</ele>
        <time>2020-03-13T21:26:03.999Z</time>
      </trkpt>
      <trkpt lat="48.86232" lon="2.31086">
        <ele>87.16</ele>
        <time>2020-03-13T21:26:04.999Z</time>
      </trkpt>
      <trkpt lat="48.86233" lon="2.31092">
        <ele>87.17</ele>
        <time>2020-03-13T21:26:05.999Z</time>
      </trkpt>
      <trkpt lat="48.86233" lon="2.31101">
        <ele>87.18</ele>
        <time>2020-03-13T21:26:06.999Z</time>
      </trkpt>
      <trkpt lat="48.86235" lon="2.31109">
        <ele>87.18</ele>
        <time>2020-03-13T21:26:07.999Z</time>
      </trkpt>
      <trkpt lat="48.86236" lon="2.31117">
        <ele>87.18</ele>
        <time>2020-03-13T21:26:08.999Z</time>
      </trkpt>
      <trkpt lat="48.86238" lon="2.31124">
        <ele>87.19</ele>
        <time>2020-03-13T21:26:09.999Z</time>
      </trkpt>
      <trkpt lat="48.86239" lon="2.31133">
        <ele>87.19</ele>
        <time>2020-03-13T21:26:10.999Z</time>
      </trkpt>
      <trkpt lat="48.8624" lon="2.3114">
        <ele>87.2</ele>
        <time>2020-03-13T21:26:11.999Z</time>
      </trkpt>
      <trkpt lat="48.86241" lon="2.31148">
        <ele>87.2</ele>
        <time>2020-03-13T21:26:12.999Z</time>
      </trkpt>
      <trkpt lat="48.86243" lon="2.31154">
        <ele>87.19</ele>
        <time>2020-03-13T21:26:13.999Z</time>
      </trkpt>
      <trkpt lat="48.86245" lon="2.3116">
        <ele>87.18</ele>
        <time>2020-03-13T21:26:14.999Z</time>
      </trkpt>
      <trkpt lat="48.86247" lon="2.31167">
        <ele>87.17</ele>
        <time>2020-03-13T21:26:15.999Z</time>
      </trkpt>
      <trkpt lat="48.86249" lon="2.31174">
        <ele>87.16</ele>
        <time>2020-03-13T21:26:16.999Z</time>
      </trkpt>
      <trkpt lat="48.8625" lon="2.31182">
        <ele>87.14</ele>
        <time>2020-03-13T21:26:17.999Z</time>
      </trkpt>
      <trkpt lat="48.86252" lon="2.3119">
        <ele>87.13</ele>
        <time>2020-03-13T21:26:18.999Z</time>
      </trkpt>
      <trkpt lat="48.86253" lon="2.31198">
        <ele>87.12</ele>
        <time>2020-03-13T21:26:19.999Z</time>
      </trkpt>
      <trkpt lat="48.86254" lon="2.31207">
        <ele>87.12</ele>
        <time>2020-03-13T21:26:20.999Z</time>
      </trkpt>
      <trkpt lat="48.86255" lon="2.31215">
        <ele>87.11</ele>
        <time>2020-03-13T21:26:21.999Z</time>
      </trkpt>
      <trkpt lat="48.86256" lon="2.31224">
        <ele>87.11</ele>
        <time>2020-03-13T21:26:22.999Z</time>
      </trkpt>
      <trkpt lat="48.86256" lon="2.31232">
        <ele>87.11</ele>
        <time>2020-03-13T21:26:23.999Z</time>
      </trkpt>
      <trkpt lat="48.86256" lon="2.3124">
        <ele>87.1</ele>
        <time>2020-03-13T21:26:24.999Z</time>
      </trkpt>
      <trkpt lat="48.86256" lon="2.31248">
        <ele>87.09</ele>
        <time>2020-03-13T21:26:25.999Z</time>
      </trkpt>
      <trkpt lat="48.86257" lon="2.31256">
        <ele>87.08</ele>
        <time>2020-03-13T21:26:26.999Z</time>
      </trkpt>
      <trkpt lat="48.86256" lon="2.31263">
        <ele>87.07</ele>
        <time>2020-03-13T21:26:27.999Z</time>
      </trkpt>
      <trkpt lat="48.86256" lon="2.31271">
        <ele>87.06</ele>
        <time>2020-03-13T21:26:28.999Z</time>
      </trkpt>
      <trkpt lat="48.86256" lon="2.31278">
        <ele>87.03</ele>
        <time>2020-03-13T21:26:29.999Z</time>
      </trkpt>
      <trkpt lat="48.86255" lon="2.31284">
        <ele>87.01</ele>
        <time>2020-03-13T21:26:30.999Z</time>
      </trkpt>
      <trkpt lat="48.86255" lon="2.3129">
        <ele>87</ele>
        <time>2020-03-13T21:26:31.999Z</time>
      </trkpt>
      <trkpt lat="48.86255" lon="2.31296">
        <ele>86.98</ele>
        <time>2020-03-13T21:26:32.999Z</time>
      </trkpt>
      <trkpt lat="48.86255" lon="2.31302">
        <ele>86.98</ele>
        <time>2020-03-13T21:26:33.999Z</time>
      </trkpt>
      <trkpt lat="48.86256" lon="2.31307">
        <ele>86.98</ele>
        <time>2020-03-13T21:26:34.999Z</time>
      </trkpt>
      <trkpt lat="48.86256" lon="2.31312">
        <ele>86.97</ele>
        <time>2020-03-13T21:26:35.999Z</time>
      </trkpt>
      <trkpt lat="48.86256" lon="2.31317">
        <ele>86.97</ele>
        <time>2020-03-13T21:26:36.999Z</time>
      </trkpt>
      <trkpt lat="48.86256" lon="2.3132">
        <ele>86.97</ele>
        <time>2020-03-13T21:26:37.999Z</time>
      </trkpt>
      <trkpt lat="48.86256" lon="2.31324">
        <ele>86.97</ele>
        <time>2020-03-13T21:26:38.999Z</time>
      </trkpt>
      <trkpt lat="48.86256" lon="2.31328">
        <ele>86.96</ele>
        <time>2020-03-13T21:26:39.999Z</time>
      </trkpt>
      <trkpt lat="48.86256" lon="2.31331">
        <ele>86.96</ele>
        <time>2020-03-13T21:26:40.999Z</time>
      </trkpt>
      <trkpt lat="48.86256" lon="2.31334">
        <ele>86.96</ele>
        <time>2020-03-13T21:26:41.999Z</time>
      </trkpt>
      <trkpt lat="48.86257" lon="2.31336">
        <ele>86.96</ele>
        <time>2020-03-13T21:26:42.999Z</time>
      </trkpt>
      <trkpt lat="48.86257" lon="2.31338">
        <ele>86.95</ele>
        <time>2020-03-13T21:26:43.999Z</time>
      </trkpt>
      <trkpt lat="48.86258" lon="2.31339">
        <ele>86.95</ele>
        <time>2020-03-13T21:26:44.999Z</time>
      </trkpt>
      <trkpt lat="48.86262" lon="2.3134">
        <ele>86.96</ele>
        <time>2020-03-13T21:26:45.999Z</time>
      </trkpt>
      <trkpt lat="48.86267" lon="2.31336">
        <ele>86.96</ele>
        <time>2020-03-13T21:26:46.999Z</time>
      </trkpt>
      <trkpt lat="48.8627" lon="2.31335">
        <ele>86.97</ele>
        <time>2020-03-13T21:26:47.999Z</time>
      </trkpt>
      <trkpt lat="48.86272" lon="2.31335">
        <ele>86.98</ele>
        <time>2020-03-13T21:26:48.999Z</time>
      </trkpt>
      <trkpt lat="48.8627" lon="2.31337">
        <ele>86.99</ele>
        <time>2020-03-13T21:26:50.999Z</time>
      </trkpt>
      <trkpt lat="48.8627" lon="2.31339">
        <ele>87</ele>
        <time>2020-03-13T21:26:51.999Z</time>
      </trkpt>
      <trkpt lat="48.8627" lon="2.31342">
        <ele>87</ele>
        <time>2020-03-13T21:26:52.999Z</time>
      </trkpt>
      <trkpt lat="48.86272" lon="2.31341">
        <ele>87.01</ele>
        <time>2020-03-13T21:26:59.999Z</time>
      </trkpt>
      <trkpt lat="48.86272" lon="2.3134">
        <ele>87.01</ele>
        <time>2020-03-13T21:27:09.999Z</time>
      </trkpt>
      <trkpt lat="48.86273" lon="2.31339">
        <ele>86.95</ele>
        <time>2020-03-13T21:27:36.999Z</time>
      </trkpt>
      <trkpt lat="48.86272" lon="2.31338">
        <ele>86.87</ele>
        <time>2020-03-13T21:27:41.999Z</time>
      </trkpt>
      <trkpt lat="48.86272" lon="2.31336">
        <ele>86.84</ele>
        <time>2020-03-13T21:27:44.999Z</time>
      </trkpt>
      <trkpt lat="48.86272" lon="2.3134">
        <ele>86.8</ele>
        <time>2020-03-13T21:27:46.999Z</time>
      </trkpt>
      <trkpt lat="48.86273" lon="2.31345">
        <ele>86.77</ele>
        <time>2020-03-13T21:27:47.999Z</time>
      </trkpt>
      <trkpt lat="48.86273" lon="2.31349">
        <ele>86.75</ele>
        <time>2020-03-13T21:27:48.999Z</time>
      </trkpt>
      <trkpt lat="48.86274" lon="2.31355">
        <ele>86.73</ele>
        <time>2020-03-13T21:27:49.999Z</time>
      </trkpt>
      <trkpt lat="48.86275" lon="2.31361">
        <ele>86.71</ele>
        <time>2020-03-13T21:27:50.999Z</time>
      </trkpt>
      <trkpt lat="48.86275" lon="2.31368">
        <ele>86.49</ele>
        <time>2020-03-13T21:27:51.999Z</time>
      </trkpt>
      <trkpt lat="48.86277" lon="2.31374">
        <ele>86.31</ele>
        <time>2020-03-13T21:27:52.999Z</time>
      </trkpt>
      <trkpt lat="48.86277" lon="2.3138">
        <ele>86.17</ele>
        <time>2020-03-13T21:27:53.999Z</time>
      </trkpt>
      <trkpt lat="48.86276" lon="2.31386">
        <ele>86.06</ele>
        <time>2020-03-13T21:27:54.999Z</time>
      </trkpt>
      <trkpt lat="48.86277" lon="2.31393">
        <ele>85.96</ele>
        <time>2020-03-13T21:27:55.999Z</time>
      </trkpt>
      <trkpt lat="48.86277" lon="2.314">
        <ele>85.88</ele>
        <time>2020-03-13T21:27:56.999Z</time>
      </trkpt>
      <trkpt lat="48.86278" lon="2.31406">
        <ele>85.82</ele>
        <time>2020-03-13T21:27:57.999Z</time>
      </trkpt>
      <trkpt lat="48.86278" lon="2.31413">
        <ele>85.76</ele>
        <time>2020-03-13T21:27:58.999Z</time>
      </trkpt>
      <trkpt lat="48.86279" lon="2.3142">
        <ele>85.72</ele>
        <time>2020-03-13T21:27:59.999Z</time>
      </trkpt>
      <trkpt lat="48.86279" lon="2.31428">
        <ele>85.68</ele>
        <time>2020-03-13T21:28:00.999Z</time>
      </trkpt>
      <trkpt lat="48.86279" lon="2.31435">
        <ele>85.64</ele>
        <time>2020-03-13T21:28:01.999Z</time>
      </trkpt>
      <trkpt lat="48.8628" lon="2.31443">
        <ele>85.61</ele>
        <time>2020-03-13T21:28:02.999Z</time>
      </trkpt>
      <trkpt lat="48.8628" lon="2.31451">
        <ele>85.59</ele>
        <time>2020-03-13T21:28:03.999Z</time>
      </trkpt>
      <trkpt lat="48.8628" lon="2.3146">
        <ele>85.57</ele>
        <time>2020-03-13T21:28:04.999Z</time>
      </trkpt>
      <trkpt lat="48.8628" lon="2.31468">
        <ele>85.55</ele>
        <time>2020-03-13T21:28:05.999Z</time>
      </trkpt>
      <trkpt lat="48.8628" lon="2.31476">
        <ele>85.53</ele>
        <time>2020-03-13T21:28:06.999Z</time>
      </trkpt>
      <trkpt lat="48.86281" lon="2.31484">
        <ele>85.53</ele>
        <time>2020-03-13T21:28:07.999Z</time>
      </trkpt>
      <trkpt lat="48.86281" lon="2.31492">
        <ele>85.52</ele>
        <time>2020-03-13T21:28:08.999Z</time>
      </trkpt>
      <trkpt lat="48.86281" lon="2.31507">
        <ele>85.51</ele>
        <time>2020-03-13T21:28:10.999Z</time>
      </trkpt>
      <trkpt lat="48.86281" lon="2.31516">
        <ele>85.5</ele>
        <time>2020-03-13T21:28:11.999Z</time>
      </trkpt>
      <trkpt lat="48.86281" lon="2.31524">
        <ele>85.49</ele>
        <time>2020-03-13T21:28:12.999Z</time>
      </trkpt>
      <trkpt lat="48.86281" lon="2.31533">
        <ele>85.49</ele>
        <time>2020-03-13T21:28:13.999Z</time>
      </trkpt>
      <trkpt lat="48.86281" lon="2.31541">
        <ele>85.48</ele>
        <time>2020-03-13T21:28:14.999Z</time>
      </trkpt>
      <trkpt lat="48.86281" lon="2.3155">
        <ele>85.47</ele>
        <time>2020-03-13T21:28:15.999Z</time>
      </trkpt>
      <trkpt lat="48.86281" lon="2.3156">
        <ele>85.46</ele>
        <time>2020-03-13T21:28:16.999Z</time>
      </trkpt>
      <trkpt lat="48.86281" lon="2.31569">
        <ele>85.46</ele>
        <time>2020-03-13T21:28:17.999Z</time>
      </trkpt>
      <trkpt lat="48.86281" lon="2.31578">
        <ele>85.45</ele>
        <time>2020-03-13T21:28:18.999Z</time>
      </trkpt>
      <trkpt lat="48.86281" lon="2.31588">
        <ele>85.45</ele>
        <time>2020-03-13T21:28:19.999Z</time>
      </trkpt>
      <trkpt lat="48.86281" lon="2.31598">
        <ele>85.46</ele>
        <time>2020-03-13T21:28:20.999Z</time>
      </trkpt>
      <trkpt lat="48.8628" lon="2.31609">
        <ele>85.46</ele>
        <time>2020-03-13T21:28:21.999Z</time>
      </trkpt>
      <trkpt lat="48.86279" lon="2.31619">
        <ele>85.46</ele>
        <time>2020-03-13T21:28:22.999Z</time>
      </trkpt>
      <trkpt lat="48.86279" lon="2.3163">
        <ele>85.46</ele>
        <time>2020-03-13T21:28:23.999Z</time>
      </trkpt>
      <trkpt lat="48.86278" lon="2.3164">
        <ele>85.46</ele>
        <time>2020-03-13T21:28:24.999Z</time>
      </trkpt>
      <trkpt lat="48.86278" lon="2.3165">
        <ele>85.46</ele>
        <time>2020-03-13T21:28:25.999Z</time>
      </trkpt>
      <trkpt lat="48.86278" lon="2.3166">
        <ele>85.46</ele>
        <time>2020-03-13T21:28:26.999Z</time>
      </trkpt>
      <trkpt lat="48.86278" lon="2.3167">
        <ele>85.42</ele>
        <time>2020-03-13T21:28:27.999Z</time>
      </trkpt>
      <trkpt lat="48.86277" lon="2.31681">
        <ele>85.37</ele>
        <time>2020-03-13T21:28:28.999Z</time>
      </trkpt>
      <trkpt lat="48.86276" lon="2.31691">
        <ele>85.34</ele>
        <time>2020-03-13T21:28:29.999Z</time>
      </trkpt>
      <trkpt lat="48.86275" lon="2.31701">
        <ele>85.32</ele>
        <time>2020-03-13T21:28:30.999Z</time>
      </trkpt>
      <trkpt lat="48.86275" lon="2.31711">
        <ele>85.33</ele>
        <time>2020-03-13T21:28:31.999Z</time>
      </trkpt>
      <trkpt lat="48.86275" lon="2.31722">
        <ele>85.25</ele>
        <time>2020-03-13T21:28:32.999Z</time>
      </trkpt>
      <trkpt lat="48.86275" lon="2.31732">
        <ele>85.22</ele>
        <time>2020-03-13T21:28:33.999Z</time>
      </trkpt>
      <trkpt lat="48.86275" lon="2.31743">
        <ele>85.26</ele>
        <time>2020-03-13T21:28:34.999Z</time>
      </trkpt>
      <trkpt lat="48.86275" lon="2.31753">
        <ele>85.28</ele>
        <time>2020-03-13T21:28:35.999Z</time>
      </trkpt>
      <trkpt lat="48.86274" lon="2.31763">
        <ele>85.29</ele>
        <time>2020-03-13T21:28:36.999Z</time>
      </trkpt>
      <trkpt lat="48.86275" lon="2.31773">
        <ele>85.31</ele>
        <time>2020-03-13T21:28:37.999Z</time>
      </trkpt>
      <trkpt lat="48.86274" lon="2.31782">
        <ele>85.32</ele>
        <time>2020-03-13T21:28:38.999Z</time>
      </trkpt>
      <trkpt lat="48.86274" lon="2.31791">
        <ele>85.34</ele>
        <time>2020-03-13T21:28:39.999Z</time>
      </trkpt>
      <trkpt lat="48.86273" lon="2.318">
        <ele>85.29</ele>
        <time>2020-03-13T21:28:40.999Z</time>
      </trkpt>
      <trkpt lat="48.86273" lon="2.31807">
        <ele>85.35</ele>
        <time>2020-03-13T21:28:41.999Z</time>
      </trkpt>
      <trkpt lat="48.86272" lon="2.31814">
        <ele>85.6</ele>
        <time>2020-03-13T21:28:42.999Z</time>
      </trkpt>
      <trkpt lat="48.86271" lon="2.31821">
        <ele>85.84</ele>
        <time>2020-03-13T21:28:43.999Z</time>
      </trkpt>
      <trkpt lat="48.8627" lon="2.31828">
        <ele>86.01</ele>
        <time>2020-03-13T21:28:44.999Z</time>
      </trkpt>
      <trkpt lat="48.86269" lon="2.31834">
        <ele>86.18</ele>
        <time>2020-03-13T21:28:45.999Z</time>
      </trkpt>
      <trkpt lat="48.86268" lon="2.3184">
        <ele>86.36</ele>
        <time>2020-03-13T21:28:46.999Z</time>
      </trkpt>
      <trkpt lat="48.86267" lon="2.31846">
        <ele>86.54</ele>
        <time>2020-03-13T21:28:47.999Z</time>
      </trkpt>
      <trkpt lat="48.86266" lon="2.31851">
        <ele>86.66</ele>
        <time>2020-03-13T21:28:48.999Z</time>
      </trkpt>
      <trkpt lat="48.86264" lon="2.31856">
        <ele>86.81</ele>
        <time>2020-03-13T21:28:49.999Z</time>
      </trkpt>
      <trkpt lat="48.86263" lon="2.31862">
        <ele>86.88</ele>
        <time>2020-03-13T21:28:50.999Z</time>
      </trkpt>
      <trkpt lat="48.86261" lon="2.31867">
        <ele>86.88</ele>
        <time>2020-03-13T21:28:51.999Z</time>
      </trkpt>
      <trkpt lat="48.8626" lon="2.31872">
        <ele>86.9</ele>
        <time>2020-03-13T21:28:52.999Z</time>
      </trkpt>
      <trkpt lat="48.86258" lon="2.31877">
        <ele>86.88</ele>
        <time>2020-03-13T21:28:53.999Z</time>
      </trkpt>
      <trkpt lat="48.86257" lon="2.31882">
        <ele>86.88</ele>
        <time>2020-03-13T21:28:54.999Z</time>
      </trkpt>
      <trkpt lat="48.86254" lon="2.31887">
        <ele>86.86</ele>
        <time>2020-03-13T21:28:55.999Z</time>
      </trkpt>
      <trkpt lat="48.86252" lon="2.31892">
        <ele>86.88</ele>
        <time>2020-03-13T21:28:56.999Z</time>
      </trkpt>
      <trkpt lat="48.86249" lon="2.31897">
        <ele>86.91</ele>
        <time>2020-03-13T21:28:57.999Z</time>
      </trkpt>
      <trkpt lat="48.86247" lon="2.31902">
        <ele>86.97</ele>
        <time>2020-03-13T21:28:58.999Z</time>
      </trkpt>
      <trkpt lat="48.86245" lon="2.31908">
        <ele>86.86</ele>
        <time>2020-03-13T21:28:59.999Z</time>
      </trkpt>
      <trkpt lat="48.86242" lon="2.31914">
        <ele>86.66</ele>
        <time>2020-03-13T21:29:00.999Z</time>
      </trkpt>
      <trkpt lat="48.8624" lon="2.31919">
        <ele>86.39</ele>
        <time>2020-03-13T21:29:01.999Z</time>
      </trkpt>
      <trkpt lat="48.86237" lon="2.31927">
        <ele>86.21</ele>
        <time>2020-03-13T21:29:02.999Z</time>
      </trkpt>
      <trkpt lat="48.86233" lon="2.31933">
        <ele>85.89</ele>
        <time>2020-03-13T21:29:03.999Z</time>
      </trkpt>
      <trkpt lat="48.8623" lon="2.31938">
        <ele>85.59</ele>
        <time>2020-03-13T21:29:04.999Z</time>
      </trkpt>
      <trkpt lat="48.86226" lon="2.31944">
        <ele>85.19</ele>
        <time>2020-03-13T21:29:05.999Z</time>
      </trkpt>
      <trkpt lat="48.86222" lon="2.31948">
        <ele>84.84</ele>
        <time>2020-03-13T21:29:06.999Z</time>
      </trkpt>
      <trkpt lat="48.86218" lon="2.31952">
        <ele>84.54</ele>
        <time>2020-03-13T21:29:07.999Z</time>
      </trkpt>
      <trkpt lat="48.86212" lon="2.31959">
        <ele>84.37</ele>
        <time>2020-03-13T21:29:08.999Z</time>
      </trkpt>
      <trkpt lat="48.86208" lon="2.31964">
        <ele>84.29</ele>
        <time>2020-03-13T21:29:09.999Z</time>
      </trkpt>
      <trkpt lat="48.86204" lon="2.31969">
        <ele>84.2</ele>
        <time>2020-03-13T21:29:10.999Z</time>
      </trkpt>
      <trkpt lat="48.862" lon="2.31972">
        <ele>84.11</ele>
        <time>2020-03-13T21:29:11.999Z</time>
      </trkpt>
      <trkpt lat="48.86196" lon="2.31977">
        <ele>84.02</ele>
        <time>2020-03-13T21:29:12.999Z</time>
      </trkpt>
      <trkpt lat="48.86191" lon="2.3198">
        <ele>83.91</ele>
        <time>2020-03-13T21:29:13.999Z</time>
      </trkpt>
      <trkpt lat="48.86187" lon="2.31981">
        <ele>83.81</ele>
        <time>2020-03-13T21:29:14.999Z</time>
      </trkpt>
      <trkpt lat="48.86184" lon="2.31983">
        <ele>83.81</ele>
        <time>2020-03-13T21:29:15.999Z</time>
      </trkpt>
      <trkpt lat="48.86182" lon="2.31984">
        <ele>83.73</ele>
        <time>2020-03-13T21:29:16.999Z</time>
      </trkpt>
      <trkpt lat="48.86179" lon="2.31985">
        <ele>83.66</ele>
        <time>2020-03-13T21:29:17.999Z</time>
      </trkpt>
      <trkpt lat="48.86176" lon="2.31987">
        <ele>83.59</ele>
        <time>2020-03-13T21:29:18.999Z</time>
      </trkpt>
      <trkpt lat="48.86167" lon="2.31992">
        <ele>83.41</ele>
        <time>2020-03-13T21:29:20.999Z</time>
      </trkpt>
      <trkpt lat="48.86161" lon="2.31994">
        <ele>83.34</ele>
        <time>2020-03-13T21:29:21.999Z</time>
      </trkpt>
      <trkpt lat="48.86156" lon="2.31995">
        <ele>83.29</ele>
        <time>2020-03-13T21:29:22.999Z</time>
      </trkpt>
      <trkpt lat="48.8615" lon="2.31996">
        <ele>83.27</ele>
        <time>2020-03-13T21:29:23.999Z</time>
      </trkpt>
      <trkpt lat="48.86142" lon="2.32001">
        <ele>83.2</ele>
        <time>2020-03-13T21:29:25.999Z</time>
      </trkpt>
      <trkpt lat="48.86138" lon="2.32007">
        <ele>83.15</ele>
        <time>2020-03-13T21:29:26.999Z</time>
      </trkpt>
      <trkpt lat="48.86131" lon="2.32007">
        <ele>83.11</ele>
        <time>2020-03-13T21:29:27.999Z</time>
      </trkpt>
      <trkpt lat="48.86126" lon="2.32011">
        <ele>83.06</ele>
        <time>2020-03-13T21:29:28.999Z</time>
      </trkpt>
      <trkpt lat="48.86122" lon="2.32015">
        <ele>83.02</ele>
        <time>2020-03-13T21:29:29.999Z</time>
      </trkpt>
      <trkpt lat="48.86112" lon="2.32027">
        <ele>83</ele>
        <time>2020-03-13T21:29:31.999Z</time>
      </trkpt>
      <trkpt lat="48.8611" lon="2.32032">
        <ele>83</ele>
        <time>2020-03-13T21:29:32.999Z</time>
      </trkpt>
      <trkpt lat="48.86109" lon="2.32043">
        <ele>83.01</ele>
        <time>2020-03-13T21:29:33.999Z</time>
      </trkpt>
      <trkpt lat="48.86105" lon="2.3205">
        <ele>83.01</ele>
        <time>2020-03-13T21:29:34.999Z</time>
      </trkpt>
      <trkpt lat="48.861" lon="2.32054">
        <ele>83.01</ele>
        <time>2020-03-13T21:29:35.999Z</time>
      </trkpt>
      <trkpt lat="48.86093" lon="2.32061">
        <ele>83.03</ele>
        <time>2020-03-13T21:29:36.999Z</time>
      </trkpt>
      <trkpt lat="48.86087" lon="2.32067">
        <ele>83.06</ele>
        <time>2020-03-13T21:29:37.999Z</time>
      </trkpt>
      <trkpt lat="48.86081" lon="2.32073">
        <ele>83.08</ele>
        <time>2020-03-13T21:29:38.999Z</time>
      </trkpt>
      <trkpt lat="48.86075" lon="2.32078">
        <ele>83.08</ele>
        <time>2020-03-13T21:29:39.999Z</time>
      </trkpt>
      <trkpt lat="48.86069" lon="2.32085">
        <ele>83.1</ele>
        <time>2020-03-13T21:29:40.999Z</time>
      </trkpt>
      <trkpt lat="48.86064" lon="2.32091">
        <ele>83.1</ele>
        <time>2020-03-13T21:29:41.999Z</time>
      </trkpt>
      <trkpt lat="48.86059" lon="2.32095">
        <ele>83.09</ele>
        <time>2020-03-13T21:29:42.999Z</time>
      </trkpt>
      <trkpt lat="48.86053" lon="2.32103">
        <ele>83.09</ele>
        <time>2020-03-13T21:29:43.999Z</time>
      </trkpt>
      <trkpt lat="48.86048" lon="2.32111">
        <ele>83.07</ele>
        <time>2020-03-13T21:29:44.999Z</time>
      </trkpt>
      <trkpt lat="48.86042" lon="2.32118">
        <ele>83.05</ele>
        <time>2020-03-13T21:29:45.999Z</time>
      </trkpt>
      <trkpt lat="48.86037" lon="2.32124">
        <ele>83.03</ele>
        <time>2020-03-13T21:29:46.999Z</time>
      </trkpt>
      <trkpt lat="48.86032" lon="2.32129">
        <ele>82.99</ele>
        <time>2020-03-13T21:29:47.999Z</time>
      </trkpt>
      <trkpt lat="48.86023" lon="2.3214">
        <ele>82.94</ele>
        <time>2020-03-13T21:29:49.999Z</time>
      </trkpt>
      <trkpt lat="48.86019" lon="2.32145">
        <ele>82.91</ele>
        <time>2020-03-13T21:29:50.999Z</time>
      </trkpt>
      <trkpt lat="48.86009" lon="2.32154">
        <ele>82.88</ele>
        <time>2020-03-13T21:29:52.999Z</time>
      </trkpt>
      <trkpt lat="48.86001" lon="2.32161">
        <ele>82.93</ele>
        <time>2020-03-13T21:29:54.999Z</time>
      </trkpt>
      <trkpt lat="48.85991" lon="2.3217">
        <ele>82.98</ele>
        <time>2020-03-13T21:29:56.999Z</time>
      </trkpt>
      <trkpt lat="48.85986" lon="2.32174">
        <ele>83.01</ele>
        <time>2020-03-13T21:29:57.999Z</time>
      </trkpt>
      <trkpt lat="48.85981" lon="2.32179">
        <ele>83.02</ele>
        <time>2020-03-13T21:29:58.999Z</time>
      </trkpt>
      <trkpt lat="48.85976" lon="2.32183">
        <ele>83.04</ele>
        <time>2020-03-13T21:29:59.999Z</time>
      </trkpt>
      <trkpt lat="48.85971" lon="2.32187">
        <ele>83.06</ele>
        <time>2020-03-13T21:30:00.999Z</time>
      </trkpt>
      <trkpt lat="48.85961" lon="2.32196">
        <ele>83.08</ele>
        <time>2020-03-13T21:30:02.999Z</time>
      </trkpt>
      <trkpt lat="48.85956" lon="2.32201">
        <ele>83.11</ele>
        <time>2020-03-13T21:30:03.999Z</time>
      </trkpt>
      <trkpt lat="48.85951" lon="2.32205">
        <ele>83.13</ele>
        <time>2020-03-13T21:30:04.999Z</time>
      </trkpt>
      <trkpt lat="48.85946" lon="2.3221">
        <ele>83.16</ele>
        <time>2020-03-13T21:30:05.999Z</time>
      </trkpt>
      <trkpt lat="48.85936" lon="2.32218">
        <ele>83.2</ele>
        <time>2020-03-13T21:30:07.999Z</time>
      </trkpt>
      <trkpt lat="48.85926" lon="2.32227">
        <ele>83.23</ele>
        <time>2020-03-13T21:30:09.999Z</time>
      </trkpt>
      <trkpt lat="48.85921" lon="2.32231">
        <ele>83.25</ele>
        <time>2020-03-13T21:30:10.999Z</time>
      </trkpt>
      <trkpt lat="48.85911" lon="2.3224">
        <ele>83.28</ele>
        <time>2020-03-13T21:30:12.999Z</time>
      </trkpt>
      <trkpt lat="48.85906" lon="2.32245">
        <ele>83.29</ele>
        <time>2020-03-13T21:30:13.999Z</time>
      </trkpt>
      <trkpt lat="48.85901" lon="2.32249">
        <ele>83.28</ele>
        <time>2020-03-13T21:30:14.999Z</time>
      </trkpt>
      <trkpt lat="48.85896" lon="2.32253">
        <ele>83.28</ele>
        <time>2020-03-13T21:30:15.999Z</time>
      </trkpt>
      <trkpt lat="48.85891" lon="2.32257">
        <ele>83.28</ele>
        <time>2020-03-13T21:30:16.999Z</time>
      </trkpt>
      <trkpt lat="48.85886" lon="2.32263">
        <ele>83.27</ele>
        <time>2020-03-13T21:30:17.999Z</time>
      </trkpt>
      <trkpt lat="48.85876" lon="2.32275">
        <ele>83.23</ele>
        <time>2020-03-13T21:30:19.999Z</time>
      </trkpt>
      <trkpt lat="48.85871" lon="2.32279">
        <ele>83.21</ele>
        <time>2020-03-13T21:30:20.999Z</time>
      </trkpt>
      <trkpt lat="48.85862" lon="2.32287">
        <ele>83.15</ele>
        <time>2020-03-13T21:30:22.999Z</time>
      </trkpt>
      <trkpt lat="48.85858" lon="2.32291">
        <ele>83.12</ele>
        <time>2020-03-13T21:30:23.999Z</time>
      </trkpt>
      <trkpt lat="48.8585" lon="2.32299">
        <ele>83.08</ele>
        <time>2020-03-13T21:30:25.999Z</time>
      </trkpt>
      <trkpt lat="48.85845" lon="2.32303">
        <ele>83.08</ele>
        <time>2020-03-13T21:30:26.999Z</time>
      </trkpt>
      <trkpt lat="48.85837" lon="2.32307">
        <ele>83.07</ele>
        <time>2020-03-13T21:30:28.999Z</time>
      </trkpt>
      <trkpt lat="48.85829" lon="2.32314">
        <ele>83</ele>
        <time>2020-03-13T21:30:30.999Z</time>
      </trkpt>
      <trkpt lat="48.85824" lon="2.32319">
        <ele>82.96</ele>
        <time>2020-03-13T21:30:31.999Z</time>
      </trkpt>
      <trkpt lat="48.8582" lon="2.32322">
        <ele>82.95</ele>
        <time>2020-03-13T21:30:32.999Z</time>
      </trkpt>
      <trkpt lat="48.85817" lon="2.32326">
        <ele>82.92</ele>
        <time>2020-03-13T21:30:33.999Z</time>
      </trkpt>
      <trkpt lat="48.85808" lon="2.32332">
        <ele>82.84</ele>
        <time>2020-03-13T21:30:35.999Z</time>
      </trkpt>
      <trkpt lat="48.85798" lon="2.32337">
        <ele>82.78</ele>
        <time>2020-03-13T21:30:37.999Z</time>
      </trkpt>
      <trkpt lat="48.85794" lon="2.3234">
        <ele>82.75</ele>
        <time>2020-03-13T21:30:38.999Z</time>
      </trkpt>
      <trkpt lat="48.85783" lon="2.32351">
        <ele>82.71</ele>
        <time>2020-03-13T21:30:40.999Z</time>
      </trkpt>
      <trkpt lat="48.85778" lon="2.32357">
        <ele>82.68</ele>
        <time>2020-03-13T21:30:41.999Z</time>
      </trkpt>
      <trkpt lat="48.85768" lon="2.32366">
        <ele>82.6</ele>
        <time>2020-03-13T21:30:43.999Z</time>
      </trkpt>
      <trkpt lat="48.85762" lon="2.32372">
        <ele>82.56</ele>
        <time>2020-03-13T21:30:44.999Z</time>
      </trkpt>
      <trkpt lat="48.85758" lon="2.32377">
        <ele>82.52</ele>
        <time>2020-03-13T21:30:45.999Z</time>
      </trkpt>
      <trkpt lat="48.85753" lon="2.32382">
        <ele>82.51</ele>
        <time>2020-03-13T21:30:46.999Z</time>
      </trkpt>
      <trkpt lat="48.85748" lon="2.32386">
        <ele>82.49</ele>
        <time>2020-03-13T21:30:47.999Z</time>
      </trkpt>
      <trkpt lat="48.85744" lon="2.3239">
        <ele>82.47</ele>
        <time>2020-03-13T21:30:48.999Z</time>
      </trkpt>
      <trkpt lat="48.8574" lon="2.32394">
        <ele>82.44</ele>
        <time>2020-03-13T21:30:49.999Z</time>
      </trkpt>
      <trkpt lat="48.85734" lon="2.324">
        <ele>82.42</ele>
        <time>2020-03-13T21:30:50.999Z</time>
      </trkpt>
      <trkpt lat="48.85729" lon="2.32404">
        <ele>82.4</ele>
        <time>2020-03-13T21:30:51.999Z</time>
      </trkpt>
      <trkpt lat="48.85724" lon="2.32408">
        <ele>82.39</ele>
        <time>2020-03-13T21:30:52.999Z</time>
      </trkpt>
      <trkpt lat="48.8572" lon="2.32412">
        <ele>82.38</ele>
        <time>2020-03-13T21:30:53.999Z</time>
      </trkpt>
      <trkpt lat="48.85715" lon="2.32416">
        <ele>82.37</ele>
        <time>2020-03-13T21:30:54.999Z</time>
      </trkpt>
      <trkpt lat="48.85711" lon="2.32421">
        <ele>82.37</ele>
        <time>2020-03-13T21:30:55.999Z</time>
      </trkpt>
      <trkpt lat="48.85706" lon="2.32425">
        <ele>82.37</ele>
        <time>2020-03-13T21:30:56.999Z</time>
      </trkpt>
      <trkpt lat="48.85702" lon="2.32429">
        <ele>82.36</ele>
        <time>2020-03-13T21:30:57.999Z</time>
      </trkpt>
      <trkpt lat="48.85697" lon="2.32434">
        <ele>82.36</ele>
        <time>2020-03-13T21:30:58.999Z</time>
      </trkpt>
      <trkpt lat="48.85693" lon="2.32438">
        <ele>82.38</ele>
        <time>2020-03-13T21:30:59.999Z</time>
      </trkpt>
      <trkpt lat="48.85689" lon="2.32445">
        <ele>82.4</ele>
        <time>2020-03-13T21:31:00.999Z</time>
      </trkpt>
      <trkpt lat="48.85684" lon="2.32451">
        <ele>82.43</ele>
        <time>2020-03-13T21:31:01.999Z</time>
      </trkpt>
      <trkpt lat="48.85681" lon="2.32455">
        <ele>82.44</ele>
        <time>2020-03-13T21:31:02.999Z</time>
      </trkpt>
      <trkpt lat="48.85677" lon="2.3246">
        <ele>82.45</ele>
        <time>2020-03-13T21:31:03.999Z</time>
      </trkpt>
      <trkpt lat="48.85674" lon="2.32466">
        <ele>82.44</ele>
        <time>2020-03-13T21:31:04.999Z</time>
      </trkpt>
      <trkpt lat="48.8567" lon="2.32472">
        <ele>82.44</ele>
        <time>2020-03-13T21:31:05.999Z</time>
      </trkpt>
      <trkpt lat="48.85666" lon="2.32479">
        <ele>82.43</ele>
        <time>2020-03-13T21:31:06.999Z</time>
      </trkpt>
      <trkpt lat="48.85663" lon="2.32484">
        <ele>82.42</ele>
        <time>2020-03-13T21:31:07.999Z</time>
      </trkpt>
      <trkpt lat="48.85659" lon="2.32489">
        <ele>82.39</ele>
        <time>2020-03-13T21:31:08.999Z</time>
      </trkpt>
      <trkpt lat="48.85656" lon="2.32495">
        <ele>82.36</ele>
        <time>2020-03-13T21:31:09.999Z</time>
      </trkpt>
      <trkpt lat="48.85653" lon="2.325">
        <ele>82.33</ele>
        <time>2020-03-13T21:31:10.999Z</time>
      </trkpt>
      <trkpt lat="48.8565" lon="2.32504">
        <ele>82.3</ele>
        <time>2020-03-13T21:31:11.999Z</time>
      </trkpt>
      <trkpt lat="48.85647" lon="2.32507">
        <ele>82.3</ele>
        <time>2020-03-13T21:31:12.999Z</time>
      </trkpt>
      <trkpt lat="48.85644" lon="2.32511">
        <ele>82.26</ele>
        <time>2020-03-13T21:31:13.999Z</time>
      </trkpt>
      <trkpt lat="48.8564" lon="2.32516">
        <ele>82.23</ele>
        <time>2020-03-13T21:31:14.999Z</time>
      </trkpt>
      <trkpt lat="48.85636" lon="2.32521">
        <ele>82.21</ele>
        <time>2020-03-13T21:31:15.999Z</time>
      </trkpt>
      <trkpt lat="48.85633" lon="2.32525">
        <ele>82.2</ele>
        <time>2020-03-13T21:31:16.999Z</time>
      </trkpt>
      <trkpt lat="48.8563" lon="2.32529">
        <ele>82.2</ele>
        <time>2020-03-13T21:31:17.999Z</time>
      </trkpt>
      <trkpt lat="48.85627" lon="2.32534">
        <ele>82.2</ele>
        <time>2020-03-13T21:31:18.999Z</time>
      </trkpt>
      <trkpt lat="48.85625" lon="2.32538">
        <ele>82.19</ele>
        <time>2020-03-13T21:31:19.999Z</time>
      </trkpt>
      <trkpt lat="48.85621" lon="2.32544">
        <ele>82.18</ele>
        <time>2020-03-13T21:31:20.999Z</time>
      </trkpt>
      <trkpt lat="48.85619" lon="2.32548">
        <ele>82.18</ele>
        <time>2020-03-13T21:31:21.999Z</time>
      </trkpt>
      <trkpt lat="48.85618" lon="2.32551">
        <ele>82.17</ele>
        <time>2020-03-13T21:31:22.999Z</time>
      </trkpt>
      <trkpt lat="48.85616" lon="2.32555">
        <ele>82.17</ele>
        <time>2020-03-13T21:31:23.999Z</time>
      </trkpt>
      <trkpt lat="48.85614" lon="2.32557">
        <ele>82.16</ele>
        <time>2020-03-13T21:31:24.999Z</time>
      </trkpt>
      <trkpt lat="48.85613" lon="2.32559">
        <ele>82.16</ele>
        <time>2020-03-13T21:31:25.999Z</time>
      </trkpt>
      <trkpt lat="48.85611" lon="2.32563">
        <ele>82.16</ele>
        <time>2020-03-13T21:31:26.999Z</time>
      </trkpt>
      <trkpt lat="48.8561" lon="2.32565">
        <ele>82.15</ele>
        <time>2020-03-13T21:31:27.999Z</time>
      </trkpt>
      <trkpt lat="48.85608" lon="2.32569">
        <ele>82.15</ele>
        <time>2020-03-13T21:31:28.999Z</time>
      </trkpt>
      <trkpt lat="48.85608" lon="2.3257">
        <ele>82.15</ele>
        <time>2020-03-13T21:31:29.999Z</time>
      </trkpt>
      <trkpt lat="48.85607" lon="2.32571">
        <ele>82.15</ele>
        <time>2020-03-13T21:31:30.999Z</time>
      </trkpt>
      <trkpt lat="48.85607" lon="2.32572">
        <ele>82.16</ele>
        <time>2020-03-13T21:31:32.999Z</time>
      </trkpt>
      <trkpt lat="48.85607" lon="2.32574">
        <ele>82.17</ele>
        <time>2020-03-13T21:31:34.999Z</time>
      </trkpt>
      <trkpt lat="48.85606" lon="2.32575">
        <ele>82.18</ele>
        <time>2020-03-13T21:31:36.999Z</time>
      </trkpt>
      <trkpt lat="48.85604" lon="2.32576">
        <ele>82.19</ele>
        <time>2020-03-13T21:31:38.999Z</time>
      </trkpt>
      <trkpt lat="48.85603" lon="2.32577">
        <ele>82.2</ele>
        <time>2020-03-13T21:31:40.999Z</time>
      </trkpt>
      <trkpt lat="48.85602" lon="2.32578">
        <ele>82.21</ele>
        <time>2020-03-13T21:31:41.999Z</time>
      </trkpt>
      <trkpt lat="48.85601" lon="2.32579">
        <ele>82.22</ele>
        <time>2020-03-13T21:31:42.999Z</time>
      </trkpt>
      <trkpt lat="48.85601" lon="2.32581">
        <ele>82.23</ele>
        <time>2020-03-13T21:31:43.999Z</time>
      </trkpt>
      <trkpt lat="48.856" lon="2.32583">
        <ele>82.24</ele>
        <time>2020-03-13T21:31:44.999Z</time>
      </trkpt>
      <trkpt lat="48.856" lon="2.32585">
        <ele>82.25</ele>
        <time>2020-03-13T21:31:45.999Z</time>
      </trkpt>
      <trkpt lat="48.85601" lon="2.32589">
        <ele>82.26</ele>
        <time>2020-03-13T21:31:46.999Z</time>
      </trkpt>
      <trkpt lat="48.85601" lon="2.32591">
        <ele>82.27</ele>
        <time>2020-03-13T21:31:47.999Z</time>
      </trkpt>
      <trkpt lat="48.85602" lon="2.32595">
        <ele>82.28</ele>
        <time>2020-03-13T21:31:48.999Z</time>
      </trkpt>
      <trkpt lat="48.85603" lon="2.32598">
        <ele>82.29</ele>
        <time>2020-03-13T21:31:49.999Z</time>
      </trkpt>
      <trkpt lat="48.85604" lon="2.32603">
        <ele>82.3</ele>
        <time>2020-03-13T21:31:50.999Z</time>
      </trkpt>
      <trkpt lat="48.85606" lon="2.32608">
        <ele>82.31</ele>
        <time>2020-03-13T21:31:51.999Z</time>
      </trkpt>
      <trkpt lat="48.85608" lon="2.32612">
        <ele>82.32</ele>
        <time>2020-03-13T21:31:52.999Z</time>
      </trkpt>
      <trkpt lat="48.8561" lon="2.32617">
        <ele>82.33</ele>
        <time>2020-03-13T21:31:53.999Z</time>
      </trkpt>
      <trkpt lat="48.85612" lon="2.3262">
        <ele>82.35</ele>
        <time>2020-03-13T21:31:54.999Z</time>
      </trkpt>
      <trkpt lat="48.85614" lon="2.32624">
        <ele>82.36</ele>
        <time>2020-03-13T21:31:55.999Z</time>
      </trkpt>
      <trkpt lat="48.85616" lon="2.32629">
        <ele>82.37</ele>
        <time>2020-03-13T21:31:56.999Z</time>
      </trkpt>
      <trkpt lat="48.85618" lon="2.32633">
        <ele>82.38</ele>
        <time>2020-03-13T21:31:57.999Z</time>
      </trkpt>
      <trkpt lat="48.8562" lon="2.32639">
        <ele>82.39</ele>
        <time>2020-03-13T21:31:58.999Z</time>
      </trkpt>
      <trkpt lat="48.85623" lon="2.32644">
        <ele>82.53</ele>
        <time>2020-03-13T21:31:59.999Z</time>
      </trkpt>
      <trkpt lat="48.85625" lon="2.32649">
        <ele>82.65</ele>
        <time>2020-03-13T21:32:00.999Z</time>
      </trkpt>
      <trkpt lat="48.85628" lon="2.32654">
        <ele>82.74</ele>
        <time>2020-03-13T21:32:01.999Z</time>
      </trkpt>
      <trkpt lat="48.8563" lon="2.32659">
        <ele>82.83</ele>
        <time>2020-03-13T21:32:02.999Z</time>
      </trkpt>
      <trkpt lat="48.85633" lon="2.32663">
        <ele>82.89</ele>
        <time>2020-03-13T21:32:03.999Z</time>
      </trkpt>
      <trkpt lat="48.85635" lon="2.32668">
        <ele>82.96</ele>
        <time>2020-03-13T21:32:04.999Z</time>
      </trkpt>
      <trkpt lat="48.85637" lon="2.32674">
        <ele>83.01</ele>
        <time>2020-03-13T21:32:05.999Z</time>
      </trkpt>
      <trkpt lat="48.8564" lon="2.32679">
        <ele>83.06</ele>
        <time>2020-03-13T21:32:06.999Z</time>
      </trkpt>
      <trkpt lat="48.85642" lon="2.32684">
        <ele>83.09</ele>
        <time>2020-03-13T21:32:07.999Z</time>
      </trkpt>
      <trkpt lat="48.85645" lon="2.3269">
        <ele>83.11</ele>
        <time>2020-03-13T21:32:08.999Z</time>
      </trkpt>
      <trkpt lat="48.85648" lon="2.32695">
        <ele>83.13</ele>
        <time>2020-03-13T21:32:09.999Z</time>
      </trkpt>
      <trkpt lat="48.85651" lon="2.327">
        <ele>83.14</ele>
        <time>2020-03-13T21:32:10.999Z</time>
      </trkpt>
      <trkpt lat="48.85654" lon="2.32706">
        <ele>83.16</ele>
        <time>2020-03-13T21:32:11.999Z</time>
      </trkpt>
      <trkpt lat="48.85657" lon="2.32711">
        <ele>83.18</ele>
        <time>2020-03-13T21:32:12.999Z</time>
      </trkpt>
      <trkpt lat="48.8566" lon="2.32716">
        <ele>83.19</ele>
        <time>2020-03-13T21:32:13.999Z</time>
      </trkpt>
      <trkpt lat="48.85663" lon="2.32721">
        <ele>83.22</ele>
        <time>2020-03-13T21:32:14.999Z</time>
      </trkpt>
      <trkpt lat="48.85667" lon="2.32725">
        <ele>83.26</ele>
        <time>2020-03-13T21:32:15.999Z</time>
      </trkpt>
      <trkpt lat="48.85673" lon="2.32729">
        <ele>83.31</ele>
        <time>2020-03-13T21:32:16.999Z</time>
      </trkpt>
      <trkpt lat="48.85679" lon="2.32735">
        <ele>83.37</ele>
        <time>2020-03-13T21:32:17.999Z</time>
      </trkpt>
      <trkpt lat="48.85684" lon="2.32738">
        <ele>83.44</ele>
        <time>2020-03-13T21:32:18.999Z</time>
      </trkpt>
      <trkpt lat="48.85691" lon="2.32741">
        <ele>83.51</ele>
        <time>2020-03-13T21:32:19.999Z</time>
      </trkpt>
      <trkpt lat="48.85694" lon="2.32747">
        <ele>83.57</ele>
        <time>2020-03-13T21:32:20.999Z</time>
      </trkpt>
      <trkpt lat="48.85698" lon="2.32753">
        <ele>83.64</ele>
        <time>2020-03-13T21:32:21.999Z</time>
      </trkpt>
      <trkpt lat="48.85701" lon="2.32757">
        <ele>83.64</ele>
        <time>2020-03-13T21:32:22.999Z</time>
      </trkpt>
      <trkpt lat="48.85703" lon="2.32762">
        <ele>83.7</ele>
        <time>2020-03-13T21:32:23.999Z</time>
      </trkpt>
      <trkpt lat="48.85707" lon="2.32765">
        <ele>83.74</ele>
        <time>2020-03-13T21:32:24.999Z</time>
      </trkpt>
      <trkpt lat="48.85713" lon="2.32768">
        <ele>83.78</ele>
        <time>2020-03-13T21:32:25.999Z</time>
      </trkpt>
      <trkpt lat="48.85717" lon="2.3277">
        <ele>83.8</ele>
        <time>2020-03-13T21:32:26.999Z</time>
      </trkpt>
      <trkpt lat="48.85722" lon="2.32771">
        <ele>83.84</ele>
        <time>2020-03-13T21:32:27.999Z</time>
      </trkpt>
      <trkpt lat="48.85727" lon="2.32773">
        <ele>83.87</ele>
        <time>2020-03-13T21:32:28.999Z</time>
      </trkpt>
      <trkpt lat="48.85731" lon="2.32776">
        <ele>83.91</ele>
        <time>2020-03-13T21:32:29.999Z</time>
      </trkpt>
      <trkpt lat="48.85737" lon="2.3278">
        <ele>83.95</ele>
        <time>2020-03-13T21:32:30.999Z</time>
      </trkpt>
      <trkpt lat="48.85742" lon="2.32785">
        <ele>83.99</ele>
        <time>2020-03-13T21:32:31.999Z</time>
      </trkpt>
      <trkpt lat="48.85748" lon="2.32789">
        <ele>84.03</ele>
        <time>2020-03-13T21:32:32.999Z</time>
      </trkpt>
      <trkpt lat="48.85754" lon="2.32792">
        <ele>84.06</ele>
        <time>2020-03-13T21:32:33.999Z</time>
      </trkpt>
      <trkpt lat="48.85761" lon="2.32794">
        <ele>84.09</ele>
        <time>2020-03-13T21:32:34.999Z</time>
      </trkpt>
      <trkpt lat="48.85765" lon="2.32797">
        <ele>84.09</ele>
        <time>2020-03-13T21:32:35.999Z</time>
      </trkpt>
      <trkpt lat="48.8577" lon="2.32799">
        <ele>84.1</ele>
        <time>2020-03-13T21:32:36.999Z</time>
      </trkpt>
      <trkpt lat="48.85775" lon="2.32804">
        <ele>84.12</ele>
        <time>2020-03-13T21:32:37.999Z</time>
      </trkpt>
      <trkpt lat="48.8578" lon="2.32808">
        <ele>84.13</ele>
        <time>2020-03-13T21:32:38.999Z</time>
      </trkpt>
      <trkpt lat="48.85786" lon="2.32812">
        <ele>84.14</ele>
        <time>2020-03-13T21:32:39.999Z</time>
      </trkpt>
      <trkpt lat="48.85792" lon="2.32815">
        <ele>84.14</ele>
        <time>2020-03-13T21:32:40.999Z</time>
      </trkpt>
      <trkpt lat="48.85797" lon="2.32817">
        <ele>84.15</ele>
        <time>2020-03-13T21:32:41.999Z</time>
      </trkpt>
      <trkpt lat="48.85802" lon="2.32821">
        <ele>84.15</ele>
        <time>2020-03-13T21:32:42.999Z</time>
      </trkpt>
      <trkpt lat="48.85805" lon="2.32824">
        <ele>84.14</ele>
        <time>2020-03-13T21:32:43.999Z</time>
      </trkpt>
      <trkpt lat="48.8581" lon="2.32826">
        <ele>84.14</ele>
        <time>2020-03-13T21:32:44.999Z</time>
      </trkpt>
      <trkpt lat="48.85814" lon="2.3283">
        <ele>84.14</ele>
        <time>2020-03-13T21:32:45.999Z</time>
      </trkpt>
      <trkpt lat="48.85817" lon="2.32832">
        <ele>84.14</ele>
        <time>2020-03-13T21:32:46.999Z</time>
      </trkpt>
      <trkpt lat="48.8582" lon="2.32836">
        <ele>84.14</ele>
        <time>2020-03-13T21:32:47.999Z</time>
      </trkpt>
      <trkpt lat="48.85823" lon="2.32841">
        <ele>84.14</ele>
        <time>2020-03-13T21:32:48.999Z</time>
      </trkpt>
      <trkpt lat="48.85826" lon="2.32845">
        <ele>84.13</ele>
        <time>2020-03-13T21:32:49.999Z</time>
      </trkpt>
      <trkpt lat="48.8583" lon="2.32848">
        <ele>84.13</ele>
        <time>2020-03-13T21:32:50.999Z</time>
      </trkpt>
      <trkpt lat="48.85834" lon="2.32851">
        <ele>84.12</ele>
        <time>2020-03-13T21:32:51.999Z</time>
      </trkpt>
      <trkpt lat="48.8584" lon="2.32854">
        <ele>84.11</ele>
        <time>2020-03-13T21:32:52.999Z</time>
      </trkpt>
      <trkpt lat="48.85845" lon="2.32858">
        <ele>84.11</ele>
        <time>2020-03-13T21:32:53.999Z</time>
      </trkpt>
      <trkpt lat="48.8585" lon="2.3286">
        <ele>84.11</ele>
        <time>2020-03-13T21:32:54.999Z</time>
      </trkpt>
      <trkpt lat="48.85855" lon="2.32863">
        <ele>84.09</ele>
        <time>2020-03-13T21:32:55.999Z</time>
      </trkpt>
      <trkpt lat="48.8586" lon="2.32868">
        <ele>84.09</ele>
        <time>2020-03-13T21:32:56.999Z</time>
      </trkpt>
      <trkpt lat="48.85864" lon="2.3287">
        <ele>84.09</ele>
        <time>2020-03-13T21:32:57.999Z</time>
      </trkpt>
      <trkpt lat="48.85869" lon="2.32871">
        <ele>84.09</ele>
        <time>2020-03-13T21:32:58.999Z</time>
      </trkpt>
      <trkpt lat="48.85872" lon="2.32874">
        <ele>84.1</ele>
        <time>2020-03-13T21:32:59.999Z</time>
      </trkpt>
      <trkpt lat="48.85876" lon="2.32877">
        <ele>84.1</ele>
        <time>2020-03-13T21:33:00.999Z</time>
      </trkpt>
      <trkpt lat="48.8588" lon="2.32881">
        <ele>84.09</ele>
        <time>2020-03-13T21:33:01.999Z</time>
      </trkpt>
      <trkpt lat="48.85884" lon="2.32886">
        <ele>84.08</ele>
        <time>2020-03-13T21:33:02.999Z</time>
      </trkpt>
      <trkpt lat="48.85889" lon="2.32891">
        <ele>84.08</ele>
        <time>2020-03-13T21:33:03.999Z</time>
      </trkpt>
      <trkpt lat="48.85894" lon="2.32894">
        <ele>84.07</ele>
        <time>2020-03-13T21:33:04.999Z</time>
      </trkpt>
      <trkpt lat="48.85898" lon="2.32897">
        <ele>84.07</ele>
        <time>2020-03-13T21:33:05.999Z</time>
      </trkpt>
      <trkpt lat="48.85902" lon="2.329">
        <ele>84.07</ele>
        <time>2020-03-13T21:33:06.999Z</time>
      </trkpt>
      <trkpt lat="48.85905" lon="2.32903">
        <ele>84.07</ele>
        <time>2020-03-13T21:33:07.999Z</time>
      </trkpt>
      <trkpt lat="48.85909" lon="2.32906">
        <ele>84.08</ele>
        <time>2020-03-13T21:33:08.999Z</time>
      </trkpt>
      <trkpt lat="48.85913" lon="2.32908">
        <ele>84.08</ele>
        <time>2020-03-13T21:33:09.999Z</time>
      </trkpt>
      <trkpt lat="48.85919" lon="2.32912">
        <ele>84.09</ele>
        <time>2020-03-13T21:33:10.999Z</time>
      </trkpt>
      <trkpt lat="48.85926" lon="2.32916">
        <ele>84.09</ele>
        <time>2020-03-13T21:33:11.999Z</time>
      </trkpt>
      <trkpt lat="48.8593" lon="2.3292">
        <ele>84.16</ele>
        <time>2020-03-13T21:33:12.999Z</time>
      </trkpt>
      <trkpt lat="48.85935" lon="2.32925">
        <ele>84.16</ele>
        <time>2020-03-13T21:33:13.999Z</time>
      </trkpt>
      <trkpt lat="48.85937" lon="2.32931">
        <ele>84.17</ele>
        <time>2020-03-13T21:33:14.999Z</time>
      </trkpt>
      <trkpt lat="48.8594" lon="2.32933">
        <ele>84.18</ele>
        <time>2020-03-13T21:33:15.999Z</time>
      </trkpt>
      <trkpt lat="48.85943" lon="2.32933">
        <ele>84.18</ele>
        <time>2020-03-13T21:33:16.999Z</time>
      </trkpt>
      <trkpt lat="48.85945" lon="2.32934">
        <ele>84.19</ele>
        <time>2020-03-13T21:33:17.999Z</time>
      </trkpt>
      <trkpt lat="48.85946" lon="2.32933">
        <ele>84.19</ele>
        <time>2020-03-13T21:33:18.999Z</time>
      </trkpt>
      <trkpt lat="48.85947" lon="2.32933">
        <ele>84.21</ele>
        <time>2020-03-13T21:33:21.999Z</time>
      </trkpt>
      <trkpt lat="48.85949" lon="2.32934">
        <ele>84.23</ele>
        <time>2020-03-13T21:33:24.999Z</time>
      </trkpt>
      <trkpt lat="48.8595" lon="2.32936">
        <ele>84.24</ele>
        <time>2020-03-13T21:33:25.999Z</time>
      </trkpt>
      <trkpt lat="48.85951" lon="2.32937">
        <ele>84.24</ele>
        <time>2020-03-13T21:33:26.999Z</time>
      </trkpt>
      <trkpt lat="48.85953" lon="2.32939">
        <ele>84.24</ele>
        <time>2020-03-13T21:33:27.999Z</time>
      </trkpt>
      <trkpt lat="48.85955" lon="2.3294">
        <ele>84.25</ele>
        <time>2020-03-13T21:33:28.999Z</time>
      </trkpt>
      <trkpt lat="48.85957" lon="2.32942">
        <ele>84.25</ele>
        <time>2020-03-13T21:33:29.999Z</time>
      </trkpt>
      <trkpt lat="48.85959" lon="2.32943">
        <ele>84.26</ele>
        <time>2020-03-13T21:33:30.999Z</time>
      </trkpt>
      <trkpt lat="48.85961" lon="2.32945">
        <ele>84.26</ele>
        <time>2020-03-13T21:33:31.999Z</time>
      </trkpt>
      <trkpt lat="48.85962" lon="2.32947">
        <ele>84.26</ele>
        <time>2020-03-13T21:33:32.999Z</time>
      </trkpt>
      <trkpt lat="48.85964" lon="2.32949">
        <ele>84.26</ele>
        <time>2020-03-13T21:33:33.999Z</time>
      </trkpt>
      <trkpt lat="48.85965" lon="2.32952">
        <ele>84.27</ele>
        <time>2020-03-13T21:33:34.999Z</time>
      </trkpt>
      <trkpt lat="48.85967" lon="2.32955">
        <ele>84.27</ele>
        <time>2020-03-13T21:33:35.999Z</time>
      </trkpt>
      <trkpt lat="48.85968" lon="2.32957">
        <ele>84.27</ele>
        <time>2020-03-13T21:33:36.999Z</time>
      </trkpt>
      <trkpt lat="48.85969" lon="2.3296">
        <ele>84.27</ele>
        <time>2020-03-13T21:33:37.999Z</time>
      </trkpt>
      <trkpt lat="48.85971" lon="2.32962">
        <ele>84.27</ele>
        <time>2020-03-13T21:33:38.999Z</time>
      </trkpt>
      <trkpt lat="48.85973" lon="2.32964">
        <ele>84.28</ele>
        <time>2020-03-13T21:33:39.999Z</time>
      </trkpt>
      <trkpt lat="48.85975" lon="2.32967">
        <ele>84.28</ele>
        <time>2020-03-13T21:33:40.999Z</time>
      </trkpt>
      <trkpt lat="48.85977" lon="2.32969">
        <ele>84.28</ele>
        <time>2020-03-13T21:33:41.999Z</time>
      </trkpt>
      <trkpt lat="48.85979" lon="2.32971">
        <ele>84.28</ele>
        <time>2020-03-13T21:33:42.999Z</time>
      </trkpt>
      <trkpt lat="48.85981" lon="2.32973">
        <ele>84.28</ele>
        <time>2020-03-13T21:33:43.999Z</time>
      </trkpt>
      <trkpt lat="48.85983" lon="2.32975">
        <ele>84.28</ele>
        <time>2020-03-13T21:33:44.999Z</time>
      </trkpt>
      <trkpt lat="48.85985" lon="2.32977">
        <ele>84.28</ele>
        <time>2020-03-13T21:33:45.999Z</time>
      </trkpt>
      <trkpt lat="48.85987" lon="2.32979">
        <ele>84.28</ele>
        <time>2020-03-13T21:33:46.999Z</time>
      </trkpt>
      <trkpt lat="48.85989" lon="2.32981">
        <ele>84.27</ele>
        <time>2020-03-13T21:33:47.999Z</time>
      </trkpt>
      <trkpt lat="48.85992" lon="2.32983">
        <ele>84.27</ele>
        <time>2020-03-13T21:33:48.999Z</time>
      </trkpt>
      <trkpt lat="48.85994" lon="2.32985">
        <ele>84.27</ele>
        <time>2020-03-13T21:33:49.999Z</time>
      </trkpt>
      <trkpt lat="48.85996" lon="2.32987">
        <ele>84.27</ele>
        <time>2020-03-13T21:33:50.999Z</time>
      </trkpt>
      <trkpt lat="48.85999" lon="2.32989">
        <ele>84.27</ele>
        <time>2020-03-13T21:33:51.999Z</time>
      </trkpt>
      <trkpt lat="48.86" lon="2.32991">
        <ele>84.27</ele>
        <time>2020-03-13T21:33:52.999Z</time>
      </trkpt>
      <trkpt lat="48.86003" lon="2.32993">
        <ele>84.27</ele>
        <time>2020-03-13T21:33:53.999Z</time>
      </trkpt>
      <trkpt lat="48.86005" lon="2.32994">
        <ele>84.27</ele>
        <time>2020-03-13T21:33:54.999Z</time>
      </trkpt>
      <trkpt lat="48.86007" lon="2.32996">
        <ele>84.27</ele>
        <time>2020-03-13T21:33:55.999Z</time>
      </trkpt>
      <trkpt lat="48.8601" lon="2.32998">
        <ele>84.27</ele>
        <time>2020-03-13T21:33:56.999Z</time>
      </trkpt>
      <trkpt lat="48.86012" lon="2.33001">
        <ele>84.27</ele>
        <time>2020-03-13T21:33:57.999Z</time>
      </trkpt>
      <trkpt lat="48.86015" lon="2.33003">
        <ele>84.27</ele>
        <time>2020-03-13T21:33:58.999Z</time>
      </trkpt>
      <trkpt lat="48.86018" lon="2.33005">
        <ele>84.28</ele>
        <time>2020-03-13T21:33:59.999Z</time>
      </trkpt>
      <trkpt lat="48.86021" lon="2.33007">
        <ele>84.28</ele>
        <time>2020-03-13T21:34:00.999Z</time>
      </trkpt>
      <trkpt lat="48.86023" lon="2.33008">
        <ele>84.28</ele>
        <time>2020-03-13T21:34:01.999Z</time>
      </trkpt>
      <trkpt lat="48.86026" lon="2.3301">
        <ele>84.28</ele>
        <time>2020-03-13T21:34:02.999Z</time>
      </trkpt>
      <trkpt lat="48.86029" lon="2.33013">
        <ele>84.28</ele>
        <time>2020-03-13T21:34:03.999Z</time>
      </trkpt>
      <trkpt lat="48.86032" lon="2.33015">
        <ele>84.28</ele>
        <time>2020-03-13T21:34:04.999Z</time>
      </trkpt>
      <trkpt lat="48.86035" lon="2.33018">
        <ele>84.28</ele>
        <time>2020-03-13T21:34:05.999Z</time>
      </trkpt>
      <trkpt lat="48.86038" lon="2.33019">
        <ele>84.28</ele>
        <time>2020-03-13T21:34:06.999Z</time>
      </trkpt>
      <trkpt lat="48.86041" lon="2.33021">
        <ele>84.28</ele>
        <time>2020-03-13T21:34:07.999Z</time>
      </trkpt>
      <trkpt lat="48.86045" lon="2.33024">
        <ele>84.28</ele>
        <time>2020-03-13T21:34:08.999Z</time>
      </trkpt>
      <trkpt lat="48.86048" lon="2.33026">
        <ele>84.28</ele>
        <time>2020-03-13T21:34:09.999Z</time>
      </trkpt>
      <trkpt lat="48.86051" lon="2.33028">
        <ele>84.28</ele>
        <time>2020-03-13T21:34:10.999Z</time>
      </trkpt>
      <trkpt lat="48.86054" lon="2.3303">
        <ele>84.28</ele>
        <time>2020-03-13T21:34:11.999Z</time>
      </trkpt>
      <trkpt lat="48.86058" lon="2.33029">
        <ele>84.28</ele>
        <time>2020-03-13T21:34:12.999Z</time>
      </trkpt>
      <trkpt lat="48.8606" lon="2.33027">
        <ele>84.29</ele>
        <time>2020-03-13T21:34:13.999Z</time>
      </trkpt>
      <trkpt lat="48.86062" lon="2.33027">
        <ele>84.29</ele>
        <time>2020-03-13T21:34:14.999Z</time>
      </trkpt>
      <trkpt lat="48.86065" lon="2.33025">
        <ele>84.29</ele>
        <time>2020-03-13T21:34:15.999Z</time>
      </trkpt>
      <trkpt lat="48.86067" lon="2.33024">
        <ele>84.29</ele>
        <time>2020-03-13T21:34:16.999Z</time>
      </trkpt>
      <trkpt lat="48.86069" lon="2.33023">
        <ele>84.29</ele>
        <time>2020-03-13T21:34:17.999Z</time>
      </trkpt>
      <trkpt lat="48.86071" lon="2.33021">
        <ele>84.29</ele>
        <time>2020-03-13T21:34:18.999Z</time>
      </trkpt>
      <trkpt lat="48.86074" lon="2.33019">
        <ele>84.29</ele>
        <time>2020-03-13T21:34:19.999Z</time>
      </trkpt>
      <trkpt lat="48.86077" lon="2.33018">
        <ele>84.29</ele>
        <time>2020-03-13T21:34:20.999Z</time>
      </trkpt>
      <trkpt lat="48.86079" lon="2.33018">
        <ele>84.28</ele>
        <time>2020-03-13T21:34:21.999Z</time>
      </trkpt>
      <trkpt lat="48.86081" lon="2.33017">
        <ele>84.28</ele>
        <time>2020-03-13T21:34:22.999Z</time>
      </trkpt>
      <trkpt lat="48.86084" lon="2.33017">
        <ele>84.28</ele>
        <time>2020-03-13T21:34:23.999Z</time>
      </trkpt>
      <trkpt lat="48.86086" lon="2.33017">
        <ele>84.28</ele>
        <time>2020-03-13T21:34:24.999Z</time>
      </trkpt>
      <trkpt lat="48.86088" lon="2.33016">
        <ele>84.28</ele>
        <time>2020-03-13T21:34:25.999Z</time>
      </trkpt>
      <trkpt lat="48.86091" lon="2.33018">
        <ele>84.27</ele>
        <time>2020-03-13T21:34:26.999Z</time>
      </trkpt>
      <trkpt lat="48.86093" lon="2.3302">
        <ele>84.27</ele>
        <time>2020-03-13T21:34:27.999Z</time>
      </trkpt>
      <trkpt lat="48.86097" lon="2.33022">
        <ele>84.24</ele>
        <time>2020-03-13T21:34:28.999Z</time>
      </trkpt>
      <trkpt lat="48.86101" lon="2.33025">
        <ele>84.21</ele>
        <time>2020-03-13T21:34:29.999Z</time>
      </trkpt>
      <trkpt lat="48.86105" lon="2.33029">
        <ele>84.18</ele>
        <time>2020-03-13T21:34:30.999Z</time>
      </trkpt>
      <trkpt lat="48.86109" lon="2.33032">
        <ele>84.16</ele>
        <time>2020-03-13T21:34:31.999Z</time>
      </trkpt>
      <trkpt lat="48.86114" lon="2.33036">
        <ele>84.13</ele>
        <time>2020-03-13T21:34:32.999Z</time>
      </trkpt>
      <trkpt lat="48.86118" lon="2.3304">
        <ele>84.11</ele>
        <time>2020-03-13T21:34:33.999Z</time>
      </trkpt>
      <trkpt lat="48.86124" lon="2.33044">
        <ele>84.09</ele>
        <time>2020-03-13T21:34:34.999Z</time>
      </trkpt>
      <trkpt lat="48.8613" lon="2.33049">
        <ele>84.07</ele>
        <time>2020-03-13T21:34:35.999Z</time>
      </trkpt>
      <trkpt lat="48.86136" lon="2.33054">
        <ele>84.06</ele>
        <time>2020-03-13T21:34:36.999Z</time>
      </trkpt>
      <trkpt lat="48.86142" lon="2.33058">
        <ele>84.04</ele>
        <time>2020-03-13T21:34:37.999Z</time>
      </trkpt>
      <trkpt lat="48.86149" lon="2.33064">
        <ele>84.03</ele>
        <time>2020-03-13T21:34:38.999Z</time>
      </trkpt>
      <trkpt lat="48.86313" lon="2.33159">
        <ele>84.51</ele>
        <time>2020-03-13T21:34:58.999Z</time>
      </trkpt>
      <trkpt lat="48.86314" lon="2.33159">
        <ele>84.52</ele>
        <time>2020-03-13T21:34:59.999Z</time>
      </trkpt>
      <trkpt lat="48.86319" lon="2.33161">
        <ele>84.52</ele>
        <time>2020-03-13T21:35:00.999Z</time>
      </trkpt>
      <trkpt lat="48.86322" lon="2.33165">
        <ele>84.58</ele>
        <time>2020-03-13T21:35:01.999Z</time>
      </trkpt>
      <trkpt lat="48.86326" lon="2.33168">
        <ele>84.59</ele>
        <time>2020-03-13T21:35:02.999Z</time>
      </trkpt>
      <trkpt lat="48.86329" lon="2.33171">
        <ele>84.6</ele>
        <time>2020-03-13T21:35:03.999Z</time>
      </trkpt>
      <trkpt lat="48.86332" lon="2.33173">
        <ele>84.61</ele>
        <time>2020-03-13T21:35:04.999Z</time>
      </trkpt>
      <trkpt lat="48.86336" lon="2.33175">
        <ele>84.62</ele>
        <time>2020-03-13T21:35:05.999Z</time>
      </trkpt>
      <trkpt lat="48.86339" lon="2.33178">
        <ele>84.63</ele>
        <time>2020-03-13T21:35:06.999Z</time>
      </trkpt>
      <trkpt lat="48.86343" lon="2.33181">
        <ele>84.64</ele>
        <time>2020-03-13T21:35:07.999Z</time>
      </trkpt>
      <trkpt lat="48.86346" lon="2.33184">
        <ele>84.65</ele>
        <time>2020-03-13T21:35:08.999Z</time>
      </trkpt>
      <trkpt lat="48.86349" lon="2.33186">
        <ele>84.67</ele>
        <time>2020-03-13T21:35:09.999Z</time>
      </trkpt>
      <trkpt lat="48.86352" lon="2.33188">
        <ele>84.68</ele>
        <time>2020-03-13T21:35:10.999Z</time>
      </trkpt>
      <trkpt lat="48.86354" lon="2.33191">
        <ele>84.69</ele>
        <time>2020-03-13T21:35:11.999Z</time>
      </trkpt>
      <trkpt lat="48.86356" lon="2.33193">
        <ele>84.71</ele>
        <time>2020-03-13T21:35:12.999Z</time>
      </trkpt>
      <trkpt lat="48.86358" lon="2.33196">
        <ele>84.72</ele>
        <time>2020-03-13T21:35:13.999Z</time>
      </trkpt>
      <trkpt lat="48.86361" lon="2.33199">
        <ele>84.74</ele>
        <time>2020-03-13T21:35:14.999Z</time>
      </trkpt>
      <trkpt lat="48.86363" lon="2.33202">
        <ele>84.75</ele>
        <time>2020-03-13T21:35:15.999Z</time>
      </trkpt>
      <trkpt lat="48.86365" lon="2.33205">
        <ele>84.76</ele>
        <time>2020-03-13T21:35:16.999Z</time>
      </trkpt>
      <trkpt lat="48.86367" lon="2.33207">
        <ele>84.78</ele>
        <time>2020-03-13T21:35:17.999Z</time>
      </trkpt>
      <trkpt lat="48.86368" lon="2.3321">
        <ele>84.79</ele>
        <time>2020-03-13T21:35:18.999Z</time>
      </trkpt>
      <trkpt lat="48.86369" lon="2.33212">
        <ele>84.81</ele>
        <time>2020-03-13T21:35:19.999Z</time>
      </trkpt>
      <trkpt lat="48.86371" lon="2.33214">
        <ele>84.82</ele>
        <time>2020-03-13T21:35:20.999Z</time>
      </trkpt>
      <trkpt lat="48.86372" lon="2.33216">
        <ele>84.84</ele>
        <time>2020-03-13T21:35:21.999Z</time>
      </trkpt>
      <trkpt lat="48.86373" lon="2.33218">
        <ele>84.86</ele>
        <time>2020-03-13T21:35:22.999Z</time>
      </trkpt>
      <trkpt lat="48.86374" lon="2.3322">
        <ele>84.87</ele>
        <time>2020-03-13T21:35:23.999Z</time>
      </trkpt>
      <trkpt lat="48.86376" lon="2.33223">
        <ele>84.89</ele>
        <time>2020-03-13T21:35:24.999Z</time>
      </trkpt>
      <trkpt lat="48.86378" lon="2.33226">
        <ele>84.9</ele>
        <time>2020-03-13T21:35:25.999Z</time>
      </trkpt>
      <trkpt lat="48.86379" lon="2.33228">
        <ele>84.91</ele>
        <time>2020-03-13T21:35:26.999Z</time>
      </trkpt>
      <trkpt lat="48.86381" lon="2.3323">
        <ele>84.93</ele>
        <time>2020-03-13T21:35:27.999Z</time>
      </trkpt>
      <trkpt lat="48.86382" lon="2.33232">
        <ele>84.93</ele>
        <time>2020-03-13T21:35:28.999Z</time>
      </trkpt>
      <trkpt lat="48.86383" lon="2.33233">
        <ele>84.94</ele>
        <time>2020-03-13T21:35:29.999Z</time>
      </trkpt>
      <trkpt lat="48.86384" lon="2.33234">
        <ele>84.95</ele>
        <time>2020-03-13T21:35:30.999Z</time>
      </trkpt>
      <trkpt lat="48.86385" lon="2.33234">
        <ele>84.96</ele>
        <time>2020-03-13T21:35:31.999Z</time>
      </trkpt>
      <trkpt lat="48.86386" lon="2.33235">
        <ele>84.96</ele>
        <time>2020-03-13T21:35:32.999Z</time>
      </trkpt>
      <trkpt lat="48.86388" lon="2.33235">
        <ele>84.97</ele>
        <time>2020-03-13T21:35:33.999Z</time>
      </trkpt>
      <trkpt lat="48.86389" lon="2.33234">
        <ele>84.97</ele>
        <time>2020-03-13T21:35:35.999Z</time>
      </trkpt>
      <trkpt lat="48.86388" lon="2.33232">
        <ele>84.98</ele>
        <time>2020-03-13T21:35:37.999Z</time>
      </trkpt>
      <trkpt lat="48.86388" lon="2.33231">
        <ele>84.98</ele>
        <time>2020-03-13T21:35:41.999Z</time>
      </trkpt>
      <trkpt lat="48.86388" lon="2.3322">
        <ele>84.98</ele>
        <time>2020-03-13T21:35:42.999Z</time>
      </trkpt>
      <trkpt lat="48.86387" lon="2.33216">
        <ele>84.98</ele>
        <time>2020-03-13T21:35:43.999Z</time>
      </trkpt>
      <trkpt lat="48.86386" lon="2.33213">
        <ele>84.98</ele>
        <time>2020-03-13T21:35:44.999Z</time>
      </trkpt>
      <trkpt lat="48.86385" lon="2.33213">
        <ele>85.01</ele>
        <time>2020-03-13T21:35:50.999Z</time>
      </trkpt>
      <trkpt lat="48.86385" lon="2.33217">
        <ele>85.03</ele>
        <time>2020-03-13T21:35:51.999Z</time>
      </trkpt>
      <trkpt lat="48.86385" lon="2.33223">
        <ele>85.05</ele>
        <time>2020-03-13T21:35:52.999Z</time>
      </trkpt>
      <trkpt lat="48.86385" lon="2.33226">
        <ele>85.08</ele>
        <time>2020-03-13T21:35:53.999Z</time>
      </trkpt>
      <trkpt lat="48.86386" lon="2.33226">
        <ele>85.11</ele>
        <time>2020-03-13T21:35:54.999Z</time>
      </trkpt>
      <trkpt lat="48.86388" lon="2.33227">
        <ele>85.14</ele>
        <time>2020-03-13T21:35:55.999Z</time>
      </trkpt>
      <trkpt lat="48.86391" lon="2.33228">
        <ele>85.17</ele>
        <time>2020-03-13T21:35:56.999Z</time>
      </trkpt>
      <trkpt lat="48.86394" lon="2.33231">
        <ele>85.2</ele>
        <time>2020-03-13T21:35:57.999Z</time>
      </trkpt>
      <trkpt lat="48.86398" lon="2.33235">
        <ele>85.22</ele>
        <time>2020-03-13T21:35:58.999Z</time>
      </trkpt>
      <trkpt lat="48.86402" lon="2.33239">
        <ele>85.25</ele>
        <time>2020-03-13T21:35:59.999Z</time>
      </trkpt>
      <trkpt lat="48.86406" lon="2.33241">
        <ele>85.27</ele>
        <time>2020-03-13T21:36:00.999Z</time>
      </trkpt>
      <trkpt lat="48.8641" lon="2.33244">
        <ele>85.3</ele>
        <time>2020-03-13T21:36:01.999Z</time>
      </trkpt>
      <trkpt lat="48.86414" lon="2.33247">
        <ele>85.32</ele>
        <time>2020-03-13T21:36:02.999Z</time>
      </trkpt>
      <trkpt lat="48.86418" lon="2.3325">
        <ele>85.34</ele>
        <time>2020-03-13T21:36:03.999Z</time>
      </trkpt>
      <trkpt lat="48.86421" lon="2.33253">
        <ele>85.36</ele>
        <time>2020-03-13T21:36:04.999Z</time>
      </trkpt>
      <trkpt lat="48.86424" lon="2.33255">
        <ele>85.38</ele>
        <time>2020-03-13T21:36:05.999Z</time>
      </trkpt>
      <trkpt lat="48.86428" lon="2.33258">
        <ele>85.4</ele>
        <time>2020-03-13T21:36:06.999Z</time>
      </trkpt>
      <trkpt lat="48.86431" lon="2.33262">
        <ele>85.42</ele>
        <time>2020-03-13T21:36:07.999Z</time>
      </trkpt>
      <trkpt lat="48.86434" lon="2.33266">
        <ele>85.6</ele>
        <time>2020-03-13T21:36:08.999Z</time>
      </trkpt>
      <trkpt lat="48.86438" lon="2.33269">
        <ele>85.75</ele>
        <time>2020-03-13T21:36:09.999Z</time>
      </trkpt>
      <trkpt lat="48.86445" lon="2.33269">
        <ele>85.84</ele>
        <time>2020-03-13T21:36:10.999Z</time>
      </trkpt>
      <trkpt lat="48.86449" lon="2.33272">
        <ele>85.91</ele>
        <time>2020-03-13T21:36:11.999Z</time>
      </trkpt>
      <trkpt lat="48.86452" lon="2.33274">
        <ele>85.96</ele>
        <time>2020-03-13T21:36:12.999Z</time>
      </trkpt>
      <trkpt lat="48.86456" lon="2.33277">
        <ele>85.97</ele>
        <time>2020-03-13T21:36:13.999Z</time>
      </trkpt>
      <trkpt lat="48.86459" lon="2.33281">
        <ele>85.97</ele>
        <time>2020-03-13T21:36:14.999Z</time>
      </trkpt>
      <trkpt lat="48.86463" lon="2.33283">
        <ele>86.01</ele>
        <time>2020-03-13T21:36:15.999Z</time>
      </trkpt>
      <trkpt lat="48.86467" lon="2.33286">
        <ele>86.04</ele>
        <time>2020-03-13T21:36:16.999Z</time>
      </trkpt>
      <trkpt lat="48.86472" lon="2.33288">
        <ele>86.04</ele>
        <time>2020-03-13T21:36:17.999Z</time>
      </trkpt>
      <trkpt lat="48.86477" lon="2.3329">
        <ele>86.05</ele>
        <time>2020-03-13T21:36:18.999Z</time>
      </trkpt>
      <trkpt lat="48.86481" lon="2.33292">
        <ele>86.05</ele>
        <time>2020-03-13T21:36:19.999Z</time>
      </trkpt>
      <trkpt lat="48.86486" lon="2.33295">
        <ele>86.09</ele>
        <time>2020-03-13T21:36:20.999Z</time>
      </trkpt>
      <trkpt lat="48.86491" lon="2.33298">
        <ele>86.14</ele>
        <time>2020-03-13T21:36:21.999Z</time>
      </trkpt>
      <trkpt lat="48.86497" lon="2.333">
        <ele>86.19</ele>
        <time>2020-03-13T21:36:22.999Z</time>
      </trkpt>
      <trkpt lat="48.86501" lon="2.33303">
        <ele>86.2</ele>
        <time>2020-03-13T21:36:23.999Z</time>
      </trkpt>
      <trkpt lat="48.86507" lon="2.33308">
        <ele>86.2</ele>
        <time>2020-03-13T21:36:24.999Z</time>
      </trkpt>
      <trkpt lat="48.86511" lon="2.3331">
        <ele>86.21</ele>
        <time>2020-03-13T21:36:25.999Z</time>
      </trkpt>
      <trkpt lat="48.86515" lon="2.33313">
        <ele>86.27</ele>
        <time>2020-03-13T21:36:26.999Z</time>
      </trkpt>
      <trkpt lat="48.8652" lon="2.33316">
        <ele>86.32</ele>
        <time>2020-03-13T21:36:27.999Z</time>
      </trkpt>
      <trkpt lat="48.86524" lon="2.33321">
        <ele>86.37</ele>
        <time>2020-03-13T21:36:28.999Z</time>
      </trkpt>
      <trkpt lat="48.86529" lon="2.33325">
        <ele>86.42</ele>
        <time>2020-03-13T21:36:29.999Z</time>
      </trkpt>
      <trkpt lat="48.86535" lon="2.3333">
        <ele>86.49</ele>
        <time>2020-03-13T21:36:30.999Z</time>
      </trkpt>
      <trkpt lat="48.8654" lon="2.33333">
        <ele>86.54</ele>
        <time>2020-03-13T21:36:31.999Z</time>
      </trkpt>
      <trkpt lat="48.86546" lon="2.33336">
        <ele>86.59</ele>
        <time>2020-03-13T21:36:32.999Z</time>
      </trkpt>
      <trkpt lat="48.86552" lon="2.3334">
        <ele>86.64</ele>
        <time>2020-03-13T21:36:33.999Z</time>
      </trkpt>
      <trkpt lat="48.86558" lon="2.33343">
        <ele>86.68</ele>
        <time>2020-03-13T21:36:34.999Z</time>
      </trkpt>
      <trkpt lat="48.86563" lon="2.33346">
        <ele>86.72</ele>
        <time>2020-03-13T21:36:35.999Z</time>
      </trkpt>
      <trkpt lat="48.86568" lon="2.33348">
        <ele>86.76</ele>
        <time>2020-03-13T21:36:36.999Z</time>
      </trkpt>
      <trkpt lat="48.86573" lon="2.3335">
        <ele>86.79</ele>
        <time>2020-03-13T21:36:37.999Z</time>
      </trkpt>
      <trkpt lat="48.86578" lon="2.33354">
        <ele>86.82</ele>
        <time>2020-03-13T21:36:38.999Z</time>
      </trkpt>
      <trkpt lat="48.86582" lon="2.33358">
        <ele>86.85</ele>
        <time>2020-03-13T21:36:39.999Z</time>
      </trkpt>
      <trkpt lat="48.86588" lon="2.33362">
        <ele>86.87</ele>
        <time>2020-03-13T21:36:40.999Z</time>
      </trkpt>
      <trkpt lat="48.86592" lon="2.33366">
        <ele>86.9</ele>
        <time>2020-03-13T21:36:41.999Z</time>
      </trkpt>
      <trkpt lat="48.86597" lon="2.3337">
        <ele>86.93</ele>
        <time>2020-03-13T21:36:42.999Z</time>
      </trkpt>
      <trkpt lat="48.86602" lon="2.33374">
        <ele>86.95</ele>
        <time>2020-03-13T21:36:43.999Z</time>
      </trkpt>
      <trkpt lat="48.86607" lon="2.33378">
        <ele>86.97</ele>
        <time>2020-03-13T21:36:44.999Z</time>
      </trkpt>
      <trkpt lat="48.86612" lon="2.33382">
        <ele>86.97</ele>
        <time>2020-03-13T21:36:45.999Z</time>
      </trkpt>
      <trkpt lat="48.86616" lon="2.33384">
        <ele>86.98</ele>
        <time>2020-03-13T21:36:46.999Z</time>
      </trkpt>
      <trkpt lat="48.86619" lon="2.33387">
        <ele>86.98</ele>
        <time>2020-03-13T21:36:47.999Z</time>
      </trkpt>
      <trkpt lat="48.86624" lon="2.3339">
        <ele>86.98</ele>
        <time>2020-03-13T21:36:48.999Z</time>
      </trkpt>
      <trkpt lat="48.86627" lon="2.33394">
        <ele>86.99</ele>
        <time>2020-03-13T21:36:49.999Z</time>
      </trkpt>
      <trkpt lat="48.86629" lon="2.33398">
        <ele>86.99</ele>
        <time>2020-03-13T21:36:50.999Z</time>
      </trkpt>
      <trkpt lat="48.86631" lon="2.33401">
        <ele>87</ele>
        <time>2020-03-13T21:36:51.999Z</time>
      </trkpt>
      <trkpt lat="48.86633" lon="2.33403">
        <ele>87.01</ele>
        <time>2020-03-13T21:36:52.999Z</time>
      </trkpt>
      <trkpt lat="48.86635" lon="2.33405">
        <ele>87.02</ele>
        <time>2020-03-13T21:36:53.999Z</time>
      </trkpt>
      <trkpt lat="48.86637" lon="2.33406">
        <ele>87.03</ele>
        <time>2020-03-13T21:36:54.999Z</time>
      </trkpt>
      <trkpt lat="48.86639" lon="2.33407">
        <ele>87.04</ele>
        <time>2020-03-13T21:36:55.999Z</time>
      </trkpt>
      <trkpt lat="48.8664" lon="2.33408">
        <ele>87.05</ele>
        <time>2020-03-13T21:36:56.999Z</time>
      </trkpt>
      <trkpt lat="48.86641" lon="2.33409">
        <ele>87.06</ele>
        <time>2020-03-13T21:36:57.999Z</time>
      </trkpt>
      <trkpt lat="48.86642" lon="2.33412">
        <ele>87.07</ele>
        <time>2020-03-13T21:36:58.999Z</time>
      </trkpt>
      <trkpt lat="48.86645" lon="2.33414">
        <ele>87.08</ele>
        <time>2020-03-13T21:36:59.999Z</time>
      </trkpt>
      <trkpt lat="48.86648" lon="2.33415">
        <ele>87.09</ele>
        <time>2020-03-13T21:37:00.999Z</time>
      </trkpt>
      <trkpt lat="48.86651" lon="2.33415">
        <ele>87.1</ele>
        <time>2020-03-13T21:37:01.999Z</time>
      </trkpt>
      <trkpt lat="48.86654" lon="2.33414">
        <ele>87.11</ele>
        <time>2020-03-13T21:37:02.999Z</time>
      </trkpt>
      <trkpt lat="48.86656" lon="2.33412">
        <ele>87.13</ele>
        <time>2020-03-13T21:37:03.999Z</time>
      </trkpt>
      <trkpt lat="48.86659" lon="2.33411">
        <ele>87.14</ele>
        <time>2020-03-13T21:37:04.999Z</time>
      </trkpt>
      <trkpt lat="48.86663" lon="2.33409">
        <ele>87.15</ele>
        <time>2020-03-13T21:37:05.999Z</time>
      </trkpt>
      <trkpt lat="48.86667" lon="2.33407">
        <ele>87.17</ele>
        <time>2020-03-13T21:37:06.999Z</time>
      </trkpt>
      <trkpt lat="48.8667" lon="2.33405">
        <ele>87.18</ele>
        <time>2020-03-13T21:37:07.999Z</time>
      </trkpt>
      <trkpt lat="48.86674" lon="2.33403">
        <ele>87.32</ele>
        <time>2020-03-13T21:37:08.999Z</time>
      </trkpt>
      <trkpt lat="48.86678" lon="2.33402">
        <ele>87.34</ele>
        <time>2020-03-13T21:37:09.999Z</time>
      </trkpt>
      <trkpt lat="48.86682" lon="2.33401">
        <ele>87.46</ele>
        <time>2020-03-13T21:37:10.999Z</time>
      </trkpt>
      <trkpt lat="48.86686" lon="2.33397">
        <ele>87.57</ele>
        <time>2020-03-13T21:37:11.999Z</time>
      </trkpt>
      <trkpt lat="48.8669" lon="2.33395">
        <ele>87.67</ele>
        <time>2020-03-13T21:37:12.999Z</time>
      </trkpt>
      <trkpt lat="48.86694" lon="2.33392">
        <ele>87.75</ele>
        <time>2020-03-13T21:37:13.999Z</time>
      </trkpt>
      <trkpt lat="48.86698" lon="2.33389">
        <ele>87.83</ele>
        <time>2020-03-13T21:37:14.999Z</time>
      </trkpt>
      <trkpt lat="48.86703" lon="2.33387">
        <ele>87.9</ele>
        <time>2020-03-13T21:37:15.999Z</time>
      </trkpt>
      <trkpt lat="48.86708" lon="2.33383">
        <ele>87.96</ele>
        <time>2020-03-13T21:37:16.999Z</time>
      </trkpt>
      <trkpt lat="48.86712" lon="2.3338">
        <ele>88.01</ele>
        <time>2020-03-13T21:37:17.999Z</time>
      </trkpt>
      <trkpt lat="48.86717" lon="2.33378">
        <ele>88.06</ele>
        <time>2020-03-13T21:37:18.999Z</time>
      </trkpt>
      <trkpt lat="48.86722" lon="2.33377">
        <ele>88.1</ele>
        <time>2020-03-13T21:37:19.999Z</time>
      </trkpt>
      <trkpt lat="48.86727" lon="2.33374">
        <ele>88.14</ele>
        <time>2020-03-13T21:37:20.999Z</time>
      </trkpt>
      <trkpt lat="48.86732" lon="2.3337">
        <ele>88.18</ele>
        <time>2020-03-13T21:37:21.999Z</time>
      </trkpt>
      <trkpt lat="48.86737" lon="2.33367">
        <ele>88.23</ele>
        <time>2020-03-13T21:37:22.999Z</time>
      </trkpt>
      <trkpt lat="48.86742" lon="2.33363">
        <ele>88.28</ele>
        <time>2020-03-13T21:37:23.999Z</time>
      </trkpt>
      <trkpt lat="48.86748" lon="2.33361">
        <ele>88.32</ele>
        <time>2020-03-13T21:37:24.999Z</time>
      </trkpt>
      <trkpt lat="48.86752" lon="2.33359">
        <ele>88.36</ele>
        <time>2020-03-13T21:37:25.999Z</time>
      </trkpt>
      <trkpt lat="48.86758" lon="2.33357">
        <ele>88.39</ele>
        <time>2020-03-13T21:37:26.999Z</time>
      </trkpt>
      <trkpt lat="48.86763" lon="2.33355">
        <ele>88.42</ele>
        <time>2020-03-13T21:37:27.999Z</time>
      </trkpt>
      <trkpt lat="48.86768" lon="2.33353">
        <ele>88.44</ele>
        <time>2020-03-13T21:37:28.999Z</time>
      </trkpt>
      <trkpt lat="48.86773" lon="2.33351">
        <ele>88.45</ele>
        <time>2020-03-13T21:37:29.999Z</time>
      </trkpt>
      <trkpt lat="48.86778" lon="2.33348">
        <ele>88.47</ele>
        <time>2020-03-13T21:37:30.999Z</time>
      </trkpt>
      <trkpt lat="48.86783" lon="2.33345">
        <ele>88.49</ele>
        <time>2020-03-13T21:37:31.999Z</time>
      </trkpt>
      <trkpt lat="48.86789" lon="2.33343">
        <ele>88.5</ele>
        <time>2020-03-13T21:37:32.999Z</time>
      </trkpt>
      <trkpt lat="48.86793" lon="2.33339">
        <ele>88.52</ele>
        <time>2020-03-13T21:37:33.999Z</time>
      </trkpt>
      <trkpt lat="48.86798" lon="2.33337">
        <ele>88.54</ele>
        <time>2020-03-13T21:37:34.999Z</time>
      </trkpt>
      <trkpt lat="48.86804" lon="2.33334">
        <ele>88.56</ele>
        <time>2020-03-13T21:37:35.999Z</time>
      </trkpt>
      <trkpt lat="48.86808" lon="2.33331">
        <ele>88.58</ele>
        <time>2020-03-13T21:37:36.999Z</time>
      </trkpt>
      <trkpt lat="48.86813" lon="2.33328">
        <ele>88.6</ele>
        <time>2020-03-13T21:37:37.999Z</time>
      </trkpt>
      <trkpt lat="48.86817" lon="2.33325">
        <ele>88.62</ele>
        <time>2020-03-13T21:37:38.999Z</time>
      </trkpt>
      <trkpt lat="48.86821" lon="2.33322">
        <ele>88.63</ele>
        <time>2020-03-13T21:37:39.999Z</time>
      </trkpt>
      <trkpt lat="48.86827" lon="2.33318">
        <ele>88.64</ele>
        <time>2020-03-13T21:37:40.999Z</time>
      </trkpt>
      <trkpt lat="48.86832" lon="2.33315">
        <ele>88.64</ele>
        <time>2020-03-13T21:37:41.999Z</time>
      </trkpt>
      <trkpt lat="48.86837" lon="2.33312">
        <ele>88.64</ele>
        <time>2020-03-13T21:37:42.999Z</time>
      </trkpt>
      <trkpt lat="48.86843" lon="2.33309">
        <ele>88.63</ele>
        <time>2020-03-13T21:37:43.999Z</time>
      </trkpt>
      <trkpt lat="48.86849" lon="2.33306">
        <ele>88.63</ele>
        <time>2020-03-13T21:37:44.999Z</time>
      </trkpt>
      <trkpt lat="48.86856" lon="2.33302">
        <ele>88.6</ele>
        <time>2020-03-13T21:37:45.999Z</time>
      </trkpt>
      <trkpt lat="48.86863" lon="2.33299">
        <ele>88.58</ele>
        <time>2020-03-13T21:37:46.999Z</time>
      </trkpt>
      <trkpt lat="48.8687" lon="2.33297">
        <ele>88.56</ele>
        <time>2020-03-13T21:37:47.999Z</time>
      </trkpt>
      <trkpt lat="48.86877" lon="2.33294">
        <ele>88.54</ele>
        <time>2020-03-13T21:37:48.999Z</time>
      </trkpt>
      <trkpt lat="48.86883" lon="2.3329">
        <ele>88.53</ele>
        <time>2020-03-13T21:37:49.999Z</time>
      </trkpt>
      <trkpt lat="48.8689" lon="2.33288">
        <ele>88.56</ele>
        <time>2020-03-13T21:37:50.999Z</time>
      </trkpt>
      <trkpt lat="48.86898" lon="2.33286">
        <ele>88.61</ele>
        <time>2020-03-13T21:37:51.999Z</time>
      </trkpt>
      <trkpt lat="48.86905" lon="2.33284">
        <ele>88.67</ele>
        <time>2020-03-13T21:37:52.999Z</time>
      </trkpt>
      <trkpt lat="48.86911" lon="2.33283">
        <ele>88.73</ele>
        <time>2020-03-13T21:37:53.999Z</time>
      </trkpt>
      <trkpt lat="48.86915" lon="2.33281">
        <ele>88.78</ele>
        <time>2020-03-13T21:37:54.999Z</time>
      </trkpt>
      <trkpt lat="48.86921" lon="2.33278">
        <ele>88.82</ele>
        <time>2020-03-13T21:37:55.999Z</time>
      </trkpt>
      <trkpt lat="48.86926" lon="2.33275">
        <ele>88.86</ele>
        <time>2020-03-13T21:37:56.999Z</time>
      </trkpt>
      <trkpt lat="48.86931" lon="2.33272">
        <ele>88.89</ele>
        <time>2020-03-13T21:37:57.999Z</time>
      </trkpt>
      <trkpt lat="48.86936" lon="2.3327">
        <ele>88.91</ele>
        <time>2020-03-13T21:37:58.999Z</time>
      </trkpt>
      <trkpt lat="48.86942" lon="2.33267">
        <ele>88.94</ele>
        <time>2020-03-13T21:37:59.999Z</time>
      </trkpt>
      <trkpt lat="48.86947" lon="2.33264">
        <ele>88.96</ele>
        <time>2020-03-13T21:38:00.999Z</time>
      </trkpt>
      <trkpt lat="48.86952" lon="2.33262">
        <ele>88.98</ele>
        <time>2020-03-13T21:38:01.999Z</time>
      </trkpt>
      <trkpt lat="48.86958" lon="2.3326">
        <ele>88.99</ele>
        <time>2020-03-13T21:38:02.999Z</time>
      </trkpt>
      <trkpt lat="48.86963" lon="2.33257">
        <ele>88.99</ele>
        <time>2020-03-13T21:38:03.999Z</time>
      </trkpt>
      <trkpt lat="48.86969" lon="2.33254">
        <ele>88.99</ele>
        <time>2020-03-13T21:38:04.999Z</time>
      </trkpt>
      <trkpt lat="48.86973" lon="2.33252">
        <ele>88.99</ele>
        <time>2020-03-13T21:38:05.999Z</time>
      </trkpt>
      <trkpt lat="48.86979" lon="2.33249">
        <ele>88.97</ele>
        <time>2020-03-13T21:38:06.999Z</time>
      </trkpt>
      <trkpt lat="48.86983" lon="2.33246">
        <ele>88.97</ele>
        <time>2020-03-13T21:38:07.999Z</time>
      </trkpt>
      <trkpt lat="48.86988" lon="2.33244">
        <ele>88.96</ele>
        <time>2020-03-13T21:38:08.999Z</time>
      </trkpt>
      <trkpt lat="48.86992" lon="2.33241">
        <ele>88.96</ele>
        <time>2020-03-13T21:38:09.999Z</time>
      </trkpt>
      <trkpt lat="48.86998" lon="2.3324">
        <ele>89.01</ele>
        <time>2020-03-13T21:38:10.999Z</time>
      </trkpt>
      <trkpt lat="48.87005" lon="2.33243">
        <ele>89.1</ele>
        <time>2020-03-13T21:38:11.999Z</time>
      </trkpt>
      <trkpt lat="48.87012" lon="2.33247">
        <ele>89.2</ele>
        <time>2020-03-13T21:38:12.999Z</time>
      </trkpt>
      <trkpt lat="48.87018" lon="2.33249">
        <ele>89.31</ele>
        <time>2020-03-13T21:38:13.999Z</time>
      </trkpt>
      <trkpt lat="48.87023" lon="2.33251">
        <ele>89.32</ele>
        <time>2020-03-13T21:38:14.999Z</time>
      </trkpt>
      <trkpt lat="48.87026" lon="2.33254">
        <ele>89.33</ele>
        <time>2020-03-13T21:38:15.999Z</time>
      </trkpt>
      <trkpt lat="48.8703" lon="2.33256">
        <ele>89.34</ele>
        <time>2020-03-13T21:38:16.999Z</time>
      </trkpt>
      <trkpt lat="48.87033" lon="2.33257">
        <ele>89.35</ele>
        <time>2020-03-13T21:38:17.999Z</time>
      </trkpt>
      <trkpt lat="48.87035" lon="2.33257">
        <ele>89.36</ele>
        <time>2020-03-13T21:38:18.999Z</time>
      </trkpt>
      <trkpt lat="48.87037" lon="2.33257">
        <ele>89.37</ele>
        <time>2020-03-13T21:38:19.999Z</time>
      </trkpt>
      <trkpt lat="48.87039" lon="2.33257">
        <ele>89.38</ele>
        <time>2020-03-13T21:38:20.999Z</time>
      </trkpt>
      <trkpt lat="48.87042" lon="2.33256">
        <ele>89.39</ele>
        <time>2020-03-13T21:38:21.999Z</time>
      </trkpt>
      <trkpt lat="48.87044" lon="2.33256">
        <ele>89.4</ele>
        <time>2020-03-13T21:38:22.999Z</time>
      </trkpt>
      <trkpt lat="48.87046" lon="2.33255">
        <ele>89.41</ele>
        <time>2020-03-13T21:38:23.999Z</time>
      </trkpt>
      <trkpt lat="48.87049" lon="2.33255">
        <ele>89.42</ele>
        <time>2020-03-13T21:38:24.999Z</time>
      </trkpt>
      <trkpt lat="48.87051" lon="2.33256">
        <ele>89.43</ele>
        <time>2020-03-13T21:38:25.999Z</time>
      </trkpt>
      <trkpt lat="48.87053" lon="2.33256">
        <ele>89.44</ele>
        <time>2020-03-13T21:38:26.999Z</time>
      </trkpt>
      <trkpt lat="48.87056" lon="2.33256">
        <ele>89.45</ele>
        <time>2020-03-13T21:38:27.999Z</time>
      </trkpt>
      <trkpt lat="48.87059" lon="2.33256">
        <ele>89.46</ele>
        <time>2020-03-13T21:38:28.999Z</time>
      </trkpt>
      <trkpt lat="48.87061" lon="2.33255">
        <ele>89.46</ele>
        <time>2020-03-13T21:38:29.999Z</time>
      </trkpt>
      <trkpt lat="48.87064" lon="2.33255">
        <ele>89.47</ele>
        <time>2020-03-13T21:38:30.999Z</time>
      </trkpt>
      <trkpt lat="48.87066" lon="2.33255">
        <ele>89.47</ele>
        <time>2020-03-13T21:38:31.999Z</time>
      </trkpt>
      <trkpt lat="48.87068" lon="2.33254">
        <ele>89.47</ele>
        <time>2020-03-13T21:38:32.999Z</time>
      </trkpt>
      <trkpt lat="48.87071" lon="2.33252">
        <ele>89.47</ele>
        <time>2020-03-13T21:38:33.999Z</time>
      </trkpt>
      <trkpt lat="48.87073" lon="2.33251">
        <ele>89.47</ele>
        <time>2020-03-13T21:38:34.999Z</time>
      </trkpt>
      <trkpt lat="48.87076" lon="2.3325">
        <ele>89.48</ele>
        <time>2020-03-13T21:38:35.999Z</time>
      </trkpt>
      <trkpt lat="48.8708" lon="2.33248">
        <ele>89.48</ele>
        <time>2020-03-13T21:38:36.999Z</time>
      </trkpt>
      <trkpt lat="48.87083" lon="2.33247">
        <ele>89.48</ele>
        <time>2020-03-13T21:38:37.999Z</time>
      </trkpt>
      <trkpt lat="48.87085" lon="2.33246">
        <ele>89.49</ele>
        <time>2020-03-13T21:38:38.999Z</time>
      </trkpt>
      <trkpt lat="48.87088" lon="2.33244">
        <ele>89.49</ele>
        <time>2020-03-13T21:38:39.999Z</time>
      </trkpt>
      <trkpt lat="48.87091" lon="2.33243">
        <ele>89.5</ele>
        <time>2020-03-13T21:38:40.999Z</time>
      </trkpt>
      <trkpt lat="48.87094" lon="2.33242">
        <ele>89.5</ele>
        <time>2020-03-13T21:38:41.999Z</time>
      </trkpt>
      <trkpt lat="48.87096" lon="2.33239">
        <ele>89.51</ele>
        <time>2020-03-13T21:38:42.999Z</time>
      </trkpt>
      <trkpt lat="48.87099" lon="2.33238">
        <ele>89.52</ele>
        <time>2020-03-13T21:38:43.999Z</time>
      </trkpt>
      <trkpt lat="48.87102" lon="2.33237">
        <ele>89.53</ele>
        <time>2020-03-13T21:38:44.999Z</time>
      </trkpt>
      <trkpt lat="48.87104" lon="2.33235">
        <ele>89.54</ele>
        <time>2020-03-13T21:38:45.999Z</time>
      </trkpt>
      <trkpt lat="48.87106" lon="2.33234">
        <ele>89.55</ele>
        <time>2020-03-13T21:38:46.999Z</time>
      </trkpt>
      <trkpt lat="48.87108" lon="2.33233">
        <ele>89.56</ele>
        <time>2020-03-13T21:38:47.999Z</time>
      </trkpt>
      <trkpt lat="48.8711" lon="2.33232">
        <ele>89.58</ele>
        <time>2020-03-13T21:38:48.999Z</time>
      </trkpt>
      <trkpt lat="48.87113" lon="2.33231">
        <ele>89.59</ele>
        <time>2020-03-13T21:38:49.999Z</time>
      </trkpt>
      <trkpt lat="48.87114" lon="2.3323">
        <ele>89.61</ele>
        <time>2020-03-13T21:38:50.999Z</time>
      </trkpt>
      <trkpt lat="48.87116" lon="2.33229">
        <ele>89.63</ele>
        <time>2020-03-13T21:38:51.999Z</time>
      </trkpt>
      <trkpt lat="48.87118" lon="2.33228">
        <ele>89.65</ele>
        <time>2020-03-13T21:38:52.999Z</time>
      </trkpt>
      <trkpt lat="48.8712" lon="2.33227">
        <ele>89.67</ele>
        <time>2020-03-13T21:38:53.999Z</time>
      </trkpt>
      <trkpt lat="48.87121" lon="2.33226">
        <ele>89.69</ele>
        <time>2020-03-13T21:38:54.999Z</time>
      </trkpt>
      <trkpt lat="48.87123" lon="2.33224">
        <ele>89.71</ele>
        <time>2020-03-13T21:38:55.999Z</time>
      </trkpt>
      <trkpt lat="48.87124" lon="2.33224">
        <ele>89.73</ele>
        <time>2020-03-13T21:38:56.999Z</time>
      </trkpt>
      <trkpt lat="48.87126" lon="2.33223">
        <ele>89.75</ele>
        <time>2020-03-13T21:38:57.999Z</time>
      </trkpt>
      <trkpt lat="48.87126" lon="2.33222">
        <ele>89.77</ele>
        <time>2020-03-13T21:38:58.999Z</time>
      </trkpt>
      <trkpt lat="48.87128" lon="2.33221">
        <ele>89.78</ele>
        <time>2020-03-13T21:38:59.999Z</time>
      </trkpt>
      <trkpt lat="48.87129" lon="2.3322">
        <ele>89.8</ele>
        <time>2020-03-13T21:39:00.999Z</time>
      </trkpt>
      <trkpt lat="48.87131" lon="2.33219">
        <ele>89.81</ele>
        <time>2020-03-13T21:39:01.999Z</time>
      </trkpt>
      <trkpt lat="48.87132" lon="2.33219">
        <ele>89.83</ele>
        <time>2020-03-13T21:39:02.999Z</time>
      </trkpt>
      <trkpt lat="48.87133" lon="2.33219">
        <ele>89.86</ele>
        <time>2020-03-13T21:39:05.999Z</time>
      </trkpt>
      <trkpt lat="48.87133" lon="2.33222">
        <ele>89.9</ele>
        <time>2020-03-13T21:39:08.999Z</time>
      </trkpt>
      <trkpt lat="48.87134" lon="2.33223">
        <ele>89.93</ele>
        <time>2020-03-13T21:39:12.999Z</time>
      </trkpt>
      <trkpt lat="48.87135" lon="2.33225">
        <ele>89.94</ele>
        <time>2020-03-13T21:39:17.999Z</time>
      </trkpt>
      <trkpt lat="48.87134" lon="2.33222">
        <ele>89.94</ele>
        <time>2020-03-13T21:39:22.999Z</time>
      </trkpt>
      <trkpt lat="48.87135" lon="2.33225">
        <ele>89.94</ele>
        <time>2020-03-13T21:39:23.999Z</time>
      </trkpt>
      <trkpt lat="48.87137" lon="2.33224">
        <ele>89.94</ele>
        <time>2020-03-13T21:39:24.999Z</time>
      </trkpt>
      <trkpt lat="48.87136" lon="2.33225">
        <ele>89.95</ele>
        <time>2020-03-13T21:39:35.999Z</time>
      </trkpt>
      <trkpt lat="48.87137" lon="2.33227">
        <ele>89.96</ele>
        <time>2020-03-13T21:39:44.999Z</time>
      </trkpt>
      <trkpt lat="48.87137" lon="2.33228">
        <ele>89.96</ele>
        <time>2020-03-13T21:39:45.999Z</time>
      </trkpt>
      <trkpt lat="48.87137" lon="2.3323">
        <ele>89.97</ele>
        <time>2020-03-13T21:39:46.999Z</time>
      </trkpt>
      <trkpt lat="48.87137" lon="2.33232">
        <ele>89.97</ele>
        <time>2020-03-13T21:39:48.999Z</time>
      </trkpt>
      <trkpt lat="48.87137" lon="2.33233">
        <ele>89.98</ele>
        <time>2020-03-13T21:39:50.999Z</time>
      </trkpt>
      <trkpt lat="48.87137" lon="2.33235">
        <ele>89.98</ele>
        <time>2020-03-13T21:39:52.999Z</time>
      </trkpt>
      <trkpt lat="48.87136" lon="2.33235">
        <ele>90.01</ele>
        <time>2020-03-13T21:40:02.999Z</time>
      </trkpt>
      <trkpt lat="48.87136" lon="2.33232">
        <ele>90.04</ele>
        <time>2020-03-13T21:40:11.999Z</time>
      </trkpt>
      <trkpt lat="48.87136" lon="2.3323">
        <ele>90.04</ele>
        <time>2020-03-13T21:40:12.999Z</time>
      </trkpt>
      <trkpt lat="48.87136" lon="2.33229">
        <ele>90.04</ele>
        <time>2020-03-13T21:40:13.999Z</time>
      </trkpt>
      <trkpt lat="48.87137" lon="2.33226">
        <ele>90.04</ele>
        <time>2020-03-13T21:40:14.999Z</time>
      </trkpt>
      <trkpt lat="48.87137" lon="2.33228">
        <ele>90.08</ele>
        <time>2020-03-13T21:40:23.999Z</time>
      </trkpt>
      <trkpt lat="48.87137" lon="2.33228">
        <ele>90.15</ele>
        <time>2020-03-13T21:40:36.999Z</time>
      </trkpt>
      <trkpt lat="48.87137" lon="2.33226">
        <ele>90.26</ele>
        <time>2020-03-13T21:40:48.999Z</time>
      </trkpt>
      <trkpt lat="48.87138" lon="2.33225">
        <ele>90.29</ele>
        <time>2020-03-13T21:40:59.999Z</time>
      </trkpt>
      <trkpt lat="48.87138" lon="2.33227">
        <ele>90.37</ele>
        <time>2020-03-13T21:41:31.999Z</time>
      </trkpt>
      <trkpt lat="48.87137" lon="2.33227">
        <ele>90.42</ele>
        <time>2020-03-13T21:41:47.999Z</time>
      </trkpt>
      <trkpt lat="48.87138" lon="2.33226">
        <ele>90.6</ele>
        <time>2020-03-13T21:42:37.999Z</time>
      </trkpt>
      <trkpt lat="48.87138" lon="2.33223">
        <ele>90.66</ele>
        <time>2020-03-13T21:42:44.999Z</time>
      </trkpt>
      <trkpt lat="48.87138" lon="2.33221">
        <ele>90.69</ele>
        <time>2020-03-13T21:42:47.999Z</time>
      </trkpt>
      <trkpt lat="48.87139" lon="2.33222">
        <ele>90.73</ele>
        <time>2020-03-13T21:43:00.999Z</time>
      </trkpt>
      <trkpt lat="48.87139" lon="2.33224">
        <ele>90.8</ele>
        <time>2020-03-13T21:43:21.999Z</time>
      </trkpt>
      <trkpt lat="48.87138" lon="2.33224">
        <ele>90.85</ele>
        <time>2020-03-13T21:43:37.999Z</time>
      </trkpt>
      <trkpt lat="48.87138" lon="2.33226">
        <ele>90.92</ele>
        <time>2020-03-13T21:43:56.999Z</time>
      </trkpt>
      <trkpt lat="48.87138" lon="2.33229">
        <ele>90.94</ele>
        <time>2020-03-13T21:43:57.999Z</time>
      </trkpt>
      <trkpt lat="48.87139" lon="2.33231">
        <ele>90.97</ele>
        <time>2020-03-13T21:43:58.999Z</time>
      </trkpt>
      <trkpt lat="48.87139" lon="2.33229">
        <ele>91.08</ele>
        <time>2020-03-13T21:44:47.999Z</time>
      </trkpt>
      <trkpt lat="48.87139" lon="2.33228">
        <ele>91.14</ele>
        <time>2020-03-13T21:44:58.999Z</time>
      </trkpt>
      <trkpt lat="48.87142" lon="2.33233">
        <ele>91.21</ele>
        <time>2020-03-13T21:45:03.999Z</time>
      </trkpt>
      <trkpt lat="48.87143" lon="2.33235">
        <ele>91.22</ele>
        <time>2020-03-13T21:45:04.999Z</time>
      </trkpt>
      <trkpt lat="48.87145" lon="2.33236">
        <ele>91.24</ele>
        <time>2020-03-13T21:45:05.999Z</time>
      </trkpt>
      <trkpt lat="48.87146" lon="2.33237">
        <ele>91.25</ele>
        <time>2020-03-13T21:45:06.999Z</time>
      </trkpt>
      <trkpt lat="48.87147" lon="2.33238">
        <ele>91.27</ele>
        <time>2020-03-13T21:45:07.999Z</time>
      </trkpt>
      <trkpt lat="48.87148" lon="2.33239">
        <ele>91.28</ele>
        <time>2020-03-13T21:45:08.999Z</time>
      </trkpt>
      <trkpt lat="48.87149" lon="2.33241">
        <ele>91.31</ele>
        <time>2020-03-13T21:45:10.999Z</time>
      </trkpt>
      <trkpt lat="48.8715" lon="2.33241">
        <ele>91.36</ele>
        <time>2020-03-13T21:45:14.999Z</time>
      </trkpt>
      <trkpt lat="48.87152" lon="2.33242">
        <ele>91.38</ele>
        <time>2020-03-13T21:45:15.999Z</time>
      </trkpt>
      <trkpt lat="48.87154" lon="2.33242">
        <ele>91.39</ele>
        <time>2020-03-13T21:45:16.999Z</time>
      </trkpt>
      <trkpt lat="48.87155" lon="2.33242">
        <ele>91.4</ele>
        <time>2020-03-13T21:45:17.999Z</time>
      </trkpt>
      <trkpt lat="48.87156" lon="2.33243">
        <ele>91.41</ele>
        <time>2020-03-13T21:45:18.999Z</time>
      </trkpt>
      <trkpt lat="48.87158" lon="2.33244">
        <ele>91.42</ele>
        <time>2020-03-13T21:45:19.999Z</time>
      </trkpt>
      <trkpt lat="48.8716" lon="2.33245">
        <ele>91.43</ele>
        <time>2020-03-13T21:45:20.999Z</time>
      </trkpt>
      <trkpt lat="48.87162" lon="2.33247">
        <ele>91.44</ele>
        <time>2020-03-13T21:45:21.999Z</time>
      </trkpt>
      <trkpt lat="48.87164" lon="2.33248">
        <ele>91.46</ele>
        <time>2020-03-13T21:45:23.999Z</time>
      </trkpt>
      <trkpt lat="48.87165" lon="2.33248">
        <ele>91.47</ele>
        <time>2020-03-13T21:45:24.999Z</time>
      </trkpt>
      <trkpt lat="48.87166" lon="2.33248">
        <ele>91.48</ele>
        <time>2020-03-13T21:45:25.999Z</time>
      </trkpt>
      <trkpt lat="48.87167" lon="2.3325">
        <ele>91.49</ele>
        <time>2020-03-13T21:45:26.999Z</time>
      </trkpt>
      <trkpt lat="48.8717" lon="2.33254">
        <ele>91.51</ele>
        <time>2020-03-13T21:45:28.999Z</time>
      </trkpt>
      <trkpt lat="48.87176" lon="2.33259">
        <ele>91.52</ele>
        <time>2020-03-13T21:45:29.999Z</time>
      </trkpt>
      <trkpt lat="48.8718" lon="2.33264">
        <ele>91.52</ele>
        <time>2020-03-13T21:45:30.999Z</time>
      </trkpt>
      <trkpt lat="48.87184" lon="2.33268">
        <ele>91.53</ele>
        <time>2020-03-13T21:45:31.999Z</time>
      </trkpt>
      <trkpt lat="48.87187" lon="2.33271">
        <ele>91.54</ele>
        <time>2020-03-13T21:45:32.999Z</time>
      </trkpt>
      <trkpt lat="48.87189" lon="2.33273">
        <ele>91.55</ele>
        <time>2020-03-13T21:45:33.999Z</time>
      </trkpt>
      <trkpt lat="48.87191" lon="2.33275">
        <ele>91.55</ele>
        <time>2020-03-13T21:45:34.999Z</time>
      </trkpt>
      <trkpt lat="48.87196" lon="2.33274">
        <ele>91.56</ele>
        <time>2020-03-13T21:45:35.999Z</time>
      </trkpt>
      <trkpt lat="48.872" lon="2.33275">
        <ele>91.56</ele>
        <time>2020-03-13T21:45:36.999Z</time>
      </trkpt>
      <trkpt lat="48.87203" lon="2.33276">
        <ele>91.57</ele>
        <time>2020-03-13T21:45:37.999Z</time>
      </trkpt>
      <trkpt lat="48.87207" lon="2.33276">
        <ele>91.57</ele>
        <time>2020-03-13T21:45:38.999Z</time>
      </trkpt>
      <trkpt lat="48.8721" lon="2.33278">
        <ele>91.58</ele>
        <time>2020-03-13T21:45:39.999Z</time>
      </trkpt>
      <trkpt lat="48.87212" lon="2.33278">
        <ele>91.58</ele>
        <time>2020-03-13T21:45:40.999Z</time>
      </trkpt>
      <trkpt lat="48.87215" lon="2.3328">
        <ele>91.58</ele>
        <time>2020-03-13T21:45:41.999Z</time>
      </trkpt>
      <trkpt lat="48.87217" lon="2.33281">
        <ele>91.58</ele>
        <time>2020-03-13T21:45:42.999Z</time>
      </trkpt>
      <trkpt lat="48.87219" lon="2.33281">
        <ele>91.55</ele>
        <time>2020-03-13T21:45:43.999Z</time>
      </trkpt>
      <trkpt lat="48.8722" lon="2.33282">
        <ele>91.51</ele>
        <time>2020-03-13T21:45:44.999Z</time>
      </trkpt>
      <trkpt lat="48.87222" lon="2.33282">
        <ele>91.46</ele>
        <time>2020-03-13T21:45:45.999Z</time>
      </trkpt>
      <trkpt lat="48.87225" lon="2.33282">
        <ele>91.41</ele>
        <time>2020-03-13T21:45:46.999Z</time>
      </trkpt>
      <trkpt lat="48.87227" lon="2.33283">
        <ele>91.35</ele>
        <time>2020-03-13T21:45:47.999Z</time>
      </trkpt>
      <trkpt lat="48.8723" lon="2.33285">
        <ele>91.3</ele>
        <time>2020-03-13T21:45:48.999Z</time>
      </trkpt>
      <trkpt lat="48.87233" lon="2.33287">
        <ele>91.24</ele>
        <time>2020-03-13T21:45:49.999Z</time>
      </trkpt>
      <trkpt lat="48.87236" lon="2.33289">
        <ele>91.19</ele>
        <time>2020-03-13T21:45:50.999Z</time>
      </trkpt>
      <trkpt lat="48.87239" lon="2.33292">
        <ele>91.14</ele>
        <time>2020-03-13T21:45:51.999Z</time>
      </trkpt>
      <trkpt lat="48.87242" lon="2.33293">
        <ele>91.09</ele>
        <time>2020-03-13T21:45:52.999Z</time>
      </trkpt>
      <trkpt lat="48.87245" lon="2.33294">
        <ele>91.05</ele>
        <time>2020-03-13T21:45:53.999Z</time>
      </trkpt>
      <trkpt lat="48.87247" lon="2.33295">
        <ele>91.01</ele>
        <time>2020-03-13T21:45:54.999Z</time>
      </trkpt>
      <trkpt lat="48.8725" lon="2.33297">
        <ele>90.97</ele>
        <time>2020-03-13T21:45:55.999Z</time>
      </trkpt>
      <trkpt lat="48.87253" lon="2.33301">
        <ele>90.94</ele>
        <time>2020-03-13T21:45:56.999Z</time>
      </trkpt>
      <trkpt lat="48.87256" lon="2.33304">
        <ele>90.9</ele>
        <time>2020-03-13T21:45:57.999Z</time>
      </trkpt>
      <trkpt lat="48.8726" lon="2.33306">
        <ele>90.87</ele>
        <time>2020-03-13T21:45:58.999Z</time>
      </trkpt>
      <trkpt lat="48.87263" lon="2.33307">
        <ele>90.83</ele>
        <time>2020-03-13T21:45:59.999Z</time>
      </trkpt>
      <trkpt lat="48.87265" lon="2.33309">
        <ele>90.8</ele>
        <time>2020-03-13T21:46:00.999Z</time>
      </trkpt>
      <trkpt lat="48.87268" lon="2.33312">
        <ele>90.78</ele>
        <time>2020-03-13T21:46:01.999Z</time>
      </trkpt>
      <trkpt lat="48.87271" lon="2.33316">
        <ele>90.75</ele>
        <time>2020-03-13T21:46:02.999Z</time>
      </trkpt>
      <trkpt lat="48.87275" lon="2.33321">
        <ele>90.72</ele>
        <time>2020-03-13T21:46:03.999Z</time>
      </trkpt>
      <trkpt lat="48.87278" lon="2.33325">
        <ele>90.7</ele>
        <time>2020-03-13T21:46:04.999Z</time>
      </trkpt>
      <trkpt lat="48.87281" lon="2.33328">
        <ele>90.67</ele>
        <time>2020-03-13T21:46:05.999Z</time>
      </trkpt>
      <trkpt lat="48.87283" lon="2.33331">
        <ele>90.65</ele>
        <time>2020-03-13T21:46:06.999Z</time>
      </trkpt>
      <trkpt lat="48.87286" lon="2.33333">
        <ele>90.63</ele>
        <time>2020-03-13T21:46:07.999Z</time>
      </trkpt>
      <trkpt lat="48.87289" lon="2.33335">
        <ele>90.6</ele>
        <time>2020-03-13T21:46:08.999Z</time>
      </trkpt>
      <trkpt lat="48.87291" lon="2.33338">
        <ele>90.57</ele>
        <time>2020-03-13T21:46:09.999Z</time>
      </trkpt>
      <trkpt lat="48.87294" lon="2.3334">
        <ele>90.54</ele>
        <time>2020-03-13T21:46:10.999Z</time>
      </trkpt>
      <trkpt lat="48.87297" lon="2.33342">
        <ele>90.5</ele>
        <time>2020-03-13T21:46:11.999Z</time>
      </trkpt>
      <trkpt lat="48.873" lon="2.33345">
        <ele>90.46</ele>
        <time>2020-03-13T21:46:12.999Z</time>
      </trkpt>
      <trkpt lat="48.87302" lon="2.33348">
        <ele>90.42</ele>
        <time>2020-03-13T21:46:13.999Z</time>
      </trkpt>
      <trkpt lat="48.87305" lon="2.33352">
        <ele>90.38</ele>
        <time>2020-03-13T21:46:14.999Z</time>
      </trkpt>
      <trkpt lat="48.87307" lon="2.33356">
        <ele>90.34</ele>
        <time>2020-03-13T21:46:15.999Z</time>
      </trkpt>
      <trkpt lat="48.87308" lon="2.3336">
        <ele>90.3</ele>
        <time>2020-03-13T21:46:16.999Z</time>
      </trkpt>
      <trkpt lat="48.8731" lon="2.33364">
        <ele>90.26</ele>
        <time>2020-03-13T21:46:17.999Z</time>
      </trkpt>
      <trkpt lat="48.87311" lon="2.33368">
        <ele>90.22</ele>
        <time>2020-03-13T21:46:18.999Z</time>
      </trkpt>
      <trkpt lat="48.87312" lon="2.33372">
        <ele>90.17</ele>
        <time>2020-03-13T21:46:19.999Z</time>
      </trkpt>
      <trkpt lat="48.87314" lon="2.33376">
        <ele>90.13</ele>
        <time>2020-03-13T21:46:20.999Z</time>
      </trkpt>
      <trkpt lat="48.87315" lon="2.3338">
        <ele>90.09</ele>
        <time>2020-03-13T21:46:21.999Z</time>
      </trkpt>
      <trkpt lat="48.87317" lon="2.33384">
        <ele>90.05</ele>
        <time>2020-03-13T21:46:22.999Z</time>
      </trkpt>
      <trkpt lat="48.87319" lon="2.33389">
        <ele>90.01</ele>
        <time>2020-03-13T21:46:23.999Z</time>
      </trkpt>
      <trkpt lat="48.8732" lon="2.33394">
        <ele>89.98</ele>
        <time>2020-03-13T21:46:24.999Z</time>
      </trkpt>
      <trkpt lat="48.87322" lon="2.33399">
        <ele>89.63</ele>
        <time>2020-03-13T21:46:25.999Z</time>
      </trkpt>
      <trkpt lat="48.87324" lon="2.33405">
        <ele>89.6</ele>
        <time>2020-03-13T21:46:26.999Z</time>
      </trkpt>
      <trkpt lat="48.87325" lon="2.3341">
        <ele>89.57</ele>
        <time>2020-03-13T21:46:27.999Z</time>
      </trkpt>
      <trkpt lat="48.87327" lon="2.33415">
        <ele>89.54</ele>
        <time>2020-03-13T21:46:28.999Z</time>
      </trkpt>
      <trkpt lat="48.87328" lon="2.3342">
        <ele>89.52</ele>
        <time>2020-03-13T21:46:29.999Z</time>
      </trkpt>
      <trkpt lat="48.87329" lon="2.33424">
        <ele>89.49</ele>
        <time>2020-03-13T21:46:30.999Z</time>
      </trkpt>
      <trkpt lat="48.87331" lon="2.33429">
        <ele>89.47</ele>
        <time>2020-03-13T21:46:31.999Z</time>
      </trkpt>
      <trkpt lat="48.87332" lon="2.33433">
        <ele>89.44</ele>
        <time>2020-03-13T21:46:32.999Z</time>
      </trkpt>
      <trkpt lat="48.87334" lon="2.33438">
        <ele>89.42</ele>
        <time>2020-03-13T21:46:33.999Z</time>
      </trkpt>
      <trkpt lat="48.87336" lon="2.33442">
        <ele>89.39</ele>
        <time>2020-03-13T21:46:34.999Z</time>
      </trkpt>
      <trkpt lat="48.87337" lon="2.33446">
        <ele>89.37</ele>
        <time>2020-03-13T21:46:35.999Z</time>
      </trkpt>
      <trkpt lat="48.87337" lon="2.33452">
        <ele>89.35</ele>
        <time>2020-03-13T21:46:36.999Z</time>
      </trkpt>
      <trkpt lat="48.87338" lon="2.33457">
        <ele>89.33</ele>
        <time>2020-03-13T21:46:37.999Z</time>
      </trkpt>
      <trkpt lat="48.87339" lon="2.33462">
        <ele>89.31</ele>
        <time>2020-03-13T21:46:38.999Z</time>
      </trkpt>
      <trkpt lat="48.8734" lon="2.33466">
        <ele>89.29</ele>
        <time>2020-03-13T21:46:39.999Z</time>
      </trkpt>
      <trkpt lat="48.87342" lon="2.33471">
        <ele>89.27</ele>
        <time>2020-03-13T21:46:40.999Z</time>
      </trkpt>
      <trkpt lat="48.87344" lon="2.33476">
        <ele>89.26</ele>
        <time>2020-03-13T21:46:41.999Z</time>
      </trkpt>
      <trkpt lat="48.87346" lon="2.33481">
        <ele>89.24</ele>
        <time>2020-03-13T21:46:42.999Z</time>
      </trkpt>
      <trkpt lat="48.87347" lon="2.33486">
        <ele>89.23</ele>
        <time>2020-03-13T21:46:43.999Z</time>
      </trkpt>
      <trkpt lat="48.87348" lon="2.33491">
        <ele>89.21</ele>
        <time>2020-03-13T21:46:44.999Z</time>
      </trkpt>
      <trkpt lat="48.8735" lon="2.33496">
        <ele>89.2</ele>
        <time>2020-03-13T21:46:45.999Z</time>
      </trkpt>
      <trkpt lat="48.87352" lon="2.33502">
        <ele>89.18</ele>
        <time>2020-03-13T21:46:46.999Z</time>
      </trkpt>
      <trkpt lat="48.87355" lon="2.33506">
        <ele>89.16</ele>
        <time>2020-03-13T21:46:47.999Z</time>
      </trkpt>
      <trkpt lat="48.87357" lon="2.33511">
        <ele>89.15</ele>
        <time>2020-03-13T21:46:48.999Z</time>
      </trkpt>
      <trkpt lat="48.87359" lon="2.33516">
        <ele>89.13</ele>
        <time>2020-03-13T21:46:49.999Z</time>
      </trkpt>
      <trkpt lat="48.87361" lon="2.33521">
        <ele>89.11</ele>
        <time>2020-03-13T21:46:50.999Z</time>
      </trkpt>
      <trkpt lat="48.87362" lon="2.33527">
        <ele>89.09</ele>
        <time>2020-03-13T21:46:51.999Z</time>
      </trkpt>
      <trkpt lat="48.87364" lon="2.33533">
        <ele>88.89</ele>
        <time>2020-03-13T21:46:52.999Z</time>
      </trkpt>
      <trkpt lat="48.87365" lon="2.33539">
        <ele>88.88</ele>
        <time>2020-03-13T21:46:53.999Z</time>
      </trkpt>
      <trkpt lat="48.87366" lon="2.33544">
        <ele>88.86</ele>
        <time>2020-03-13T21:46:54.999Z</time>
      </trkpt>
      <trkpt lat="48.87367" lon="2.3355">
        <ele>88.69</ele>
        <time>2020-03-13T21:46:55.999Z</time>
      </trkpt>
      <trkpt lat="48.87369" lon="2.33556">
        <ele>88.55</ele>
        <time>2020-03-13T21:46:56.999Z</time>
      </trkpt>
      <trkpt lat="48.87371" lon="2.33562">
        <ele>88.42</ele>
        <time>2020-03-13T21:46:57.999Z</time>
      </trkpt>
      <trkpt lat="48.87372" lon="2.33568">
        <ele>88.3</ele>
        <time>2020-03-13T21:46:58.999Z</time>
      </trkpt>
      <trkpt lat="48.87374" lon="2.33574">
        <ele>88.2</ele>
        <time>2020-03-13T21:46:59.999Z</time>
      </trkpt>
      <trkpt lat="48.87377" lon="2.3358">
        <ele>88.14</ele>
        <time>2020-03-13T21:47:00.999Z</time>
      </trkpt>
      <trkpt lat="48.87379" lon="2.33586">
        <ele>88.08</ele>
        <time>2020-03-13T21:47:01.999Z</time>
      </trkpt>
      <trkpt lat="48.8738" lon="2.33592">
        <ele>88</ele>
        <time>2020-03-13T21:47:02.999Z</time>
      </trkpt>
      <trkpt lat="48.87382" lon="2.33599">
        <ele>87.94</ele>
        <time>2020-03-13T21:47:03.999Z</time>
      </trkpt>
      <trkpt lat="48.87384" lon="2.33606">
        <ele>87.86</ele>
        <time>2020-03-13T21:47:04.999Z</time>
      </trkpt>
      <trkpt lat="48.87387" lon="2.33612">
        <ele>87.79</ele>
        <time>2020-03-13T21:47:05.999Z</time>
      </trkpt>
      <trkpt lat="48.87388" lon="2.33619">
        <ele>87.72</ele>
        <time>2020-03-13T21:47:06.999Z</time>
      </trkpt>
      <trkpt lat="48.8739" lon="2.33625">
        <ele>87.66</ele>
        <time>2020-03-13T21:47:07.999Z</time>
      </trkpt>
      <trkpt lat="48.87392" lon="2.33632">
        <ele>87.58</ele>
        <time>2020-03-13T21:47:08.999Z</time>
      </trkpt>
      <trkpt lat="48.87394" lon="2.33638">
        <ele>87.52</ele>
        <time>2020-03-13T21:47:09.999Z</time>
      </trkpt>
      <trkpt lat="48.87396" lon="2.33645">
        <ele>87.46</ele>
        <time>2020-03-13T21:47:10.999Z</time>
      </trkpt>
      <trkpt lat="48.87397" lon="2.33652">
        <ele>87.41</ele>
        <time>2020-03-13T21:47:11.999Z</time>
      </trkpt>
      <trkpt lat="48.87399" lon="2.33658">
        <ele>87.36</ele>
        <time>2020-03-13T21:47:12.999Z</time>
      </trkpt>
      <trkpt lat="48.87401" lon="2.33665">
        <ele>87.3</ele>
        <time>2020-03-13T21:47:13.999Z</time>
      </trkpt>
      <trkpt lat="48.87403" lon="2.33672">
        <ele>87.24</ele>
        <time>2020-03-13T21:47:14.999Z</time>
      </trkpt>
      <trkpt lat="48.87405" lon="2.33678">
        <ele>87.18</ele>
        <time>2020-03-13T21:47:15.999Z</time>
      </trkpt>
      <trkpt lat="48.87406" lon="2.33685">
        <ele>87.12</ele>
        <time>2020-03-13T21:47:16.999Z</time>
      </trkpt>
      <trkpt lat="48.87408" lon="2.33692">
        <ele>87.06</ele>
        <time>2020-03-13T21:47:17.999Z</time>
      </trkpt>
      <trkpt lat="48.8741" lon="2.33699">
        <ele>87.01</ele>
        <time>2020-03-13T21:47:18.999Z</time>
      </trkpt>
      <trkpt lat="48.8741" lon="2.33706">
        <ele>86.97</ele>
        <time>2020-03-13T21:47:19.999Z</time>
      </trkpt>
      <trkpt lat="48.87411" lon="2.33713">
        <ele>86.94</ele>
        <time>2020-03-13T21:47:20.999Z</time>
      </trkpt>
      <trkpt lat="48.87411" lon="2.3372">
        <ele>86.91</ele>
        <time>2020-03-13T21:47:21.999Z</time>
      </trkpt>
      <trkpt lat="48.87412" lon="2.33728">
        <ele>86.88</ele>
        <time>2020-03-13T21:47:22.999Z</time>
      </trkpt>
      <trkpt lat="48.87413" lon="2.33735">
        <ele>86.85</ele>
        <time>2020-03-13T21:47:23.999Z</time>
      </trkpt>
      <trkpt lat="48.87415" lon="2.33742">
        <ele>86.82</ele>
        <time>2020-03-13T21:47:24.999Z</time>
      </trkpt>
      <trkpt lat="48.87416" lon="2.33749">
        <ele>86.79</ele>
        <time>2020-03-13T21:47:25.999Z</time>
      </trkpt>
      <trkpt lat="48.87418" lon="2.33756">
        <ele>86.76</ele>
        <time>2020-03-13T21:47:26.999Z</time>
      </trkpt>
      <trkpt lat="48.87421" lon="2.33762">
        <ele>86.74</ele>
        <time>2020-03-13T21:47:27.999Z</time>
      </trkpt>
      <trkpt lat="48.87423" lon="2.33769">
        <ele>86.74</ele>
        <time>2020-03-13T21:47:28.999Z</time>
      </trkpt>
      <trkpt lat="48.87425" lon="2.33775">
        <ele>86.74</ele>
        <time>2020-03-13T21:47:29.999Z</time>
      </trkpt>
      <trkpt lat="48.87427" lon="2.33781">
        <ele>86.71</ele>
        <time>2020-03-13T21:47:30.999Z</time>
      </trkpt>
      <trkpt lat="48.87429" lon="2.33787">
        <ele>86.67</ele>
        <time>2020-03-13T21:47:31.999Z</time>
      </trkpt>
      <trkpt lat="48.87431" lon="2.33794">
        <ele>86.64</ele>
        <time>2020-03-13T21:47:32.999Z</time>
      </trkpt>
      <trkpt lat="48.87433" lon="2.33801">
        <ele>86.61</ele>
        <time>2020-03-13T21:47:33.999Z</time>
      </trkpt>
      <trkpt lat="48.87435" lon="2.33807">
        <ele>86.59</ele>
        <time>2020-03-13T21:47:34.999Z</time>
      </trkpt>
      <trkpt lat="48.87437" lon="2.33812">
        <ele>86.59</ele>
        <time>2020-03-13T21:47:35.999Z</time>
      </trkpt>
      <trkpt lat="48.8744" lon="2.33818">
        <ele>86.59</ele>
        <time>2020-03-13T21:47:36.999Z</time>
      </trkpt>
      <trkpt lat="48.87442" lon="2.33824">
        <ele>86.59</ele>
        <time>2020-03-13T21:47:37.999Z</time>
      </trkpt>
      <trkpt lat="48.87444" lon="2.33831">
        <ele>86.58</ele>
        <time>2020-03-13T21:47:38.999Z</time>
      </trkpt>
      <trkpt lat="48.87446" lon="2.33837">
        <ele>86.57</ele>
        <time>2020-03-13T21:47:39.999Z</time>
      </trkpt>
      <trkpt lat="48.87448" lon="2.33844">
        <ele>86.55</ele>
        <time>2020-03-13T21:47:40.999Z</time>
      </trkpt>
      <trkpt lat="48.8745" lon="2.3385">
        <ele>86.54</ele>
        <time>2020-03-13T21:47:41.999Z</time>
      </trkpt>
      <trkpt lat="48.87453" lon="2.33857">
        <ele>86.54</ele>
        <time>2020-03-13T21:47:42.999Z</time>
      </trkpt>
      <trkpt lat="48.87456" lon="2.33864">
        <ele>86.55</ele>
        <time>2020-03-13T21:47:43.999Z</time>
      </trkpt>
      <trkpt lat="48.87458" lon="2.33869">
        <ele>86.55</ele>
        <time>2020-03-13T21:47:44.999Z</time>
      </trkpt>
      <trkpt lat="48.8746" lon="2.33875">
        <ele>86.56</ele>
        <time>2020-03-13T21:47:45.999Z</time>
      </trkpt>
      <trkpt lat="48.87461" lon="2.33881">
        <ele>86.56</ele>
        <time>2020-03-13T21:47:46.999Z</time>
      </trkpt>
      <trkpt lat="48.87463" lon="2.33887">
        <ele>86.55</ele>
        <time>2020-03-13T21:47:47.999Z</time>
      </trkpt>
      <trkpt lat="48.87465" lon="2.33892">
        <ele>86.54</ele>
        <time>2020-03-13T21:47:48.999Z</time>
      </trkpt>
      <trkpt lat="48.87466" lon="2.33898">
        <ele>86.51</ele>
        <time>2020-03-13T21:47:49.999Z</time>
      </trkpt>
      <trkpt lat="48.87468" lon="2.33903">
        <ele>86.47</ele>
        <time>2020-03-13T21:47:50.999Z</time>
      </trkpt>
      <trkpt lat="48.87469" lon="2.33909">
        <ele>86.47</ele>
        <time>2020-03-13T21:47:51.999Z</time>
      </trkpt>
      <trkpt lat="48.87471" lon="2.33914">
        <ele>86.46</ele>
        <time>2020-03-13T21:47:52.999Z</time>
      </trkpt>
      <trkpt lat="48.87472" lon="2.33918">
        <ele>86.45</ele>
        <time>2020-03-13T21:47:53.999Z</time>
      </trkpt>
      <trkpt lat="48.87473" lon="2.33922">
        <ele>86.45</ele>
        <time>2020-03-13T21:47:54.999Z</time>
      </trkpt>
      <trkpt lat="48.87473" lon="2.33926">
        <ele>86.44</ele>
        <time>2020-03-13T21:47:55.999Z</time>
      </trkpt>
      <trkpt lat="48.87474" lon="2.33931">
        <ele>86.44</ele>
        <time>2020-03-13T21:47:56.999Z</time>
      </trkpt>
      <trkpt lat="48.87475" lon="2.33935">
        <ele>86.43</ele>
        <time>2020-03-13T21:47:57.999Z</time>
      </trkpt>
      <trkpt lat="48.87475" lon="2.33939">
        <ele>86.42</ele>
        <time>2020-03-13T21:47:58.999Z</time>
      </trkpt>
      <trkpt lat="48.87476" lon="2.33943">
        <ele>86.41</ele>
        <time>2020-03-13T21:47:59.999Z</time>
      </trkpt>
      <trkpt lat="48.87475" lon="2.33947">
        <ele>86.41</ele>
        <time>2020-03-13T21:48:00.999Z</time>
      </trkpt>
      <trkpt lat="48.87475" lon="2.3395">
        <ele>86.4</ele>
        <time>2020-03-13T21:48:01.999Z</time>
      </trkpt>
      <trkpt lat="48.87475" lon="2.33954">
        <ele>86.39</ele>
        <time>2020-03-13T21:48:02.999Z</time>
      </trkpt>
      <trkpt lat="48.87476" lon="2.33958">
        <ele>86.38</ele>
        <time>2020-03-13T21:48:03.999Z</time>
      </trkpt>
      <trkpt lat="48.87476" lon="2.33962">
        <ele>86.37</ele>
        <time>2020-03-13T21:48:04.999Z</time>
      </trkpt>
      <trkpt lat="48.87477" lon="2.33966">
        <ele>86.37</ele>
        <time>2020-03-13T21:48:05.999Z</time>
      </trkpt>
      <trkpt lat="48.87477" lon="2.33971">
        <ele>86.36</ele>
        <time>2020-03-13T21:48:06.999Z</time>
      </trkpt>
      <trkpt lat="48.87478" lon="2.33977">
        <ele>86.35</ele>
        <time>2020-03-13T21:48:07.999Z</time>
      </trkpt>
      <trkpt lat="48.8748" lon="2.33982">
        <ele>86.28</ele>
        <time>2020-03-13T21:48:08.999Z</time>
      </trkpt>
      <trkpt lat="48.87481" lon="2.33988">
        <ele>86.22</ele>
        <time>2020-03-13T21:48:09.999Z</time>
      </trkpt>
      <trkpt lat="48.87483" lon="2.33994">
        <ele>86.18</ele>
        <time>2020-03-13T21:48:10.999Z</time>
      </trkpt>
      <trkpt lat="48.87484" lon="2.34">
        <ele>86.14</ele>
        <time>2020-03-13T21:48:11.999Z</time>
      </trkpt>
      <trkpt lat="48.87485" lon="2.34007">
        <ele>86.11</ele>
        <time>2020-03-13T21:48:12.999Z</time>
      </trkpt>
      <trkpt lat="48.87486" lon="2.34013">
        <ele>86.09</ele>
        <time>2020-03-13T21:48:13.999Z</time>
      </trkpt>
      <trkpt lat="48.87487" lon="2.34019">
        <ele>86.06</ele>
        <time>2020-03-13T21:48:14.999Z</time>
      </trkpt>
      <trkpt lat="48.87488" lon="2.34027">
        <ele>86.03</ele>
        <time>2020-03-13T21:48:15.999Z</time>
      </trkpt>
      <trkpt lat="48.87489" lon="2.34033">
        <ele>85.99</ele>
        <time>2020-03-13T21:48:16.999Z</time>
      </trkpt>
      <trkpt lat="48.8749" lon="2.34039">
        <ele>85.96</ele>
        <time>2020-03-13T21:48:17.999Z</time>
      </trkpt>
      <trkpt lat="48.87491" lon="2.34048">
        <ele>85.93</ele>
        <time>2020-03-13T21:48:18.999Z</time>
      </trkpt>
      <trkpt lat="48.87491" lon="2.34055">
        <ele>85.92</ele>
        <time>2020-03-13T21:48:19.999Z</time>
      </trkpt>
      <trkpt lat="48.87492" lon="2.34062">
        <ele>85.89</ele>
        <time>2020-03-13T21:48:20.999Z</time>
      </trkpt>
      <trkpt lat="48.87494" lon="2.34068">
        <ele>85.87</ele>
        <time>2020-03-13T21:48:21.999Z</time>
      </trkpt>
      <trkpt lat="48.87497" lon="2.34075">
        <ele>85.86</ele>
        <time>2020-03-13T21:48:22.999Z</time>
      </trkpt>
      <trkpt lat="48.875" lon="2.34082">
        <ele>85.83</ele>
        <time>2020-03-13T21:48:23.999Z</time>
      </trkpt>
      <trkpt lat="48.87502" lon="2.3409">
        <ele>85.81</ele>
        <time>2020-03-13T21:48:24.999Z</time>
      </trkpt>
      <trkpt lat="48.87504" lon="2.34095">
        <ele>85.8</ele>
        <time>2020-03-13T21:48:25.999Z</time>
      </trkpt>
      <trkpt lat="48.87506" lon="2.34101">
        <ele>85.79</ele>
        <time>2020-03-13T21:48:26.999Z</time>
      </trkpt>
      <trkpt lat="48.87508" lon="2.34107">
        <ele>85.78</ele>
        <time>2020-03-13T21:48:27.999Z</time>
      </trkpt>
      <trkpt lat="48.8751" lon="2.34113">
        <ele>85.76</ele>
        <time>2020-03-13T21:48:28.999Z</time>
      </trkpt>
      <trkpt lat="48.87512" lon="2.34119">
        <ele>85.74</ele>
        <time>2020-03-13T21:48:29.999Z</time>
      </trkpt>
      <trkpt lat="48.87514" lon="2.34125">
        <ele>85.71</ele>
        <time>2020-03-13T21:48:30.999Z</time>
      </trkpt>
      <trkpt lat="48.87516" lon="2.34131">
        <ele>85.68</ele>
        <time>2020-03-13T21:48:31.999Z</time>
      </trkpt>
      <trkpt lat="48.87518" lon="2.34138">
        <ele>85.64</ele>
        <time>2020-03-13T21:48:32.999Z</time>
      </trkpt>
      <trkpt lat="48.8752" lon="2.34144">
        <ele>85.6</ele>
        <time>2020-03-13T21:48:33.999Z</time>
      </trkpt>
      <trkpt lat="48.87522" lon="2.34149">
        <ele>85.57</ele>
        <time>2020-03-13T21:48:34.999Z</time>
      </trkpt>
      <trkpt lat="48.87524" lon="2.34155">
        <ele>85.53</ele>
        <time>2020-03-13T21:48:35.999Z</time>
      </trkpt>
      <trkpt lat="48.87526" lon="2.34161">
        <ele>85.49</ele>
        <time>2020-03-13T21:48:36.999Z</time>
      </trkpt>
      <trkpt lat="48.87528" lon="2.34167">
        <ele>85.45</ele>
        <time>2020-03-13T21:48:37.999Z</time>
      </trkpt>
      <trkpt lat="48.87529" lon="2.34174">
        <ele>85.4</ele>
        <time>2020-03-13T21:48:38.999Z</time>
      </trkpt>
      <trkpt lat="48.87531" lon="2.3418">
        <ele>85.37</ele>
        <time>2020-03-13T21:48:39.999Z</time>
      </trkpt>
      <trkpt lat="48.87533" lon="2.34186">
        <ele>85.34</ele>
        <time>2020-03-13T21:48:40.999Z</time>
      </trkpt>
      <trkpt lat="48.87535" lon="2.34193">
        <ele>85.29</ele>
        <time>2020-03-13T21:48:41.999Z</time>
      </trkpt>
      <trkpt lat="48.87537" lon="2.34199">
        <ele>85.24</ele>
        <time>2020-03-13T21:48:42.999Z</time>
      </trkpt>
      <trkpt lat="48.87538" lon="2.34205">
        <ele>85.19</ele>
        <time>2020-03-13T21:48:43.999Z</time>
      </trkpt>
      <trkpt lat="48.87539" lon="2.34212">
        <ele>85.15</ele>
        <time>2020-03-13T21:48:44.999Z</time>
      </trkpt>
      <trkpt lat="48.87541" lon="2.34218">
        <ele>85.11</ele>
        <time>2020-03-13T21:48:45.999Z</time>
      </trkpt>
      <trkpt lat="48.87543" lon="2.34224">
        <ele>85.08</ele>
        <time>2020-03-13T21:48:46.999Z</time>
      </trkpt>
      <trkpt lat="48.87545" lon="2.3423">
        <ele>85.05</ele>
        <time>2020-03-13T21:48:47.999Z</time>
      </trkpt>
      <trkpt lat="48.87547" lon="2.34237">
        <ele>85.02</ele>
        <time>2020-03-13T21:48:48.999Z</time>
      </trkpt>
      <trkpt lat="48.87549" lon="2.34243">
        <ele>85</ele>
        <time>2020-03-13T21:48:49.999Z</time>
      </trkpt>
      <trkpt lat="48.8755" lon="2.34249">
        <ele>84.97</ele>
        <time>2020-03-13T21:48:50.999Z</time>
      </trkpt>
      <trkpt lat="48.87552" lon="2.34256">
        <ele>84.96</ele>
        <time>2020-03-13T21:48:51.999Z</time>
      </trkpt>
      <trkpt lat="48.87554" lon="2.34262">
        <ele>84.93</ele>
        <time>2020-03-13T21:48:52.999Z</time>
      </trkpt>
      <trkpt lat="48.87555" lon="2.34269">
        <ele>84.91</ele>
        <time>2020-03-13T21:48:53.999Z</time>
      </trkpt>
      <trkpt lat="48.87556" lon="2.34276">
        <ele>84.9</ele>
        <time>2020-03-13T21:48:54.999Z</time>
      </trkpt>
      <trkpt lat="48.87556" lon="2.34283">
        <ele>84.88</ele>
        <time>2020-03-13T21:48:55.999Z</time>
      </trkpt>
      <trkpt lat="48.87556" lon="2.34291">
        <ele>84.87</ele>
        <time>2020-03-13T21:48:56.999Z</time>
      </trkpt>
      <trkpt lat="48.87557" lon="2.34298">
        <ele>84.85</ele>
        <time>2020-03-13T21:48:57.999Z</time>
      </trkpt>
      <trkpt lat="48.87558" lon="2.34305">
        <ele>84.84</ele>
        <time>2020-03-13T21:48:58.999Z</time>
      </trkpt>
      <trkpt lat="48.87559" lon="2.34313">
        <ele>84.83</ele>
        <time>2020-03-13T21:48:59.999Z</time>
      </trkpt>
      <trkpt lat="48.87559" lon="2.3432">
        <ele>84.82</ele>
        <time>2020-03-13T21:49:00.999Z</time>
      </trkpt>
      <trkpt lat="48.87561" lon="2.34327">
        <ele>84.82</ele>
        <time>2020-03-13T21:49:01.999Z</time>
      </trkpt>
      <trkpt lat="48.87563" lon="2.34333">
        <ele>84.81</ele>
        <time>2020-03-13T21:49:02.999Z</time>
      </trkpt>
      <trkpt lat="48.87565" lon="2.3434">
        <ele>84.8</ele>
        <time>2020-03-13T21:49:03.999Z</time>
      </trkpt>
      <trkpt lat="48.87566" lon="2.34347">
        <ele>84.78</ele>
        <time>2020-03-13T21:49:04.999Z</time>
      </trkpt>
      <trkpt lat="48.87569" lon="2.34354">
        <ele>84.77</ele>
        <time>2020-03-13T21:49:05.999Z</time>
      </trkpt>
      <trkpt lat="48.87571" lon="2.3436">
        <ele>84.75</ele>
        <time>2020-03-13T21:49:06.999Z</time>
      </trkpt>
      <trkpt lat="48.87573" lon="2.34367">
        <ele>84.74</ele>
        <time>2020-03-13T21:49:07.999Z</time>
      </trkpt>
      <trkpt lat="48.87575" lon="2.34374">
        <ele>84.73</ele>
        <time>2020-03-13T21:49:08.999Z</time>
      </trkpt>
      <trkpt lat="48.87577" lon="2.34381">
        <ele>84.72</ele>
        <time>2020-03-13T21:49:09.999Z</time>
      </trkpt>
      <trkpt lat="48.87579" lon="2.34387">
        <ele>84.71</ele>
        <time>2020-03-13T21:49:10.999Z</time>
      </trkpt>
      <trkpt lat="48.87581" lon="2.34394">
        <ele>84.71</ele>
        <time>2020-03-13T21:49:11.999Z</time>
      </trkpt>
      <trkpt lat="48.87583" lon="2.34402">
        <ele>84.7</ele>
        <time>2020-03-13T21:49:12.999Z</time>
      </trkpt>
      <trkpt lat="48.87585" lon="2.3441">
        <ele>84.7</ele>
        <time>2020-03-13T21:49:13.999Z</time>
      </trkpt>
      <trkpt lat="48.87587" lon="2.34418">
        <ele>84.69</ele>
        <time>2020-03-13T21:49:14.999Z</time>
      </trkpt>
      <trkpt lat="48.87588" lon="2.34427">
        <ele>84.68</ele>
        <time>2020-03-13T21:49:15.999Z</time>
      </trkpt>
      <trkpt lat="48.87591" lon="2.34435">
        <ele>84.67</ele>
        <time>2020-03-13T21:49:16.999Z</time>
      </trkpt>
      <trkpt lat="48.87594" lon="2.34442">
        <ele>84.67</ele>
        <time>2020-03-13T21:49:17.999Z</time>
      </trkpt>
      <trkpt lat="48.87595" lon="2.3445">
        <ele>84.66</ele>
        <time>2020-03-13T21:49:18.999Z</time>
      </trkpt>
      <trkpt lat="48.87597" lon="2.34457">
        <ele>84.65</ele>
        <time>2020-03-13T21:49:19.999Z</time>
      </trkpt>
      <trkpt lat="48.876" lon="2.34465">
        <ele>84.64</ele>
        <time>2020-03-13T21:49:20.999Z</time>
      </trkpt>
      <trkpt lat="48.87602" lon="2.34472">
        <ele>84.62</ele>
        <time>2020-03-13T21:49:21.999Z</time>
      </trkpt>
      <trkpt lat="48.87604" lon="2.34479">
        <ele>84.61</ele>
        <time>2020-03-13T21:49:22.999Z</time>
      </trkpt>
      <trkpt lat="48.87607" lon="2.34486">
        <ele>84.62</ele>
        <time>2020-03-13T21:49:23.999Z</time>
      </trkpt>
      <trkpt lat="48.87609" lon="2.34493">
        <ele>84.61</ele>
        <time>2020-03-13T21:49:24.999Z</time>
      </trkpt>
      <trkpt lat="48.87612" lon="2.34502">
        <ele>84.61</ele>
        <time>2020-03-13T21:49:25.999Z</time>
      </trkpt>
      <trkpt lat="48.87615" lon="2.34509">
        <ele>84.6</ele>
        <time>2020-03-13T21:49:26.999Z</time>
      </trkpt>
      <trkpt lat="48.87619" lon="2.34517">
        <ele>84.59</ele>
        <time>2020-03-13T21:49:27.999Z</time>
      </trkpt>
      <trkpt lat="48.87621" lon="2.34524">
        <ele>84.57</ele>
        <time>2020-03-13T21:49:28.999Z</time>
      </trkpt>
      <trkpt lat="48.87623" lon="2.34532">
        <ele>84.56</ele>
        <time>2020-03-13T21:49:29.999Z</time>
      </trkpt>
      <trkpt lat="48.87625" lon="2.3454">
        <ele>84.54</ele>
        <time>2020-03-13T21:49:30.999Z</time>
      </trkpt>
      <trkpt lat="48.87628" lon="2.34547">
        <ele>84.53</ele>
        <time>2020-03-13T21:49:31.999Z</time>
      </trkpt>
      <trkpt lat="48.87629" lon="2.34555">
        <ele>84.51</ele>
        <time>2020-03-13T21:49:32.999Z</time>
      </trkpt>
      <trkpt lat="48.87631" lon="2.34562">
        <ele>84.49</ele>
        <time>2020-03-13T21:49:33.999Z</time>
      </trkpt>
      <trkpt lat="48.87634" lon="2.34569">
        <ele>84.47</ele>
        <time>2020-03-13T21:49:34.999Z</time>
      </trkpt>
      <trkpt lat="48.87636" lon="2.34575">
        <ele>84.46</ele>
        <time>2020-03-13T21:49:35.999Z</time>
      </trkpt>
      <trkpt lat="48.87638" lon="2.34582">
        <ele>84.45</ele>
        <time>2020-03-13T21:49:36.999Z</time>
      </trkpt>
      <trkpt lat="48.8764" lon="2.3459">
        <ele>84.44</ele>
        <time>2020-03-13T21:49:37.999Z</time>
      </trkpt>
      <trkpt lat="48.87642" lon="2.34597">
        <ele>84.43</ele>
        <time>2020-03-13T21:49:38.999Z</time>
      </trkpt>
      <trkpt lat="48.87645" lon="2.34604">
        <ele>84.43</ele>
        <time>2020-03-13T21:49:39.999Z</time>
      </trkpt>
      <trkpt lat="48.87646" lon="2.3461">
        <ele>84.42</ele>
        <time>2020-03-13T21:49:40.999Z</time>
      </trkpt>
      <trkpt lat="48.87647" lon="2.34616">
        <ele>84.41</ele>
        <time>2020-03-13T21:49:41.999Z</time>
      </trkpt>
      <trkpt lat="48.87649" lon="2.34622">
        <ele>84.41</ele>
        <time>2020-03-13T21:49:42.999Z</time>
      </trkpt>
      <trkpt lat="48.87651" lon="2.34628">
        <ele>84.4</ele>
        <time>2020-03-13T21:49:43.999Z</time>
      </trkpt>
      <trkpt lat="48.87652" lon="2.34634">
        <ele>84.41</ele>
        <time>2020-03-13T21:49:44.999Z</time>
      </trkpt>
      <trkpt lat="48.87654" lon="2.3464">
        <ele>84.4</ele>
        <time>2020-03-13T21:49:45.999Z</time>
      </trkpt>
      <trkpt lat="48.87654" lon="2.34647">
        <ele>84.4</ele>
        <time>2020-03-13T21:49:46.999Z</time>
      </trkpt>
      <trkpt lat="48.87656" lon="2.34652">
        <ele>84.4</ele>
        <time>2020-03-13T21:49:47.999Z</time>
      </trkpt>
      <trkpt lat="48.87657" lon="2.34658">
        <ele>84.4</ele>
        <time>2020-03-13T21:49:48.999Z</time>
      </trkpt>
      <trkpt lat="48.87659" lon="2.34664">
        <ele>84.41</ele>
        <time>2020-03-13T21:49:49.999Z</time>
      </trkpt>
      <trkpt lat="48.8766" lon="2.34669">
        <ele>84.41</ele>
        <time>2020-03-13T21:49:50.999Z</time>
      </trkpt>
      <trkpt lat="48.87662" lon="2.34674">
        <ele>84.41</ele>
        <time>2020-03-13T21:49:51.999Z</time>
      </trkpt>
      <trkpt lat="48.87662" lon="2.3468">
        <ele>84.41</ele>
        <time>2020-03-13T21:49:52.999Z</time>
      </trkpt>
      <trkpt lat="48.87663" lon="2.34685">
        <ele>84.41</ele>
        <time>2020-03-13T21:49:53.999Z</time>
      </trkpt>
      <trkpt lat="48.87664" lon="2.34691">
        <ele>84.41</ele>
        <time>2020-03-13T21:49:54.999Z</time>
      </trkpt>
      <trkpt lat="48.87665" lon="2.34696">
        <ele>84.41</ele>
        <time>2020-03-13T21:49:55.999Z</time>
      </trkpt>
      <trkpt lat="48.87666" lon="2.34701">
        <ele>84.41</ele>
        <time>2020-03-13T21:49:56.999Z</time>
      </trkpt>
      <trkpt lat="48.87667" lon="2.34705">
        <ele>84.41</ele>
        <time>2020-03-13T21:49:57.999Z</time>
      </trkpt>
      <trkpt lat="48.87668" lon="2.3471">
        <ele>84.41</ele>
        <time>2020-03-13T21:49:58.999Z</time>
      </trkpt>
      <trkpt lat="48.87669" lon="2.34715">
        <ele>84.41</ele>
        <time>2020-03-13T21:49:59.999Z</time>
      </trkpt>
      <trkpt lat="48.87671" lon="2.3472">
        <ele>84.41</ele>
        <time>2020-03-13T21:50:00.999Z</time>
      </trkpt>
      <trkpt lat="48.87672" lon="2.34725">
        <ele>84.41</ele>
        <time>2020-03-13T21:50:01.999Z</time>
      </trkpt>
      <trkpt lat="48.87673" lon="2.3473">
        <ele>84.42</ele>
        <time>2020-03-13T21:50:02.999Z</time>
      </trkpt>
      <trkpt lat="48.87674" lon="2.34734">
        <ele>84.42</ele>
        <time>2020-03-13T21:50:03.999Z</time>
      </trkpt>
      <trkpt lat="48.87675" lon="2.34739">
        <ele>84.42</ele>
        <time>2020-03-13T21:50:04.999Z</time>
      </trkpt>
      <trkpt lat="48.87676" lon="2.34744">
        <ele>84.42</ele>
        <time>2020-03-13T21:50:05.999Z</time>
      </trkpt>
      <trkpt lat="48.87678" lon="2.34749">
        <ele>84.42</ele>
        <time>2020-03-13T21:50:06.999Z</time>
      </trkpt>
      <trkpt lat="48.87679" lon="2.34754">
        <ele>84.42</ele>
        <time>2020-03-13T21:50:07.999Z</time>
      </trkpt>
      <trkpt lat="48.87681" lon="2.34759">
        <ele>84.44</ele>
        <time>2020-03-13T21:50:08.999Z</time>
      </trkpt>
      <trkpt lat="48.87683" lon="2.34764">
        <ele>84.45</ele>
        <time>2020-03-13T21:50:09.999Z</time>
      </trkpt>
      <trkpt lat="48.87685" lon="2.3477">
        <ele>84.45</ele>
        <time>2020-03-13T21:50:10.999Z</time>
      </trkpt>
      <trkpt lat="48.87687" lon="2.34777">
        <ele>84.45</ele>
        <time>2020-03-13T21:50:11.999Z</time>
      </trkpt>
      <trkpt lat="48.8769" lon="2.34784">
        <ele>84.44</ele>
        <time>2020-03-13T21:50:12.999Z</time>
      </trkpt>
      <trkpt lat="48.87694" lon="2.3479">
        <ele>84.43</ele>
        <time>2020-03-13T21:50:13.999Z</time>
      </trkpt>
      <trkpt lat="48.87697" lon="2.34796">
        <ele>84.42</ele>
        <time>2020-03-13T21:50:14.999Z</time>
      </trkpt>
      <trkpt lat="48.87698" lon="2.34803">
        <ele>84.42</ele>
        <time>2020-03-13T21:50:15.999Z</time>
      </trkpt>
      <trkpt lat="48.877" lon="2.34808">
        <ele>84.41</ele>
        <time>2020-03-13T21:50:16.999Z</time>
      </trkpt>
      <trkpt lat="48.87702" lon="2.34815">
        <ele>84.41</ele>
        <time>2020-03-13T21:50:17.999Z</time>
      </trkpt>
      <trkpt lat="48.87704" lon="2.34821">
        <ele>84.4</ele>
        <time>2020-03-13T21:50:18.999Z</time>
      </trkpt>
      <trkpt lat="48.87705" lon="2.34827">
        <ele>84.4</ele>
        <time>2020-03-13T21:50:19.999Z</time>
      </trkpt>
      <trkpt lat="48.87707" lon="2.34834">
        <ele>84.4</ele>
        <time>2020-03-13T21:50:20.999Z</time>
      </trkpt>
      <trkpt lat="48.87708" lon="2.3484">
        <ele>84.39</ele>
        <time>2020-03-13T21:50:21.999Z</time>
      </trkpt>
      <trkpt lat="48.8771" lon="2.34846">
        <ele>84.39</ele>
        <time>2020-03-13T21:50:22.999Z</time>
      </trkpt>
      <trkpt lat="48.87712" lon="2.34852">
        <ele>84.39</ele>
        <time>2020-03-13T21:50:23.999Z</time>
      </trkpt>
      <trkpt lat="48.87715" lon="2.34858">
        <ele>84.4</ele>
        <time>2020-03-13T21:50:24.999Z</time>
      </trkpt>
      <trkpt lat="48.87717" lon="2.34864">
        <ele>84.42</ele>
        <time>2020-03-13T21:50:25.999Z</time>
      </trkpt>
      <trkpt lat="48.87718" lon="2.34871">
        <ele>84.43</ele>
        <time>2020-03-13T21:50:26.999Z</time>
      </trkpt>
      <trkpt lat="48.8772" lon="2.34878">
        <ele>84.45</ele>
        <time>2020-03-13T21:50:27.999Z</time>
      </trkpt>
      <trkpt lat="48.87721" lon="2.34884">
        <ele>84.47</ele>
        <time>2020-03-13T21:50:28.999Z</time>
      </trkpt>
      <trkpt lat="48.87723" lon="2.34891">
        <ele>84.48</ele>
        <time>2020-03-13T21:50:29.999Z</time>
      </trkpt>
      <trkpt lat="48.87725" lon="2.34898">
        <ele>84.5</ele>
        <time>2020-03-13T21:50:30.999Z</time>
      </trkpt>
      <trkpt lat="48.87726" lon="2.34904">
        <ele>84.51</ele>
        <time>2020-03-13T21:50:31.999Z</time>
      </trkpt>
      <trkpt lat="48.87727" lon="2.34912">
        <ele>84.52</ele>
        <time>2020-03-13T21:50:32.999Z</time>
      </trkpt>
      <trkpt lat="48.87728" lon="2.34919">
        <ele>84.54</ele>
        <time>2020-03-13T21:50:33.999Z</time>
      </trkpt>
      <trkpt lat="48.87729" lon="2.34925">
        <ele>84.56</ele>
        <time>2020-03-13T21:50:34.999Z</time>
      </trkpt>
      <trkpt lat="48.87729" lon="2.34932">
        <ele>84.58</ele>
        <time>2020-03-13T21:50:35.999Z</time>
      </trkpt>
      <trkpt lat="48.87731" lon="2.34939">
        <ele>84.6</ele>
        <time>2020-03-13T21:50:36.999Z</time>
      </trkpt>
      <trkpt lat="48.87732" lon="2.34945">
        <ele>84.62</ele>
        <time>2020-03-13T21:50:37.999Z</time>
      </trkpt>
      <trkpt lat="48.87734" lon="2.34952">
        <ele>84.63</ele>
        <time>2020-03-13T21:50:38.999Z</time>
      </trkpt>
      <trkpt lat="48.87735" lon="2.34958">
        <ele>84.65</ele>
        <time>2020-03-13T21:50:39.999Z</time>
      </trkpt>
      <trkpt lat="48.87736" lon="2.34964">
        <ele>84.67</ele>
        <time>2020-03-13T21:50:40.999Z</time>
      </trkpt>
      <trkpt lat="48.87738" lon="2.3497">
        <ele>84.69</ele>
        <time>2020-03-13T21:50:41.999Z</time>
      </trkpt>
      <trkpt lat="48.8774" lon="2.34976">
        <ele>84.7</ele>
        <time>2020-03-13T21:50:42.999Z</time>
      </trkpt>
      <trkpt lat="48.87742" lon="2.34982">
        <ele>84.72</ele>
        <time>2020-03-13T21:50:43.999Z</time>
      </trkpt>
      <trkpt lat="48.87743" lon="2.34988">
        <ele>84.73</ele>
        <time>2020-03-13T21:50:44.999Z</time>
      </trkpt>
      <trkpt lat="48.87745" lon="2.34994">
        <ele>84.75</ele>
        <time>2020-03-13T21:50:45.999Z</time>
      </trkpt>
      <trkpt lat="48.87747" lon="2.35">
        <ele>84.76</ele>
        <time>2020-03-13T21:50:46.999Z</time>
      </trkpt>
      <trkpt lat="48.87748" lon="2.35006">
        <ele>84.78</ele>
        <time>2020-03-13T21:50:47.999Z</time>
      </trkpt>
      <trkpt lat="48.8775" lon="2.35012">
        <ele>84.79</ele>
        <time>2020-03-13T21:50:48.999Z</time>
      </trkpt>
      <trkpt lat="48.87752" lon="2.35018">
        <ele>84.79</ele>
        <time>2020-03-13T21:50:49.999Z</time>
      </trkpt>
      <trkpt lat="48.87754" lon="2.35024">
        <ele>84.81</ele>
        <time>2020-03-13T21:50:50.999Z</time>
      </trkpt>
      <trkpt lat="48.87757" lon="2.35031">
        <ele>84.84</ele>
        <time>2020-03-13T21:50:51.999Z</time>
      </trkpt>
      <trkpt lat="48.87759" lon="2.35039">
        <ele>84.86</ele>
        <time>2020-03-13T21:50:52.999Z</time>
      </trkpt>
      <trkpt lat="48.87762" lon="2.35044">
        <ele>84.89</ele>
        <time>2020-03-13T21:50:53.999Z</time>
      </trkpt>
      <trkpt lat="48.87763" lon="2.35051">
        <ele>84.91</ele>
        <time>2020-03-13T21:50:54.999Z</time>
      </trkpt>
      <trkpt lat="48.87766" lon="2.35056">
        <ele>84.93</ele>
        <time>2020-03-13T21:50:55.999Z</time>
      </trkpt>
      <trkpt lat="48.87768" lon="2.35063">
        <ele>84.95</ele>
        <time>2020-03-13T21:50:56.999Z</time>
      </trkpt>
      <trkpt lat="48.8777" lon="2.3507">
        <ele>84.97</ele>
        <time>2020-03-13T21:50:57.999Z</time>
      </trkpt>
      <trkpt lat="48.87772" lon="2.35078">
        <ele>84.99</ele>
        <time>2020-03-13T21:50:58.999Z</time>
      </trkpt>
      <trkpt lat="48.87775" lon="2.35085">
        <ele>85.01</ele>
        <time>2020-03-13T21:50:59.999Z</time>
      </trkpt>
      <trkpt lat="48.87777" lon="2.35091">
        <ele>85.03</ele>
        <time>2020-03-13T21:51:00.999Z</time>
      </trkpt>
      <trkpt lat="48.87778" lon="2.35097">
        <ele>85.06</ele>
        <time>2020-03-13T21:51:01.999Z</time>
      </trkpt>
      <trkpt lat="48.87781" lon="2.35103">
        <ele>85.08</ele>
        <time>2020-03-13T21:51:02.999Z</time>
      </trkpt>
      <trkpt lat="48.87783" lon="2.3511">
        <ele>85.1</ele>
        <time>2020-03-13T21:51:03.999Z</time>
      </trkpt>
      <trkpt lat="48.87784" lon="2.35116">
        <ele>85.11</ele>
        <time>2020-03-13T21:51:04.999Z</time>
      </trkpt>
      <trkpt lat="48.87786" lon="2.35122">
        <ele>85.12</ele>
        <time>2020-03-13T21:51:05.999Z</time>
      </trkpt>
      <trkpt lat="48.87788" lon="2.35128">
        <ele>85.14</ele>
        <time>2020-03-13T21:51:06.999Z</time>
      </trkpt>
      <trkpt lat="48.87789" lon="2.35134">
        <ele>85.15</ele>
        <time>2020-03-13T21:51:07.999Z</time>
      </trkpt>
      <trkpt lat="48.8779" lon="2.35139">
        <ele>85.17</ele>
        <time>2020-03-13T21:51:08.999Z</time>
      </trkpt>
      <trkpt lat="48.87792" lon="2.35144">
        <ele>85.19</ele>
        <time>2020-03-13T21:51:09.999Z</time>
      </trkpt>
      <trkpt lat="48.87793" lon="2.3515">
        <ele>85.19</ele>
        <time>2020-03-13T21:51:10.999Z</time>
      </trkpt>
      <trkpt lat="48.87794" lon="2.35155">
        <ele>85.19</ele>
        <time>2020-03-13T21:51:11.999Z</time>
      </trkpt>
      <trkpt lat="48.87796" lon="2.35159">
        <ele>85.2</ele>
        <time>2020-03-13T21:51:12.999Z</time>
      </trkpt>
      <trkpt lat="48.87797" lon="2.35165">
        <ele>85.22</ele>
        <time>2020-03-13T21:51:13.999Z</time>
      </trkpt>
      <trkpt lat="48.87799" lon="2.3517">
        <ele>85.23</ele>
        <time>2020-03-13T21:51:14.999Z</time>
      </trkpt>
      <trkpt lat="48.87799" lon="2.35176">
        <ele>85.25</ele>
        <time>2020-03-13T21:51:15.999Z</time>
      </trkpt>
      <trkpt lat="48.878" lon="2.35182">
        <ele>85.27</ele>
        <time>2020-03-13T21:51:16.999Z</time>
      </trkpt>
      <trkpt lat="48.87801" lon="2.35188">
        <ele>85.28</ele>
        <time>2020-03-13T21:51:17.999Z</time>
      </trkpt>
      <trkpt lat="48.87802" lon="2.35195">
        <ele>85.31</ele>
        <time>2020-03-13T21:51:18.999Z</time>
      </trkpt>
      <trkpt lat="48.87804" lon="2.35203">
        <ele>85.32</ele>
        <time>2020-03-13T21:51:19.999Z</time>
      </trkpt>
      <trkpt lat="48.87805" lon="2.3521">
        <ele>85.34</ele>
        <time>2020-03-13T21:51:20.999Z</time>
      </trkpt>
      <trkpt lat="48.87806" lon="2.35218">
        <ele>85.36</ele>
        <time>2020-03-13T21:51:21.999Z</time>
      </trkpt>
      <trkpt lat="48.87809" lon="2.35226">
        <ele>85.38</ele>
        <time>2020-03-13T21:51:22.999Z</time>
      </trkpt>
      <trkpt lat="48.8781" lon="2.35234">
        <ele>85.41</ele>
        <time>2020-03-13T21:51:23.999Z</time>
      </trkpt>
      <trkpt lat="48.87812" lon="2.35241">
        <ele>85.44</ele>
        <time>2020-03-13T21:51:24.999Z</time>
      </trkpt>
      <trkpt lat="48.87814" lon="2.35248">
        <ele>85.46</ele>
        <time>2020-03-13T21:51:25.999Z</time>
      </trkpt>
      <trkpt lat="48.87816" lon="2.35256">
        <ele>85.48</ele>
        <time>2020-03-13T21:51:26.999Z</time>
      </trkpt>
      <trkpt lat="48.87818" lon="2.35263">
        <ele>85.5</ele>
        <time>2020-03-13T21:51:27.999Z</time>
      </trkpt>
      <trkpt lat="48.87819" lon="2.3527">
        <ele>85.52</ele>
        <time>2020-03-13T21:51:28.999Z</time>
      </trkpt>
      <trkpt lat="48.87821" lon="2.35278">
        <ele>85.53</ele>
        <time>2020-03-13T21:51:29.999Z</time>
      </trkpt>
      <trkpt lat="48.87823" lon="2.35284">
        <ele>85.54</ele>
        <time>2020-03-13T21:51:30.999Z</time>
      </trkpt>
      <trkpt lat="48.87825" lon="2.35291">
        <ele>85.55</ele>
        <time>2020-03-13T21:51:31.999Z</time>
      </trkpt>
      <trkpt lat="48.87828" lon="2.35298">
        <ele>85.57</ele>
        <time>2020-03-13T21:51:32.999Z</time>
      </trkpt>
      <trkpt lat="48.87831" lon="2.35304">
        <ele>85.59</ele>
        <time>2020-03-13T21:51:33.999Z</time>
      </trkpt>
      <trkpt lat="48.87833" lon="2.35311">
        <ele>85.6</ele>
        <time>2020-03-13T21:51:34.999Z</time>
      </trkpt>
      <trkpt lat="48.87835" lon="2.35316">
        <ele>85.62</ele>
        <time>2020-03-13T21:51:35.999Z</time>
      </trkpt>
      <trkpt lat="48.87836" lon="2.35322">
        <ele>85.63</ele>
        <time>2020-03-13T21:51:36.999Z</time>
      </trkpt>
      <trkpt lat="48.87838" lon="2.35329">
        <ele>85.65</ele>
        <time>2020-03-13T21:51:37.999Z</time>
      </trkpt>
      <trkpt lat="48.87839" lon="2.35333">
        <ele>85.65</ele>
        <time>2020-03-13T21:51:38.999Z</time>
      </trkpt>
      <trkpt lat="48.87841" lon="2.35339">
        <ele>85.65</ele>
        <time>2020-03-13T21:51:39.999Z</time>
      </trkpt>
      <trkpt lat="48.87841" lon="2.35345">
        <ele>85.66</ele>
        <time>2020-03-13T21:51:40.999Z</time>
      </trkpt>
      <trkpt lat="48.87842" lon="2.3535">
        <ele>85.66</ele>
        <time>2020-03-13T21:51:41.999Z</time>
      </trkpt>
      <trkpt lat="48.87842" lon="2.35354">
        <ele>85.67</ele>
        <time>2020-03-13T21:51:42.999Z</time>
      </trkpt>
      <trkpt lat="48.87843" lon="2.35358">
        <ele>85.68</ele>
        <time>2020-03-13T21:51:43.999Z</time>
      </trkpt>
      <trkpt lat="48.87844" lon="2.35361">
        <ele>85.68</ele>
        <time>2020-03-13T21:51:44.999Z</time>
      </trkpt>
      <trkpt lat="48.87845" lon="2.35365">
        <ele>85.69</ele>
        <time>2020-03-13T21:51:45.999Z</time>
      </trkpt>
      <trkpt lat="48.87846" lon="2.35368">
        <ele>85.7</ele>
        <time>2020-03-13T21:51:46.999Z</time>
      </trkpt>
      <trkpt lat="48.87846" lon="2.35372">
        <ele>85.71</ele>
        <time>2020-03-13T21:51:47.999Z</time>
      </trkpt>
      <trkpt lat="48.87846" lon="2.35375">
        <ele>85.72</ele>
        <time>2020-03-13T21:51:48.999Z</time>
      </trkpt>
      <trkpt lat="48.87847" lon="2.35378">
        <ele>85.73</ele>
        <time>2020-03-13T21:51:49.999Z</time>
      </trkpt>
      <trkpt lat="48.87847" lon="2.3538">
        <ele>85.74</ele>
        <time>2020-03-13T21:51:50.999Z</time>
      </trkpt>
      <trkpt lat="48.87847" lon="2.35382">
        <ele>85.75</ele>
        <time>2020-03-13T21:51:51.999Z</time>
      </trkpt>
      <trkpt lat="48.87847" lon="2.35384">
        <ele>85.76</ele>
        <time>2020-03-13T21:51:52.999Z</time>
      </trkpt>
      <trkpt lat="48.87847" lon="2.35387">
        <ele>85.77</ele>
        <time>2020-03-13T21:51:53.999Z</time>
      </trkpt>
      <trkpt lat="48.87848" lon="2.35389">
        <ele>85.78</ele>
        <time>2020-03-13T21:51:54.999Z</time>
      </trkpt>
      <trkpt lat="48.87848" lon="2.35391">
        <ele>85.79</ele>
        <time>2020-03-13T21:51:55.999Z</time>
      </trkpt>
      <trkpt lat="48.87848" lon="2.35393">
        <ele>85.8</ele>
        <time>2020-03-13T21:51:56.999Z</time>
      </trkpt>
      <trkpt lat="48.87849" lon="2.35395">
        <ele>85.82</ele>
        <time>2020-03-13T21:51:57.999Z</time>
      </trkpt>
      <trkpt lat="48.87849" lon="2.35396">
        <ele>85.83</ele>
        <time>2020-03-13T21:51:58.999Z</time>
      </trkpt>
      <trkpt lat="48.87848" lon="2.35398">
        <ele>85.86</ele>
        <time>2020-03-13T21:52:00.999Z</time>
      </trkpt>
      <trkpt lat="48.87848" lon="2.354">
        <ele>85.89</ele>
        <time>2020-03-13T21:52:02.999Z</time>
      </trkpt>
      <trkpt lat="48.87847" lon="2.35401">
        <ele>86</ele>
        <time>2020-03-13T21:52:22.999Z</time>
      </trkpt>
      <trkpt lat="48.87847" lon="2.35403">
        <ele>86.01</ele>
        <time>2020-03-13T21:52:23.999Z</time>
      </trkpt>
      <trkpt lat="48.87848" lon="2.35406">
        <ele>86.02</ele>
        <time>2020-03-13T21:52:24.999Z</time>
      </trkpt>
      <trkpt lat="48.87849" lon="2.35409">
        <ele>86.03</ele>
        <time>2020-03-13T21:52:25.999Z</time>
      </trkpt>
      <trkpt lat="48.8785" lon="2.35412">
        <ele>86.04</ele>
        <time>2020-03-13T21:52:26.999Z</time>
      </trkpt>
      <trkpt lat="48.8785" lon="2.35416">
        <ele>86.05</ele>
        <time>2020-03-13T21:52:27.999Z</time>
      </trkpt>
      <trkpt lat="48.87852" lon="2.3542">
        <ele>86.06</ele>
        <time>2020-03-13T21:52:28.999Z</time>
      </trkpt>
      <trkpt lat="48.87853" lon="2.35424">
        <ele>86.08</ele>
        <time>2020-03-13T21:52:29.999Z</time>
      </trkpt>
      <trkpt lat="48.87854" lon="2.35428">
        <ele>86.1</ele>
        <time>2020-03-13T21:52:30.999Z</time>
      </trkpt>
      <trkpt lat="48.87855" lon="2.35432">
        <ele>86.12</ele>
        <time>2020-03-13T21:52:31.999Z</time>
      </trkpt>
      <trkpt lat="48.87856" lon="2.35436">
        <ele>86.14</ele>
        <time>2020-03-13T21:52:32.999Z</time>
      </trkpt>
      <trkpt lat="48.87857" lon="2.35441">
        <ele>86.16</ele>
        <time>2020-03-13T21:52:33.999Z</time>
      </trkpt>
      <trkpt lat="48.87858" lon="2.35446">
        <ele>86.18</ele>
        <time>2020-03-13T21:52:34.999Z</time>
      </trkpt>
      <trkpt lat="48.87859" lon="2.35451">
        <ele>86.21</ele>
        <time>2020-03-13T21:52:35.999Z</time>
      </trkpt>
      <trkpt lat="48.8786" lon="2.35456">
        <ele>86.23</ele>
        <time>2020-03-13T21:52:36.999Z</time>
      </trkpt>
      <trkpt lat="48.87861" lon="2.35462">
        <ele>86.25</ele>
        <time>2020-03-13T21:52:37.999Z</time>
      </trkpt>
      <trkpt lat="48.87862" lon="2.35467">
        <ele>86.28</ele>
        <time>2020-03-13T21:52:38.999Z</time>
      </trkpt>
      <trkpt lat="48.87864" lon="2.35473">
        <ele>86.3</ele>
        <time>2020-03-13T21:52:39.999Z</time>
      </trkpt>
      <trkpt lat="48.87865" lon="2.35478">
        <ele>86.33</ele>
        <time>2020-03-13T21:52:40.999Z</time>
      </trkpt>
      <trkpt lat="48.87867" lon="2.35484">
        <ele>86.35</ele>
        <time>2020-03-13T21:52:41.999Z</time>
      </trkpt>
      <trkpt lat="48.87868" lon="2.35489">
        <ele>86.6</ele>
        <time>2020-03-13T21:52:42.999Z</time>
      </trkpt>
      <trkpt lat="48.8787" lon="2.35495">
        <ele>86.82</ele>
        <time>2020-03-13T21:52:43.999Z</time>
      </trkpt>
      <trkpt lat="48.87872" lon="2.35501">
        <ele>87</ele>
        <time>2020-03-13T21:52:44.999Z</time>
      </trkpt>
      <trkpt lat="48.87874" lon="2.35507">
        <ele>87.16</ele>
        <time>2020-03-13T21:52:45.999Z</time>
      </trkpt>
      <trkpt lat="48.87875" lon="2.35513">
        <ele>87.29</ele>
        <time>2020-03-13T21:52:46.999Z</time>
      </trkpt>
      <trkpt lat="48.87877" lon="2.35518">
        <ele>87.4</ele>
        <time>2020-03-13T21:52:47.999Z</time>
      </trkpt>
      <trkpt lat="48.87879" lon="2.35524">
        <ele>87.49</ele>
        <time>2020-03-13T21:52:48.999Z</time>
      </trkpt>
      <trkpt lat="48.87881" lon="2.35529">
        <ele>87.58</ele>
        <time>2020-03-13T21:52:49.999Z</time>
      </trkpt>
      <trkpt lat="48.87884" lon="2.35535">
        <ele>87.66</ele>
        <time>2020-03-13T21:52:50.999Z</time>
      </trkpt>
      <trkpt lat="48.87886" lon="2.35543">
        <ele>87.72</ele>
        <time>2020-03-13T21:52:51.999Z</time>
      </trkpt>
      <trkpt lat="48.87888" lon="2.3555">
        <ele>87.78</ele>
        <time>2020-03-13T21:52:52.999Z</time>
      </trkpt>
      <trkpt lat="48.87889" lon="2.35556">
        <ele>87.83</ele>
        <time>2020-03-13T21:52:53.999Z</time>
      </trkpt>
      <trkpt lat="48.87892" lon="2.35562">
        <ele>87.88</ele>
        <time>2020-03-13T21:52:54.999Z</time>
      </trkpt>
      <trkpt lat="48.87894" lon="2.35569">
        <ele>87.92</ele>
        <time>2020-03-13T21:52:55.999Z</time>
      </trkpt>
      <trkpt lat="48.87895" lon="2.35576">
        <ele>87.96</ele>
        <time>2020-03-13T21:52:56.999Z</time>
      </trkpt>
      <trkpt lat="48.87897" lon="2.35583">
        <ele>88</ele>
        <time>2020-03-13T21:52:57.999Z</time>
      </trkpt>
      <trkpt lat="48.87898" lon="2.35591">
        <ele>88.04</ele>
        <time>2020-03-13T21:52:58.999Z</time>
      </trkpt>
      <trkpt lat="48.87898" lon="2.35599">
        <ele>88.07</ele>
        <time>2020-03-13T21:52:59.999Z</time>
      </trkpt>
      <trkpt lat="48.87902" lon="2.35603">
        <ele>88.1</ele>
        <time>2020-03-13T21:53:00.999Z</time>
      </trkpt>
      <trkpt lat="48.87903" lon="2.35611">
        <ele>88.14</ele>
        <time>2020-03-13T21:53:01.999Z</time>
      </trkpt>
      <trkpt lat="48.87907" lon="2.35617">
        <ele>88.17</ele>
        <time>2020-03-13T21:53:02.999Z</time>
      </trkpt>
      <trkpt lat="48.8791" lon="2.35623">
        <ele>88.19</ele>
        <time>2020-03-13T21:53:03.999Z</time>
      </trkpt>
      <trkpt lat="48.87914" lon="2.35629">
        <ele>88.22</ele>
        <time>2020-03-13T21:53:04.999Z</time>
      </trkpt>
      <trkpt lat="48.8792" lon="2.35633">
        <ele>88.25</ele>
        <time>2020-03-13T21:53:05.999Z</time>
      </trkpt>
      <trkpt lat="48.87921" lon="2.35641">
        <ele>88.28</ele>
        <time>2020-03-13T21:53:06.999Z</time>
      </trkpt>
      <trkpt lat="48.87922" lon="2.35649">
        <ele>88.3</ele>
        <time>2020-03-13T21:53:07.999Z</time>
      </trkpt>
      <trkpt lat="48.87924" lon="2.35657">
        <ele>88.33</ele>
        <time>2020-03-13T21:53:08.999Z</time>
      </trkpt>
      <trkpt lat="48.87925" lon="2.35664">
        <ele>88.36</ele>
        <time>2020-03-13T21:53:09.999Z</time>
      </trkpt>
      <trkpt lat="48.87926" lon="2.35671">
        <ele>88.39</ele>
        <time>2020-03-13T21:53:10.999Z</time>
      </trkpt>
      <trkpt lat="48.87928" lon="2.35676">
        <ele>88.42</ele>
        <time>2020-03-13T21:53:11.999Z</time>
      </trkpt>
      <trkpt lat="48.8793" lon="2.35682">
        <ele>88.45</ele>
        <time>2020-03-13T21:53:12.999Z</time>
      </trkpt>
      <trkpt lat="48.87932" lon="2.35689">
        <ele>88.47</ele>
        <time>2020-03-13T21:53:13.999Z</time>
      </trkpt>
      <trkpt lat="48.87932" lon="2.35695">
        <ele>88.5</ele>
        <time>2020-03-13T21:53:14.999Z</time>
      </trkpt>
      <trkpt lat="48.87934" lon="2.35701">
        <ele>88.52</ele>
        <time>2020-03-13T21:53:15.999Z</time>
      </trkpt>
      <trkpt lat="48.87935" lon="2.35707">
        <ele>88.54</ele>
        <time>2020-03-13T21:53:16.999Z</time>
      </trkpt>
      <trkpt lat="48.87936" lon="2.35714">
        <ele>88.56</ele>
        <time>2020-03-13T21:53:17.999Z</time>
      </trkpt>
      <trkpt lat="48.87937" lon="2.3572">
        <ele>88.58</ele>
        <time>2020-03-13T21:53:18.999Z</time>
      </trkpt>
      <trkpt lat="48.87938" lon="2.35726">
        <ele>88.6</ele>
        <time>2020-03-13T21:53:19.999Z</time>
      </trkpt>
      <trkpt lat="48.87938" lon="2.35733">
        <ele>88.62</ele>
        <time>2020-03-13T21:53:20.999Z</time>
      </trkpt>
      <trkpt lat="48.87939" lon="2.3574">
        <ele>88.64</ele>
        <time>2020-03-13T21:53:21.999Z</time>
      </trkpt>
      <trkpt lat="48.8794" lon="2.35747">
        <ele>88.66</ele>
        <time>2020-03-13T21:53:22.999Z</time>
      </trkpt>
      <trkpt lat="48.87941" lon="2.35753">
        <ele>88.68</ele>
        <time>2020-03-13T21:53:23.999Z</time>
      </trkpt>
      <trkpt lat="48.87943" lon="2.3576">
        <ele>88.7</ele>
        <time>2020-03-13T21:53:24.999Z</time>
      </trkpt>
      <trkpt lat="48.87944" lon="2.35766">
        <ele>88.73</ele>
        <time>2020-03-13T21:53:25.999Z</time>
      </trkpt>
      <trkpt lat="48.87946" lon="2.35772">
        <ele>88.76</ele>
        <time>2020-03-13T21:53:26.999Z</time>
      </trkpt>
      <trkpt lat="48.87948" lon="2.35778">
        <ele>88.78</ele>
        <time>2020-03-13T21:53:27.999Z</time>
      </trkpt>
      <trkpt lat="48.8795" lon="2.35785">
        <ele>88.81</ele>
        <time>2020-03-13T21:53:28.999Z</time>
      </trkpt>
      <trkpt lat="48.87951" lon="2.3579">
        <ele>88.83</ele>
        <time>2020-03-13T21:53:29.999Z</time>
      </trkpt>
      <trkpt lat="48.87953" lon="2.35796">
        <ele>88.85</ele>
        <time>2020-03-13T21:53:30.999Z</time>
      </trkpt>
      <trkpt lat="48.87955" lon="2.35802">
        <ele>88.86</ele>
        <time>2020-03-13T21:53:31.999Z</time>
      </trkpt>
      <trkpt lat="48.87957" lon="2.35808">
        <ele>88.88</ele>
        <time>2020-03-13T21:53:32.999Z</time>
      </trkpt>
      <trkpt lat="48.87958" lon="2.35813">
        <ele>88.89</ele>
        <time>2020-03-13T21:53:33.999Z</time>
      </trkpt>
      <trkpt lat="48.8796" lon="2.35819">
        <ele>88.9</ele>
        <time>2020-03-13T21:53:34.999Z</time>
      </trkpt>
      <trkpt lat="48.87961" lon="2.35825">
        <ele>88.92</ele>
        <time>2020-03-13T21:53:35.999Z</time>
      </trkpt>
      <trkpt lat="48.87963" lon="2.3583">
        <ele>88.94</ele>
        <time>2020-03-13T21:53:36.999Z</time>
      </trkpt>
      <trkpt lat="48.87965" lon="2.35835">
        <ele>88.94</ele>
        <time>2020-03-13T21:53:37.999Z</time>
      </trkpt>
      <trkpt lat="48.87966" lon="2.35841">
        <ele>88.95</ele>
        <time>2020-03-13T21:53:38.999Z</time>
      </trkpt>
      <trkpt lat="48.87968" lon="2.35848">
        <ele>88.97</ele>
        <time>2020-03-13T21:53:39.999Z</time>
      </trkpt>
      <trkpt lat="48.87968" lon="2.35854">
        <ele>88.99</ele>
        <time>2020-03-13T21:53:40.999Z</time>
      </trkpt>
      <trkpt lat="48.87969" lon="2.35861">
        <ele>89.01</ele>
        <time>2020-03-13T21:53:41.999Z</time>
      </trkpt>
      <trkpt lat="48.8797" lon="2.35868">
        <ele>89.04</ele>
        <time>2020-03-13T21:53:42.999Z</time>
      </trkpt>
      <trkpt lat="48.87971" lon="2.35874">
        <ele>89.06</ele>
        <time>2020-03-13T21:53:43.999Z</time>
      </trkpt>
      <trkpt lat="48.87973" lon="2.3588">
        <ele>89.08</ele>
        <time>2020-03-13T21:53:44.999Z</time>
      </trkpt>
      <trkpt lat="48.87975" lon="2.35885">
        <ele>89.1</ele>
        <time>2020-03-13T21:53:45.999Z</time>
      </trkpt>
      <trkpt lat="48.87977" lon="2.35893">
        <ele>89.12</ele>
        <time>2020-03-13T21:53:46.999Z</time>
      </trkpt>
      <trkpt lat="48.87979" lon="2.35899">
        <ele>89.16</ele>
        <time>2020-03-13T21:53:47.999Z</time>
      </trkpt>
      <trkpt lat="48.87981" lon="2.35906">
        <ele>89.18</ele>
        <time>2020-03-13T21:53:48.999Z</time>
      </trkpt>
      <trkpt lat="48.87983" lon="2.35914">
        <ele>89.2</ele>
        <time>2020-03-13T21:53:49.999Z</time>
      </trkpt>
      <trkpt lat="48.87987" lon="2.3592">
        <ele>89.23</ele>
        <time>2020-03-13T21:53:50.999Z</time>
      </trkpt>
      <trkpt lat="48.87992" lon="2.35928">
        <ele>89.27</ele>
        <time>2020-03-13T21:53:51.999Z</time>
      </trkpt>
      <trkpt lat="48.87994" lon="2.35935">
        <ele>89.3</ele>
        <time>2020-03-13T21:53:52.999Z</time>
      </trkpt>
      <trkpt lat="48.87998" lon="2.35943">
        <ele>89.33</ele>
        <time>2020-03-13T21:53:53.999Z</time>
      </trkpt>
      <trkpt lat="48.88001" lon="2.35951">
        <ele>89.36</ele>
        <time>2020-03-13T21:53:54.999Z</time>
      </trkpt>
      <trkpt lat="48.88003" lon="2.3596">
        <ele>89.4</ele>
        <time>2020-03-13T21:53:55.999Z</time>
      </trkpt>
      <trkpt lat="48.88005" lon="2.3597">
        <ele>89.45</ele>
        <time>2020-03-13T21:53:56.999Z</time>
      </trkpt>
      <trkpt lat="48.88007" lon="2.3598">
        <ele>89.5</ele>
        <time>2020-03-13T21:53:57.999Z</time>
      </trkpt>
      <trkpt lat="48.8801" lon="2.3599">
        <ele>89.55</ele>
        <time>2020-03-13T21:53:58.999Z</time>
      </trkpt>
      <trkpt lat="48.88012" lon="2.36">
        <ele>89.61</ele>
        <time>2020-03-13T21:53:59.999Z</time>
      </trkpt>
      <trkpt lat="48.88014" lon="2.3601">
        <ele>89.66</ele>
        <time>2020-03-13T21:54:00.999Z</time>
      </trkpt>
      <trkpt lat="48.88017" lon="2.36019">
        <ele>89.71</ele>
        <time>2020-03-13T21:54:01.999Z</time>
      </trkpt>
      <trkpt lat="48.88018" lon="2.36029">
        <ele>89.75</ele>
        <time>2020-03-13T21:54:02.999Z</time>
      </trkpt>
      <trkpt lat="48.8802" lon="2.36038">
        <ele>89.8</ele>
        <time>2020-03-13T21:54:03.999Z</time>
      </trkpt>
      <trkpt lat="48.88023" lon="2.36048">
        <ele>89.83</ele>
        <time>2020-03-13T21:54:04.999Z</time>
      </trkpt>
      <trkpt lat="48.88024" lon="2.36058">
        <ele>89.86</ele>
        <time>2020-03-13T21:54:05.999Z</time>
      </trkpt>
      <trkpt lat="48.88025" lon="2.36068">
        <ele>89.9</ele>
        <time>2020-03-13T21:54:06.999Z</time>
      </trkpt>
      <trkpt lat="48.88027" lon="2.36079">
        <ele>90.04</ele>
        <time>2020-03-13T21:54:07.999Z</time>
      </trkpt>
      <trkpt lat="48.8803" lon="2.36089">
        <ele>90.17</ele>
        <time>2020-03-13T21:54:08.999Z</time>
      </trkpt>
      <trkpt lat="48.88032" lon="2.36099">
        <ele>90.27</ele>
        <time>2020-03-13T21:54:09.999Z</time>
      </trkpt>
      <trkpt lat="48.88034" lon="2.3611">
        <ele>90.37</ele>
        <time>2020-03-13T21:54:10.999Z</time>
      </trkpt>
      <trkpt lat="48.88037" lon="2.3612">
        <ele>90.43</ele>
        <time>2020-03-13T21:54:11.999Z</time>
      </trkpt>
      <trkpt lat="48.88039" lon="2.3613">
        <ele>90.4</ele>
        <time>2020-03-13T21:54:12.999Z</time>
      </trkpt>
      <trkpt lat="48.88041" lon="2.3614">
        <ele>90.41</ele>
        <time>2020-03-13T21:54:13.999Z</time>
      </trkpt>
      <trkpt lat="48.88043" lon="2.3615">
        <ele>90.4</ele>
        <time>2020-03-13T21:54:14.999Z</time>
      </trkpt>
      <trkpt lat="48.88045" lon="2.3616">
        <ele>90.52</ele>
        <time>2020-03-13T21:54:15.999Z</time>
      </trkpt>
      <trkpt lat="48.88048" lon="2.36169">
        <ele>90.53</ele>
        <time>2020-03-13T21:54:16.999Z</time>
      </trkpt>
      <trkpt lat="48.8805" lon="2.36178">
        <ele>90.51</ele>
        <time>2020-03-13T21:54:17.999Z</time>
      </trkpt>
      <trkpt lat="48.88051" lon="2.36187">
        <ele>90.46</ele>
        <time>2020-03-13T21:54:18.999Z</time>
      </trkpt>
      <trkpt lat="48.88054" lon="2.36196">
        <ele>90.42</ele>
        <time>2020-03-13T21:54:19.999Z</time>
      </trkpt>
      <trkpt lat="48.88056" lon="2.36205">
        <ele>90.36</ele>
        <time>2020-03-13T21:54:20.999Z</time>
      </trkpt>
      <trkpt lat="48.88058" lon="2.36213">
        <ele>90.64</ele>
        <time>2020-03-13T21:54:21.999Z</time>
      </trkpt>
      <trkpt lat="48.88062" lon="2.36222">
        <ele>90.82</ele>
        <time>2020-03-13T21:54:22.999Z</time>
      </trkpt>
      <trkpt lat="48.88064" lon="2.36232">
        <ele>90.96</ele>
        <time>2020-03-13T21:54:23.999Z</time>
      </trkpt>
      <trkpt lat="48.88067" lon="2.3624">
        <ele>91.09</ele>
        <time>2020-03-13T21:54:24.999Z</time>
      </trkpt>
      <trkpt lat="48.8807" lon="2.36248">
        <ele>91.25</ele>
        <time>2020-03-13T21:54:25.999Z</time>
      </trkpt>
      <trkpt lat="48.88071" lon="2.36257">
        <ele>91.41</ele>
        <time>2020-03-13T21:54:26.999Z</time>
      </trkpt>
      <trkpt lat="48.88075" lon="2.36264">
        <ele>91.56</ele>
        <time>2020-03-13T21:54:27.999Z</time>
      </trkpt>
      <trkpt lat="48.88077" lon="2.36273">
        <ele>91.68</ele>
        <time>2020-03-13T21:54:28.999Z</time>
      </trkpt>
      <trkpt lat="48.8808" lon="2.36281">
        <ele>91.88</ele>
        <time>2020-03-13T21:54:29.999Z</time>
      </trkpt>
      <trkpt lat="48.88082" lon="2.36289">
        <ele>92.06</ele>
        <time>2020-03-13T21:54:30.999Z</time>
      </trkpt>
      <trkpt lat="48.88086" lon="2.36298">
        <ele>92.42</ele>
        <time>2020-03-13T21:54:31.999Z</time>
      </trkpt>
      <trkpt lat="48.88089" lon="2.36307">
        <ele>92.78</ele>
        <time>2020-03-13T21:54:32.999Z</time>
      </trkpt>
      <trkpt lat="48.88093" lon="2.36315">
        <ele>93.06</ele>
        <time>2020-03-13T21:54:33.999Z</time>
      </trkpt>
      <trkpt lat="48.88095" lon="2.36323">
        <ele>93.4</ele>
        <time>2020-03-13T21:54:34.999Z</time>
      </trkpt>
      <trkpt lat="48.88097" lon="2.36331">
        <ele>93.67</ele>
        <time>2020-03-13T21:54:35.999Z</time>
      </trkpt>
      <trkpt lat="48.881" lon="2.3634">
        <ele>93.91</ele>
        <time>2020-03-13T21:54:36.999Z</time>
      </trkpt>
      <trkpt lat="48.88102" lon="2.36348">
        <ele>94.17</ele>
        <time>2020-03-13T21:54:37.999Z</time>
      </trkpt>
      <trkpt lat="48.88105" lon="2.36357">
        <ele>94.4</ele>
        <time>2020-03-13T21:54:38.999Z</time>
      </trkpt>
      <trkpt lat="48.88108" lon="2.36365">
        <ele>94.63</ele>
        <time>2020-03-13T21:54:39.999Z</time>
      </trkpt>
      <trkpt lat="48.8811" lon="2.36373">
        <ele>94.78</ele>
        <time>2020-03-13T21:54:40.999Z</time>
      </trkpt>
      <trkpt lat="48.88113" lon="2.3638">
        <ele>94.88</ele>
        <time>2020-03-13T21:54:41.999Z</time>
      </trkpt>
      <trkpt lat="48.88115" lon="2.36388">
        <ele>94.94</ele>
        <time>2020-03-13T21:54:42.999Z</time>
      </trkpt>
      <trkpt lat="48.88118" lon="2.36396">
        <ele>95.03</ele>
        <time>2020-03-13T21:54:43.999Z</time>
      </trkpt>
      <trkpt lat="48.8812" lon="2.36404">
        <ele>95.21</ele>
        <time>2020-03-13T21:54:44.999Z</time>
      </trkpt>
      <trkpt lat="48.88123" lon="2.36412">
        <ele>95.38</ele>
        <time>2020-03-13T21:54:45.999Z</time>
      </trkpt>
      <trkpt lat="48.88125" lon="2.36419">
        <ele>95.31</ele>
        <time>2020-03-13T21:54:46.999Z</time>
      </trkpt>
      <trkpt lat="48.88127" lon="2.36427">
        <ele>95.32</ele>
        <time>2020-03-13T21:54:47.999Z</time>
      </trkpt>
      <trkpt lat="48.88129" lon="2.36435">
        <ele>95.41</ele>
        <time>2020-03-13T21:54:48.999Z</time>
      </trkpt>
      <trkpt lat="48.88132" lon="2.36442">
        <ele>95.41</ele>
        <time>2020-03-13T21:54:49.999Z</time>
      </trkpt>
      <trkpt lat="48.88134" lon="2.36449">
        <ele>95.56</ele>
        <time>2020-03-13T21:54:50.999Z</time>
      </trkpt>
      <trkpt lat="48.88136" lon="2.36455">
        <ele>95.98</ele>
        <time>2020-03-13T21:54:51.999Z</time>
      </trkpt>
      <trkpt lat="48.88138" lon="2.36462">
        <ele>96.03</ele>
        <time>2020-03-13T21:54:52.999Z</time>
      </trkpt>
      <trkpt lat="48.88139" lon="2.36467">
        <ele>96.1</ele>
        <time>2020-03-13T21:54:53.999Z</time>
      </trkpt>
      <trkpt lat="48.8814" lon="2.36472">
        <ele>96.17</ele>
        <time>2020-03-13T21:54:54.999Z</time>
      </trkpt>
      <trkpt lat="48.8814" lon="2.36476">
        <ele>96.22</ele>
        <time>2020-03-13T21:54:55.999Z</time>
      </trkpt>
      <trkpt lat="48.88141" lon="2.36481">
        <ele>96.28</ele>
        <time>2020-03-13T21:54:56.999Z</time>
      </trkpt>
      <trkpt lat="48.88143" lon="2.36487">
        <ele>96.33</ele>
        <time>2020-03-13T21:54:57.999Z</time>
      </trkpt>
      <trkpt lat="48.88144" lon="2.36492">
        <ele>96.98</ele>
        <time>2020-03-13T21:54:58.999Z</time>
      </trkpt>
      <trkpt lat="48.88146" lon="2.36497">
        <ele>97.03</ele>
        <time>2020-03-13T21:54:59.999Z</time>
      </trkpt>
      <trkpt lat="48.88147" lon="2.36501">
        <ele>97.11</ele>
        <time>2020-03-13T21:55:00.999Z</time>
      </trkpt>
      <trkpt lat="48.88149" lon="2.36505">
        <ele>97.2</ele>
        <time>2020-03-13T21:55:01.999Z</time>
      </trkpt>
      <trkpt lat="48.8815" lon="2.3651">
        <ele>97.28</ele>
        <time>2020-03-13T21:55:02.999Z</time>
      </trkpt>
      <trkpt lat="48.88151" lon="2.36515">
        <ele>97.34</ele>
        <time>2020-03-13T21:55:03.999Z</time>
      </trkpt>
      <trkpt lat="48.88152" lon="2.3652">
        <ele>97.39</ele>
        <time>2020-03-13T21:55:04.999Z</time>
      </trkpt>
      <trkpt lat="48.88153" lon="2.36525">
        <ele>97.42</ele>
        <time>2020-03-13T21:55:05.999Z</time>
      </trkpt>
      <trkpt lat="48.88153" lon="2.3653">
        <ele>97.44</ele>
        <time>2020-03-13T21:55:06.999Z</time>
      </trkpt>
      <trkpt lat="48.88154" lon="2.36535">
        <ele>97.47</ele>
        <time>2020-03-13T21:55:07.999Z</time>
      </trkpt>
      <trkpt lat="48.88156" lon="2.36539">
        <ele>97.49</ele>
        <time>2020-03-13T21:55:08.999Z</time>
      </trkpt>
      <trkpt lat="48.88157" lon="2.36543">
        <ele>97.51</ele>
        <time>2020-03-13T21:55:09.999Z</time>
      </trkpt>
      <trkpt lat="48.88158" lon="2.36547">
        <ele>97.51</ele>
        <time>2020-03-13T21:55:10.999Z</time>
      </trkpt>
      <trkpt lat="48.88159" lon="2.36551">
        <ele>97.52</ele>
        <time>2020-03-13T21:55:11.999Z</time>
      </trkpt>
      <trkpt lat="48.8816" lon="2.36556">
        <ele>97.53</ele>
        <time>2020-03-13T21:55:12.999Z</time>
      </trkpt>
      <trkpt lat="48.88162" lon="2.3656">
        <ele>97.55</ele>
        <time>2020-03-13T21:55:13.999Z</time>
      </trkpt>
      <trkpt lat="48.88163" lon="2.36565">
        <ele>97.58</ele>
        <time>2020-03-13T21:55:14.999Z</time>
      </trkpt>
      <trkpt lat="48.88164" lon="2.3657">
        <ele>97.6</ele>
        <time>2020-03-13T21:55:15.999Z</time>
      </trkpt>
      <trkpt lat="48.88165" lon="2.36575">
        <ele>97.62</ele>
        <time>2020-03-13T21:55:16.999Z</time>
      </trkpt>
      <trkpt lat="48.88166" lon="2.3658">
        <ele>97.65</ele>
        <time>2020-03-13T21:55:17.999Z</time>
      </trkpt>
      <trkpt lat="48.88168" lon="2.36586">
        <ele>97.68</ele>
        <time>2020-03-13T21:55:18.999Z</time>
      </trkpt>
      <trkpt lat="48.88171" lon="2.3659">
        <ele>97.71</ele>
        <time>2020-03-13T21:55:19.999Z</time>
      </trkpt>
      <trkpt lat="48.88173" lon="2.36593">
        <ele>97.74</ele>
        <time>2020-03-13T21:55:20.999Z</time>
      </trkpt>
      <trkpt lat="48.88175" lon="2.36597">
        <ele>97.77</ele>
        <time>2020-03-13T21:55:21.999Z</time>
      </trkpt>
      <trkpt lat="48.88177" lon="2.366">
        <ele>97.79</ele>
        <time>2020-03-13T21:55:22.999Z</time>
      </trkpt>
      <trkpt lat="48.88179" lon="2.36604">
        <ele>97.82</ele>
        <time>2020-03-13T21:55:23.999Z</time>
      </trkpt>
      <trkpt lat="48.88181" lon="2.36607">
        <ele>97.85</ele>
        <time>2020-03-13T21:55:24.999Z</time>
      </trkpt>
      <trkpt lat="48.88183" lon="2.3661">
        <ele>97.87</ele>
        <time>2020-03-13T21:55:25.999Z</time>
      </trkpt>
      <trkpt lat="48.88185" lon="2.36613">
        <ele>97.9</ele>
        <time>2020-03-13T21:55:26.999Z</time>
      </trkpt>
      <trkpt lat="48.88187" lon="2.36615">
        <ele>97.93</ele>
        <time>2020-03-13T21:55:27.999Z</time>
      </trkpt>
      <trkpt lat="48.88189" lon="2.36618">
        <ele>97.95</ele>
        <time>2020-03-13T21:55:28.999Z</time>
      </trkpt>
      <trkpt lat="48.88192" lon="2.3662">
        <ele>97.98</ele>
        <time>2020-03-13T21:55:29.999Z</time>
      </trkpt>
      <trkpt lat="48.88194" lon="2.36623">
        <ele>98</ele>
        <time>2020-03-13T21:55:30.999Z</time>
      </trkpt>
      <trkpt lat="48.88196" lon="2.36626">
        <ele>98.03</ele>
        <time>2020-03-13T21:55:31.999Z</time>
      </trkpt>
      <trkpt lat="48.88198" lon="2.36629">
        <ele>98.06</ele>
        <time>2020-03-13T21:55:32.999Z</time>
      </trkpt>
      <trkpt lat="48.882" lon="2.36632">
        <ele>98.09</ele>
        <time>2020-03-13T21:55:33.999Z</time>
      </trkpt>
      <trkpt lat="48.88203" lon="2.36635">
        <ele>98.11</ele>
        <time>2020-03-13T21:55:34.999Z</time>
      </trkpt>
      <trkpt lat="48.88206" lon="2.36639">
        <ele>98.14</ele>
        <time>2020-03-13T21:55:35.999Z</time>
      </trkpt>
      <trkpt lat="48.88208" lon="2.36643">
        <ele>98.16</ele>
        <time>2020-03-13T21:55:36.999Z</time>
      </trkpt>
      <trkpt lat="48.8821" lon="2.36646">
        <ele>98.18</ele>
        <time>2020-03-13T21:55:37.999Z</time>
      </trkpt>
      <trkpt lat="48.88213" lon="2.3665">
        <ele>98.36</ele>
        <time>2020-03-13T21:55:38.999Z</time>
      </trkpt>
      <trkpt lat="48.88217" lon="2.36655">
        <ele>98.43</ele>
        <time>2020-03-13T21:55:39.999Z</time>
      </trkpt>
      <trkpt lat="48.8822" lon="2.36659">
        <ele>98.47</ele>
        <time>2020-03-13T21:55:40.999Z</time>
      </trkpt>
      <trkpt lat="48.88223" lon="2.36664">
        <ele>98.44</ele>
        <time>2020-03-13T21:55:41.999Z</time>
      </trkpt>
      <trkpt lat="48.88227" lon="2.36669">
        <ele>98.43</ele>
        <time>2020-03-13T21:55:42.999Z</time>
      </trkpt>
      <trkpt lat="48.8823" lon="2.36674">
        <ele>98.38</ele>
        <time>2020-03-13T21:55:43.999Z</time>
      </trkpt>
      <trkpt lat="48.88233" lon="2.36679">
        <ele>98.34</ele>
        <time>2020-03-13T21:55:44.999Z</time>
      </trkpt>
      <trkpt lat="48.88237" lon="2.36684">
        <ele>98.37</ele>
        <time>2020-03-13T21:55:45.999Z</time>
      </trkpt>
      <trkpt lat="48.88241" lon="2.36689">
        <ele>98.42</ele>
        <time>2020-03-13T21:55:46.999Z</time>
      </trkpt>
      <trkpt lat="48.88244" lon="2.36694">
        <ele>98.45</ele>
        <time>2020-03-13T21:55:47.999Z</time>
      </trkpt>
      <trkpt lat="48.88247" lon="2.36698">
        <ele>98.45</ele>
        <time>2020-03-13T21:55:48.999Z</time>
      </trkpt>
      <trkpt lat="48.8825" lon="2.36702">
        <ele>98.46</ele>
        <time>2020-03-13T21:55:49.999Z</time>
      </trkpt>
      <trkpt lat="48.88253" lon="2.36707">
        <ele>98.45</ele>
        <time>2020-03-13T21:55:50.999Z</time>
      </trkpt>
      <trkpt lat="48.88257" lon="2.36712">
        <ele>98.44</ele>
        <time>2020-03-13T21:55:51.999Z</time>
      </trkpt>
      <trkpt lat="48.8826" lon="2.36717">
        <ele>98.42</ele>
        <time>2020-03-13T21:55:52.999Z</time>
      </trkpt>
      <trkpt lat="48.88264" lon="2.3672">
        <ele>98.39</ele>
        <time>2020-03-13T21:55:53.999Z</time>
      </trkpt>
      <trkpt lat="48.88268" lon="2.36725">
        <ele>98.34</ele>
        <time>2020-03-13T21:55:54.999Z</time>
      </trkpt>
      <trkpt lat="48.88271" lon="2.36729">
        <ele>98.3</ele>
        <time>2020-03-13T21:55:55.999Z</time>
      </trkpt>
      <trkpt lat="48.88275" lon="2.36734">
        <ele>98.29</ele>
        <time>2020-03-13T21:55:56.999Z</time>
      </trkpt>
      <trkpt lat="48.88279" lon="2.36738">
        <ele>98.28</ele>
        <time>2020-03-13T21:55:57.999Z</time>
      </trkpt>
      <trkpt lat="48.88282" lon="2.36744">
        <ele>98.3</ele>
        <time>2020-03-13T21:55:58.999Z</time>
      </trkpt>
      <trkpt lat="48.88285" lon="2.36749">
        <ele>98.35</ele>
        <time>2020-03-13T21:55:59.999Z</time>
      </trkpt>
      <trkpt lat="48.88289" lon="2.36754">
        <ele>98.39</ele>
        <time>2020-03-13T21:56:00.999Z</time>
      </trkpt>
      <trkpt lat="48.88293" lon="2.36759">
        <ele>98.45</ele>
        <time>2020-03-13T21:56:01.999Z</time>
      </trkpt>
      <trkpt lat="48.88297" lon="2.36763">
        <ele>98.51</ele>
        <time>2020-03-13T21:56:02.999Z</time>
      </trkpt>
      <trkpt lat="48.88301" lon="2.36768">
        <ele>98.59</ele>
        <time>2020-03-13T21:56:03.999Z</time>
      </trkpt>
      <trkpt lat="48.88305" lon="2.36773">
        <ele>98.68</ele>
        <time>2020-03-13T21:56:04.999Z</time>
      </trkpt>
      <trkpt lat="48.88308" lon="2.36778">
        <ele>98.74</ele>
        <time>2020-03-13T21:56:05.999Z</time>
      </trkpt>
      <trkpt lat="48.88312" lon="2.36783">
        <ele>98.77</ele>
        <time>2020-03-13T21:56:06.999Z</time>
      </trkpt>
      <trkpt lat="48.88315" lon="2.36788">
        <ele>98.8</ele>
        <time>2020-03-13T21:56:07.999Z</time>
      </trkpt>
      <trkpt lat="48.88319" lon="2.36793">
        <ele>98.81</ele>
        <time>2020-03-13T21:56:08.999Z</time>
      </trkpt>
      <trkpt lat="48.88322" lon="2.36798">
        <ele>98.81</ele>
        <time>2020-03-13T21:56:09.999Z</time>
      </trkpt>
      <trkpt lat="48.88326" lon="2.36802">
        <ele>98.79</ele>
        <time>2020-03-13T21:56:10.999Z</time>
      </trkpt>
      <trkpt lat="48.88329" lon="2.36807">
        <ele>98.77</ele>
        <time>2020-03-13T21:56:11.999Z</time>
      </trkpt>
      <trkpt lat="48.88332" lon="2.3681">
        <ele>98.71</ele>
        <time>2020-03-13T21:56:12.999Z</time>
      </trkpt>
      <trkpt lat="48.88335" lon="2.36815">
        <ele>98.68</ele>
        <time>2020-03-13T21:56:13.999Z</time>
      </trkpt>
      <trkpt lat="48.88339" lon="2.36819">
        <ele>98.63</ele>
        <time>2020-03-13T21:56:14.999Z</time>
      </trkpt>
      <trkpt lat="48.88343" lon="2.36822">
        <ele>98.58</ele>
        <time>2020-03-13T21:56:15.999Z</time>
      </trkpt>
      <trkpt lat="48.88348" lon="2.36823">
        <ele>98.52</ele>
        <time>2020-03-13T21:56:16.999Z</time>
      </trkpt>
      <trkpt lat="48.88351" lon="2.36828">
        <ele>98.52</ele>
        <time>2020-03-13T21:56:17.999Z</time>
      </trkpt>
      <trkpt lat="48.88352" lon="2.36833">
        <ele>98.51</ele>
        <time>2020-03-13T21:56:18.999Z</time>
      </trkpt>
      <trkpt lat="48.88354" lon="2.36838">
        <ele>98.51</ele>
        <time>2020-03-13T21:56:19.999Z</time>
      </trkpt>
      <trkpt lat="48.88357" lon="2.3684">
        <ele>98.5</ele>
        <time>2020-03-13T21:56:20.999Z</time>
      </trkpt>
      <trkpt lat="48.88359" lon="2.36845">
        <ele>98.5</ele>
        <time>2020-03-13T21:56:21.999Z</time>
      </trkpt>
      <trkpt lat="48.88364" lon="2.36849">
        <ele>98.51</ele>
        <time>2020-03-13T21:56:23.999Z</time>
      </trkpt>
      <trkpt lat="48.88366" lon="2.36853">
        <ele>98.51</ele>
        <time>2020-03-13T21:56:24.999Z</time>
      </trkpt>
      <trkpt lat="48.88368" lon="2.36854">
        <ele>98.52</ele>
        <time>2020-03-13T21:56:25.999Z</time>
      </trkpt>
      <trkpt lat="48.8837" lon="2.36856">
        <ele>98.52</ele>
        <time>2020-03-13T21:56:26.999Z</time>
      </trkpt>
      <trkpt lat="48.88372" lon="2.36857">
        <ele>98.52</ele>
        <time>2020-03-13T21:56:27.999Z</time>
      </trkpt>
      <trkpt lat="48.88373" lon="2.36858">
        <ele>98.52</ele>
        <time>2020-03-13T21:56:28.999Z</time>
      </trkpt>
      <trkpt lat="48.88374" lon="2.36859">
        <ele>98.52</ele>
        <time>2020-03-13T21:56:29.999Z</time>
      </trkpt>
      <trkpt lat="48.88374" lon="2.36861">
        <ele>98.52</ele>
        <time>2020-03-13T21:56:30.999Z</time>
      </trkpt>
      <trkpt lat="48.88375" lon="2.36862">
        <ele>98.52</ele>
        <time>2020-03-13T21:56:31.999Z</time>
      </trkpt>
      <trkpt lat="48.88376" lon="2.36864">
        <ele>98.51</ele>
        <time>2020-03-13T21:56:33.999Z</time>
      </trkpt>
      <trkpt lat="48.88377" lon="2.36866">
        <ele>98.51</ele>
        <time>2020-03-13T21:56:34.999Z</time>
      </trkpt>
      <trkpt lat="48.88378" lon="2.36868">
        <ele>98.51</ele>
        <time>2020-03-13T21:56:35.999Z</time>
      </trkpt>
      <trkpt lat="48.8838" lon="2.36869">
        <ele>98.51</ele>
        <time>2020-03-13T21:56:36.999Z</time>
      </trkpt>
      <trkpt lat="48.88381" lon="2.3687">
        <ele>98.51</ele>
        <time>2020-03-13T21:56:37.999Z</time>
      </trkpt>
      <trkpt lat="48.88383" lon="2.36871">
        <ele>98.51</ele>
        <time>2020-03-13T21:56:38.999Z</time>
      </trkpt>
      <trkpt lat="48.88384" lon="2.36875">
        <ele>98.51</ele>
        <time>2020-03-13T21:56:39.999Z</time>
      </trkpt>
      <trkpt lat="48.88388" lon="2.3688">
        <ele>98.52</ele>
        <time>2020-03-13T21:56:40.999Z</time>
      </trkpt>
      <trkpt lat="48.88391" lon="2.36883">
        <ele>98.52</ele>
        <time>2020-03-13T21:56:41.999Z</time>
      </trkpt>
      <trkpt lat="48.88397" lon="2.36881">
        <ele>98.52</ele>
        <time>2020-03-13T21:56:42.999Z</time>
      </trkpt>
      <trkpt lat="48.88401" lon="2.36889">
        <ele>98.52</ele>
        <time>2020-03-13T21:56:43.999Z</time>
      </trkpt>
      <trkpt lat="48.88404" lon="2.36895">
        <ele>98.52</ele>
        <time>2020-03-13T21:56:44.999Z</time>
      </trkpt>
      <trkpt lat="48.88407" lon="2.36898">
        <ele>98.52</ele>
        <time>2020-03-13T21:56:45.999Z</time>
      </trkpt>
      <trkpt lat="48.88411" lon="2.369">
        <ele>98.52</ele>
        <time>2020-03-13T21:56:46.999Z</time>
      </trkpt>
      <trkpt lat="48.88413" lon="2.36903">
        <ele>98.52</ele>
        <time>2020-03-13T21:56:47.999Z</time>
      </trkpt>
      <trkpt lat="48.88416" lon="2.36905">
        <ele>98.53</ele>
        <time>2020-03-13T21:56:48.999Z</time>
      </trkpt>
      <trkpt lat="48.88417" lon="2.36909">
        <ele>98.53</ele>
        <time>2020-03-13T21:56:49.999Z</time>
      </trkpt>
      <trkpt lat="48.88419" lon="2.36912">
        <ele>98.53</ele>
        <time>2020-03-13T21:56:50.999Z</time>
      </trkpt>
      <trkpt lat="48.88421" lon="2.36915">
        <ele>98.53</ele>
        <time>2020-03-13T21:56:51.999Z</time>
      </trkpt>
      <trkpt lat="48.88423" lon="2.36917">
        <ele>98.53</ele>
        <time>2020-03-13T21:56:52.999Z</time>
      </trkpt>
      <trkpt lat="48.88425" lon="2.3692">
        <ele>98.54</ele>
        <time>2020-03-13T21:56:53.999Z</time>
      </trkpt>
      <trkpt lat="48.88427" lon="2.36922">
        <ele>98.54</ele>
        <time>2020-03-13T21:56:54.999Z</time>
      </trkpt>
      <trkpt lat="48.8843" lon="2.36925">
        <ele>98.55</ele>
        <time>2020-03-13T21:56:55.999Z</time>
      </trkpt>
      <trkpt lat="48.88432" lon="2.36928">
        <ele>98.55</ele>
        <time>2020-03-13T21:56:56.999Z</time>
      </trkpt>
      <trkpt lat="48.88435" lon="2.36932">
        <ele>98.55</ele>
        <time>2020-03-13T21:56:57.999Z</time>
      </trkpt>
      <trkpt lat="48.88438" lon="2.36936">
        <ele>98.58</ele>
        <time>2020-03-13T21:56:58.999Z</time>
      </trkpt>
      <trkpt lat="48.88441" lon="2.3694">
        <ele>98.58</ele>
        <time>2020-03-13T21:56:59.999Z</time>
      </trkpt>
      <trkpt lat="48.88444" lon="2.36944">
        <ele>98.57</ele>
        <time>2020-03-13T21:57:00.999Z</time>
      </trkpt>
      <trkpt lat="48.88446" lon="2.36948">
        <ele>98.57</ele>
        <time>2020-03-13T21:57:01.999Z</time>
      </trkpt>
      <trkpt lat="48.88449" lon="2.36952">
        <ele>98.56</ele>
        <time>2020-03-13T21:57:02.999Z</time>
      </trkpt>
      <trkpt lat="48.88452" lon="2.36956">
        <ele>98.56</ele>
        <time>2020-03-13T21:57:03.999Z</time>
      </trkpt>
      <trkpt lat="48.88456" lon="2.3696">
        <ele>98.56</ele>
        <time>2020-03-13T21:57:04.999Z</time>
      </trkpt>
      <trkpt lat="48.88463" lon="2.3697">
        <ele>98.51</ele>
        <time>2020-03-13T21:57:06.999Z</time>
      </trkpt>
      <trkpt lat="48.88467" lon="2.36975">
        <ele>98.47</ele>
        <time>2020-03-13T21:57:07.999Z</time>
      </trkpt>
      <trkpt lat="48.88471" lon="2.36981">
        <ele>98.43</ele>
        <time>2020-03-13T21:57:08.999Z</time>
      </trkpt>
      <trkpt lat="48.88475" lon="2.36986">
        <ele>98.39</ele>
        <time>2020-03-13T21:57:09.999Z</time>
      </trkpt>
      <trkpt lat="48.88479" lon="2.36992">
        <ele>98.36</ele>
        <time>2020-03-13T21:57:10.999Z</time>
      </trkpt>
      <trkpt lat="48.88484" lon="2.36998">
        <ele>98.33</ele>
        <time>2020-03-13T21:57:11.999Z</time>
      </trkpt>
      <trkpt lat="48.88489" lon="2.37004">
        <ele>98.3</ele>
        <time>2020-03-13T21:57:12.999Z</time>
      </trkpt>
      <trkpt lat="48.88494" lon="2.3701">
        <ele>98.3</ele>
        <time>2020-03-13T21:57:13.999Z</time>
      </trkpt>
      <trkpt lat="48.88499" lon="2.37017">
        <ele>98.29</ele>
        <time>2020-03-13T21:57:14.999Z</time>
      </trkpt>
      <trkpt lat="48.88504" lon="2.37023">
        <ele>98.33</ele>
        <time>2020-03-13T21:57:15.999Z</time>
      </trkpt>
      <trkpt lat="48.88508" lon="2.37029">
        <ele>98.37</ele>
        <time>2020-03-13T21:57:16.999Z</time>
      </trkpt>
      <trkpt lat="48.88513" lon="2.37035">
        <ele>98.39</ele>
        <time>2020-03-13T21:57:17.999Z</time>
      </trkpt>
      <trkpt lat="48.88518" lon="2.37041">
        <ele>98.39</ele>
        <time>2020-03-13T21:57:18.999Z</time>
      </trkpt>
      <trkpt lat="48.88524" lon="2.37048">
        <ele>98.38</ele>
        <time>2020-03-13T21:57:19.999Z</time>
      </trkpt>
      <trkpt lat="48.88529" lon="2.37054">
        <ele>98.35</ele>
        <time>2020-03-13T21:57:20.999Z</time>
      </trkpt>
      <trkpt lat="48.88534" lon="2.37059">
        <ele>98.3</ele>
        <time>2020-03-13T21:57:21.999Z</time>
      </trkpt>
      <trkpt lat="48.88538" lon="2.37065">
        <ele>98.25</ele>
        <time>2020-03-13T21:57:22.999Z</time>
      </trkpt>
      <trkpt lat="48.88543" lon="2.37071">
        <ele>98.21</ele>
        <time>2020-03-13T21:57:23.999Z</time>
      </trkpt>
      <trkpt lat="48.88547" lon="2.37077">
        <ele>98.18</ele>
        <time>2020-03-13T21:57:24.999Z</time>
      </trkpt>
      <trkpt lat="48.88552" lon="2.37083">
        <ele>98.13</ele>
        <time>2020-03-13T21:57:25.999Z</time>
      </trkpt>
      <trkpt lat="48.88557" lon="2.37088">
        <ele>98.09</ele>
        <time>2020-03-13T21:57:26.999Z</time>
      </trkpt>
      <trkpt lat="48.88561" lon="2.37093">
        <ele>98.08</ele>
        <time>2020-03-13T21:57:27.999Z</time>
      </trkpt>
      <trkpt lat="48.88566" lon="2.37099">
        <ele>98.07</ele>
        <time>2020-03-13T21:57:28.999Z</time>
      </trkpt>
      <trkpt lat="48.88571" lon="2.37105">
        <ele>98.07</ele>
        <time>2020-03-13T21:57:29.999Z</time>
      </trkpt>
      <trkpt lat="48.88575" lon="2.37111">
        <ele>98.09</ele>
        <time>2020-03-13T21:57:30.999Z</time>
      </trkpt>
      <trkpt lat="48.8858" lon="2.37117">
        <ele>98.07</ele>
        <time>2020-03-13T21:57:31.999Z</time>
      </trkpt>
      <trkpt lat="48.88584" lon="2.37123">
        <ele>98.04</ele>
        <time>2020-03-13T21:57:32.999Z</time>
      </trkpt>
      <trkpt lat="48.88589" lon="2.37128">
        <ele>98</ele>
        <time>2020-03-13T21:57:33.999Z</time>
      </trkpt>
      <trkpt lat="48.88593" lon="2.37133">
        <ele>97.93</ele>
        <time>2020-03-13T21:57:34.999Z</time>
      </trkpt>
      <trkpt lat="48.88598" lon="2.37139">
        <ele>97.85</ele>
        <time>2020-03-13T21:57:35.999Z</time>
      </trkpt>
      <trkpt lat="48.88604" lon="2.37145">
        <ele>97.8</ele>
        <time>2020-03-13T21:57:36.999Z</time>
      </trkpt>
      <trkpt lat="48.88609" lon="2.3715">
        <ele>97.68</ele>
        <time>2020-03-13T21:57:37.999Z</time>
      </trkpt>
      <trkpt lat="48.88613" lon="2.37156">
        <ele>97.59</ele>
        <time>2020-03-13T21:57:38.999Z</time>
      </trkpt>
      <trkpt lat="48.88618" lon="2.37163">
        <ele>97.56</ele>
        <time>2020-03-13T21:57:39.999Z</time>
      </trkpt>
      <trkpt lat="48.88623" lon="2.3717">
        <ele>97.55</ele>
        <time>2020-03-13T21:57:40.999Z</time>
      </trkpt>
      <trkpt lat="48.88628" lon="2.37176">
        <ele>97.52</ele>
        <time>2020-03-13T21:57:41.999Z</time>
      </trkpt>
      <trkpt lat="48.88633" lon="2.37183">
        <ele>97.52</ele>
        <time>2020-03-13T21:57:42.999Z</time>
      </trkpt>
      <trkpt lat="48.88638" lon="2.3719">
        <ele>97.6</ele>
        <time>2020-03-13T21:57:43.999Z</time>
      </trkpt>
      <trkpt lat="48.88643" lon="2.37197">
        <ele>97.57</ele>
        <time>2020-03-13T21:57:44.999Z</time>
      </trkpt>
      <trkpt lat="48.88647" lon="2.37204">
        <ele>97.55</ele>
        <time>2020-03-13T21:57:45.999Z</time>
      </trkpt>
      <trkpt lat="48.88653" lon="2.37211">
        <ele>97.57</ele>
        <time>2020-03-13T21:57:46.999Z</time>
      </trkpt>
      <trkpt lat="48.88658" lon="2.37217">
        <ele>97.41</ele>
        <time>2020-03-13T21:57:47.999Z</time>
      </trkpt>
      <trkpt lat="48.88664" lon="2.37224">
        <ele>97.32</ele>
        <time>2020-03-13T21:57:48.999Z</time>
      </trkpt>
      <trkpt lat="48.88669" lon="2.37232">
        <ele>97.23</ele>
        <time>2020-03-13T21:57:49.999Z</time>
      </trkpt>
      <trkpt lat="48.88674" lon="2.37239">
        <ele>97.09</ele>
        <time>2020-03-13T21:57:50.999Z</time>
      </trkpt>
      <trkpt lat="48.88679" lon="2.37246">
        <ele>96.93</ele>
        <time>2020-03-13T21:57:51.999Z</time>
      </trkpt>
      <trkpt lat="48.88684" lon="2.37252">
        <ele>96.84</ele>
        <time>2020-03-13T21:57:52.999Z</time>
      </trkpt>
      <trkpt lat="48.88688" lon="2.37259">
        <ele>96.8</ele>
        <time>2020-03-13T21:57:53.999Z</time>
      </trkpt>
      <trkpt lat="48.88693" lon="2.37265">
        <ele>96.75</ele>
        <time>2020-03-13T21:57:54.999Z</time>
      </trkpt>
      <trkpt lat="48.88697" lon="2.37271">
        <ele>96.73</ele>
        <time>2020-03-13T21:57:55.999Z</time>
      </trkpt>
      <trkpt lat="48.88702" lon="2.37278">
        <ele>96.55</ele>
        <time>2020-03-13T21:57:56.999Z</time>
      </trkpt>
      <trkpt lat="48.88706" lon="2.37285">
        <ele>96.37</ele>
        <time>2020-03-13T21:57:57.999Z</time>
      </trkpt>
      <trkpt lat="48.88711" lon="2.37291">
        <ele>96.17</ele>
        <time>2020-03-13T21:57:58.999Z</time>
      </trkpt>
      <trkpt lat="48.88715" lon="2.37297">
        <ele>95.92</ele>
        <time>2020-03-13T21:57:59.999Z</time>
      </trkpt>
      <trkpt lat="48.88721" lon="2.37303">
        <ele>95.88</ele>
        <time>2020-03-13T21:58:00.999Z</time>
      </trkpt>
      <trkpt lat="48.88726" lon="2.37308">
        <ele>95.87</ele>
        <time>2020-03-13T21:58:01.999Z</time>
      </trkpt>
      <trkpt lat="48.88731" lon="2.37313">
        <ele>95.82</ele>
        <time>2020-03-13T21:58:02.999Z</time>
      </trkpt>
      <trkpt lat="48.88737" lon="2.37319">
        <ele>95.75</ele>
        <time>2020-03-13T21:58:03.999Z</time>
      </trkpt>
      <trkpt lat="48.88743" lon="2.37324">
        <ele>95.77</ele>
        <time>2020-03-13T21:58:04.999Z</time>
      </trkpt>
      <trkpt lat="48.88748" lon="2.37331">
        <ele>96</ele>
        <time>2020-03-13T21:58:05.999Z</time>
      </trkpt>
      <trkpt lat="48.88754" lon="2.37336">
        <ele>96.28</ele>
        <time>2020-03-13T21:58:06.999Z</time>
      </trkpt>
      <trkpt lat="48.8876" lon="2.37342">
        <ele>96.6</ele>
        <time>2020-03-13T21:58:07.999Z</time>
      </trkpt>
      <trkpt lat="48.88765" lon="2.37347">
        <ele>96.9</ele>
        <time>2020-03-13T21:58:08.999Z</time>
      </trkpt>
      <trkpt lat="48.88771" lon="2.37352">
        <ele>97.19</ele>
        <time>2020-03-13T21:58:09.999Z</time>
      </trkpt>
      <trkpt lat="48.88776" lon="2.37357">
        <ele>97.42</ele>
        <time>2020-03-13T21:58:10.999Z</time>
      </trkpt>
      <trkpt lat="48.8878" lon="2.37363">
        <ele>97.65</ele>
        <time>2020-03-13T21:58:11.999Z</time>
      </trkpt>
      <trkpt lat="48.88785" lon="2.37369">
        <ele>97.91</ele>
        <time>2020-03-13T21:58:12.999Z</time>
      </trkpt>
      <trkpt lat="48.8879" lon="2.37375">
        <ele>98.11</ele>
        <time>2020-03-13T21:58:13.999Z</time>
      </trkpt>
      <trkpt lat="48.88795" lon="2.37381">
        <ele>98.36</ele>
        <time>2020-03-13T21:58:14.999Z</time>
      </trkpt>
      <trkpt lat="48.888" lon="2.37387">
        <ele>98.68</ele>
        <time>2020-03-13T21:58:15.999Z</time>
      </trkpt>
      <trkpt lat="48.88804" lon="2.37393">
        <ele>99</ele>
        <time>2020-03-13T21:58:16.999Z</time>
      </trkpt>
      <trkpt lat="48.88809" lon="2.37399">
        <ele>99.15</ele>
        <time>2020-03-13T21:58:17.999Z</time>
      </trkpt>
      <trkpt lat="48.88814" lon="2.37404">
        <ele>99.27</ele>
        <time>2020-03-13T21:58:18.999Z</time>
      </trkpt>
      <trkpt lat="48.88819" lon="2.37409">
        <ele>99.39</ele>
        <time>2020-03-13T21:58:19.999Z</time>
      </trkpt>
      <trkpt lat="48.88824" lon="2.37415">
        <ele>99.53</ele>
        <time>2020-03-13T21:58:20.999Z</time>
      </trkpt>
      <trkpt lat="48.88828" lon="2.37421">
        <ele>99.66</ele>
        <time>2020-03-13T21:58:21.999Z</time>
      </trkpt>
      <trkpt lat="48.88833" lon="2.37426">
        <ele>99.88</ele>
        <time>2020-03-13T21:58:22.999Z</time>
      </trkpt>
      <trkpt lat="48.88838" lon="2.37431">
        <ele>100.12</ele>
        <time>2020-03-13T21:58:23.999Z</time>
      </trkpt>
      <trkpt lat="48.88844" lon="2.37437">
        <ele>100.36</ele>
        <time>2020-03-13T21:58:24.999Z</time>
      </trkpt>
      <trkpt lat="48.88849" lon="2.37443">
        <ele>100.55</ele>
        <time>2020-03-13T21:58:25.999Z</time>
      </trkpt>
      <trkpt lat="48.88853" lon="2.37448">
        <ele>100.65</ele>
        <time>2020-03-13T21:58:26.999Z</time>
      </trkpt>
      <trkpt lat="48.88859" lon="2.37454">
        <ele>100.79</ele>
        <time>2020-03-13T21:58:27.999Z</time>
      </trkpt>
      <trkpt lat="48.88863" lon="2.3746">
        <ele>100.91</ele>
        <time>2020-03-13T21:58:28.999Z</time>
      </trkpt>
      <trkpt lat="48.88868" lon="2.37466">
        <ele>100.88</ele>
        <time>2020-03-13T21:58:29.999Z</time>
      </trkpt>
      <trkpt lat="48.88875" lon="2.37472">
        <ele>101.46</ele>
        <time>2020-03-13T21:58:30.999Z</time>
      </trkpt>
      <trkpt lat="48.8888" lon="2.37479">
        <ele>101.85</ele>
        <time>2020-03-13T21:58:31.999Z</time>
      </trkpt>
      <trkpt lat="48.88885" lon="2.37485">
        <ele>102.15</ele>
        <time>2020-03-13T21:58:32.999Z</time>
      </trkpt>
      <trkpt lat="48.88891" lon="2.37492">
        <ele>102.36</ele>
        <time>2020-03-13T21:58:33.999Z</time>
      </trkpt>
      <trkpt lat="48.88896" lon="2.37499">
        <ele>102.56</ele>
        <time>2020-03-13T21:58:34.999Z</time>
      </trkpt>
      <trkpt lat="48.88902" lon="2.37505">
        <ele>102.94</ele>
        <time>2020-03-13T21:58:35.999Z</time>
      </trkpt>
      <trkpt lat="48.88908" lon="2.37511">
        <ele>102.94</ele>
        <time>2020-03-13T21:58:36.999Z</time>
      </trkpt>
      <trkpt lat="48.88914" lon="2.37518">
        <ele>103.1</ele>
        <time>2020-03-13T21:58:37.999Z</time>
      </trkpt>
      <trkpt lat="48.88919" lon="2.37525">
        <ele>103.29</ele>
        <time>2020-03-13T21:58:38.999Z</time>
      </trkpt>
      <trkpt lat="48.88925" lon="2.37531">
        <ele>103.63</ele>
        <time>2020-03-13T21:58:39.999Z</time>
      </trkpt>
      <trkpt lat="48.88931" lon="2.37538">
        <ele>103.96</ele>
        <time>2020-03-13T21:58:40.999Z</time>
      </trkpt>
      <trkpt lat="48.88937" lon="2.37544">
        <ele>104.27</ele>
        <time>2020-03-13T21:58:41.999Z</time>
      </trkpt>
      <trkpt lat="48.88942" lon="2.37551">
        <ele>104.75</ele>
        <time>2020-03-13T21:58:42.999Z</time>
      </trkpt>
      <trkpt lat="48.88948" lon="2.37558">
        <ele>105.07</ele>
        <time>2020-03-13T21:58:43.999Z</time>
      </trkpt>
      <trkpt lat="48.88952" lon="2.37565">
        <ele>105.27</ele>
        <time>2020-03-13T21:58:44.999Z</time>
      </trkpt>
      <trkpt lat="48.88958" lon="2.37571">
        <ele>105.43</ele>
        <time>2020-03-13T21:58:45.999Z</time>
      </trkpt>
      <trkpt lat="48.88963" lon="2.37577">
        <ele>105.54</ele>
        <time>2020-03-13T21:58:46.999Z</time>
      </trkpt>
      <trkpt lat="48.88968" lon="2.37583">
        <ele>105.4</ele>
        <time>2020-03-13T21:58:47.999Z</time>
      </trkpt>
      <trkpt lat="48.88974" lon="2.37589">
        <ele>105.31</ele>
        <time>2020-03-13T21:58:48.999Z</time>
      </trkpt>
      <trkpt lat="48.88978" lon="2.37596">
        <ele>105.15</ele>
        <time>2020-03-13T21:58:49.999Z</time>
      </trkpt>
      <trkpt lat="48.88983" lon="2.37602">
        <ele>104.99</ele>
        <time>2020-03-13T21:58:50.999Z</time>
      </trkpt>
      <trkpt lat="48.88988" lon="2.37609">
        <ele>105.04</ele>
        <time>2020-03-13T21:58:51.999Z</time>
      </trkpt>
      <trkpt lat="48.88993" lon="2.37616">
        <ele>105.14</ele>
        <time>2020-03-13T21:58:52.999Z</time>
      </trkpt>
      <trkpt lat="48.88998" lon="2.37623">
        <ele>105.24</ele>
        <time>2020-03-13T21:58:53.999Z</time>
      </trkpt>
      <trkpt lat="48.89002" lon="2.3763">
        <ele>105.31</ele>
        <time>2020-03-13T21:58:54.999Z</time>
      </trkpt>
      <trkpt lat="48.89006" lon="2.37636">
        <ele>105.2</ele>
        <time>2020-03-13T21:58:55.999Z</time>
      </trkpt>
      <trkpt lat="48.8901" lon="2.37642">
        <ele>105.13</ele>
        <time>2020-03-13T21:58:56.999Z</time>
      </trkpt>
      <trkpt lat="48.89014" lon="2.37648">
        <ele>104.99</ele>
        <time>2020-03-13T21:58:57.999Z</time>
      </trkpt>
      <trkpt lat="48.89017" lon="2.37654">
        <ele>104.79</ele>
        <time>2020-03-13T21:58:58.999Z</time>
      </trkpt>
      <trkpt lat="48.89022" lon="2.37659">
        <ele>104.45</ele>
        <time>2020-03-13T21:58:59.999Z</time>
      </trkpt>
      <trkpt lat="48.89025" lon="2.37664">
        <ele>104.22</ele>
        <time>2020-03-13T21:59:00.999Z</time>
      </trkpt>
      <trkpt lat="48.89029" lon="2.3767">
        <ele>104</ele>
        <time>2020-03-13T21:59:01.999Z</time>
      </trkpt>
      <trkpt lat="48.89032" lon="2.37675">
        <ele>103.71</ele>
        <time>2020-03-13T21:59:02.999Z</time>
      </trkpt>
      <trkpt lat="48.89035" lon="2.37679">
        <ele>103.39</ele>
        <time>2020-03-13T21:59:03.999Z</time>
      </trkpt>
      <trkpt lat="48.89039" lon="2.37685">
        <ele>103.22</ele>
        <time>2020-03-13T21:59:04.999Z</time>
      </trkpt>
      <trkpt lat="48.89042" lon="2.3769">
        <ele>103.21</ele>
        <time>2020-03-13T21:59:05.999Z</time>
      </trkpt>
      <trkpt lat="48.89046" lon="2.37695">
        <ele>103.23</ele>
        <time>2020-03-13T21:59:06.999Z</time>
      </trkpt>
      <trkpt lat="48.8905" lon="2.377">
        <ele>103.27</ele>
        <time>2020-03-13T21:59:07.999Z</time>
      </trkpt>
      <trkpt lat="48.89055" lon="2.37706">
        <ele>103.43</ele>
        <time>2020-03-13T21:59:08.999Z</time>
      </trkpt>
      <trkpt lat="48.8906" lon="2.37712">
        <ele>103.73</ele>
        <time>2020-03-13T21:59:09.999Z</time>
      </trkpt>
      <trkpt lat="48.89065" lon="2.37718">
        <ele>104.08</ele>
        <time>2020-03-13T21:59:10.999Z</time>
      </trkpt>
      <trkpt lat="48.89069" lon="2.37723">
        <ele>104.32</ele>
        <time>2020-03-13T21:59:11.999Z</time>
      </trkpt>
      <trkpt lat="48.89073" lon="2.37729">
        <ele>104.39</ele>
        <time>2020-03-13T21:59:12.999Z</time>
      </trkpt>
      <trkpt lat="48.89077" lon="2.37734">
        <ele>104.47</ele>
        <time>2020-03-13T21:59:13.999Z</time>
      </trkpt>
      <trkpt lat="48.89081" lon="2.3774">
        <ele>104.55</ele>
        <time>2020-03-13T21:59:14.999Z</time>
      </trkpt>
      <trkpt lat="48.89086" lon="2.37746">
        <ele>104.47</ele>
        <time>2020-03-13T21:59:15.999Z</time>
      </trkpt>
      <trkpt lat="48.8909" lon="2.37751">
        <ele>104.44</ele>
        <time>2020-03-13T21:59:16.999Z</time>
      </trkpt>
      <trkpt lat="48.89095" lon="2.37757">
        <ele>104.44</ele>
        <time>2020-03-13T21:59:17.999Z</time>
      </trkpt>
      <trkpt lat="48.891" lon="2.37762">
        <ele>104.4</ele>
        <time>2020-03-13T21:59:18.999Z</time>
      </trkpt>
      <trkpt lat="48.89105" lon="2.37767">
        <ele>104.27</ele>
        <time>2020-03-13T21:59:19.999Z</time>
      </trkpt>
      <trkpt lat="48.89109" lon="2.37773">
        <ele>104.16</ele>
        <time>2020-03-13T21:59:20.999Z</time>
      </trkpt>
      <trkpt lat="48.89113" lon="2.3778">
        <ele>104.23</ele>
        <time>2020-03-13T21:59:21.999Z</time>
      </trkpt>
      <trkpt lat="48.89117" lon="2.37786">
        <ele>104.46</ele>
        <time>2020-03-13T21:59:22.999Z</time>
      </trkpt>
      <trkpt lat="48.89122" lon="2.37792">
        <ele>104.76</ele>
        <time>2020-03-13T21:59:23.999Z</time>
      </trkpt>
      <trkpt lat="48.89127" lon="2.37797">
        <ele>105</ele>
        <time>2020-03-13T21:59:24.999Z</time>
      </trkpt>
      <trkpt lat="48.89132" lon="2.37803">
        <ele>105.35</ele>
        <time>2020-03-13T21:59:25.999Z</time>
      </trkpt>
      <trkpt lat="48.89137" lon="2.37808">
        <ele>105.65</ele>
        <time>2020-03-13T21:59:26.999Z</time>
      </trkpt>
      <trkpt lat="48.89142" lon="2.37814">
        <ele>105.88</ele>
        <time>2020-03-13T21:59:27.999Z</time>
      </trkpt>
      <trkpt lat="48.89148" lon="2.3782">
        <ele>106.14</ele>
        <time>2020-03-13T21:59:28.999Z</time>
      </trkpt>
      <trkpt lat="48.89152" lon="2.37826">
        <ele>106.29</ele>
        <time>2020-03-13T21:59:29.999Z</time>
      </trkpt>
      <trkpt lat="48.89157" lon="2.37832">
        <ele>106.46</ele>
        <time>2020-03-13T21:59:30.999Z</time>
      </trkpt>
      <trkpt lat="48.89162" lon="2.37838">
        <ele>106.53</ele>
        <time>2020-03-13T21:59:31.999Z</time>
      </trkpt>
      <trkpt lat="48.89167" lon="2.37843">
        <ele>106.6</ele>
        <time>2020-03-13T21:59:32.999Z</time>
      </trkpt>
      <trkpt lat="48.89172" lon="2.37849">
        <ele>106.73</ele>
        <time>2020-03-13T21:59:33.999Z</time>
      </trkpt>
      <trkpt lat="48.89176" lon="2.37855">
        <ele>106.75</ele>
        <time>2020-03-13T21:59:34.999Z</time>
      </trkpt>
      <trkpt lat="48.89181" lon="2.37861">
        <ele>106.76</ele>
        <time>2020-03-13T21:59:35.999Z</time>
      </trkpt>
      <trkpt lat="48.89185" lon="2.37867">
        <ele>106.81</ele>
        <time>2020-03-13T21:59:36.999Z</time>
      </trkpt>
      <trkpt lat="48.8919" lon="2.37873">
        <ele>106.94</ele>
        <time>2020-03-13T21:59:37.999Z</time>
      </trkpt>
      <trkpt lat="48.89194" lon="2.37879">
        <ele>107.03</ele>
        <time>2020-03-13T21:59:38.999Z</time>
      </trkpt>
      <trkpt lat="48.89197" lon="2.37886">
        <ele>107.06</ele>
        <time>2020-03-13T21:59:39.999Z</time>
      </trkpt>
      <trkpt lat="48.89201" lon="2.37891">
        <ele>107.16</ele>
        <time>2020-03-13T21:59:40.999Z</time>
      </trkpt>
      <trkpt lat="48.89205" lon="2.37895">
        <ele>107.04</ele>
        <time>2020-03-13T21:59:41.999Z</time>
      </trkpt>
      <trkpt lat="48.89208" lon="2.37899">
        <ele>106.93</ele>
        <time>2020-03-13T21:59:42.999Z</time>
      </trkpt>
      <trkpt lat="48.89212" lon="2.37903">
        <ele>106.94</ele>
        <time>2020-03-13T21:59:43.999Z</time>
      </trkpt>
      <trkpt lat="48.89216" lon="2.37908">
        <ele>106.87</ele>
        <time>2020-03-13T21:59:44.999Z</time>
      </trkpt>
      <trkpt lat="48.89219" lon="2.37912">
        <ele>106.59</ele>
        <time>2020-03-13T21:59:45.999Z</time>
      </trkpt>
      <trkpt lat="48.89223" lon="2.37917">
        <ele>106.39</ele>
        <time>2020-03-13T21:59:46.999Z</time>
      </trkpt>
      <trkpt lat="48.89227" lon="2.37923">
        <ele>106.25</ele>
        <time>2020-03-13T21:59:47.999Z</time>
      </trkpt>
      <trkpt lat="48.89231" lon="2.37928">
        <ele>106.16</ele>
        <time>2020-03-13T21:59:48.999Z</time>
      </trkpt>
      <trkpt lat="48.89235" lon="2.37932">
        <ele>105.99</ele>
        <time>2020-03-13T21:59:49.999Z</time>
      </trkpt>
      <trkpt lat="48.89239" lon="2.37938">
        <ele>105.87</ele>
        <time>2020-03-13T21:59:50.999Z</time>
      </trkpt>
      <trkpt lat="48.89243" lon="2.37944">
        <ele>105.74</ele>
        <time>2020-03-13T21:59:51.999Z</time>
      </trkpt>
      <trkpt lat="48.89248" lon="2.37949">
        <ele>105.62</ele>
        <time>2020-03-13T21:59:52.999Z</time>
      </trkpt>
      <trkpt lat="48.89253" lon="2.37955">
        <ele>105.48</ele>
        <time>2020-03-13T21:59:53.999Z</time>
      </trkpt>
      <trkpt lat="48.89258" lon="2.37961">
        <ele>105.33</ele>
        <time>2020-03-13T21:59:54.999Z</time>
      </trkpt>
      <trkpt lat="48.89262" lon="2.37967">
        <ele>105.14</ele>
        <time>2020-03-13T21:59:55.999Z</time>
      </trkpt>
      <trkpt lat="48.89267" lon="2.37974">
        <ele>104.96</ele>
        <time>2020-03-13T21:59:56.999Z</time>
      </trkpt>
      <trkpt lat="48.89271" lon="2.3798">
        <ele>104.82</ele>
        <time>2020-03-13T21:59:57.999Z</time>
      </trkpt>
      <trkpt lat="48.89275" lon="2.37985">
        <ele>104.7</ele>
        <time>2020-03-13T21:59:58.999Z</time>
      </trkpt>
      <trkpt lat="48.8928" lon="2.37991">
        <ele>104.63</ele>
        <time>2020-03-13T21:59:59.999Z</time>
      </trkpt>
      <trkpt lat="48.89284" lon="2.37996">
        <ele>104.56</ele>
        <time>2020-03-13T22:00:00.999Z</time>
      </trkpt>
      <trkpt lat="48.89288" lon="2.38001">
        <ele>104.61</ele>
        <time>2020-03-13T22:00:01.999Z</time>
      </trkpt>
      <trkpt lat="48.89292" lon="2.38006">
        <ele>104.74</ele>
        <time>2020-03-13T22:00:02.999Z</time>
      </trkpt>
      <trkpt lat="48.89296" lon="2.38012">
        <ele>104.84</ele>
        <time>2020-03-13T22:00:03.999Z</time>
      </trkpt>
      <trkpt lat="48.89301" lon="2.38019">
        <ele>104.98</ele>
        <time>2020-03-13T22:00:04.999Z</time>
      </trkpt>
      <trkpt lat="48.89306" lon="2.38025">
        <ele>105.13</ele>
        <time>2020-03-13T22:00:05.999Z</time>
      </trkpt>
      <trkpt lat="48.8931" lon="2.38031">
        <ele>105.31</ele>
        <time>2020-03-13T22:00:06.999Z</time>
      </trkpt>
      <trkpt lat="48.89316" lon="2.38038">
        <ele>105.54</ele>
        <time>2020-03-13T22:00:07.999Z</time>
      </trkpt>
      <trkpt lat="48.89321" lon="2.38045">
        <ele>105.77</ele>
        <time>2020-03-13T22:00:08.999Z</time>
      </trkpt>
      <trkpt lat="48.89326" lon="2.38052">
        <ele>105.97</ele>
        <time>2020-03-13T22:00:09.999Z</time>
      </trkpt>
      <trkpt lat="48.8933" lon="2.38059">
        <ele>106.07</ele>
        <time>2020-03-13T22:00:10.999Z</time>
      </trkpt>
      <trkpt lat="48.89333" lon="2.38065">
        <ele>106.19</ele>
        <time>2020-03-13T22:00:11.999Z</time>
      </trkpt>
      <trkpt lat="48.89338" lon="2.38072">
        <ele>106.23</ele>
        <time>2020-03-13T22:00:12.999Z</time>
      </trkpt>
      <trkpt lat="48.89343" lon="2.38078">
        <ele>106.22</ele>
        <time>2020-03-13T22:00:13.999Z</time>
      </trkpt>
      <trkpt lat="48.89348" lon="2.38085">
        <ele>106.27</ele>
        <time>2020-03-13T22:00:14.999Z</time>
      </trkpt>
      <trkpt lat="48.89352" lon="2.38092">
        <ele>106.05</ele>
        <time>2020-03-13T22:00:15.999Z</time>
      </trkpt>
      <trkpt lat="48.89355" lon="2.38097">
        <ele>105.8</ele>
        <time>2020-03-13T22:00:16.999Z</time>
      </trkpt>
      <trkpt lat="48.89359" lon="2.38103">
        <ele>105.53</ele>
        <time>2020-03-13T22:00:17.999Z</time>
      </trkpt>
      <trkpt lat="48.89363" lon="2.38109">
        <ele>105.26</ele>
        <time>2020-03-13T22:00:18.999Z</time>
      </trkpt>
      <trkpt lat="48.89369" lon="2.38115">
        <ele>105</ele>
        <time>2020-03-13T22:00:19.999Z</time>
      </trkpt>
      <trkpt lat="48.89374" lon="2.38121">
        <ele>104.8</ele>
        <time>2020-03-13T22:00:20.999Z</time>
      </trkpt>
      <trkpt lat="48.89378" lon="2.38127">
        <ele>104.63</ele>
        <time>2020-03-13T22:00:21.999Z</time>
      </trkpt>
      <trkpt lat="48.89383" lon="2.38134">
        <ele>104.5</ele>
        <time>2020-03-13T22:00:22.999Z</time>
      </trkpt>
      <trkpt lat="48.89388" lon="2.38141">
        <ele>104.39</ele>
        <time>2020-03-13T22:00:23.999Z</time>
      </trkpt>
      <trkpt lat="48.89393" lon="2.38146">
        <ele>104.27</ele>
        <time>2020-03-13T22:00:24.999Z</time>
      </trkpt>
      <trkpt lat="48.89397" lon="2.38152">
        <ele>104.16</ele>
        <time>2020-03-13T22:00:25.999Z</time>
      </trkpt>
      <trkpt lat="48.89401" lon="2.38157">
        <ele>104.09</ele>
        <time>2020-03-13T22:00:26.999Z</time>
      </trkpt>
      <trkpt lat="48.89405" lon="2.38163">
        <ele>104.07</ele>
        <time>2020-03-13T22:00:27.999Z</time>
      </trkpt>
      <trkpt lat="48.89409" lon="2.38168">
        <ele>104.1</ele>
        <time>2020-03-13T22:00:28.999Z</time>
      </trkpt>
      <trkpt lat="48.89414" lon="2.38173">
        <ele>104.12</ele>
        <time>2020-03-13T22:00:29.999Z</time>
      </trkpt>
      <trkpt lat="48.89417" lon="2.38178">
        <ele>104.15</ele>
        <time>2020-03-13T22:00:31.000Z</time>
      </trkpt>
      <trkpt lat="48.89421" lon="2.38184">
        <ele>104.17</ele>
        <time>2020-03-13T22:00:32.000Z</time>
      </trkpt>
      <trkpt lat="48.89424" lon="2.38191">
        <ele>104.22</ele>
        <time>2020-03-13T22:00:33.000Z</time>
      </trkpt>
      <trkpt lat="48.89428" lon="2.38197">
        <ele>104.27</ele>
        <time>2020-03-13T22:00:34.000Z</time>
      </trkpt>
      <trkpt lat="48.89431" lon="2.38204">
        <ele>104.32</ele>
        <time>2020-03-13T22:00:35.000Z</time>
      </trkpt>
      <trkpt lat="48.89435" lon="2.3821">
        <ele>104.36</ele>
        <time>2020-03-13T22:00:36.000Z</time>
      </trkpt>
      <trkpt lat="48.89439" lon="2.38216">
        <ele>104.42</ele>
        <time>2020-03-13T22:00:37.000Z</time>
      </trkpt>
      <trkpt lat="48.89443" lon="2.38222">
        <ele>104.43</ele>
        <time>2020-03-13T22:00:38.000Z</time>
      </trkpt>
      <trkpt lat="48.89448" lon="2.38227">
        <ele>104.42</ele>
        <time>2020-03-13T22:00:39.000Z</time>
      </trkpt>
      <trkpt lat="48.89455" lon="2.3823">
        <ele>104.2</ele>
        <time>2020-03-13T22:00:40.000Z</time>
      </trkpt>
      <trkpt lat="48.8946" lon="2.38235">
        <ele>104.1</ele>
        <time>2020-03-13T22:00:41.000Z</time>
      </trkpt>
      <trkpt lat="48.89465" lon="2.3824">
        <ele>104.02</ele>
        <time>2020-03-13T22:00:42.000Z</time>
      </trkpt>
      <trkpt lat="48.89469" lon="2.38244">
        <ele>103.96</ele>
        <time>2020-03-13T22:00:43.000Z</time>
      </trkpt>
      <trkpt lat="48.89472" lon="2.38249">
        <ele>103.92</ele>
        <time>2020-03-13T22:00:44.000Z</time>
      </trkpt>
      <trkpt lat="48.89477" lon="2.38254">
        <ele>103.92</ele>
        <time>2020-03-13T22:00:45.000Z</time>
      </trkpt>
      <trkpt lat="48.89482" lon="2.38257">
        <ele>103.96</ele>
        <time>2020-03-13T22:00:46.000Z</time>
      </trkpt>
      <trkpt lat="48.89487" lon="2.38262">
        <ele>104.07</ele>
        <time>2020-03-13T22:00:47.000Z</time>
      </trkpt>
      <trkpt lat="48.89491" lon="2.38267">
        <ele>104.19</ele>
        <time>2020-03-13T22:00:48.000Z</time>
      </trkpt>
      <trkpt lat="48.89496" lon="2.38272">
        <ele>104.29</ele>
        <time>2020-03-13T22:00:49.000Z</time>
      </trkpt>
      <trkpt lat="48.895" lon="2.38278">
        <ele>104.39</ele>
        <time>2020-03-13T22:00:50.000Z</time>
      </trkpt>
      <trkpt lat="48.89505" lon="2.38283">
        <ele>104.5</ele>
        <time>2020-03-13T22:00:51.000Z</time>
      </trkpt>
      <trkpt lat="48.8951" lon="2.38288">
        <ele>104.65</ele>
        <time>2020-03-13T22:00:52.000Z</time>
      </trkpt>
      <trkpt lat="48.89514" lon="2.38293">
        <ele>104.77</ele>
        <time>2020-03-13T22:00:53.000Z</time>
      </trkpt>
      <trkpt lat="48.89517" lon="2.38298">
        <ele>104.89</ele>
        <time>2020-03-13T22:00:54.000Z</time>
      </trkpt>
      <trkpt lat="48.89522" lon="2.38303">
        <ele>105</ele>
        <time>2020-03-13T22:00:55.000Z</time>
      </trkpt>
      <trkpt lat="48.89526" lon="2.38307">
        <ele>105.08</ele>
        <time>2020-03-13T22:00:56.000Z</time>
      </trkpt>
      <trkpt lat="48.89529" lon="2.38312">
        <ele>105.16</ele>
        <time>2020-03-13T22:00:57.000Z</time>
      </trkpt>
      <trkpt lat="48.89533" lon="2.38317">
        <ele>105.2</ele>
        <time>2020-03-13T22:00:58.000Z</time>
      </trkpt>
      <trkpt lat="48.89536" lon="2.38321">
        <ele>105.21</ele>
        <time>2020-03-13T22:00:59.000Z</time>
      </trkpt>
      <trkpt lat="48.8954" lon="2.38325">
        <ele>105.22</ele>
        <time>2020-03-13T22:01:00.000Z</time>
      </trkpt>
      <trkpt lat="48.89543" lon="2.3833">
        <ele>105.23</ele>
        <time>2020-03-13T22:01:01.000Z</time>
      </trkpt>
      <trkpt lat="48.89547" lon="2.38334">
        <ele>105.23</ele>
        <time>2020-03-13T22:01:02.000Z</time>
      </trkpt>
      <trkpt lat="48.8955" lon="2.38336">
        <ele>105.22</ele>
        <time>2020-03-13T22:01:03.000Z</time>
      </trkpt>
      <trkpt lat="48.89553" lon="2.3834">
        <ele>105.21</ele>
        <time>2020-03-13T22:01:04.000Z</time>
      </trkpt>
      <trkpt lat="48.89557" lon="2.38344">
        <ele>105.2</ele>
        <time>2020-03-13T22:01:05.000Z</time>
      </trkpt>
      <trkpt lat="48.8956" lon="2.38347">
        <ele>105.19</ele>
        <time>2020-03-13T22:01:06.000Z</time>
      </trkpt>
      <trkpt lat="48.89563" lon="2.3835">
        <ele>105.19</ele>
        <time>2020-03-13T22:01:07.000Z</time>
      </trkpt>
      <trkpt lat="48.89566" lon="2.38353">
        <ele>105.19</ele>
        <time>2020-03-13T22:01:08.000Z</time>
      </trkpt>
      <trkpt lat="48.89568" lon="2.38356">
        <ele>105.19</ele>
        <time>2020-03-13T22:01:09.000Z</time>
      </trkpt>
      <trkpt lat="48.8957" lon="2.3836">
        <ele>105.19</ele>
        <time>2020-03-13T22:01:10.000Z</time>
      </trkpt>
      <trkpt lat="48.89572" lon="2.38365">
        <ele>105.2</ele>
        <time>2020-03-13T22:01:11.000Z</time>
      </trkpt>
      <trkpt lat="48.89574" lon="2.38369">
        <ele>105.21</ele>
        <time>2020-03-13T22:01:12.000Z</time>
      </trkpt>
      <trkpt lat="48.89575" lon="2.38372">
        <ele>105.22</ele>
        <time>2020-03-13T22:01:13.000Z</time>
      </trkpt>
      <trkpt lat="48.89577" lon="2.38375">
        <ele>105.23</ele>
        <time>2020-03-13T22:01:14.000Z</time>
      </trkpt>
      <trkpt lat="48.89579" lon="2.38379">
        <ele>105.24</ele>
        <time>2020-03-13T22:01:15.000Z</time>
      </trkpt>
      <trkpt lat="48.8958" lon="2.38382">
        <ele>105.26</ele>
        <time>2020-03-13T22:01:16.000Z</time>
      </trkpt>
      <trkpt lat="48.89581" lon="2.38385">
        <ele>105.28</ele>
        <time>2020-03-13T22:01:17.000Z</time>
      </trkpt>
      <trkpt lat="48.89582" lon="2.38387">
        <ele>105.3</ele>
        <time>2020-03-13T22:01:18.000Z</time>
      </trkpt>
      <trkpt lat="48.89582" lon="2.3839">
        <ele>105.32</ele>
        <time>2020-03-13T22:01:19.000Z</time>
      </trkpt>
      <trkpt lat="48.89583" lon="2.38392">
        <ele>105.34</ele>
        <time>2020-03-13T22:01:20.000Z</time>
      </trkpt>
      <trkpt lat="48.89584" lon="2.38394">
        <ele>105.35</ele>
        <time>2020-03-13T22:01:21.000Z</time>
      </trkpt>
      <trkpt lat="48.89584" lon="2.38397">
        <ele>105.37</ele>
        <time>2020-03-13T22:01:22.000Z</time>
      </trkpt>
      <trkpt lat="48.89583" lon="2.38398">
        <ele>105.39</ele>
        <time>2020-03-13T22:01:23.000Z</time>
      </trkpt>
      <trkpt lat="48.89583" lon="2.38401">
        <ele>105.41</ele>
        <time>2020-03-13T22:01:25.000Z</time>
      </trkpt>
      <trkpt lat="48.89583" lon="2.38403">
        <ele>105.44</ele>
        <time>2020-03-13T22:01:27.000Z</time>
      </trkpt>
      <trkpt lat="48.89582" lon="2.38405">
        <ele>105.47</ele>
        <time>2020-03-13T22:01:29.000Z</time>
      </trkpt>
      <trkpt lat="48.89584" lon="2.38403">
        <ele>105.49</ele>
        <time>2020-03-13T22:01:31.000Z</time>
      </trkpt>
      <trkpt lat="48.89585" lon="2.38402">
        <ele>105.5</ele>
        <time>2020-03-13T22:01:42.000Z</time>
      </trkpt>
      <trkpt lat="48.89585" lon="2.38403">
        <ele>105.56</ele>
        <time>2020-03-13T22:01:58.000Z</time>
      </trkpt>
      <trkpt lat="48.89586" lon="2.38405">
        <ele>105.57</ele>
        <time>2020-03-13T22:02:10.000Z</time>
      </trkpt>
      <trkpt lat="48.89586" lon="2.38406">
        <ele>105.58</ele>
        <time>2020-03-13T22:02:20.000Z</time>
      </trkpt>
      <trkpt lat="48.89586" lon="2.38408">
        <ele>105.61</ele>
        <time>2020-03-13T22:02:33.000Z</time>
      </trkpt>
      <trkpt lat="48.89587" lon="2.38407">
        <ele>105.63</ele>
        <time>2020-03-13T22:02:43.000Z</time>
      </trkpt>
      <trkpt lat="48.89588" lon="2.38409">
        <ele>105.63</ele>
        <time>2020-03-13T22:02:44.000Z</time>
      </trkpt>
      <trkpt lat="48.8959" lon="2.3841">
        <ele>105.63</ele>
        <time>2020-03-13T22:02:45.000Z</time>
      </trkpt>
      <trkpt lat="48.89592" lon="2.38413">
        <ele>105.64</ele>
        <time>2020-03-13T22:02:46.000Z</time>
      </trkpt>
      <trkpt lat="48.89594" lon="2.38416">
        <ele>105.64</ele>
        <time>2020-03-13T22:02:47.000Z</time>
      </trkpt>
      <trkpt lat="48.89597" lon="2.38419">
        <ele>105.65</ele>
        <time>2020-03-13T22:02:48.000Z</time>
      </trkpt>
      <trkpt lat="48.89599" lon="2.38421">
        <ele>105.65</ele>
        <time>2020-03-13T22:02:49.000Z</time>
      </trkpt>
      <trkpt lat="48.89604" lon="2.38427">
        <ele>105.65</ele>
        <time>2020-03-13T22:02:51.000Z</time>
      </trkpt>
      <trkpt lat="48.89606" lon="2.3843">
        <ele>105.65</ele>
        <time>2020-03-13T22:02:52.000Z</time>
      </trkpt>
      <trkpt lat="48.89608" lon="2.38433">
        <ele>105.64</ele>
        <time>2020-03-13T22:02:53.000Z</time>
      </trkpt>
      <trkpt lat="48.8961" lon="2.38437">
        <ele>105.64</ele>
        <time>2020-03-13T22:02:54.000Z</time>
      </trkpt>
      <trkpt lat="48.89613" lon="2.3844">
        <ele>105.63</ele>
        <time>2020-03-13T22:02:55.000Z</time>
      </trkpt>
      <trkpt lat="48.89616" lon="2.38442">
        <ele>105.62</ele>
        <time>2020-03-13T22:02:56.000Z</time>
      </trkpt>
      <trkpt lat="48.89618" lon="2.38444">
        <ele>105.61</ele>
        <time>2020-03-13T22:02:57.000Z</time>
      </trkpt>
      <trkpt lat="48.89623" lon="2.38448">
        <ele>105.58</ele>
        <time>2020-03-13T22:02:59.000Z</time>
      </trkpt>
      <trkpt lat="48.89626" lon="2.3845">
        <ele>105.57</ele>
        <time>2020-03-13T22:03:00.000Z</time>
      </trkpt>
      <trkpt lat="48.89628" lon="2.38452">
        <ele>105.55</ele>
        <time>2020-03-13T22:03:01.000Z</time>
      </trkpt>
      <trkpt lat="48.8963" lon="2.38454">
        <ele>105.54</ele>
        <time>2020-03-13T22:03:02.000Z</time>
      </trkpt>
      <trkpt lat="48.89635" lon="2.38459">
        <ele>105.52</ele>
        <time>2020-03-13T22:03:04.000Z</time>
      </trkpt>
      <trkpt lat="48.8964" lon="2.38464">
        <ele>105.49</ele>
        <time>2020-03-13T22:03:06.000Z</time>
      </trkpt>
      <trkpt lat="48.89642" lon="2.38466">
        <ele>105.48</ele>
        <time>2020-03-13T22:03:07.000Z</time>
      </trkpt>
      <trkpt lat="48.89645" lon="2.38469">
        <ele>105.47</ele>
        <time>2020-03-13T22:03:08.000Z</time>
      </trkpt>
      <trkpt lat="48.89648" lon="2.38471">
        <ele>105.45</ele>
        <time>2020-03-13T22:03:09.000Z</time>
      </trkpt>
      <trkpt lat="48.89651" lon="2.38473">
        <ele>105.34</ele>
        <time>2020-03-13T22:03:10.000Z</time>
      </trkpt>
      <trkpt lat="48.89656" lon="2.38479">
        <ele>105.24</ele>
        <time>2020-03-13T22:03:12.000Z</time>
      </trkpt>
      <trkpt lat="48.89659" lon="2.38482">
        <ele>105.23</ele>
        <time>2020-03-13T22:03:13.000Z</time>
      </trkpt>
      <trkpt lat="48.89661" lon="2.38486">
        <ele>105.23</ele>
        <time>2020-03-13T22:03:14.000Z</time>
      </trkpt>
      <trkpt lat="48.89663" lon="2.38496">
        <ele>105.22</ele>
        <time>2020-03-13T22:03:15.000Z</time>
      </trkpt>
      <trkpt lat="48.89665" lon="2.38504">
        <ele>105.21</ele>
        <time>2020-03-13T22:03:16.000Z</time>
      </trkpt>
      <trkpt lat="48.89666" lon="2.3851">
        <ele>105.21</ele>
        <time>2020-03-13T22:03:17.000Z</time>
      </trkpt>
      <trkpt lat="48.8967" lon="2.38512">
        <ele>105.14</ele>
        <time>2020-03-13T22:03:18.000Z</time>
      </trkpt>
      <trkpt lat="48.89674" lon="2.38512">
        <ele>105.13</ele>
        <time>2020-03-13T22:03:19.000Z</time>
      </trkpt>
      <trkpt lat="48.89678" lon="2.38513">
        <ele>105.13</ele>
        <time>2020-03-13T22:03:20.000Z</time>
      </trkpt>
      <trkpt lat="48.89681" lon="2.38517">
        <ele>105.07</ele>
        <time>2020-03-13T22:03:21.000Z</time>
      </trkpt>
      <trkpt lat="48.89683" lon="2.3852">
        <ele>105.03</ele>
        <time>2020-03-13T22:03:22.000Z</time>
      </trkpt>
      <trkpt lat="48.89686" lon="2.38519">
        <ele>105.03</ele>
        <time>2020-03-13T22:03:23.000Z</time>
      </trkpt>
      <trkpt lat="48.89689" lon="2.38524">
        <ele>105.02</ele>
        <time>2020-03-13T22:03:24.000Z</time>
      </trkpt>
      <trkpt lat="48.89693" lon="2.38528">
        <ele>105.02</ele>
        <time>2020-03-13T22:03:26.000Z</time>
      </trkpt>
      <trkpt lat="48.89698" lon="2.38528">
        <ele>105.01</ele>
        <time>2020-03-13T22:03:27.000Z</time>
      </trkpt>
      <trkpt lat="48.897" lon="2.38528">
        <ele>105.01</ele>
        <time>2020-03-13T22:03:28.000Z</time>
      </trkpt>
      <trkpt lat="48.89704" lon="2.38532">
        <ele>104.97</ele>
        <time>2020-03-13T22:03:30.000Z</time>
      </trkpt>
      <trkpt lat="48.89709" lon="2.38535">
        <ele>104.94</ele>
        <time>2020-03-13T22:03:31.000Z</time>
      </trkpt>
      <trkpt lat="48.89719" lon="2.38546">
        <ele>104.93</ele>
        <time>2020-03-13T22:03:32.000Z</time>
      </trkpt>
      <trkpt lat="48.8972" lon="2.38551">
        <ele>104.93</ele>
        <time>2020-03-13T22:03:33.000Z</time>
      </trkpt>
      <trkpt lat="48.89722" lon="2.38556">
        <ele>104.93</ele>
        <time>2020-03-13T22:03:34.000Z</time>
      </trkpt>
      <trkpt lat="48.89724" lon="2.38559">
        <ele>104.92</ele>
        <time>2020-03-13T22:03:35.000Z</time>
      </trkpt>
      <trkpt lat="48.89726" lon="2.38562">
        <ele>104.92</ele>
        <time>2020-03-13T22:03:36.000Z</time>
      </trkpt>
      <trkpt lat="48.89728" lon="2.38568">
        <ele>104.92</ele>
        <time>2020-03-13T22:03:37.000Z</time>
      </trkpt>
      <trkpt lat="48.8973" lon="2.38571">
        <ele>104.91</ele>
        <time>2020-03-13T22:03:38.000Z</time>
      </trkpt>
      <trkpt lat="48.89731" lon="2.38575">
        <ele>104.91</ele>
        <time>2020-03-13T22:03:39.000Z</time>
      </trkpt>
      <trkpt lat="48.89733" lon="2.38581">
        <ele>104.9</ele>
        <time>2020-03-13T22:03:40.000Z</time>
      </trkpt>
      <trkpt lat="48.89734" lon="2.38587">
        <ele>104.9</ele>
        <time>2020-03-13T22:03:41.000Z</time>
      </trkpt>
      <trkpt lat="48.89735" lon="2.38592">
        <ele>104.9</ele>
        <time>2020-03-13T22:03:42.000Z</time>
      </trkpt>
      <trkpt lat="48.89735" lon="2.38598">
        <ele>104.89</ele>
        <time>2020-03-13T22:03:43.000Z</time>
      </trkpt>
      <trkpt lat="48.89735" lon="2.38609">
        <ele>104.88</ele>
        <time>2020-03-13T22:03:45.000Z</time>
      </trkpt>
      <trkpt lat="48.89735" lon="2.38619">
        <ele>104.87</ele>
        <time>2020-03-13T22:03:47.000Z</time>
      </trkpt>
      <trkpt lat="48.89735" lon="2.38625">
        <ele>104.87</ele>
        <time>2020-03-13T22:03:48.000Z</time>
      </trkpt>
      <trkpt lat="48.89735" lon="2.3863">
        <ele>104.86</ele>
        <time>2020-03-13T22:03:49.000Z</time>
      </trkpt>
      <trkpt lat="48.89735" lon="2.38637">
        <ele>104.82</ele>
        <time>2020-03-13T22:03:50.000Z</time>
      </trkpt>
      <trkpt lat="48.89733" lon="2.38643">
        <ele>104.81</ele>
        <time>2020-03-13T22:03:51.000Z</time>
      </trkpt>
      <trkpt lat="48.89733" lon="2.38648">
        <ele>104.81</ele>
        <time>2020-03-13T22:03:52.000Z</time>
      </trkpt>
      <trkpt lat="48.89733" lon="2.38657">
        <ele>104.8</ele>
        <time>2020-03-13T22:03:54.000Z</time>
      </trkpt>
      <trkpt lat="48.89734" lon="2.38662">
        <ele>104.79</ele>
        <time>2020-03-13T22:03:55.000Z</time>
      </trkpt>
      <trkpt lat="48.89732" lon="2.38672">
        <ele>104.78</ele>
        <time>2020-03-13T22:03:57.000Z</time>
      </trkpt>
      <trkpt lat="48.89733" lon="2.38678">
        <ele>104.78</ele>
        <time>2020-03-13T22:03:58.000Z</time>
      </trkpt>
      <trkpt lat="48.89733" lon="2.38684">
        <ele>104.77</ele>
        <time>2020-03-13T22:03:59.000Z</time>
      </trkpt>
      <trkpt lat="48.89733" lon="2.38695">
        <ele>104.7</ele>
        <time>2020-03-13T22:04:01.000Z</time>
      </trkpt>
      <trkpt lat="48.89734" lon="2.38701">
        <ele>104.66</ele>
        <time>2020-03-13T22:04:02.000Z</time>
      </trkpt>
      <trkpt lat="48.89734" lon="2.38707">
        <ele>104.62</ele>
        <time>2020-03-13T22:04:03.000Z</time>
      </trkpt>
      <trkpt lat="48.89734" lon="2.38714">
        <ele>104.59</ele>
        <time>2020-03-13T22:04:04.000Z</time>
      </trkpt>
      <trkpt lat="48.89735" lon="2.38721">
        <ele>104.56</ele>
        <time>2020-03-13T22:04:05.000Z</time>
      </trkpt>
      <trkpt lat="48.89735" lon="2.38728">
        <ele>104.52</ele>
        <time>2020-03-13T22:04:06.000Z</time>
      </trkpt>
      <trkpt lat="48.89735" lon="2.38733">
        <ele>104.5</ele>
        <time>2020-03-13T22:04:07.000Z</time>
      </trkpt>
      <trkpt lat="48.89735" lon="2.38739">
        <ele>104.49</ele>
        <time>2020-03-13T22:04:08.000Z</time>
      </trkpt>
      <trkpt lat="48.89735" lon="2.38745">
        <ele>104.49</ele>
        <time>2020-03-13T22:04:09.000Z</time>
      </trkpt>
      <trkpt lat="48.89735" lon="2.3875">
        <ele>104.49</ele>
        <time>2020-03-13T22:04:10.000Z</time>
      </trkpt>
      <trkpt lat="48.89736" lon="2.38755">
        <ele>104.48</ele>
        <time>2020-03-13T22:04:11.000Z</time>
      </trkpt>
      <trkpt lat="48.89736" lon="2.3876">
        <ele>104.48</ele>
        <time>2020-03-13T22:04:12.000Z</time>
      </trkpt>
      <trkpt lat="48.89736" lon="2.38765">
        <ele>104.43</ele>
        <time>2020-03-13T22:04:13.000Z</time>
      </trkpt>
      <trkpt lat="48.89736" lon="2.38771">
        <ele>104.42</ele>
        <time>2020-03-13T22:04:14.000Z</time>
      </trkpt>
      <trkpt lat="48.89736" lon="2.38776">
        <ele>104.42</ele>
        <time>2020-03-13T22:04:15.000Z</time>
      </trkpt>
      <trkpt lat="48.89735" lon="2.38788">
        <ele>104.34</ele>
        <time>2020-03-13T22:04:17.000Z</time>
      </trkpt>
      <trkpt lat="48.89736" lon="2.38793">
        <ele>104.31</ele>
        <time>2020-03-13T22:04:18.000Z</time>
      </trkpt>
      <trkpt lat="48.89736" lon="2.38799">
        <ele>104.29</ele>
        <time>2020-03-13T22:04:19.000Z</time>
      </trkpt>
      <trkpt lat="48.89736" lon="2.38805">
        <ele>104.27</ele>
        <time>2020-03-13T22:04:20.000Z</time>
      </trkpt>
      <trkpt lat="48.89737" lon="2.3881">
        <ele>104.26</ele>
        <time>2020-03-13T22:04:21.000Z</time>
      </trkpt>
      <trkpt lat="48.89738" lon="2.38816">
        <ele>104.26</ele>
        <time>2020-03-13T22:04:22.000Z</time>
      </trkpt>
      <trkpt lat="48.89738" lon="2.38821">
        <ele>104.26</ele>
        <time>2020-03-13T22:04:23.000Z</time>
      </trkpt>
      <trkpt lat="48.89738" lon="2.38826">
        <ele>104.26</ele>
        <time>2020-03-13T22:04:24.000Z</time>
      </trkpt>
      <trkpt lat="48.89739" lon="2.3883">
        <ele>104.26</ele>
        <time>2020-03-13T22:04:25.000Z</time>
      </trkpt>
      <trkpt lat="48.89739" lon="2.38835">
        <ele>104.25</ele>
        <time>2020-03-13T22:04:26.000Z</time>
      </trkpt>
      <trkpt lat="48.89739" lon="2.38839">
        <ele>104.25</ele>
        <time>2020-03-13T22:04:27.000Z</time>
      </trkpt>
      <trkpt lat="48.89739" lon="2.38844">
        <ele>104.25</ele>
        <time>2020-03-13T22:04:28.000Z</time>
      </trkpt>
      <trkpt lat="48.8974" lon="2.38849">
        <ele>104.25</ele>
        <time>2020-03-13T22:04:29.000Z</time>
      </trkpt>
      <trkpt lat="48.8974" lon="2.38859">
        <ele>104.24</ele>
        <time>2020-03-13T22:04:31.000Z</time>
      </trkpt>
      <trkpt lat="48.8974" lon="2.38865">
        <ele>104.24</ele>
        <time>2020-03-13T22:04:32.000Z</time>
      </trkpt>
      <trkpt lat="48.8974" lon="2.3887">
        <ele>104.24</ele>
        <time>2020-03-13T22:04:33.000Z</time>
      </trkpt>
      <trkpt lat="48.8974" lon="2.38876">
        <ele>104.24</ele>
        <time>2020-03-13T22:04:34.000Z</time>
      </trkpt>
      <trkpt lat="48.8974" lon="2.38881">
        <ele>104.23</ele>
        <time>2020-03-13T22:04:35.000Z</time>
      </trkpt>
      <trkpt lat="48.8974" lon="2.38892">
        <ele>104.22</ele>
        <time>2020-03-13T22:04:37.000Z</time>
      </trkpt>
      <trkpt lat="48.8974" lon="2.38897">
        <ele>104.22</ele>
        <time>2020-03-13T22:04:38.000Z</time>
      </trkpt>
      <trkpt lat="48.89739" lon="2.38911">
        <ele>104.21</ele>
        <time>2020-03-13T22:04:41.000Z</time>
      </trkpt>
      <trkpt lat="48.8974" lon="2.38916">
        <ele>104.16</ele>
        <time>2020-03-13T22:04:42.000Z</time>
      </trkpt>
      <trkpt lat="48.89739" lon="2.38929">
        <ele>104.1</ele>
        <time>2020-03-13T22:04:44.000Z</time>
      </trkpt>
      <trkpt lat="48.89739" lon="2.38936">
        <ele>104.07</ele>
        <time>2020-03-13T22:04:45.000Z</time>
      </trkpt>
      <trkpt lat="48.89739" lon="2.38943">
        <ele>104.05</ele>
        <time>2020-03-13T22:04:46.000Z</time>
      </trkpt>
      <trkpt lat="48.89738" lon="2.3895">
        <ele>104.04</ele>
        <time>2020-03-13T22:04:47.000Z</time>
      </trkpt>
      <trkpt lat="48.89738" lon="2.38957">
        <ele>104.02</ele>
        <time>2020-03-13T22:04:48.000Z</time>
      </trkpt>
      <trkpt lat="48.89738" lon="2.38965">
        <ele>104.01</ele>
        <time>2020-03-13T22:04:49.000Z</time>
      </trkpt>
      <trkpt lat="48.89737" lon="2.38972">
        <ele>104</ele>
        <time>2020-03-13T22:04:50.000Z</time>
      </trkpt>
      <trkpt lat="48.89737" lon="2.38979">
        <ele>103.99</ele>
        <time>2020-03-13T22:04:51.000Z</time>
      </trkpt>
      <trkpt lat="48.89736" lon="2.38994">
        <ele>103.97</ele>
        <time>2020-03-13T22:04:53.000Z</time>
      </trkpt>
      <trkpt lat="48.89734" lon="2.39009">
        <ele>103.95</ele>
        <time>2020-03-13T22:04:55.000Z</time>
      </trkpt>
      <trkpt lat="48.89734" lon="2.39016">
        <ele>103.94</ele>
        <time>2020-03-13T22:04:56.000Z</time>
      </trkpt>
      <trkpt lat="48.89733" lon="2.39024">
        <ele>103.93</ele>
        <time>2020-03-13T22:04:57.000Z</time>
      </trkpt>
      <trkpt lat="48.89732" lon="2.39031">
        <ele>103.93</ele>
        <time>2020-03-13T22:04:58.000Z</time>
      </trkpt>
      <trkpt lat="48.89731" lon="2.39039">
        <ele>103.92</ele>
        <time>2020-03-13T22:04:59.000Z</time>
      </trkpt>
      <trkpt lat="48.89731" lon="2.39046">
        <ele>103.92</ele>
        <time>2020-03-13T22:05:00.000Z</time>
      </trkpt>
      <trkpt lat="48.89729" lon="2.39061">
        <ele>103.92</ele>
        <time>2020-03-13T22:05:02.000Z</time>
      </trkpt>
      <trkpt lat="48.89728" lon="2.39068">
        <ele>103.92</ele>
        <time>2020-03-13T22:05:03.000Z</time>
      </trkpt>
      <trkpt lat="48.89728" lon="2.39075">
        <ele>103.92</ele>
        <time>2020-03-13T22:05:04.000Z</time>
      </trkpt>
      <trkpt lat="48.89727" lon="2.39081">
        <ele>103.92</ele>
        <time>2020-03-13T22:05:05.000Z</time>
      </trkpt>
      <trkpt lat="48.89725" lon="2.39087">
        <ele>103.92</ele>
        <time>2020-03-13T22:05:06.000Z</time>
      </trkpt>
      <trkpt lat="48.89724" lon="2.39093">
        <ele>103.92</ele>
        <time>2020-03-13T22:05:07.000Z</time>
      </trkpt>
      <trkpt lat="48.89723" lon="2.391">
        <ele>103.93</ele>
        <time>2020-03-13T22:05:08.000Z</time>
      </trkpt>
      <trkpt lat="48.89722" lon="2.39106">
        <ele>103.93</ele>
        <time>2020-03-13T22:05:09.000Z</time>
      </trkpt>
      <trkpt lat="48.89721" lon="2.39113">
        <ele>103.93</ele>
        <time>2020-03-13T22:05:10.000Z</time>
      </trkpt>
      <trkpt lat="48.89719" lon="2.39118">
        <ele>103.93</ele>
        <time>2020-03-13T22:05:11.000Z</time>
      </trkpt>
      <trkpt lat="48.89718" lon="2.39123">
        <ele>103.93</ele>
        <time>2020-03-13T22:05:12.000Z</time>
      </trkpt>
      <trkpt lat="48.89716" lon="2.39129">
        <ele>103.94</ele>
        <time>2020-03-13T22:05:13.000Z</time>
      </trkpt>
      <trkpt lat="48.89715" lon="2.39134">
        <ele>103.94</ele>
        <time>2020-03-13T22:05:14.000Z</time>
      </trkpt>
      <trkpt lat="48.89714" lon="2.39139">
        <ele>103.94</ele>
        <time>2020-03-13T22:05:15.000Z</time>
      </trkpt>
      <trkpt lat="48.89713" lon="2.39144">
        <ele>103.94</ele>
        <time>2020-03-13T22:05:16.000Z</time>
      </trkpt>
      <trkpt lat="48.89712" lon="2.39148">
        <ele>103.94</ele>
        <time>2020-03-13T22:05:17.000Z</time>
      </trkpt>
      <trkpt lat="48.89711" lon="2.39152">
        <ele>103.94</ele>
        <time>2020-03-13T22:05:18.000Z</time>
      </trkpt>
      <trkpt lat="48.89709" lon="2.39156">
        <ele>103.94</ele>
        <time>2020-03-13T22:05:19.000Z</time>
      </trkpt>
      <trkpt lat="48.89708" lon="2.39161">
        <ele>103.94</ele>
        <time>2020-03-13T22:05:20.000Z</time>
      </trkpt>
      <trkpt lat="48.89707" lon="2.39165">
        <ele>103.94</ele>
        <time>2020-03-13T22:05:21.000Z</time>
      </trkpt>
      <trkpt lat="48.89706" lon="2.3917">
        <ele>103.94</ele>
        <time>2020-03-13T22:05:22.000Z</time>
      </trkpt>
      <trkpt lat="48.89705" lon="2.39174">
        <ele>103.94</ele>
        <time>2020-03-13T22:05:23.000Z</time>
      </trkpt>
      <trkpt lat="48.89703" lon="2.39179">
        <ele>103.94</ele>
        <time>2020-03-13T22:05:24.000Z</time>
      </trkpt>
      <trkpt lat="48.89702" lon="2.39183">
        <ele>103.95</ele>
        <time>2020-03-13T22:05:25.000Z</time>
      </trkpt>
      <trkpt lat="48.89701" lon="2.39187">
        <ele>103.95</ele>
        <time>2020-03-13T22:05:26.000Z</time>
      </trkpt>
      <trkpt lat="48.897" lon="2.39192">
        <ele>103.95</ele>
        <time>2020-03-13T22:05:27.000Z</time>
      </trkpt>
      <trkpt lat="48.89698" lon="2.39196">
        <ele>103.95</ele>
        <time>2020-03-13T22:05:28.000Z</time>
      </trkpt>
      <trkpt lat="48.89697" lon="2.39201">
        <ele>103.95</ele>
        <time>2020-03-13T22:05:29.000Z</time>
      </trkpt>
      <trkpt lat="48.89696" lon="2.39205">
        <ele>103.95</ele>
        <time>2020-03-13T22:05:30.000Z</time>
      </trkpt>
      <trkpt lat="48.89695" lon="2.3921">
        <ele>103.95</ele>
        <time>2020-03-13T22:05:31.000Z</time>
      </trkpt>
      <trkpt lat="48.89694" lon="2.39215">
        <ele>103.95</ele>
        <time>2020-03-13T22:05:32.000Z</time>
      </trkpt>
      <trkpt lat="48.89692" lon="2.39219">
        <ele>103.95</ele>
        <time>2020-03-13T22:05:33.000Z</time>
      </trkpt>
      <trkpt lat="48.89691" lon="2.39224">
        <ele>103.95</ele>
        <time>2020-03-13T22:05:34.000Z</time>
      </trkpt>
      <trkpt lat="48.89689" lon="2.39229">
        <ele>103.96</ele>
        <time>2020-03-13T22:05:35.000Z</time>
      </trkpt>
      <trkpt lat="48.89688" lon="2.39234">
        <ele>103.96</ele>
        <time>2020-03-13T22:05:36.000Z</time>
      </trkpt>
      <trkpt lat="48.89686" lon="2.39239">
        <ele>103.96</ele>
        <time>2020-03-13T22:05:37.000Z</time>
      </trkpt>
      <trkpt lat="48.89682" lon="2.39249">
        <ele>103.97</ele>
        <time>2020-03-13T22:05:39.000Z</time>
      </trkpt>
      <trkpt lat="48.89679" lon="2.39255">
        <ele>103.98</ele>
        <time>2020-03-13T22:05:40.000Z</time>
      </trkpt>
      <trkpt lat="48.89677" lon="2.3926">
        <ele>103.99</ele>
        <time>2020-03-13T22:05:41.000Z</time>
      </trkpt>
      <trkpt lat="48.89675" lon="2.39264">
        <ele>103.99</ele>
        <time>2020-03-13T22:05:42.000Z</time>
      </trkpt>
      <trkpt lat="48.89673" lon="2.39269">
        <ele>103.99</ele>
        <time>2020-03-13T22:05:43.000Z</time>
      </trkpt>
      <trkpt lat="48.89671" lon="2.39273">
        <ele>103.99</ele>
        <time>2020-03-13T22:05:44.000Z</time>
      </trkpt>
      <trkpt lat="48.89669" lon="2.39277">
        <ele>103.99</ele>
        <time>2020-03-13T22:05:45.000Z</time>
      </trkpt>
      <trkpt lat="48.89666" lon="2.39282">
        <ele>103.99</ele>
        <time>2020-03-13T22:05:46.000Z</time>
      </trkpt>
      <trkpt lat="48.89664" lon="2.39286">
        <ele>103.99</ele>
        <time>2020-03-13T22:05:47.000Z</time>
      </trkpt>
      <trkpt lat="48.89662" lon="2.3929">
        <ele>103.99</ele>
        <time>2020-03-13T22:05:48.000Z</time>
      </trkpt>
      <trkpt lat="48.8966" lon="2.39294">
        <ele>103.99</ele>
        <time>2020-03-13T22:05:49.000Z</time>
      </trkpt>
      <trkpt lat="48.89658" lon="2.39297">
        <ele>103.99</ele>
        <time>2020-03-13T22:05:50.000Z</time>
      </trkpt>
      <trkpt lat="48.89655" lon="2.393">
        <ele>103.99</ele>
        <time>2020-03-13T22:05:51.000Z</time>
      </trkpt>
      <trkpt lat="48.89653" lon="2.39304">
        <ele>103.99</ele>
        <time>2020-03-13T22:05:52.000Z</time>
      </trkpt>
      <trkpt lat="48.8965" lon="2.39307">
        <ele>103.99</ele>
        <time>2020-03-13T22:05:53.000Z</time>
      </trkpt>
      <trkpt lat="48.89648" lon="2.3931">
        <ele>103.99</ele>
        <time>2020-03-13T22:05:54.000Z</time>
      </trkpt>
      <trkpt lat="48.89645" lon="2.39313">
        <ele>103.99</ele>
        <time>2020-03-13T22:05:55.000Z</time>
      </trkpt>
      <trkpt lat="48.89643" lon="2.39316">
        <ele>103.99</ele>
        <time>2020-03-13T22:05:56.000Z</time>
      </trkpt>
      <trkpt lat="48.8964" lon="2.39319">
        <ele>103.99</ele>
        <time>2020-03-13T22:05:57.000Z</time>
      </trkpt>
      <trkpt lat="48.89638" lon="2.39322">
        <ele>103.99</ele>
        <time>2020-03-13T22:05:58.000Z</time>
      </trkpt>
      <trkpt lat="48.89636" lon="2.39324">
        <ele>103.99</ele>
        <time>2020-03-13T22:05:59.000Z</time>
      </trkpt>
      <trkpt lat="48.89634" lon="2.39327">
        <ele>103.99</ele>
        <time>2020-03-13T22:06:00.000Z</time>
      </trkpt>
      <trkpt lat="48.89632" lon="2.39329">
        <ele>103.99</ele>
        <time>2020-03-13T22:06:01.000Z</time>
      </trkpt>
      <trkpt lat="48.8963" lon="2.39331">
        <ele>103.99</ele>
        <time>2020-03-13T22:06:02.000Z</time>
      </trkpt>
      <trkpt lat="48.89628" lon="2.39333">
        <ele>104</ele>
        <time>2020-03-13T22:06:03.000Z</time>
      </trkpt>
      <trkpt lat="48.89626" lon="2.39335">
        <ele>104</ele>
        <time>2020-03-13T22:06:04.000Z</time>
      </trkpt>
      <trkpt lat="48.89623" lon="2.39337">
        <ele>104</ele>
        <time>2020-03-13T22:06:05.000Z</time>
      </trkpt>
      <trkpt lat="48.89621" lon="2.3934">
        <ele>104</ele>
        <time>2020-03-13T22:06:06.000Z</time>
      </trkpt>
      <trkpt lat="48.89619" lon="2.39343">
        <ele>104</ele>
        <time>2020-03-13T22:06:07.000Z</time>
      </trkpt>
      <trkpt lat="48.89617" lon="2.39345">
        <ele>104</ele>
        <time>2020-03-13T22:06:08.000Z</time>
      </trkpt>
      <trkpt lat="48.89614" lon="2.39347">
        <ele>104.01</ele>
        <time>2020-03-13T22:06:09.000Z</time>
      </trkpt>
      <trkpt lat="48.89612" lon="2.39349">
        <ele>104.01</ele>
        <time>2020-03-13T22:06:10.000Z</time>
      </trkpt>
      <trkpt lat="48.89609" lon="2.39351">
        <ele>104.01</ele>
        <time>2020-03-13T22:06:11.000Z</time>
      </trkpt>
      <trkpt lat="48.89607" lon="2.39353">
        <ele>104.01</ele>
        <time>2020-03-13T22:06:12.000Z</time>
      </trkpt>
      <trkpt lat="48.89604" lon="2.39356">
        <ele>104.02</ele>
        <time>2020-03-13T22:06:13.000Z</time>
      </trkpt>
      <trkpt lat="48.89601" lon="2.39358">
        <ele>104.02</ele>
        <time>2020-03-13T22:06:14.000Z</time>
      </trkpt>
      <trkpt lat="48.89598" lon="2.3936">
        <ele>104.02</ele>
        <time>2020-03-13T22:06:15.000Z</time>
      </trkpt>
      <trkpt lat="48.89594" lon="2.39363">
        <ele>104.02</ele>
        <time>2020-03-13T22:06:16.000Z</time>
      </trkpt>
      <trkpt lat="48.89591" lon="2.39365">
        <ele>104.02</ele>
        <time>2020-03-13T22:06:17.000Z</time>
      </trkpt>
      <trkpt lat="48.89588" lon="2.39368">
        <ele>104.03</ele>
        <time>2020-03-13T22:06:18.000Z</time>
      </trkpt>
      <trkpt lat="48.89585" lon="2.3937">
        <ele>104.03</ele>
        <time>2020-03-13T22:06:19.000Z</time>
      </trkpt>
      <trkpt lat="48.89582" lon="2.39372">
        <ele>104.03</ele>
        <time>2020-03-13T22:06:20.000Z</time>
      </trkpt>
      <trkpt lat="48.8958" lon="2.39374">
        <ele>104.03</ele>
        <time>2020-03-13T22:06:21.000Z</time>
      </trkpt>
      <trkpt lat="48.89576" lon="2.39376">
        <ele>104.04</ele>
        <time>2020-03-13T22:06:22.000Z</time>
      </trkpt>
      <trkpt lat="48.89573" lon="2.39377">
        <ele>104.04</ele>
        <time>2020-03-13T22:06:23.000Z</time>
      </trkpt>
      <trkpt lat="48.8957" lon="2.39379">
        <ele>104.04</ele>
        <time>2020-03-13T22:06:24.000Z</time>
      </trkpt>
      <trkpt lat="48.89566" lon="2.3938">
        <ele>104.05</ele>
        <time>2020-03-13T22:06:25.000Z</time>
      </trkpt>
      <trkpt lat="48.89563" lon="2.39382">
        <ele>104.05</ele>
        <time>2020-03-13T22:06:26.000Z</time>
      </trkpt>
      <trkpt lat="48.8956" lon="2.39384">
        <ele>104.05</ele>
        <time>2020-03-13T22:06:27.000Z</time>
      </trkpt>
      <trkpt lat="48.89557" lon="2.39386">
        <ele>104.06</ele>
        <time>2020-03-13T22:06:28.000Z</time>
      </trkpt>
      <trkpt lat="48.89552" lon="2.39389">
        <ele>104.06</ele>
        <time>2020-03-13T22:06:29.000Z</time>
      </trkpt>
      <trkpt lat="48.89549" lon="2.39392">
        <ele>104.07</ele>
        <time>2020-03-13T22:06:30.000Z</time>
      </trkpt>
      <trkpt lat="48.89545" lon="2.39394">
        <ele>104.08</ele>
        <time>2020-03-13T22:06:31.000Z</time>
      </trkpt>
      <trkpt lat="48.89541" lon="2.39397">
        <ele>104.09</ele>
        <time>2020-03-13T22:06:32.000Z</time>
      </trkpt>
      <trkpt lat="48.89538" lon="2.39399">
        <ele>104.1</ele>
        <time>2020-03-13T22:06:33.000Z</time>
      </trkpt>
      <trkpt lat="48.89535" lon="2.394">
        <ele>104.11</ele>
        <time>2020-03-13T22:06:34.000Z</time>
      </trkpt>
      <trkpt lat="48.89531" lon="2.39402">
        <ele>104.21</ele>
        <time>2020-03-13T22:06:35.000Z</time>
      </trkpt>
      <trkpt lat="48.89527" lon="2.39405">
        <ele>104.3</ele>
        <time>2020-03-13T22:06:36.000Z</time>
      </trkpt>
      <trkpt lat="48.89523" lon="2.39407">
        <ele>104.38</ele>
        <time>2020-03-13T22:06:37.000Z</time>
      </trkpt>
      <trkpt lat="48.89519" lon="2.39409">
        <ele>104.44</ele>
        <time>2020-03-13T22:06:38.000Z</time>
      </trkpt>
      <trkpt lat="48.89515" lon="2.39411">
        <ele>104.49</ele>
        <time>2020-03-13T22:06:39.000Z</time>
      </trkpt>
      <trkpt lat="48.89512" lon="2.39412">
        <ele>104.5</ele>
        <time>2020-03-13T22:06:40.000Z</time>
      </trkpt>
      <trkpt lat="48.89508" lon="2.39413">
        <ele>104.5</ele>
        <time>2020-03-13T22:06:41.000Z</time>
      </trkpt>
      <trkpt lat="48.89504" lon="2.39414">
        <ele>104.51</ele>
        <time>2020-03-13T22:06:42.000Z</time>
      </trkpt>
      <trkpt lat="48.89501" lon="2.39415">
        <ele>104.51</ele>
        <time>2020-03-13T22:06:43.000Z</time>
      </trkpt>
      <trkpt lat="48.89497" lon="2.39416">
        <ele>104.57</ele>
        <time>2020-03-13T22:06:44.000Z</time>
      </trkpt>
      <trkpt lat="48.89493" lon="2.39418">
        <ele>104.62</ele>
        <time>2020-03-13T22:06:45.000Z</time>
      </trkpt>
      <trkpt lat="48.89488" lon="2.39419">
        <ele>104.66</ele>
        <time>2020-03-13T22:06:46.000Z</time>
      </trkpt>
      <trkpt lat="48.89484" lon="2.3942">
        <ele>104.69</ele>
        <time>2020-03-13T22:06:47.000Z</time>
      </trkpt>
      <trkpt lat="48.89479" lon="2.39421">
        <ele>104.72</ele>
        <time>2020-03-13T22:06:48.000Z</time>
      </trkpt>
      <trkpt lat="48.89475" lon="2.39423">
        <ele>104.75</ele>
        <time>2020-03-13T22:06:49.000Z</time>
      </trkpt>
      <trkpt lat="48.8947" lon="2.39424">
        <ele>104.78</ele>
        <time>2020-03-13T22:06:50.000Z</time>
      </trkpt>
      <trkpt lat="48.89466" lon="2.39425">
        <ele>104.81</ele>
        <time>2020-03-13T22:06:51.000Z</time>
      </trkpt>
      <trkpt lat="48.89461" lon="2.39426">
        <ele>104.84</ele>
        <time>2020-03-13T22:06:52.000Z</time>
      </trkpt>
      <trkpt lat="48.89457" lon="2.39427">
        <ele>104.86</ele>
        <time>2020-03-13T22:06:53.000Z</time>
      </trkpt>
      <trkpt lat="48.89453" lon="2.39428">
        <ele>104.88</ele>
        <time>2020-03-13T22:06:54.000Z</time>
      </trkpt>
      <trkpt lat="48.89448" lon="2.39428">
        <ele>104.9</ele>
        <time>2020-03-13T22:06:55.000Z</time>
      </trkpt>
      <trkpt lat="48.89443" lon="2.39429">
        <ele>104.91</ele>
        <time>2020-03-13T22:06:56.000Z</time>
      </trkpt>
      <trkpt lat="48.89438" lon="2.3943">
        <ele>104.93</ele>
        <time>2020-03-13T22:06:57.000Z</time>
      </trkpt>
      <trkpt lat="48.89433" lon="2.39431">
        <ele>104.95</ele>
        <time>2020-03-13T22:06:58.000Z</time>
      </trkpt>
      <trkpt lat="48.89427" lon="2.39432">
        <ele>104.97</ele>
        <time>2020-03-13T22:06:59.000Z</time>
      </trkpt>
      <trkpt lat="48.89422" lon="2.39433">
        <ele>104.99</ele>
        <time>2020-03-13T22:07:00.000Z</time>
      </trkpt>
      <trkpt lat="48.89416" lon="2.39434">
        <ele>105</ele>
        <time>2020-03-13T22:07:01.000Z</time>
      </trkpt>
      <trkpt lat="48.89411" lon="2.39435">
        <ele>105.01</ele>
        <time>2020-03-13T22:07:02.000Z</time>
      </trkpt>
      <trkpt lat="48.89406" lon="2.39436">
        <ele>105.02</ele>
        <time>2020-03-13T22:07:03.000Z</time>
      </trkpt>
      <trkpt lat="48.894" lon="2.39436">
        <ele>105.03</ele>
        <time>2020-03-13T22:07:04.000Z</time>
      </trkpt>
      <trkpt lat="48.89395" lon="2.39437">
        <ele>105.04</ele>
        <time>2020-03-13T22:07:05.000Z</time>
      </trkpt>
      <trkpt lat="48.8939" lon="2.39439">
        <ele>105.04</ele>
        <time>2020-03-13T22:07:06.000Z</time>
      </trkpt>
      <trkpt lat="48.89384" lon="2.3944">
        <ele>105.05</ele>
        <time>2020-03-13T22:07:07.000Z</time>
      </trkpt>
      <trkpt lat="48.89378" lon="2.39441">
        <ele>105.04</ele>
        <time>2020-03-13T22:07:08.000Z</time>
      </trkpt>
      <trkpt lat="48.89373" lon="2.39442">
        <ele>105.03</ele>
        <time>2020-03-13T22:07:09.000Z</time>
      </trkpt>
      <trkpt lat="48.89368" lon="2.39443">
        <ele>105.03</ele>
        <time>2020-03-13T22:07:10.000Z</time>
      </trkpt>
      <trkpt lat="48.89363" lon="2.39445">
        <ele>105.03</ele>
        <time>2020-03-13T22:07:11.000Z</time>
      </trkpt>
      <trkpt lat="48.89358" lon="2.39446">
        <ele>105.03</ele>
        <time>2020-03-13T22:07:12.000Z</time>
      </trkpt>
      <trkpt lat="48.89352" lon="2.39447">
        <ele>105.03</ele>
        <time>2020-03-13T22:07:13.000Z</time>
      </trkpt>
      <trkpt lat="48.89346" lon="2.3945">
        <ele>105.03</ele>
        <time>2020-03-13T22:07:14.000Z</time>
      </trkpt>
      <trkpt lat="48.8934" lon="2.39451">
        <ele>105.04</ele>
        <time>2020-03-13T22:07:15.000Z</time>
      </trkpt>
      <trkpt lat="48.89335" lon="2.39453">
        <ele>105.04</ele>
        <time>2020-03-13T22:07:16.000Z</time>
      </trkpt>
      <trkpt lat="48.8933" lon="2.39454">
        <ele>105.04</ele>
        <time>2020-03-13T22:07:17.000Z</time>
      </trkpt>
      <trkpt lat="48.89325" lon="2.39455">
        <ele>105.04</ele>
        <time>2020-03-13T22:07:18.000Z</time>
      </trkpt>
      <trkpt lat="48.89319" lon="2.39456">
        <ele>105.04</ele>
        <time>2020-03-13T22:07:19.000Z</time>
      </trkpt>
      <trkpt lat="48.89313" lon="2.39457">
        <ele>105.05</ele>
        <time>2020-03-13T22:07:20.000Z</time>
      </trkpt>
      <trkpt lat="48.89308" lon="2.39458">
        <ele>105.05</ele>
        <time>2020-03-13T22:07:21.000Z</time>
      </trkpt>
      <trkpt lat="48.89303" lon="2.39459">
        <ele>105.05</ele>
        <time>2020-03-13T22:07:22.000Z</time>
      </trkpt>
      <trkpt lat="48.89298" lon="2.3946">
        <ele>105.06</ele>
        <time>2020-03-13T22:07:23.000Z</time>
      </trkpt>
      <trkpt lat="48.89293" lon="2.39461">
        <ele>105.06</ele>
        <time>2020-03-13T22:07:24.000Z</time>
      </trkpt>
      <trkpt lat="48.89288" lon="2.39462">
        <ele>105.06</ele>
        <time>2020-03-13T22:07:25.000Z</time>
      </trkpt>
      <trkpt lat="48.89283" lon="2.39463">
        <ele>105.06</ele>
        <time>2020-03-13T22:07:26.000Z</time>
      </trkpt>
      <trkpt lat="48.89278" lon="2.39465">
        <ele>105.06</ele>
        <time>2020-03-13T22:07:27.000Z</time>
      </trkpt>
      <trkpt lat="48.89274" lon="2.39467">
        <ele>105.06</ele>
        <time>2020-03-13T22:07:28.000Z</time>
      </trkpt>
      <trkpt lat="48.89269" lon="2.39469">
        <ele>105.06</ele>
        <time>2020-03-13T22:07:29.000Z</time>
      </trkpt>
      <trkpt lat="48.89265" lon="2.39472">
        <ele>105.06</ele>
        <time>2020-03-13T22:07:30.000Z</time>
      </trkpt>
      <trkpt lat="48.89261" lon="2.39474">
        <ele>105.06</ele>
        <time>2020-03-13T22:07:31.000Z</time>
      </trkpt>
      <trkpt lat="48.89256" lon="2.39476">
        <ele>105.06</ele>
        <time>2020-03-13T22:07:32.000Z</time>
      </trkpt>
      <trkpt lat="48.89251" lon="2.39477">
        <ele>105.06</ele>
        <time>2020-03-13T22:07:33.000Z</time>
      </trkpt>
      <trkpt lat="48.89246" lon="2.39479">
        <ele>105.05</ele>
        <time>2020-03-13T22:07:34.000Z</time>
      </trkpt>
      <trkpt lat="48.89241" lon="2.39481">
        <ele>105.05</ele>
        <time>2020-03-13T22:07:35.000Z</time>
      </trkpt>
      <trkpt lat="48.89235" lon="2.39483">
        <ele>105.05</ele>
        <time>2020-03-13T22:07:36.000Z</time>
      </trkpt>
      <trkpt lat="48.8923" lon="2.39485">
        <ele>105.04</ele>
        <time>2020-03-13T22:07:37.000Z</time>
      </trkpt>
      <trkpt lat="48.89224" lon="2.39486">
        <ele>105.04</ele>
        <time>2020-03-13T22:07:38.000Z</time>
      </trkpt>
      <trkpt lat="48.89218" lon="2.39487">
        <ele>105.04</ele>
        <time>2020-03-13T22:07:39.000Z</time>
      </trkpt>
      <trkpt lat="48.89213" lon="2.39487">
        <ele>105.03</ele>
        <time>2020-03-13T22:07:40.000Z</time>
      </trkpt>
      <trkpt lat="48.89208" lon="2.39488">
        <ele>105.03</ele>
        <time>2020-03-13T22:07:41.000Z</time>
      </trkpt>
      <trkpt lat="48.89202" lon="2.39489">
        <ele>105.02</ele>
        <time>2020-03-13T22:07:42.000Z</time>
      </trkpt>
      <trkpt lat="48.89197" lon="2.3949">
        <ele>105.01</ele>
        <time>2020-03-13T22:07:43.000Z</time>
      </trkpt>
      <trkpt lat="48.89191" lon="2.39493">
        <ele>105.01</ele>
        <time>2020-03-13T22:07:44.000Z</time>
      </trkpt>
      <trkpt lat="48.89186" lon="2.39495">
        <ele>105</ele>
        <time>2020-03-13T22:07:45.000Z</time>
      </trkpt>
      <trkpt lat="48.8918" lon="2.39496">
        <ele>104.99</ele>
        <time>2020-03-13T22:07:46.000Z</time>
      </trkpt>
      <trkpt lat="48.89175" lon="2.39497">
        <ele>104.99</ele>
        <time>2020-03-13T22:07:47.000Z</time>
      </trkpt>
      <trkpt lat="48.89171" lon="2.39498">
        <ele>104.98</ele>
        <time>2020-03-13T22:07:48.000Z</time>
      </trkpt>
      <trkpt lat="48.89165" lon="2.39499">
        <ele>104.98</ele>
        <time>2020-03-13T22:07:49.000Z</time>
      </trkpt>
      <trkpt lat="48.8916" lon="2.39501">
        <ele>104.98</ele>
        <time>2020-03-13T22:07:50.000Z</time>
      </trkpt>
      <trkpt lat="48.89154" lon="2.39502">
        <ele>104.98</ele>
        <time>2020-03-13T22:07:51.000Z</time>
      </trkpt>
      <trkpt lat="48.89149" lon="2.39503">
        <ele>104.97</ele>
        <time>2020-03-13T22:07:52.000Z</time>
      </trkpt>
      <trkpt lat="48.89143" lon="2.39505">
        <ele>104.97</ele>
        <time>2020-03-13T22:07:53.000Z</time>
      </trkpt>
      <trkpt lat="48.89137" lon="2.39506">
        <ele>104.97</ele>
        <time>2020-03-13T22:07:54.000Z</time>
      </trkpt>
      <trkpt lat="48.89131" lon="2.39507">
        <ele>104.97</ele>
        <time>2020-03-13T22:07:55.000Z</time>
      </trkpt>
      <trkpt lat="48.89126" lon="2.39508">
        <ele>104.96</ele>
        <time>2020-03-13T22:07:56.000Z</time>
      </trkpt>
      <trkpt lat="48.89121" lon="2.39509">
        <ele>104.96</ele>
        <time>2020-03-13T22:07:57.000Z</time>
      </trkpt>
      <trkpt lat="48.89115" lon="2.3951">
        <ele>104.95</ele>
        <time>2020-03-13T22:07:58.000Z</time>
      </trkpt>
      <trkpt lat="48.8911" lon="2.39511">
        <ele>104.95</ele>
        <time>2020-03-13T22:07:59.000Z</time>
      </trkpt>
      <trkpt lat="48.89104" lon="2.39512">
        <ele>104.95</ele>
        <time>2020-03-13T22:08:00.000Z</time>
      </trkpt>
      <trkpt lat="48.89098" lon="2.39513">
        <ele>104.95</ele>
        <time>2020-03-13T22:08:01.000Z</time>
      </trkpt>
      <trkpt lat="48.89092" lon="2.39515">
        <ele>104.94</ele>
        <time>2020-03-13T22:08:02.000Z</time>
      </trkpt>
      <trkpt lat="48.89086" lon="2.39516">
        <ele>104.93</ele>
        <time>2020-03-13T22:08:03.000Z</time>
      </trkpt>
      <trkpt lat="48.89081" lon="2.39519">
        <ele>104.93</ele>
        <time>2020-03-13T22:08:04.000Z</time>
      </trkpt>
      <trkpt lat="48.89075" lon="2.39522">
        <ele>104.92</ele>
        <time>2020-03-13T22:08:05.000Z</time>
      </trkpt>
      <trkpt lat="48.8907" lon="2.39524">
        <ele>104.92</ele>
        <time>2020-03-13T22:08:06.000Z</time>
      </trkpt>
      <trkpt lat="48.89065" lon="2.39525">
        <ele>104.91</ele>
        <time>2020-03-13T22:08:07.000Z</time>
      </trkpt>
      <trkpt lat="48.8906" lon="2.39527">
        <ele>104.9</ele>
        <time>2020-03-13T22:08:08.000Z</time>
      </trkpt>
      <trkpt lat="48.89055" lon="2.39529">
        <ele>104.87</ele>
        <time>2020-03-13T22:08:09.000Z</time>
      </trkpt>
      <trkpt lat="48.89049" lon="2.39531">
        <ele>104.84</ele>
        <time>2020-03-13T22:08:10.000Z</time>
      </trkpt>
      <trkpt lat="48.89044" lon="2.39534">
        <ele>104.81</ele>
        <time>2020-03-13T22:08:11.000Z</time>
      </trkpt>
      <trkpt lat="48.89039" lon="2.39537">
        <ele>104.78</ele>
        <time>2020-03-13T22:08:12.000Z</time>
      </trkpt>
      <trkpt lat="48.89035" lon="2.3954">
        <ele>104.75</ele>
        <time>2020-03-13T22:08:13.000Z</time>
      </trkpt>
      <trkpt lat="48.89029" lon="2.39542">
        <ele>104.72</ele>
        <time>2020-03-13T22:08:14.000Z</time>
      </trkpt>
      <trkpt lat="48.89024" lon="2.39544">
        <ele>104.69</ele>
        <time>2020-03-13T22:08:15.000Z</time>
      </trkpt>
      <trkpt lat="48.8902" lon="2.39545">
        <ele>104.67</ele>
        <time>2020-03-13T22:08:16.000Z</time>
      </trkpt>
      <trkpt lat="48.89015" lon="2.39547">
        <ele>104.65</ele>
        <time>2020-03-13T22:08:17.000Z</time>
      </trkpt>
      <trkpt lat="48.89011" lon="2.39548">
        <ele>104.63</ele>
        <time>2020-03-13T22:08:18.000Z</time>
      </trkpt>
      <trkpt lat="48.89006" lon="2.3955">
        <ele>104.63</ele>
        <time>2020-03-13T22:08:19.000Z</time>
      </trkpt>
      <trkpt lat="48.89002" lon="2.39552">
        <ele>104.63</ele>
        <time>2020-03-13T22:08:20.000Z</time>
      </trkpt>
      <trkpt lat="48.88999" lon="2.39552">
        <ele>104.62</ele>
        <time>2020-03-13T22:08:21.000Z</time>
      </trkpt>
      <trkpt lat="48.88995" lon="2.39553">
        <ele>104.62</ele>
        <time>2020-03-13T22:08:22.000Z</time>
      </trkpt>
      <trkpt lat="48.88992" lon="2.39553">
        <ele>104.62</ele>
        <time>2020-03-13T22:08:23.000Z</time>
      </trkpt>
      <trkpt lat="48.88989" lon="2.39554">
        <ele>104.62</ele>
        <time>2020-03-13T22:08:24.000Z</time>
      </trkpt>
      <trkpt lat="48.88986" lon="2.39553">
        <ele>104.62</ele>
        <time>2020-03-13T22:08:25.000Z</time>
      </trkpt>
      <trkpt lat="48.88983" lon="2.39553">
        <ele>104.62</ele>
        <time>2020-03-13T22:08:26.000Z</time>
      </trkpt>
      <trkpt lat="48.88981" lon="2.39551">
        <ele>104.62</ele>
        <time>2020-03-13T22:08:27.000Z</time>
      </trkpt>
      <trkpt lat="48.88979" lon="2.3955">
        <ele>104.62</ele>
        <time>2020-03-13T22:08:28.000Z</time>
      </trkpt>
      <trkpt lat="48.88977" lon="2.3955">
        <ele>104.62</ele>
        <time>2020-03-13T22:08:29.000Z</time>
      </trkpt>
      <trkpt lat="48.88975" lon="2.3955">
        <ele>104.62</ele>
        <time>2020-03-13T22:08:30.000Z</time>
      </trkpt>
      <trkpt lat="48.88974" lon="2.39549">
        <ele>104.61</ele>
        <time>2020-03-13T22:08:31.000Z</time>
      </trkpt>
      <trkpt lat="48.88972" lon="2.39548">
        <ele>104.61</ele>
        <time>2020-03-13T22:08:32.000Z</time>
      </trkpt>
      <trkpt lat="48.8897" lon="2.39547">
        <ele>104.61</ele>
        <time>2020-03-13T22:08:33.000Z</time>
      </trkpt>
      <trkpt lat="48.88969" lon="2.39546">
        <ele>104.61</ele>
        <time>2020-03-13T22:08:34.000Z</time>
      </trkpt>
      <trkpt lat="48.88967" lon="2.39545">
        <ele>104.61</ele>
        <time>2020-03-13T22:08:35.000Z</time>
      </trkpt>
      <trkpt lat="48.88966" lon="2.39544">
        <ele>104.61</ele>
        <time>2020-03-13T22:08:36.000Z</time>
      </trkpt>
      <trkpt lat="48.88965" lon="2.39543">
        <ele>104.61</ele>
        <time>2020-03-13T22:08:37.000Z</time>
      </trkpt>
      <trkpt lat="48.88964" lon="2.39542">
        <ele>104.61</ele>
        <time>2020-03-13T22:08:38.000Z</time>
      </trkpt>
      <trkpt lat="48.88962" lon="2.39542">
        <ele>104.61</ele>
        <time>2020-03-13T22:08:40.000Z</time>
      </trkpt>
      <trkpt lat="48.88961" lon="2.39541">
        <ele>104.62</ele>
        <time>2020-03-13T22:08:43.000Z</time>
      </trkpt>
      <trkpt lat="48.88961" lon="2.39539">
        <ele>104.62</ele>
        <time>2020-03-13T22:08:46.000Z</time>
      </trkpt>
      <trkpt lat="48.88962" lon="2.3954">
        <ele>104.7</ele>
        <time>2020-03-13T22:09:26.000Z</time>
      </trkpt>
      <trkpt lat="48.88963" lon="2.3954">
        <ele>104.8</ele>
        <time>2020-03-13T22:09:31.000Z</time>
      </trkpt>
      <trkpt lat="48.88964" lon="2.39536">
        <ele>104.82</ele>
        <time>2020-03-13T22:09:32.000Z</time>
      </trkpt>
      <trkpt lat="48.88964" lon="2.39532">
        <ele>104.84</ele>
        <time>2020-03-13T22:09:33.000Z</time>
      </trkpt>
      <trkpt lat="48.88965" lon="2.3953">
        <ele>104.88</ele>
        <time>2020-03-13T22:09:35.000Z</time>
      </trkpt>
      <trkpt lat="48.88963" lon="2.3953">
        <ele>104.92</ele>
        <time>2020-03-13T22:09:37.000Z</time>
      </trkpt>
      <trkpt lat="48.88962" lon="2.39529">
        <ele>104.95</ele>
        <time>2020-03-13T22:09:46.000Z</time>
      </trkpt>
      <trkpt lat="48.88962" lon="2.39527">
        <ele>104.98</ele>
        <time>2020-03-13T22:09:48.000Z</time>
      </trkpt>
      <trkpt lat="48.88963" lon="2.39528">
        <ele>105.03</ele>
        <time>2020-03-13T22:09:51.000Z</time>
      </trkpt>
      <trkpt lat="48.88964" lon="2.39529">
        <ele>105.06</ele>
        <time>2020-03-13T22:09:53.000Z</time>
      </trkpt>
      <trkpt lat="48.88965" lon="2.39531">
        <ele>105.1</ele>
        <time>2020-03-13T22:09:56.000Z</time>
      </trkpt>
      <trkpt lat="48.88965" lon="2.39531">
        <ele>105.13</ele>
        <time>2020-03-13T22:09:58.000Z</time>
      </trkpt>
      <trkpt lat="48.88966" lon="2.39533">
        <ele>105.17</ele>
        <time>2020-03-13T22:10:14.000Z</time>
      </trkpt>
      <trkpt lat="48.88965" lon="2.39533">
        <ele>105.28</ele>
        <time>2020-03-13T22:10:36.000Z</time>
      </trkpt>
      <trkpt lat="48.88963" lon="2.39533">
        <ele>105.29</ele>
        <time>2020-03-13T22:10:37.000Z</time>
      </trkpt>
      <trkpt lat="48.88961" lon="2.39533">
        <ele>105.31</ele>
        <time>2020-03-13T22:10:38.000Z</time>
      </trkpt>
      <trkpt lat="48.8896" lon="2.39534">
        <ele>105.33</ele>
        <time>2020-03-13T22:10:39.000Z</time>
      </trkpt>
      <trkpt lat="48.88959" lon="2.39535">
        <ele>105.35</ele>
        <time>2020-03-13T22:10:40.000Z</time>
      </trkpt>
      <trkpt lat="48.88958" lon="2.39535">
        <ele>105.36</ele>
        <time>2020-03-13T22:10:41.000Z</time>
      </trkpt>
      <trkpt lat="48.88957" lon="2.39535">
        <ele>105.38</ele>
        <time>2020-03-13T22:10:42.000Z</time>
      </trkpt>
      <trkpt lat="48.88955" lon="2.39535">
        <ele>105.4</ele>
        <time>2020-03-13T22:10:43.000Z</time>
      </trkpt>
      <trkpt lat="48.88954" lon="2.39535">
        <ele>105.42</ele>
        <time>2020-03-13T22:10:44.000Z</time>
      </trkpt>
      <trkpt lat="48.88953" lon="2.39534">
        <ele>105.45</ele>
        <time>2020-03-13T22:10:46.000Z</time>
      </trkpt>
      <trkpt lat="48.88952" lon="2.39534">
        <ele>105.57</ele>
        <time>2020-03-13T22:11:05.000Z</time>
      </trkpt>
      <trkpt lat="48.88951" lon="2.39535">
        <ele>105.6</ele>
        <time>2020-03-13T22:11:07.000Z</time>
      </trkpt>
      <trkpt lat="48.8895" lon="2.39535">
        <ele>105.61</ele>
        <time>2020-03-13T22:11:08.000Z</time>
      </trkpt>
      <trkpt lat="48.88949" lon="2.39535">
        <ele>105.63</ele>
        <time>2020-03-13T22:11:09.000Z</time>
      </trkpt>
      <trkpt lat="48.88948" lon="2.39535">
        <ele>105.66</ele>
        <time>2020-03-13T22:11:11.000Z</time>
      </trkpt>
      <trkpt lat="48.88947" lon="2.39535">
        <ele>105.67</ele>
        <time>2020-03-13T22:11:12.000Z</time>
      </trkpt>
      <trkpt lat="48.88946" lon="2.39535">
        <ele>105.7</ele>
        <time>2020-03-13T22:11:16.000Z</time>
      </trkpt>
      <trkpt lat="48.88943" lon="2.39535">
        <ele>105.72</ele>
        <time>2020-03-13T22:11:18.000Z</time>
      </trkpt>
      <trkpt lat="48.88941" lon="2.39535">
        <ele>105.73</ele>
        <time>2020-03-13T22:11:19.000Z</time>
      </trkpt>
      <trkpt lat="48.88939" lon="2.39536">
        <ele>105.74</ele>
        <time>2020-03-13T22:11:20.000Z</time>
      </trkpt>
      <trkpt lat="48.88937" lon="2.39536">
        <ele>105.75</ele>
        <time>2020-03-13T22:11:21.000Z</time>
      </trkpt>
      <trkpt lat="48.88935" lon="2.39537">
        <ele>105.76</ele>
        <time>2020-03-13T22:11:22.000Z</time>
      </trkpt>
      <trkpt lat="48.88934" lon="2.39537">
        <ele>105.77</ele>
        <time>2020-03-13T22:11:23.000Z</time>
      </trkpt>
      <trkpt lat="48.88931" lon="2.39537">
        <ele>105.78</ele>
        <time>2020-03-13T22:11:24.000Z</time>
      </trkpt>
      <trkpt lat="48.88929" lon="2.39538">
        <ele>105.79</ele>
        <time>2020-03-13T22:11:25.000Z</time>
      </trkpt>
      <trkpt lat="48.88927" lon="2.39538">
        <ele>105.8</ele>
        <time>2020-03-13T22:11:26.000Z</time>
      </trkpt>
      <trkpt lat="48.88925" lon="2.39539">
        <ele>105.81</ele>
        <time>2020-03-13T22:11:27.000Z</time>
      </trkpt>
      <trkpt lat="48.88923" lon="2.39539">
        <ele>105.82</ele>
        <time>2020-03-13T22:11:28.000Z</time>
      </trkpt>
      <trkpt lat="48.8892" lon="2.39539">
        <ele>105.83</ele>
        <time>2020-03-13T22:11:29.000Z</time>
      </trkpt>
      <trkpt lat="48.88918" lon="2.39539">
        <ele>105.84</ele>
        <time>2020-03-13T22:11:30.000Z</time>
      </trkpt>
      <trkpt lat="48.88915" lon="2.3954">
        <ele>105.85</ele>
        <time>2020-03-13T22:11:31.000Z</time>
      </trkpt>
      <trkpt lat="48.88912" lon="2.3954">
        <ele>105.86</ele>
        <time>2020-03-13T22:11:32.000Z</time>
      </trkpt>
      <trkpt lat="48.88908" lon="2.39541">
        <ele>105.86</ele>
        <time>2020-03-13T22:11:33.000Z</time>
      </trkpt>
      <trkpt lat="48.88905" lon="2.39542">
        <ele>105.87</ele>
        <time>2020-03-13T22:11:34.000Z</time>
      </trkpt>
      <trkpt lat="48.88901" lon="2.39543">
        <ele>105.88</ele>
        <time>2020-03-13T22:11:35.000Z</time>
      </trkpt>
      <trkpt lat="48.88897" lon="2.39544">
        <ele>105.89</ele>
        <time>2020-03-13T22:11:36.000Z</time>
      </trkpt>
      <trkpt lat="48.88893" lon="2.39545">
        <ele>105.9</ele>
        <time>2020-03-13T22:11:37.000Z</time>
      </trkpt>
      <trkpt lat="48.88889" lon="2.39546">
        <ele>105.97</ele>
        <time>2020-03-13T22:11:38.000Z</time>
      </trkpt>
      <trkpt lat="48.88885" lon="2.39548">
        <ele>105.98</ele>
        <time>2020-03-13T22:11:39.000Z</time>
      </trkpt>
      <trkpt lat="48.88882" lon="2.39549">
        <ele>105.98</ele>
        <time>2020-03-13T22:11:40.000Z</time>
      </trkpt>
      <trkpt lat="48.88878" lon="2.3955">
        <ele>105.99</ele>
        <time>2020-03-13T22:11:41.000Z</time>
      </trkpt>
      <trkpt lat="48.88875" lon="2.39552">
        <ele>105.99</ele>
        <time>2020-03-13T22:11:42.000Z</time>
      </trkpt>
      <trkpt lat="48.88872" lon="2.39553">
        <ele>106</ele>
        <time>2020-03-13T22:11:43.000Z</time>
      </trkpt>
      <trkpt lat="48.88868" lon="2.39553">
        <ele>106</ele>
        <time>2020-03-13T22:11:44.000Z</time>
      </trkpt>
      <trkpt lat="48.88864" lon="2.39554">
        <ele>106.01</ele>
        <time>2020-03-13T22:11:45.000Z</time>
      </trkpt>
      <trkpt lat="48.8886" lon="2.39555">
        <ele>106.01</ele>
        <time>2020-03-13T22:11:46.000Z</time>
      </trkpt>
      <trkpt lat="48.88856" lon="2.39556">
        <ele>106.06</ele>
        <time>2020-03-13T22:11:47.000Z</time>
      </trkpt>
      <trkpt lat="48.88852" lon="2.39557">
        <ele>106.07</ele>
        <time>2020-03-13T22:11:48.000Z</time>
      </trkpt>
      <trkpt lat="48.88848" lon="2.39558">
        <ele>106.11</ele>
        <time>2020-03-13T22:11:49.000Z</time>
      </trkpt>
      <trkpt lat="48.88844" lon="2.39559">
        <ele>106.11</ele>
        <time>2020-03-13T22:11:50.000Z</time>
      </trkpt>
      <trkpt lat="48.88841" lon="2.3956">
        <ele>106.11</ele>
        <time>2020-03-13T22:11:51.000Z</time>
      </trkpt>
      <trkpt lat="48.88837" lon="2.39562">
        <ele>106.12</ele>
        <time>2020-03-13T22:11:52.000Z</time>
      </trkpt>
      <trkpt lat="48.88833" lon="2.39563">
        <ele>106.12</ele>
        <time>2020-03-13T22:11:53.000Z</time>
      </trkpt>
      <trkpt lat="48.8883" lon="2.39564">
        <ele>106.12</ele>
        <time>2020-03-13T22:11:54.000Z</time>
      </trkpt>
      <trkpt lat="48.88827" lon="2.39564">
        <ele>106.13</ele>
        <time>2020-03-13T22:11:55.000Z</time>
      </trkpt>
      <trkpt lat="48.88825" lon="2.39565">
        <ele>106.13</ele>
        <time>2020-03-13T22:11:56.000Z</time>
      </trkpt>
      <trkpt lat="48.88822" lon="2.39567">
        <ele>106.13</ele>
        <time>2020-03-13T22:11:57.000Z</time>
      </trkpt>
      <trkpt lat="48.88819" lon="2.39568">
        <ele>106.14</ele>
        <time>2020-03-13T22:11:58.000Z</time>
      </trkpt>
      <trkpt lat="48.88817" lon="2.39571">
        <ele>106.14</ele>
        <time>2020-03-13T22:11:59.000Z</time>
      </trkpt>
      <trkpt lat="48.88816" lon="2.39574">
        <ele>106.14</ele>
        <time>2020-03-13T22:12:00.000Z</time>
      </trkpt>
      <trkpt lat="48.88815" lon="2.39578">
        <ele>106.14</ele>
        <time>2020-03-13T22:12:01.000Z</time>
      </trkpt>
      <trkpt lat="48.88813" lon="2.3958">
        <ele>106.15</ele>
        <time>2020-03-13T22:12:02.000Z</time>
      </trkpt>
      <trkpt lat="48.8881" lon="2.39582">
        <ele>106.15</ele>
        <time>2020-03-13T22:12:03.000Z</time>
      </trkpt>
      <trkpt lat="48.88807" lon="2.39584">
        <ele>106.15</ele>
        <time>2020-03-13T22:12:04.000Z</time>
      </trkpt>
      <trkpt lat="48.88804" lon="2.39585">
        <ele>106.15</ele>
        <time>2020-03-13T22:12:05.000Z</time>
      </trkpt>
      <trkpt lat="48.88801" lon="2.39586">
        <ele>106.16</ele>
        <time>2020-03-13T22:12:06.000Z</time>
      </trkpt>
      <trkpt lat="48.88797" lon="2.39587">
        <ele>106.16</ele>
        <time>2020-03-13T22:12:07.000Z</time>
      </trkpt>
      <trkpt lat="48.88793" lon="2.39589">
        <ele>106.17</ele>
        <time>2020-03-13T22:12:08.000Z</time>
      </trkpt>
      <trkpt lat="48.88789" lon="2.39591">
        <ele>106.18</ele>
        <time>2020-03-13T22:12:09.000Z</time>
      </trkpt>
      <trkpt lat="48.88785" lon="2.39592">
        <ele>106.18</ele>
        <time>2020-03-13T22:12:10.000Z</time>
      </trkpt>
      <trkpt lat="48.88781" lon="2.39594">
        <ele>106.19</ele>
        <time>2020-03-13T22:12:11.000Z</time>
      </trkpt>
      <trkpt lat="48.88776" lon="2.39594">
        <ele>106.19</ele>
        <time>2020-03-13T22:12:12.000Z</time>
      </trkpt>
      <trkpt lat="48.88772" lon="2.39594">
        <ele>106.19</ele>
        <time>2020-03-13T22:12:13.000Z</time>
      </trkpt>
      <trkpt lat="48.88768" lon="2.39594">
        <ele>106.19</ele>
        <time>2020-03-13T22:12:14.000Z</time>
      </trkpt>
      <trkpt lat="48.88763" lon="2.39594">
        <ele>106.18</ele>
        <time>2020-03-13T22:12:15.000Z</time>
      </trkpt>
      <trkpt lat="48.88759" lon="2.39594">
        <ele>106.18</ele>
        <time>2020-03-13T22:12:16.000Z</time>
      </trkpt>
      <trkpt lat="48.88755" lon="2.39595">
        <ele>106.18</ele>
        <time>2020-03-13T22:12:17.000Z</time>
      </trkpt>
      <trkpt lat="48.88751" lon="2.39595">
        <ele>106.18</ele>
        <time>2020-03-13T22:12:18.000Z</time>
      </trkpt>
      <trkpt lat="48.88746" lon="2.39596">
        <ele>106.17</ele>
        <time>2020-03-13T22:12:19.000Z</time>
      </trkpt>
      <trkpt lat="48.88742" lon="2.39596">
        <ele>106.17</ele>
        <time>2020-03-13T22:12:20.000Z</time>
      </trkpt>
      <trkpt lat="48.88738" lon="2.39597">
        <ele>106.17</ele>
        <time>2020-03-13T22:12:21.000Z</time>
      </trkpt>
      <trkpt lat="48.88734" lon="2.39598">
        <ele>106.16</ele>
        <time>2020-03-13T22:12:22.000Z</time>
      </trkpt>
      <trkpt lat="48.8873" lon="2.39599">
        <ele>106.16</ele>
        <time>2020-03-13T22:12:23.000Z</time>
      </trkpt>
      <trkpt lat="48.88725" lon="2.396">
        <ele>106.15</ele>
        <time>2020-03-13T22:12:24.000Z</time>
      </trkpt>
      <trkpt lat="48.88721" lon="2.39601">
        <ele>106.15</ele>
        <time>2020-03-13T22:12:25.000Z</time>
      </trkpt>
      <trkpt lat="48.88717" lon="2.39602">
        <ele>106.15</ele>
        <time>2020-03-13T22:12:26.000Z</time>
      </trkpt>
      <trkpt lat="48.88713" lon="2.39603">
        <ele>106.14</ele>
        <time>2020-03-13T22:12:27.000Z</time>
      </trkpt>
      <trkpt lat="48.88709" lon="2.39604">
        <ele>106.14</ele>
        <time>2020-03-13T22:12:28.000Z</time>
      </trkpt>
      <trkpt lat="48.88704" lon="2.39605">
        <ele>106.13</ele>
        <time>2020-03-13T22:12:29.000Z</time>
      </trkpt>
      <trkpt lat="48.887" lon="2.39607">
        <ele>106.13</ele>
        <time>2020-03-13T22:12:30.000Z</time>
      </trkpt>
      <trkpt lat="48.88696" lon="2.39609">
        <ele>106.12</ele>
        <time>2020-03-13T22:12:31.000Z</time>
      </trkpt>
      <trkpt lat="48.88691" lon="2.39611">
        <ele>106.11</ele>
        <time>2020-03-13T22:12:32.000Z</time>
      </trkpt>
      <trkpt lat="48.88687" lon="2.39613">
        <ele>106.1</ele>
        <time>2020-03-13T22:12:33.000Z</time>
      </trkpt>
      <trkpt lat="48.88682" lon="2.39614">
        <ele>106.09</ele>
        <time>2020-03-13T22:12:34.000Z</time>
      </trkpt>
      <trkpt lat="48.88678" lon="2.39616">
        <ele>106.08</ele>
        <time>2020-03-13T22:12:35.000Z</time>
      </trkpt>
      <trkpt lat="48.88673" lon="2.39618">
        <ele>106.08</ele>
        <time>2020-03-13T22:12:36.000Z</time>
      </trkpt>
      <trkpt lat="48.88669" lon="2.3962">
        <ele>106.07</ele>
        <time>2020-03-13T22:12:37.000Z</time>
      </trkpt>
      <trkpt lat="48.88664" lon="2.39622">
        <ele>106.06</ele>
        <time>2020-03-13T22:12:38.000Z</time>
      </trkpt>
      <trkpt lat="48.88659" lon="2.39623">
        <ele>106.05</ele>
        <time>2020-03-13T22:12:39.000Z</time>
      </trkpt>
      <trkpt lat="48.88655" lon="2.39625">
        <ele>106.04</ele>
        <time>2020-03-13T22:12:40.000Z</time>
      </trkpt>
      <trkpt lat="48.8865" lon="2.39626">
        <ele>106.03</ele>
        <time>2020-03-13T22:12:41.000Z</time>
      </trkpt>
      <trkpt lat="48.88646" lon="2.39628">
        <ele>106.02</ele>
        <time>2020-03-13T22:12:42.000Z</time>
      </trkpt>
      <trkpt lat="48.88641" lon="2.39629">
        <ele>106</ele>
        <time>2020-03-13T22:12:43.000Z</time>
      </trkpt>
      <trkpt lat="48.88636" lon="2.3963">
        <ele>105.99</ele>
        <time>2020-03-13T22:12:44.000Z</time>
      </trkpt>
      <trkpt lat="48.88632" lon="2.39631">
        <ele>105.98</ele>
        <time>2020-03-13T22:12:45.000Z</time>
      </trkpt>
      <trkpt lat="48.88627" lon="2.39632">
        <ele>105.97</ele>
        <time>2020-03-13T22:12:46.000Z</time>
      </trkpt>
      <trkpt lat="48.88622" lon="2.39633">
        <ele>105.96</ele>
        <time>2020-03-13T22:12:47.000Z</time>
      </trkpt>
      <trkpt lat="48.88617" lon="2.39634">
        <ele>105.95</ele>
        <time>2020-03-13T22:12:48.000Z</time>
      </trkpt>
      <trkpt lat="48.88613" lon="2.39636">
        <ele>105.95</ele>
        <time>2020-03-13T22:12:49.000Z</time>
      </trkpt>
      <trkpt lat="48.88609" lon="2.39637">
        <ele>105.94</ele>
        <time>2020-03-13T22:12:50.000Z</time>
      </trkpt>
      <trkpt lat="48.88605" lon="2.39638">
        <ele>105.94</ele>
        <time>2020-03-13T22:12:51.000Z</time>
      </trkpt>
      <trkpt lat="48.886" lon="2.39639">
        <ele>105.94</ele>
        <time>2020-03-13T22:12:52.000Z</time>
      </trkpt>
      <trkpt lat="48.88596" lon="2.3964">
        <ele>105.94</ele>
        <time>2020-03-13T22:12:53.000Z</time>
      </trkpt>
      <trkpt lat="48.88592" lon="2.39641">
        <ele>105.94</ele>
        <time>2020-03-13T22:12:54.000Z</time>
      </trkpt>
      <trkpt lat="48.88589" lon="2.39642">
        <ele>105.94</ele>
        <time>2020-03-13T22:12:55.000Z</time>
      </trkpt>
      <trkpt lat="48.88585" lon="2.39643">
        <ele>105.94</ele>
        <time>2020-03-13T22:12:56.000Z</time>
      </trkpt>
      <trkpt lat="48.88582" lon="2.39644">
        <ele>105.94</ele>
        <time>2020-03-13T22:12:57.000Z</time>
      </trkpt>
      <trkpt lat="48.88578" lon="2.39644">
        <ele>105.95</ele>
        <time>2020-03-13T22:12:58.000Z</time>
      </trkpt>
      <trkpt lat="48.88574" lon="2.39646">
        <ele>105.95</ele>
        <time>2020-03-13T22:12:59.000Z</time>
      </trkpt>
      <trkpt lat="48.88571" lon="2.39648">
        <ele>105.95</ele>
        <time>2020-03-13T22:13:00.000Z</time>
      </trkpt>
      <trkpt lat="48.88567" lon="2.39649">
        <ele>105.95</ele>
        <time>2020-03-13T22:13:01.000Z</time>
      </trkpt>
      <trkpt lat="48.88563" lon="2.39648">
        <ele>105.96</ele>
        <time>2020-03-13T22:13:02.000Z</time>
      </trkpt>
      <trkpt lat="48.88559" lon="2.39647">
        <ele>105.96</ele>
        <time>2020-03-13T22:13:03.000Z</time>
      </trkpt>
      <trkpt lat="48.88555" lon="2.39647">
        <ele>105.96</ele>
        <time>2020-03-13T22:13:04.000Z</time>
      </trkpt>
      <trkpt lat="48.88552" lon="2.39647">
        <ele>105.96</ele>
        <time>2020-03-13T22:13:05.000Z</time>
      </trkpt>
      <trkpt lat="48.88549" lon="2.39648">
        <ele>105.96</ele>
        <time>2020-03-13T22:13:06.000Z</time>
      </trkpt>
      <trkpt lat="48.88545" lon="2.39648">
        <ele>105.97</ele>
        <time>2020-03-13T22:13:07.000Z</time>
      </trkpt>
      <trkpt lat="48.88543" lon="2.39649">
        <ele>105.97</ele>
        <time>2020-03-13T22:13:08.000Z</time>
      </trkpt>
      <trkpt lat="48.8854" lon="2.39649">
        <ele>105.97</ele>
        <time>2020-03-13T22:13:09.000Z</time>
      </trkpt>
      <trkpt lat="48.88537" lon="2.39649">
        <ele>105.98</ele>
        <time>2020-03-13T22:13:10.000Z</time>
      </trkpt>
      <trkpt lat="48.88534" lon="2.3965">
        <ele>105.98</ele>
        <time>2020-03-13T22:13:11.000Z</time>
      </trkpt>
      <trkpt lat="48.8853" lon="2.3965">
        <ele>105.98</ele>
        <time>2020-03-13T22:13:12.000Z</time>
      </trkpt>
      <trkpt lat="48.88526" lon="2.39649">
        <ele>105.99</ele>
        <time>2020-03-13T22:13:13.000Z</time>
      </trkpt>
      <trkpt lat="48.88523" lon="2.39649">
        <ele>105.99</ele>
        <time>2020-03-13T22:13:14.000Z</time>
      </trkpt>
      <trkpt lat="48.88519" lon="2.39646">
        <ele>106</ele>
        <time>2020-03-13T22:13:15.000Z</time>
      </trkpt>
      <trkpt lat="48.88515" lon="2.39646">
        <ele>106</ele>
        <time>2020-03-13T22:13:16.000Z</time>
      </trkpt>
      <trkpt lat="48.88513" lon="2.39647">
        <ele>106.01</ele>
        <time>2020-03-13T22:13:17.000Z</time>
      </trkpt>
      <trkpt lat="48.88509" lon="2.39647">
        <ele>106.01</ele>
        <time>2020-03-13T22:13:18.000Z</time>
      </trkpt>
      <trkpt lat="48.88506" lon="2.39648">
        <ele>106.02</ele>
        <time>2020-03-13T22:13:19.000Z</time>
      </trkpt>
      <trkpt lat="48.88503" lon="2.39648">
        <ele>106.02</ele>
        <time>2020-03-13T22:13:20.000Z</time>
      </trkpt>
      <trkpt lat="48.885" lon="2.39648">
        <ele>106.03</ele>
        <time>2020-03-13T22:13:21.000Z</time>
      </trkpt>
      <trkpt lat="48.88496" lon="2.39649">
        <ele>106.03</ele>
        <time>2020-03-13T22:13:22.000Z</time>
      </trkpt>
      <trkpt lat="48.88492" lon="2.39648">
        <ele>106.04</ele>
        <time>2020-03-13T22:13:23.000Z</time>
      </trkpt>
      <trkpt lat="48.8849" lon="2.39649">
        <ele>106.04</ele>
        <time>2020-03-13T22:13:24.000Z</time>
      </trkpt>
      <trkpt lat="48.88486" lon="2.39649">
        <ele>106.05</ele>
        <time>2020-03-13T22:13:25.000Z</time>
      </trkpt>
      <trkpt lat="48.88483" lon="2.39648">
        <ele>106.06</ele>
        <time>2020-03-13T22:13:26.000Z</time>
      </trkpt>
      <trkpt lat="48.88479" lon="2.39648">
        <ele>106.06</ele>
        <time>2020-03-13T22:13:27.000Z</time>
      </trkpt>
      <trkpt lat="48.88476" lon="2.3965">
        <ele>106.07</ele>
        <time>2020-03-13T22:13:28.000Z</time>
      </trkpt>
      <trkpt lat="48.88473" lon="2.39651">
        <ele>106.07</ele>
        <time>2020-03-13T22:13:29.000Z</time>
      </trkpt>
      <trkpt lat="48.88469" lon="2.39652">
        <ele>106.08</ele>
        <time>2020-03-13T22:13:30.000Z</time>
      </trkpt>
      <trkpt lat="48.88467" lon="2.39652">
        <ele>106.09</ele>
        <time>2020-03-13T22:13:31.000Z</time>
      </trkpt>
      <trkpt lat="48.88464" lon="2.39652">
        <ele>106.09</ele>
        <time>2020-03-13T22:13:32.000Z</time>
      </trkpt>
      <trkpt lat="48.8846" lon="2.39653">
        <ele>106.1</ele>
        <time>2020-03-13T22:13:33.000Z</time>
      </trkpt>
      <trkpt lat="48.88457" lon="2.39654">
        <ele>106.1</ele>
        <time>2020-03-13T22:13:34.000Z</time>
      </trkpt>
      <trkpt lat="48.88452" lon="2.39655">
        <ele>106.11</ele>
        <time>2020-03-13T22:13:35.000Z</time>
      </trkpt>
      <trkpt lat="48.88449" lon="2.39656">
        <ele>106.12</ele>
        <time>2020-03-13T22:13:36.000Z</time>
      </trkpt>
      <trkpt lat="48.88445" lon="2.39658">
        <ele>106.12</ele>
        <time>2020-03-13T22:13:37.000Z</time>
      </trkpt>
      <trkpt lat="48.88443" lon="2.39659">
        <ele>106.13</ele>
        <time>2020-03-13T22:13:38.000Z</time>
      </trkpt>
      <trkpt lat="48.88439" lon="2.3966">
        <ele>106.14</ele>
        <time>2020-03-13T22:13:39.000Z</time>
      </trkpt>
      <trkpt lat="48.88436" lon="2.39661">
        <ele>106.14</ele>
        <time>2020-03-13T22:13:40.000Z</time>
      </trkpt>
      <trkpt lat="48.88433" lon="2.39662">
        <ele>106.15</ele>
        <time>2020-03-13T22:13:41.000Z</time>
      </trkpt>
      <trkpt lat="48.88429" lon="2.39663">
        <ele>106.16</ele>
        <time>2020-03-13T22:13:42.000Z</time>
      </trkpt>
      <trkpt lat="48.88426" lon="2.39665">
        <ele>106.17</ele>
        <time>2020-03-13T22:13:43.000Z</time>
      </trkpt>
      <trkpt lat="48.88423" lon="2.39666">
        <ele>106.17</ele>
        <time>2020-03-13T22:13:44.000Z</time>
      </trkpt>
      <trkpt lat="48.8842" lon="2.39667">
        <ele>106.18</ele>
        <time>2020-03-13T22:13:45.000Z</time>
      </trkpt>
      <trkpt lat="48.88416" lon="2.39669">
        <ele>106.19</ele>
        <time>2020-03-13T22:13:46.000Z</time>
      </trkpt>
      <trkpt lat="48.88413" lon="2.3967">
        <ele>106.2</ele>
        <time>2020-03-13T22:13:47.000Z</time>
      </trkpt>
      <trkpt lat="48.8841" lon="2.39671">
        <ele>106.21</ele>
        <time>2020-03-13T22:13:48.000Z</time>
      </trkpt>
      <trkpt lat="48.88407" lon="2.39671">
        <ele>106.22</ele>
        <time>2020-03-13T22:13:49.000Z</time>
      </trkpt>
      <trkpt lat="48.88404" lon="2.39671">
        <ele>106.22</ele>
        <time>2020-03-13T22:13:50.000Z</time>
      </trkpt>
      <trkpt lat="48.88402" lon="2.39672">
        <ele>106.23</ele>
        <time>2020-03-13T22:13:51.000Z</time>
      </trkpt>
      <trkpt lat="48.88399" lon="2.39673">
        <ele>106.24</ele>
        <time>2020-03-13T22:13:52.000Z</time>
      </trkpt>
      <trkpt lat="48.88396" lon="2.39673">
        <ele>106.25</ele>
        <time>2020-03-13T22:13:53.000Z</time>
      </trkpt>
      <trkpt lat="48.88394" lon="2.39674">
        <ele>106.26</ele>
        <time>2020-03-13T22:13:54.000Z</time>
      </trkpt>
      <trkpt lat="48.88393" lon="2.39676">
        <ele>106.26</ele>
        <time>2020-03-13T22:13:55.000Z</time>
      </trkpt>
      <trkpt lat="48.88391" lon="2.39678">
        <ele>106.26</ele>
        <time>2020-03-13T22:13:56.000Z</time>
      </trkpt>
      <trkpt lat="48.88388" lon="2.39677">
        <ele>106.27</ele>
        <time>2020-03-13T22:13:57.000Z</time>
      </trkpt>
      <trkpt lat="48.88384" lon="2.39677">
        <ele>106.26</ele>
        <time>2020-03-13T22:13:58.000Z</time>
      </trkpt>
      <trkpt lat="48.8838" lon="2.39676">
        <ele>106.25</ele>
        <time>2020-03-13T22:13:59.000Z</time>
      </trkpt>
      <trkpt lat="48.88376" lon="2.39678">
        <ele>106.23</ele>
        <time>2020-03-13T22:14:00.000Z</time>
      </trkpt>
      <trkpt lat="48.88373" lon="2.39679">
        <ele>106.2</ele>
        <time>2020-03-13T22:14:01.000Z</time>
      </trkpt>
      <trkpt lat="48.88371" lon="2.3968">
        <ele>106.17</ele>
        <time>2020-03-13T22:14:02.000Z</time>
      </trkpt>
      <trkpt lat="48.88369" lon="2.39682">
        <ele>106.15</ele>
        <time>2020-03-13T22:14:03.000Z</time>
      </trkpt>
      <trkpt lat="48.88365" lon="2.39682">
        <ele>106.13</ele>
        <time>2020-03-13T22:14:04.000Z</time>
      </trkpt>
      <trkpt lat="48.88361" lon="2.39684">
        <ele>106.11</ele>
        <time>2020-03-13T22:14:05.000Z</time>
      </trkpt>
      <trkpt lat="48.88358" lon="2.39687">
        <ele>106.1</ele>
        <time>2020-03-13T22:14:06.000Z</time>
      </trkpt>
      <trkpt lat="48.88355" lon="2.39688">
        <ele>106.09</ele>
        <time>2020-03-13T22:14:07.000Z</time>
      </trkpt>
      <trkpt lat="48.88352" lon="2.3969">
        <ele>106.09</ele>
        <time>2020-03-13T22:14:08.000Z</time>
      </trkpt>
      <trkpt lat="48.88349" lon="2.39691">
        <ele>106.1</ele>
        <time>2020-03-13T22:14:09.000Z</time>
      </trkpt>
      <trkpt lat="48.88345" lon="2.39693">
        <ele>106.11</ele>
        <time>2020-03-13T22:14:10.000Z</time>
      </trkpt>
      <trkpt lat="48.88342" lon="2.39695">
        <ele>106.13</ele>
        <time>2020-03-13T22:14:11.000Z</time>
      </trkpt>
      <trkpt lat="48.88339" lon="2.39697">
        <ele>106.15</ele>
        <time>2020-03-13T22:14:12.000Z</time>
      </trkpt>
      <trkpt lat="48.88336" lon="2.39699">
        <ele>106.17</ele>
        <time>2020-03-13T22:14:13.000Z</time>
      </trkpt>
      <trkpt lat="48.88333" lon="2.39703">
        <ele>106.2</ele>
        <time>2020-03-13T22:14:14.000Z</time>
      </trkpt>
      <trkpt lat="48.8833" lon="2.39705">
        <ele>106.23</ele>
        <time>2020-03-13T22:14:15.000Z</time>
      </trkpt>
      <trkpt lat="48.88327" lon="2.39711">
        <ele>106.26</ele>
        <time>2020-03-13T22:14:16.000Z</time>
      </trkpt>
      <trkpt lat="48.88325" lon="2.39716">
        <ele>106.29</ele>
        <time>2020-03-13T22:14:17.000Z</time>
      </trkpt>
      <trkpt lat="48.88323" lon="2.39718">
        <ele>106.32</ele>
        <time>2020-03-13T22:14:18.000Z</time>
      </trkpt>
      <trkpt lat="48.88321" lon="2.39722">
        <ele>106.36</ele>
        <time>2020-03-13T22:14:19.000Z</time>
      </trkpt>
      <trkpt lat="48.88319" lon="2.39726">
        <ele>106.39</ele>
        <time>2020-03-13T22:14:20.000Z</time>
      </trkpt>
      <trkpt lat="48.88317" lon="2.39729">
        <ele>106.43</ele>
        <time>2020-03-13T22:14:21.000Z</time>
      </trkpt>
      <trkpt lat="48.88315" lon="2.39732">
        <ele>106.47</ele>
        <time>2020-03-13T22:14:22.000Z</time>
      </trkpt>
      <trkpt lat="48.88314" lon="2.39737">
        <ele>106.52</ele>
        <time>2020-03-13T22:14:23.000Z</time>
      </trkpt>
      <trkpt lat="48.88311" lon="2.39739">
        <ele>106.56</ele>
        <time>2020-03-13T22:14:24.000Z</time>
      </trkpt>
      <trkpt lat="48.88309" lon="2.39742">
        <ele>106.61</ele>
        <time>2020-03-13T22:14:25.000Z</time>
      </trkpt>
      <trkpt lat="48.88307" lon="2.39746">
        <ele>106.66</ele>
        <time>2020-03-13T22:14:26.000Z</time>
      </trkpt>
      <trkpt lat="48.88304" lon="2.3975">
        <ele>106.71</ele>
        <time>2020-03-13T22:14:27.000Z</time>
      </trkpt>
      <trkpt lat="48.88302" lon="2.39753">
        <ele>106.77</ele>
        <time>2020-03-13T22:14:28.000Z</time>
      </trkpt>
      <trkpt lat="48.883" lon="2.39758">
        <ele>106.82</ele>
        <time>2020-03-13T22:14:29.000Z</time>
      </trkpt>
      <trkpt lat="48.88298" lon="2.39762">
        <ele>106.88</ele>
        <time>2020-03-13T22:14:30.000Z</time>
      </trkpt>
      <trkpt lat="48.88296" lon="2.39767">
        <ele>106.95</ele>
        <time>2020-03-13T22:14:31.000Z</time>
      </trkpt>
      <trkpt lat="48.88293" lon="2.39772">
        <ele>107.01</ele>
        <time>2020-03-13T22:14:32.000Z</time>
      </trkpt>
      <trkpt lat="48.88292" lon="2.39776">
        <ele>107.08</ele>
        <time>2020-03-13T22:14:33.000Z</time>
      </trkpt>
      <trkpt lat="48.8829" lon="2.3978">
        <ele>107.15</ele>
        <time>2020-03-13T22:14:34.000Z</time>
      </trkpt>
      <trkpt lat="48.88288" lon="2.39784">
        <ele>107.22</ele>
        <time>2020-03-13T22:14:35.000Z</time>
      </trkpt>
      <trkpt lat="48.88286" lon="2.39789">
        <ele>107.29</ele>
        <time>2020-03-13T22:14:36.000Z</time>
      </trkpt>
      <trkpt lat="48.88285" lon="2.39794">
        <ele>107.36</ele>
        <time>2020-03-13T22:14:37.000Z</time>
      </trkpt>
      <trkpt lat="48.88283" lon="2.39799">
        <ele>107.43</ele>
        <time>2020-03-13T22:14:38.000Z</time>
      </trkpt>
      <trkpt lat="48.88282" lon="2.39804">
        <ele>107.51</ele>
        <time>2020-03-13T22:14:39.000Z</time>
      </trkpt>
      <trkpt lat="48.8828" lon="2.39809">
        <ele>107.58</ele>
        <time>2020-03-13T22:14:40.000Z</time>
      </trkpt>
      <trkpt lat="48.88278" lon="2.39814">
        <ele>107.65</ele>
        <time>2020-03-13T22:14:41.000Z</time>
      </trkpt>
      <trkpt lat="48.88277" lon="2.39819">
        <ele>108.39</ele>
        <time>2020-03-13T22:14:42.000Z</time>
      </trkpt>
      <trkpt lat="48.88275" lon="2.39826">
        <ele>108.45</ele>
        <time>2020-03-13T22:14:43.000Z</time>
      </trkpt>
      <trkpt lat="48.88274" lon="2.39831">
        <ele>108.51</ele>
        <time>2020-03-13T22:14:44.000Z</time>
      </trkpt>
      <trkpt lat="48.88273" lon="2.39836">
        <ele>108.57</ele>
        <time>2020-03-13T22:14:45.000Z</time>
      </trkpt>
      <trkpt lat="48.88272" lon="2.39842">
        <ele>108.63</ele>
        <time>2020-03-13T22:14:46.000Z</time>
      </trkpt>
      <trkpt lat="48.88271" lon="2.39848">
        <ele>108.7</ele>
        <time>2020-03-13T22:14:47.000Z</time>
      </trkpt>
      <trkpt lat="48.8827" lon="2.39853">
        <ele>108.76</ele>
        <time>2020-03-13T22:14:48.000Z</time>
      </trkpt>
      <trkpt lat="48.8827" lon="2.39858">
        <ele>108.82</ele>
        <time>2020-03-13T22:14:49.000Z</time>
      </trkpt>
      <trkpt lat="48.88269" lon="2.39863">
        <ele>108.89</ele>
        <time>2020-03-13T22:14:50.000Z</time>
      </trkpt>
      <trkpt lat="48.88268" lon="2.39869">
        <ele>108.95</ele>
        <time>2020-03-13T22:14:51.000Z</time>
      </trkpt>
      <trkpt lat="48.88268" lon="2.39874">
        <ele>109.01</ele>
        <time>2020-03-13T22:14:52.000Z</time>
      </trkpt>
      <trkpt lat="48.88267" lon="2.39879">
        <ele>109.08</ele>
        <time>2020-03-13T22:14:53.000Z</time>
      </trkpt>
      <trkpt lat="48.88267" lon="2.39884">
        <ele>109.14</ele>
        <time>2020-03-13T22:14:54.000Z</time>
      </trkpt>
      <trkpt lat="48.88266" lon="2.39889">
        <ele>109.21</ele>
        <time>2020-03-13T22:14:55.000Z</time>
      </trkpt>
      <trkpt lat="48.88266" lon="2.39895">
        <ele>109.28</ele>
        <time>2020-03-13T22:14:56.000Z</time>
      </trkpt>
      <trkpt lat="48.88265" lon="2.399">
        <ele>109.34</ele>
        <time>2020-03-13T22:14:57.000Z</time>
      </trkpt>
      <trkpt lat="48.88265" lon="2.39906">
        <ele>109.41</ele>
        <time>2020-03-13T22:14:58.000Z</time>
      </trkpt>
      <trkpt lat="48.88265" lon="2.39912">
        <ele>109.48</ele>
        <time>2020-03-13T22:14:59.000Z</time>
      </trkpt>
      <trkpt lat="48.88265" lon="2.39917">
        <ele>110.24</ele>
        <time>2020-03-13T22:15:00.000Z</time>
      </trkpt>
      <trkpt lat="48.88264" lon="2.39924">
        <ele>110.85</ele>
        <time>2020-03-13T22:15:01.000Z</time>
      </trkpt>
      <trkpt lat="48.88264" lon="2.3993">
        <ele>111.4</ele>
        <time>2020-03-13T22:15:02.000Z</time>
      </trkpt>
      <trkpt lat="48.88263" lon="2.39936">
        <ele>111.86</ele>
        <time>2020-03-13T22:15:03.000Z</time>
      </trkpt>
      <trkpt lat="48.88262" lon="2.39942">
        <ele>112.25</ele>
        <time>2020-03-13T22:15:04.000Z</time>
      </trkpt>
      <trkpt lat="48.88262" lon="2.39948">
        <ele>112.58</ele>
        <time>2020-03-13T22:15:05.000Z</time>
      </trkpt>
      <trkpt lat="48.88261" lon="2.39954">
        <ele>112.88</ele>
        <time>2020-03-13T22:15:06.000Z</time>
      </trkpt>
      <trkpt lat="48.88259" lon="2.39959">
        <ele>113.12</ele>
        <time>2020-03-13T22:15:07.000Z</time>
      </trkpt>
      <trkpt lat="48.88257" lon="2.39964">
        <ele>113.15</ele>
        <time>2020-03-13T22:15:08.000Z</time>
      </trkpt>
      <trkpt lat="48.88255" lon="2.39969">
        <ele>113.37</ele>
        <time>2020-03-13T22:15:09.000Z</time>
      </trkpt>
      <trkpt lat="48.88253" lon="2.39974">
        <ele>113.57</ele>
        <time>2020-03-13T22:15:10.000Z</time>
      </trkpt>
      <trkpt lat="48.88251" lon="2.39979">
        <ele>113.75</ele>
        <time>2020-03-13T22:15:11.000Z</time>
      </trkpt>
      <trkpt lat="48.88249" lon="2.39984">
        <ele>113.93</ele>
        <time>2020-03-13T22:15:12.000Z</time>
      </trkpt>
      <trkpt lat="48.88247" lon="2.39989">
        <ele>114.09</ele>
        <time>2020-03-13T22:15:13.000Z</time>
      </trkpt>
      <trkpt lat="48.88245" lon="2.39994">
        <ele>114.23</ele>
        <time>2020-03-13T22:15:14.000Z</time>
      </trkpt>
      <trkpt lat="48.88242" lon="2.39999">
        <ele>114.36</ele>
        <time>2020-03-13T22:15:15.000Z</time>
      </trkpt>
      <trkpt lat="48.8824" lon="2.40003">
        <ele>114.37</ele>
        <time>2020-03-13T22:15:16.000Z</time>
      </trkpt>
      <trkpt lat="48.88237" lon="2.40007">
        <ele>114.39</ele>
        <time>2020-03-13T22:15:17.000Z</time>
      </trkpt>
      <trkpt lat="48.88234" lon="2.40011">
        <ele>114.41</ele>
        <time>2020-03-13T22:15:18.000Z</time>
      </trkpt>
      <trkpt lat="48.88231" lon="2.40015">
        <ele>114.43</ele>
        <time>2020-03-13T22:15:19.000Z</time>
      </trkpt>
      <trkpt lat="48.88228" lon="2.40019">
        <ele>114.45</ele>
        <time>2020-03-13T22:15:20.000Z</time>
      </trkpt>
      <trkpt lat="48.88226" lon="2.40023">
        <ele>114.48</ele>
        <time>2020-03-13T22:15:21.000Z</time>
      </trkpt>
      <trkpt lat="48.88223" lon="2.40027">
        <ele>114.51</ele>
        <time>2020-03-13T22:15:22.000Z</time>
      </trkpt>
      <trkpt lat="48.8822" lon="2.40029">
        <ele>114.54</ele>
        <time>2020-03-13T22:15:23.000Z</time>
      </trkpt>
      <trkpt lat="48.88217" lon="2.40032">
        <ele>114.57</ele>
        <time>2020-03-13T22:15:24.000Z</time>
      </trkpt>
      <trkpt lat="48.88214" lon="2.40033">
        <ele>114.61</ele>
        <time>2020-03-13T22:15:25.000Z</time>
      </trkpt>
      <trkpt lat="48.88211" lon="2.40035">
        <ele>114.94</ele>
        <time>2020-03-13T22:15:26.000Z</time>
      </trkpt>
      <trkpt lat="48.88207" lon="2.40037">
        <ele>115.21</ele>
        <time>2020-03-13T22:15:27.000Z</time>
      </trkpt>
      <trkpt lat="48.88204" lon="2.40037">
        <ele>115.23</ele>
        <time>2020-03-13T22:15:28.000Z</time>
      </trkpt>
      <trkpt lat="48.882" lon="2.40038">
        <ele>115.25</ele>
        <time>2020-03-13T22:15:29.000Z</time>
      </trkpt>
      <trkpt lat="48.88196" lon="2.40038">
        <ele>115.51</ele>
        <time>2020-03-13T22:15:30.000Z</time>
      </trkpt>
      <trkpt lat="48.88192" lon="2.40038">
        <ele>115.71</ele>
        <time>2020-03-13T22:15:31.000Z</time>
      </trkpt>
      <trkpt lat="48.88188" lon="2.40037">
        <ele>115.88</ele>
        <time>2020-03-13T22:15:32.000Z</time>
      </trkpt>
      <trkpt lat="48.88184" lon="2.40036">
        <ele>115.9</ele>
        <time>2020-03-13T22:15:33.000Z</time>
      </trkpt>
      <trkpt lat="48.8818" lon="2.40035">
        <ele>116.1</ele>
        <time>2020-03-13T22:15:34.000Z</time>
      </trkpt>
      <trkpt lat="48.88176" lon="2.40034">
        <ele>116.12</ele>
        <time>2020-03-13T22:15:35.000Z</time>
      </trkpt>
      <trkpt lat="48.88173" lon="2.40033">
        <ele>116.14</ele>
        <time>2020-03-13T22:15:36.000Z</time>
      </trkpt>
      <trkpt lat="48.8817" lon="2.40032">
        <ele>116.16</ele>
        <time>2020-03-13T22:15:37.000Z</time>
      </trkpt>
      <trkpt lat="48.88167" lon="2.40031">
        <ele>116.2</ele>
        <time>2020-03-13T22:15:38.000Z</time>
      </trkpt>
      <trkpt lat="48.88164" lon="2.40027">
        <ele>116.23</ele>
        <time>2020-03-13T22:15:39.000Z</time>
      </trkpt>
      <trkpt lat="48.88161" lon="2.40024">
        <ele>116.27</ele>
        <time>2020-03-13T22:15:40.000Z</time>
      </trkpt>
      <trkpt lat="48.88157" lon="2.40021">
        <ele>116.31</ele>
        <time>2020-03-13T22:15:41.000Z</time>
      </trkpt>
      <trkpt lat="48.88155" lon="2.40019">
        <ele>116.35</ele>
        <time>2020-03-13T22:15:42.000Z</time>
      </trkpt>
      <trkpt lat="48.88152" lon="2.40016">
        <ele>116.4</ele>
        <time>2020-03-13T22:15:43.000Z</time>
      </trkpt>
      <trkpt lat="48.8815" lon="2.40014">
        <ele>116.46</ele>
        <time>2020-03-13T22:15:44.000Z</time>
      </trkpt>
      <trkpt lat="48.88148" lon="2.40012">
        <ele>116.52</ele>
        <time>2020-03-13T22:15:45.000Z</time>
      </trkpt>
      <trkpt lat="48.88145" lon="2.4001">
        <ele>116.59</ele>
        <time>2020-03-13T22:15:46.000Z</time>
      </trkpt>
      <trkpt lat="48.88142" lon="2.40007">
        <ele>116.66</ele>
        <time>2020-03-13T22:15:47.000Z</time>
      </trkpt>
      <trkpt lat="48.88139" lon="2.40004">
        <ele>116.73</ele>
        <time>2020-03-13T22:15:48.000Z</time>
      </trkpt>
      <trkpt lat="48.88136" lon="2.40002">
        <ele>116.8</ele>
        <time>2020-03-13T22:15:49.000Z</time>
      </trkpt>
      <trkpt lat="48.88133" lon="2.39999">
        <ele>116.87</ele>
        <time>2020-03-13T22:15:50.000Z</time>
      </trkpt>
      <trkpt lat="48.88129" lon="2.39997">
        <ele>116.95</ele>
        <time>2020-03-13T22:15:51.000Z</time>
      </trkpt>
      <trkpt lat="48.88126" lon="2.39995">
        <ele>117.03</ele>
        <time>2020-03-13T22:15:52.000Z</time>
      </trkpt>
      <trkpt lat="48.88122" lon="2.39993">
        <ele>117.11</ele>
        <time>2020-03-13T22:15:53.000Z</time>
      </trkpt>
      <trkpt lat="48.88118" lon="2.39991">
        <ele>117.2</ele>
        <time>2020-03-13T22:15:54.000Z</time>
      </trkpt>
      <trkpt lat="48.88114" lon="2.39989">
        <ele>117.28</ele>
        <time>2020-03-13T22:15:55.000Z</time>
      </trkpt>
      <trkpt lat="48.88111" lon="2.39988">
        <ele>117.37</ele>
        <time>2020-03-13T22:15:56.000Z</time>
      </trkpt>
      <trkpt lat="48.88107" lon="2.39986">
        <ele>118.26</ele>
        <time>2020-03-13T22:15:57.000Z</time>
      </trkpt>
      <trkpt lat="48.88103" lon="2.39985">
        <ele>118.99</ele>
        <time>2020-03-13T22:15:58.000Z</time>
      </trkpt>
      <trkpt lat="48.88099" lon="2.39984">
        <ele>119.59</ele>
        <time>2020-03-13T22:15:59.000Z</time>
      </trkpt>
      <trkpt lat="48.88094" lon="2.39983">
        <ele>119.64</ele>
        <time>2020-03-13T22:16:00.000Z</time>
      </trkpt>
      <trkpt lat="48.88091" lon="2.39983">
        <ele>119.69</ele>
        <time>2020-03-13T22:16:01.000Z</time>
      </trkpt>
      <trkpt lat="48.88087" lon="2.39984">
        <ele>119.74</ele>
        <time>2020-03-13T22:16:02.000Z</time>
      </trkpt>
      <trkpt lat="48.88083" lon="2.39985">
        <ele>119.8</ele>
        <time>2020-03-13T22:16:03.000Z</time>
      </trkpt>
      <trkpt lat="48.88079" lon="2.39987">
        <ele>119.85</ele>
        <time>2020-03-13T22:16:04.000Z</time>
      </trkpt>
      <trkpt lat="48.88075" lon="2.39989">
        <ele>120.37</ele>
        <time>2020-03-13T22:16:05.000Z</time>
      </trkpt>
      <trkpt lat="48.88071" lon="2.39992">
        <ele>120.83</ele>
        <time>2020-03-13T22:16:06.000Z</time>
      </trkpt>
      <trkpt lat="48.88067" lon="2.39996">
        <ele>121.2</ele>
        <time>2020-03-13T22:16:07.000Z</time>
      </trkpt>
      <trkpt lat="48.88063" lon="2.39999">
        <ele>121.53</ele>
        <time>2020-03-13T22:16:08.000Z</time>
      </trkpt>
      <trkpt lat="48.88059" lon="2.40001">
        <ele>121.81</ele>
        <time>2020-03-13T22:16:09.000Z</time>
      </trkpt>
      <trkpt lat="48.88055" lon="2.40004">
        <ele>122.04</ele>
        <time>2020-03-13T22:16:10.000Z</time>
      </trkpt>
      <trkpt lat="48.88051" lon="2.40006">
        <ele>122.23</ele>
        <time>2020-03-13T22:16:11.000Z</time>
      </trkpt>
      <trkpt lat="48.88048" lon="2.40009">
        <ele>122.39</ele>
        <time>2020-03-13T22:16:12.000Z</time>
      </trkpt>
      <trkpt lat="48.88044" lon="2.40012">
        <ele>122.53</ele>
        <time>2020-03-13T22:16:13.000Z</time>
      </trkpt>
      <trkpt lat="48.88039" lon="2.40015">
        <ele>122.68</ele>
        <time>2020-03-13T22:16:14.000Z</time>
      </trkpt>
      <trkpt lat="48.88034" lon="2.40019">
        <ele>122.82</ele>
        <time>2020-03-13T22:16:15.000Z</time>
      </trkpt>
      <trkpt lat="48.8803" lon="2.40022">
        <ele>122.95</ele>
        <time>2020-03-13T22:16:16.000Z</time>
      </trkpt>
      <trkpt lat="48.88025" lon="2.40026">
        <ele>123.08</ele>
        <time>2020-03-13T22:16:17.000Z</time>
      </trkpt>
      <trkpt lat="48.88021" lon="2.4003">
        <ele>123.2</ele>
        <time>2020-03-13T22:16:18.000Z</time>
      </trkpt>
      <trkpt lat="48.88016" lon="2.40033">
        <ele>123.32</ele>
        <time>2020-03-13T22:16:19.000Z</time>
      </trkpt>
      <trkpt lat="48.88011" lon="2.40036">
        <ele>123.45</ele>
        <time>2020-03-13T22:16:20.000Z</time>
      </trkpt>
      <trkpt lat="48.88006" lon="2.40039">
        <ele>123.58</ele>
        <time>2020-03-13T22:16:21.000Z</time>
      </trkpt>
      <trkpt lat="48.88002" lon="2.40041">
        <ele>123.71</ele>
        <time>2020-03-13T22:16:22.000Z</time>
      </trkpt>
      <trkpt lat="48.87997" lon="2.40043">
        <ele>123.83</ele>
        <time>2020-03-13T22:16:23.000Z</time>
      </trkpt>
      <trkpt lat="48.87992" lon="2.40046">
        <ele>123.95</ele>
        <time>2020-03-13T22:16:24.000Z</time>
      </trkpt>
      <trkpt lat="48.87987" lon="2.40048">
        <ele>124.08</ele>
        <time>2020-03-13T22:16:25.000Z</time>
      </trkpt>
      <trkpt lat="48.87983" lon="2.40052">
        <ele>124.18</ele>
        <time>2020-03-13T22:16:26.000Z</time>
      </trkpt>
      <trkpt lat="48.8798" lon="2.40056">
        <ele>124.27</ele>
        <time>2020-03-13T22:16:27.000Z</time>
      </trkpt>
      <trkpt lat="48.87974" lon="2.40058">
        <ele>124.36</ele>
        <time>2020-03-13T22:16:28.000Z</time>
      </trkpt>
      <trkpt lat="48.87968" lon="2.40062">
        <ele>124.45</ele>
        <time>2020-03-13T22:16:29.000Z</time>
      </trkpt>
      <trkpt lat="48.87964" lon="2.40065">
        <ele>124.53</ele>
        <time>2020-03-13T22:16:30.000Z</time>
      </trkpt>
      <trkpt lat="48.8796" lon="2.40069">
        <ele>124.61</ele>
        <time>2020-03-13T22:16:31.000Z</time>
      </trkpt>
      <trkpt lat="48.87955" lon="2.40073">
        <ele>124.67</ele>
        <time>2020-03-13T22:16:32.000Z</time>
      </trkpt>
      <trkpt lat="48.8795" lon="2.40075">
        <ele>124.74</ele>
        <time>2020-03-13T22:16:33.000Z</time>
      </trkpt>
      <trkpt lat="48.87945" lon="2.40078">
        <ele>124.82</ele>
        <time>2020-03-13T22:16:34.000Z</time>
      </trkpt>
      <trkpt lat="48.87941" lon="2.40081">
        <ele>124.89</ele>
        <time>2020-03-13T22:16:35.000Z</time>
      </trkpt>
      <trkpt lat="48.87937" lon="2.40083">
        <ele>124.96</ele>
        <time>2020-03-13T22:16:36.000Z</time>
      </trkpt>
      <trkpt lat="48.87933" lon="2.40086">
        <ele>125.02</ele>
        <time>2020-03-13T22:16:37.000Z</time>
      </trkpt>
      <trkpt lat="48.87929" lon="2.40089">
        <ele>125.09</ele>
        <time>2020-03-13T22:16:38.000Z</time>
      </trkpt>
      <trkpt lat="48.87924" lon="2.40092">
        <ele>125.18</ele>
        <time>2020-03-13T22:16:39.000Z</time>
      </trkpt>
      <trkpt lat="48.8792" lon="2.40095">
        <ele>125.26</ele>
        <time>2020-03-13T22:16:40.000Z</time>
      </trkpt>
      <trkpt lat="48.87916" lon="2.40096">
        <ele>125.34</ele>
        <time>2020-03-13T22:16:41.000Z</time>
      </trkpt>
      <trkpt lat="48.87911" lon="2.40099">
        <ele>125.43</ele>
        <time>2020-03-13T22:16:42.000Z</time>
      </trkpt>
      <trkpt lat="48.87907" lon="2.40101">
        <ele>125.52</ele>
        <time>2020-03-13T22:16:43.000Z</time>
      </trkpt>
      <trkpt lat="48.87903" lon="2.40104">
        <ele>125.61</ele>
        <time>2020-03-13T22:16:44.000Z</time>
      </trkpt>
      <trkpt lat="48.87899" lon="2.40107">
        <ele>125.7</ele>
        <time>2020-03-13T22:16:45.000Z</time>
      </trkpt>
      <trkpt lat="48.87896" lon="2.4011">
        <ele>125.71</ele>
        <time>2020-03-13T22:16:46.000Z</time>
      </trkpt>
      <trkpt lat="48.87893" lon="2.40113">
        <ele>125.73</ele>
        <time>2020-03-13T22:16:47.000Z</time>
      </trkpt>
      <trkpt lat="48.8789" lon="2.40117">
        <ele>125.75</ele>
        <time>2020-03-13T22:16:48.000Z</time>
      </trkpt>
      <trkpt lat="48.87888" lon="2.4012">
        <ele>125.77</ele>
        <time>2020-03-13T22:16:49.000Z</time>
      </trkpt>
      <trkpt lat="48.87886" lon="2.40123">
        <ele>125.79</ele>
        <time>2020-03-13T22:16:50.000Z</time>
      </trkpt>
      <trkpt lat="48.87884" lon="2.40126">
        <ele>125.82</ele>
        <time>2020-03-13T22:16:51.000Z</time>
      </trkpt>
      <trkpt lat="48.87881" lon="2.40129">
        <ele>125.84</ele>
        <time>2020-03-13T22:16:52.000Z</time>
      </trkpt>
      <trkpt lat="48.8788" lon="2.40131">
        <ele>125.87</ele>
        <time>2020-03-13T22:16:53.000Z</time>
      </trkpt>
      <trkpt lat="48.87878" lon="2.40132">
        <ele>125.9</ele>
        <time>2020-03-13T22:16:54.000Z</time>
      </trkpt>
      <trkpt lat="48.87877" lon="2.40134">
        <ele>125.93</ele>
        <time>2020-03-13T22:16:55.000Z</time>
      </trkpt>
      <trkpt lat="48.87876" lon="2.40135">
        <ele>125.97</ele>
        <time>2020-03-13T22:16:56.000Z</time>
      </trkpt>
      <trkpt lat="48.87874" lon="2.40136">
        <ele>126</ele>
        <time>2020-03-13T22:16:57.000Z</time>
      </trkpt>
      <trkpt lat="48.87872" lon="2.40137">
        <ele>126.04</ele>
        <time>2020-03-13T22:16:58.000Z</time>
      </trkpt>
      <trkpt lat="48.87871" lon="2.40139">
        <ele>126.08</ele>
        <time>2020-03-13T22:16:59.000Z</time>
      </trkpt>
      <trkpt lat="48.8787" lon="2.4014">
        <ele>126.08</ele>
        <time>2020-03-13T22:17:00.000Z</time>
      </trkpt>
      <trkpt lat="48.87869" lon="2.40141">
        <ele>126.11</ele>
        <time>2020-03-13T22:17:06.000Z</time>
      </trkpt>
      <trkpt lat="48.87869" lon="2.40142">
        <ele>126.18</ele>
        <time>2020-03-13T22:17:13.000Z</time>
      </trkpt>
      <trkpt lat="48.87868" lon="2.40143">
        <ele>126.82</ele>
        <time>2020-03-13T22:17:48.000Z</time>
      </trkpt>
      <trkpt lat="48.87866" lon="2.40144">
        <ele>126.84</ele>
        <time>2020-03-13T22:17:49.000Z</time>
      </trkpt>
      <trkpt lat="48.87866" lon="2.40145">
        <ele>126.89</ele>
        <time>2020-03-13T22:17:51.000Z</time>
      </trkpt>
      <trkpt lat="48.87865" lon="2.40145">
        <ele>127.02</ele>
        <time>2020-03-13T22:17:57.000Z</time>
      </trkpt>
      <trkpt lat="48.87864" lon="2.40149">
        <ele>127.74</ele>
        <time>2020-03-13T22:18:04.000Z</time>
      </trkpt>
      <trkpt lat="48.87863" lon="2.40152">
        <ele>127.94</ele>
        <time>2020-03-13T22:18:05.000Z</time>
      </trkpt>
      <trkpt lat="48.87863" lon="2.40155">
        <ele>128.13</ele>
        <time>2020-03-13T22:18:06.000Z</time>
      </trkpt>
      <trkpt lat="48.87863" lon="2.40157">
        <ele>128.32</ele>
        <time>2020-03-13T22:18:07.000Z</time>
      </trkpt>
      <trkpt lat="48.87862" lon="2.40159">
        <ele>128.51</ele>
        <time>2020-03-13T22:18:08.000Z</time>
      </trkpt>
      <trkpt lat="48.87861" lon="2.40161">
        <ele>128.69</ele>
        <time>2020-03-13T22:18:09.000Z</time>
      </trkpt>
      <trkpt lat="48.8786" lon="2.40164">
        <ele>128.87</ele>
        <time>2020-03-13T22:18:10.000Z</time>
      </trkpt>
      <trkpt lat="48.87859" lon="2.40167">
        <ele>129.05</ele>
        <time>2020-03-13T22:18:11.000Z</time>
      </trkpt>
      <trkpt lat="48.87858" lon="2.40169">
        <ele>129.22</ele>
        <time>2020-03-13T22:18:12.000Z</time>
      </trkpt>
      <trkpt lat="48.87857" lon="2.40173">
        <ele>129.38</ele>
        <time>2020-03-13T22:18:13.000Z</time>
      </trkpt>
      <trkpt lat="48.87856" lon="2.40176">
        <ele>129.55</ele>
        <time>2020-03-13T22:18:14.000Z</time>
      </trkpt>
      <trkpt lat="48.87855" lon="2.40179">
        <ele>129.7</ele>
        <time>2020-03-13T22:18:15.000Z</time>
      </trkpt>
      <trkpt lat="48.87854" lon="2.40182">
        <ele>129.86</ele>
        <time>2020-03-13T22:18:16.000Z</time>
      </trkpt>
      <trkpt lat="48.87853" lon="2.40185">
        <ele>130.01</ele>
        <time>2020-03-13T22:18:17.000Z</time>
      </trkpt>
      <trkpt lat="48.87852" lon="2.40188">
        <ele>130.16</ele>
        <time>2020-03-13T22:18:18.000Z</time>
      </trkpt>
      <trkpt lat="48.8785" lon="2.40191">
        <ele>130.31</ele>
        <time>2020-03-13T22:18:19.000Z</time>
      </trkpt>
      <trkpt lat="48.87849" lon="2.40194">
        <ele>130.46</ele>
        <time>2020-03-13T22:18:20.000Z</time>
      </trkpt>
      <trkpt lat="48.87847" lon="2.40198">
        <ele>130.6</ele>
        <time>2020-03-13T22:18:21.000Z</time>
      </trkpt>
      <trkpt lat="48.87846" lon="2.40201">
        <ele>130.74</ele>
        <time>2020-03-13T22:18:22.000Z</time>
      </trkpt>
      <trkpt lat="48.87844" lon="2.40205">
        <ele>130.87</ele>
        <time>2020-03-13T22:18:23.000Z</time>
      </trkpt>
      <trkpt lat="48.87843" lon="2.4021">
        <ele>131</ele>
        <time>2020-03-13T22:18:24.000Z</time>
      </trkpt>
      <trkpt lat="48.87842" lon="2.40215">
        <ele>131.13</ele>
        <time>2020-03-13T22:18:25.000Z</time>
      </trkpt>
      <trkpt lat="48.87842" lon="2.4022">
        <ele>131.26</ele>
        <time>2020-03-13T22:18:26.000Z</time>
      </trkpt>
      <trkpt lat="48.8784" lon="2.40226">
        <ele>132.51</ele>
        <time>2020-03-13T22:18:27.000Z</time>
      </trkpt>
      <trkpt lat="48.87839" lon="2.40231">
        <ele>133.51</ele>
        <time>2020-03-13T22:18:28.000Z</time>
      </trkpt>
      <trkpt lat="48.87837" lon="2.40238">
        <ele>134.32</ele>
        <time>2020-03-13T22:18:29.000Z</time>
      </trkpt>
      <trkpt lat="48.87836" lon="2.40245">
        <ele>134.96</ele>
        <time>2020-03-13T22:18:30.000Z</time>
      </trkpt>
      <trkpt lat="48.87835" lon="2.40251">
        <ele>135.47</ele>
        <time>2020-03-13T22:18:31.000Z</time>
      </trkpt>
      <trkpt lat="48.87834" lon="2.40257">
        <ele>135.88</ele>
        <time>2020-03-13T22:18:32.000Z</time>
      </trkpt>
      <trkpt lat="48.87832" lon="2.40263">
        <ele>135.91</ele>
        <time>2020-03-13T22:18:33.000Z</time>
      </trkpt>
      <trkpt lat="48.87831" lon="2.40269">
        <ele>135.95</ele>
        <time>2020-03-13T22:18:34.000Z</time>
      </trkpt>
      <trkpt lat="48.8783" lon="2.40274">
        <ele>135.98</ele>
        <time>2020-03-13T22:18:35.000Z</time>
      </trkpt>
      <trkpt lat="48.87829" lon="2.40279">
        <ele>136.01</ele>
        <time>2020-03-13T22:18:36.000Z</time>
      </trkpt>
      <trkpt lat="48.87828" lon="2.40284">
        <ele>136.04</ele>
        <time>2020-03-13T22:18:37.000Z</time>
      </trkpt>
      <trkpt lat="48.87827" lon="2.40289">
        <ele>136.07</ele>
        <time>2020-03-13T22:18:38.000Z</time>
      </trkpt>
      <trkpt lat="48.87826" lon="2.40295">
        <ele>136.09</ele>
        <time>2020-03-13T22:18:39.000Z</time>
      </trkpt>
      <trkpt lat="48.87825" lon="2.40301">
        <ele>136.12</ele>
        <time>2020-03-13T22:18:40.000Z</time>
      </trkpt>
      <trkpt lat="48.87824" lon="2.40306">
        <ele>136.15</ele>
        <time>2020-03-13T22:18:41.000Z</time>
      </trkpt>
      <trkpt lat="48.87823" lon="2.40313">
        <ele>136.17</ele>
        <time>2020-03-13T22:18:42.000Z</time>
      </trkpt>
      <trkpt lat="48.87822" lon="2.40319">
        <ele>136.43</ele>
        <time>2020-03-13T22:18:43.000Z</time>
      </trkpt>
      <trkpt lat="48.87821" lon="2.40325">
        <ele>136.64</ele>
        <time>2020-03-13T22:18:44.000Z</time>
      </trkpt>
      <trkpt lat="48.8782" lon="2.40331">
        <ele>136.8</ele>
        <time>2020-03-13T22:18:45.000Z</time>
      </trkpt>
      <trkpt lat="48.87818" lon="2.40338">
        <ele>136.93</ele>
        <time>2020-03-13T22:18:46.000Z</time>
      </trkpt>
      <trkpt lat="48.87817" lon="2.40344">
        <ele>137.03</ele>
        <time>2020-03-13T22:18:47.000Z</time>
      </trkpt>
      <trkpt lat="48.87816" lon="2.40351">
        <ele>137.11</ele>
        <time>2020-03-13T22:18:48.000Z</time>
      </trkpt>
      <trkpt lat="48.87814" lon="2.40357">
        <ele>137.17</ele>
        <time>2020-03-13T22:18:49.000Z</time>
      </trkpt>
      <trkpt lat="48.87813" lon="2.40364">
        <ele>137.22</ele>
        <time>2020-03-13T22:18:50.000Z</time>
      </trkpt>
      <trkpt lat="48.87811" lon="2.4037">
        <ele>137.26</ele>
        <time>2020-03-13T22:18:51.000Z</time>
      </trkpt>
      <trkpt lat="48.8781" lon="2.40376">
        <ele>137.28</ele>
        <time>2020-03-13T22:18:52.000Z</time>
      </trkpt>
      <trkpt lat="48.87809" lon="2.40382">
        <ele>137.29</ele>
        <time>2020-03-13T22:18:53.000Z</time>
      </trkpt>
      <trkpt lat="48.87807" lon="2.40389">
        <ele>137.31</ele>
        <time>2020-03-13T22:18:54.000Z</time>
      </trkpt>
      <trkpt lat="48.87806" lon="2.40395">
        <ele>137.31</ele>
        <time>2020-03-13T22:18:55.000Z</time>
      </trkpt>
      <trkpt lat="48.87804" lon="2.40402">
        <ele>137.32</ele>
        <time>2020-03-13T22:18:56.000Z</time>
      </trkpt>
      <trkpt lat="48.87803" lon="2.40409">
        <ele>137.33</ele>
        <time>2020-03-13T22:18:57.000Z</time>
      </trkpt>
      <trkpt lat="48.87802" lon="2.40415">
        <ele>137.33</ele>
        <time>2020-03-13T22:18:58.000Z</time>
      </trkpt>
      <trkpt lat="48.87801" lon="2.4042">
        <ele>137.33</ele>
        <time>2020-03-13T22:18:59.000Z</time>
      </trkpt>
      <trkpt lat="48.87799" lon="2.40426">
        <ele>137.33</ele>
        <time>2020-03-13T22:19:00.000Z</time>
      </trkpt>
      <trkpt lat="48.87798" lon="2.40432">
        <ele>137.33</ele>
        <time>2020-03-13T22:19:01.000Z</time>
      </trkpt>
      <trkpt lat="48.87796" lon="2.40438">
        <ele>137.33</ele>
        <time>2020-03-13T22:19:02.000Z</time>
      </trkpt>
      <trkpt lat="48.87795" lon="2.40444">
        <ele>137.33</ele>
        <time>2020-03-13T22:19:03.000Z</time>
      </trkpt>
      <trkpt lat="48.87794" lon="2.40449">
        <ele>137.33</ele>
        <time>2020-03-13T22:19:04.000Z</time>
      </trkpt>
      <trkpt lat="48.87792" lon="2.40455">
        <ele>137.33</ele>
        <time>2020-03-13T22:19:05.000Z</time>
      </trkpt>
      <trkpt lat="48.87791" lon="2.40461">
        <ele>137.32</ele>
        <time>2020-03-13T22:19:06.000Z</time>
      </trkpt>
      <trkpt lat="48.8779" lon="2.40467">
        <ele>137.32</ele>
        <time>2020-03-13T22:19:07.000Z</time>
      </trkpt>
      <trkpt lat="48.87789" lon="2.40474">
        <ele>137.32</ele>
        <time>2020-03-13T22:19:08.000Z</time>
      </trkpt>
      <trkpt lat="48.87788" lon="2.40479">
        <ele>137.32</ele>
        <time>2020-03-13T22:19:09.000Z</time>
      </trkpt>
      <trkpt lat="48.87786" lon="2.40485">
        <ele>137.32</ele>
        <time>2020-03-13T22:19:10.000Z</time>
      </trkpt>
      <trkpt lat="48.87785" lon="2.40492">
        <ele>137.32</ele>
        <time>2020-03-13T22:19:11.000Z</time>
      </trkpt>
      <trkpt lat="48.87783" lon="2.40497">
        <ele>137.34</ele>
        <time>2020-03-13T22:19:12.000Z</time>
      </trkpt>
      <trkpt lat="48.87781" lon="2.40502">
        <ele>137.35</ele>
        <time>2020-03-13T22:19:13.000Z</time>
      </trkpt>
      <trkpt lat="48.87779" lon="2.40508">
        <ele>137.36</ele>
        <time>2020-03-13T22:19:14.000Z</time>
      </trkpt>
      <trkpt lat="48.87778" lon="2.40514">
        <ele>137.38</ele>
        <time>2020-03-13T22:19:15.000Z</time>
      </trkpt>
      <trkpt lat="48.87776" lon="2.4052">
        <ele>137.39</ele>
        <time>2020-03-13T22:19:16.000Z</time>
      </trkpt>
      <trkpt lat="48.87775" lon="2.40526">
        <ele>137.39</ele>
        <time>2020-03-13T22:19:17.000Z</time>
      </trkpt>
      <trkpt lat="48.87774" lon="2.40532">
        <ele>137.4</ele>
        <time>2020-03-13T22:19:18.000Z</time>
      </trkpt>
      <trkpt lat="48.87774" lon="2.40539">
        <ele>137.41</ele>
        <time>2020-03-13T22:19:19.000Z</time>
      </trkpt>
      <trkpt lat="48.87773" lon="2.40545">
        <ele>137.41</ele>
        <time>2020-03-13T22:19:20.000Z</time>
      </trkpt>
      <trkpt lat="48.87772" lon="2.40552">
        <ele>137.41</ele>
        <time>2020-03-13T22:19:21.000Z</time>
      </trkpt>
      <trkpt lat="48.8777" lon="2.40557">
        <ele>137.41</ele>
        <time>2020-03-13T22:19:22.000Z</time>
      </trkpt>
      <trkpt lat="48.8777" lon="2.40564">
        <ele>137.42</ele>
        <time>2020-03-13T22:19:23.000Z</time>
      </trkpt>
      <trkpt lat="48.87769" lon="2.4057">
        <ele>137.42</ele>
        <time>2020-03-13T22:19:24.000Z</time>
      </trkpt>
      <trkpt lat="48.87768" lon="2.40575">
        <ele>137.43</ele>
        <time>2020-03-13T22:19:25.000Z</time>
      </trkpt>
      <trkpt lat="48.87767" lon="2.40581">
        <ele>137.44</ele>
        <time>2020-03-13T22:19:26.000Z</time>
      </trkpt>
      <trkpt lat="48.87765" lon="2.40586">
        <ele>137.44</ele>
        <time>2020-03-13T22:19:27.000Z</time>
      </trkpt>
      <trkpt lat="48.87763" lon="2.40591">
        <ele>137.44</ele>
        <time>2020-03-13T22:19:28.000Z</time>
      </trkpt>
      <trkpt lat="48.87762" lon="2.40595">
        <ele>137.44</ele>
        <time>2020-03-13T22:19:29.000Z</time>
      </trkpt>
      <trkpt lat="48.87761" lon="2.406">
        <ele>137.44</ele>
        <time>2020-03-13T22:19:30.000Z</time>
      </trkpt>
      <trkpt lat="48.87759" lon="2.40603">
        <ele>137.45</ele>
        <time>2020-03-13T22:19:31.000Z</time>
      </trkpt>
      <trkpt lat="48.87757" lon="2.40607">
        <ele>137.45</ele>
        <time>2020-03-13T22:19:32.000Z</time>
      </trkpt>
      <trkpt lat="48.87755" lon="2.4061">
        <ele>137.46</ele>
        <time>2020-03-13T22:19:33.000Z</time>
      </trkpt>
      <trkpt lat="48.87752" lon="2.40613">
        <ele>137.47</ele>
        <time>2020-03-13T22:19:34.000Z</time>
      </trkpt>
      <trkpt lat="48.8775" lon="2.40616">
        <ele>137.48</ele>
        <time>2020-03-13T22:19:35.000Z</time>
      </trkpt>
      <trkpt lat="48.87748" lon="2.40618">
        <ele>137.49</ele>
        <time>2020-03-13T22:19:36.000Z</time>
      </trkpt>
      <trkpt lat="48.87746" lon="2.40618">
        <ele>137.5</ele>
        <time>2020-03-13T22:19:37.000Z</time>
      </trkpt>
      <trkpt lat="48.87744" lon="2.4062">
        <ele>137.51</ele>
        <time>2020-03-13T22:19:38.000Z</time>
      </trkpt>
      <trkpt lat="48.87742" lon="2.40621">
        <ele>137.52</ele>
        <time>2020-03-13T22:19:39.000Z</time>
      </trkpt>
      <trkpt lat="48.87739" lon="2.40622">
        <ele>137.53</ele>
        <time>2020-03-13T22:19:40.000Z</time>
      </trkpt>
      <trkpt lat="48.87737" lon="2.40624">
        <ele>137.54</ele>
        <time>2020-03-13T22:19:41.000Z</time>
      </trkpt>
      <trkpt lat="48.87735" lon="2.40625">
        <ele>137.56</ele>
        <time>2020-03-13T22:19:42.000Z</time>
      </trkpt>
      <trkpt lat="48.87733" lon="2.40626">
        <ele>137.58</ele>
        <time>2020-03-13T22:19:43.000Z</time>
      </trkpt>
      <trkpt lat="48.87731" lon="2.40627">
        <ele>137.59</ele>
        <time>2020-03-13T22:19:44.000Z</time>
      </trkpt>
      <trkpt lat="48.87729" lon="2.40628">
        <ele>137.61</ele>
        <time>2020-03-13T22:19:45.000Z</time>
      </trkpt>
      <trkpt lat="48.87727" lon="2.40628">
        <ele>137.63</ele>
        <time>2020-03-13T22:19:46.000Z</time>
      </trkpt>
      <trkpt lat="48.87725" lon="2.40628">
        <ele>137.65</ele>
        <time>2020-03-13T22:19:47.000Z</time>
      </trkpt>
      <trkpt lat="48.87724" lon="2.40628">
        <ele>137.67</ele>
        <time>2020-03-13T22:19:48.000Z</time>
      </trkpt>
      <trkpt lat="48.87721" lon="2.40628">
        <ele>137.7</ele>
        <time>2020-03-13T22:19:49.000Z</time>
      </trkpt>
      <trkpt lat="48.87719" lon="2.40628">
        <ele>137.72</ele>
        <time>2020-03-13T22:19:50.000Z</time>
      </trkpt>
      <trkpt lat="48.87717" lon="2.40629">
        <ele>137.74</ele>
        <time>2020-03-13T22:19:51.000Z</time>
      </trkpt>
      <trkpt lat="48.87715" lon="2.40629">
        <ele>137.77</ele>
        <time>2020-03-13T22:19:52.000Z</time>
      </trkpt>
      <trkpt lat="48.87714" lon="2.4063">
        <ele>137.79</ele>
        <time>2020-03-13T22:19:53.000Z</time>
      </trkpt>
      <trkpt lat="48.87712" lon="2.4063">
        <ele>137.82</ele>
        <time>2020-03-13T22:19:54.000Z</time>
      </trkpt>
      <trkpt lat="48.8771" lon="2.4063">
        <ele>137.84</ele>
        <time>2020-03-13T22:19:55.000Z</time>
      </trkpt>
      <trkpt lat="48.87708" lon="2.40631">
        <ele>137.87</ele>
        <time>2020-03-13T22:19:56.000Z</time>
      </trkpt>
      <trkpt lat="48.87706" lon="2.40631">
        <ele>137.9</ele>
        <time>2020-03-13T22:19:57.000Z</time>
      </trkpt>
      <trkpt lat="48.87704" lon="2.40632">
        <ele>137.93</ele>
        <time>2020-03-13T22:19:58.000Z</time>
      </trkpt>
      <trkpt lat="48.87703" lon="2.40634">
        <ele>137.95</ele>
        <time>2020-03-13T22:19:59.000Z</time>
      </trkpt>
      <trkpt lat="48.87702" lon="2.40635">
        <ele>137.98</ele>
        <time>2020-03-13T22:20:00.000Z</time>
      </trkpt>
      <trkpt lat="48.87701" lon="2.40636">
        <ele>138.01</ele>
        <time>2020-03-13T22:20:01.000Z</time>
      </trkpt>
      <trkpt lat="48.87698" lon="2.40637">
        <ele>138.04</ele>
        <time>2020-03-13T22:20:02.000Z</time>
      </trkpt>
      <trkpt lat="48.87697" lon="2.40638">
        <ele>138.08</ele>
        <time>2020-03-13T22:20:03.000Z</time>
      </trkpt>
      <trkpt lat="48.87696" lon="2.40643">
        <ele>138.11</ele>
        <time>2020-03-13T22:20:04.000Z</time>
      </trkpt>
      <trkpt lat="48.87695" lon="2.40646">
        <ele>138.12</ele>
        <time>2020-03-13T22:20:05.000Z</time>
      </trkpt>
      <trkpt lat="48.8769" lon="2.40652">
        <ele>138.12</ele>
        <time>2020-03-13T22:20:06.000Z</time>
      </trkpt>
      <trkpt lat="48.87687" lon="2.40658">
        <ele>138.13</ele>
        <time>2020-03-13T22:20:07.000Z</time>
      </trkpt>
      <trkpt lat="48.87683" lon="2.40663">
        <ele>138.19</ele>
        <time>2020-03-13T22:20:10.000Z</time>
      </trkpt>
      <trkpt lat="48.87682" lon="2.40664">
        <ele>138.25</ele>
        <time>2020-03-13T22:20:11.000Z</time>
      </trkpt>
      <trkpt lat="48.87681" lon="2.40664">
        <ele>138.32</ele>
        <time>2020-03-13T22:20:13.000Z</time>
      </trkpt>
      <trkpt lat="48.87682" lon="2.40659">
        <ele>138.48</ele>
        <time>2020-03-13T22:20:21.000Z</time>
      </trkpt>
      <trkpt lat="48.87682" lon="2.40658">
        <ele>138.62</ele>
        <time>2020-03-13T22:20:25.000Z</time>
      </trkpt>
      <trkpt lat="48.87684" lon="2.40657">
        <ele>138.89</ele>
        <time>2020-03-13T22:20:35.000Z</time>
      </trkpt>
      <trkpt lat="48.87685" lon="2.40656">
        <ele>138.97</ele>
        <time>2020-03-13T22:20:36.000Z</time>
      </trkpt>
      <trkpt lat="48.87686" lon="2.40658">
        <ele>139.11</ele>
        <time>2020-03-13T22:20:38.000Z</time>
      </trkpt>
      <trkpt lat="48.87689" lon="2.40655">
        <ele>139.26</ele>
        <time>2020-03-13T22:20:40.000Z</time>
      </trkpt>
      <trkpt lat="48.87691" lon="2.40654">
        <ele>139.33</ele>
        <time>2020-03-13T22:20:41.000Z</time>
      </trkpt>
      <trkpt lat="48.87692" lon="2.40652">
        <ele>139.4</ele>
        <time>2020-03-13T22:20:42.000Z</time>
      </trkpt>
      <trkpt lat="48.87692" lon="2.4065">
        <ele>139.47</ele>
        <time>2020-03-13T22:20:43.000Z</time>
      </trkpt>
      <trkpt lat="48.87693" lon="2.40649">
        <ele>139.54</ele>
        <time>2020-03-13T22:20:45.000Z</time>
      </trkpt>
      <trkpt lat="48.87693" lon="2.40647">
        <ele>139.56</ele>
        <time>2020-03-13T22:20:48.000Z</time>
      </trkpt>
      <trkpt lat="48.87692" lon="2.40645">
        <ele>139.63</ele>
        <time>2020-03-13T22:20:49.000Z</time>
      </trkpt>
      <trkpt lat="48.87691" lon="2.40645">
        <ele>139.69</ele>
        <time>2020-03-13T22:20:50.000Z</time>
      </trkpt>
      <trkpt lat="48.87693" lon="2.40644">
        <ele>139.96</ele>
        <time>2020-03-13T22:21:04.000Z</time>
      </trkpt>
      <trkpt lat="48.87692" lon="2.40647">
        <ele>140.1</ele>
        <time>2020-03-13T22:21:06.000Z</time>
      </trkpt>
      <trkpt lat="48.87691" lon="2.4065">
        <ele>140.16</ele>
        <time>2020-03-13T22:21:07.000Z</time>
      </trkpt>
      <trkpt lat="48.87689" lon="2.40653">
        <ele>140.23</ele>
        <time>2020-03-13T22:21:08.000Z</time>
      </trkpt>
      <trkpt lat="48.87688" lon="2.40655">
        <ele>140.29</ele>
        <time>2020-03-13T22:21:09.000Z</time>
      </trkpt>
      <trkpt lat="48.87686" lon="2.40658">
        <ele>140.36</ele>
        <time>2020-03-13T22:21:10.000Z</time>
      </trkpt>
      <trkpt lat="48.87684" lon="2.40659">
        <ele>140.43</ele>
        <time>2020-03-13T22:21:11.000Z</time>
      </trkpt>
      <trkpt lat="48.87681" lon="2.40661">
        <ele>140.49</ele>
        <time>2020-03-13T22:21:12.000Z</time>
      </trkpt>
      <trkpt lat="48.87678" lon="2.40664">
        <ele>140.56</ele>
        <time>2020-03-13T22:21:13.000Z</time>
      </trkpt>
      <trkpt lat="48.87676" lon="2.40669">
        <ele>140.62</ele>
        <time>2020-03-13T22:21:14.000Z</time>
      </trkpt>
      <trkpt lat="48.87674" lon="2.40671">
        <ele>140.69</ele>
        <time>2020-03-13T22:21:15.000Z</time>
      </trkpt>
      <trkpt lat="48.87672" lon="2.40673">
        <ele>140.76</ele>
        <time>2020-03-13T22:21:16.000Z</time>
      </trkpt>
      <trkpt lat="48.87669" lon="2.40676">
        <ele>140.82</ele>
        <time>2020-03-13T22:21:17.000Z</time>
      </trkpt>
      <trkpt lat="48.87665" lon="2.40678">
        <ele>140.89</ele>
        <time>2020-03-13T22:21:18.000Z</time>
      </trkpt>
      <trkpt lat="48.87662" lon="2.40682">
        <ele>140.95</ele>
        <time>2020-03-13T22:21:19.000Z</time>
      </trkpt>
      <trkpt lat="48.87657" lon="2.40684">
        <ele>141.6</ele>
        <time>2020-03-13T22:21:20.000Z</time>
      </trkpt>
      <trkpt lat="48.87652" lon="2.40686">
        <ele>142.13</ele>
        <time>2020-03-13T22:21:21.000Z</time>
      </trkpt>
      <trkpt lat="48.87646" lon="2.40689">
        <ele>142.56</ele>
        <time>2020-03-13T22:21:22.000Z</time>
      </trkpt>
      <trkpt lat="48.87641" lon="2.40691">
        <ele>142.91</ele>
        <time>2020-03-13T22:21:23.000Z</time>
      </trkpt>
      <trkpt lat="48.87636" lon="2.40692">
        <ele>143.21</ele>
        <time>2020-03-13T22:21:24.000Z</time>
      </trkpt>
      <trkpt lat="48.87631" lon="2.40693">
        <ele>143.45</ele>
        <time>2020-03-13T22:21:25.000Z</time>
      </trkpt>
      <trkpt lat="48.87627" lon="2.40695">
        <ele>143.66</ele>
        <time>2020-03-13T22:21:26.000Z</time>
      </trkpt>
      <trkpt lat="48.87623" lon="2.40697">
        <ele>143.83</ele>
        <time>2020-03-13T22:21:27.000Z</time>
      </trkpt>
      <trkpt lat="48.87619" lon="2.407">
        <ele>143.97</ele>
        <time>2020-03-13T22:21:28.000Z</time>
      </trkpt>
      <trkpt lat="48.87613" lon="2.40701">
        <ele>144.09</ele>
        <time>2020-03-13T22:21:29.000Z</time>
      </trkpt>
      <trkpt lat="48.87611" lon="2.40707">
        <ele>144.2</ele>
        <time>2020-03-13T22:21:30.000Z</time>
      </trkpt>
      <trkpt lat="48.87606" lon="2.4071">
        <ele>144.3</ele>
        <time>2020-03-13T22:21:31.000Z</time>
      </trkpt>
      <trkpt lat="48.876" lon="2.4071">
        <ele>144.39</ele>
        <time>2020-03-13T22:21:32.000Z</time>
      </trkpt>
      <trkpt lat="48.87597" lon="2.40714">
        <ele>144.47</ele>
        <time>2020-03-13T22:21:33.000Z</time>
      </trkpt>
      <trkpt lat="48.87594" lon="2.40716">
        <ele>144.64</ele>
        <time>2020-03-13T22:21:34.000Z</time>
      </trkpt>
      <trkpt lat="48.87589" lon="2.40718">
        <ele>144.62</ele>
        <time>2020-03-13T22:21:35.000Z</time>
      </trkpt>
      <trkpt lat="48.87584" lon="2.40719">
        <ele>144.57</ele>
        <time>2020-03-13T22:21:36.000Z</time>
      </trkpt>
      <trkpt lat="48.87579" lon="2.40718">
        <ele>144.76</ele>
        <time>2020-03-13T22:21:37.000Z</time>
      </trkpt>
      <trkpt lat="48.87574" lon="2.40718">
        <ele>145.02</ele>
        <time>2020-03-13T22:21:38.000Z</time>
      </trkpt>
      <trkpt lat="48.8757" lon="2.40722">
        <ele>145.04</ele>
        <time>2020-03-13T22:21:39.000Z</time>
      </trkpt>
      <trkpt lat="48.87565" lon="2.40724">
        <ele>144.87</ele>
        <time>2020-03-13T22:21:40.000Z</time>
      </trkpt>
      <trkpt lat="48.87561" lon="2.40725">
        <ele>144.86</ele>
        <time>2020-03-13T22:21:41.000Z</time>
      </trkpt>
      <trkpt lat="48.87556" lon="2.40725">
        <ele>144.97</ele>
        <time>2020-03-13T22:21:42.000Z</time>
      </trkpt>
      <trkpt lat="48.87552" lon="2.40727">
        <ele>145.05</ele>
        <time>2020-03-13T22:21:43.000Z</time>
      </trkpt>
      <trkpt lat="48.87548" lon="2.4073">
        <ele>145.2</ele>
        <time>2020-03-13T22:21:44.000Z</time>
      </trkpt>
      <trkpt lat="48.87544" lon="2.40733">
        <ele>145.46</ele>
        <time>2020-03-13T22:21:45.000Z</time>
      </trkpt>
      <trkpt lat="48.8754" lon="2.40736">
        <ele>145.82</ele>
        <time>2020-03-13T22:21:46.000Z</time>
      </trkpt>
      <trkpt lat="48.87535" lon="2.4074">
        <ele>146.26</ele>
        <time>2020-03-13T22:21:47.000Z</time>
      </trkpt>
      <trkpt lat="48.8753" lon="2.40742">
        <ele>146.7</ele>
        <time>2020-03-13T22:21:48.000Z</time>
      </trkpt>
      <trkpt lat="48.87526" lon="2.40744">
        <ele>147.11</ele>
        <time>2020-03-13T22:21:49.000Z</time>
      </trkpt>
      <trkpt lat="48.87521" lon="2.40746">
        <ele>147.49</ele>
        <time>2020-03-13T22:21:50.000Z</time>
      </trkpt>
      <trkpt lat="48.87517" lon="2.40749">
        <ele>147.84</ele>
        <time>2020-03-13T22:21:51.000Z</time>
      </trkpt>
      <trkpt lat="48.87512" lon="2.40752">
        <ele>148.22</ele>
        <time>2020-03-13T22:21:52.000Z</time>
      </trkpt>
      <trkpt lat="48.87508" lon="2.40755">
        <ele>148.65</ele>
        <time>2020-03-13T22:21:53.000Z</time>
      </trkpt>
      <trkpt lat="48.87503" lon="2.40758">
        <ele>149.04</ele>
        <time>2020-03-13T22:21:54.000Z</time>
      </trkpt>
      <trkpt lat="48.87498" lon="2.40761">
        <ele>149.41</ele>
        <time>2020-03-13T22:21:55.000Z</time>
      </trkpt>
      <trkpt lat="48.87493" lon="2.40763">
        <ele>149.76</ele>
        <time>2020-03-13T22:21:56.000Z</time>
      </trkpt>
      <trkpt lat="48.87487" lon="2.40766">
        <ele>150.12</ele>
        <time>2020-03-13T22:21:57.000Z</time>
      </trkpt>
      <trkpt lat="48.87482" lon="2.40769">
        <ele>150.49</ele>
        <time>2020-03-13T22:21:58.000Z</time>
      </trkpt>
      <trkpt lat="48.87477" lon="2.40773">
        <ele>150.82</ele>
        <time>2020-03-13T22:21:59.000Z</time>
      </trkpt>
      <trkpt lat="48.87471" lon="2.40776">
        <ele>151.22</ele>
        <time>2020-03-13T22:22:00.000Z</time>
      </trkpt>
      <trkpt lat="48.87466" lon="2.40778">
        <ele>151.63</ele>
        <time>2020-03-13T22:22:01.000Z</time>
      </trkpt>
      <trkpt lat="48.87459" lon="2.40781">
        <ele>152.05</ele>
        <time>2020-03-13T22:22:02.000Z</time>
      </trkpt>
      <trkpt lat="48.87454" lon="2.40784">
        <ele>152.49</ele>
        <time>2020-03-13T22:22:03.000Z</time>
      </trkpt>
      <trkpt lat="48.87448" lon="2.40786">
        <ele>152.92</ele>
        <time>2020-03-13T22:22:04.000Z</time>
      </trkpt>
      <trkpt lat="48.87443" lon="2.40789">
        <ele>153.32</ele>
        <time>2020-03-13T22:22:05.000Z</time>
      </trkpt>
      <trkpt lat="48.87438" lon="2.40792">
        <ele>153.62</ele>
        <time>2020-03-13T22:22:06.000Z</time>
      </trkpt>
      <trkpt lat="48.87434" lon="2.40794">
        <ele>153.91</ele>
        <time>2020-03-13T22:22:07.000Z</time>
      </trkpt>
      <trkpt lat="48.87429" lon="2.40797">
        <ele>154.2</ele>
        <time>2020-03-13T22:22:08.000Z</time>
      </trkpt>
      <trkpt lat="48.87424" lon="2.40799">
        <ele>154.48</ele>
        <time>2020-03-13T22:22:09.000Z</time>
      </trkpt>
      <trkpt lat="48.87419" lon="2.40801">
        <ele>154.73</ele>
        <time>2020-03-13T22:22:10.000Z</time>
      </trkpt>
      <trkpt lat="48.87414" lon="2.40803">
        <ele>154.97</ele>
        <time>2020-03-13T22:22:11.000Z</time>
      </trkpt>
      <trkpt lat="48.8741" lon="2.40805">
        <ele>155.18</ele>
        <time>2020-03-13T22:22:12.000Z</time>
      </trkpt>
      <trkpt lat="48.87405" lon="2.40807">
        <ele>155.38</ele>
        <time>2020-03-13T22:22:13.000Z</time>
      </trkpt>
      <trkpt lat="48.874" lon="2.40808">
        <ele>155.56</ele>
        <time>2020-03-13T22:22:14.000Z</time>
      </trkpt>
      <trkpt lat="48.87396" lon="2.4081">
        <ele>155.73</ele>
        <time>2020-03-13T22:22:15.000Z</time>
      </trkpt>
      <trkpt lat="48.87391" lon="2.40811">
        <ele>155.9</ele>
        <time>2020-03-13T22:22:16.000Z</time>
      </trkpt>
      <trkpt lat="48.87387" lon="2.40813">
        <ele>156.08</ele>
        <time>2020-03-13T22:22:17.000Z</time>
      </trkpt>
      <trkpt lat="48.87381" lon="2.40815">
        <ele>156.29</ele>
        <time>2020-03-13T22:22:18.000Z</time>
      </trkpt>
      <trkpt lat="48.87376" lon="2.40817">
        <ele>156.44</ele>
        <time>2020-03-13T22:22:19.000Z</time>
      </trkpt>
      <trkpt lat="48.8737" lon="2.4082">
        <ele>156.57</ele>
        <time>2020-03-13T22:22:20.000Z</time>
      </trkpt>
      <trkpt lat="48.87366" lon="2.40822">
        <ele>156.61</ele>
        <time>2020-03-13T22:22:21.000Z</time>
      </trkpt>
      <trkpt lat="48.87361" lon="2.40824">
        <ele>156.67</ele>
        <time>2020-03-13T22:22:22.000Z</time>
      </trkpt>
      <trkpt lat="48.87356" lon="2.40826">
        <ele>156.75</ele>
        <time>2020-03-13T22:22:23.000Z</time>
      </trkpt>
      <trkpt lat="48.87351" lon="2.40828">
        <ele>156.84</ele>
        <time>2020-03-13T22:22:24.000Z</time>
      </trkpt>
      <trkpt lat="48.87346" lon="2.40829">
        <ele>156.95</ele>
        <time>2020-03-13T22:22:25.000Z</time>
      </trkpt>
      <trkpt lat="48.87341" lon="2.4083">
        <ele>157.06</ele>
        <time>2020-03-13T22:22:26.000Z</time>
      </trkpt>
      <trkpt lat="48.87336" lon="2.40831">
        <ele>157.19</ele>
        <time>2020-03-13T22:22:27.000Z</time>
      </trkpt>
      <trkpt lat="48.87331" lon="2.40832">
        <ele>157.23</ele>
        <time>2020-03-13T22:22:28.000Z</time>
      </trkpt>
      <trkpt lat="48.87325" lon="2.40833">
        <ele>157.27</ele>
        <time>2020-03-13T22:22:29.000Z</time>
      </trkpt>
      <trkpt lat="48.8732" lon="2.40835">
        <ele>157.32</ele>
        <time>2020-03-13T22:22:30.000Z</time>
      </trkpt>
      <trkpt lat="48.87314" lon="2.40836">
        <ele>157.41</ele>
        <time>2020-03-13T22:22:31.000Z</time>
      </trkpt>
      <trkpt lat="48.87308" lon="2.40837">
        <ele>157.51</ele>
        <time>2020-03-13T22:22:32.000Z</time>
      </trkpt>
      <trkpt lat="48.87302" lon="2.40838">
        <ele>157.59</ele>
        <time>2020-03-13T22:22:33.000Z</time>
      </trkpt>
      <trkpt lat="48.87295" lon="2.40839">
        <ele>157.69</ele>
        <time>2020-03-13T22:22:34.000Z</time>
      </trkpt>
      <trkpt lat="48.87289" lon="2.40839">
        <ele>157.82</ele>
        <time>2020-03-13T22:22:35.000Z</time>
      </trkpt>
      <trkpt lat="48.87282" lon="2.4084">
        <ele>157.99</ele>
        <time>2020-03-13T22:22:36.000Z</time>
      </trkpt>
      <trkpt lat="48.87275" lon="2.40841">
        <ele>158.14</ele>
        <time>2020-03-13T22:22:37.000Z</time>
      </trkpt>
      <trkpt lat="48.87268" lon="2.40841">
        <ele>158.31</ele>
        <time>2020-03-13T22:22:38.000Z</time>
      </trkpt>
      <trkpt lat="48.87262" lon="2.40843">
        <ele>158.47</ele>
        <time>2020-03-13T22:22:39.000Z</time>
      </trkpt>
      <trkpt lat="48.87255" lon="2.40843">
        <ele>158.61</ele>
        <time>2020-03-13T22:22:40.000Z</time>
      </trkpt>
      <trkpt lat="48.87249" lon="2.40843">
        <ele>158.72</ele>
        <time>2020-03-13T22:22:41.000Z</time>
      </trkpt>
      <trkpt lat="48.87242" lon="2.40843">
        <ele>158.81</ele>
        <time>2020-03-13T22:22:42.000Z</time>
      </trkpt>
      <trkpt lat="48.87235" lon="2.40842">
        <ele>158.88</ele>
        <time>2020-03-13T22:22:43.000Z</time>
      </trkpt>
      <trkpt lat="48.87229" lon="2.40844">
        <ele>158.93</ele>
        <time>2020-03-13T22:22:44.000Z</time>
      </trkpt>
      <trkpt lat="48.87222" lon="2.40846">
        <ele>158.95</ele>
        <time>2020-03-13T22:22:45.000Z</time>
      </trkpt>
      <trkpt lat="48.87216" lon="2.40846">
        <ele>158.95</ele>
        <time>2020-03-13T22:22:46.000Z</time>
      </trkpt>
      <trkpt lat="48.8721" lon="2.40847">
        <ele>158.97</ele>
        <time>2020-03-13T22:22:47.000Z</time>
      </trkpt>
      <trkpt lat="48.87204" lon="2.40849">
        <ele>158.99</ele>
        <time>2020-03-13T22:22:48.000Z</time>
      </trkpt>
      <trkpt lat="48.87198" lon="2.40851">
        <ele>158.99</ele>
        <time>2020-03-13T22:22:49.000Z</time>
      </trkpt>
      <trkpt lat="48.87191" lon="2.40854">
        <ele>159.04</ele>
        <time>2020-03-13T22:22:50.000Z</time>
      </trkpt>
      <trkpt lat="48.87185" lon="2.40856">
        <ele>159.03</ele>
        <time>2020-03-13T22:22:51.000Z</time>
      </trkpt>
      <trkpt lat="48.87179" lon="2.40856">
        <ele>159</ele>
        <time>2020-03-13T22:22:52.000Z</time>
      </trkpt>
      <trkpt lat="48.87173" lon="2.40856">
        <ele>159.12</ele>
        <time>2020-03-13T22:22:53.000Z</time>
      </trkpt>
      <trkpt lat="48.87167" lon="2.40857">
        <ele>159.16</ele>
        <time>2020-03-13T22:22:54.000Z</time>
      </trkpt>
      <trkpt lat="48.87161" lon="2.40859">
        <ele>159.05</ele>
        <time>2020-03-13T22:22:55.000Z</time>
      </trkpt>
      <trkpt lat="48.87154" lon="2.40859">
        <ele>158.9</ele>
        <time>2020-03-13T22:22:56.000Z</time>
      </trkpt>
      <trkpt lat="48.87147" lon="2.40859">
        <ele>158.81</ele>
        <time>2020-03-13T22:22:57.000Z</time>
      </trkpt>
      <trkpt lat="48.87141" lon="2.40861">
        <ele>158.76</ele>
        <time>2020-03-13T22:22:58.000Z</time>
      </trkpt>
      <trkpt lat="48.87135" lon="2.40863">
        <ele>158.76</ele>
        <time>2020-03-13T22:22:59.000Z</time>
      </trkpt>
      <trkpt lat="48.87129" lon="2.40864">
        <ele>158.73</ele>
        <time>2020-03-13T22:23:00.000Z</time>
      </trkpt>
      <trkpt lat="48.87124" lon="2.40865">
        <ele>158.68</ele>
        <time>2020-03-13T22:23:01.000Z</time>
      </trkpt>
      <trkpt lat="48.87112" lon="2.40867">
        <ele>158.64</ele>
        <time>2020-03-13T22:23:03.000Z</time>
      </trkpt>
      <trkpt lat="48.87106" lon="2.40868">
        <ele>158.6</ele>
        <time>2020-03-13T22:23:04.000Z</time>
      </trkpt>
      <trkpt lat="48.871" lon="2.4087">
        <ele>158.52</ele>
        <time>2020-03-13T22:23:05.000Z</time>
      </trkpt>
      <trkpt lat="48.87095" lon="2.40871">
        <ele>158.61</ele>
        <time>2020-03-13T22:23:06.000Z</time>
      </trkpt>
      <trkpt lat="48.8709" lon="2.40874">
        <ele>158.85</ele>
        <time>2020-03-13T22:23:07.000Z</time>
      </trkpt>
      <trkpt lat="48.87084" lon="2.40874">
        <ele>158.98</ele>
        <time>2020-03-13T22:23:08.000Z</time>
      </trkpt>
      <trkpt lat="48.87079" lon="2.40873">
        <ele>159.17</ele>
        <time>2020-03-13T22:23:09.000Z</time>
      </trkpt>
      <trkpt lat="48.87075" lon="2.40873">
        <ele>159.3</ele>
        <time>2020-03-13T22:23:10.000Z</time>
      </trkpt>
      <trkpt lat="48.8707" lon="2.40873">
        <ele>159.42</ele>
        <time>2020-03-13T22:23:11.000Z</time>
      </trkpt>
      <trkpt lat="48.87066" lon="2.40873">
        <ele>159.58</ele>
        <time>2020-03-13T22:23:12.000Z</time>
      </trkpt>
      <trkpt lat="48.87061" lon="2.40873">
        <ele>159.77</ele>
        <time>2020-03-13T22:23:13.000Z</time>
      </trkpt>
      <trkpt lat="48.87056" lon="2.40875">
        <ele>159.94</ele>
        <time>2020-03-13T22:23:14.000Z</time>
      </trkpt>
      <trkpt lat="48.87051" lon="2.40875">
        <ele>160.16</ele>
        <time>2020-03-13T22:23:15.000Z</time>
      </trkpt>
      <trkpt lat="48.87045" lon="2.40876">
        <ele>160.25</ele>
        <time>2020-03-13T22:23:16.000Z</time>
      </trkpt>
      <trkpt lat="48.8704" lon="2.40877">
        <ele>160.31</ele>
        <time>2020-03-13T22:23:17.000Z</time>
      </trkpt>
      <trkpt lat="48.87034" lon="2.40879">
        <ele>160.33</ele>
        <time>2020-03-13T22:23:18.000Z</time>
      </trkpt>
      <trkpt lat="48.87029" lon="2.40881">
        <ele>160.32</ele>
        <time>2020-03-13T22:23:19.000Z</time>
      </trkpt>
      <trkpt lat="48.87023" lon="2.40883">
        <ele>160.22</ele>
        <time>2020-03-13T22:23:20.000Z</time>
      </trkpt>
      <trkpt lat="48.87017" lon="2.40885">
        <ele>160.03</ele>
        <time>2020-03-13T22:23:21.000Z</time>
      </trkpt>
      <trkpt lat="48.87011" lon="2.40886">
        <ele>159.7</ele>
        <time>2020-03-13T22:23:22.000Z</time>
      </trkpt>
      <trkpt lat="48.87005" lon="2.4089">
        <ele>159.39</ele>
        <time>2020-03-13T22:23:23.000Z</time>
      </trkpt>
      <trkpt lat="48.86998" lon="2.40892">
        <ele>159.13</ele>
        <time>2020-03-13T22:23:24.000Z</time>
      </trkpt>
      <trkpt lat="48.86992" lon="2.40891">
        <ele>158.9</ele>
        <time>2020-03-13T22:23:25.000Z</time>
      </trkpt>
      <trkpt lat="48.86986" lon="2.40891">
        <ele>158.66</ele>
        <time>2020-03-13T22:23:26.000Z</time>
      </trkpt>
      <trkpt lat="48.86979" lon="2.4089">
        <ele>158.4</ele>
        <time>2020-03-13T22:23:27.000Z</time>
      </trkpt>
      <trkpt lat="48.86972" lon="2.40891">
        <ele>158.21</ele>
        <time>2020-03-13T22:23:28.000Z</time>
      </trkpt>
      <trkpt lat="48.86966" lon="2.4089">
        <ele>158.09</ele>
        <time>2020-03-13T22:23:29.000Z</time>
      </trkpt>
      <trkpt lat="48.86959" lon="2.40891">
        <ele>158</ele>
        <time>2020-03-13T22:23:30.000Z</time>
      </trkpt>
      <trkpt lat="48.86953" lon="2.40891">
        <ele>157.93</ele>
        <time>2020-03-13T22:23:31.000Z</time>
      </trkpt>
      <trkpt lat="48.86946" lon="2.40891">
        <ele>157.92</ele>
        <time>2020-03-13T22:23:32.000Z</time>
      </trkpt>
      <trkpt lat="48.8694" lon="2.40891">
        <ele>157.85</ele>
        <time>2020-03-13T22:23:33.000Z</time>
      </trkpt>
      <trkpt lat="48.86934" lon="2.40892">
        <ele>157.76</ele>
        <time>2020-03-13T22:23:34.000Z</time>
      </trkpt>
      <trkpt lat="48.86928" lon="2.40893">
        <ele>157.65</ele>
        <time>2020-03-13T22:23:35.000Z</time>
      </trkpt>
      <trkpt lat="48.86921" lon="2.40892">
        <ele>157.64</ele>
        <time>2020-03-13T22:23:36.000Z</time>
      </trkpt>
      <trkpt lat="48.86914" lon="2.40893">
        <ele>157.58</ele>
        <time>2020-03-13T22:23:37.000Z</time>
      </trkpt>
      <trkpt lat="48.86908" lon="2.40893">
        <ele>157.22</ele>
        <time>2020-03-13T22:23:38.000Z</time>
      </trkpt>
      <trkpt lat="48.86902" lon="2.40894">
        <ele>156.82</ele>
        <time>2020-03-13T22:23:39.000Z</time>
      </trkpt>
      <trkpt lat="48.86895" lon="2.40895">
        <ele>156.47</ele>
        <time>2020-03-13T22:23:40.000Z</time>
      </trkpt>
      <trkpt lat="48.86889" lon="2.40897">
        <ele>156.05</ele>
        <time>2020-03-13T22:23:41.000Z</time>
      </trkpt>
      <trkpt lat="48.86882" lon="2.40899">
        <ele>155.73</ele>
        <time>2020-03-13T22:23:42.000Z</time>
      </trkpt>
      <trkpt lat="48.86876" lon="2.409">
        <ele>155.53</ele>
        <time>2020-03-13T22:23:43.000Z</time>
      </trkpt>
      <trkpt lat="48.86869" lon="2.40902">
        <ele>155.35</ele>
        <time>2020-03-13T22:23:44.000Z</time>
      </trkpt>
      <trkpt lat="48.86862" lon="2.40904">
        <ele>155.57</ele>
        <time>2020-03-13T22:23:45.000Z</time>
      </trkpt>
      <trkpt lat="48.86856" lon="2.40905">
        <ele>155.76</ele>
        <time>2020-03-13T22:23:46.000Z</time>
      </trkpt>
      <trkpt lat="48.86848" lon="2.40906">
        <ele>155.91</ele>
        <time>2020-03-13T22:23:47.000Z</time>
      </trkpt>
      <trkpt lat="48.86841" lon="2.40907">
        <ele>155.96</ele>
        <time>2020-03-13T22:23:48.000Z</time>
      </trkpt>
      <trkpt lat="48.86835" lon="2.40908">
        <ele>156.07</ele>
        <time>2020-03-13T22:23:49.000Z</time>
      </trkpt>
      <trkpt lat="48.86828" lon="2.40907">
        <ele>156.15</ele>
        <time>2020-03-13T22:23:50.000Z</time>
      </trkpt>
      <trkpt lat="48.86821" lon="2.40907">
        <ele>156.15</ele>
        <time>2020-03-13T22:23:51.000Z</time>
      </trkpt>
      <trkpt lat="48.86814" lon="2.40906">
        <ele>156.07</ele>
        <time>2020-03-13T22:23:52.000Z</time>
      </trkpt>
      <trkpt lat="48.86808" lon="2.40906">
        <ele>156.03</ele>
        <time>2020-03-13T22:23:53.000Z</time>
      </trkpt>
      <trkpt lat="48.86801" lon="2.40906">
        <ele>155.85</ele>
        <time>2020-03-13T22:23:54.000Z</time>
      </trkpt>
      <trkpt lat="48.86795" lon="2.40904">
        <ele>155.54</ele>
        <time>2020-03-13T22:23:55.000Z</time>
      </trkpt>
      <trkpt lat="48.86789" lon="2.40903">
        <ele>155.16</ele>
        <time>2020-03-13T22:23:56.000Z</time>
      </trkpt>
      <trkpt lat="48.86782" lon="2.409">
        <ele>154.82</ele>
        <time>2020-03-13T22:23:57.000Z</time>
      </trkpt>
      <trkpt lat="48.86775" lon="2.40899">
        <ele>154.46</ele>
        <time>2020-03-13T22:23:58.000Z</time>
      </trkpt>
      <trkpt lat="48.86769" lon="2.40898">
        <ele>154.1</ele>
        <time>2020-03-13T22:23:59.000Z</time>
      </trkpt>
      <trkpt lat="48.86763" lon="2.40899">
        <ele>153.85</ele>
        <time>2020-03-13T22:24:00.000Z</time>
      </trkpt>
      <trkpt lat="48.86756" lon="2.40899">
        <ele>153.83</ele>
        <time>2020-03-13T22:24:01.000Z</time>
      </trkpt>
      <trkpt lat="48.86749" lon="2.40899">
        <ele>153.67</ele>
        <time>2020-03-13T22:24:02.000Z</time>
      </trkpt>
      <trkpt lat="48.86743" lon="2.40899">
        <ele>153.44</ele>
        <time>2020-03-13T22:24:03.000Z</time>
      </trkpt>
      <trkpt lat="48.86736" lon="2.40898">
        <ele>153.02</ele>
        <time>2020-03-13T22:24:04.000Z</time>
      </trkpt>
      <trkpt lat="48.8673" lon="2.40898">
        <ele>152.7</ele>
        <time>2020-03-13T22:24:05.000Z</time>
      </trkpt>
      <trkpt lat="48.86725" lon="2.40897">
        <ele>152.35</ele>
        <time>2020-03-13T22:24:06.000Z</time>
      </trkpt>
      <trkpt lat="48.86719" lon="2.40898">
        <ele>152.14</ele>
        <time>2020-03-13T22:24:07.000Z</time>
      </trkpt>
      <trkpt lat="48.86715" lon="2.40897">
        <ele>151.11</ele>
        <time>2020-03-13T22:24:08.000Z</time>
      </trkpt>
      <trkpt lat="48.8671" lon="2.40897">
        <ele>150.14</ele>
        <time>2020-03-13T22:24:09.000Z</time>
      </trkpt>
      <trkpt lat="48.86705" lon="2.40897">
        <ele>149.36</ele>
        <time>2020-03-13T22:24:10.000Z</time>
      </trkpt>
      <trkpt lat="48.86699" lon="2.40896">
        <ele>148.83</ele>
        <time>2020-03-13T22:24:11.000Z</time>
      </trkpt>
      <trkpt lat="48.86694" lon="2.40896">
        <ele>148.53</ele>
        <time>2020-03-13T22:24:12.000Z</time>
      </trkpt>
      <trkpt lat="48.86688" lon="2.40896">
        <ele>148.29</ele>
        <time>2020-03-13T22:24:13.000Z</time>
      </trkpt>
      <trkpt lat="48.86683" lon="2.40895">
        <ele>148.39</ele>
        <time>2020-03-13T22:24:14.000Z</time>
      </trkpt>
      <trkpt lat="48.86677" lon="2.40896">
        <ele>148.65</ele>
        <time>2020-03-13T22:24:15.000Z</time>
      </trkpt>
      <trkpt lat="48.86672" lon="2.40897">
        <ele>148.68</ele>
        <time>2020-03-13T22:24:16.000Z</time>
      </trkpt>
      <trkpt lat="48.86667" lon="2.40897">
        <ele>148.7</ele>
        <time>2020-03-13T22:24:17.000Z</time>
      </trkpt>
      <trkpt lat="48.86661" lon="2.40896">
        <ele>148.75</ele>
        <time>2020-03-13T22:24:18.000Z</time>
      </trkpt>
      <trkpt lat="48.86655" lon="2.40895">
        <ele>148.74</ele>
        <time>2020-03-13T22:24:19.000Z</time>
      </trkpt>
      <trkpt lat="48.86649" lon="2.40895">
        <ele>148.86</ele>
        <time>2020-03-13T22:24:20.000Z</time>
      </trkpt>
      <trkpt lat="48.86643" lon="2.40894">
        <ele>148.96</ele>
        <time>2020-03-13T22:24:21.000Z</time>
      </trkpt>
      <trkpt lat="48.86637" lon="2.40894">
        <ele>149.04</ele>
        <time>2020-03-13T22:24:22.000Z</time>
      </trkpt>
      <trkpt lat="48.86631" lon="2.40893">
        <ele>149.04</ele>
        <time>2020-03-13T22:24:23.000Z</time>
      </trkpt>
      <trkpt lat="48.86625" lon="2.40893">
        <ele>148.99</ele>
        <time>2020-03-13T22:24:24.000Z</time>
      </trkpt>
      <trkpt lat="48.8662" lon="2.40894">
        <ele>148.9</ele>
        <time>2020-03-13T22:24:25.000Z</time>
      </trkpt>
      <trkpt lat="48.86614" lon="2.40894">
        <ele>148.86</ele>
        <time>2020-03-13T22:24:26.000Z</time>
      </trkpt>
      <trkpt lat="48.86607" lon="2.40894">
        <ele>149.09</ele>
        <time>2020-03-13T22:24:27.000Z</time>
      </trkpt>
      <trkpt lat="48.86601" lon="2.40895">
        <ele>149.36</ele>
        <time>2020-03-13T22:24:28.000Z</time>
      </trkpt>
      <trkpt lat="48.86596" lon="2.40894">
        <ele>149.5</ele>
        <time>2020-03-13T22:24:29.000Z</time>
      </trkpt>
      <trkpt lat="48.8659" lon="2.40894">
        <ele>149.58</ele>
        <time>2020-03-13T22:24:30.000Z</time>
      </trkpt>
      <trkpt lat="48.86585" lon="2.40892">
        <ele>149.5</ele>
        <time>2020-03-13T22:24:31.000Z</time>
      </trkpt>
      <trkpt lat="48.86579" lon="2.40891">
        <ele>149.37</ele>
        <time>2020-03-13T22:24:32.000Z</time>
      </trkpt>
      <trkpt lat="48.86574" lon="2.4089">
        <ele>149.15</ele>
        <time>2020-03-13T22:24:33.000Z</time>
      </trkpt>
      <trkpt lat="48.86568" lon="2.4089">
        <ele>148.89</ele>
        <time>2020-03-13T22:24:34.000Z</time>
      </trkpt>
      <trkpt lat="48.86563" lon="2.4089">
        <ele>148.69</ele>
        <time>2020-03-13T22:24:35.000Z</time>
      </trkpt>
      <trkpt lat="48.86557" lon="2.4089">
        <ele>148.51</ele>
        <time>2020-03-13T22:24:36.000Z</time>
      </trkpt>
      <trkpt lat="48.86551" lon="2.40891">
        <ele>148.26</ele>
        <time>2020-03-13T22:24:37.000Z</time>
      </trkpt>
      <trkpt lat="48.86546" lon="2.40891">
        <ele>147.98</ele>
        <time>2020-03-13T22:24:38.000Z</time>
      </trkpt>
      <trkpt lat="48.8654" lon="2.40889">
        <ele>147.73</ele>
        <time>2020-03-13T22:24:39.000Z</time>
      </trkpt>
      <trkpt lat="48.86534" lon="2.4089">
        <ele>147.57</ele>
        <time>2020-03-13T22:24:40.000Z</time>
      </trkpt>
      <trkpt lat="48.86528" lon="2.4089">
        <ele>147.27</ele>
        <time>2020-03-13T22:24:41.000Z</time>
      </trkpt>
      <trkpt lat="48.86523" lon="2.4089">
        <ele>147.03</ele>
        <time>2020-03-13T22:24:42.000Z</time>
      </trkpt>
      <trkpt lat="48.86517" lon="2.40889">
        <ele>146.75</ele>
        <time>2020-03-13T22:24:43.000Z</time>
      </trkpt>
      <trkpt lat="48.86512" lon="2.40888">
        <ele>146.37</ele>
        <time>2020-03-13T22:24:44.000Z</time>
      </trkpt>
      <trkpt lat="48.86506" lon="2.40887">
        <ele>146.01</ele>
        <time>2020-03-13T22:24:45.000Z</time>
      </trkpt>
      <trkpt lat="48.86501" lon="2.40887">
        <ele>145.69</ele>
        <time>2020-03-13T22:24:46.000Z</time>
      </trkpt>
      <trkpt lat="48.86496" lon="2.40886">
        <ele>145.4</ele>
        <time>2020-03-13T22:24:47.000Z</time>
      </trkpt>
      <trkpt lat="48.86492" lon="2.40885">
        <ele>145.38</ele>
        <time>2020-03-13T22:24:48.000Z</time>
      </trkpt>
      <trkpt lat="48.86489" lon="2.40883">
        <ele>145.38</ele>
        <time>2020-03-13T22:24:49.000Z</time>
      </trkpt>
      <trkpt lat="48.86486" lon="2.40882">
        <ele>145.37</ele>
        <time>2020-03-13T22:24:50.000Z</time>
      </trkpt>
      <trkpt lat="48.86483" lon="2.4088">
        <ele>145.36</ele>
        <time>2020-03-13T22:24:51.000Z</time>
      </trkpt>
      <trkpt lat="48.86482" lon="2.40878">
        <ele>145.35</ele>
        <time>2020-03-13T22:24:52.000Z</time>
      </trkpt>
      <trkpt lat="48.8648" lon="2.40877">
        <ele>145.33</ele>
        <time>2020-03-13T22:24:53.000Z</time>
      </trkpt>
      <trkpt lat="48.86479" lon="2.40876">
        <ele>145.29</ele>
        <time>2020-03-13T22:24:54.000Z</time>
      </trkpt>
      <trkpt lat="48.86477" lon="2.40875">
        <ele>145.24</ele>
        <time>2020-03-13T22:24:55.000Z</time>
      </trkpt>
      <trkpt lat="48.86474" lon="2.40874">
        <ele>145.21</ele>
        <time>2020-03-13T22:24:56.000Z</time>
      </trkpt>
      <trkpt lat="48.86471" lon="2.40873">
        <ele>145.18</ele>
        <time>2020-03-13T22:24:57.000Z</time>
      </trkpt>
      <trkpt lat="48.86468" lon="2.40871">
        <ele>145.14</ele>
        <time>2020-03-13T22:24:58.000Z</time>
      </trkpt>
      <trkpt lat="48.86464" lon="2.40868">
        <ele>145.09</ele>
        <time>2020-03-13T22:24:59.000Z</time>
      </trkpt>
      <trkpt lat="48.86461" lon="2.40866">
        <ele>145.05</ele>
        <time>2020-03-13T22:25:00.000Z</time>
      </trkpt>
      <trkpt lat="48.86458" lon="2.40865">
        <ele>145.01</ele>
        <time>2020-03-13T22:25:01.000Z</time>
      </trkpt>
      <trkpt lat="48.86456" lon="2.40863">
        <ele>144.96</ele>
        <time>2020-03-13T22:25:02.000Z</time>
      </trkpt>
      <trkpt lat="48.86454" lon="2.40862">
        <ele>144.91</ele>
        <time>2020-03-13T22:25:03.000Z</time>
      </trkpt>
      <trkpt lat="48.86453" lon="2.40861">
        <ele>144.86</ele>
        <time>2020-03-13T22:25:04.000Z</time>
      </trkpt>
      <trkpt lat="48.86452" lon="2.4086">
        <ele>144.81</ele>
        <time>2020-03-13T22:25:05.000Z</time>
      </trkpt>
      <trkpt lat="48.8645" lon="2.40859">
        <ele>144.66</ele>
        <time>2020-03-13T22:25:07.000Z</time>
      </trkpt>
      <trkpt lat="48.86449" lon="2.40858">
        <ele>144.56</ele>
        <time>2020-03-13T22:25:08.000Z</time>
      </trkpt>
      <trkpt lat="48.86448" lon="2.40856">
        <ele>144.45</ele>
        <time>2020-03-13T22:25:09.000Z</time>
      </trkpt>
      <trkpt lat="48.86446" lon="2.40855">
        <ele>144.35</ele>
        <time>2020-03-13T22:25:10.000Z</time>
      </trkpt>
      <trkpt lat="48.86443" lon="2.40854">
        <ele>144.25</ele>
        <time>2020-03-13T22:25:11.000Z</time>
      </trkpt>
      <trkpt lat="48.86442" lon="2.40854">
        <ele>144.15</ele>
        <time>2020-03-13T22:25:12.000Z</time>
      </trkpt>
      <trkpt lat="48.86441" lon="2.40854">
        <ele>143.94</ele>
        <time>2020-03-13T22:25:14.000Z</time>
      </trkpt>
      <trkpt lat="48.86439" lon="2.40855">
        <ele>143.73</ele>
        <time>2020-03-13T22:25:16.000Z</time>
      </trkpt>
      <trkpt lat="48.86438" lon="2.40855">
        <ele>143.51</ele>
        <time>2020-03-13T22:25:18.000Z</time>
      </trkpt>
      <trkpt lat="48.86437" lon="2.40855">
        <ele>143.4</ele>
        <time>2020-03-13T22:25:19.000Z</time>
      </trkpt>
      <trkpt lat="48.86434" lon="2.40858">
        <ele>143.28</ele>
        <time>2020-03-13T22:25:20.000Z</time>
      </trkpt>
      <trkpt lat="48.8643" lon="2.40859">
        <ele>142.02</ele>
        <time>2020-03-13T22:25:21.000Z</time>
      </trkpt>
      <trkpt lat="48.86425" lon="2.40861">
        <ele>140.92</ele>
        <time>2020-03-13T22:25:22.000Z</time>
      </trkpt>
      <trkpt lat="48.8642" lon="2.40863">
        <ele>139.95</ele>
        <time>2020-03-13T22:25:23.000Z</time>
      </trkpt>
      <trkpt lat="48.86414" lon="2.40863">
        <ele>139.1</ele>
        <time>2020-03-13T22:25:24.000Z</time>
      </trkpt>
      <trkpt lat="48.86409" lon="2.40863">
        <ele>138.36</ele>
        <time>2020-03-13T22:25:25.000Z</time>
      </trkpt>
      <trkpt lat="48.86403" lon="2.40863">
        <ele>137.73</ele>
        <time>2020-03-13T22:25:26.000Z</time>
      </trkpt>
      <trkpt lat="48.86397" lon="2.40864">
        <ele>137.17</ele>
        <time>2020-03-13T22:25:27.000Z</time>
      </trkpt>
      <trkpt lat="48.86391" lon="2.40865">
        <ele>136.66</ele>
        <time>2020-03-13T22:25:28.000Z</time>
      </trkpt>
      <trkpt lat="48.86386" lon="2.40865">
        <ele>136.2</ele>
        <time>2020-03-13T22:25:29.000Z</time>
      </trkpt>
      <trkpt lat="48.86379" lon="2.40866">
        <ele>135.8</ele>
        <time>2020-03-13T22:25:30.000Z</time>
      </trkpt>
      <trkpt lat="48.86373" lon="2.40866">
        <ele>135.46</ele>
        <time>2020-03-13T22:25:31.000Z</time>
      </trkpt>
      <trkpt lat="48.86366" lon="2.40868">
        <ele>135.16</ele>
        <time>2020-03-13T22:25:32.000Z</time>
      </trkpt>
      <trkpt lat="48.8636" lon="2.40869">
        <ele>134.89</ele>
        <time>2020-03-13T22:25:33.000Z</time>
      </trkpt>
      <trkpt lat="48.86354" lon="2.4087">
        <ele>134.67</ele>
        <time>2020-03-13T22:25:34.000Z</time>
      </trkpt>
      <trkpt lat="48.86347" lon="2.4087">
        <ele>134.49</ele>
        <time>2020-03-13T22:25:35.000Z</time>
      </trkpt>
      <trkpt lat="48.86341" lon="2.40871">
        <ele>134.36</ele>
        <time>2020-03-13T22:25:36.000Z</time>
      </trkpt>
      <trkpt lat="48.86335" lon="2.40873">
        <ele>134.24</ele>
        <time>2020-03-13T22:25:37.000Z</time>
      </trkpt>
      <trkpt lat="48.86329" lon="2.40874">
        <ele>134.13</ele>
        <time>2020-03-13T22:25:38.000Z</time>
      </trkpt>
      <trkpt lat="48.86322" lon="2.40876">
        <ele>134.02</ele>
        <time>2020-03-13T22:25:39.000Z</time>
      </trkpt>
      <trkpt lat="48.86316" lon="2.40879">
        <ele>133.94</ele>
        <time>2020-03-13T22:25:40.000Z</time>
      </trkpt>
      <trkpt lat="48.8631" lon="2.4088">
        <ele>133.88</ele>
        <time>2020-03-13T22:25:41.000Z</time>
      </trkpt>
      <trkpt lat="48.86303" lon="2.40884">
        <ele>133.82</ele>
        <time>2020-03-13T22:25:42.000Z</time>
      </trkpt>
      <trkpt lat="48.86297" lon="2.40886">
        <ele>133.74</ele>
        <time>2020-03-13T22:25:43.000Z</time>
      </trkpt>
      <trkpt lat="48.86291" lon="2.40888">
        <ele>133.66</ele>
        <time>2020-03-13T22:25:44.000Z</time>
      </trkpt>
      <trkpt lat="48.86285" lon="2.40891">
        <ele>133.62</ele>
        <time>2020-03-13T22:25:45.000Z</time>
      </trkpt>
      <trkpt lat="48.86278" lon="2.40892">
        <ele>133.37</ele>
        <time>2020-03-13T22:25:46.000Z</time>
      </trkpt>
      <trkpt lat="48.86272" lon="2.40895">
        <ele>133.19</ele>
        <time>2020-03-13T22:25:47.000Z</time>
      </trkpt>
      <trkpt lat="48.86266" lon="2.40898">
        <ele>133.15</ele>
        <time>2020-03-13T22:25:48.000Z</time>
      </trkpt>
      <trkpt lat="48.86259" lon="2.40898">
        <ele>133.12</ele>
        <time>2020-03-13T22:25:49.000Z</time>
      </trkpt>
      <trkpt lat="48.86253" lon="2.40899">
        <ele>133.05</ele>
        <time>2020-03-13T22:25:50.000Z</time>
      </trkpt>
      <trkpt lat="48.86246" lon="2.409">
        <ele>132.99</ele>
        <time>2020-03-13T22:25:51.000Z</time>
      </trkpt>
      <trkpt lat="48.8624" lon="2.40901">
        <ele>132.95</ele>
        <time>2020-03-13T22:25:52.000Z</time>
      </trkpt>
      <trkpt lat="48.86233" lon="2.40903">
        <ele>132.89</ele>
        <time>2020-03-13T22:25:53.000Z</time>
      </trkpt>
      <trkpt lat="48.86227" lon="2.40904">
        <ele>132.81</ele>
        <time>2020-03-13T22:25:54.000Z</time>
      </trkpt>
      <trkpt lat="48.86221" lon="2.40906">
        <ele>132.68</ele>
        <time>2020-03-13T22:25:55.000Z</time>
      </trkpt>
      <trkpt lat="48.86216" lon="2.40907">
        <ele>132.54</ele>
        <time>2020-03-13T22:25:56.000Z</time>
      </trkpt>
      <trkpt lat="48.86211" lon="2.40907">
        <ele>132.28</ele>
        <time>2020-03-13T22:25:57.000Z</time>
      </trkpt>
      <trkpt lat="48.86206" lon="2.40908">
        <ele>131.82</ele>
        <time>2020-03-13T22:25:58.000Z</time>
      </trkpt>
      <trkpt lat="48.86202" lon="2.4091">
        <ele>131.31</ele>
        <time>2020-03-13T22:25:59.000Z</time>
      </trkpt>
      <trkpt lat="48.86197" lon="2.4091">
        <ele>130.83</ele>
        <time>2020-03-13T22:26:00.000Z</time>
      </trkpt>
      <trkpt lat="48.86191" lon="2.40912">
        <ele>130.35</ele>
        <time>2020-03-13T22:26:01.000Z</time>
      </trkpt>
      <trkpt lat="48.86186" lon="2.40913">
        <ele>129.95</ele>
        <time>2020-03-13T22:26:02.000Z</time>
      </trkpt>
      <trkpt lat="48.8618" lon="2.40915">
        <ele>129.58</ele>
        <time>2020-03-13T22:26:03.000Z</time>
      </trkpt>
      <trkpt lat="48.86175" lon="2.40916">
        <ele>129.27</ele>
        <time>2020-03-13T22:26:04.000Z</time>
      </trkpt>
      <trkpt lat="48.86169" lon="2.40917">
        <ele>128.99</ele>
        <time>2020-03-13T22:26:05.000Z</time>
      </trkpt>
      <trkpt lat="48.86163" lon="2.40917">
        <ele>128.78</ele>
        <time>2020-03-13T22:26:06.000Z</time>
      </trkpt>
      <trkpt lat="48.86157" lon="2.40917">
        <ele>128.59</ele>
        <time>2020-03-13T22:26:07.000Z</time>
      </trkpt>
      <trkpt lat="48.86151" lon="2.40917">
        <ele>128.47</ele>
        <time>2020-03-13T22:26:08.000Z</time>
      </trkpt>
      <trkpt lat="48.86144" lon="2.40919">
        <ele>128.48</ele>
        <time>2020-03-13T22:26:09.000Z</time>
      </trkpt>
      <trkpt lat="48.86139" lon="2.40919">
        <ele>128.42</ele>
        <time>2020-03-13T22:26:10.000Z</time>
      </trkpt>
      <trkpt lat="48.86133" lon="2.4092">
        <ele>128.38</ele>
        <time>2020-03-13T22:26:11.000Z</time>
      </trkpt>
      <trkpt lat="48.86126" lon="2.40921">
        <ele>128.33</ele>
        <time>2020-03-13T22:26:12.000Z</time>
      </trkpt>
      <trkpt lat="48.8612" lon="2.40922">
        <ele>128.26</ele>
        <time>2020-03-13T22:26:13.000Z</time>
      </trkpt>
      <trkpt lat="48.86113" lon="2.40924">
        <ele>128.07</ele>
        <time>2020-03-13T22:26:14.000Z</time>
      </trkpt>
      <trkpt lat="48.86107" lon="2.40925">
        <ele>127.83</ele>
        <time>2020-03-13T22:26:15.000Z</time>
      </trkpt>
      <trkpt lat="48.861" lon="2.40927">
        <ele>127.57</ele>
        <time>2020-03-13T22:26:16.000Z</time>
      </trkpt>
      <trkpt lat="48.86094" lon="2.40928">
        <ele>127.33</ele>
        <time>2020-03-13T22:26:17.000Z</time>
      </trkpt>
      <trkpt lat="48.86088" lon="2.40929">
        <ele>127.1</ele>
        <time>2020-03-13T22:26:18.000Z</time>
      </trkpt>
      <trkpt lat="48.86083" lon="2.40929">
        <ele>126.86</ele>
        <time>2020-03-13T22:26:19.000Z</time>
      </trkpt>
      <trkpt lat="48.86078" lon="2.40929">
        <ele>126.47</ele>
        <time>2020-03-13T22:26:20.000Z</time>
      </trkpt>
      <trkpt lat="48.86073" lon="2.40929">
        <ele>126.17</ele>
        <time>2020-03-13T22:26:21.000Z</time>
      </trkpt>
      <trkpt lat="48.86068" lon="2.40929">
        <ele>126.09</ele>
        <time>2020-03-13T22:26:22.000Z</time>
      </trkpt>
      <trkpt lat="48.86062" lon="2.4093">
        <ele>126.07</ele>
        <time>2020-03-13T22:26:23.000Z</time>
      </trkpt>
      <trkpt lat="48.86056" lon="2.40932">
        <ele>125.97</ele>
        <time>2020-03-13T22:26:24.000Z</time>
      </trkpt>
      <trkpt lat="48.8605" lon="2.40932">
        <ele>125.92</ele>
        <time>2020-03-13T22:26:25.000Z</time>
      </trkpt>
      <trkpt lat="48.86045" lon="2.40933">
        <ele>125.9</ele>
        <time>2020-03-13T22:26:26.000Z</time>
      </trkpt>
      <trkpt lat="48.86039" lon="2.40935">
        <ele>125.82</ele>
        <time>2020-03-13T22:26:27.000Z</time>
      </trkpt>
      <trkpt lat="48.86032" lon="2.40937">
        <ele>125.79</ele>
        <time>2020-03-13T22:26:28.000Z</time>
      </trkpt>
      <trkpt lat="48.86026" lon="2.40939">
        <ele>125.81</ele>
        <time>2020-03-13T22:26:29.000Z</time>
      </trkpt>
      <trkpt lat="48.8602" lon="2.4094">
        <ele>125.71</ele>
        <time>2020-03-13T22:26:30.000Z</time>
      </trkpt>
      <trkpt lat="48.86014" lon="2.40942">
        <ele>125.62</ele>
        <time>2020-03-13T22:26:31.000Z</time>
      </trkpt>
      <trkpt lat="48.86008" lon="2.40942">
        <ele>125.53</ele>
        <time>2020-03-13T22:26:32.000Z</time>
      </trkpt>
      <trkpt lat="48.86002" lon="2.40943">
        <ele>125.4</ele>
        <time>2020-03-13T22:26:33.000Z</time>
      </trkpt>
      <trkpt lat="48.85996" lon="2.40943">
        <ele>125.21</ele>
        <time>2020-03-13T22:26:34.000Z</time>
      </trkpt>
      <trkpt lat="48.85989" lon="2.40944">
        <ele>125.04</ele>
        <time>2020-03-13T22:26:35.000Z</time>
      </trkpt>
      <trkpt lat="48.85983" lon="2.40944">
        <ele>124.91</ele>
        <time>2020-03-13T22:26:36.000Z</time>
      </trkpt>
      <trkpt lat="48.85977" lon="2.40944">
        <ele>124.84</ele>
        <time>2020-03-13T22:26:37.000Z</time>
      </trkpt>
      <trkpt lat="48.85971" lon="2.40944">
        <ele>124.78</ele>
        <time>2020-03-13T22:26:38.000Z</time>
      </trkpt>
      <trkpt lat="48.85964" lon="2.40944">
        <ele>124.74</ele>
        <time>2020-03-13T22:26:39.000Z</time>
      </trkpt>
      <trkpt lat="48.85958" lon="2.40947">
        <ele>124.73</ele>
        <time>2020-03-13T22:26:40.000Z</time>
      </trkpt>
      <trkpt lat="48.85951" lon="2.40948">
        <ele>124.78</ele>
        <time>2020-03-13T22:26:41.000Z</time>
      </trkpt>
      <trkpt lat="48.85944" lon="2.4095">
        <ele>124.81</ele>
        <time>2020-03-13T22:26:42.000Z</time>
      </trkpt>
      <trkpt lat="48.85938" lon="2.40952">
        <ele>124.86</ele>
        <time>2020-03-13T22:26:43.000Z</time>
      </trkpt>
      <trkpt lat="48.85933" lon="2.40954">
        <ele>124.77</ele>
        <time>2020-03-13T22:26:44.000Z</time>
      </trkpt>
      <trkpt lat="48.85927" lon="2.40955">
        <ele>124.69</ele>
        <time>2020-03-13T22:26:45.000Z</time>
      </trkpt>
      <trkpt lat="48.85921" lon="2.40955">
        <ele>124.8</ele>
        <time>2020-03-13T22:26:46.000Z</time>
      </trkpt>
      <trkpt lat="48.85915" lon="2.40956">
        <ele>124.86</ele>
        <time>2020-03-13T22:26:47.000Z</time>
      </trkpt>
      <trkpt lat="48.8591" lon="2.40957">
        <ele>124.93</ele>
        <time>2020-03-13T22:26:48.000Z</time>
      </trkpt>
      <trkpt lat="48.85904" lon="2.40957">
        <ele>125.04</ele>
        <time>2020-03-13T22:26:49.000Z</time>
      </trkpt>
      <trkpt lat="48.85899" lon="2.40957">
        <ele>125.15</ele>
        <time>2020-03-13T22:26:50.000Z</time>
      </trkpt>
      <trkpt lat="48.85893" lon="2.40958">
        <ele>125.23</ele>
        <time>2020-03-13T22:26:51.000Z</time>
      </trkpt>
      <trkpt lat="48.85887" lon="2.40958">
        <ele>125.3</ele>
        <time>2020-03-13T22:26:52.000Z</time>
      </trkpt>
      <trkpt lat="48.85881" lon="2.40959">
        <ele>125.42</ele>
        <time>2020-03-13T22:26:53.000Z</time>
      </trkpt>
      <trkpt lat="48.85875" lon="2.4096">
        <ele>125.52</ele>
        <time>2020-03-13T22:26:54.000Z</time>
      </trkpt>
      <trkpt lat="48.8587" lon="2.40961">
        <ele>125.49</ele>
        <time>2020-03-13T22:26:55.000Z</time>
      </trkpt>
      <trkpt lat="48.85864" lon="2.40962">
        <ele>125.55</ele>
        <time>2020-03-13T22:26:56.000Z</time>
      </trkpt>
      <trkpt lat="48.85858" lon="2.40962">
        <ele>125.59</ele>
        <time>2020-03-13T22:26:57.000Z</time>
      </trkpt>
      <trkpt lat="48.85852" lon="2.40963">
        <ele>125.63</ele>
        <time>2020-03-13T22:26:58.000Z</time>
      </trkpt>
      <trkpt lat="48.85846" lon="2.40965">
        <ele>125.7</ele>
        <time>2020-03-13T22:26:59.000Z</time>
      </trkpt>
      <trkpt lat="48.8584" lon="2.40965">
        <ele>125.85</ele>
        <time>2020-03-13T22:27:00.000Z</time>
      </trkpt>
      <trkpt lat="48.85834" lon="2.40967">
        <ele>125.98</ele>
        <time>2020-03-13T22:27:01.000Z</time>
      </trkpt>
      <trkpt lat="48.85827" lon="2.4097">
        <ele>126.12</ele>
        <time>2020-03-13T22:27:02.000Z</time>
      </trkpt>
      <trkpt lat="48.85821" lon="2.40971">
        <ele>126.3</ele>
        <time>2020-03-13T22:27:03.000Z</time>
      </trkpt>
      <trkpt lat="48.85815" lon="2.40974">
        <ele>126.46</ele>
        <time>2020-03-13T22:27:04.000Z</time>
      </trkpt>
      <trkpt lat="48.85809" lon="2.40974">
        <ele>126.58</ele>
        <time>2020-03-13T22:27:05.000Z</time>
      </trkpt>
      <trkpt lat="48.85803" lon="2.40976">
        <ele>126.65</ele>
        <time>2020-03-13T22:27:06.000Z</time>
      </trkpt>
      <trkpt lat="48.85797" lon="2.40977">
        <ele>126.79</ele>
        <time>2020-03-13T22:27:07.000Z</time>
      </trkpt>
      <trkpt lat="48.8579" lon="2.40979">
        <ele>126.89</ele>
        <time>2020-03-13T22:27:08.000Z</time>
      </trkpt>
      <trkpt lat="48.85784" lon="2.4098">
        <ele>126.91</ele>
        <time>2020-03-13T22:27:09.000Z</time>
      </trkpt>
      <trkpt lat="48.85778" lon="2.40982">
        <ele>126.92</ele>
        <time>2020-03-13T22:27:10.000Z</time>
      </trkpt>
      <trkpt lat="48.85772" lon="2.40985">
        <ele>126.91</ele>
        <time>2020-03-13T22:27:11.000Z</time>
      </trkpt>
      <trkpt lat="48.85766" lon="2.40986">
        <ele>126.9</ele>
        <time>2020-03-13T22:27:12.000Z</time>
      </trkpt>
      <trkpt lat="48.8576" lon="2.40987">
        <ele>126.88</ele>
        <time>2020-03-13T22:27:13.000Z</time>
      </trkpt>
      <trkpt lat="48.85753" lon="2.40987">
        <ele>126.9</ele>
        <time>2020-03-13T22:27:14.000Z</time>
      </trkpt>
      <trkpt lat="48.85746" lon="2.40989">
        <ele>127.01</ele>
        <time>2020-03-13T22:27:15.000Z</time>
      </trkpt>
      <trkpt lat="48.8574" lon="2.40991">
        <ele>127.16</ele>
        <time>2020-03-13T22:27:16.000Z</time>
      </trkpt>
      <trkpt lat="48.85733" lon="2.40993">
        <ele>127.29</ele>
        <time>2020-03-13T22:27:17.000Z</time>
      </trkpt>
      <trkpt lat="48.85727" lon="2.40994">
        <ele>127.42</ele>
        <time>2020-03-13T22:27:18.000Z</time>
      </trkpt>
      <trkpt lat="48.85721" lon="2.40995">
        <ele>127.6</ele>
        <time>2020-03-13T22:27:19.000Z</time>
      </trkpt>
      <trkpt lat="48.85715" lon="2.40997">
        <ele>127.81</ele>
        <time>2020-03-13T22:27:20.000Z</time>
      </trkpt>
      <trkpt lat="48.85709" lon="2.40998">
        <ele>128.02</ele>
        <time>2020-03-13T22:27:21.000Z</time>
      </trkpt>
      <trkpt lat="48.85703" lon="2.40999">
        <ele>128.22</ele>
        <time>2020-03-13T22:27:22.000Z</time>
      </trkpt>
      <trkpt lat="48.85696" lon="2.41001">
        <ele>128.41</ele>
        <time>2020-03-13T22:27:23.000Z</time>
      </trkpt>
      <trkpt lat="48.8569" lon="2.41003">
        <ele>128.57</ele>
        <time>2020-03-13T22:27:24.000Z</time>
      </trkpt>
      <trkpt lat="48.85684" lon="2.41004">
        <ele>128.71</ele>
        <time>2020-03-13T22:27:25.000Z</time>
      </trkpt>
      <trkpt lat="48.85678" lon="2.41007">
        <ele>128.9</ele>
        <time>2020-03-13T22:27:26.000Z</time>
      </trkpt>
      <trkpt lat="48.85672" lon="2.41009">
        <ele>128.95</ele>
        <time>2020-03-13T22:27:27.000Z</time>
      </trkpt>
      <trkpt lat="48.85667" lon="2.4101">
        <ele>128.84</ele>
        <time>2020-03-13T22:27:28.000Z</time>
      </trkpt>
      <trkpt lat="48.85661" lon="2.4101">
        <ele>128.83</ele>
        <time>2020-03-13T22:27:29.000Z</time>
      </trkpt>
      <trkpt lat="48.85655" lon="2.41012">
        <ele>128.89</ele>
        <time>2020-03-13T22:27:30.000Z</time>
      </trkpt>
      <trkpt lat="48.85649" lon="2.41013">
        <ele>128.95</ele>
        <time>2020-03-13T22:27:31.000Z</time>
      </trkpt>
      <trkpt lat="48.85643" lon="2.41013">
        <ele>128.99</ele>
        <time>2020-03-13T22:27:32.000Z</time>
      </trkpt>
      <trkpt lat="48.85637" lon="2.41014">
        <ele>129.01</ele>
        <time>2020-03-13T22:27:33.000Z</time>
      </trkpt>
      <trkpt lat="48.85631" lon="2.41014">
        <ele>129.06</ele>
        <time>2020-03-13T22:27:34.000Z</time>
      </trkpt>
      <trkpt lat="48.85626" lon="2.41014">
        <ele>129.12</ele>
        <time>2020-03-13T22:27:35.000Z</time>
      </trkpt>
      <trkpt lat="48.85621" lon="2.41015">
        <ele>129.15</ele>
        <time>2020-03-13T22:27:36.000Z</time>
      </trkpt>
      <trkpt lat="48.85616" lon="2.41016">
        <ele>129.25</ele>
        <time>2020-03-13T22:27:37.000Z</time>
      </trkpt>
      <trkpt lat="48.8561" lon="2.41017">
        <ele>129.32</ele>
        <time>2020-03-13T22:27:38.000Z</time>
      </trkpt>
      <trkpt lat="48.85606" lon="2.41017">
        <ele>129.27</ele>
        <time>2020-03-13T22:27:39.000Z</time>
      </trkpt>
      <trkpt lat="48.85601" lon="2.41017">
        <ele>129.18</ele>
        <time>2020-03-13T22:27:40.000Z</time>
      </trkpt>
      <trkpt lat="48.85596" lon="2.4102">
        <ele>129.03</ele>
        <time>2020-03-13T22:27:41.000Z</time>
      </trkpt>
      <trkpt lat="48.85591" lon="2.4102">
        <ele>128.96</ele>
        <time>2020-03-13T22:27:42.000Z</time>
      </trkpt>
      <trkpt lat="48.85585" lon="2.41021">
        <ele>128.88</ele>
        <time>2020-03-13T22:27:43.000Z</time>
      </trkpt>
      <trkpt lat="48.8558" lon="2.41021">
        <ele>128.82</ele>
        <time>2020-03-13T22:27:44.000Z</time>
      </trkpt>
      <trkpt lat="48.85574" lon="2.41023">
        <ele>128.78</ele>
        <time>2020-03-13T22:27:45.000Z</time>
      </trkpt>
      <trkpt lat="48.85569" lon="2.41024">
        <ele>128.74</ele>
        <time>2020-03-13T22:27:46.000Z</time>
      </trkpt>
      <trkpt lat="48.85564" lon="2.41025">
        <ele>128.68</ele>
        <time>2020-03-13T22:27:47.000Z</time>
      </trkpt>
      <trkpt lat="48.85559" lon="2.41026">
        <ele>128.58</ele>
        <time>2020-03-13T22:27:48.000Z</time>
      </trkpt>
      <trkpt lat="48.85553" lon="2.41026">
        <ele>128.44</ele>
        <time>2020-03-13T22:27:49.000Z</time>
      </trkpt>
      <trkpt lat="48.85548" lon="2.41027">
        <ele>128.27</ele>
        <time>2020-03-13T22:27:50.000Z</time>
      </trkpt>
      <trkpt lat="48.85542" lon="2.41027">
        <ele>128.09</ele>
        <time>2020-03-13T22:27:51.000Z</time>
      </trkpt>
      <trkpt lat="48.85537" lon="2.41028">
        <ele>127.91</ele>
        <time>2020-03-13T22:27:52.000Z</time>
      </trkpt>
      <trkpt lat="48.85531" lon="2.41029">
        <ele>127.63</ele>
        <time>2020-03-13T22:27:53.000Z</time>
      </trkpt>
      <trkpt lat="48.85525" lon="2.41031">
        <ele>127.29</ele>
        <time>2020-03-13T22:27:54.000Z</time>
      </trkpt>
      <trkpt lat="48.85519" lon="2.41032">
        <ele>126.89</ele>
        <time>2020-03-13T22:27:55.000Z</time>
      </trkpt>
      <trkpt lat="48.85514" lon="2.41033">
        <ele>126.53</ele>
        <time>2020-03-13T22:27:56.000Z</time>
      </trkpt>
      <trkpt lat="48.85509" lon="2.41034">
        <ele>126.24</ele>
        <time>2020-03-13T22:27:57.000Z</time>
      </trkpt>
      <trkpt lat="48.85503" lon="2.41035">
        <ele>125.93</ele>
        <time>2020-03-13T22:27:58.000Z</time>
      </trkpt>
      <trkpt lat="48.85498" lon="2.41036">
        <ele>125.59</ele>
        <time>2020-03-13T22:27:59.000Z</time>
      </trkpt>
      <trkpt lat="48.85493" lon="2.41038">
        <ele>125.28</ele>
        <time>2020-03-13T22:28:00.000Z</time>
      </trkpt>
      <trkpt lat="48.85488" lon="2.41039">
        <ele>124.7</ele>
        <time>2020-03-13T22:28:01.000Z</time>
      </trkpt>
      <trkpt lat="48.85483" lon="2.41039">
        <ele>124.19</ele>
        <time>2020-03-13T22:28:02.000Z</time>
      </trkpt>
      <trkpt lat="48.85479" lon="2.41039">
        <ele>123.69</ele>
        <time>2020-03-13T22:28:03.000Z</time>
      </trkpt>
      <trkpt lat="48.85474" lon="2.41039">
        <ele>123.19</ele>
        <time>2020-03-13T22:28:04.000Z</time>
      </trkpt>
      <trkpt lat="48.85468" lon="2.4104">
        <ele>122.73</ele>
        <time>2020-03-13T22:28:05.000Z</time>
      </trkpt>
      <trkpt lat="48.85463" lon="2.41041">
        <ele>122.07</ele>
        <time>2020-03-13T22:28:06.000Z</time>
      </trkpt>
      <trkpt lat="48.85458" lon="2.41041">
        <ele>121.51</ele>
        <time>2020-03-13T22:28:07.000Z</time>
      </trkpt>
      <trkpt lat="48.85453" lon="2.41042">
        <ele>121.06</ele>
        <time>2020-03-13T22:28:08.000Z</time>
      </trkpt>
      <trkpt lat="48.85448" lon="2.41043">
        <ele>120.67</ele>
        <time>2020-03-13T22:28:09.000Z</time>
      </trkpt>
      <trkpt lat="48.85443" lon="2.41044">
        <ele>120.34</ele>
        <time>2020-03-13T22:28:10.000Z</time>
      </trkpt>
      <trkpt lat="48.85438" lon="2.41045">
        <ele>120.09</ele>
        <time>2020-03-13T22:28:11.000Z</time>
      </trkpt>
      <trkpt lat="48.85433" lon="2.41046">
        <ele>119.91</ele>
        <time>2020-03-13T22:28:12.000Z</time>
      </trkpt>
      <trkpt lat="48.85429" lon="2.41047">
        <ele>119.76</ele>
        <time>2020-03-13T22:28:13.000Z</time>
      </trkpt>
      <trkpt lat="48.85424" lon="2.41048">
        <ele>119.61</ele>
        <time>2020-03-13T22:28:14.000Z</time>
      </trkpt>
      <trkpt lat="48.85419" lon="2.41048">
        <ele>119.46</ele>
        <time>2020-03-13T22:28:15.000Z</time>
      </trkpt>
      <trkpt lat="48.85415" lon="2.41049">
        <ele>119.34</ele>
        <time>2020-03-13T22:28:16.000Z</time>
      </trkpt>
      <trkpt lat="48.85411" lon="2.41051">
        <ele>119.23</ele>
        <time>2020-03-13T22:28:17.000Z</time>
      </trkpt>
      <trkpt lat="48.85407" lon="2.41052">
        <ele>119.12</ele>
        <time>2020-03-13T22:28:18.000Z</time>
      </trkpt>
      <trkpt lat="48.85402" lon="2.41054">
        <ele>119.04</ele>
        <time>2020-03-13T22:28:19.000Z</time>
      </trkpt>
      <trkpt lat="48.85398" lon="2.41055">
        <ele>118.98</ele>
        <time>2020-03-13T22:28:20.000Z</time>
      </trkpt>
      <trkpt lat="48.85393" lon="2.41057">
        <ele>118.91</ele>
        <time>2020-03-13T22:28:21.000Z</time>
      </trkpt>
      <trkpt lat="48.85389" lon="2.41059">
        <ele>118.81</ele>
        <time>2020-03-13T22:28:22.000Z</time>
      </trkpt>
      <trkpt lat="48.85384" lon="2.41059">
        <ele>118.73</ele>
        <time>2020-03-13T22:28:23.000Z</time>
      </trkpt>
      <trkpt lat="48.85379" lon="2.41058">
        <ele>118.64</ele>
        <time>2020-03-13T22:28:24.000Z</time>
      </trkpt>
      <trkpt lat="48.85374" lon="2.41056">
        <ele>118.55</ele>
        <time>2020-03-13T22:28:25.000Z</time>
      </trkpt>
      <trkpt lat="48.85369" lon="2.41057">
        <ele>118.45</ele>
        <time>2020-03-13T22:28:26.000Z</time>
      </trkpt>
      <trkpt lat="48.85365" lon="2.41058">
        <ele>118.37</ele>
        <time>2020-03-13T22:28:27.000Z</time>
      </trkpt>
      <trkpt lat="48.85361" lon="2.41059">
        <ele>118.31</ele>
        <time>2020-03-13T22:28:28.000Z</time>
      </trkpt>
      <trkpt lat="48.85357" lon="2.41058">
        <ele>118.22</ele>
        <time>2020-03-13T22:28:29.000Z</time>
      </trkpt>
      <trkpt lat="48.85353" lon="2.41058">
        <ele>118.21</ele>
        <time>2020-03-13T22:28:30.000Z</time>
      </trkpt>
      <trkpt lat="48.8535" lon="2.41058">
        <ele>118.21</ele>
        <time>2020-03-13T22:28:31.000Z</time>
      </trkpt>
      <trkpt lat="48.85349" lon="2.41058">
        <ele>118.2</ele>
        <time>2020-03-13T22:28:32.000Z</time>
      </trkpt>
      <trkpt lat="48.85347" lon="2.41058">
        <ele>118.19</ele>
        <time>2020-03-13T22:28:33.000Z</time>
      </trkpt>
      <trkpt lat="48.85345" lon="2.41057">
        <ele>118.19</ele>
        <time>2020-03-13T22:28:34.000Z</time>
      </trkpt>
      <trkpt lat="48.85342" lon="2.41056">
        <ele>118.18</ele>
        <time>2020-03-13T22:28:35.000Z</time>
      </trkpt>
      <trkpt lat="48.85341" lon="2.41056">
        <ele>118.17</ele>
        <time>2020-03-13T22:28:36.000Z</time>
      </trkpt>
      <trkpt lat="48.8534" lon="2.41056">
        <ele>118.14</ele>
        <time>2020-03-13T22:28:38.000Z</time>
      </trkpt>
      <trkpt lat="48.85339" lon="2.41057">
        <ele>118.11</ele>
        <time>2020-03-13T22:28:40.000Z</time>
      </trkpt>
      <trkpt lat="48.85338" lon="2.41059">
        <ele>118.06</ele>
        <time>2020-03-13T22:28:43.000Z</time>
      </trkpt>
      <trkpt lat="48.85339" lon="2.41058">
        <ele>117.71</ele>
        <time>2020-03-13T22:29:21.000Z</time>
      </trkpt>
      <trkpt lat="48.8534" lon="2.41055">
        <ele>117.63</ele>
        <time>2020-03-13T22:29:25.000Z</time>
      </trkpt>
      <trkpt lat="48.85341" lon="2.41055">
        <ele>117.56</ele>
        <time>2020-03-13T22:29:26.000Z</time>
      </trkpt>
      <trkpt lat="48.8534" lon="2.41056">
        <ele>117.43</ele>
        <time>2020-03-13T22:29:28.000Z</time>
      </trkpt>
      <trkpt lat="48.85339" lon="2.41056">
        <ele>117.36</ele>
        <time>2020-03-13T22:29:29.000Z</time>
      </trkpt>
      <trkpt lat="48.85337" lon="2.41056">
        <ele>117.3</ele>
        <time>2020-03-13T22:29:30.000Z</time>
      </trkpt>
      <trkpt lat="48.85335" lon="2.41057">
        <ele>117.24</ele>
        <time>2020-03-13T22:29:31.000Z</time>
      </trkpt>
      <trkpt lat="48.85333" lon="2.41057">
        <ele>117.17</ele>
        <time>2020-03-13T22:29:32.000Z</time>
      </trkpt>
      <trkpt lat="48.85331" lon="2.41058">
        <ele>117.11</ele>
        <time>2020-03-13T22:29:33.000Z</time>
      </trkpt>
      <trkpt lat="48.85328" lon="2.41058">
        <ele>117.05</ele>
        <time>2020-03-13T22:29:34.000Z</time>
      </trkpt>
      <trkpt lat="48.85325" lon="2.41058">
        <ele>116.99</ele>
        <time>2020-03-13T22:29:35.000Z</time>
      </trkpt>
      <trkpt lat="48.85321" lon="2.41059">
        <ele>116.92</ele>
        <time>2020-03-13T22:29:36.000Z</time>
      </trkpt>
      <trkpt lat="48.85317" lon="2.4106">
        <ele>116.86</ele>
        <time>2020-03-13T22:29:37.000Z</time>
      </trkpt>
      <trkpt lat="48.85313" lon="2.41061">
        <ele>116.8</ele>
        <time>2020-03-13T22:29:38.000Z</time>
      </trkpt>
      <trkpt lat="48.85308" lon="2.41062">
        <ele>116.21</ele>
        <time>2020-03-13T22:29:39.000Z</time>
      </trkpt>
      <trkpt lat="48.85303" lon="2.41062">
        <ele>115.74</ele>
        <time>2020-03-13T22:29:40.000Z</time>
      </trkpt>
      <trkpt lat="48.85299" lon="2.41063">
        <ele>115.36</ele>
        <time>2020-03-13T22:29:41.000Z</time>
      </trkpt>
      <trkpt lat="48.85294" lon="2.41064">
        <ele>115.06</ele>
        <time>2020-03-13T22:29:42.000Z</time>
      </trkpt>
      <trkpt lat="48.85288" lon="2.41065">
        <ele>114.81</ele>
        <time>2020-03-13T22:29:43.000Z</time>
      </trkpt>
      <trkpt lat="48.85283" lon="2.41066">
        <ele>114.61</ele>
        <time>2020-03-13T22:29:44.000Z</time>
      </trkpt>
      <trkpt lat="48.85277" lon="2.41067">
        <ele>114.46</ele>
        <time>2020-03-13T22:29:45.000Z</time>
      </trkpt>
      <trkpt lat="48.85272" lon="2.41068">
        <ele>114.33</ele>
        <time>2020-03-13T22:29:46.000Z</time>
      </trkpt>
      <trkpt lat="48.85266" lon="2.41069">
        <ele>114.24</ele>
        <time>2020-03-13T22:29:47.000Z</time>
      </trkpt>
      <trkpt lat="48.85261" lon="2.41069">
        <ele>114.15</ele>
        <time>2020-03-13T22:29:48.000Z</time>
      </trkpt>
      <trkpt lat="48.85256" lon="2.4107">
        <ele>114.08</ele>
        <time>2020-03-13T22:29:49.000Z</time>
      </trkpt>
      <trkpt lat="48.8525" lon="2.41072">
        <ele>114.01</ele>
        <time>2020-03-13T22:29:50.000Z</time>
      </trkpt>
      <trkpt lat="48.85244" lon="2.41073">
        <ele>113.95</ele>
        <time>2020-03-13T22:29:51.000Z</time>
      </trkpt>
      <trkpt lat="48.85238" lon="2.41075">
        <ele>113.9</ele>
        <time>2020-03-13T22:29:52.000Z</time>
      </trkpt>
      <trkpt lat="48.85232" lon="2.41076">
        <ele>113.86</ele>
        <time>2020-03-13T22:29:53.000Z</time>
      </trkpt>
      <trkpt lat="48.85226" lon="2.41077">
        <ele>113.84</ele>
        <time>2020-03-13T22:29:54.000Z</time>
      </trkpt>
      <trkpt lat="48.8522" lon="2.41078">
        <ele>113.82</ele>
        <time>2020-03-13T22:29:55.000Z</time>
      </trkpt>
      <trkpt lat="48.85214" lon="2.41079">
        <ele>113.8</ele>
        <time>2020-03-13T22:29:56.000Z</time>
      </trkpt>
      <trkpt lat="48.85209" lon="2.4108">
        <ele>113.77</ele>
        <time>2020-03-13T22:29:57.000Z</time>
      </trkpt>
      <trkpt lat="48.85203" lon="2.41081">
        <ele>113.74</ele>
        <time>2020-03-13T22:29:58.000Z</time>
      </trkpt>
      <trkpt lat="48.85198" lon="2.41082">
        <ele>113.7</ele>
        <time>2020-03-13T22:29:59.000Z</time>
      </trkpt>
      <trkpt lat="48.85192" lon="2.41083">
        <ele>113.67</ele>
        <time>2020-03-13T22:30:00.000Z</time>
      </trkpt>
      <trkpt lat="48.85186" lon="2.41084">
        <ele>113.63</ele>
        <time>2020-03-13T22:30:01.000Z</time>
      </trkpt>
      <trkpt lat="48.8518" lon="2.41085">
        <ele>113.6</ele>
        <time>2020-03-13T22:30:02.000Z</time>
      </trkpt>
      <trkpt lat="48.85175" lon="2.41087">
        <ele>113.57</ele>
        <time>2020-03-13T22:30:03.000Z</time>
      </trkpt>
      <trkpt lat="48.85169" lon="2.41088">
        <ele>113.54</ele>
        <time>2020-03-13T22:30:04.000Z</time>
      </trkpt>
      <trkpt lat="48.85164" lon="2.41089">
        <ele>113.5</ele>
        <time>2020-03-13T22:30:05.000Z</time>
      </trkpt>
      <trkpt lat="48.85159" lon="2.4109">
        <ele>113.46</ele>
        <time>2020-03-13T22:30:06.000Z</time>
      </trkpt>
      <trkpt lat="48.85154" lon="2.41092">
        <ele>113.43</ele>
        <time>2020-03-13T22:30:07.000Z</time>
      </trkpt>
      <trkpt lat="48.85149" lon="2.41093">
        <ele>113.39</ele>
        <time>2020-03-13T22:30:08.000Z</time>
      </trkpt>
      <trkpt lat="48.85144" lon="2.41095">
        <ele>113.35</ele>
        <time>2020-03-13T22:30:09.000Z</time>
      </trkpt>
      <trkpt lat="48.85139" lon="2.41095">
        <ele>113.32</ele>
        <time>2020-03-13T22:30:10.000Z</time>
      </trkpt>
      <trkpt lat="48.85134" lon="2.41096">
        <ele>113.29</ele>
        <time>2020-03-13T22:30:11.000Z</time>
      </trkpt>
      <trkpt lat="48.85129" lon="2.41096">
        <ele>113.25</ele>
        <time>2020-03-13T22:30:12.000Z</time>
      </trkpt>
      <trkpt lat="48.85124" lon="2.41096">
        <ele>113.22</ele>
        <time>2020-03-13T22:30:13.000Z</time>
      </trkpt>
      <trkpt lat="48.8512" lon="2.41096">
        <ele>113.19</ele>
        <time>2020-03-13T22:30:14.000Z</time>
      </trkpt>
      <trkpt lat="48.85115" lon="2.41097">
        <ele>113.16</ele>
        <time>2020-03-13T22:30:15.000Z</time>
      </trkpt>
      <trkpt lat="48.85111" lon="2.41097">
        <ele>113.12</ele>
        <time>2020-03-13T22:30:16.000Z</time>
      </trkpt>
      <trkpt lat="48.85107" lon="2.41098">
        <ele>113.07</ele>
        <time>2020-03-13T22:30:17.000Z</time>
      </trkpt>
      <trkpt lat="48.85102" lon="2.411">
        <ele>113.03</ele>
        <time>2020-03-13T22:30:18.000Z</time>
      </trkpt>
      <trkpt lat="48.85098" lon="2.41101">
        <ele>112.99</ele>
        <time>2020-03-13T22:30:19.000Z</time>
      </trkpt>
      <trkpt lat="48.85094" lon="2.41103">
        <ele>112.96</ele>
        <time>2020-03-13T22:30:20.000Z</time>
      </trkpt>
      <trkpt lat="48.85089" lon="2.41103">
        <ele>112.91</ele>
        <time>2020-03-13T22:30:21.000Z</time>
      </trkpt>
      <trkpt lat="48.85084" lon="2.41105">
        <ele>112.88</ele>
        <time>2020-03-13T22:30:22.000Z</time>
      </trkpt>
      <trkpt lat="48.85079" lon="2.41106">
        <ele>112.84</ele>
        <time>2020-03-13T22:30:23.000Z</time>
      </trkpt>
      <trkpt lat="48.85074" lon="2.41107">
        <ele>112.8</ele>
        <time>2020-03-13T22:30:24.000Z</time>
      </trkpt>
      <trkpt lat="48.85069" lon="2.41107">
        <ele>112.77</ele>
        <time>2020-03-13T22:30:25.000Z</time>
      </trkpt>
      <trkpt lat="48.85064" lon="2.41108">
        <ele>112.74</ele>
        <time>2020-03-13T22:30:26.000Z</time>
      </trkpt>
      <trkpt lat="48.85059" lon="2.4111">
        <ele>112.72</ele>
        <time>2020-03-13T22:30:27.000Z</time>
      </trkpt>
      <trkpt lat="48.85054" lon="2.41111">
        <ele>112.7</ele>
        <time>2020-03-13T22:30:28.000Z</time>
      </trkpt>
      <trkpt lat="48.85049" lon="2.41111">
        <ele>112.68</ele>
        <time>2020-03-13T22:30:29.000Z</time>
      </trkpt>
      <trkpt lat="48.85044" lon="2.41112">
        <ele>112.64</ele>
        <time>2020-03-13T22:30:30.000Z</time>
      </trkpt>
      <trkpt lat="48.8504" lon="2.41113">
        <ele>112.61</ele>
        <time>2020-03-13T22:30:31.000Z</time>
      </trkpt>
      <trkpt lat="48.85035" lon="2.41114">
        <ele>112.58</ele>
        <time>2020-03-13T22:30:32.000Z</time>
      </trkpt>
      <trkpt lat="48.8503" lon="2.41115">
        <ele>112.54</ele>
        <time>2020-03-13T22:30:33.000Z</time>
      </trkpt>
      <trkpt lat="48.85025" lon="2.41116">
        <ele>112.51</ele>
        <time>2020-03-13T22:30:34.000Z</time>
      </trkpt>
      <trkpt lat="48.8502" lon="2.41118">
        <ele>112.47</ele>
        <time>2020-03-13T22:30:35.000Z</time>
      </trkpt>
      <trkpt lat="48.85015" lon="2.41119">
        <ele>112.42</ele>
        <time>2020-03-13T22:30:36.000Z</time>
      </trkpt>
      <trkpt lat="48.85009" lon="2.4112">
        <ele>112.38</ele>
        <time>2020-03-13T22:30:37.000Z</time>
      </trkpt>
      <trkpt lat="48.85005" lon="2.4112">
        <ele>112.35</ele>
        <time>2020-03-13T22:30:38.000Z</time>
      </trkpt>
      <trkpt lat="48.84999" lon="2.41121">
        <ele>112.31</ele>
        <time>2020-03-13T22:30:39.000Z</time>
      </trkpt>
      <trkpt lat="48.84995" lon="2.41122">
        <ele>112.25</ele>
        <time>2020-03-13T22:30:40.000Z</time>
      </trkpt>
      <trkpt lat="48.8499" lon="2.41122">
        <ele>112.2</ele>
        <time>2020-03-13T22:30:41.000Z</time>
      </trkpt>
      <trkpt lat="48.84985" lon="2.41123">
        <ele>112.14</ele>
        <time>2020-03-13T22:30:42.000Z</time>
      </trkpt>
      <trkpt lat="48.84979" lon="2.41124">
        <ele>112.08</ele>
        <time>2020-03-13T22:30:43.000Z</time>
      </trkpt>
      <trkpt lat="48.84974" lon="2.41125">
        <ele>112.02</ele>
        <time>2020-03-13T22:30:44.000Z</time>
      </trkpt>
      <trkpt lat="48.84969" lon="2.41126">
        <ele>111.97</ele>
        <time>2020-03-13T22:30:45.000Z</time>
      </trkpt>
      <trkpt lat="48.84964" lon="2.41127">
        <ele>111.92</ele>
        <time>2020-03-13T22:30:46.000Z</time>
      </trkpt>
      <trkpt lat="48.84959" lon="2.41128">
        <ele>111.86</ele>
        <time>2020-03-13T22:30:47.000Z</time>
      </trkpt>
      <trkpt lat="48.84953" lon="2.41129">
        <ele>111.8</ele>
        <time>2020-03-13T22:30:48.000Z</time>
      </trkpt>
      <trkpt lat="48.84948" lon="2.41129">
        <ele>111.75</ele>
        <time>2020-03-13T22:30:49.000Z</time>
      </trkpt>
      <trkpt lat="48.84943" lon="2.4113">
        <ele>111.7</ele>
        <time>2020-03-13T22:30:50.000Z</time>
      </trkpt>
      <trkpt lat="48.84938" lon="2.41131">
        <ele>111.66</ele>
        <time>2020-03-13T22:30:51.000Z</time>
      </trkpt>
      <trkpt lat="48.84933" lon="2.41131">
        <ele>111.62</ele>
        <time>2020-03-13T22:30:52.000Z</time>
      </trkpt>
      <trkpt lat="48.84928" lon="2.41131">
        <ele>111.57</ele>
        <time>2020-03-13T22:30:53.000Z</time>
      </trkpt>
      <trkpt lat="48.84924" lon="2.41131">
        <ele>111.53</ele>
        <time>2020-03-13T22:30:54.000Z</time>
      </trkpt>
      <trkpt lat="48.8492" lon="2.41131">
        <ele>111.48</ele>
        <time>2020-03-13T22:30:55.000Z</time>
      </trkpt>
      <trkpt lat="48.84917" lon="2.41131">
        <ele>111.43</ele>
        <time>2020-03-13T22:30:56.000Z</time>
      </trkpt>
      <trkpt lat="48.84912" lon="2.41131">
        <ele>111.38</ele>
        <time>2020-03-13T22:30:57.000Z</time>
      </trkpt>
      <trkpt lat="48.84908" lon="2.41131">
        <ele>111.35</ele>
        <time>2020-03-13T22:30:58.000Z</time>
      </trkpt>
      <trkpt lat="48.84904" lon="2.41132">
        <ele>111.34</ele>
        <time>2020-03-13T22:30:59.000Z</time>
      </trkpt>
      <trkpt lat="48.849" lon="2.41133">
        <ele>111.32</ele>
        <time>2020-03-13T22:31:00.000Z</time>
      </trkpt>
      <trkpt lat="48.84896" lon="2.41133">
        <ele>111.32</ele>
        <time>2020-03-13T22:31:01.000Z</time>
      </trkpt>
      <trkpt lat="48.84892" lon="2.41133">
        <ele>111.32</ele>
        <time>2020-03-13T22:31:02.000Z</time>
      </trkpt>
      <trkpt lat="48.84889" lon="2.41133">
        <ele>111.31</ele>
        <time>2020-03-13T22:31:03.000Z</time>
      </trkpt>
      <trkpt lat="48.84886" lon="2.41133">
        <ele>111.31</ele>
        <time>2020-03-13T22:31:04.000Z</time>
      </trkpt>
      <trkpt lat="48.84884" lon="2.41134">
        <ele>111.3</ele>
        <time>2020-03-13T22:31:05.000Z</time>
      </trkpt>
      <trkpt lat="48.84881" lon="2.41133">
        <ele>111.29</ele>
        <time>2020-03-13T22:31:06.000Z</time>
      </trkpt>
      <trkpt lat="48.84879" lon="2.41133">
        <ele>111.29</ele>
        <time>2020-03-13T22:31:07.000Z</time>
      </trkpt>
      <trkpt lat="48.84877" lon="2.41133">
        <ele>111.28</ele>
        <time>2020-03-13T22:31:08.000Z</time>
      </trkpt>
      <trkpt lat="48.84874" lon="2.41132">
        <ele>111.27</ele>
        <time>2020-03-13T22:31:09.000Z</time>
      </trkpt>
      <trkpt lat="48.84872" lon="2.41132">
        <ele>111.26</ele>
        <time>2020-03-13T22:31:10.000Z</time>
      </trkpt>
      <trkpt lat="48.84869" lon="2.41131">
        <ele>111.24</ele>
        <time>2020-03-13T22:31:11.000Z</time>
      </trkpt>
      <trkpt lat="48.84867" lon="2.41131">
        <ele>111.23</ele>
        <time>2020-03-13T22:31:12.000Z</time>
      </trkpt>
      <trkpt lat="48.84865" lon="2.41131">
        <ele>111.22</ele>
        <time>2020-03-13T22:31:13.000Z</time>
      </trkpt>
      <trkpt lat="48.84862" lon="2.41131">
        <ele>111.21</ele>
        <time>2020-03-13T22:31:14.000Z</time>
      </trkpt>
      <trkpt lat="48.8486" lon="2.41131">
        <ele>111.19</ele>
        <time>2020-03-13T22:31:15.000Z</time>
      </trkpt>
      <trkpt lat="48.84857" lon="2.41131">
        <ele>111.18</ele>
        <time>2020-03-13T22:31:16.000Z</time>
      </trkpt>
      <trkpt lat="48.84853" lon="2.41131">
        <ele>111.17</ele>
        <time>2020-03-13T22:31:17.000Z</time>
      </trkpt>
      <trkpt lat="48.8485" lon="2.41131">
        <ele>111.16</ele>
        <time>2020-03-13T22:31:18.000Z</time>
      </trkpt>
      <trkpt lat="48.84847" lon="2.41129">
        <ele>111.14</ele>
        <time>2020-03-13T22:31:19.000Z</time>
      </trkpt>
      <trkpt lat="48.84844" lon="2.41127">
        <ele>111.13</ele>
        <time>2020-03-13T22:31:20.000Z</time>
      </trkpt>
      <trkpt lat="48.8484" lon="2.41126">
        <ele>111</ele>
        <time>2020-03-13T22:31:21.000Z</time>
      </trkpt>
      <trkpt lat="48.84837" lon="2.41125">
        <ele>110.99</ele>
        <time>2020-03-13T22:31:22.000Z</time>
      </trkpt>
      <trkpt lat="48.84832" lon="2.41124">
        <ele>110.98</ele>
        <time>2020-03-13T22:31:23.000Z</time>
      </trkpt>
      <trkpt lat="48.84828" lon="2.41123">
        <ele>110.87</ele>
        <time>2020-03-13T22:31:24.000Z</time>
      </trkpt>
      <trkpt lat="48.84824" lon="2.41123">
        <ele>110.78</ele>
        <time>2020-03-13T22:31:25.000Z</time>
      </trkpt>
      <trkpt lat="48.84819" lon="2.41122">
        <ele>110.7</ele>
        <time>2020-03-13T22:31:26.000Z</time>
      </trkpt>
      <trkpt lat="48.84815" lon="2.41121">
        <ele>110.63</ele>
        <time>2020-03-13T22:31:27.000Z</time>
      </trkpt>
      <trkpt lat="48.84811" lon="2.4112">
        <ele>110.57</ele>
        <time>2020-03-13T22:31:28.000Z</time>
      </trkpt>
      <trkpt lat="48.84807" lon="2.41119">
        <ele>110.52</ele>
        <time>2020-03-13T22:31:29.000Z</time>
      </trkpt>
      <trkpt lat="48.84802" lon="2.41118">
        <ele>110.48</ele>
        <time>2020-03-13T22:31:30.000Z</time>
      </trkpt>
      <trkpt lat="48.84798" lon="2.41117">
        <ele>110.45</ele>
        <time>2020-03-13T22:31:31.000Z</time>
      </trkpt>
      <trkpt lat="48.84794" lon="2.41116">
        <ele>110.42</ele>
        <time>2020-03-13T22:31:32.000Z</time>
      </trkpt>
      <trkpt lat="48.8479" lon="2.41116">
        <ele>110.39</ele>
        <time>2020-03-13T22:31:33.000Z</time>
      </trkpt>
      <trkpt lat="48.84786" lon="2.41115">
        <ele>110.37</ele>
        <time>2020-03-13T22:31:34.000Z</time>
      </trkpt>
      <trkpt lat="48.84782" lon="2.41113">
        <ele>110.34</ele>
        <time>2020-03-13T22:31:35.000Z</time>
      </trkpt>
      <trkpt lat="48.84779" lon="2.41113">
        <ele>110.32</ele>
        <time>2020-03-13T22:31:36.000Z</time>
      </trkpt>
      <trkpt lat="48.84775" lon="2.41113">
        <ele>110.32</ele>
        <time>2020-03-13T22:31:37.000Z</time>
      </trkpt>
      <trkpt lat="48.84771" lon="2.41112">
        <ele>110.32</ele>
        <time>2020-03-13T22:31:38.000Z</time>
      </trkpt>
      <trkpt lat="48.84768" lon="2.41111">
        <ele>110.31</ele>
        <time>2020-03-13T22:31:39.000Z</time>
      </trkpt>
      <trkpt lat="48.84765" lon="2.41111">
        <ele>110.31</ele>
        <time>2020-03-13T22:31:40.000Z</time>
      </trkpt>
      <trkpt lat="48.84762" lon="2.4111">
        <ele>110.31</ele>
        <time>2020-03-13T22:31:41.000Z</time>
      </trkpt>
      <trkpt lat="48.84759" lon="2.4111">
        <ele>110.3</ele>
        <time>2020-03-13T22:31:42.000Z</time>
      </trkpt>
      <trkpt lat="48.84755" lon="2.41109">
        <ele>110.3</ele>
        <time>2020-03-13T22:31:43.000Z</time>
      </trkpt>
      <trkpt lat="48.84752" lon="2.41107">
        <ele>110.29</ele>
        <time>2020-03-13T22:31:44.000Z</time>
      </trkpt>
      <trkpt lat="48.8475" lon="2.41106">
        <ele>110.28</ele>
        <time>2020-03-13T22:31:45.000Z</time>
      </trkpt>
      <trkpt lat="48.84747" lon="2.41103">
        <ele>110.28</ele>
        <time>2020-03-13T22:31:46.000Z</time>
      </trkpt>
      <trkpt lat="48.84745" lon="2.41101">
        <ele>110.27</ele>
        <time>2020-03-13T22:31:47.000Z</time>
      </trkpt>
      <trkpt lat="48.84743" lon="2.41098">
        <ele>110.26</ele>
        <time>2020-03-13T22:31:48.000Z</time>
      </trkpt>
      <trkpt lat="48.84742" lon="2.41094">
        <ele>110.26</ele>
        <time>2020-03-13T22:31:49.000Z</time>
      </trkpt>
      <trkpt lat="48.84741" lon="2.4109">
        <ele>110.25</ele>
        <time>2020-03-13T22:31:50.000Z</time>
      </trkpt>
      <trkpt lat="48.8474" lon="2.41087">
        <ele>110.24</ele>
        <time>2020-03-13T22:31:51.000Z</time>
      </trkpt>
      <trkpt lat="48.84739" lon="2.41084">
        <ele>110.23</ele>
        <time>2020-03-13T22:31:52.000Z</time>
      </trkpt>
      <trkpt lat="48.84739" lon="2.41081">
        <ele>110.22</ele>
        <time>2020-03-13T22:31:53.000Z</time>
      </trkpt>
      <trkpt lat="48.84738" lon="2.41078">
        <ele>110.21</ele>
        <time>2020-03-13T22:31:54.000Z</time>
      </trkpt>
      <trkpt lat="48.84738" lon="2.41076">
        <ele>110.2</ele>
        <time>2020-03-13T22:31:55.000Z</time>
      </trkpt>
      <trkpt lat="48.84737" lon="2.41074">
        <ele>110.19</ele>
        <time>2020-03-13T22:31:56.000Z</time>
      </trkpt>
      <trkpt lat="48.84737" lon="2.41073">
        <ele>110.18</ele>
        <time>2020-03-13T22:31:57.000Z</time>
      </trkpt>
      <trkpt lat="48.84736" lon="2.41071">
        <ele>110.16</ele>
        <time>2020-03-13T22:31:58.000Z</time>
      </trkpt>
      <trkpt lat="48.84736" lon="2.41069">
        <ele>110.14</ele>
        <time>2020-03-13T22:32:00.000Z</time>
      </trkpt>
      <trkpt lat="48.84735" lon="2.41068">
        <ele>110.13</ele>
        <time>2020-03-13T22:32:01.000Z</time>
      </trkpt>
      <trkpt lat="48.84734" lon="2.41068">
        <ele>110.12</ele>
        <time>2020-03-13T22:32:02.000Z</time>
      </trkpt>
      <trkpt lat="48.84732" lon="2.41068">
        <ele>110.11</ele>
        <time>2020-03-13T22:32:03.000Z</time>
      </trkpt>
      <trkpt lat="48.84731" lon="2.41067">
        <ele>110.1</ele>
        <time>2020-03-13T22:32:04.000Z</time>
      </trkpt>
      <trkpt lat="48.84729" lon="2.41067">
        <ele>110.09</ele>
        <time>2020-03-13T22:32:05.000Z</time>
      </trkpt>
      <trkpt lat="48.84728" lon="2.41067">
        <ele>110.08</ele>
        <time>2020-03-13T22:32:06.000Z</time>
      </trkpt>
      <trkpt lat="48.84727" lon="2.41067">
        <ele>110.07</ele>
        <time>2020-03-13T22:32:07.000Z</time>
      </trkpt>
      <trkpt lat="48.84725" lon="2.41066">
        <ele>110.06</ele>
        <time>2020-03-13T22:32:08.000Z</time>
      </trkpt>
      <trkpt lat="48.84724" lon="2.41065">
        <ele>110.05</ele>
        <time>2020-03-13T22:32:09.000Z</time>
      </trkpt>
      <trkpt lat="48.84722" lon="2.41064">
        <ele>110.03</ele>
        <time>2020-03-13T22:32:11.000Z</time>
      </trkpt>
      <trkpt lat="48.84721" lon="2.41064">
        <ele>110.01</ele>
        <time>2020-03-13T22:32:13.000Z</time>
      </trkpt>
      <trkpt lat="48.84721" lon="2.41066">
        <ele>109.98</ele>
        <time>2020-03-13T22:32:15.000Z</time>
      </trkpt>
      <trkpt lat="48.8472" lon="2.41067">
        <ele>109.94</ele>
        <time>2020-03-13T22:32:19.000Z</time>
      </trkpt>
      <trkpt lat="48.84721" lon="2.41066">
        <ele>109.9</ele>
        <time>2020-03-13T22:32:23.000Z</time>
      </trkpt>
      <trkpt lat="48.84722" lon="2.41066">
        <ele>109.81</ele>
        <time>2020-03-13T22:32:38.000Z</time>
      </trkpt>
      <trkpt lat="48.84721" lon="2.41067">
        <ele>109.73</ele>
        <time>2020-03-13T22:32:44.000Z</time>
      </trkpt>
      <trkpt lat="48.84719" lon="2.41067">
        <ele>109.71</ele>
        <time>2020-03-13T22:32:45.000Z</time>
      </trkpt>
      <trkpt lat="48.84718" lon="2.41066">
        <ele>109.69</ele>
        <time>2020-03-13T22:32:46.000Z</time>
      </trkpt>
      <trkpt lat="48.84715" lon="2.41065">
        <ele>109.68</ele>
        <time>2020-03-13T22:32:47.000Z</time>
      </trkpt>
      <trkpt lat="48.84713" lon="2.41066">
        <ele>109.66</ele>
        <time>2020-03-13T22:32:48.000Z</time>
      </trkpt>
      <trkpt lat="48.84711" lon="2.41066">
        <ele>109.64</ele>
        <time>2020-03-13T22:32:49.000Z</time>
      </trkpt>
      <trkpt lat="48.84708" lon="2.41067">
        <ele>109.63</ele>
        <time>2020-03-13T22:32:50.000Z</time>
      </trkpt>
      <trkpt lat="48.84706" lon="2.41067">
        <ele>109.61</ele>
        <time>2020-03-13T22:32:51.000Z</time>
      </trkpt>
      <trkpt lat="48.84704" lon="2.41066">
        <ele>109.59</ele>
        <time>2020-03-13T22:32:52.000Z</time>
      </trkpt>
      <trkpt lat="48.84701" lon="2.41065">
        <ele>109.58</ele>
        <time>2020-03-13T22:32:53.000Z</time>
      </trkpt>
      <trkpt lat="48.84698" lon="2.41066">
        <ele>109.56</ele>
        <time>2020-03-13T22:32:54.000Z</time>
      </trkpt>
      <trkpt lat="48.84695" lon="2.41066">
        <ele>109.55</ele>
        <time>2020-03-13T22:32:55.000Z</time>
      </trkpt>
      <trkpt lat="48.84693" lon="2.41067">
        <ele>109.53</ele>
        <time>2020-03-13T22:32:56.000Z</time>
      </trkpt>
      <trkpt lat="48.8469" lon="2.41067">
        <ele>109.52</ele>
        <time>2020-03-13T22:32:57.000Z</time>
      </trkpt>
      <trkpt lat="48.84688" lon="2.41067">
        <ele>109.5</ele>
        <time>2020-03-13T22:32:58.000Z</time>
      </trkpt>
      <trkpt lat="48.84685" lon="2.41068">
        <ele>109.49</ele>
        <time>2020-03-13T22:32:59.000Z</time>
      </trkpt>
      <trkpt lat="48.84683" lon="2.4107">
        <ele>109.47</ele>
        <time>2020-03-13T22:33:00.000Z</time>
      </trkpt>
      <trkpt lat="48.8468" lon="2.41072">
        <ele>109.46</ele>
        <time>2020-03-13T22:33:01.000Z</time>
      </trkpt>
      <trkpt lat="48.84677" lon="2.41074">
        <ele>109.45</ele>
        <time>2020-03-13T22:33:02.000Z</time>
      </trkpt>
      <trkpt lat="48.84675" lon="2.41077">
        <ele>109.43</ele>
        <time>2020-03-13T22:33:03.000Z</time>
      </trkpt>
      <trkpt lat="48.84672" lon="2.41079">
        <ele>109.42</ele>
        <time>2020-03-13T22:33:04.000Z</time>
      </trkpt>
      <trkpt lat="48.84669" lon="2.41079">
        <ele>109.4</ele>
        <time>2020-03-13T22:33:05.000Z</time>
      </trkpt>
      <trkpt lat="48.84665" lon="2.4108">
        <ele>109.39</ele>
        <time>2020-03-13T22:33:06.000Z</time>
      </trkpt>
      <trkpt lat="48.84662" lon="2.4108">
        <ele>109.25</ele>
        <time>2020-03-13T22:33:07.000Z</time>
      </trkpt>
      <trkpt lat="48.84656" lon="2.41081">
        <ele>109.14</ele>
        <time>2020-03-13T22:33:08.000Z</time>
      </trkpt>
      <trkpt lat="48.84652" lon="2.4108">
        <ele>109.05</ele>
        <time>2020-03-13T22:33:09.000Z</time>
      </trkpt>
      <trkpt lat="48.84647" lon="2.4108">
        <ele>108.97</ele>
        <time>2020-03-13T22:33:10.000Z</time>
      </trkpt>
      <trkpt lat="48.84642" lon="2.41079">
        <ele>108.91</ele>
        <time>2020-03-13T22:33:11.000Z</time>
      </trkpt>
      <trkpt lat="48.84638" lon="2.41078">
        <ele>108.87</ele>
        <time>2020-03-13T22:33:12.000Z</time>
      </trkpt>
      <trkpt lat="48.84634" lon="2.41076">
        <ele>108.83</ele>
        <time>2020-03-13T22:33:13.000Z</time>
      </trkpt>
      <trkpt lat="48.8463" lon="2.41075">
        <ele>108.8</ele>
        <time>2020-03-13T22:33:14.000Z</time>
      </trkpt>
      <trkpt lat="48.84626" lon="2.41073">
        <ele>108.78</ele>
        <time>2020-03-13T22:33:15.000Z</time>
      </trkpt>
      <trkpt lat="48.84622" lon="2.41071">
        <ele>108.77</ele>
        <time>2020-03-13T22:33:16.000Z</time>
      </trkpt>
      <trkpt lat="48.84619" lon="2.41069">
        <ele>108.77</ele>
        <time>2020-03-13T22:33:17.000Z</time>
      </trkpt>
      <trkpt lat="48.84614" lon="2.41067">
        <ele>108.76</ele>
        <time>2020-03-13T22:33:18.000Z</time>
      </trkpt>
      <trkpt lat="48.8461" lon="2.41066">
        <ele>108.76</ele>
        <time>2020-03-13T22:33:19.000Z</time>
      </trkpt>
      <trkpt lat="48.84606" lon="2.41066">
        <ele>108.76</ele>
        <time>2020-03-13T22:33:20.000Z</time>
      </trkpt>
      <trkpt lat="48.84602" lon="2.41067">
        <ele>108.76</ele>
        <time>2020-03-13T22:33:21.000Z</time>
      </trkpt>
      <trkpt lat="48.84598" lon="2.41067">
        <ele>108.76</ele>
        <time>2020-03-13T22:33:22.000Z</time>
      </trkpt>
      <trkpt lat="48.84594" lon="2.41068">
        <ele>108.75</ele>
        <time>2020-03-13T22:33:23.000Z</time>
      </trkpt>
      <trkpt lat="48.8459" lon="2.41069">
        <ele>108.75</ele>
        <time>2020-03-13T22:33:24.000Z</time>
      </trkpt>
      <trkpt lat="48.84586" lon="2.4107">
        <ele>108.75</ele>
        <time>2020-03-13T22:33:25.000Z</time>
      </trkpt>
      <trkpt lat="48.84582" lon="2.4107">
        <ele>108.74</ele>
        <time>2020-03-13T22:33:26.000Z</time>
      </trkpt>
      <trkpt lat="48.84578" lon="2.41069">
        <ele>108.74</ele>
        <time>2020-03-13T22:33:27.000Z</time>
      </trkpt>
      <trkpt lat="48.84574" lon="2.41068">
        <ele>108.74</ele>
        <time>2020-03-13T22:33:28.000Z</time>
      </trkpt>
      <trkpt lat="48.8457" lon="2.41067">
        <ele>108.74</ele>
        <time>2020-03-13T22:33:29.000Z</time>
      </trkpt>
      <trkpt lat="48.84566" lon="2.41066">
        <ele>108.73</ele>
        <time>2020-03-13T22:33:30.000Z</time>
      </trkpt>
      <trkpt lat="48.84562" lon="2.41064">
        <ele>108.73</ele>
        <time>2020-03-13T22:33:31.000Z</time>
      </trkpt>
      <trkpt lat="48.84558" lon="2.41063">
        <ele>108.72</ele>
        <time>2020-03-13T22:33:32.000Z</time>
      </trkpt>
      <trkpt lat="48.84553" lon="2.41061">
        <ele>108.72</ele>
        <time>2020-03-13T22:33:33.000Z</time>
      </trkpt>
      <trkpt lat="48.84549" lon="2.41059">
        <ele>108.72</ele>
        <time>2020-03-13T22:33:34.000Z</time>
      </trkpt>
      <trkpt lat="48.84545" lon="2.41058">
        <ele>108.72</ele>
        <time>2020-03-13T22:33:35.000Z</time>
      </trkpt>
      <trkpt lat="48.8454" lon="2.41057">
        <ele>108.73</ele>
        <time>2020-03-13T22:33:36.000Z</time>
      </trkpt>
      <trkpt lat="48.84536" lon="2.41055">
        <ele>108.72</ele>
        <time>2020-03-13T22:33:37.000Z</time>
      </trkpt>
      <trkpt lat="48.84531" lon="2.41053">
        <ele>108.72</ele>
        <time>2020-03-13T22:33:38.000Z</time>
      </trkpt>
      <trkpt lat="48.84525" lon="2.41052">
        <ele>108.72</ele>
        <time>2020-03-13T22:33:39.000Z</time>
      </trkpt>
      <trkpt lat="48.8452" lon="2.4105">
        <ele>108.71</ele>
        <time>2020-03-13T22:33:40.000Z</time>
      </trkpt>
      <trkpt lat="48.84515" lon="2.41048">
        <ele>108.71</ele>
        <time>2020-03-13T22:33:41.000Z</time>
      </trkpt>
      <trkpt lat="48.84509" lon="2.41045">
        <ele>108.7</ele>
        <time>2020-03-13T22:33:42.000Z</time>
      </trkpt>
      <trkpt lat="48.84505" lon="2.41043">
        <ele>108.7</ele>
        <time>2020-03-13T22:33:43.000Z</time>
      </trkpt>
      <trkpt lat="48.845" lon="2.41042">
        <ele>108.7</ele>
        <time>2020-03-13T22:33:44.000Z</time>
      </trkpt>
      <trkpt lat="48.84495" lon="2.41042">
        <ele>108.7</ele>
        <time>2020-03-13T22:33:45.000Z</time>
      </trkpt>
      <trkpt lat="48.84492" lon="2.41042">
        <ele>108.7</ele>
        <time>2020-03-13T22:33:46.000Z</time>
      </trkpt>
      <trkpt lat="48.84488" lon="2.41041">
        <ele>108.7</ele>
        <time>2020-03-13T22:33:47.000Z</time>
      </trkpt>
      <trkpt lat="48.84484" lon="2.4104">
        <ele>108.7</ele>
        <time>2020-03-13T22:33:48.000Z</time>
      </trkpt>
      <trkpt lat="48.84479" lon="2.41037">
        <ele>108.69</ele>
        <time>2020-03-13T22:33:49.000Z</time>
      </trkpt>
      <trkpt lat="48.84475" lon="2.41036">
        <ele>108.69</ele>
        <time>2020-03-13T22:33:50.000Z</time>
      </trkpt>
      <trkpt lat="48.84472" lon="2.41035">
        <ele>108.69</ele>
        <time>2020-03-13T22:33:51.000Z</time>
      </trkpt>
      <trkpt lat="48.84467" lon="2.41031">
        <ele>108.69</ele>
        <time>2020-03-13T22:33:52.000Z</time>
      </trkpt>
      <trkpt lat="48.84463" lon="2.41029">
        <ele>108.69</ele>
        <time>2020-03-13T22:33:53.000Z</time>
      </trkpt>
      <trkpt lat="48.84461" lon="2.41029">
        <ele>108.69</ele>
        <time>2020-03-13T22:33:54.000Z</time>
      </trkpt>
      <trkpt lat="48.84458" lon="2.41028">
        <ele>108.69</ele>
        <time>2020-03-13T22:33:55.000Z</time>
      </trkpt>
      <trkpt lat="48.84454" lon="2.41026">
        <ele>108.69</ele>
        <time>2020-03-13T22:33:56.000Z</time>
      </trkpt>
      <trkpt lat="48.84451" lon="2.41024">
        <ele>108.69</ele>
        <time>2020-03-13T22:33:57.000Z</time>
      </trkpt>
      <trkpt lat="48.84449" lon="2.41022">
        <ele>108.69</ele>
        <time>2020-03-13T22:33:58.000Z</time>
      </trkpt>
      <trkpt lat="48.84445" lon="2.41021">
        <ele>108.7</ele>
        <time>2020-03-13T22:33:59.000Z</time>
      </trkpt>
      <trkpt lat="48.84442" lon="2.41019">
        <ele>108.7</ele>
        <time>2020-03-13T22:34:00.000Z</time>
      </trkpt>
      <trkpt lat="48.84439" lon="2.41017">
        <ele>108.71</ele>
        <time>2020-03-13T22:34:01.000Z</time>
      </trkpt>
      <trkpt lat="48.84435" lon="2.41016">
        <ele>108.72</ele>
        <time>2020-03-13T22:34:02.000Z</time>
      </trkpt>
      <trkpt lat="48.84431" lon="2.41015">
        <ele>108.73</ele>
        <time>2020-03-13T22:34:03.000Z</time>
      </trkpt>
      <trkpt lat="48.84427" lon="2.41013">
        <ele>108.74</ele>
        <time>2020-03-13T22:34:04.000Z</time>
      </trkpt>
      <trkpt lat="48.84423" lon="2.41012">
        <ele>108.74</ele>
        <time>2020-03-13T22:34:05.000Z</time>
      </trkpt>
      <trkpt lat="48.84419" lon="2.41011">
        <ele>108.74</ele>
        <time>2020-03-13T22:34:06.000Z</time>
      </trkpt>
      <trkpt lat="48.84416" lon="2.4101">
        <ele>108.75</ele>
        <time>2020-03-13T22:34:07.000Z</time>
      </trkpt>
      <trkpt lat="48.84412" lon="2.41009">
        <ele>108.75</ele>
        <time>2020-03-13T22:34:08.000Z</time>
      </trkpt>
      <trkpt lat="48.84408" lon="2.41008">
        <ele>108.75</ele>
        <time>2020-03-13T22:34:09.000Z</time>
      </trkpt>
      <trkpt lat="48.84405" lon="2.41006">
        <ele>108.76</ele>
        <time>2020-03-13T22:34:10.000Z</time>
      </trkpt>
      <trkpt lat="48.84401" lon="2.41005">
        <ele>108.76</ele>
        <time>2020-03-13T22:34:11.000Z</time>
      </trkpt>
      <trkpt lat="48.84397" lon="2.41004">
        <ele>108.76</ele>
        <time>2020-03-13T22:34:12.000Z</time>
      </trkpt>
      <trkpt lat="48.84393" lon="2.41003">
        <ele>108.76</ele>
        <time>2020-03-13T22:34:13.000Z</time>
      </trkpt>
      <trkpt lat="48.8439" lon="2.41002">
        <ele>108.76</ele>
        <time>2020-03-13T22:34:14.000Z</time>
      </trkpt>
      <trkpt lat="48.84386" lon="2.41001">
        <ele>108.76</ele>
        <time>2020-03-13T22:34:15.000Z</time>
      </trkpt>
      <trkpt lat="48.84383" lon="2.40999">
        <ele>108.76</ele>
        <time>2020-03-13T22:34:16.000Z</time>
      </trkpt>
      <trkpt lat="48.84379" lon="2.40997">
        <ele>108.76</ele>
        <time>2020-03-13T22:34:17.000Z</time>
      </trkpt>
      <trkpt lat="48.84375" lon="2.40995">
        <ele>108.76</ele>
        <time>2020-03-13T22:34:18.000Z</time>
      </trkpt>
      <trkpt lat="48.84371" lon="2.40993">
        <ele>108.75</ele>
        <time>2020-03-13T22:34:19.000Z</time>
      </trkpt>
      <trkpt lat="48.84367" lon="2.40992">
        <ele>108.76</ele>
        <time>2020-03-13T22:34:20.000Z</time>
      </trkpt>
      <trkpt lat="48.84362" lon="2.4099">
        <ele>108.76</ele>
        <time>2020-03-13T22:34:21.000Z</time>
      </trkpt>
      <trkpt lat="48.84358" lon="2.40989">
        <ele>108.76</ele>
        <time>2020-03-13T22:34:22.000Z</time>
      </trkpt>
      <trkpt lat="48.84354" lon="2.40987">
        <ele>108.75</ele>
        <time>2020-03-13T22:34:23.000Z</time>
      </trkpt>
      <trkpt lat="48.8435" lon="2.40986">
        <ele>108.75</ele>
        <time>2020-03-13T22:34:24.000Z</time>
      </trkpt>
      <trkpt lat="48.84345" lon="2.40984">
        <ele>108.75</ele>
        <time>2020-03-13T22:34:25.000Z</time>
      </trkpt>
      <trkpt lat="48.8434" lon="2.40983">
        <ele>108.75</ele>
        <time>2020-03-13T22:34:26.000Z</time>
      </trkpt>
      <trkpt lat="48.84334" lon="2.40982">
        <ele>108.75</ele>
        <time>2020-03-13T22:34:27.000Z</time>
      </trkpt>
      <trkpt lat="48.84329" lon="2.4098">
        <ele>108.75</ele>
        <time>2020-03-13T22:34:28.000Z</time>
      </trkpt>
      <trkpt lat="48.84325" lon="2.40979">
        <ele>108.75</ele>
        <time>2020-03-13T22:34:29.000Z</time>
      </trkpt>
      <trkpt lat="48.84319" lon="2.40977">
        <ele>108.75</ele>
        <time>2020-03-13T22:34:30.000Z</time>
      </trkpt>
      <trkpt lat="48.84313" lon="2.40976">
        <ele>108.74</ele>
        <time>2020-03-13T22:34:31.000Z</time>
      </trkpt>
      <trkpt lat="48.84308" lon="2.40974">
        <ele>108.75</ele>
        <time>2020-03-13T22:34:32.000Z</time>
      </trkpt>
      <trkpt lat="48.84303" lon="2.40972">
        <ele>108.75</ele>
        <time>2020-03-13T22:34:33.000Z</time>
      </trkpt>
      <trkpt lat="48.84298" lon="2.40971">
        <ele>108.75</ele>
        <time>2020-03-13T22:34:34.000Z</time>
      </trkpt>
      <trkpt lat="48.84292" lon="2.40969">
        <ele>108.75</ele>
        <time>2020-03-13T22:34:35.000Z</time>
      </trkpt>
      <trkpt lat="48.84287" lon="2.40967">
        <ele>108.75</ele>
        <time>2020-03-13T22:34:36.000Z</time>
      </trkpt>
      <trkpt lat="48.84281" lon="2.40965">
        <ele>108.75</ele>
        <time>2020-03-13T22:34:37.000Z</time>
      </trkpt>
      <trkpt lat="48.84276" lon="2.40964">
        <ele>108.75</ele>
        <time>2020-03-13T22:34:38.000Z</time>
      </trkpt>
      <trkpt lat="48.84271" lon="2.40962">
        <ele>108.74</ele>
        <time>2020-03-13T22:34:39.000Z</time>
      </trkpt>
      <trkpt lat="48.84266" lon="2.4096">
        <ele>108.74</ele>
        <time>2020-03-13T22:34:40.000Z</time>
      </trkpt>
      <trkpt lat="48.84261" lon="2.40959">
        <ele>108.74</ele>
        <time>2020-03-13T22:34:41.000Z</time>
      </trkpt>
      <trkpt lat="48.84257" lon="2.40957">
        <ele>108.74</ele>
        <time>2020-03-13T22:34:42.000Z</time>
      </trkpt>
      <trkpt lat="48.84252" lon="2.40956">
        <ele>108.74</ele>
        <time>2020-03-13T22:34:43.000Z</time>
      </trkpt>
      <trkpt lat="48.84246" lon="2.40954">
        <ele>108.73</ele>
        <time>2020-03-13T22:34:44.000Z</time>
      </trkpt>
      <trkpt lat="48.8424" lon="2.40952">
        <ele>108.73</ele>
        <time>2020-03-13T22:34:45.000Z</time>
      </trkpt>
      <trkpt lat="48.84234" lon="2.40951">
        <ele>108.72</ele>
        <time>2020-03-13T22:34:46.000Z</time>
      </trkpt>
      <trkpt lat="48.84227" lon="2.4095">
        <ele>108.72</ele>
        <time>2020-03-13T22:34:47.000Z</time>
      </trkpt>
      <trkpt lat="48.84222" lon="2.40949">
        <ele>108.71</ele>
        <time>2020-03-13T22:34:48.000Z</time>
      </trkpt>
      <trkpt lat="48.84216" lon="2.40947">
        <ele>108.7</ele>
        <time>2020-03-13T22:34:49.000Z</time>
      </trkpt>
      <trkpt lat="48.8421" lon="2.40946">
        <ele>108.68</ele>
        <time>2020-03-13T22:34:50.000Z</time>
      </trkpt>
      <trkpt lat="48.84205" lon="2.40945">
        <ele>108.67</ele>
        <time>2020-03-13T22:34:51.000Z</time>
      </trkpt>
      <trkpt lat="48.84199" lon="2.40943">
        <ele>108.66</ele>
        <time>2020-03-13T22:34:52.000Z</time>
      </trkpt>
      <trkpt lat="48.84193" lon="2.40942">
        <ele>108.66</ele>
        <time>2020-03-13T22:34:53.000Z</time>
      </trkpt>
      <trkpt lat="48.84187" lon="2.40941">
        <ele>108.65</ele>
        <time>2020-03-13T22:34:54.000Z</time>
      </trkpt>
      <trkpt lat="48.84181" lon="2.40939">
        <ele>108.65</ele>
        <time>2020-03-13T22:34:55.000Z</time>
      </trkpt>
      <trkpt lat="48.84176" lon="2.40938">
        <ele>108.64</ele>
        <time>2020-03-13T22:34:56.000Z</time>
      </trkpt>
      <trkpt lat="48.8417" lon="2.40936">
        <ele>108.63</ele>
        <time>2020-03-13T22:34:57.000Z</time>
      </trkpt>
      <trkpt lat="48.84164" lon="2.40934">
        <ele>108.62</ele>
        <time>2020-03-13T22:34:58.000Z</time>
      </trkpt>
      <trkpt lat="48.84158" lon="2.40933">
        <ele>108.6</ele>
        <time>2020-03-13T22:34:59.000Z</time>
      </trkpt>
      <trkpt lat="48.84152" lon="2.40931">
        <ele>108.59</ele>
        <time>2020-03-13T22:35:00.000Z</time>
      </trkpt>
      <trkpt lat="48.84146" lon="2.4093">
        <ele>108.58</ele>
        <time>2020-03-13T22:35:01.000Z</time>
      </trkpt>
      <trkpt lat="48.84141" lon="2.40929">
        <ele>108.57</ele>
        <time>2020-03-13T22:35:02.000Z</time>
      </trkpt>
      <trkpt lat="48.84135" lon="2.40927">
        <ele>108.56</ele>
        <time>2020-03-13T22:35:03.000Z</time>
      </trkpt>
      <trkpt lat="48.84129" lon="2.40926">
        <ele>108.54</ele>
        <time>2020-03-13T22:35:04.000Z</time>
      </trkpt>
      <trkpt lat="48.84123" lon="2.40923">
        <ele>108.53</ele>
        <time>2020-03-13T22:35:05.000Z</time>
      </trkpt>
      <trkpt lat="48.84118" lon="2.40922">
        <ele>108.51</ele>
        <time>2020-03-13T22:35:06.000Z</time>
      </trkpt>
      <trkpt lat="48.84113" lon="2.4092">
        <ele>108.5</ele>
        <time>2020-03-13T22:35:07.000Z</time>
      </trkpt>
      <trkpt lat="48.84108" lon="2.40917">
        <ele>108.49</ele>
        <time>2020-03-13T22:35:08.000Z</time>
      </trkpt>
      <trkpt lat="48.84102" lon="2.40916">
        <ele>108.47</ele>
        <time>2020-03-13T22:35:09.000Z</time>
      </trkpt>
      <trkpt lat="48.84097" lon="2.40914">
        <ele>108.45</ele>
        <time>2020-03-13T22:35:10.000Z</time>
      </trkpt>
      <trkpt lat="48.84092" lon="2.40912">
        <ele>108.44</ele>
        <time>2020-03-13T22:35:11.000Z</time>
      </trkpt>
      <trkpt lat="48.84087" lon="2.4091">
        <ele>108.42</ele>
        <time>2020-03-13T22:35:12.000Z</time>
      </trkpt>
      <trkpt lat="48.84081" lon="2.40908">
        <ele>108.4</ele>
        <time>2020-03-13T22:35:13.000Z</time>
      </trkpt>
      <trkpt lat="48.84076" lon="2.40906">
        <ele>108.38</ele>
        <time>2020-03-13T22:35:14.000Z</time>
      </trkpt>
      <trkpt lat="48.84071" lon="2.40904">
        <ele>108.37</ele>
        <time>2020-03-13T22:35:15.000Z</time>
      </trkpt>
      <trkpt lat="48.84066" lon="2.40903">
        <ele>108.36</ele>
        <time>2020-03-13T22:35:16.000Z</time>
      </trkpt>
      <trkpt lat="48.8406" lon="2.40901">
        <ele>108.35</ele>
        <time>2020-03-13T22:35:17.000Z</time>
      </trkpt>
      <trkpt lat="48.84055" lon="2.40899">
        <ele>108.33</ele>
        <time>2020-03-13T22:35:18.000Z</time>
      </trkpt>
      <trkpt lat="48.8405" lon="2.40898">
        <ele>108.32</ele>
        <time>2020-03-13T22:35:19.000Z</time>
      </trkpt>
      <trkpt lat="48.84045" lon="2.40895">
        <ele>108.31</ele>
        <time>2020-03-13T22:35:20.000Z</time>
      </trkpt>
      <trkpt lat="48.8404" lon="2.40893">
        <ele>108.29</ele>
        <time>2020-03-13T22:35:21.000Z</time>
      </trkpt>
      <trkpt lat="48.84034" lon="2.4089">
        <ele>108.28</ele>
        <time>2020-03-13T22:35:22.000Z</time>
      </trkpt>
      <trkpt lat="48.84028" lon="2.40888">
        <ele>108.26</ele>
        <time>2020-03-13T22:35:23.000Z</time>
      </trkpt>
      <trkpt lat="48.84022" lon="2.40885">
        <ele>108.24</ele>
        <time>2020-03-13T22:35:24.000Z</time>
      </trkpt>
      <trkpt lat="48.84015" lon="2.40883">
        <ele>108.22</ele>
        <time>2020-03-13T22:35:25.000Z</time>
      </trkpt>
      <trkpt lat="48.84008" lon="2.40881">
        <ele>108.2</ele>
        <time>2020-03-13T22:35:26.000Z</time>
      </trkpt>
      <trkpt lat="48.84001" lon="2.40879">
        <ele>108.17</ele>
        <time>2020-03-13T22:35:27.000Z</time>
      </trkpt>
      <trkpt lat="48.83994" lon="2.40877">
        <ele>108.14</ele>
        <time>2020-03-13T22:35:28.000Z</time>
      </trkpt>
      <trkpt lat="48.83987" lon="2.40875">
        <ele>108.11</ele>
        <time>2020-03-13T22:35:29.000Z</time>
      </trkpt>
      <trkpt lat="48.8398" lon="2.40872">
        <ele>108.09</ele>
        <time>2020-03-13T22:35:30.000Z</time>
      </trkpt>
      <trkpt lat="48.83974" lon="2.4087">
        <ele>108.06</ele>
        <time>2020-03-13T22:35:31.000Z</time>
      </trkpt>
      <trkpt lat="48.83968" lon="2.40868">
        <ele>108.04</ele>
        <time>2020-03-13T22:35:32.000Z</time>
      </trkpt>
      <trkpt lat="48.83961" lon="2.40865">
        <ele>108.02</ele>
        <time>2020-03-13T22:35:33.000Z</time>
      </trkpt>
      <trkpt lat="48.83955" lon="2.40863">
        <ele>108.04</ele>
        <time>2020-03-13T22:35:34.000Z</time>
      </trkpt>
      <trkpt lat="48.83949" lon="2.40862">
        <ele>108.08</ele>
        <time>2020-03-13T22:35:35.000Z</time>
      </trkpt>
      <trkpt lat="48.83943" lon="2.4086">
        <ele>108.08</ele>
        <time>2020-03-13T22:35:36.000Z</time>
      </trkpt>
      <trkpt lat="48.83936" lon="2.40859">
        <ele>108.09</ele>
        <time>2020-03-13T22:35:37.000Z</time>
      </trkpt>
      <trkpt lat="48.8393" lon="2.40857">
        <ele>108.07</ele>
        <time>2020-03-13T22:35:38.000Z</time>
      </trkpt>
      <trkpt lat="48.83924" lon="2.40856">
        <ele>108</ele>
        <time>2020-03-13T22:35:39.000Z</time>
      </trkpt>
      <trkpt lat="48.83917" lon="2.40854">
        <ele>107.92</ele>
        <time>2020-03-13T22:35:40.000Z</time>
      </trkpt>
      <trkpt lat="48.83911" lon="2.40852">
        <ele>107.86</ele>
        <time>2020-03-13T22:35:41.000Z</time>
      </trkpt>
      <trkpt lat="48.83905" lon="2.40851">
        <ele>107.75</ele>
        <time>2020-03-13T22:35:42.000Z</time>
      </trkpt>
      <trkpt lat="48.83899" lon="2.40849">
        <ele>107.4</ele>
        <time>2020-03-13T22:35:43.000Z</time>
      </trkpt>
      <trkpt lat="48.83893" lon="2.40847">
        <ele>107.02</ele>
        <time>2020-03-13T22:35:44.000Z</time>
      </trkpt>
      <trkpt lat="48.83887" lon="2.40845">
        <ele>106.7</ele>
        <time>2020-03-13T22:35:45.000Z</time>
      </trkpt>
      <trkpt lat="48.8388" lon="2.40843">
        <ele>106.47</ele>
        <time>2020-03-13T22:35:46.000Z</time>
      </trkpt>
      <trkpt lat="48.83873" lon="2.40841">
        <ele>106.33</ele>
        <time>2020-03-13T22:35:47.000Z</time>
      </trkpt>
      <trkpt lat="48.83866" lon="2.40842">
        <ele>106.15</ele>
        <time>2020-03-13T22:35:48.000Z</time>
      </trkpt>
      <trkpt lat="48.83859" lon="2.4084">
        <ele>105.91</ele>
        <time>2020-03-13T22:35:49.000Z</time>
      </trkpt>
      <trkpt lat="48.83852" lon="2.40839">
        <ele>105.62</ele>
        <time>2020-03-13T22:35:50.000Z</time>
      </trkpt>
      <trkpt lat="48.83845" lon="2.40837">
        <ele>105.44</ele>
        <time>2020-03-13T22:35:51.000Z</time>
      </trkpt>
      <trkpt lat="48.83839" lon="2.40836">
        <ele>105.3</ele>
        <time>2020-03-13T22:35:52.000Z</time>
      </trkpt>
      <trkpt lat="48.83833" lon="2.40835">
        <ele>105.19</ele>
        <time>2020-03-13T22:35:53.000Z</time>
      </trkpt>
      <trkpt lat="48.83827" lon="2.40831">
        <ele>105.09</ele>
        <time>2020-03-13T22:35:54.000Z</time>
      </trkpt>
      <trkpt lat="48.8382" lon="2.40828">
        <ele>104.98</ele>
        <time>2020-03-13T22:35:55.000Z</time>
      </trkpt>
      <trkpt lat="48.83814" lon="2.40825">
        <ele>104.87</ele>
        <time>2020-03-13T22:35:56.000Z</time>
      </trkpt>
      <trkpt lat="48.83808" lon="2.40824">
        <ele>104.85</ele>
        <time>2020-03-13T22:35:57.000Z</time>
      </trkpt>
      <trkpt lat="48.83802" lon="2.40822">
        <ele>104.87</ele>
        <time>2020-03-13T22:35:58.000Z</time>
      </trkpt>
      <trkpt lat="48.83796" lon="2.40819">
        <ele>104.81</ele>
        <time>2020-03-13T22:35:59.000Z</time>
      </trkpt>
      <trkpt lat="48.8379" lon="2.40816">
        <ele>104.73</ele>
        <time>2020-03-13T22:36:00.000Z</time>
      </trkpt>
      <trkpt lat="48.83784" lon="2.40814">
        <ele>104.69</ele>
        <time>2020-03-13T22:36:01.000Z</time>
      </trkpt>
      <trkpt lat="48.83778" lon="2.40812">
        <ele>104.71</ele>
        <time>2020-03-13T22:36:02.000Z</time>
      </trkpt>
      <trkpt lat="48.83772" lon="2.40811">
        <ele>104.71</ele>
        <time>2020-03-13T22:36:03.000Z</time>
      </trkpt>
      <trkpt lat="48.83765" lon="2.40809">
        <ele>104.63</ele>
        <time>2020-03-13T22:36:04.000Z</time>
      </trkpt>
      <trkpt lat="48.83759" lon="2.40808">
        <ele>104.61</ele>
        <time>2020-03-13T22:36:05.000Z</time>
      </trkpt>
      <trkpt lat="48.83752" lon="2.40807">
        <ele>104.67</ele>
        <time>2020-03-13T22:36:06.000Z</time>
      </trkpt>
      <trkpt lat="48.83746" lon="2.40805">
        <ele>104.65</ele>
        <time>2020-03-13T22:36:07.000Z</time>
      </trkpt>
      <trkpt lat="48.8374" lon="2.40804">
        <ele>104.51</ele>
        <time>2020-03-13T22:36:08.000Z</time>
      </trkpt>
      <trkpt lat="48.83734" lon="2.40802">
        <ele>104.42</ele>
        <time>2020-03-13T22:36:09.000Z</time>
      </trkpt>
      <trkpt lat="48.83729" lon="2.408">
        <ele>104.37</ele>
        <time>2020-03-13T22:36:10.000Z</time>
      </trkpt>
      <trkpt lat="48.83724" lon="2.40798">
        <ele>104.23</ele>
        <time>2020-03-13T22:36:11.000Z</time>
      </trkpt>
      <trkpt lat="48.83718" lon="2.40796">
        <ele>104.24</ele>
        <time>2020-03-13T22:36:12.000Z</time>
      </trkpt>
      <trkpt lat="48.83712" lon="2.40794">
        <ele>104.19</ele>
        <time>2020-03-13T22:36:13.000Z</time>
      </trkpt>
      <trkpt lat="48.83707" lon="2.40791">
        <ele>104.31</ele>
        <time>2020-03-13T22:36:14.000Z</time>
      </trkpt>
      <trkpt lat="48.83701" lon="2.40789">
        <ele>104.52</ele>
        <time>2020-03-13T22:36:15.000Z</time>
      </trkpt>
      <trkpt lat="48.83695" lon="2.40786">
        <ele>104.7</ele>
        <time>2020-03-13T22:36:16.000Z</time>
      </trkpt>
      <trkpt lat="48.83689" lon="2.40784">
        <ele>104.93</ele>
        <time>2020-03-13T22:36:17.000Z</time>
      </trkpt>
      <trkpt lat="48.83683" lon="2.40781">
        <ele>105.04</ele>
        <time>2020-03-13T22:36:18.000Z</time>
      </trkpt>
      <trkpt lat="48.83678" lon="2.40777">
        <ele>105.11</ele>
        <time>2020-03-13T22:36:19.000Z</time>
      </trkpt>
      <trkpt lat="48.83673" lon="2.40774">
        <ele>105.21</ele>
        <time>2020-03-13T22:36:20.000Z</time>
      </trkpt>
      <trkpt lat="48.83668" lon="2.4077">
        <ele>105.25</ele>
        <time>2020-03-13T22:36:21.000Z</time>
      </trkpt>
      <trkpt lat="48.83663" lon="2.40767">
        <ele>105.26</ele>
        <time>2020-03-13T22:36:22.000Z</time>
      </trkpt>
      <trkpt lat="48.83658" lon="2.40763">
        <ele>105.23</ele>
        <time>2020-03-13T22:36:23.000Z</time>
      </trkpt>
      <trkpt lat="48.83653" lon="2.40758">
        <ele>105.14</ele>
        <time>2020-03-13T22:36:24.000Z</time>
      </trkpt>
      <trkpt lat="48.83648" lon="2.40752">
        <ele>104.73</ele>
        <time>2020-03-13T22:36:25.000Z</time>
      </trkpt>
      <trkpt lat="48.83643" lon="2.40747">
        <ele>104.39</ele>
        <time>2020-03-13T22:36:26.000Z</time>
      </trkpt>
      <trkpt lat="48.83638" lon="2.40742">
        <ele>104.1</ele>
        <time>2020-03-13T22:36:27.000Z</time>
      </trkpt>
      <trkpt lat="48.83634" lon="2.40736">
        <ele>103.83</ele>
        <time>2020-03-13T22:36:28.000Z</time>
      </trkpt>
      <trkpt lat="48.83629" lon="2.40731">
        <ele>103.47</ele>
        <time>2020-03-13T22:36:29.000Z</time>
      </trkpt>
      <trkpt lat="48.83625" lon="2.40725">
        <ele>103.16</ele>
        <time>2020-03-13T22:36:29.999Z</time>
      </trkpt>
      <trkpt lat="48.8362" lon="2.4072">
        <ele>103.05</ele>
        <time>2020-03-13T22:36:30.999Z</time>
      </trkpt>
      <trkpt lat="48.83615" lon="2.40715">
        <ele>102.9</ele>
        <time>2020-03-13T22:36:31.999Z</time>
      </trkpt>
      <trkpt lat="48.8361" lon="2.4071">
        <ele>102.71</ele>
        <time>2020-03-13T22:36:32.999Z</time>
      </trkpt>
      <trkpt lat="48.83606" lon="2.40705">
        <ele>102.52</ele>
        <time>2020-03-13T22:36:33.999Z</time>
      </trkpt>
      <trkpt lat="48.83601" lon="2.407">
        <ele>102.31</ele>
        <time>2020-03-13T22:36:34.999Z</time>
      </trkpt>
      <trkpt lat="48.83593" lon="2.40691">
        <ele>101.78</ele>
        <time>2020-03-13T22:36:36.999Z</time>
      </trkpt>
      <trkpt lat="48.8359" lon="2.40688">
        <ele>101.44</ele>
        <time>2020-03-13T22:36:37.999Z</time>
      </trkpt>
      <trkpt lat="48.83587" lon="2.40686">
        <ele>101.4</ele>
        <time>2020-03-13T22:36:38.999Z</time>
      </trkpt>
      <trkpt lat="48.83584" lon="2.40682">
        <ele>101.35</ele>
        <time>2020-03-13T22:36:39.999Z</time>
      </trkpt>
      <trkpt lat="48.83582" lon="2.4068">
        <ele>101.3</ele>
        <time>2020-03-13T22:36:40.999Z</time>
      </trkpt>
      <trkpt lat="48.8358" lon="2.40677">
        <ele>101.24</ele>
        <time>2020-03-13T22:36:41.999Z</time>
      </trkpt>
      <trkpt lat="48.83578" lon="2.40675">
        <ele>101.17</ele>
        <time>2020-03-13T22:36:42.999Z</time>
      </trkpt>
      <trkpt lat="48.83576" lon="2.40672">
        <ele>101.03</ele>
        <time>2020-03-13T22:36:44.999Z</time>
      </trkpt>
      <trkpt lat="48.83575" lon="2.40671">
        <ele>100.96</ele>
        <time>2020-03-13T22:36:45.999Z</time>
      </trkpt>
      <trkpt lat="48.83574" lon="2.4067">
        <ele>100.88</ele>
        <time>2020-03-13T22:36:46.999Z</time>
      </trkpt>
      <trkpt lat="48.83572" lon="2.40668">
        <ele>100.59</ele>
        <time>2020-03-13T22:36:52.999Z</time>
      </trkpt>
      <trkpt lat="48.83571" lon="2.40666">
        <ele>100.54</ele>
        <time>2020-03-13T22:36:53.999Z</time>
      </trkpt>
      <trkpt lat="48.83569" lon="2.40662">
        <ele>100.48</ele>
        <time>2020-03-13T22:36:54.999Z</time>
      </trkpt>
      <trkpt lat="48.83567" lon="2.40658">
        <ele>100.42</ele>
        <time>2020-03-13T22:36:55.999Z</time>
      </trkpt>
      <trkpt lat="48.83564" lon="2.40654">
        <ele>100.36</ele>
        <time>2020-03-13T22:36:56.999Z</time>
      </trkpt>
      <trkpt lat="48.83561" lon="2.4065">
        <ele>99.8</ele>
        <time>2020-03-13T22:36:57.999Z</time>
      </trkpt>
      <trkpt lat="48.83555" lon="2.4064">
        <ele>98.96</ele>
        <time>2020-03-13T22:36:59.999Z</time>
      </trkpt>
      <trkpt lat="48.83551" lon="2.40635">
        <ele>98.61</ele>
        <time>2020-03-13T22:37:00.999Z</time>
      </trkpt>
      <trkpt lat="48.83547" lon="2.40629">
        <ele>98.29</ele>
        <time>2020-03-13T22:37:01.999Z</time>
      </trkpt>
      <trkpt lat="48.83543" lon="2.40623">
        <ele>97.98</ele>
        <time>2020-03-13T22:37:02.999Z</time>
      </trkpt>
      <trkpt lat="48.83539" lon="2.40617">
        <ele>97.71</ele>
        <time>2020-03-13T22:37:03.999Z</time>
      </trkpt>
      <trkpt lat="48.83536" lon="2.40611">
        <ele>97.49</ele>
        <time>2020-03-13T22:37:04.999Z</time>
      </trkpt>
      <trkpt lat="48.83532" lon="2.40605">
        <ele>97.3</ele>
        <time>2020-03-13T22:37:05.999Z</time>
      </trkpt>
      <trkpt lat="48.83529" lon="2.40598">
        <ele>97.12</ele>
        <time>2020-03-13T22:37:06.999Z</time>
      </trkpt>
      <trkpt lat="48.83525" lon="2.4059">
        <ele>96.98</ele>
        <time>2020-03-13T22:37:07.999Z</time>
      </trkpt>
      <trkpt lat="48.83517" lon="2.40577">
        <ele>96.67</ele>
        <time>2020-03-13T22:37:09.999Z</time>
      </trkpt>
      <trkpt lat="48.83508" lon="2.40563">
        <ele>96.42</ele>
        <time>2020-03-13T22:37:11.999Z</time>
      </trkpt>
      <trkpt lat="48.83504" lon="2.40557">
        <ele>96.32</ele>
        <time>2020-03-13T22:37:12.999Z</time>
      </trkpt>
      <trkpt lat="48.835" lon="2.40549">
        <ele>96.24</ele>
        <time>2020-03-13T22:37:13.999Z</time>
      </trkpt>
      <trkpt lat="48.83496" lon="2.40542">
        <ele>96.17</ele>
        <time>2020-03-13T22:37:14.999Z</time>
      </trkpt>
      <trkpt lat="48.83491" lon="2.40535">
        <ele>96.13</ele>
        <time>2020-03-13T22:37:15.999Z</time>
      </trkpt>
      <trkpt lat="48.83482" lon="2.40522">
        <ele>96.11</ele>
        <time>2020-03-13T22:37:17.999Z</time>
      </trkpt>
      <trkpt lat="48.83478" lon="2.40515">
        <ele>96.1</ele>
        <time>2020-03-13T22:37:18.999Z</time>
      </trkpt>
      <trkpt lat="48.83473" lon="2.40508">
        <ele>96.13</ele>
        <time>2020-03-13T22:37:19.999Z</time>
      </trkpt>
      <trkpt lat="48.83464" lon="2.40496">
        <ele>96.16</ele>
        <time>2020-03-13T22:37:21.999Z</time>
      </trkpt>
      <trkpt lat="48.8346" lon="2.4049">
        <ele>96.19</ele>
        <time>2020-03-13T22:37:22.999Z</time>
      </trkpt>
      <trkpt lat="48.83455" lon="2.40483">
        <ele>96.22</ele>
        <time>2020-03-13T22:37:23.999Z</time>
      </trkpt>
      <trkpt lat="48.83452" lon="2.40477">
        <ele>96.25</ele>
        <time>2020-03-13T22:37:24.999Z</time>
      </trkpt>
      <trkpt lat="48.83448" lon="2.40471">
        <ele>96.27</ele>
        <time>2020-03-13T22:37:25.999Z</time>
      </trkpt>
      <trkpt lat="48.83444" lon="2.40465">
        <ele>96.29</ele>
        <time>2020-03-13T22:37:26.999Z</time>
      </trkpt>
      <trkpt lat="48.83436" lon="2.40452">
        <ele>96.33</ele>
        <time>2020-03-13T22:37:28.999Z</time>
      </trkpt>
      <trkpt lat="48.83434" lon="2.40444">
        <ele>96.35</ele>
        <time>2020-03-13T22:37:29.999Z</time>
      </trkpt>
      <trkpt lat="48.83428" lon="2.40429">
        <ele>96.36</ele>
        <time>2020-03-13T22:37:31.999Z</time>
      </trkpt>
      <trkpt lat="48.83421" lon="2.40412">
        <ele>96.39</ele>
        <time>2020-03-13T22:37:33.999Z</time>
      </trkpt>
      <trkpt lat="48.83417" lon="2.40404">
        <ele>96.41</ele>
        <time>2020-03-13T22:37:34.999Z</time>
      </trkpt>
      <trkpt lat="48.83411" lon="2.40387">
        <ele>96.42</ele>
        <time>2020-03-13T22:37:36.999Z</time>
      </trkpt>
      <trkpt lat="48.83408" lon="2.40379">
        <ele>96.41</ele>
        <time>2020-03-13T22:37:37.999Z</time>
      </trkpt>
      <trkpt lat="48.83405" lon="2.4037">
        <ele>96.38</ele>
        <time>2020-03-13T22:37:38.999Z</time>
      </trkpt>
      <trkpt lat="48.83401" lon="2.40362">
        <ele>96.34</ele>
        <time>2020-03-13T22:37:39.999Z</time>
      </trkpt>
      <trkpt lat="48.83395" lon="2.40345">
        <ele>96.24</ele>
        <time>2020-03-13T22:37:41.999Z</time>
      </trkpt>
      <trkpt lat="48.83393" lon="2.40337">
        <ele>96.17</ele>
        <time>2020-03-13T22:37:42.999Z</time>
      </trkpt>
      <trkpt lat="48.8339" lon="2.40328">
        <ele>96.1</ele>
        <time>2020-03-13T22:37:43.999Z</time>
      </trkpt>
      <trkpt lat="48.83384" lon="2.40312">
        <ele>95.95</ele>
        <time>2020-03-13T22:37:45.999Z</time>
      </trkpt>
      <trkpt lat="48.83381" lon="2.40304">
        <ele>95.86</ele>
        <time>2020-03-13T22:37:46.999Z</time>
      </trkpt>
      <trkpt lat="48.83378" lon="2.40296">
        <ele>95.76</ele>
        <time>2020-03-13T22:37:47.999Z</time>
      </trkpt>
      <trkpt lat="48.83376" lon="2.40287">
        <ele>95.68</ele>
        <time>2020-03-13T22:37:48.999Z</time>
      </trkpt>
      <trkpt lat="48.83374" lon="2.40279">
        <ele>95.61</ele>
        <time>2020-03-13T22:37:49.999Z</time>
      </trkpt>
      <trkpt lat="48.83368" lon="2.40262">
        <ele>95.44</ele>
        <time>2020-03-13T22:37:51.999Z</time>
      </trkpt>
      <trkpt lat="48.83363" lon="2.40245">
        <ele>95.28</ele>
        <time>2020-03-13T22:37:53.999Z</time>
      </trkpt>
      <trkpt lat="48.83356" lon="2.40227">
        <ele>95.15</ele>
        <time>2020-03-13T22:37:55.999Z</time>
      </trkpt>
      <trkpt lat="48.83353" lon="2.40219">
        <ele>95.09</ele>
        <time>2020-03-13T22:37:56.999Z</time>
      </trkpt>
      <trkpt lat="48.8335" lon="2.4021">
        <ele>95.04</ele>
        <time>2020-03-13T22:37:57.999Z</time>
      </trkpt>
      <trkpt lat="48.83346" lon="2.40202">
        <ele>94.98</ele>
        <time>2020-03-13T22:37:58.999Z</time>
      </trkpt>
      <trkpt lat="48.83342" lon="2.40193">
        <ele>94.92</ele>
        <time>2020-03-13T22:37:59.999Z</time>
      </trkpt>
      <trkpt lat="48.83333" lon="2.40177">
        <ele>94.76</ele>
        <time>2020-03-13T22:38:01.999Z</time>
      </trkpt>
      <trkpt lat="48.83329" lon="2.40169">
        <ele>94.71</ele>
        <time>2020-03-13T22:38:02.999Z</time>
      </trkpt>
      <trkpt lat="48.83326" lon="2.40162">
        <ele>94.7</ele>
        <time>2020-03-13T22:38:03.999Z</time>
      </trkpt>
      <trkpt lat="48.83322" lon="2.40154">
        <ele>94.74</ele>
        <time>2020-03-13T22:38:04.999Z</time>
      </trkpt>
      <trkpt lat="48.8332" lon="2.40147">
        <ele>94.82</ele>
        <time>2020-03-13T22:38:05.999Z</time>
      </trkpt>
      <trkpt lat="48.83318" lon="2.40139">
        <ele>94.78</ele>
        <time>2020-03-13T22:38:06.999Z</time>
      </trkpt>
      <trkpt lat="48.83315" lon="2.40132">
        <ele>94.67</ele>
        <time>2020-03-13T22:38:07.999Z</time>
      </trkpt>
      <trkpt lat="48.83313" lon="2.40124">
        <ele>94.55</ele>
        <time>2020-03-13T22:38:08.999Z</time>
      </trkpt>
      <trkpt lat="48.83308" lon="2.40108">
        <ele>94.34</ele>
        <time>2020-03-13T22:38:10.999Z</time>
      </trkpt>
      <trkpt lat="48.83306" lon="2.40099">
        <ele>94.17</ele>
        <time>2020-03-13T22:38:11.999Z</time>
      </trkpt>
      <trkpt lat="48.83304" lon="2.40092">
        <ele>94.01</ele>
        <time>2020-03-13T22:38:12.999Z</time>
      </trkpt>
      <trkpt lat="48.83301" lon="2.40085">
        <ele>93.96</ele>
        <time>2020-03-13T22:38:13.999Z</time>
      </trkpt>
      <trkpt lat="48.83299" lon="2.40078">
        <ele>93.97</ele>
        <time>2020-03-13T22:38:14.999Z</time>
      </trkpt>
      <trkpt lat="48.83297" lon="2.4007">
        <ele>94.03</ele>
        <time>2020-03-13T22:38:15.999Z</time>
      </trkpt>
      <trkpt lat="48.83294" lon="2.40063">
        <ele>94.08</ele>
        <time>2020-03-13T22:38:16.999Z</time>
      </trkpt>
      <trkpt lat="48.83292" lon="2.40055">
        <ele>94.14</ele>
        <time>2020-03-13T22:38:17.999Z</time>
      </trkpt>
      <trkpt lat="48.83289" lon="2.40047">
        <ele>94.21</ele>
        <time>2020-03-13T22:38:18.999Z</time>
      </trkpt>
      <trkpt lat="48.83286" lon="2.4004">
        <ele>94.29</ele>
        <time>2020-03-13T22:38:19.999Z</time>
      </trkpt>
      <trkpt lat="48.83284" lon="2.40032">
        <ele>94.33</ele>
        <time>2020-03-13T22:38:20.999Z</time>
      </trkpt>
      <trkpt lat="48.83281" lon="2.40024">
        <ele>94.35</ele>
        <time>2020-03-13T22:38:21.999Z</time>
      </trkpt>
      <trkpt lat="48.83279" lon="2.40017">
        <ele>94.53</ele>
        <time>2020-03-13T22:38:22.999Z</time>
      </trkpt>
      <trkpt lat="48.83277" lon="2.40009">
        <ele>94.69</ele>
        <time>2020-03-13T22:38:23.999Z</time>
      </trkpt>
      <trkpt lat="48.83274" lon="2.40002">
        <ele>94.79</ele>
        <time>2020-03-13T22:38:24.999Z</time>
      </trkpt>
      <trkpt lat="48.83268" lon="2.39988">
        <ele>94.98</ele>
        <time>2020-03-13T22:38:26.999Z</time>
      </trkpt>
      <trkpt lat="48.83265" lon="2.3998">
        <ele>95.06</ele>
        <time>2020-03-13T22:38:27.999Z</time>
      </trkpt>
      <trkpt lat="48.83263" lon="2.39973">
        <ele>95.12</ele>
        <time>2020-03-13T22:38:28.999Z</time>
      </trkpt>
      <trkpt lat="48.8326" lon="2.39964">
        <ele>95.24</ele>
        <time>2020-03-13T22:38:29.999Z</time>
      </trkpt>
      <trkpt lat="48.83258" lon="2.39957">
        <ele>95.32</ele>
        <time>2020-03-13T22:38:30.999Z</time>
      </trkpt>
      <trkpt lat="48.83253" lon="2.39941">
        <ele>95.33</ele>
        <time>2020-03-13T22:38:32.999Z</time>
      </trkpt>
      <trkpt lat="48.8325" lon="2.39933">
        <ele>95.35</ele>
        <time>2020-03-13T22:38:33.999Z</time>
      </trkpt>
      <trkpt lat="48.83248" lon="2.39926">
        <ele>95.23</ele>
        <time>2020-03-13T22:38:34.999Z</time>
      </trkpt>
      <trkpt lat="48.83246" lon="2.39918">
        <ele>95.15</ele>
        <time>2020-03-13T22:38:35.999Z</time>
      </trkpt>
      <trkpt lat="48.83244" lon="2.3991">
        <ele>95.11</ele>
        <time>2020-03-13T22:38:36.999Z</time>
      </trkpt>
      <trkpt lat="48.83241" lon="2.39902">
        <ele>95.06</ele>
        <time>2020-03-13T22:38:37.999Z</time>
      </trkpt>
      <trkpt lat="48.83239" lon="2.39895">
        <ele>95.04</ele>
        <time>2020-03-13T22:38:38.999Z</time>
      </trkpt>
      <trkpt lat="48.83236" lon="2.39887">
        <ele>95.05</ele>
        <time>2020-03-13T22:38:39.999Z</time>
      </trkpt>
      <trkpt lat="48.83234" lon="2.39879">
        <ele>95.11</ele>
        <time>2020-03-13T22:38:40.999Z</time>
      </trkpt>
      <trkpt lat="48.83232" lon="2.39871">
        <ele>95.19</ele>
        <time>2020-03-13T22:38:41.999Z</time>
      </trkpt>
      <trkpt lat="48.83229" lon="2.39864">
        <ele>95.17</ele>
        <time>2020-03-13T22:38:42.999Z</time>
      </trkpt>
      <trkpt lat="48.83227" lon="2.39858">
        <ele>95.11</ele>
        <time>2020-03-13T22:38:43.999Z</time>
      </trkpt>
      <trkpt lat="48.83225" lon="2.39851">
        <ele>95.12</ele>
        <time>2020-03-13T22:38:44.999Z</time>
      </trkpt>
      <trkpt lat="48.83222" lon="2.39845">
        <ele>95.06</ele>
        <time>2020-03-13T22:38:45.999Z</time>
      </trkpt>
      <trkpt lat="48.8322" lon="2.3984">
        <ele>95.06</ele>
        <time>2020-03-13T22:38:46.999Z</time>
      </trkpt>
      <trkpt lat="48.83217" lon="2.39834">
        <ele>95.28</ele>
        <time>2020-03-13T22:38:47.999Z</time>
      </trkpt>
      <trkpt lat="48.83215" lon="2.39829">
        <ele>95.49</ele>
        <time>2020-03-13T22:38:48.999Z</time>
      </trkpt>
      <trkpt lat="48.83212" lon="2.39824">
        <ele>95.69</ele>
        <time>2020-03-13T22:38:49.999Z</time>
      </trkpt>
      <trkpt lat="48.8321" lon="2.39819">
        <ele>95.7</ele>
        <time>2020-03-13T22:38:50.999Z</time>
      </trkpt>
      <trkpt lat="48.83209" lon="2.39815">
        <ele>95.73</ele>
        <time>2020-03-13T22:38:51.999Z</time>
      </trkpt>
      <trkpt lat="48.83207" lon="2.39811">
        <ele>95.75</ele>
        <time>2020-03-13T22:38:52.999Z</time>
      </trkpt>
      <trkpt lat="48.83205" lon="2.39807">
        <ele>95.77</ele>
        <time>2020-03-13T22:38:53.999Z</time>
      </trkpt>
      <trkpt lat="48.83204" lon="2.39804">
        <ele>95.8</ele>
        <time>2020-03-13T22:38:54.999Z</time>
      </trkpt>
      <trkpt lat="48.83203" lon="2.39801">
        <ele>95.83</ele>
        <time>2020-03-13T22:38:55.999Z</time>
      </trkpt>
      <trkpt lat="48.83201" lon="2.39798">
        <ele>95.85</ele>
        <time>2020-03-13T22:38:56.999Z</time>
      </trkpt>
      <trkpt lat="48.832" lon="2.39795">
        <ele>95.88</ele>
        <time>2020-03-13T22:38:57.999Z</time>
      </trkpt>
      <trkpt lat="48.83199" lon="2.39792">
        <ele>95.91</ele>
        <time>2020-03-13T22:38:58.999Z</time>
      </trkpt>
      <trkpt lat="48.83198" lon="2.3979">
        <ele>95.94</ele>
        <time>2020-03-13T22:38:59.999Z</time>
      </trkpt>
      <trkpt lat="48.83197" lon="2.39788">
        <ele>95.97</ele>
        <time>2020-03-13T22:39:00.999Z</time>
      </trkpt>
      <trkpt lat="48.83196" lon="2.39786">
        <ele>96.01</ele>
        <time>2020-03-13T22:39:01.999Z</time>
      </trkpt>
      <trkpt lat="48.83196" lon="2.39785">
        <ele>96.05</ele>
        <time>2020-03-13T22:39:02.999Z</time>
      </trkpt>
      <trkpt lat="48.83195" lon="2.39783">
        <ele>96.09</ele>
        <time>2020-03-13T22:39:03.999Z</time>
      </trkpt>
      <trkpt lat="48.83194" lon="2.39782">
        <ele>96.13</ele>
        <time>2020-03-13T22:39:04.999Z</time>
      </trkpt>
      <trkpt lat="48.83194" lon="2.39781">
        <ele>96.17</ele>
        <time>2020-03-13T22:39:05.999Z</time>
      </trkpt>
      <trkpt lat="48.83193" lon="2.39779">
        <ele>96.21</ele>
        <time>2020-03-13T22:39:06.999Z</time>
      </trkpt>
      <trkpt lat="48.83192" lon="2.39778">
        <ele>96.25</ele>
        <time>2020-03-13T22:39:07.999Z</time>
      </trkpt>
      <trkpt lat="48.83193" lon="2.39777">
        <ele>96.54</ele>
        <time>2020-03-13T22:39:56.999Z</time>
      </trkpt>
      <trkpt lat="48.83192" lon="2.39773">
        <ele>96.66</ele>
        <time>2020-03-13T22:39:59.999Z</time>
      </trkpt>
      <trkpt lat="48.83191" lon="2.3977">
        <ele>96.74</ele>
        <time>2020-03-13T22:40:01.999Z</time>
      </trkpt>
      <trkpt lat="48.8319" lon="2.39769">
        <ele>96.78</ele>
        <time>2020-03-13T22:40:02.999Z</time>
      </trkpt>
      <trkpt lat="48.83188" lon="2.39767">
        <ele>96.85</ele>
        <time>2020-03-13T22:40:04.999Z</time>
      </trkpt>
      <trkpt lat="48.83188" lon="2.39765">
        <ele>96.89</ele>
        <time>2020-03-13T22:40:05.999Z</time>
      </trkpt>
      <trkpt lat="48.83187" lon="2.39762">
        <ele>96.92</ele>
        <time>2020-03-13T22:40:06.999Z</time>
      </trkpt>
      <trkpt lat="48.83185" lon="2.39758">
        <ele>96.96</ele>
        <time>2020-03-13T22:40:07.999Z</time>
      </trkpt>
      <trkpt lat="48.83184" lon="2.39754">
        <ele>96.99</ele>
        <time>2020-03-13T22:40:08.999Z</time>
      </trkpt>
      <trkpt lat="48.83181" lon="2.39749">
        <ele>97.32</ele>
        <time>2020-03-13T22:40:09.999Z</time>
      </trkpt>
      <trkpt lat="48.83178" lon="2.39743">
        <ele>97.58</ele>
        <time>2020-03-13T22:40:10.999Z</time>
      </trkpt>
      <trkpt lat="48.83175" lon="2.39738">
        <ele>97.79</ele>
        <time>2020-03-13T22:40:11.999Z</time>
      </trkpt>
      <trkpt lat="48.83172" lon="2.3973">
        <ele>97.98</ele>
        <time>2020-03-13T22:40:12.999Z</time>
      </trkpt>
      <trkpt lat="48.83168" lon="2.39723">
        <ele>98.13</ele>
        <time>2020-03-13T22:40:13.999Z</time>
      </trkpt>
      <trkpt lat="48.83165" lon="2.39715">
        <ele>98.27</ele>
        <time>2020-03-13T22:40:14.999Z</time>
      </trkpt>
      <trkpt lat="48.83162" lon="2.39707">
        <ele>98.39</ele>
        <time>2020-03-13T22:40:15.999Z</time>
      </trkpt>
      <trkpt lat="48.83158" lon="2.397">
        <ele>98.48</ele>
        <time>2020-03-13T22:40:16.999Z</time>
      </trkpt>
      <trkpt lat="48.83155" lon="2.39692">
        <ele>98.57</ele>
        <time>2020-03-13T22:40:17.999Z</time>
      </trkpt>
      <trkpt lat="48.83151" lon="2.39684">
        <ele>98.64</ele>
        <time>2020-03-13T22:40:18.999Z</time>
      </trkpt>
      <trkpt lat="48.83148" lon="2.39676">
        <ele>98.71</ele>
        <time>2020-03-13T22:40:19.999Z</time>
      </trkpt>
      <trkpt lat="48.83145" lon="2.39668">
        <ele>98.77</ele>
        <time>2020-03-13T22:40:20.999Z</time>
      </trkpt>
      <trkpt lat="48.83142" lon="2.3966">
        <ele>98.82</ele>
        <time>2020-03-13T22:40:21.999Z</time>
      </trkpt>
      <trkpt lat="48.83138" lon="2.39652">
        <ele>98.86</ele>
        <time>2020-03-13T22:40:22.999Z</time>
      </trkpt>
      <trkpt lat="48.83135" lon="2.39644">
        <ele>98.89</ele>
        <time>2020-03-13T22:40:23.999Z</time>
      </trkpt>
      <trkpt lat="48.83132" lon="2.39636">
        <ele>98.89</ele>
        <time>2020-03-13T22:40:24.999Z</time>
      </trkpt>
      <trkpt lat="48.83129" lon="2.39628">
        <ele>98.87</ele>
        <time>2020-03-13T22:40:25.999Z</time>
      </trkpt>
      <trkpt lat="48.83125" lon="2.3962">
        <ele>98.84</ele>
        <time>2020-03-13T22:40:26.999Z</time>
      </trkpt>
      <trkpt lat="48.83122" lon="2.39612">
        <ele>98.82</ele>
        <time>2020-03-13T22:40:27.999Z</time>
      </trkpt>
      <trkpt lat="48.83119" lon="2.39604">
        <ele>98.79</ele>
        <time>2020-03-13T22:40:28.999Z</time>
      </trkpt>
      <trkpt lat="48.83116" lon="2.39596">
        <ele>98.75</ele>
        <time>2020-03-13T22:40:29.999Z</time>
      </trkpt>
      <trkpt lat="48.83113" lon="2.39588">
        <ele>98.69</ele>
        <time>2020-03-13T22:40:30.999Z</time>
      </trkpt>
      <trkpt lat="48.8311" lon="2.3958">
        <ele>98.63</ele>
        <time>2020-03-13T22:40:31.999Z</time>
      </trkpt>
      <trkpt lat="48.83107" lon="2.39572">
        <ele>98.55</ele>
        <time>2020-03-13T22:40:32.999Z</time>
      </trkpt>
      <trkpt lat="48.83104" lon="2.39563">
        <ele>98.46</ele>
        <time>2020-03-13T22:40:33.999Z</time>
      </trkpt>
      <trkpt lat="48.83102" lon="2.39555">
        <ele>98.39</ele>
        <time>2020-03-13T22:40:34.999Z</time>
      </trkpt>
      <trkpt lat="48.83099" lon="2.39546">
        <ele>98.32</ele>
        <time>2020-03-13T22:40:35.999Z</time>
      </trkpt>
      <trkpt lat="48.83097" lon="2.39539">
        <ele>98.26</ele>
        <time>2020-03-13T22:40:36.999Z</time>
      </trkpt>
      <trkpt lat="48.83094" lon="2.39531">
        <ele>98.2</ele>
        <time>2020-03-13T22:40:37.999Z</time>
      </trkpt>
      <trkpt lat="48.83091" lon="2.39523">
        <ele>98.11</ele>
        <time>2020-03-13T22:40:38.999Z</time>
      </trkpt>
      <trkpt lat="48.83089" lon="2.39514">
        <ele>98.03</ele>
        <time>2020-03-13T22:40:39.999Z</time>
      </trkpt>
      <trkpt lat="48.83087" lon="2.39506">
        <ele>97.95</ele>
        <time>2020-03-13T22:40:40.999Z</time>
      </trkpt>
      <trkpt lat="48.83085" lon="2.39497">
        <ele>97.88</ele>
        <time>2020-03-13T22:40:41.999Z</time>
      </trkpt>
      <trkpt lat="48.83082" lon="2.39489">
        <ele>97.81</ele>
        <time>2020-03-13T22:40:42.999Z</time>
      </trkpt>
      <trkpt lat="48.8308" lon="2.39481">
        <ele>97.71</ele>
        <time>2020-03-13T22:40:43.999Z</time>
      </trkpt>
      <trkpt lat="48.83078" lon="2.39473">
        <ele>97.62</ele>
        <time>2020-03-13T22:40:44.999Z</time>
      </trkpt>
      <trkpt lat="48.83076" lon="2.39464">
        <ele>97.54</ele>
        <time>2020-03-13T22:40:45.999Z</time>
      </trkpt>
      <trkpt lat="48.83074" lon="2.39457">
        <ele>97.42</ele>
        <time>2020-03-13T22:40:46.999Z</time>
      </trkpt>
      <trkpt lat="48.83072" lon="2.39449">
        <ele>97.29</ele>
        <time>2020-03-13T22:40:47.999Z</time>
      </trkpt>
      <trkpt lat="48.8307" lon="2.39441">
        <ele>97.16</ele>
        <time>2020-03-13T22:40:48.999Z</time>
      </trkpt>
      <trkpt lat="48.83068" lon="2.39433">
        <ele>97</ele>
        <time>2020-03-13T22:40:49.999Z</time>
      </trkpt>
      <trkpt lat="48.83067" lon="2.39424">
        <ele>96.82</ele>
        <time>2020-03-13T22:40:50.999Z</time>
      </trkpt>
      <trkpt lat="48.83065" lon="2.39416">
        <ele>96.66</ele>
        <time>2020-03-13T22:40:51.999Z</time>
      </trkpt>
      <trkpt lat="48.83064" lon="2.39408">
        <ele>96.52</ele>
        <time>2020-03-13T22:40:52.999Z</time>
      </trkpt>
      <trkpt lat="48.83063" lon="2.39399">
        <ele>96.32</ele>
        <time>2020-03-13T22:40:53.999Z</time>
      </trkpt>
      <trkpt lat="48.83061" lon="2.3939">
        <ele>96.14</ele>
        <time>2020-03-13T22:40:54.999Z</time>
      </trkpt>
      <trkpt lat="48.83059" lon="2.3938">
        <ele>96</ele>
        <time>2020-03-13T22:40:55.999Z</time>
      </trkpt>
      <trkpt lat="48.83057" lon="2.39371">
        <ele>95.87</ele>
        <time>2020-03-13T22:40:56.999Z</time>
      </trkpt>
      <trkpt lat="48.83055" lon="2.39362">
        <ele>95.74</ele>
        <time>2020-03-13T22:40:57.999Z</time>
      </trkpt>
      <trkpt lat="48.83053" lon="2.39353">
        <ele>95.65</ele>
        <time>2020-03-13T22:40:58.999Z</time>
      </trkpt>
      <trkpt lat="48.83051" lon="2.39344">
        <ele>95.57</ele>
        <time>2020-03-13T22:40:59.999Z</time>
      </trkpt>
      <trkpt lat="48.8305" lon="2.39335">
        <ele>95.5</ele>
        <time>2020-03-13T22:41:00.999Z</time>
      </trkpt>
      <trkpt lat="48.83049" lon="2.39326">
        <ele>95.46</ele>
        <time>2020-03-13T22:41:01.999Z</time>
      </trkpt>
      <trkpt lat="48.83047" lon="2.39318">
        <ele>95.41</ele>
        <time>2020-03-13T22:41:02.999Z</time>
      </trkpt>
      <trkpt lat="48.83045" lon="2.39309">
        <ele>95.28</ele>
        <time>2020-03-13T22:41:03.999Z</time>
      </trkpt>
      <trkpt lat="48.83043" lon="2.39301">
        <ele>95.15</ele>
        <time>2020-03-13T22:41:04.999Z</time>
      </trkpt>
      <trkpt lat="48.83041" lon="2.39292">
        <ele>95.04</ele>
        <time>2020-03-13T22:41:05.999Z</time>
      </trkpt>
      <trkpt lat="48.83039" lon="2.39284">
        <ele>94.94</ele>
        <time>2020-03-13T22:41:06.999Z</time>
      </trkpt>
      <trkpt lat="48.83038" lon="2.39276">
        <ele>94.83</ele>
        <time>2020-03-13T22:41:07.999Z</time>
      </trkpt>
      <trkpt lat="48.83036" lon="2.39269">
        <ele>94.7</ele>
        <time>2020-03-13T22:41:08.999Z</time>
      </trkpt>
      <trkpt lat="48.83034" lon="2.39262">
        <ele>94.56</ele>
        <time>2020-03-13T22:41:09.999Z</time>
      </trkpt>
      <trkpt lat="48.83032" lon="2.39255">
        <ele>94.47</ele>
        <time>2020-03-13T22:41:10.999Z</time>
      </trkpt>
      <trkpt lat="48.8303" lon="2.3925">
        <ele>94.45</ele>
        <time>2020-03-13T22:41:11.999Z</time>
      </trkpt>
      <trkpt lat="48.83028" lon="2.39244">
        <ele>94.44</ele>
        <time>2020-03-13T22:41:12.999Z</time>
      </trkpt>
      <trkpt lat="48.83025" lon="2.39239">
        <ele>94.46</ele>
        <time>2020-03-13T22:41:13.999Z</time>
      </trkpt>
      <trkpt lat="48.83023" lon="2.39233">
        <ele>94.48</ele>
        <time>2020-03-13T22:41:14.999Z</time>
      </trkpt>
      <trkpt lat="48.83021" lon="2.39227">
        <ele>94.46</ele>
        <time>2020-03-13T22:41:15.999Z</time>
      </trkpt>
      <trkpt lat="48.83019" lon="2.39221">
        <ele>94.42</ele>
        <time>2020-03-13T22:41:16.999Z</time>
      </trkpt>
      <trkpt lat="48.83016" lon="2.39216">
        <ele>94.38</ele>
        <time>2020-03-13T22:41:17.999Z</time>
      </trkpt>
      <trkpt lat="48.83014" lon="2.3921">
        <ele>94.32</ele>
        <time>2020-03-13T22:41:18.999Z</time>
      </trkpt>
      <trkpt lat="48.83012" lon="2.39205">
        <ele>94.3</ele>
        <time>2020-03-13T22:41:19.999Z</time>
      </trkpt>
      <trkpt lat="48.83009" lon="2.39198">
        <ele>94.26</ele>
        <time>2020-03-13T22:41:20.999Z</time>
      </trkpt>
      <trkpt lat="48.83006" lon="2.39191">
        <ele>94.18</ele>
        <time>2020-03-13T22:41:21.999Z</time>
      </trkpt>
      <trkpt lat="48.83003" lon="2.39184">
        <ele>94.11</ele>
        <time>2020-03-13T22:41:22.999Z</time>
      </trkpt>
      <trkpt lat="48.83" lon="2.39176">
        <ele>93.98</ele>
        <time>2020-03-13T22:41:23.999Z</time>
      </trkpt>
      <trkpt lat="48.82997" lon="2.39167">
        <ele>93.77</ele>
        <time>2020-03-13T22:41:24.999Z</time>
      </trkpt>
      <trkpt lat="48.82994" lon="2.39159">
        <ele>93.59</ele>
        <time>2020-03-13T22:41:25.999Z</time>
      </trkpt>
      <trkpt lat="48.82992" lon="2.39151">
        <ele>93.44</ele>
        <time>2020-03-13T22:41:26.999Z</time>
      </trkpt>
      <trkpt lat="48.82989" lon="2.39142">
        <ele>93.35</ele>
        <time>2020-03-13T22:41:27.999Z</time>
      </trkpt>
      <trkpt lat="48.82985" lon="2.39134">
        <ele>93.24</ele>
        <time>2020-03-13T22:41:28.999Z</time>
      </trkpt>
      <trkpt lat="48.82982" lon="2.39125">
        <ele>93.12</ele>
        <time>2020-03-13T22:41:29.999Z</time>
      </trkpt>
      <trkpt lat="48.82979" lon="2.39117">
        <ele>93.01</ele>
        <time>2020-03-13T22:41:30.999Z</time>
      </trkpt>
      <trkpt lat="48.82975" lon="2.39108">
        <ele>92.89</ele>
        <time>2020-03-13T22:41:31.999Z</time>
      </trkpt>
      <trkpt lat="48.82972" lon="2.391">
        <ele>92.82</ele>
        <time>2020-03-13T22:41:32.999Z</time>
      </trkpt>
      <trkpt lat="48.82968" lon="2.39092">
        <ele>92.72</ele>
        <time>2020-03-13T22:41:33.999Z</time>
      </trkpt>
      <trkpt lat="48.82965" lon="2.39084">
        <ele>92.58</ele>
        <time>2020-03-13T22:41:34.999Z</time>
      </trkpt>
      <trkpt lat="48.82961" lon="2.39075">
        <ele>92.45</ele>
        <time>2020-03-13T22:41:35.999Z</time>
      </trkpt>
      <trkpt lat="48.82958" lon="2.39068">
        <ele>92.31</ele>
        <time>2020-03-13T22:41:36.999Z</time>
      </trkpt>
      <trkpt lat="48.82954" lon="2.3906">
        <ele>92.26</ele>
        <time>2020-03-13T22:41:37.999Z</time>
      </trkpt>
      <trkpt lat="48.82951" lon="2.39051">
        <ele>92.2</ele>
        <time>2020-03-13T22:41:38.999Z</time>
      </trkpt>
      <trkpt lat="48.82948" lon="2.39043">
        <ele>92.12</ele>
        <time>2020-03-13T22:41:39.999Z</time>
      </trkpt>
      <trkpt lat="48.82944" lon="2.39034">
        <ele>92.11</ele>
        <time>2020-03-13T22:41:40.999Z</time>
      </trkpt>
      <trkpt lat="48.8294" lon="2.39026">
        <ele>92.1</ele>
        <time>2020-03-13T22:41:41.999Z</time>
      </trkpt>
      <trkpt lat="48.82937" lon="2.39017">
        <ele>92.04</ele>
        <time>2020-03-13T22:41:42.999Z</time>
      </trkpt>
      <trkpt lat="48.82934" lon="2.39008">
        <ele>92.09</ele>
        <time>2020-03-13T22:41:43.999Z</time>
      </trkpt>
      <trkpt lat="48.8293" lon="2.38999">
        <ele>92.08</ele>
        <time>2020-03-13T22:41:44.999Z</time>
      </trkpt>
      <trkpt lat="48.82927" lon="2.38991">
        <ele>91.99</ele>
        <time>2020-03-13T22:41:45.999Z</time>
      </trkpt>
      <trkpt lat="48.82923" lon="2.38982">
        <ele>91.95</ele>
        <time>2020-03-13T22:41:46.999Z</time>
      </trkpt>
      <trkpt lat="48.8292" lon="2.38974">
        <ele>91.88</ele>
        <time>2020-03-13T22:41:47.999Z</time>
      </trkpt>
      <trkpt lat="48.82916" lon="2.38966">
        <ele>91.83</ele>
        <time>2020-03-13T22:41:48.999Z</time>
      </trkpt>
      <trkpt lat="48.82913" lon="2.38958">
        <ele>91.88</ele>
        <time>2020-03-13T22:41:49.999Z</time>
      </trkpt>
      <trkpt lat="48.82909" lon="2.3895">
        <ele>91.76</ele>
        <time>2020-03-13T22:41:50.999Z</time>
      </trkpt>
      <trkpt lat="48.82906" lon="2.38942">
        <ele>91.65</ele>
        <time>2020-03-13T22:41:51.999Z</time>
      </trkpt>
      <trkpt lat="48.82903" lon="2.38934">
        <ele>91.6</ele>
        <time>2020-03-13T22:41:52.999Z</time>
      </trkpt>
      <trkpt lat="48.829" lon="2.38926">
        <ele>91.53</ele>
        <time>2020-03-13T22:41:53.999Z</time>
      </trkpt>
      <trkpt lat="48.82897" lon="2.38919">
        <ele>91.47</ele>
        <time>2020-03-13T22:41:54.999Z</time>
      </trkpt>
      <trkpt lat="48.82894" lon="2.38912">
        <ele>91.35</ele>
        <time>2020-03-13T22:41:55.999Z</time>
      </trkpt>
      <trkpt lat="48.82891" lon="2.38905">
        <ele>91.26</ele>
        <time>2020-03-13T22:41:56.999Z</time>
      </trkpt>
      <trkpt lat="48.82888" lon="2.38898">
        <ele>91.33</ele>
        <time>2020-03-13T22:41:57.999Z</time>
      </trkpt>
      <trkpt lat="48.82885" lon="2.38891">
        <ele>91.37</ele>
        <time>2020-03-13T22:41:58.999Z</time>
      </trkpt>
      <trkpt lat="48.82883" lon="2.38885">
        <ele>91.33</ele>
        <time>2020-03-13T22:41:59.999Z</time>
      </trkpt>
      <trkpt lat="48.8288" lon="2.38878">
        <ele>91.27</ele>
        <time>2020-03-13T22:42:00.999Z</time>
      </trkpt>
      <trkpt lat="48.82877" lon="2.38871">
        <ele>91.03</ele>
        <time>2020-03-13T22:42:01.999Z</time>
      </trkpt>
      <trkpt lat="48.82875" lon="2.38864">
        <ele>90.91</ele>
        <time>2020-03-13T22:42:02.999Z</time>
      </trkpt>
      <trkpt lat="48.82872" lon="2.38858">
        <ele>90.76</ele>
        <time>2020-03-13T22:42:03.999Z</time>
      </trkpt>
      <trkpt lat="48.8287" lon="2.38851">
        <ele>90.65</ele>
        <time>2020-03-13T22:42:04.999Z</time>
      </trkpt>
      <trkpt lat="48.82867" lon="2.38845">
        <ele>90.58</ele>
        <time>2020-03-13T22:42:05.999Z</time>
      </trkpt>
      <trkpt lat="48.82864" lon="2.38838">
        <ele>90.59</ele>
        <time>2020-03-13T22:42:06.999Z</time>
      </trkpt>
      <trkpt lat="48.82861" lon="2.38832">
        <ele>90.74</ele>
        <time>2020-03-13T22:42:07.999Z</time>
      </trkpt>
      <trkpt lat="48.82858" lon="2.38826">
        <ele>90.91</ele>
        <time>2020-03-13T22:42:08.999Z</time>
      </trkpt>
      <trkpt lat="48.82854" lon="2.3882">
        <ele>91.06</ele>
        <time>2020-03-13T22:42:09.999Z</time>
      </trkpt>
      <trkpt lat="48.82852" lon="2.38813">
        <ele>91.06</ele>
        <time>2020-03-13T22:42:10.999Z</time>
      </trkpt>
      <trkpt lat="48.82848" lon="2.38807">
        <ele>91.08</ele>
        <time>2020-03-13T22:42:11.999Z</time>
      </trkpt>
      <trkpt lat="48.82845" lon="2.388">
        <ele>91</ele>
        <time>2020-03-13T22:42:12.999Z</time>
      </trkpt>
      <trkpt lat="48.82842" lon="2.38794">
        <ele>90.97</ele>
        <time>2020-03-13T22:42:13.999Z</time>
      </trkpt>
      <trkpt lat="48.82839" lon="2.38787">
        <ele>90.63</ele>
        <time>2020-03-13T22:42:14.999Z</time>
      </trkpt>
      <trkpt lat="48.82835" lon="2.3878">
        <ele>90.37</ele>
        <time>2020-03-13T22:42:15.999Z</time>
      </trkpt>
      <trkpt lat="48.82832" lon="2.38773">
        <ele>90.18</ele>
        <time>2020-03-13T22:42:16.999Z</time>
      </trkpt>
      <trkpt lat="48.82828" lon="2.38766">
        <ele>90.04</ele>
        <time>2020-03-13T22:42:17.999Z</time>
      </trkpt>
      <trkpt lat="48.82824" lon="2.38759">
        <ele>89.93</ele>
        <time>2020-03-13T22:42:18.999Z</time>
      </trkpt>
      <trkpt lat="48.82821" lon="2.38752">
        <ele>89.86</ele>
        <time>2020-03-13T22:42:19.999Z</time>
      </trkpt>
      <trkpt lat="48.82818" lon="2.38744">
        <ele>89.76</ele>
        <time>2020-03-13T22:42:20.999Z</time>
      </trkpt>
      <trkpt lat="48.82814" lon="2.38738">
        <ele>89.71</ele>
        <time>2020-03-13T22:42:21.999Z</time>
      </trkpt>
      <trkpt lat="48.82811" lon="2.38731">
        <ele>89.67</ele>
        <time>2020-03-13T22:42:22.999Z</time>
      </trkpt>
      <trkpt lat="48.82807" lon="2.38724">
        <ele>89.66</ele>
        <time>2020-03-13T22:42:23.999Z</time>
      </trkpt>
      <trkpt lat="48.82804" lon="2.38717">
        <ele>89.69</ele>
        <time>2020-03-13T22:42:24.999Z</time>
      </trkpt>
      <trkpt lat="48.828" lon="2.3871">
        <ele>89.73</ele>
        <time>2020-03-13T22:42:25.999Z</time>
      </trkpt>
      <trkpt lat="48.82797" lon="2.38704">
        <ele>89.75</ele>
        <time>2020-03-13T22:42:26.999Z</time>
      </trkpt>
      <trkpt lat="48.82793" lon="2.38697">
        <ele>89.8</ele>
        <time>2020-03-13T22:42:27.999Z</time>
      </trkpt>
      <trkpt lat="48.8279" lon="2.3869">
        <ele>89.87</ele>
        <time>2020-03-13T22:42:28.999Z</time>
      </trkpt>
      <trkpt lat="48.82787" lon="2.38683">
        <ele>89.93</ele>
        <time>2020-03-13T22:42:29.999Z</time>
      </trkpt>
      <trkpt lat="48.82783" lon="2.38677">
        <ele>90</ele>
        <time>2020-03-13T22:42:30.999Z</time>
      </trkpt>
      <trkpt lat="48.8278" lon="2.3867">
        <ele>90.07</ele>
        <time>2020-03-13T22:42:31.999Z</time>
      </trkpt>
      <trkpt lat="48.82776" lon="2.38662">
        <ele>90.16</ele>
        <time>2020-03-13T22:42:32.999Z</time>
      </trkpt>
      <trkpt lat="48.82773" lon="2.38655">
        <ele>90.24</ele>
        <time>2020-03-13T22:42:33.999Z</time>
      </trkpt>
      <trkpt lat="48.8277" lon="2.38648">
        <ele>90.32</ele>
        <time>2020-03-13T22:42:34.999Z</time>
      </trkpt>
      <trkpt lat="48.82767" lon="2.38641">
        <ele>90.39</ele>
        <time>2020-03-13T22:42:35.999Z</time>
      </trkpt>
      <trkpt lat="48.82764" lon="2.38634">
        <ele>90.46</ele>
        <time>2020-03-13T22:42:36.999Z</time>
      </trkpt>
      <trkpt lat="48.8276" lon="2.38627">
        <ele>90.53</ele>
        <time>2020-03-13T22:42:37.999Z</time>
      </trkpt>
      <trkpt lat="48.82757" lon="2.38619">
        <ele>90.59</ele>
        <time>2020-03-13T22:42:38.999Z</time>
      </trkpt>
      <trkpt lat="48.82754" lon="2.38612">
        <ele>90.65</ele>
        <time>2020-03-13T22:42:39.999Z</time>
      </trkpt>
      <trkpt lat="48.82751" lon="2.38605">
        <ele>90.7</ele>
        <time>2020-03-13T22:42:40.999Z</time>
      </trkpt>
      <trkpt lat="48.82748" lon="2.38598">
        <ele>90.73</ele>
        <time>2020-03-13T22:42:41.999Z</time>
      </trkpt>
      <trkpt lat="48.82744" lon="2.38591">
        <ele>90.75</ele>
        <time>2020-03-13T22:42:42.999Z</time>
      </trkpt>
      <trkpt lat="48.82741" lon="2.38584">
        <ele>90.76</ele>
        <time>2020-03-13T22:42:43.999Z</time>
      </trkpt>
      <trkpt lat="48.82738" lon="2.38576">
        <ele>90.77</ele>
        <time>2020-03-13T22:42:44.999Z</time>
      </trkpt>
      <trkpt lat="48.82735" lon="2.38569">
        <ele>90.79</ele>
        <time>2020-03-13T22:42:45.999Z</time>
      </trkpt>
      <trkpt lat="48.82732" lon="2.38562">
        <ele>90.8</ele>
        <time>2020-03-13T22:42:46.999Z</time>
      </trkpt>
      <trkpt lat="48.82728" lon="2.38554">
        <ele>90.83</ele>
        <time>2020-03-13T22:42:47.999Z</time>
      </trkpt>
      <trkpt lat="48.82724" lon="2.38547">
        <ele>90.87</ele>
        <time>2020-03-13T22:42:48.999Z</time>
      </trkpt>
      <trkpt lat="48.82721" lon="2.3854">
        <ele>90.91</ele>
        <time>2020-03-13T22:42:49.999Z</time>
      </trkpt>
      <trkpt lat="48.82717" lon="2.38533">
        <ele>90.93</ele>
        <time>2020-03-13T22:42:50.999Z</time>
      </trkpt>
      <trkpt lat="48.82714" lon="2.38526">
        <ele>90.96</ele>
        <time>2020-03-13T22:42:51.999Z</time>
      </trkpt>
      <trkpt lat="48.82711" lon="2.38519">
        <ele>90.98</ele>
        <time>2020-03-13T22:42:52.999Z</time>
      </trkpt>
      <trkpt lat="48.82708" lon="2.38511">
        <ele>91</ele>
        <time>2020-03-13T22:42:53.999Z</time>
      </trkpt>
      <trkpt lat="48.82705" lon="2.38504">
        <ele>91.01</ele>
        <time>2020-03-13T22:42:54.999Z</time>
      </trkpt>
      <trkpt lat="48.82702" lon="2.38497">
        <ele>91.02</ele>
        <time>2020-03-13T22:42:55.999Z</time>
      </trkpt>
      <trkpt lat="48.82699" lon="2.3849">
        <ele>91.03</ele>
        <time>2020-03-13T22:42:56.999Z</time>
      </trkpt>
      <trkpt lat="48.82696" lon="2.38483">
        <ele>91.03</ele>
        <time>2020-03-13T22:42:57.999Z</time>
      </trkpt>
      <trkpt lat="48.82693" lon="2.38476">
        <ele>91.02</ele>
        <time>2020-03-13T22:42:58.999Z</time>
      </trkpt>
      <trkpt lat="48.82689" lon="2.3847">
        <ele>91</ele>
        <time>2020-03-13T22:42:59.999Z</time>
      </trkpt>
      <trkpt lat="48.82686" lon="2.38463">
        <ele>90.97</ele>
        <time>2020-03-13T22:43:00.999Z</time>
      </trkpt>
      <trkpt lat="48.82682" lon="2.38457">
        <ele>90.94</ele>
        <time>2020-03-13T22:43:01.999Z</time>
      </trkpt>
      <trkpt lat="48.82679" lon="2.38449">
        <ele>90.91</ele>
        <time>2020-03-13T22:43:02.999Z</time>
      </trkpt>
      <trkpt lat="48.82675" lon="2.38442">
        <ele>90.88</ele>
        <time>2020-03-13T22:43:03.999Z</time>
      </trkpt>
      <trkpt lat="48.82671" lon="2.38435">
        <ele>90.85</ele>
        <time>2020-03-13T22:43:04.999Z</time>
      </trkpt>
      <trkpt lat="48.82667" lon="2.38429">
        <ele>90.83</ele>
        <time>2020-03-13T22:43:05.999Z</time>
      </trkpt>
      <trkpt lat="48.82663" lon="2.38423">
        <ele>90.81</ele>
        <time>2020-03-13T22:43:06.999Z</time>
      </trkpt>
      <trkpt lat="48.8266" lon="2.38416">
        <ele>90.8</ele>
        <time>2020-03-13T22:43:07.999Z</time>
      </trkpt>
      <trkpt lat="48.82657" lon="2.38409">
        <ele>90.78</ele>
        <time>2020-03-13T22:43:08.999Z</time>
      </trkpt>
      <trkpt lat="48.82654" lon="2.38403">
        <ele>90.77</ele>
        <time>2020-03-13T22:43:09.999Z</time>
      </trkpt>
      <trkpt lat="48.82651" lon="2.38396">
        <ele>90.76</ele>
        <time>2020-03-13T22:43:10.999Z</time>
      </trkpt>
      <trkpt lat="48.82648" lon="2.38391">
        <ele>90.74</ele>
        <time>2020-03-13T22:43:11.999Z</time>
      </trkpt>
      <trkpt lat="48.82645" lon="2.38385">
        <ele>90.72</ele>
        <time>2020-03-13T22:43:12.999Z</time>
      </trkpt>
      <trkpt lat="48.82643" lon="2.38379">
        <ele>90.69</ele>
        <time>2020-03-13T22:43:13.999Z</time>
      </trkpt>
      <trkpt lat="48.82641" lon="2.38373">
        <ele>90.69</ele>
        <time>2020-03-13T22:43:14.999Z</time>
      </trkpt>
      <trkpt lat="48.82639" lon="2.38368">
        <ele>90.67</ele>
        <time>2020-03-13T22:43:15.999Z</time>
      </trkpt>
      <trkpt lat="48.82637" lon="2.38363">
        <ele>90.65</ele>
        <time>2020-03-13T22:43:16.999Z</time>
      </trkpt>
      <trkpt lat="48.82634" lon="2.38357">
        <ele>90.63</ele>
        <time>2020-03-13T22:43:17.999Z</time>
      </trkpt>
      <trkpt lat="48.82631" lon="2.38351">
        <ele>90.61</ele>
        <time>2020-03-13T22:43:18.999Z</time>
      </trkpt>
      <trkpt lat="48.82629" lon="2.38346">
        <ele>90.61</ele>
        <time>2020-03-13T22:43:19.999Z</time>
      </trkpt>
      <trkpt lat="48.82627" lon="2.38341">
        <ele>90.61</ele>
        <time>2020-03-13T22:43:20.999Z</time>
      </trkpt>
      <trkpt lat="48.82625" lon="2.38335">
        <ele>90.59</ele>
        <time>2020-03-13T22:43:21.999Z</time>
      </trkpt>
      <trkpt lat="48.82623" lon="2.3833">
        <ele>90.59</ele>
        <time>2020-03-13T22:43:22.999Z</time>
      </trkpt>
      <trkpt lat="48.82621" lon="2.38324">
        <ele>90.59</ele>
        <time>2020-03-13T22:43:23.999Z</time>
      </trkpt>
      <trkpt lat="48.82619" lon="2.38318">
        <ele>90.57</ele>
        <time>2020-03-13T22:43:24.999Z</time>
      </trkpt>
      <trkpt lat="48.82616" lon="2.3831">
        <ele>90.55</ele>
        <time>2020-03-13T22:43:25.999Z</time>
      </trkpt>
      <trkpt lat="48.82614" lon="2.383">
        <ele>90.56</ele>
        <time>2020-03-13T22:43:26.999Z</time>
      </trkpt>
      <trkpt lat="48.82612" lon="2.38289">
        <ele>90.58</ele>
        <time>2020-03-13T22:43:27.999Z</time>
      </trkpt>
      <trkpt lat="48.82608" lon="2.38286">
        <ele>90.62</ele>
        <time>2020-03-13T22:43:28.999Z</time>
      </trkpt>
      <trkpt lat="48.82605" lon="2.38278">
        <ele>90.57</ele>
        <time>2020-03-13T22:43:29.999Z</time>
      </trkpt>
      <trkpt lat="48.82603" lon="2.38271">
        <ele>90.6</ele>
        <time>2020-03-13T22:43:30.999Z</time>
      </trkpt>
      <trkpt lat="48.826" lon="2.38266">
        <ele>90.68</ele>
        <time>2020-03-13T22:43:31.999Z</time>
      </trkpt>
      <trkpt lat="48.82598" lon="2.38259">
        <ele>90.69</ele>
        <time>2020-03-13T22:43:32.999Z</time>
      </trkpt>
      <trkpt lat="48.82594" lon="2.38249">
        <ele>90.5</ele>
        <time>2020-03-13T22:43:33.999Z</time>
      </trkpt>
      <trkpt lat="48.82591" lon="2.38245">
        <ele>90.44</ele>
        <time>2020-03-13T22:43:34.999Z</time>
      </trkpt>
      <trkpt lat="48.82588" lon="2.38243">
        <ele>90.4</ele>
        <time>2020-03-13T22:43:35.999Z</time>
      </trkpt>
      <trkpt lat="48.82588" lon="2.38239">
        <ele>90.69</ele>
        <time>2020-03-13T22:43:36.999Z</time>
      </trkpt>
      <trkpt lat="48.82588" lon="2.38235">
        <ele>90.73</ele>
        <time>2020-03-13T22:43:37.999Z</time>
      </trkpt>
      <trkpt lat="48.82584" lon="2.3823">
        <ele>90.72</ele>
        <time>2020-03-13T22:43:38.999Z</time>
      </trkpt>
      <trkpt lat="48.82581" lon="2.38224">
        <ele>90.71</ele>
        <time>2020-03-13T22:43:39.999Z</time>
      </trkpt>
      <trkpt lat="48.82578" lon="2.38214">
        <ele>90.73</ele>
        <time>2020-03-13T22:43:40.999Z</time>
      </trkpt>
      <trkpt lat="48.82573" lon="2.38208">
        <ele>90.72</ele>
        <time>2020-03-13T22:43:41.999Z</time>
      </trkpt>
      <trkpt lat="48.82574" lon="2.38201">
        <ele>90.75</ele>
        <time>2020-03-13T22:43:42.999Z</time>
      </trkpt>
      <trkpt lat="48.82574" lon="2.38196">
        <ele>90.74</ele>
        <time>2020-03-13T22:43:43.999Z</time>
      </trkpt>
      <trkpt lat="48.82575" lon="2.38191">
        <ele>90.78</ele>
        <time>2020-03-13T22:43:44.999Z</time>
      </trkpt>
      <trkpt lat="48.82574" lon="2.38188">
        <ele>90.81</ele>
        <time>2020-03-13T22:43:45.999Z</time>
      </trkpt>
      <trkpt lat="48.82573" lon="2.38185">
        <ele>90.84</ele>
        <time>2020-03-13T22:43:46.999Z</time>
      </trkpt>
      <trkpt lat="48.82572" lon="2.38184">
        <ele>90.89</ele>
        <time>2020-03-13T22:43:47.999Z</time>
      </trkpt>
      <trkpt lat="48.82571" lon="2.38181">
        <ele>90.94</ele>
        <time>2020-03-13T22:43:48.999Z</time>
      </trkpt>
      <trkpt lat="48.8257" lon="2.3818">
        <ele>91</ele>
        <time>2020-03-13T22:43:49.999Z</time>
      </trkpt>
      <trkpt lat="48.82569" lon="2.38179">
        <ele>91.06</ele>
        <time>2020-03-13T22:43:50.999Z</time>
      </trkpt>
      <trkpt lat="48.82569" lon="2.38176">
        <ele>91.22</ele>
        <time>2020-03-13T22:43:52.999Z</time>
      </trkpt>
      <trkpt lat="48.82569" lon="2.38175">
        <ele>91.31</ele>
        <time>2020-03-13T22:43:54.999Z</time>
      </trkpt>
      <trkpt lat="48.8257" lon="2.38174">
        <ele>91.41</ele>
        <time>2020-03-13T22:43:55.999Z</time>
      </trkpt>
      <trkpt lat="48.8257" lon="2.38176">
        <ele>92.72</ele>
        <time>2020-03-13T22:44:53.999Z</time>
      </trkpt>
      <trkpt lat="48.82571" lon="2.38178">
        <ele>92.95</ele>
        <time>2020-03-13T22:44:55.999Z</time>
      </trkpt>
      <trkpt lat="48.8257" lon="2.38178">
        <ele>93.45</ele>
        <time>2020-03-13T22:45:28.999Z</time>
      </trkpt>
      <trkpt lat="48.82569" lon="2.38176">
        <ele>93.56</ele>
        <time>2020-03-13T22:45:30.999Z</time>
      </trkpt>
      <trkpt lat="48.82568" lon="2.38175">
        <ele>93.62</ele>
        <time>2020-03-13T22:45:31.999Z</time>
      </trkpt>
      <trkpt lat="48.82567" lon="2.38173">
        <ele>93.67</ele>
        <time>2020-03-13T22:45:32.999Z</time>
      </trkpt>
      <trkpt lat="48.82566" lon="2.38172">
        <ele>93.73</ele>
        <time>2020-03-13T22:45:33.999Z</time>
      </trkpt>
      <trkpt lat="48.82565" lon="2.3817">
        <ele>93.78</ele>
        <time>2020-03-13T22:45:34.999Z</time>
      </trkpt>
      <trkpt lat="48.82564" lon="2.38167">
        <ele>93.82</ele>
        <time>2020-03-13T22:45:35.999Z</time>
      </trkpt>
      <trkpt lat="48.82563" lon="2.38164">
        <ele>93.87</ele>
        <time>2020-03-13T22:45:36.999Z</time>
      </trkpt>
      <trkpt lat="48.82562" lon="2.38162">
        <ele>93.92</ele>
        <time>2020-03-13T22:45:37.999Z</time>
      </trkpt>
      <trkpt lat="48.82561" lon="2.38158">
        <ele>93.96</ele>
        <time>2020-03-13T22:45:38.999Z</time>
      </trkpt>
      <trkpt lat="48.82559" lon="2.38155">
        <ele>94.01</ele>
        <time>2020-03-13T22:45:39.999Z</time>
      </trkpt>
      <trkpt lat="48.82558" lon="2.3815">
        <ele>94.05</ele>
        <time>2020-03-13T22:45:40.999Z</time>
      </trkpt>
      <trkpt lat="48.82557" lon="2.38147">
        <ele>94.09</ele>
        <time>2020-03-13T22:45:41.999Z</time>
      </trkpt>
      <trkpt lat="48.82556" lon="2.38143">
        <ele>94.14</ele>
        <time>2020-03-13T22:45:42.999Z</time>
      </trkpt>
      <trkpt lat="48.82554" lon="2.38138">
        <ele>94.18</ele>
        <time>2020-03-13T22:45:43.999Z</time>
      </trkpt>
      <trkpt lat="48.82552" lon="2.38134">
        <ele>94.22</ele>
        <time>2020-03-13T22:45:44.999Z</time>
      </trkpt>
      <trkpt lat="48.82551" lon="2.38128">
        <ele>94.26</ele>
        <time>2020-03-13T22:45:45.999Z</time>
      </trkpt>
      <trkpt lat="48.82549" lon="2.38123">
        <ele>94.29</ele>
        <time>2020-03-13T22:45:46.999Z</time>
      </trkpt>
      <trkpt lat="48.82548" lon="2.38118">
        <ele>94.33</ele>
        <time>2020-03-13T22:45:47.999Z</time>
      </trkpt>
      <trkpt lat="48.82546" lon="2.38112">
        <ele>94.36</ele>
        <time>2020-03-13T22:45:48.999Z</time>
      </trkpt>
      <trkpt lat="48.82546" lon="2.38108">
        <ele>94.4</ele>
        <time>2020-03-13T22:45:49.999Z</time>
      </trkpt>
      <trkpt lat="48.82544" lon="2.38102">
        <ele>94.43</ele>
        <time>2020-03-13T22:45:50.999Z</time>
      </trkpt>
      <trkpt lat="48.82542" lon="2.38097">
        <ele>94.46</ele>
        <time>2020-03-13T22:45:51.999Z</time>
      </trkpt>
      <trkpt lat="48.82541" lon="2.38092">
        <ele>94.49</ele>
        <time>2020-03-13T22:45:52.999Z</time>
      </trkpt>
      <trkpt lat="48.82539" lon="2.38086">
        <ele>94.78</ele>
        <time>2020-03-13T22:45:53.999Z</time>
      </trkpt>
      <trkpt lat="48.82538" lon="2.38081">
        <ele>94.8</ele>
        <time>2020-03-13T22:45:54.999Z</time>
      </trkpt>
      <trkpt lat="48.82536" lon="2.38075">
        <ele>94.82</ele>
        <time>2020-03-13T22:45:55.999Z</time>
      </trkpt>
      <trkpt lat="48.82534" lon="2.3807">
        <ele>94.84</ele>
        <time>2020-03-13T22:45:56.999Z</time>
      </trkpt>
      <trkpt lat="48.82533" lon="2.38064">
        <ele>95.05</ele>
        <time>2020-03-13T22:45:57.999Z</time>
      </trkpt>
      <trkpt lat="48.82532" lon="2.38059">
        <ele>95.2</ele>
        <time>2020-03-13T22:45:58.999Z</time>
      </trkpt>
      <trkpt lat="48.8253" lon="2.38053">
        <ele>95.33</ele>
        <time>2020-03-13T22:45:59.999Z</time>
      </trkpt>
      <trkpt lat="48.82529" lon="2.38046">
        <ele>95.43</ele>
        <time>2020-03-13T22:46:00.999Z</time>
      </trkpt>
      <trkpt lat="48.82528" lon="2.38041">
        <ele>95.5</ele>
        <time>2020-03-13T22:46:01.999Z</time>
      </trkpt>
      <trkpt lat="48.82527" lon="2.38036">
        <ele>95.55</ele>
        <time>2020-03-13T22:46:02.999Z</time>
      </trkpt>
      <trkpt lat="48.82527" lon="2.3803">
        <ele>95.56</ele>
        <time>2020-03-13T22:46:03.999Z</time>
      </trkpt>
      <trkpt lat="48.82526" lon="2.38025">
        <ele>95.56</ele>
        <time>2020-03-13T22:46:04.999Z</time>
      </trkpt>
      <trkpt lat="48.82526" lon="2.38021">
        <ele>95.57</ele>
        <time>2020-03-13T22:46:05.999Z</time>
      </trkpt>
      <trkpt lat="48.82526" lon="2.38016">
        <ele>95.57</ele>
        <time>2020-03-13T22:46:06.999Z</time>
      </trkpt>
      <trkpt lat="48.82525" lon="2.38011">
        <ele>95.58</ele>
        <time>2020-03-13T22:46:07.999Z</time>
      </trkpt>
      <trkpt lat="48.82525" lon="2.38007">
        <ele>95.59</ele>
        <time>2020-03-13T22:46:08.999Z</time>
      </trkpt>
      <trkpt lat="48.82525" lon="2.38002">
        <ele>95.59</ele>
        <time>2020-03-13T22:46:09.999Z</time>
      </trkpt>
      <trkpt lat="48.82525" lon="2.37997">
        <ele>95.6</ele>
        <time>2020-03-13T22:46:10.999Z</time>
      </trkpt>
      <trkpt lat="48.82524" lon="2.37992">
        <ele>95.65</ele>
        <time>2020-03-13T22:46:11.999Z</time>
      </trkpt>
      <trkpt lat="48.82523" lon="2.37986">
        <ele>95.68</ele>
        <time>2020-03-13T22:46:12.999Z</time>
      </trkpt>
      <trkpt lat="48.82521" lon="2.3798">
        <ele>95.7</ele>
        <time>2020-03-13T22:46:13.999Z</time>
      </trkpt>
      <trkpt lat="48.82519" lon="2.37973">
        <ele>95.71</ele>
        <time>2020-03-13T22:46:14.999Z</time>
      </trkpt>
      <trkpt lat="48.82516" lon="2.37967">
        <ele>95.71</ele>
        <time>2020-03-13T22:46:15.999Z</time>
      </trkpt>
      <trkpt lat="48.82513" lon="2.37961">
        <ele>95.71</ele>
        <time>2020-03-13T22:46:16.999Z</time>
      </trkpt>
      <trkpt lat="48.82512" lon="2.37953">
        <ele>95.7</ele>
        <time>2020-03-13T22:46:17.999Z</time>
      </trkpt>
      <trkpt lat="48.8251" lon="2.37945">
        <ele>95.7</ele>
        <time>2020-03-13T22:46:18.999Z</time>
      </trkpt>
      <trkpt lat="48.82508" lon="2.37938">
        <ele>95.7</ele>
        <time>2020-03-13T22:46:19.999Z</time>
      </trkpt>
      <trkpt lat="48.82506" lon="2.3793">
        <ele>95.72</ele>
        <time>2020-03-13T22:46:20.999Z</time>
      </trkpt>
      <trkpt lat="48.82503" lon="2.37921">
        <ele>95.72</ele>
        <time>2020-03-13T22:46:21.999Z</time>
      </trkpt>
      <trkpt lat="48.82501" lon="2.37914">
        <ele>95.72</ele>
        <time>2020-03-13T22:46:22.999Z</time>
      </trkpt>
      <trkpt lat="48.82498" lon="2.37907">
        <ele>95.72</ele>
        <time>2020-03-13T22:46:23.999Z</time>
      </trkpt>
      <trkpt lat="48.82497" lon="2.379">
        <ele>95.72</ele>
        <time>2020-03-13T22:46:24.999Z</time>
      </trkpt>
      <trkpt lat="48.82495" lon="2.37893">
        <ele>95.73</ele>
        <time>2020-03-13T22:46:25.999Z</time>
      </trkpt>
      <trkpt lat="48.82493" lon="2.37887">
        <ele>95.74</ele>
        <time>2020-03-13T22:46:26.999Z</time>
      </trkpt>
      <trkpt lat="48.82491" lon="2.3788">
        <ele>95.75</ele>
        <time>2020-03-13T22:46:27.999Z</time>
      </trkpt>
      <trkpt lat="48.82489" lon="2.37874">
        <ele>95.75</ele>
        <time>2020-03-13T22:46:28.999Z</time>
      </trkpt>
      <trkpt lat="48.82486" lon="2.37867">
        <ele>95.75</ele>
        <time>2020-03-13T22:46:29.999Z</time>
      </trkpt>
      <trkpt lat="48.82484" lon="2.3786">
        <ele>95.74</ele>
        <time>2020-03-13T22:46:30.999Z</time>
      </trkpt>
      <trkpt lat="48.82482" lon="2.37853">
        <ele>95.73</ele>
        <time>2020-03-13T22:46:31.999Z</time>
      </trkpt>
      <trkpt lat="48.82479" lon="2.37846">
        <ele>95.69</ele>
        <time>2020-03-13T22:46:32.999Z</time>
      </trkpt>
      <trkpt lat="48.82476" lon="2.37838">
        <ele>95.66</ele>
        <time>2020-03-13T22:46:33.999Z</time>
      </trkpt>
      <trkpt lat="48.82474" lon="2.3783">
        <ele>95.64</ele>
        <time>2020-03-13T22:46:34.999Z</time>
      </trkpt>
      <trkpt lat="48.82471" lon="2.37822">
        <ele>95.61</ele>
        <time>2020-03-13T22:46:35.999Z</time>
      </trkpt>
      <trkpt lat="48.82469" lon="2.37815">
        <ele>95.59</ele>
        <time>2020-03-13T22:46:36.999Z</time>
      </trkpt>
      <trkpt lat="48.82466" lon="2.37807">
        <ele>95.56</ele>
        <time>2020-03-13T22:46:37.999Z</time>
      </trkpt>
      <trkpt lat="48.82463" lon="2.378">
        <ele>95.54</ele>
        <time>2020-03-13T22:46:38.999Z</time>
      </trkpt>
      <trkpt lat="48.82461" lon="2.37791">
        <ele>95.52</ele>
        <time>2020-03-13T22:46:39.999Z</time>
      </trkpt>
      <trkpt lat="48.82458" lon="2.37783">
        <ele>95.5</ele>
        <time>2020-03-13T22:46:40.999Z</time>
      </trkpt>
      <trkpt lat="48.82456" lon="2.37775">
        <ele>95.47</ele>
        <time>2020-03-13T22:46:41.999Z</time>
      </trkpt>
      <trkpt lat="48.82453" lon="2.37767">
        <ele>95.44</ele>
        <time>2020-03-13T22:46:42.999Z</time>
      </trkpt>
      <trkpt lat="48.8245" lon="2.37758">
        <ele>95.41</ele>
        <time>2020-03-13T22:46:43.999Z</time>
      </trkpt>
      <trkpt lat="48.82447" lon="2.3775">
        <ele>95.37</ele>
        <time>2020-03-13T22:46:44.999Z</time>
      </trkpt>
      <trkpt lat="48.82445" lon="2.37742">
        <ele>95.34</ele>
        <time>2020-03-13T22:46:45.999Z</time>
      </trkpt>
      <trkpt lat="48.82442" lon="2.37734">
        <ele>95.31</ele>
        <time>2020-03-13T22:46:46.999Z</time>
      </trkpt>
      <trkpt lat="48.8244" lon="2.37726">
        <ele>95.27</ele>
        <time>2020-03-13T22:46:47.999Z</time>
      </trkpt>
      <trkpt lat="48.82437" lon="2.37717">
        <ele>95.23</ele>
        <time>2020-03-13T22:46:48.999Z</time>
      </trkpt>
      <trkpt lat="48.82434" lon="2.37708">
        <ele>95.19</ele>
        <time>2020-03-13T22:46:49.999Z</time>
      </trkpt>
      <trkpt lat="48.82431" lon="2.37699">
        <ele>95.15</ele>
        <time>2020-03-13T22:46:50.999Z</time>
      </trkpt>
      <trkpt lat="48.82428" lon="2.3769">
        <ele>95.11</ele>
        <time>2020-03-13T22:46:51.999Z</time>
      </trkpt>
      <trkpt lat="48.82425" lon="2.37681">
        <ele>95.06</ele>
        <time>2020-03-13T22:46:52.999Z</time>
      </trkpt>
      <trkpt lat="48.82421" lon="2.37673">
        <ele>94.98</ele>
        <time>2020-03-13T22:46:53.999Z</time>
      </trkpt>
      <trkpt lat="48.82418" lon="2.37664">
        <ele>94.92</ele>
        <time>2020-03-13T22:46:54.999Z</time>
      </trkpt>
      <trkpt lat="48.82415" lon="2.37655">
        <ele>94.87</ele>
        <time>2020-03-13T22:46:55.999Z</time>
      </trkpt>
      <trkpt lat="48.82412" lon="2.37647">
        <ele>94.82</ele>
        <time>2020-03-13T22:46:56.999Z</time>
      </trkpt>
      <trkpt lat="48.82409" lon="2.3764">
        <ele>94.77</ele>
        <time>2020-03-13T22:46:57.999Z</time>
      </trkpt>
      <trkpt lat="48.82407" lon="2.37632">
        <ele>94.72</ele>
        <time>2020-03-13T22:46:58.999Z</time>
      </trkpt>
      <trkpt lat="48.82404" lon="2.37625">
        <ele>94.66</ele>
        <time>2020-03-13T22:46:59.999Z</time>
      </trkpt>
      <trkpt lat="48.82402" lon="2.37619">
        <ele>94.6</ele>
        <time>2020-03-13T22:47:00.999Z</time>
      </trkpt>
      <trkpt lat="48.82399" lon="2.37613">
        <ele>94.54</ele>
        <time>2020-03-13T22:47:01.999Z</time>
      </trkpt>
      <trkpt lat="48.82397" lon="2.37608">
        <ele>94.49</ele>
        <time>2020-03-13T22:47:02.999Z</time>
      </trkpt>
      <trkpt lat="48.82395" lon="2.37603">
        <ele>94.4</ele>
        <time>2020-03-13T22:47:03.999Z</time>
      </trkpt>
      <trkpt lat="48.82393" lon="2.37598">
        <ele>94.34</ele>
        <time>2020-03-13T22:47:04.999Z</time>
      </trkpt>
      <trkpt lat="48.82391" lon="2.37593">
        <ele>94.3</ele>
        <time>2020-03-13T22:47:05.999Z</time>
      </trkpt>
      <trkpt lat="48.82389" lon="2.37588">
        <ele>94.3</ele>
        <time>2020-03-13T22:47:06.999Z</time>
      </trkpt>
      <trkpt lat="48.82387" lon="2.37584">
        <ele>94.28</ele>
        <time>2020-03-13T22:47:07.999Z</time>
      </trkpt>
      <trkpt lat="48.82386" lon="2.37579">
        <ele>94.27</ele>
        <time>2020-03-13T22:47:08.999Z</time>
      </trkpt>
      <trkpt lat="48.82385" lon="2.37575">
        <ele>94.26</ele>
        <time>2020-03-13T22:47:09.999Z</time>
      </trkpt>
      <trkpt lat="48.82383" lon="2.3757">
        <ele>94.25</ele>
        <time>2020-03-13T22:47:10.999Z</time>
      </trkpt>
      <trkpt lat="48.82382" lon="2.37566">
        <ele>94.24</ele>
        <time>2020-03-13T22:47:11.999Z</time>
      </trkpt>
      <trkpt lat="48.82381" lon="2.37562">
        <ele>94.23</ele>
        <time>2020-03-13T22:47:12.999Z</time>
      </trkpt>
      <trkpt lat="48.82379" lon="2.37557">
        <ele>94.23</ele>
        <time>2020-03-13T22:47:13.999Z</time>
      </trkpt>
      <trkpt lat="48.82378" lon="2.37553">
        <ele>94.23</ele>
        <time>2020-03-13T22:47:14.999Z</time>
      </trkpt>
      <trkpt lat="48.82377" lon="2.37548">
        <ele>94.23</ele>
        <time>2020-03-13T22:47:15.999Z</time>
      </trkpt>
      <trkpt lat="48.82376" lon="2.37544">
        <ele>94.23</ele>
        <time>2020-03-13T22:47:16.999Z</time>
      </trkpt>
      <trkpt lat="48.82374" lon="2.37539">
        <ele>94.23</ele>
        <time>2020-03-13T22:47:17.999Z</time>
      </trkpt>
      <trkpt lat="48.82372" lon="2.37535">
        <ele>94.23</ele>
        <time>2020-03-13T22:47:18.999Z</time>
      </trkpt>
      <trkpt lat="48.8237" lon="2.37531">
        <ele>94.22</ele>
        <time>2020-03-13T22:47:19.999Z</time>
      </trkpt>
      <trkpt lat="48.82369" lon="2.37527">
        <ele>94.22</ele>
        <time>2020-03-13T22:47:20.999Z</time>
      </trkpt>
      <trkpt lat="48.82368" lon="2.37523">
        <ele>94.21</ele>
        <time>2020-03-13T22:47:21.999Z</time>
      </trkpt>
      <trkpt lat="48.82367" lon="2.37519">
        <ele>94.21</ele>
        <time>2020-03-13T22:47:22.999Z</time>
      </trkpt>
      <trkpt lat="48.82366" lon="2.37514">
        <ele>94.2</ele>
        <time>2020-03-13T22:47:23.999Z</time>
      </trkpt>
      <trkpt lat="48.82365" lon="2.3751">
        <ele>94.2</ele>
        <time>2020-03-13T22:47:24.999Z</time>
      </trkpt>
      <trkpt lat="48.82363" lon="2.37505">
        <ele>94.2</ele>
        <time>2020-03-13T22:47:25.999Z</time>
      </trkpt>
      <trkpt lat="48.82361" lon="2.37502">
        <ele>94.2</ele>
        <time>2020-03-13T22:47:26.999Z</time>
      </trkpt>
      <trkpt lat="48.82359" lon="2.37498">
        <ele>94.2</ele>
        <time>2020-03-13T22:47:27.999Z</time>
      </trkpt>
      <trkpt lat="48.82358" lon="2.37494">
        <ele>94.2</ele>
        <time>2020-03-13T22:47:28.999Z</time>
      </trkpt>
      <trkpt lat="48.82356" lon="2.37489">
        <ele>94.19</ele>
        <time>2020-03-13T22:47:29.999Z</time>
      </trkpt>
      <trkpt lat="48.82354" lon="2.37485">
        <ele>94.19</ele>
        <time>2020-03-13T22:47:30.999Z</time>
      </trkpt>
      <trkpt lat="48.82352" lon="2.3748">
        <ele>94.18</ele>
        <time>2020-03-13T22:47:31.999Z</time>
      </trkpt>
      <trkpt lat="48.8235" lon="2.37475">
        <ele>94.17</ele>
        <time>2020-03-13T22:47:32.999Z</time>
      </trkpt>
      <trkpt lat="48.82348" lon="2.3747">
        <ele>94.16</ele>
        <time>2020-03-13T22:47:33.999Z</time>
      </trkpt>
      <trkpt lat="48.82346" lon="2.37465">
        <ele>94.15</ele>
        <time>2020-03-13T22:47:34.999Z</time>
      </trkpt>
      <trkpt lat="48.82344" lon="2.37458">
        <ele>94.14</ele>
        <time>2020-03-13T22:47:35.999Z</time>
      </trkpt>
      <trkpt lat="48.82342" lon="2.37453">
        <ele>94.13</ele>
        <time>2020-03-13T22:47:36.999Z</time>
      </trkpt>
      <trkpt lat="48.8234" lon="2.37448">
        <ele>94.12</ele>
        <time>2020-03-13T22:47:37.999Z</time>
      </trkpt>
      <trkpt lat="48.82339" lon="2.37442">
        <ele>94.11</ele>
        <time>2020-03-13T22:47:38.999Z</time>
      </trkpt>
      <trkpt lat="48.82338" lon="2.37436">
        <ele>94.11</ele>
        <time>2020-03-13T22:47:39.999Z</time>
      </trkpt>
      <trkpt lat="48.82336" lon="2.37432">
        <ele>94.1</ele>
        <time>2020-03-13T22:47:40.999Z</time>
      </trkpt>
      <trkpt lat="48.82335" lon="2.37427">
        <ele>94.09</ele>
        <time>2020-03-13T22:47:41.999Z</time>
      </trkpt>
      <trkpt lat="48.82334" lon="2.37422">
        <ele>94.09</ele>
        <time>2020-03-13T22:47:42.999Z</time>
      </trkpt>
      <trkpt lat="48.82332" lon="2.37417">
        <ele>94.09</ele>
        <time>2020-03-13T22:47:43.999Z</time>
      </trkpt>
      <trkpt lat="48.82331" lon="2.37413">
        <ele>94.09</ele>
        <time>2020-03-13T22:47:44.999Z</time>
      </trkpt>
      <trkpt lat="48.82329" lon="2.37409">
        <ele>94.08</ele>
        <time>2020-03-13T22:47:45.999Z</time>
      </trkpt>
      <trkpt lat="48.82327" lon="2.37404">
        <ele>94.09</ele>
        <time>2020-03-13T22:47:46.999Z</time>
      </trkpt>
      <trkpt lat="48.82325" lon="2.37399">
        <ele>94.09</ele>
        <time>2020-03-13T22:47:47.999Z</time>
      </trkpt>
      <trkpt lat="48.82324" lon="2.37395">
        <ele>94.1</ele>
        <time>2020-03-13T22:47:48.999Z</time>
      </trkpt>
      <trkpt lat="48.82322" lon="2.3739">
        <ele>94.11</ele>
        <time>2020-03-13T22:47:49.999Z</time>
      </trkpt>
      <trkpt lat="48.82321" lon="2.37386">
        <ele>94.12</ele>
        <time>2020-03-13T22:47:50.999Z</time>
      </trkpt>
      <trkpt lat="48.82319" lon="2.37382">
        <ele>94.13</ele>
        <time>2020-03-13T22:47:51.999Z</time>
      </trkpt>
      <trkpt lat="48.82317" lon="2.37378">
        <ele>94.14</ele>
        <time>2020-03-13T22:47:52.999Z</time>
      </trkpt>
      <trkpt lat="48.82315" lon="2.37373">
        <ele>94.15</ele>
        <time>2020-03-13T22:47:53.999Z</time>
      </trkpt>
      <trkpt lat="48.82314" lon="2.37368">
        <ele>94.16</ele>
        <time>2020-03-13T22:47:54.999Z</time>
      </trkpt>
      <trkpt lat="48.82312" lon="2.37363">
        <ele>94.17</ele>
        <time>2020-03-13T22:47:55.999Z</time>
      </trkpt>
      <trkpt lat="48.8231" lon="2.37359">
        <ele>94.19</ele>
        <time>2020-03-13T22:47:56.999Z</time>
      </trkpt>
      <trkpt lat="48.82309" lon="2.37354">
        <ele>94.2</ele>
        <time>2020-03-13T22:47:57.999Z</time>
      </trkpt>
      <trkpt lat="48.82307" lon="2.3735">
        <ele>94.21</ele>
        <time>2020-03-13T22:47:58.999Z</time>
      </trkpt>
      <trkpt lat="48.82306" lon="2.37344">
        <ele>94.23</ele>
        <time>2020-03-13T22:47:59.999Z</time>
      </trkpt>
      <trkpt lat="48.82304" lon="2.3734">
        <ele>94.25</ele>
        <time>2020-03-13T22:48:00.999Z</time>
      </trkpt>
      <trkpt lat="48.82303" lon="2.37334">
        <ele>94.27</ele>
        <time>2020-03-13T22:48:01.999Z</time>
      </trkpt>
      <trkpt lat="48.82302" lon="2.37329">
        <ele>94.29</ele>
        <time>2020-03-13T22:48:02.999Z</time>
      </trkpt>
      <trkpt lat="48.823" lon="2.37325">
        <ele>94.31</ele>
        <time>2020-03-13T22:48:03.999Z</time>
      </trkpt>
      <trkpt lat="48.82298" lon="2.3732">
        <ele>94.33</ele>
        <time>2020-03-13T22:48:04.999Z</time>
      </trkpt>
      <trkpt lat="48.82296" lon="2.37315">
        <ele>94.36</ele>
        <time>2020-03-13T22:48:05.999Z</time>
      </trkpt>
      <trkpt lat="48.82294" lon="2.37311">
        <ele>94.38</ele>
        <time>2020-03-13T22:48:06.999Z</time>
      </trkpt>
      <trkpt lat="48.82292" lon="2.37306">
        <ele>94.41</ele>
        <time>2020-03-13T22:48:07.999Z</time>
      </trkpt>
      <trkpt lat="48.82291" lon="2.373">
        <ele>94.43</ele>
        <time>2020-03-13T22:48:08.999Z</time>
      </trkpt>
      <trkpt lat="48.82289" lon="2.37294">
        <ele>94.46</ele>
        <time>2020-03-13T22:48:09.999Z</time>
      </trkpt>
      <trkpt lat="48.82288" lon="2.37289">
        <ele>94.49</ele>
        <time>2020-03-13T22:48:10.999Z</time>
      </trkpt>
      <trkpt lat="48.82286" lon="2.37285">
        <ele>94.52</ele>
        <time>2020-03-13T22:48:11.999Z</time>
      </trkpt>
      <trkpt lat="48.82285" lon="2.37279">
        <ele>94.55</ele>
        <time>2020-03-13T22:48:12.999Z</time>
      </trkpt>
      <trkpt lat="48.82283" lon="2.37274">
        <ele>94.59</ele>
        <time>2020-03-13T22:48:13.999Z</time>
      </trkpt>
      <trkpt lat="48.82283" lon="2.37269">
        <ele>94.62</ele>
        <time>2020-03-13T22:48:14.999Z</time>
      </trkpt>
      <trkpt lat="48.82281" lon="2.37264">
        <ele>94.66</ele>
        <time>2020-03-13T22:48:15.999Z</time>
      </trkpt>
      <trkpt lat="48.82279" lon="2.37258">
        <ele>94.69</ele>
        <time>2020-03-13T22:48:16.999Z</time>
      </trkpt>
      <trkpt lat="48.82278" lon="2.37252">
        <ele>94.73</ele>
        <time>2020-03-13T22:48:17.999Z</time>
      </trkpt>
      <trkpt lat="48.82276" lon="2.37248">
        <ele>94.77</ele>
        <time>2020-03-13T22:48:18.999Z</time>
      </trkpt>
      <trkpt lat="48.82275" lon="2.37243">
        <ele>94.81</ele>
        <time>2020-03-13T22:48:19.999Z</time>
      </trkpt>
      <trkpt lat="48.82273" lon="2.37238">
        <ele>94.85</ele>
        <time>2020-03-13T22:48:20.999Z</time>
      </trkpt>
      <trkpt lat="48.82272" lon="2.37233">
        <ele>94.89</ele>
        <time>2020-03-13T22:48:21.999Z</time>
      </trkpt>
      <trkpt lat="48.8227" lon="2.37228">
        <ele>94.94</ele>
        <time>2020-03-13T22:48:22.999Z</time>
      </trkpt>
      <trkpt lat="48.82268" lon="2.37222">
        <ele>94.98</ele>
        <time>2020-03-13T22:48:23.999Z</time>
      </trkpt>
      <trkpt lat="48.82266" lon="2.37217">
        <ele>95.03</ele>
        <time>2020-03-13T22:48:24.999Z</time>
      </trkpt>
      <trkpt lat="48.82264" lon="2.37212">
        <ele>95.07</ele>
        <time>2020-03-13T22:48:25.999Z</time>
      </trkpt>
      <trkpt lat="48.82263" lon="2.37207">
        <ele>95.12</ele>
        <time>2020-03-13T22:48:26.999Z</time>
      </trkpt>
      <trkpt lat="48.82261" lon="2.37201">
        <ele>95.17</ele>
        <time>2020-03-13T22:48:27.999Z</time>
      </trkpt>
      <trkpt lat="48.8226" lon="2.37197">
        <ele>95.21</ele>
        <time>2020-03-13T22:48:28.999Z</time>
      </trkpt>
      <trkpt lat="48.82258" lon="2.37192">
        <ele>95.26</ele>
        <time>2020-03-13T22:48:29.999Z</time>
      </trkpt>
      <trkpt lat="48.82256" lon="2.37187">
        <ele>95.31</ele>
        <time>2020-03-13T22:48:30.999Z</time>
      </trkpt>
      <trkpt lat="48.82254" lon="2.37182">
        <ele>95.36</ele>
        <time>2020-03-13T22:48:31.999Z</time>
      </trkpt>
      <trkpt lat="48.82252" lon="2.37176">
        <ele>95.41</ele>
        <time>2020-03-13T22:48:32.999Z</time>
      </trkpt>
      <trkpt lat="48.82251" lon="2.37172">
        <ele>95.46</ele>
        <time>2020-03-13T22:48:33.999Z</time>
      </trkpt>
      <trkpt lat="48.82249" lon="2.37166">
        <ele>95.95</ele>
        <time>2020-03-13T22:48:34.999Z</time>
      </trkpt>
      <trkpt lat="48.82248" lon="2.3716">
        <ele>95.99</ele>
        <time>2020-03-13T22:48:35.999Z</time>
      </trkpt>
      <trkpt lat="48.82246" lon="2.37155">
        <ele>96.03</ele>
        <time>2020-03-13T22:48:36.999Z</time>
      </trkpt>
      <trkpt lat="48.82244" lon="2.3715">
        <ele>96.45</ele>
        <time>2020-03-13T22:48:37.999Z</time>
      </trkpt>
      <trkpt lat="48.82242" lon="2.37144">
        <ele>96.79</ele>
        <time>2020-03-13T22:48:38.999Z</time>
      </trkpt>
      <trkpt lat="48.82241" lon="2.37139">
        <ele>97.08</ele>
        <time>2020-03-13T22:48:39.999Z</time>
      </trkpt>
      <trkpt lat="48.82237" lon="2.37134">
        <ele>97.33</ele>
        <time>2020-03-13T22:48:40.999Z</time>
      </trkpt>
      <trkpt lat="48.82236" lon="2.37129">
        <ele>97.53</ele>
        <time>2020-03-13T22:48:41.999Z</time>
      </trkpt>
      <trkpt lat="48.82234" lon="2.37122">
        <ele>97.71</ele>
        <time>2020-03-13T22:48:42.999Z</time>
      </trkpt>
      <trkpt lat="48.82231" lon="2.37117">
        <ele>97.87</ele>
        <time>2020-03-13T22:48:43.999Z</time>
      </trkpt>
      <trkpt lat="48.8223" lon="2.3711">
        <ele>98.02</ele>
        <time>2020-03-13T22:48:44.999Z</time>
      </trkpt>
      <trkpt lat="48.82228" lon="2.37104">
        <ele>98.03</ele>
        <time>2020-03-13T22:48:45.999Z</time>
      </trkpt>
      <trkpt lat="48.82228" lon="2.37098">
        <ele>98.04</ele>
        <time>2020-03-13T22:48:46.999Z</time>
      </trkpt>
      <trkpt lat="48.82225" lon="2.37093">
        <ele>98.06</ele>
        <time>2020-03-13T22:48:47.999Z</time>
      </trkpt>
      <trkpt lat="48.82224" lon="2.37087">
        <ele>98.07</ele>
        <time>2020-03-13T22:48:48.999Z</time>
      </trkpt>
      <trkpt lat="48.82221" lon="2.3708">
        <ele>98.08</ele>
        <time>2020-03-13T22:48:49.999Z</time>
      </trkpt>
      <trkpt lat="48.82219" lon="2.37075">
        <ele>98.1</ele>
        <time>2020-03-13T22:48:50.999Z</time>
      </trkpt>
      <trkpt lat="48.82217" lon="2.37071">
        <ele>98.22</ele>
        <time>2020-03-13T22:48:51.999Z</time>
      </trkpt>
      <trkpt lat="48.82216" lon="2.37066">
        <ele>98.23</ele>
        <time>2020-03-13T22:48:52.999Z</time>
      </trkpt>
      <trkpt lat="48.82216" lon="2.37056">
        <ele>98.24</ele>
        <time>2020-03-13T22:48:53.999Z</time>
      </trkpt>
      <trkpt lat="48.82214" lon="2.37051">
        <ele>98.25</ele>
        <time>2020-03-13T22:48:54.999Z</time>
      </trkpt>
      <trkpt lat="48.82212" lon="2.37045">
        <ele>98.35</ele>
        <time>2020-03-13T22:48:55.999Z</time>
      </trkpt>
      <trkpt lat="48.82209" lon="2.37043">
        <ele>98.35</ele>
        <time>2020-03-13T22:48:56.999Z</time>
      </trkpt>
      <trkpt lat="48.82207" lon="2.37039">
        <ele>98.36</ele>
        <time>2020-03-13T22:48:57.999Z</time>
      </trkpt>
      <trkpt lat="48.82206" lon="2.37033">
        <ele>98.37</ele>
        <time>2020-03-13T22:48:58.999Z</time>
      </trkpt>
      <trkpt lat="48.82205" lon="2.37027">
        <ele>98.37</ele>
        <time>2020-03-13T22:48:59.999Z</time>
      </trkpt>
      <trkpt lat="48.82203" lon="2.37023">
        <ele>98.38</ele>
        <time>2020-03-13T22:49:00.999Z</time>
      </trkpt>
      <trkpt lat="48.82201" lon="2.37018">
        <ele>98.39</ele>
        <time>2020-03-13T22:49:01.999Z</time>
      </trkpt>
      <trkpt lat="48.82199" lon="2.37013">
        <ele>98.39</ele>
        <time>2020-03-13T22:49:02.999Z</time>
      </trkpt>
      <trkpt lat="48.82198" lon="2.37006">
        <ele>98.41</ele>
        <time>2020-03-13T22:49:03.999Z</time>
      </trkpt>
      <trkpt lat="48.82197" lon="2.37001">
        <ele>98.42</ele>
        <time>2020-03-13T22:49:04.999Z</time>
      </trkpt>
      <trkpt lat="48.82194" lon="2.36995">
        <ele>98.44</ele>
        <time>2020-03-13T22:49:05.999Z</time>
      </trkpt>
      <trkpt lat="48.82193" lon="2.3699">
        <ele>98.45</ele>
        <time>2020-03-13T22:49:06.999Z</time>
      </trkpt>
      <trkpt lat="48.8219" lon="2.36984">
        <ele>98.47</ele>
        <time>2020-03-13T22:49:07.999Z</time>
      </trkpt>
      <trkpt lat="48.82189" lon="2.3698">
        <ele>98.5</ele>
        <time>2020-03-13T22:49:08.999Z</time>
      </trkpt>
      <trkpt lat="48.82187" lon="2.36975">
        <ele>98.52</ele>
        <time>2020-03-13T22:49:09.999Z</time>
      </trkpt>
      <trkpt lat="48.82185" lon="2.36972">
        <ele>98.55</ele>
        <time>2020-03-13T22:49:10.999Z</time>
      </trkpt>
      <trkpt lat="48.82184" lon="2.36968">
        <ele>98.58</ele>
        <time>2020-03-13T22:49:11.999Z</time>
      </trkpt>
      <trkpt lat="48.82182" lon="2.36963">
        <ele>98.61</ele>
        <time>2020-03-13T22:49:12.999Z</time>
      </trkpt>
      <trkpt lat="48.82181" lon="2.3696">
        <ele>98.64</ele>
        <time>2020-03-13T22:49:13.999Z</time>
      </trkpt>
      <trkpt lat="48.8218" lon="2.36956">
        <ele>98.67</ele>
        <time>2020-03-13T22:49:14.999Z</time>
      </trkpt>
      <trkpt lat="48.8218" lon="2.36951">
        <ele>98.7</ele>
        <time>2020-03-13T22:49:15.999Z</time>
      </trkpt>
      <trkpt lat="48.82179" lon="2.36947">
        <ele>98.74</ele>
        <time>2020-03-13T22:49:16.999Z</time>
      </trkpt>
      <trkpt lat="48.82178" lon="2.36943">
        <ele>98.77</ele>
        <time>2020-03-13T22:49:17.999Z</time>
      </trkpt>
      <trkpt lat="48.82178" lon="2.36937">
        <ele>98.8</ele>
        <time>2020-03-13T22:49:18.999Z</time>
      </trkpt>
      <trkpt lat="48.82177" lon="2.36933">
        <ele>98.84</ele>
        <time>2020-03-13T22:49:19.999Z</time>
      </trkpt>
      <trkpt lat="48.82176" lon="2.36929">
        <ele>98.87</ele>
        <time>2020-03-13T22:49:20.999Z</time>
      </trkpt>
      <trkpt lat="48.82175" lon="2.36924">
        <ele>98.91</ele>
        <time>2020-03-13T22:49:21.999Z</time>
      </trkpt>
      <trkpt lat="48.82174" lon="2.36921">
        <ele>98.95</ele>
        <time>2020-03-13T22:49:22.999Z</time>
      </trkpt>
      <trkpt lat="48.82173" lon="2.36917">
        <ele>98.98</ele>
        <time>2020-03-13T22:49:23.999Z</time>
      </trkpt>
      <trkpt lat="48.82172" lon="2.36914">
        <ele>99.02</ele>
        <time>2020-03-13T22:49:24.999Z</time>
      </trkpt>
      <trkpt lat="48.82171" lon="2.36911">
        <ele>99.05</ele>
        <time>2020-03-13T22:49:25.999Z</time>
      </trkpt>
      <trkpt lat="48.8217" lon="2.36909">
        <ele>99.08</ele>
        <time>2020-03-13T22:49:26.999Z</time>
      </trkpt>
      <trkpt lat="48.82169" lon="2.36906">
        <ele>99.12</ele>
        <time>2020-03-13T22:49:27.999Z</time>
      </trkpt>
      <trkpt lat="48.82168" lon="2.36904">
        <ele>99.15</ele>
        <time>2020-03-13T22:49:28.999Z</time>
      </trkpt>
      <trkpt lat="48.82168" lon="2.36901">
        <ele>99.19</ele>
        <time>2020-03-13T22:49:29.999Z</time>
      </trkpt>
      <trkpt lat="48.82166" lon="2.36898">
        <ele>99.23</ele>
        <time>2020-03-13T22:49:30.999Z</time>
      </trkpt>
      <trkpt lat="48.82165" lon="2.36897">
        <ele>99.26</ele>
        <time>2020-03-13T22:49:31.999Z</time>
      </trkpt>
      <trkpt lat="48.82164" lon="2.36895">
        <ele>99.3</ele>
        <time>2020-03-13T22:49:32.999Z</time>
      </trkpt>
      <trkpt lat="48.82163" lon="2.36893">
        <ele>99.34</ele>
        <time>2020-03-13T22:49:33.999Z</time>
      </trkpt>
      <trkpt lat="48.82161" lon="2.36891">
        <ele>99.38</ele>
        <time>2020-03-13T22:49:34.999Z</time>
      </trkpt>
      <trkpt lat="48.82161" lon="2.36889">
        <ele>99.41</ele>
        <time>2020-03-13T22:49:35.999Z</time>
      </trkpt>
      <trkpt lat="48.8216" lon="2.36888">
        <ele>99.56</ele>
        <time>2020-03-13T22:49:40.999Z</time>
      </trkpt>
      <trkpt lat="48.8216" lon="2.36887">
        <ele>99.64</ele>
        <time>2020-03-13T22:49:53.999Z</time>
      </trkpt>
      <trkpt lat="48.8216" lon="2.36889">
        <ele>99.71</ele>
        <time>2020-03-13T22:49:55.999Z</time>
      </trkpt>
      <trkpt lat="48.8216" lon="2.36891">
        <ele>99.84</ele>
        <time>2020-03-13T22:49:57.999Z</time>
      </trkpt>
      <trkpt lat="48.8216" lon="2.36893">
        <ele>100.02</ele>
        <time>2020-03-13T22:50:00.999Z</time>
      </trkpt>
      <trkpt lat="48.82159" lon="2.36893">
        <ele>100.09</ele>
        <time>2020-03-13T22:50:04.999Z</time>
      </trkpt>
      <trkpt lat="48.82158" lon="2.36891">
        <ele>100.1</ele>
        <time>2020-03-13T22:50:06.999Z</time>
      </trkpt>
      <trkpt lat="48.82157" lon="2.3689">
        <ele>100.32</ele>
        <time>2020-03-13T22:50:17.999Z</time>
      </trkpt>
      <trkpt lat="48.82156" lon="2.36889">
        <ele>100.43</ele>
        <time>2020-03-13T22:50:19.999Z</time>
      </trkpt>
      <trkpt lat="48.82155" lon="2.36886">
        <ele>100.49</ele>
        <time>2020-03-13T22:50:20.999Z</time>
      </trkpt>
      <trkpt lat="48.82153" lon="2.36882">
        <ele>100.54</ele>
        <time>2020-03-13T22:50:21.999Z</time>
      </trkpt>
      <trkpt lat="48.82152" lon="2.36878">
        <ele>100.59</ele>
        <time>2020-03-13T22:50:22.999Z</time>
      </trkpt>
      <trkpt lat="48.82151" lon="2.36875">
        <ele>100.65</ele>
        <time>2020-03-13T22:50:23.999Z</time>
      </trkpt>
      <trkpt lat="48.8215" lon="2.36872">
        <ele>100.7</ele>
        <time>2020-03-13T22:50:24.999Z</time>
      </trkpt>
      <trkpt lat="48.8215" lon="2.36868">
        <ele>100.75</ele>
        <time>2020-03-13T22:50:25.999Z</time>
      </trkpt>
      <trkpt lat="48.8215" lon="2.36862">
        <ele>100.8</ele>
        <time>2020-03-13T22:50:26.999Z</time>
      </trkpt>
      <trkpt lat="48.82149" lon="2.36858">
        <ele>100.84</ele>
        <time>2020-03-13T22:50:27.999Z</time>
      </trkpt>
      <trkpt lat="48.82148" lon="2.36854">
        <ele>100.89</ele>
        <time>2020-03-13T22:50:28.999Z</time>
      </trkpt>
      <trkpt lat="48.82146" lon="2.36851">
        <ele>100.94</ele>
        <time>2020-03-13T22:50:29.999Z</time>
      </trkpt>
      <trkpt lat="48.82144" lon="2.36848">
        <ele>100.98</ele>
        <time>2020-03-13T22:50:30.999Z</time>
      </trkpt>
      <trkpt lat="48.82143" lon="2.36844">
        <ele>101.02</ele>
        <time>2020-03-13T22:50:31.999Z</time>
      </trkpt>
      <trkpt lat="48.82141" lon="2.3684">
        <ele>101.06</ele>
        <time>2020-03-13T22:50:32.999Z</time>
      </trkpt>
      <trkpt lat="48.8214" lon="2.36838">
        <ele>101.1</ele>
        <time>2020-03-13T22:50:33.999Z</time>
      </trkpt>
      <trkpt lat="48.82138" lon="2.36836">
        <ele>101.14</ele>
        <time>2020-03-13T22:50:34.999Z</time>
      </trkpt>
      <trkpt lat="48.82137" lon="2.36833">
        <ele>101.18</ele>
        <time>2020-03-13T22:50:35.999Z</time>
      </trkpt>
      <trkpt lat="48.82137" lon="2.36832">
        <ele>101.21</ele>
        <time>2020-03-13T22:50:36.999Z</time>
      </trkpt>
      <trkpt lat="48.82136" lon="2.3683">
        <ele>101.25</ele>
        <time>2020-03-13T22:50:37.999Z</time>
      </trkpt>
      <trkpt lat="48.82135" lon="2.36828">
        <ele>101.32</ele>
        <time>2020-03-13T22:50:39.999Z</time>
      </trkpt>
      <trkpt lat="48.82136" lon="2.36827">
        <ele>101.48</ele>
        <time>2020-03-13T22:51:18.999Z</time>
      </trkpt>
      <trkpt lat="48.82137" lon="2.36827">
        <ele>101.67</ele>
        <time>2020-03-13T22:51:42.999Z</time>
      </trkpt>
      <trkpt lat="48.82137" lon="2.36828">
        <ele>101.81</ele>
        <time>2020-03-13T22:51:55.999Z</time>
      </trkpt>
      <trkpt lat="48.82138" lon="2.36828">
        <ele>101.97</ele>
        <time>2020-03-13T22:52:09.999Z</time>
      </trkpt>
      <trkpt lat="48.82138" lon="2.36826">
        <ele>102.34</ele>
        <time>2020-03-13T22:52:23.999Z</time>
      </trkpt>
      <trkpt lat="48.82137" lon="2.36824">
        <ele>102.55</ele>
        <time>2020-03-13T22:52:25.999Z</time>
      </trkpt>
      <trkpt lat="48.82135" lon="2.36822">
        <ele>102.65</ele>
        <time>2020-03-13T22:52:26.999Z</time>
      </trkpt>
      <trkpt lat="48.82134" lon="2.3682">
        <ele>102.76</ele>
        <time>2020-03-13T22:52:27.999Z</time>
      </trkpt>
      <trkpt lat="48.82133" lon="2.36817">
        <ele>102.86</ele>
        <time>2020-03-13T22:52:28.999Z</time>
      </trkpt>
      <trkpt lat="48.82131" lon="2.36813">
        <ele>102.95</ele>
        <time>2020-03-13T22:52:29.999Z</time>
      </trkpt>
      <trkpt lat="48.8213" lon="2.36809">
        <ele>103.05</ele>
        <time>2020-03-13T22:52:30.999Z</time>
      </trkpt>
      <trkpt lat="48.82129" lon="2.36806">
        <ele>103.14</ele>
        <time>2020-03-13T22:52:31.999Z</time>
      </trkpt>
      <trkpt lat="48.82128" lon="2.36802">
        <ele>103.24</ele>
        <time>2020-03-13T22:52:32.999Z</time>
      </trkpt>
      <trkpt lat="48.82127" lon="2.36798">
        <ele>103.33</ele>
        <time>2020-03-13T22:52:33.999Z</time>
      </trkpt>
      <trkpt lat="48.82125" lon="2.36794">
        <ele>103.41</ele>
        <time>2020-03-13T22:52:34.999Z</time>
      </trkpt>
      <trkpt lat="48.82124" lon="2.3679">
        <ele>103.5</ele>
        <time>2020-03-13T22:52:35.999Z</time>
      </trkpt>
      <trkpt lat="48.82123" lon="2.36785">
        <ele>103.58</ele>
        <time>2020-03-13T22:52:36.999Z</time>
      </trkpt>
      <trkpt lat="48.82121" lon="2.36781">
        <ele>103.66</ele>
        <time>2020-03-13T22:52:37.999Z</time>
      </trkpt>
      <trkpt lat="48.8212" lon="2.36776">
        <ele>103.75</ele>
        <time>2020-03-13T22:52:38.999Z</time>
      </trkpt>
      <trkpt lat="48.82119" lon="2.36772">
        <ele>103.82</ele>
        <time>2020-03-13T22:52:39.999Z</time>
      </trkpt>
      <trkpt lat="48.82118" lon="2.36767">
        <ele>103.9</ele>
        <time>2020-03-13T22:52:40.999Z</time>
      </trkpt>
      <trkpt lat="48.82116" lon="2.36762">
        <ele>103.98</ele>
        <time>2020-03-13T22:52:41.999Z</time>
      </trkpt>
      <trkpt lat="48.82115" lon="2.36757">
        <ele>104.05</ele>
        <time>2020-03-13T22:52:42.999Z</time>
      </trkpt>
      <trkpt lat="48.82114" lon="2.36752">
        <ele>104.12</ele>
        <time>2020-03-13T22:52:43.999Z</time>
      </trkpt>
      <trkpt lat="48.82114" lon="2.36747">
        <ele>104.19</ele>
        <time>2020-03-13T22:52:44.999Z</time>
      </trkpt>
      <trkpt lat="48.82112" lon="2.36742">
        <ele>104.26</ele>
        <time>2020-03-13T22:52:45.999Z</time>
      </trkpt>
      <trkpt lat="48.8211" lon="2.36736">
        <ele>104.33</ele>
        <time>2020-03-13T22:52:46.999Z</time>
      </trkpt>
      <trkpt lat="48.82109" lon="2.36731">
        <ele>104.39</ele>
        <time>2020-03-13T22:52:47.999Z</time>
      </trkpt>
      <trkpt lat="48.82107" lon="2.36725">
        <ele>104.45</ele>
        <time>2020-03-13T22:52:48.999Z</time>
      </trkpt>
      <trkpt lat="48.82106" lon="2.36719">
        <ele>104.51</ele>
        <time>2020-03-13T22:52:49.999Z</time>
      </trkpt>
      <trkpt lat="48.82105" lon="2.36713">
        <ele>104.57</ele>
        <time>2020-03-13T22:52:50.999Z</time>
      </trkpt>
      <trkpt lat="48.82103" lon="2.36707">
        <ele>104.63</ele>
        <time>2020-03-13T22:52:51.999Z</time>
      </trkpt>
      <trkpt lat="48.82102" lon="2.36702">
        <ele>104.69</ele>
        <time>2020-03-13T22:52:52.999Z</time>
      </trkpt>
      <trkpt lat="48.821" lon="2.36696">
        <ele>104.75</ele>
        <time>2020-03-13T22:52:53.999Z</time>
      </trkpt>
      <trkpt lat="48.82099" lon="2.3669">
        <ele>105.29</ele>
        <time>2020-03-13T22:52:54.999Z</time>
      </trkpt>
      <trkpt lat="48.82098" lon="2.36685">
        <ele>105.33</ele>
        <time>2020-03-13T22:52:55.999Z</time>
      </trkpt>
      <trkpt lat="48.82097" lon="2.36678">
        <ele>105.37</ele>
        <time>2020-03-13T22:52:56.999Z</time>
      </trkpt>
      <trkpt lat="48.82096" lon="2.36673">
        <ele>105.78</ele>
        <time>2020-03-13T22:52:57.999Z</time>
      </trkpt>
      <trkpt lat="48.82094" lon="2.36667">
        <ele>106.09</ele>
        <time>2020-03-13T22:52:58.999Z</time>
      </trkpt>
      <trkpt lat="48.82092" lon="2.3666">
        <ele>106.34</ele>
        <time>2020-03-13T22:52:59.999Z</time>
      </trkpt>
      <trkpt lat="48.8209" lon="2.36654">
        <ele>106.54</ele>
        <time>2020-03-13T22:53:00.999Z</time>
      </trkpt>
      <trkpt lat="48.82088" lon="2.36646">
        <ele>106.7</ele>
        <time>2020-03-13T22:53:01.999Z</time>
      </trkpt>
      <trkpt lat="48.82087" lon="2.3664">
        <ele>106.83</ele>
        <time>2020-03-13T22:53:02.999Z</time>
      </trkpt>
      <trkpt lat="48.82085" lon="2.36633">
        <ele>106.93</ele>
        <time>2020-03-13T22:53:03.999Z</time>
      </trkpt>
      <trkpt lat="48.82083" lon="2.36626">
        <ele>107.01</ele>
        <time>2020-03-13T22:53:04.999Z</time>
      </trkpt>
      <trkpt lat="48.82081" lon="2.36619">
        <ele>107.06</ele>
        <time>2020-03-13T22:53:05.999Z</time>
      </trkpt>
      <trkpt lat="48.82079" lon="2.36612">
        <ele>107.11</ele>
        <time>2020-03-13T22:53:06.999Z</time>
      </trkpt>
      <trkpt lat="48.82078" lon="2.36604">
        <ele>107.14</ele>
        <time>2020-03-13T22:53:07.999Z</time>
      </trkpt>
      <trkpt lat="48.82076" lon="2.36598">
        <ele>107.16</ele>
        <time>2020-03-13T22:53:08.999Z</time>
      </trkpt>
      <trkpt lat="48.82074" lon="2.36591">
        <ele>107.17</ele>
        <time>2020-03-13T22:53:09.999Z</time>
      </trkpt>
      <trkpt lat="48.82072" lon="2.36583">
        <ele>107.18</ele>
        <time>2020-03-13T22:53:10.999Z</time>
      </trkpt>
      <trkpt lat="48.8207" lon="2.36575">
        <ele>107.19</ele>
        <time>2020-03-13T22:53:11.999Z</time>
      </trkpt>
      <trkpt lat="48.82068" lon="2.36568">
        <ele>107.2</ele>
        <time>2020-03-13T22:53:12.999Z</time>
      </trkpt>
      <trkpt lat="48.82066" lon="2.36561">
        <ele>107.2</ele>
        <time>2020-03-13T22:53:13.999Z</time>
      </trkpt>
      <trkpt lat="48.82063" lon="2.36554">
        <ele>107.2</ele>
        <time>2020-03-13T22:53:14.999Z</time>
      </trkpt>
      <trkpt lat="48.82061" lon="2.36548">
        <ele>107.19</ele>
        <time>2020-03-13T22:53:15.999Z</time>
      </trkpt>
      <trkpt lat="48.82059" lon="2.36541">
        <ele>107.18</ele>
        <time>2020-03-13T22:53:16.999Z</time>
      </trkpt>
      <trkpt lat="48.82056" lon="2.36534">
        <ele>107.15</ele>
        <time>2020-03-13T22:53:17.999Z</time>
      </trkpt>
      <trkpt lat="48.82054" lon="2.36525">
        <ele>107.14</ele>
        <time>2020-03-13T22:53:18.999Z</time>
      </trkpt>
      <trkpt lat="48.82051" lon="2.36518">
        <ele>107.12</ele>
        <time>2020-03-13T22:53:19.999Z</time>
      </trkpt>
      <trkpt lat="48.82049" lon="2.3651">
        <ele>107.1</ele>
        <time>2020-03-13T22:53:20.999Z</time>
      </trkpt>
      <trkpt lat="48.82046" lon="2.36503">
        <ele>107.09</ele>
        <time>2020-03-13T22:53:21.999Z</time>
      </trkpt>
      <trkpt lat="48.82044" lon="2.36496">
        <ele>107.08</ele>
        <time>2020-03-13T22:53:22.999Z</time>
      </trkpt>
      <trkpt lat="48.82042" lon="2.36489">
        <ele>107.06</ele>
        <time>2020-03-13T22:53:23.999Z</time>
      </trkpt>
      <trkpt lat="48.82039" lon="2.36481">
        <ele>107.05</ele>
        <time>2020-03-13T22:53:24.999Z</time>
      </trkpt>
      <trkpt lat="48.82036" lon="2.36474">
        <ele>107.03</ele>
        <time>2020-03-13T22:53:25.999Z</time>
      </trkpt>
      <trkpt lat="48.82033" lon="2.36468">
        <ele>107.02</ele>
        <time>2020-03-13T22:53:26.999Z</time>
      </trkpt>
      <trkpt lat="48.8203" lon="2.36461">
        <ele>107.01</ele>
        <time>2020-03-13T22:53:27.999Z</time>
      </trkpt>
      <trkpt lat="48.82028" lon="2.36455">
        <ele>107</ele>
        <time>2020-03-13T22:53:28.999Z</time>
      </trkpt>
      <trkpt lat="48.82026" lon="2.36448">
        <ele>106.98</ele>
        <time>2020-03-13T22:53:29.999Z</time>
      </trkpt>
      <trkpt lat="48.82024" lon="2.3644">
        <ele>106.97</ele>
        <time>2020-03-13T22:53:30.999Z</time>
      </trkpt>
      <trkpt lat="48.82022" lon="2.36433">
        <ele>106.96</ele>
        <time>2020-03-13T22:53:31.999Z</time>
      </trkpt>
      <trkpt lat="48.8202" lon="2.36426">
        <ele>106.94</ele>
        <time>2020-03-13T22:53:32.999Z</time>
      </trkpt>
      <trkpt lat="48.82017" lon="2.36419">
        <ele>106.93</ele>
        <time>2020-03-13T22:53:33.999Z</time>
      </trkpt>
      <trkpt lat="48.82015" lon="2.36411">
        <ele>106.92</ele>
        <time>2020-03-13T22:53:34.999Z</time>
      </trkpt>
      <trkpt lat="48.82013" lon="2.36403">
        <ele>106.91</ele>
        <time>2020-03-13T22:53:35.999Z</time>
      </trkpt>
      <trkpt lat="48.82011" lon="2.36396">
        <ele>106.9</ele>
        <time>2020-03-13T22:53:36.999Z</time>
      </trkpt>
      <trkpt lat="48.82008" lon="2.36388">
        <ele>106.89</ele>
        <time>2020-03-13T22:53:37.999Z</time>
      </trkpt>
      <trkpt lat="48.82005" lon="2.36381">
        <ele>106.88</ele>
        <time>2020-03-13T22:53:38.999Z</time>
      </trkpt>
      <trkpt lat="48.82003" lon="2.36373">
        <ele>106.87</ele>
        <time>2020-03-13T22:53:39.999Z</time>
      </trkpt>
      <trkpt lat="48.82" lon="2.36365">
        <ele>106.85</ele>
        <time>2020-03-13T22:53:40.999Z</time>
      </trkpt>
      <trkpt lat="48.81997" lon="2.36358">
        <ele>106.85</ele>
        <time>2020-03-13T22:53:41.999Z</time>
      </trkpt>
      <trkpt lat="48.81995" lon="2.3635">
        <ele>106.84</ele>
        <time>2020-03-13T22:53:42.999Z</time>
      </trkpt>
      <trkpt lat="48.81993" lon="2.36343">
        <ele>106.84</ele>
        <time>2020-03-13T22:53:43.999Z</time>
      </trkpt>
      <trkpt lat="48.8199" lon="2.36336">
        <ele>106.84</ele>
        <time>2020-03-13T22:53:44.999Z</time>
      </trkpt>
      <trkpt lat="48.81988" lon="2.36329">
        <ele>106.84</ele>
        <time>2020-03-13T22:53:45.999Z</time>
      </trkpt>
      <trkpt lat="48.81986" lon="2.36323">
        <ele>106.84</ele>
        <time>2020-03-13T22:53:46.999Z</time>
      </trkpt>
      <trkpt lat="48.81983" lon="2.36316">
        <ele>106.84</ele>
        <time>2020-03-13T22:53:47.999Z</time>
      </trkpt>
      <trkpt lat="48.81981" lon="2.36308">
        <ele>106.85</ele>
        <time>2020-03-13T22:53:48.999Z</time>
      </trkpt>
      <trkpt lat="48.81979" lon="2.36302">
        <ele>106.85</ele>
        <time>2020-03-13T22:53:49.999Z</time>
      </trkpt>
      <trkpt lat="48.81976" lon="2.36295">
        <ele>106.85</ele>
        <time>2020-03-13T22:53:50.999Z</time>
      </trkpt>
      <trkpt lat="48.81974" lon="2.36289">
        <ele>106.85</ele>
        <time>2020-03-13T22:53:51.999Z</time>
      </trkpt>
      <trkpt lat="48.81971" lon="2.36283">
        <ele>106.84</ele>
        <time>2020-03-13T22:53:52.999Z</time>
      </trkpt>
      <trkpt lat="48.81969" lon="2.36276">
        <ele>106.84</ele>
        <time>2020-03-13T22:53:53.999Z</time>
      </trkpt>
      <trkpt lat="48.81967" lon="2.3627">
        <ele>106.83</ele>
        <time>2020-03-13T22:53:54.999Z</time>
      </trkpt>
      <trkpt lat="48.81965" lon="2.36262">
        <ele>106.83</ele>
        <time>2020-03-13T22:53:55.999Z</time>
      </trkpt>
      <trkpt lat="48.81963" lon="2.36257">
        <ele>106.83</ele>
        <time>2020-03-13T22:53:56.999Z</time>
      </trkpt>
      <trkpt lat="48.81961" lon="2.36253">
        <ele>106.83</ele>
        <time>2020-03-13T22:53:57.999Z</time>
      </trkpt>
      <trkpt lat="48.81959" lon="2.36248">
        <ele>106.83</ele>
        <time>2020-03-13T22:53:58.999Z</time>
      </trkpt>
      <trkpt lat="48.81957" lon="2.36244">
        <ele>106.83</ele>
        <time>2020-03-13T22:53:59.999Z</time>
      </trkpt>
      <trkpt lat="48.81955" lon="2.36241">
        <ele>106.83</ele>
        <time>2020-03-13T22:54:00.999Z</time>
      </trkpt>
      <trkpt lat="48.81952" lon="2.36238">
        <ele>106.83</ele>
        <time>2020-03-13T22:54:01.999Z</time>
      </trkpt>
      <trkpt lat="48.8195" lon="2.36234">
        <ele>106.83</ele>
        <time>2020-03-13T22:54:02.999Z</time>
      </trkpt>
      <trkpt lat="48.81949" lon="2.3623">
        <ele>106.83</ele>
        <time>2020-03-13T22:54:03.999Z</time>
      </trkpt>
      <trkpt lat="48.81947" lon="2.36225">
        <ele>106.83</ele>
        <time>2020-03-13T22:54:04.999Z</time>
      </trkpt>
      <trkpt lat="48.81946" lon="2.3622">
        <ele>106.83</ele>
        <time>2020-03-13T22:54:05.999Z</time>
      </trkpt>
      <trkpt lat="48.81944" lon="2.36216">
        <ele>106.82</ele>
        <time>2020-03-13T22:54:06.999Z</time>
      </trkpt>
      <trkpt lat="48.81941" lon="2.36211">
        <ele>106.82</ele>
        <time>2020-03-13T22:54:07.999Z</time>
      </trkpt>
      <trkpt lat="48.81941" lon="2.36206">
        <ele>106.82</ele>
        <time>2020-03-13T22:54:08.999Z</time>
      </trkpt>
      <trkpt lat="48.8194" lon="2.36202">
        <ele>106.82</ele>
        <time>2020-03-13T22:54:09.999Z</time>
      </trkpt>
      <trkpt lat="48.8194" lon="2.36198">
        <ele>106.82</ele>
        <time>2020-03-13T22:54:10.999Z</time>
      </trkpt>
      <trkpt lat="48.81939" lon="2.36192">
        <ele>106.82</ele>
        <time>2020-03-13T22:54:11.999Z</time>
      </trkpt>
      <trkpt lat="48.81938" lon="2.36187">
        <ele>106.82</ele>
        <time>2020-03-13T22:54:12.999Z</time>
      </trkpt>
      <trkpt lat="48.81938" lon="2.36181">
        <ele>106.81</ele>
        <time>2020-03-13T22:54:13.999Z</time>
      </trkpt>
      <trkpt lat="48.81937" lon="2.36175">
        <ele>106.81</ele>
        <time>2020-03-13T22:54:14.999Z</time>
      </trkpt>
      <trkpt lat="48.81937" lon="2.36169">
        <ele>106.8</ele>
        <time>2020-03-13T22:54:15.999Z</time>
      </trkpt>
      <trkpt lat="48.81936" lon="2.36163">
        <ele>106.79</ele>
        <time>2020-03-13T22:54:16.999Z</time>
      </trkpt>
      <trkpt lat="48.81936" lon="2.36157">
        <ele>106.74</ele>
        <time>2020-03-13T22:54:17.999Z</time>
      </trkpt>
      <trkpt lat="48.81935" lon="2.36151">
        <ele>106.73</ele>
        <time>2020-03-13T22:54:18.999Z</time>
      </trkpt>
      <trkpt lat="48.81935" lon="2.36145">
        <ele>106.71</ele>
        <time>2020-03-13T22:54:19.999Z</time>
      </trkpt>
      <trkpt lat="48.81935" lon="2.36138">
        <ele>106.69</ele>
        <time>2020-03-13T22:54:20.999Z</time>
      </trkpt>
      <trkpt lat="48.81935" lon="2.36132">
        <ele>106.67</ele>
        <time>2020-03-13T22:54:21.999Z</time>
      </trkpt>
      <trkpt lat="48.81935" lon="2.36126">
        <ele>106.47</ele>
        <time>2020-03-13T22:54:22.999Z</time>
      </trkpt>
      <trkpt lat="48.81935" lon="2.36119">
        <ele>106.31</ele>
        <time>2020-03-13T22:54:23.999Z</time>
      </trkpt>
      <trkpt lat="48.81934" lon="2.36113">
        <ele>106.29</ele>
        <time>2020-03-13T22:54:24.999Z</time>
      </trkpt>
      <trkpt lat="48.81934" lon="2.36107">
        <ele>106.01</ele>
        <time>2020-03-13T22:54:25.999Z</time>
      </trkpt>
      <trkpt lat="48.81933" lon="2.36101">
        <ele>105.77</ele>
        <time>2020-03-13T22:54:26.999Z</time>
      </trkpt>
      <trkpt lat="48.81932" lon="2.36094">
        <ele>105.56</ele>
        <time>2020-03-13T22:54:27.999Z</time>
      </trkpt>
      <trkpt lat="48.81932" lon="2.36087">
        <ele>105.4</ele>
        <time>2020-03-13T22:54:28.999Z</time>
      </trkpt>
      <trkpt lat="48.81932" lon="2.3608">
        <ele>105.08</ele>
        <time>2020-03-13T22:54:29.999Z</time>
      </trkpt>
      <trkpt lat="48.81932" lon="2.36073">
        <ele>104.86</ele>
        <time>2020-03-13T22:54:30.999Z</time>
      </trkpt>
      <trkpt lat="48.8193" lon="2.36067">
        <ele>104.84</ele>
        <time>2020-03-13T22:54:31.999Z</time>
      </trkpt>
      <trkpt lat="48.81929" lon="2.36061">
        <ele>104.8</ele>
        <time>2020-03-13T22:54:32.999Z</time>
      </trkpt>
      <trkpt lat="48.81928" lon="2.36055">
        <ele>104.77</ele>
        <time>2020-03-13T22:54:33.999Z</time>
      </trkpt>
      <trkpt lat="48.81926" lon="2.3605">
        <ele>104.74</ele>
        <time>2020-03-13T22:54:34.999Z</time>
      </trkpt>
      <trkpt lat="48.81926" lon="2.36044">
        <ele>104.71</ele>
        <time>2020-03-13T22:54:35.999Z</time>
      </trkpt>
      <trkpt lat="48.81924" lon="2.36038">
        <ele>104.67</ele>
        <time>2020-03-13T22:54:36.999Z</time>
      </trkpt>
      <trkpt lat="48.81924" lon="2.36033">
        <ele>104.62</ele>
        <time>2020-03-13T22:54:37.999Z</time>
      </trkpt>
      <trkpt lat="48.81923" lon="2.36027">
        <ele>104.25</ele>
        <time>2020-03-13T22:54:38.999Z</time>
      </trkpt>
      <trkpt lat="48.81922" lon="2.36021">
        <ele>103.78</ele>
        <time>2020-03-13T22:54:39.999Z</time>
      </trkpt>
      <trkpt lat="48.81922" lon="2.36014">
        <ele>103.46</ele>
        <time>2020-03-13T22:54:40.999Z</time>
      </trkpt>
      <trkpt lat="48.81921" lon="2.36006">
        <ele>103.15</ele>
        <time>2020-03-13T22:54:41.999Z</time>
      </trkpt>
      <trkpt lat="48.8192" lon="2.36">
        <ele>102.91</ele>
        <time>2020-03-13T22:54:42.999Z</time>
      </trkpt>
      <trkpt lat="48.81919" lon="2.35993">
        <ele>102.67</ele>
        <time>2020-03-13T22:54:43.999Z</time>
      </trkpt>
      <trkpt lat="48.81918" lon="2.35986">
        <ele>102.48</ele>
        <time>2020-03-13T22:54:44.999Z</time>
      </trkpt>
      <trkpt lat="48.81918" lon="2.35979">
        <ele>102.46</ele>
        <time>2020-03-13T22:54:45.999Z</time>
      </trkpt>
      <trkpt lat="48.81918" lon="2.35974">
        <ele>102.45</ele>
        <time>2020-03-13T22:54:46.999Z</time>
      </trkpt>
      <trkpt lat="48.81918" lon="2.3597">
        <ele>102.44</ele>
        <time>2020-03-13T22:54:47.999Z</time>
      </trkpt>
      <trkpt lat="48.81918" lon="2.35966">
        <ele>102.44</ele>
        <time>2020-03-13T22:54:48.999Z</time>
      </trkpt>
      <trkpt lat="48.81919" lon="2.35963">
        <ele>102.43</ele>
        <time>2020-03-13T22:54:49.999Z</time>
      </trkpt>
      <trkpt lat="48.81919" lon="2.35961">
        <ele>102.43</ele>
        <time>2020-03-13T22:54:51.999Z</time>
      </trkpt>
      <trkpt lat="48.81918" lon="2.35959">
        <ele>102.44</ele>
        <time>2020-03-13T22:54:52.999Z</time>
      </trkpt>
      <trkpt lat="48.81918" lon="2.35956">
        <ele>102.49</ele>
        <time>2020-03-13T22:54:56.999Z</time>
      </trkpt>
      <trkpt lat="48.81919" lon="2.35953">
        <ele>102.53</ele>
        <time>2020-03-13T22:54:58.999Z</time>
      </trkpt>
      <trkpt lat="48.81919" lon="2.35951">
        <ele>102.55</ele>
        <time>2020-03-13T22:54:59.999Z</time>
      </trkpt>
      <trkpt lat="48.8192" lon="2.35949">
        <ele>102.57</ele>
        <time>2020-03-13T22:55:00.999Z</time>
      </trkpt>
      <trkpt lat="48.81919" lon="2.35945">
        <ele>102.59</ele>
        <time>2020-03-13T22:55:01.999Z</time>
      </trkpt>
      <trkpt lat="48.81919" lon="2.3594">
        <ele>102.6</ele>
        <time>2020-03-13T22:55:02.999Z</time>
      </trkpt>
      <trkpt lat="48.81918" lon="2.35935">
        <ele>102.62</ele>
        <time>2020-03-13T22:55:03.999Z</time>
      </trkpt>
      <trkpt lat="48.81918" lon="2.35929">
        <ele>102.75</ele>
        <time>2020-03-13T22:55:04.999Z</time>
      </trkpt>
      <trkpt lat="48.81919" lon="2.35923">
        <ele>102.85</ele>
        <time>2020-03-13T22:55:05.999Z</time>
      </trkpt>
      <trkpt lat="48.81919" lon="2.35916">
        <ele>102.92</ele>
        <time>2020-03-13T22:55:06.999Z</time>
      </trkpt>
      <trkpt lat="48.81919" lon="2.35908">
        <ele>102.93</ele>
        <time>2020-03-13T22:55:07.999Z</time>
      </trkpt>
      <trkpt lat="48.81919" lon="2.359">
        <ele>102.91</ele>
        <time>2020-03-13T22:55:08.999Z</time>
      </trkpt>
      <trkpt lat="48.8192" lon="2.35893">
        <ele>102.86</ele>
        <time>2020-03-13T22:55:09.999Z</time>
      </trkpt>
      <trkpt lat="48.8192" lon="2.35886">
        <ele>102.81</ele>
        <time>2020-03-13T22:55:10.999Z</time>
      </trkpt>
      <trkpt lat="48.81921" lon="2.35877">
        <ele>102.76</ele>
        <time>2020-03-13T22:55:11.999Z</time>
      </trkpt>
      <trkpt lat="48.81921" lon="2.35869">
        <ele>102.69</ele>
        <time>2020-03-13T22:55:12.999Z</time>
      </trkpt>
      <trkpt lat="48.81922" lon="2.35861">
        <ele>102.61</ele>
        <time>2020-03-13T22:55:13.999Z</time>
      </trkpt>
      <trkpt lat="48.81923" lon="2.35852">
        <ele>102.53</ele>
        <time>2020-03-13T22:55:14.999Z</time>
      </trkpt>
      <trkpt lat="48.81924" lon="2.35844">
        <ele>102.46</ele>
        <time>2020-03-13T22:55:15.999Z</time>
      </trkpt>
      <trkpt lat="48.81925" lon="2.35835">
        <ele>102.41</ele>
        <time>2020-03-13T22:55:16.999Z</time>
      </trkpt>
      <trkpt lat="48.81926" lon="2.35828">
        <ele>102.37</ele>
        <time>2020-03-13T22:55:17.999Z</time>
      </trkpt>
      <trkpt lat="48.81927" lon="2.35819">
        <ele>102.37</ele>
        <time>2020-03-13T22:55:18.999Z</time>
      </trkpt>
      <trkpt lat="48.81929" lon="2.35811">
        <ele>102.37</ele>
        <time>2020-03-13T22:55:19.999Z</time>
      </trkpt>
      <trkpt lat="48.81931" lon="2.35804">
        <ele>102.39</ele>
        <time>2020-03-13T22:55:20.999Z</time>
      </trkpt>
      <trkpt lat="48.81933" lon="2.35796">
        <ele>102.41</ele>
        <time>2020-03-13T22:55:21.999Z</time>
      </trkpt>
      <trkpt lat="48.81935" lon="2.35789">
        <ele>102.42</ele>
        <time>2020-03-13T22:55:22.999Z</time>
      </trkpt>
      <trkpt lat="48.81938" lon="2.35781">
        <ele>102.44</ele>
        <time>2020-03-13T22:55:23.999Z</time>
      </trkpt>
      <trkpt lat="48.81941" lon="2.35773">
        <ele>102.47</ele>
        <time>2020-03-13T22:55:24.999Z</time>
      </trkpt>
      <trkpt lat="48.81944" lon="2.35765">
        <ele>102.52</ele>
        <time>2020-03-13T22:55:25.999Z</time>
      </trkpt>
      <trkpt lat="48.81947" lon="2.35758">
        <ele>102.57</ele>
        <time>2020-03-13T22:55:26.999Z</time>
      </trkpt>
      <trkpt lat="48.8195" lon="2.35751">
        <ele>102.6</ele>
        <time>2020-03-13T22:55:27.999Z</time>
      </trkpt>
      <trkpt lat="48.81954" lon="2.35744">
        <ele>102.69</ele>
        <time>2020-03-13T22:55:28.999Z</time>
      </trkpt>
      <trkpt lat="48.81958" lon="2.35737">
        <ele>102.79</ele>
        <time>2020-03-13T22:55:29.999Z</time>
      </trkpt>
      <trkpt lat="48.81963" lon="2.35729">
        <ele>102.9</ele>
        <time>2020-03-13T22:55:30.999Z</time>
      </trkpt>
      <trkpt lat="48.81968" lon="2.35723">
        <ele>102.96</ele>
        <time>2020-03-13T22:55:31.999Z</time>
      </trkpt>
      <trkpt lat="48.81974" lon="2.35716">
        <ele>102.99</ele>
        <time>2020-03-13T22:55:32.999Z</time>
      </trkpt>
      <trkpt lat="48.81979" lon="2.35708">
        <ele>103.03</ele>
        <time>2020-03-13T22:55:33.999Z</time>
      </trkpt>
      <trkpt lat="48.81985" lon="2.357">
        <ele>103.07</ele>
        <time>2020-03-13T22:55:34.999Z</time>
      </trkpt>
      <trkpt lat="48.8199" lon="2.35693">
        <ele>103.16</ele>
        <time>2020-03-13T22:55:35.999Z</time>
      </trkpt>
      <trkpt lat="48.81995" lon="2.35685">
        <ele>103.27</ele>
        <time>2020-03-13T22:55:36.999Z</time>
      </trkpt>
      <trkpt lat="48.82001" lon="2.35678">
        <ele>103.38</ele>
        <time>2020-03-13T22:55:37.999Z</time>
      </trkpt>
      <trkpt lat="48.82006" lon="2.3567">
        <ele>103.47</ele>
        <time>2020-03-13T22:55:38.999Z</time>
      </trkpt>
      <trkpt lat="48.82011" lon="2.35662">
        <ele>103.55</ele>
        <time>2020-03-13T22:55:39.999Z</time>
      </trkpt>
      <trkpt lat="48.82016" lon="2.35653">
        <ele>103.67</ele>
        <time>2020-03-13T22:55:40.999Z</time>
      </trkpt>
      <trkpt lat="48.82022" lon="2.35646">
        <ele>103.79</ele>
        <time>2020-03-13T22:55:41.999Z</time>
      </trkpt>
      <trkpt lat="48.82028" lon="2.35639">
        <ele>103.9</ele>
        <time>2020-03-13T22:55:42.999Z</time>
      </trkpt>
      <trkpt lat="48.82034" lon="2.35631">
        <ele>103.99</ele>
        <time>2020-03-13T22:55:43.999Z</time>
      </trkpt>
      <trkpt lat="48.8204" lon="2.35624">
        <ele>104.05</ele>
        <time>2020-03-13T22:55:44.999Z</time>
      </trkpt>
      <trkpt lat="48.82046" lon="2.35616">
        <ele>104.1</ele>
        <time>2020-03-13T22:55:45.999Z</time>
      </trkpt>
      <trkpt lat="48.82052" lon="2.35609">
        <ele>104.14</ele>
        <time>2020-03-13T22:55:46.999Z</time>
      </trkpt>
      <trkpt lat="48.82057" lon="2.356">
        <ele>104.15</ele>
        <time>2020-03-13T22:55:47.999Z</time>
      </trkpt>
      <trkpt lat="48.82062" lon="2.35591">
        <ele>104.17</ele>
        <time>2020-03-13T22:55:48.999Z</time>
      </trkpt>
      <trkpt lat="48.82067" lon="2.35581">
        <ele>104.18</ele>
        <time>2020-03-13T22:55:49.999Z</time>
      </trkpt>
      <trkpt lat="48.82072" lon="2.35572">
        <ele>104.2</ele>
        <time>2020-03-13T22:55:50.999Z</time>
      </trkpt>
      <trkpt lat="48.82077" lon="2.35563">
        <ele>104.2</ele>
        <time>2020-03-13T22:55:51.999Z</time>
      </trkpt>
      <trkpt lat="48.82081" lon="2.35553">
        <ele>104.18</ele>
        <time>2020-03-13T22:55:52.999Z</time>
      </trkpt>
      <trkpt lat="48.82085" lon="2.35542">
        <ele>104.17</ele>
        <time>2020-03-13T22:55:53.999Z</time>
      </trkpt>
      <trkpt lat="48.82088" lon="2.35531">
        <ele>104.15</ele>
        <time>2020-03-13T22:55:54.999Z</time>
      </trkpt>
      <trkpt lat="48.8209" lon="2.3552">
        <ele>104.13</ele>
        <time>2020-03-13T22:55:55.999Z</time>
      </trkpt>
      <trkpt lat="48.82092" lon="2.35509">
        <ele>104.08</ele>
        <time>2020-03-13T22:55:56.999Z</time>
      </trkpt>
      <trkpt lat="48.82095" lon="2.35497">
        <ele>104.03</ele>
        <time>2020-03-13T22:55:57.999Z</time>
      </trkpt>
      <trkpt lat="48.82096" lon="2.35485">
        <ele>103.95</ele>
        <time>2020-03-13T22:55:58.999Z</time>
      </trkpt>
      <trkpt lat="48.82099" lon="2.35473">
        <ele>103.8</ele>
        <time>2020-03-13T22:55:59.999Z</time>
      </trkpt>
      <trkpt lat="48.82101" lon="2.35461">
        <ele>103.71</ele>
        <time>2020-03-13T22:56:00.999Z</time>
      </trkpt>
      <trkpt lat="48.82103" lon="2.3545">
        <ele>103.63</ele>
        <time>2020-03-13T22:56:01.999Z</time>
      </trkpt>
      <trkpt lat="48.82104" lon="2.35438">
        <ele>103.65</ele>
        <time>2020-03-13T22:56:02.999Z</time>
      </trkpt>
      <trkpt lat="48.82105" lon="2.35427">
        <ele>103.57</ele>
        <time>2020-03-13T22:56:03.999Z</time>
      </trkpt>
      <trkpt lat="48.82106" lon="2.35415">
        <ele>103.44</ele>
        <time>2020-03-13T22:56:04.999Z</time>
      </trkpt>
      <trkpt lat="48.82106" lon="2.35403">
        <ele>103.55</ele>
        <time>2020-03-13T22:56:05.999Z</time>
      </trkpt>
      <trkpt lat="48.82106" lon="2.35393">
        <ele>103.67</ele>
        <time>2020-03-13T22:56:06.999Z</time>
      </trkpt>
      <trkpt lat="48.82106" lon="2.35383">
        <ele>103.65</ele>
        <time>2020-03-13T22:56:07.999Z</time>
      </trkpt>
      <trkpt lat="48.82105" lon="2.35373">
        <ele>103.51</ele>
        <time>2020-03-13T22:56:08.999Z</time>
      </trkpt>
      <trkpt lat="48.82106" lon="2.35362">
        <ele>103.51</ele>
        <time>2020-03-13T22:56:09.999Z</time>
      </trkpt>
      <trkpt lat="48.82106" lon="2.35352">
        <ele>103.59</ele>
        <time>2020-03-13T22:56:10.999Z</time>
      </trkpt>
      <trkpt lat="48.82106" lon="2.35341">
        <ele>103.49</ele>
        <time>2020-03-13T22:56:11.999Z</time>
      </trkpt>
      <trkpt lat="48.82107" lon="2.3533">
        <ele>103.13</ele>
        <time>2020-03-13T22:56:12.999Z</time>
      </trkpt>
      <trkpt lat="48.82107" lon="2.3532">
        <ele>102.83</ele>
        <time>2020-03-13T22:56:13.999Z</time>
      </trkpt>
      <trkpt lat="48.82108" lon="2.3531">
        <ele>102.55</ele>
        <time>2020-03-13T22:56:14.999Z</time>
      </trkpt>
      <trkpt lat="48.82108" lon="2.35301">
        <ele>102.35</ele>
        <time>2020-03-13T22:56:15.999Z</time>
      </trkpt>
      <trkpt lat="48.82108" lon="2.35291">
        <ele>102.1</ele>
        <time>2020-03-13T22:56:16.999Z</time>
      </trkpt>
      <trkpt lat="48.82109" lon="2.35282">
        <ele>101.76</ele>
        <time>2020-03-13T22:56:17.999Z</time>
      </trkpt>
      <trkpt lat="48.82109" lon="2.35273">
        <ele>101.56</ele>
        <time>2020-03-13T22:56:18.999Z</time>
      </trkpt>
      <trkpt lat="48.8211" lon="2.35263">
        <ele>101.34</ele>
        <time>2020-03-13T22:56:19.999Z</time>
      </trkpt>
      <trkpt lat="48.8211" lon="2.35254">
        <ele>101.07</ele>
        <time>2020-03-13T22:56:20.999Z</time>
      </trkpt>
      <trkpt lat="48.82111" lon="2.35244">
        <ele>100.92</ele>
        <time>2020-03-13T22:56:21.999Z</time>
      </trkpt>
      <trkpt lat="48.8211" lon="2.35234">
        <ele>100.6</ele>
        <time>2020-03-13T22:56:22.999Z</time>
      </trkpt>
      <trkpt lat="48.82111" lon="2.35223">
        <ele>100.39</ele>
        <time>2020-03-13T22:56:23.999Z</time>
      </trkpt>
      <trkpt lat="48.82111" lon="2.35213">
        <ele>100.1</ele>
        <time>2020-03-13T22:56:24.999Z</time>
      </trkpt>
      <trkpt lat="48.82111" lon="2.35203">
        <ele>100.03</ele>
        <time>2020-03-13T22:56:25.999Z</time>
      </trkpt>
      <trkpt lat="48.82111" lon="2.35193">
        <ele>100.07</ele>
        <time>2020-03-13T22:56:26.999Z</time>
      </trkpt>
      <trkpt lat="48.82111" lon="2.35184">
        <ele>100.17</ele>
        <time>2020-03-13T22:56:27.999Z</time>
      </trkpt>
      <trkpt lat="48.82111" lon="2.35174">
        <ele>100.54</ele>
        <time>2020-03-13T22:56:28.999Z</time>
      </trkpt>
      <trkpt lat="48.82111" lon="2.35164">
        <ele>100.84</ele>
        <time>2020-03-13T22:56:29.999Z</time>
      </trkpt>
      <trkpt lat="48.8211" lon="2.35155">
        <ele>100.96</ele>
        <time>2020-03-13T22:56:30.999Z</time>
      </trkpt>
      <trkpt lat="48.8211" lon="2.35146">
        <ele>101.1</ele>
        <time>2020-03-13T22:56:31.999Z</time>
      </trkpt>
      <trkpt lat="48.8211" lon="2.35135">
        <ele>101.22</ele>
        <time>2020-03-13T22:56:32.999Z</time>
      </trkpt>
      <trkpt lat="48.82109" lon="2.35125">
        <ele>101.25</ele>
        <time>2020-03-13T22:56:33.999Z</time>
      </trkpt>
      <trkpt lat="48.82109" lon="2.35115">
        <ele>101.14</ele>
        <time>2020-03-13T22:56:34.999Z</time>
      </trkpt>
      <trkpt lat="48.82108" lon="2.35106">
        <ele>101</ele>
        <time>2020-03-13T22:56:35.999Z</time>
      </trkpt>
      <trkpt lat="48.82108" lon="2.35097">
        <ele>100.86</ele>
        <time>2020-03-13T22:56:36.999Z</time>
      </trkpt>
      <trkpt lat="48.82108" lon="2.35089">
        <ele>100.7</ele>
        <time>2020-03-13T22:56:37.999Z</time>
      </trkpt>
      <trkpt lat="48.82107" lon="2.3508">
        <ele>100.58</ele>
        <time>2020-03-13T22:56:38.999Z</time>
      </trkpt>
      <trkpt lat="48.82105" lon="2.35072">
        <ele>100.43</ele>
        <time>2020-03-13T22:56:39.999Z</time>
      </trkpt>
      <trkpt lat="48.82103" lon="2.35065">
        <ele>100.38</ele>
        <time>2020-03-13T22:56:40.999Z</time>
      </trkpt>
      <trkpt lat="48.821" lon="2.35058">
        <ele>100.28</ele>
        <time>2020-03-13T22:56:41.999Z</time>
      </trkpt>
      <trkpt lat="48.82098" lon="2.35051">
        <ele>100.19</ele>
        <time>2020-03-13T22:56:42.999Z</time>
      </trkpt>
      <trkpt lat="48.82096" lon="2.35044">
        <ele>100.06</ele>
        <time>2020-03-13T22:56:43.999Z</time>
      </trkpt>
      <trkpt lat="48.82094" lon="2.35038">
        <ele>100.07</ele>
        <time>2020-03-13T22:56:44.999Z</time>
      </trkpt>
      <trkpt lat="48.82092" lon="2.35031">
        <ele>100.15</ele>
        <time>2020-03-13T22:56:45.999Z</time>
      </trkpt>
      <trkpt lat="48.8209" lon="2.35024">
        <ele>100.17</ele>
        <time>2020-03-13T22:56:46.999Z</time>
      </trkpt>
      <trkpt lat="48.82089" lon="2.35018">
        <ele>100.17</ele>
        <time>2020-03-13T22:56:47.999Z</time>
      </trkpt>
      <trkpt lat="48.82087" lon="2.35013">
        <ele>100.23</ele>
        <time>2020-03-13T22:56:48.999Z</time>
      </trkpt>
      <trkpt lat="48.82086" lon="2.35007">
        <ele>100.32</ele>
        <time>2020-03-13T22:56:49.999Z</time>
      </trkpt>
      <trkpt lat="48.82084" lon="2.35002">
        <ele>100.32</ele>
        <time>2020-03-13T22:56:50.999Z</time>
      </trkpt>
      <trkpt lat="48.82083" lon="2.34997">
        <ele>100.28</ele>
        <time>2020-03-13T22:56:51.999Z</time>
      </trkpt>
      <trkpt lat="48.82081" lon="2.34991">
        <ele>100.18</ele>
        <time>2020-03-13T22:56:52.999Z</time>
      </trkpt>
      <trkpt lat="48.82079" lon="2.34985">
        <ele>100.32</ele>
        <time>2020-03-13T22:56:53.999Z</time>
      </trkpt>
      <trkpt lat="48.82078" lon="2.34979">
        <ele>100.35</ele>
        <time>2020-03-13T22:56:54.999Z</time>
      </trkpt>
      <trkpt lat="48.82076" lon="2.34973">
        <ele>100.26</ele>
        <time>2020-03-13T22:56:55.999Z</time>
      </trkpt>
      <trkpt lat="48.82074" lon="2.34967">
        <ele>100.19</ele>
        <time>2020-03-13T22:56:56.999Z</time>
      </trkpt>
      <trkpt lat="48.82072" lon="2.34961">
        <ele>100.23</ele>
        <time>2020-03-13T22:56:57.999Z</time>
      </trkpt>
      <trkpt lat="48.8207" lon="2.34955">
        <ele>100.26</ele>
        <time>2020-03-13T22:56:58.999Z</time>
      </trkpt>
      <trkpt lat="48.82069" lon="2.34949">
        <ele>100.3</ele>
        <time>2020-03-13T22:56:59.999Z</time>
      </trkpt>
      <trkpt lat="48.82067" lon="2.34944">
        <ele>100.38</ele>
        <time>2020-03-13T22:57:00.999Z</time>
      </trkpt>
      <trkpt lat="48.82065" lon="2.34938">
        <ele>100.54</ele>
        <time>2020-03-13T22:57:01.999Z</time>
      </trkpt>
      <trkpt lat="48.82064" lon="2.34932">
        <ele>100.64</ele>
        <time>2020-03-13T22:57:02.999Z</time>
      </trkpt>
      <trkpt lat="48.82063" lon="2.34927">
        <ele>100.64</ele>
        <time>2020-03-13T22:57:03.999Z</time>
      </trkpt>
      <trkpt lat="48.82061" lon="2.34922">
        <ele>100.64</ele>
        <time>2020-03-13T22:57:04.999Z</time>
      </trkpt>
      <trkpt lat="48.82059" lon="2.34916">
        <ele>100.66</ele>
        <time>2020-03-13T22:57:05.999Z</time>
      </trkpt>
      <trkpt lat="48.82058" lon="2.34911">
        <ele>100.62</ele>
        <time>2020-03-13T22:57:06.999Z</time>
      </trkpt>
      <trkpt lat="48.82057" lon="2.34904">
        <ele>100.6</ele>
        <time>2020-03-13T22:57:07.999Z</time>
      </trkpt>
      <trkpt lat="48.82056" lon="2.34898">
        <ele>100.5</ele>
        <time>2020-03-13T22:57:08.999Z</time>
      </trkpt>
      <trkpt lat="48.82055" lon="2.34891">
        <ele>100.37</ele>
        <time>2020-03-13T22:57:09.999Z</time>
      </trkpt>
      <trkpt lat="48.82054" lon="2.34884">
        <ele>100.26</ele>
        <time>2020-03-13T22:57:10.999Z</time>
      </trkpt>
      <trkpt lat="48.82052" lon="2.34878">
        <ele>100.12</ele>
        <time>2020-03-13T22:57:11.999Z</time>
      </trkpt>
      <trkpt lat="48.8205" lon="2.34872">
        <ele>100.03</ele>
        <time>2020-03-13T22:57:12.999Z</time>
      </trkpt>
      <trkpt lat="48.82048" lon="2.34865">
        <ele>99.95</ele>
        <time>2020-03-13T22:57:13.999Z</time>
      </trkpt>
      <trkpt lat="48.82046" lon="2.34858">
        <ele>99.92</ele>
        <time>2020-03-13T22:57:14.999Z</time>
      </trkpt>
      <trkpt lat="48.82044" lon="2.34851">
        <ele>99.91</ele>
        <time>2020-03-13T22:57:15.999Z</time>
      </trkpt>
      <trkpt lat="48.82042" lon="2.34845">
        <ele>99.9</ele>
        <time>2020-03-13T22:57:16.999Z</time>
      </trkpt>
      <trkpt lat="48.8204" lon="2.34839">
        <ele>99.89</ele>
        <time>2020-03-13T22:57:17.999Z</time>
      </trkpt>
      <trkpt lat="48.82038" lon="2.34833">
        <ele>99.9</ele>
        <time>2020-03-13T22:57:18.999Z</time>
      </trkpt>
      <trkpt lat="48.82035" lon="2.34826">
        <ele>99.89</ele>
        <time>2020-03-13T22:57:19.999Z</time>
      </trkpt>
      <trkpt lat="48.82033" lon="2.34821">
        <ele>99.86</ele>
        <time>2020-03-13T22:57:20.999Z</time>
      </trkpt>
      <trkpt lat="48.82031" lon="2.34815">
        <ele>99.8</ele>
        <time>2020-03-13T22:57:21.999Z</time>
      </trkpt>
      <trkpt lat="48.8203" lon="2.34808">
        <ele>99.75</ele>
        <time>2020-03-13T22:57:22.999Z</time>
      </trkpt>
      <trkpt lat="48.82028" lon="2.34801">
        <ele>99.69</ele>
        <time>2020-03-13T22:57:23.999Z</time>
      </trkpt>
      <trkpt lat="48.82027" lon="2.34794">
        <ele>99.65</ele>
        <time>2020-03-13T22:57:24.999Z</time>
      </trkpt>
      <trkpt lat="48.82025" lon="2.34787">
        <ele>99.62</ele>
        <time>2020-03-13T22:57:25.999Z</time>
      </trkpt>
      <trkpt lat="48.82024" lon="2.34781">
        <ele>99.58</ele>
        <time>2020-03-13T22:57:26.999Z</time>
      </trkpt>
      <trkpt lat="48.82022" lon="2.34774">
        <ele>99.55</ele>
        <time>2020-03-13T22:57:27.999Z</time>
      </trkpt>
      <trkpt lat="48.8202" lon="2.34767">
        <ele>99.54</ele>
        <time>2020-03-13T22:57:28.999Z</time>
      </trkpt>
      <trkpt lat="48.82018" lon="2.3476">
        <ele>99.57</ele>
        <time>2020-03-13T22:57:29.999Z</time>
      </trkpt>
      <trkpt lat="48.82016" lon="2.34755">
        <ele>99.59</ele>
        <time>2020-03-13T22:57:30.999Z</time>
      </trkpt>
      <trkpt lat="48.82015" lon="2.34748">
        <ele>99.62</ele>
        <time>2020-03-13T22:57:31.999Z</time>
      </trkpt>
      <trkpt lat="48.82012" lon="2.34741">
        <ele>99.67</ele>
        <time>2020-03-13T22:57:32.999Z</time>
      </trkpt>
      <trkpt lat="48.8201" lon="2.34734">
        <ele>99.7</ele>
        <time>2020-03-13T22:57:33.999Z</time>
      </trkpt>
      <trkpt lat="48.82008" lon="2.34726">
        <ele>99.72</ele>
        <time>2020-03-13T22:57:34.999Z</time>
      </trkpt>
      <trkpt lat="48.82006" lon="2.3472">
        <ele>99.74</ele>
        <time>2020-03-13T22:57:35.999Z</time>
      </trkpt>
      <trkpt lat="48.82004" lon="2.34713">
        <ele>99.75</ele>
        <time>2020-03-13T22:57:36.999Z</time>
      </trkpt>
      <trkpt lat="48.82003" lon="2.34706">
        <ele>99.78</ele>
        <time>2020-03-13T22:57:37.999Z</time>
      </trkpt>
      <trkpt lat="48.82001" lon="2.34698">
        <ele>99.81</ele>
        <time>2020-03-13T22:57:38.999Z</time>
      </trkpt>
      <trkpt lat="48.81999" lon="2.34692">
        <ele>99.86</ele>
        <time>2020-03-13T22:57:39.999Z</time>
      </trkpt>
      <trkpt lat="48.81997" lon="2.34685">
        <ele>99.89</ele>
        <time>2020-03-13T22:57:40.999Z</time>
      </trkpt>
      <trkpt lat="48.81996" lon="2.34678">
        <ele>99.96</ele>
        <time>2020-03-13T22:57:41.999Z</time>
      </trkpt>
      <trkpt lat="48.81994" lon="2.34671">
        <ele>100.04</ele>
        <time>2020-03-13T22:57:42.999Z</time>
      </trkpt>
      <trkpt lat="48.81991" lon="2.34664">
        <ele>100.13</ele>
        <time>2020-03-13T22:57:43.999Z</time>
      </trkpt>
      <trkpt lat="48.8199" lon="2.34657">
        <ele>100.24</ele>
        <time>2020-03-13T22:57:44.999Z</time>
      </trkpt>
      <trkpt lat="48.81988" lon="2.34651">
        <ele>100.35</ele>
        <time>2020-03-13T22:57:45.999Z</time>
      </trkpt>
      <trkpt lat="48.81986" lon="2.34644">
        <ele>100.44</ele>
        <time>2020-03-13T22:57:46.999Z</time>
      </trkpt>
      <trkpt lat="48.81985" lon="2.34638">
        <ele>100.52</ele>
        <time>2020-03-13T22:57:47.999Z</time>
      </trkpt>
      <trkpt lat="48.81984" lon="2.34631">
        <ele>100.59</ele>
        <time>2020-03-13T22:57:48.999Z</time>
      </trkpt>
      <trkpt lat="48.81982" lon="2.34624">
        <ele>100.66</ele>
        <time>2020-03-13T22:57:49.999Z</time>
      </trkpt>
      <trkpt lat="48.81981" lon="2.34617">
        <ele>100.73</ele>
        <time>2020-03-13T22:57:50.999Z</time>
      </trkpt>
      <trkpt lat="48.81979" lon="2.3461">
        <ele>100.79</ele>
        <time>2020-03-13T22:57:51.999Z</time>
      </trkpt>
      <trkpt lat="48.81977" lon="2.34603">
        <ele>100.84</ele>
        <time>2020-03-13T22:57:52.999Z</time>
      </trkpt>
      <trkpt lat="48.81975" lon="2.34596">
        <ele>100.89</ele>
        <time>2020-03-13T22:57:53.999Z</time>
      </trkpt>
      <trkpt lat="48.81973" lon="2.34589">
        <ele>100.93</ele>
        <time>2020-03-13T22:57:54.999Z</time>
      </trkpt>
      <trkpt lat="48.81971" lon="2.34582">
        <ele>100.96</ele>
        <time>2020-03-13T22:57:55.999Z</time>
      </trkpt>
      <trkpt lat="48.81969" lon="2.34575">
        <ele>100.99</ele>
        <time>2020-03-13T22:57:56.999Z</time>
      </trkpt>
      <trkpt lat="48.81967" lon="2.34569">
        <ele>101.03</ele>
        <time>2020-03-13T22:57:57.999Z</time>
      </trkpt>
      <trkpt lat="48.81965" lon="2.34562">
        <ele>101.08</ele>
        <time>2020-03-13T22:57:58.999Z</time>
      </trkpt>
      <trkpt lat="48.81963" lon="2.34556">
        <ele>101.12</ele>
        <time>2020-03-13T22:57:59.999Z</time>
      </trkpt>
      <trkpt lat="48.81962" lon="2.34549">
        <ele>101.17</ele>
        <time>2020-03-13T22:58:00.999Z</time>
      </trkpt>
      <trkpt lat="48.8196" lon="2.34543">
        <ele>101.21</ele>
        <time>2020-03-13T22:58:01.999Z</time>
      </trkpt>
      <trkpt lat="48.81958" lon="2.34538">
        <ele>101.24</ele>
        <time>2020-03-13T22:58:02.999Z</time>
      </trkpt>
      <trkpt lat="48.81956" lon="2.34532">
        <ele>101.24</ele>
        <time>2020-03-13T22:58:03.999Z</time>
      </trkpt>
      <trkpt lat="48.81955" lon="2.34526">
        <ele>101.24</ele>
        <time>2020-03-13T22:58:04.999Z</time>
      </trkpt>
      <trkpt lat="48.81954" lon="2.34521">
        <ele>101.29</ele>
        <time>2020-03-13T22:58:05.999Z</time>
      </trkpt>
      <trkpt lat="48.81953" lon="2.34515">
        <ele>101.29</ele>
        <time>2020-03-13T22:58:06.999Z</time>
      </trkpt>
      <trkpt lat="48.81952" lon="2.3451">
        <ele>101.3</ele>
        <time>2020-03-13T22:58:07.999Z</time>
      </trkpt>
      <trkpt lat="48.81952" lon="2.34505">
        <ele>101.3</ele>
        <time>2020-03-13T22:58:08.999Z</time>
      </trkpt>
      <trkpt lat="48.81951" lon="2.345">
        <ele>101.31</ele>
        <time>2020-03-13T22:58:09.999Z</time>
      </trkpt>
      <trkpt lat="48.81952" lon="2.34495">
        <ele>101.31</ele>
        <time>2020-03-13T22:58:10.999Z</time>
      </trkpt>
      <trkpt lat="48.81952" lon="2.3449">
        <ele>101.31</ele>
        <time>2020-03-13T22:58:11.999Z</time>
      </trkpt>
      <trkpt lat="48.81952" lon="2.34485">
        <ele>101.32</ele>
        <time>2020-03-13T22:58:12.999Z</time>
      </trkpt>
      <trkpt lat="48.81951" lon="2.34481">
        <ele>101.33</ele>
        <time>2020-03-13T22:58:13.999Z</time>
      </trkpt>
      <trkpt lat="48.81951" lon="2.34478">
        <ele>101.33</ele>
        <time>2020-03-13T22:58:14.999Z</time>
      </trkpt>
      <trkpt lat="48.8195" lon="2.34474">
        <ele>101.35</ele>
        <time>2020-03-13T22:58:15.999Z</time>
      </trkpt>
      <trkpt lat="48.81949" lon="2.34471">
        <ele>101.36</ele>
        <time>2020-03-13T22:58:16.999Z</time>
      </trkpt>
      <trkpt lat="48.8195" lon="2.34467">
        <ele>101.37</ele>
        <time>2020-03-13T22:58:17.999Z</time>
      </trkpt>
      <trkpt lat="48.8195" lon="2.34463">
        <ele>101.38</ele>
        <time>2020-03-13T22:58:18.999Z</time>
      </trkpt>
      <trkpt lat="48.8195" lon="2.34459">
        <ele>101.39</ele>
        <time>2020-03-13T22:58:19.999Z</time>
      </trkpt>
      <trkpt lat="48.8195" lon="2.34454">
        <ele>101.41</ele>
        <time>2020-03-13T22:58:20.999Z</time>
      </trkpt>
      <trkpt lat="48.8195" lon="2.34449">
        <ele>101.42</ele>
        <time>2020-03-13T22:58:21.999Z</time>
      </trkpt>
      <trkpt lat="48.81951" lon="2.34444">
        <ele>101.43</ele>
        <time>2020-03-13T22:58:22.999Z</time>
      </trkpt>
      <trkpt lat="48.81951" lon="2.34439">
        <ele>101.44</ele>
        <time>2020-03-13T22:58:23.999Z</time>
      </trkpt>
      <trkpt lat="48.81951" lon="2.34433">
        <ele>101.46</ele>
        <time>2020-03-13T22:58:24.999Z</time>
      </trkpt>
      <trkpt lat="48.81952" lon="2.34427">
        <ele>101.47</ele>
        <time>2020-03-13T22:58:25.999Z</time>
      </trkpt>
      <trkpt lat="48.81952" lon="2.34421">
        <ele>101.48</ele>
        <time>2020-03-13T22:58:26.999Z</time>
      </trkpt>
      <trkpt lat="48.81953" lon="2.34415">
        <ele>101.64</ele>
        <time>2020-03-13T22:58:27.999Z</time>
      </trkpt>
      <trkpt lat="48.81953" lon="2.34409">
        <ele>101.76</ele>
        <time>2020-03-13T22:58:28.999Z</time>
      </trkpt>
      <trkpt lat="48.81953" lon="2.34402">
        <ele>101.87</ele>
        <time>2020-03-13T22:58:29.999Z</time>
      </trkpt>
      <trkpt lat="48.81954" lon="2.34395">
        <ele>101.96</ele>
        <time>2020-03-13T22:58:30.999Z</time>
      </trkpt>
      <trkpt lat="48.81955" lon="2.34389">
        <ele>102.03</ele>
        <time>2020-03-13T22:58:31.999Z</time>
      </trkpt>
      <trkpt lat="48.81956" lon="2.34382">
        <ele>102.09</ele>
        <time>2020-03-13T22:58:32.999Z</time>
      </trkpt>
      <trkpt lat="48.81957" lon="2.34376">
        <ele>102.13</ele>
        <time>2020-03-13T22:58:33.999Z</time>
      </trkpt>
      <trkpt lat="48.81957" lon="2.3437">
        <ele>102.17</ele>
        <time>2020-03-13T22:58:34.999Z</time>
      </trkpt>
      <trkpt lat="48.81958" lon="2.34363">
        <ele>102.2</ele>
        <time>2020-03-13T22:58:35.999Z</time>
      </trkpt>
      <trkpt lat="48.81959" lon="2.34356">
        <ele>102.22</ele>
        <time>2020-03-13T22:58:36.999Z</time>
      </trkpt>
      <trkpt lat="48.8196" lon="2.34349">
        <ele>102.23</ele>
        <time>2020-03-13T22:58:37.999Z</time>
      </trkpt>
      <trkpt lat="48.81962" lon="2.34341">
        <ele>102.24</ele>
        <time>2020-03-13T22:58:38.999Z</time>
      </trkpt>
      <trkpt lat="48.81964" lon="2.34334">
        <ele>102.27</ele>
        <time>2020-03-13T22:58:39.999Z</time>
      </trkpt>
      <trkpt lat="48.81965" lon="2.34326">
        <ele>102.29</ele>
        <time>2020-03-13T22:58:40.999Z</time>
      </trkpt>
      <trkpt lat="48.81966" lon="2.34319">
        <ele>102.32</ele>
        <time>2020-03-13T22:58:41.999Z</time>
      </trkpt>
      <trkpt lat="48.81967" lon="2.34312">
        <ele>102.37</ele>
        <time>2020-03-13T22:58:42.999Z</time>
      </trkpt>
      <trkpt lat="48.81968" lon="2.34304">
        <ele>102.41</ele>
        <time>2020-03-13T22:58:43.999Z</time>
      </trkpt>
      <trkpt lat="48.81969" lon="2.34297">
        <ele>102.46</ele>
        <time>2020-03-13T22:58:44.999Z</time>
      </trkpt>
      <trkpt lat="48.81969" lon="2.3429">
        <ele>102.51</ele>
        <time>2020-03-13T22:58:45.999Z</time>
      </trkpt>
      <trkpt lat="48.8197" lon="2.34283">
        <ele>102.55</ele>
        <time>2020-03-13T22:58:46.999Z</time>
      </trkpt>
      <trkpt lat="48.81972" lon="2.34276">
        <ele>102.6</ele>
        <time>2020-03-13T22:58:47.999Z</time>
      </trkpt>
      <trkpt lat="48.81972" lon="2.34269">
        <ele>102.66</ele>
        <time>2020-03-13T22:58:48.999Z</time>
      </trkpt>
      <trkpt lat="48.81974" lon="2.34261">
        <ele>102.72</ele>
        <time>2020-03-13T22:58:49.999Z</time>
      </trkpt>
      <trkpt lat="48.81975" lon="2.34254">
        <ele>102.79</ele>
        <time>2020-03-13T22:58:50.999Z</time>
      </trkpt>
      <trkpt lat="48.81975" lon="2.34247">
        <ele>102.84</ele>
        <time>2020-03-13T22:58:51.999Z</time>
      </trkpt>
      <trkpt lat="48.81976" lon="2.3424">
        <ele>102.88</ele>
        <time>2020-03-13T22:58:52.999Z</time>
      </trkpt>
      <trkpt lat="48.81977" lon="2.34233">
        <ele>102.91</ele>
        <time>2020-03-13T22:58:53.999Z</time>
      </trkpt>
      <trkpt lat="48.81978" lon="2.34226">
        <ele>102.95</ele>
        <time>2020-03-13T22:58:54.999Z</time>
      </trkpt>
      <trkpt lat="48.81978" lon="2.34219">
        <ele>102.97</ele>
        <time>2020-03-13T22:58:55.999Z</time>
      </trkpt>
      <trkpt lat="48.81979" lon="2.34213">
        <ele>102.97</ele>
        <time>2020-03-13T22:58:56.999Z</time>
      </trkpt>
      <trkpt lat="48.81979" lon="2.34207">
        <ele>103.02</ele>
        <time>2020-03-13T22:58:57.999Z</time>
      </trkpt>
      <trkpt lat="48.8198" lon="2.34201">
        <ele>103.07</ele>
        <time>2020-03-13T22:58:58.999Z</time>
      </trkpt>
      <trkpt lat="48.8198" lon="2.34195">
        <ele>103.12</ele>
        <time>2020-03-13T22:58:59.999Z</time>
      </trkpt>
      <trkpt lat="48.8198" lon="2.34188">
        <ele>103.17</ele>
        <time>2020-03-13T22:59:00.999Z</time>
      </trkpt>
      <trkpt lat="48.81981" lon="2.34182">
        <ele>103.21</ele>
        <time>2020-03-13T22:59:01.999Z</time>
      </trkpt>
      <trkpt lat="48.81982" lon="2.34175">
        <ele>103.26</ele>
        <time>2020-03-13T22:59:02.999Z</time>
      </trkpt>
      <trkpt lat="48.81983" lon="2.34167">
        <ele>103.31</ele>
        <time>2020-03-13T22:59:03.999Z</time>
      </trkpt>
      <trkpt lat="48.81984" lon="2.3416">
        <ele>103.36</ele>
        <time>2020-03-13T22:59:04.999Z</time>
      </trkpt>
      <trkpt lat="48.81985" lon="2.34152">
        <ele>103.43</ele>
        <time>2020-03-13T22:59:05.999Z</time>
      </trkpt>
      <trkpt lat="48.81986" lon="2.34145">
        <ele>103.48</ele>
        <time>2020-03-13T22:59:06.999Z</time>
      </trkpt>
      <trkpt lat="48.81987" lon="2.34136">
        <ele>103.54</ele>
        <time>2020-03-13T22:59:07.999Z</time>
      </trkpt>
      <trkpt lat="48.81988" lon="2.34129">
        <ele>103.59</ele>
        <time>2020-03-13T22:59:08.999Z</time>
      </trkpt>
      <trkpt lat="48.81988" lon="2.34122">
        <ele>103.65</ele>
        <time>2020-03-13T22:59:09.999Z</time>
      </trkpt>
      <trkpt lat="48.8199" lon="2.34115">
        <ele>103.7</ele>
        <time>2020-03-13T22:59:10.999Z</time>
      </trkpt>
      <trkpt lat="48.8199" lon="2.34108">
        <ele>103.76</ele>
        <time>2020-03-13T22:59:11.999Z</time>
      </trkpt>
      <trkpt lat="48.81991" lon="2.341">
        <ele>103.8</ele>
        <time>2020-03-13T22:59:12.999Z</time>
      </trkpt>
      <trkpt lat="48.81992" lon="2.34094">
        <ele>103.85</ele>
        <time>2020-03-13T22:59:13.999Z</time>
      </trkpt>
      <trkpt lat="48.81993" lon="2.34088">
        <ele>103.89</ele>
        <time>2020-03-13T22:59:14.999Z</time>
      </trkpt>
      <trkpt lat="48.81994" lon="2.34081">
        <ele>103.94</ele>
        <time>2020-03-13T22:59:15.999Z</time>
      </trkpt>
      <trkpt lat="48.81995" lon="2.34074">
        <ele>103.99</ele>
        <time>2020-03-13T22:59:16.999Z</time>
      </trkpt>
      <trkpt lat="48.81997" lon="2.34068">
        <ele>104.04</ele>
        <time>2020-03-13T22:59:17.999Z</time>
      </trkpt>
      <trkpt lat="48.81998" lon="2.34062">
        <ele>104.09</ele>
        <time>2020-03-13T22:59:18.999Z</time>
      </trkpt>
      <trkpt lat="48.81999" lon="2.34055">
        <ele>104.14</ele>
        <time>2020-03-13T22:59:19.999Z</time>
      </trkpt>
      <trkpt lat="48.82001" lon="2.34049">
        <ele>104.14</ele>
        <time>2020-03-13T22:59:20.999Z</time>
      </trkpt>
      <trkpt lat="48.82002" lon="2.34044">
        <ele>104.2</ele>
        <time>2020-03-13T22:59:21.999Z</time>
      </trkpt>
      <trkpt lat="48.82004" lon="2.34039">
        <ele>104.2</ele>
        <time>2020-03-13T22:59:22.999Z</time>
      </trkpt>
      <trkpt lat="48.82005" lon="2.34033">
        <ele>104.21</ele>
        <time>2020-03-13T22:59:23.999Z</time>
      </trkpt>
      <trkpt lat="48.82006" lon="2.34028">
        <ele>104.21</ele>
        <time>2020-03-13T22:59:24.999Z</time>
      </trkpt>
      <trkpt lat="48.82008" lon="2.34022">
        <ele>104.22</ele>
        <time>2020-03-13T22:59:25.999Z</time>
      </trkpt>
      <trkpt lat="48.82009" lon="2.34017">
        <ele>104.23</ele>
        <time>2020-03-13T22:59:26.999Z</time>
      </trkpt>
      <trkpt lat="48.8201" lon="2.34011">
        <ele>104.24</ele>
        <time>2020-03-13T22:59:27.999Z</time>
      </trkpt>
      <trkpt lat="48.82012" lon="2.34006">
        <ele>104.24</ele>
        <time>2020-03-13T22:59:28.999Z</time>
      </trkpt>
      <trkpt lat="48.82013" lon="2.34">
        <ele>104.25</ele>
        <time>2020-03-13T22:59:29.999Z</time>
      </trkpt>
      <trkpt lat="48.82014" lon="2.33995">
        <ele>104.27</ele>
        <time>2020-03-13T22:59:30.999Z</time>
      </trkpt>
      <trkpt lat="48.82015" lon="2.3399">
        <ele>104.28</ele>
        <time>2020-03-13T22:59:31.999Z</time>
      </trkpt>
      <trkpt lat="48.82017" lon="2.33985">
        <ele>104.29</ele>
        <time>2020-03-13T22:59:32.999Z</time>
      </trkpt>
      <trkpt lat="48.82018" lon="2.33979">
        <ele>104.31</ele>
        <time>2020-03-13T22:59:33.999Z</time>
      </trkpt>
      <trkpt lat="48.82019" lon="2.33975">
        <ele>104.32</ele>
        <time>2020-03-13T22:59:34.999Z</time>
      </trkpt>
      <trkpt lat="48.8202" lon="2.3397">
        <ele>104.34</ele>
        <time>2020-03-13T22:59:35.999Z</time>
      </trkpt>
      <trkpt lat="48.82021" lon="2.33965">
        <ele>104.35</ele>
        <time>2020-03-13T22:59:36.999Z</time>
      </trkpt>
      <trkpt lat="48.82022" lon="2.3396">
        <ele>104.37</ele>
        <time>2020-03-13T22:59:37.999Z</time>
      </trkpt>
      <trkpt lat="48.82024" lon="2.33955">
        <ele>104.38</ele>
        <time>2020-03-13T22:59:38.999Z</time>
      </trkpt>
      <trkpt lat="48.82025" lon="2.3395">
        <ele>104.4</ele>
        <time>2020-03-13T22:59:39.999Z</time>
      </trkpt>
      <trkpt lat="48.82027" lon="2.33945">
        <ele>104.42</ele>
        <time>2020-03-13T22:59:40.999Z</time>
      </trkpt>
      <trkpt lat="48.82028" lon="2.33941">
        <ele>104.43</ele>
        <time>2020-03-13T22:59:41.999Z</time>
      </trkpt>
      <trkpt lat="48.8203" lon="2.33935">
        <ele>104.45</ele>
        <time>2020-03-13T22:59:42.999Z</time>
      </trkpt>
      <trkpt lat="48.82031" lon="2.33931">
        <ele>104.48</ele>
        <time>2020-03-13T22:59:43.999Z</time>
      </trkpt>
      <trkpt lat="48.82033" lon="2.33927">
        <ele>104.5</ele>
        <time>2020-03-13T22:59:44.999Z</time>
      </trkpt>
      <trkpt lat="48.82034" lon="2.33922">
        <ele>104.52</ele>
        <time>2020-03-13T22:59:45.999Z</time>
      </trkpt>
      <trkpt lat="48.82035" lon="2.33918">
        <ele>104.54</ele>
        <time>2020-03-13T22:59:46.999Z</time>
      </trkpt>
      <trkpt lat="48.82037" lon="2.33914">
        <ele>104.56</ele>
        <time>2020-03-13T22:59:47.999Z</time>
      </trkpt>
      <trkpt lat="48.82038" lon="2.3391">
        <ele>104.58</ele>
        <time>2020-03-13T22:59:48.999Z</time>
      </trkpt>
      <trkpt lat="48.82039" lon="2.33906">
        <ele>104.6</ele>
        <time>2020-03-13T22:59:49.999Z</time>
      </trkpt>
      <trkpt lat="48.8204" lon="2.33901">
        <ele>104.63</ele>
        <time>2020-03-13T22:59:50.999Z</time>
      </trkpt>
      <trkpt lat="48.82041" lon="2.33896">
        <ele>104.65</ele>
        <time>2020-03-13T22:59:51.999Z</time>
      </trkpt>
      <trkpt lat="48.82042" lon="2.33891">
        <ele>104.67</ele>
        <time>2020-03-13T22:59:52.999Z</time>
      </trkpt>
      <trkpt lat="48.82043" lon="2.33886">
        <ele>104.7</ele>
        <time>2020-03-13T22:59:53.999Z</time>
      </trkpt>
      <trkpt lat="48.82044" lon="2.33881">
        <ele>104.72</ele>
        <time>2020-03-13T22:59:54.999Z</time>
      </trkpt>
      <trkpt lat="48.82045" lon="2.33876">
        <ele>104.75</ele>
        <time>2020-03-13T22:59:55.999Z</time>
      </trkpt>
      <trkpt lat="48.82046" lon="2.33871">
        <ele>104.77</ele>
        <time>2020-03-13T22:59:56.999Z</time>
      </trkpt>
      <trkpt lat="48.82047" lon="2.33866">
        <ele>104.79</ele>
        <time>2020-03-13T22:59:57.999Z</time>
      </trkpt>
      <trkpt lat="48.82048" lon="2.3386">
        <ele>104.82</ele>
        <time>2020-03-13T22:59:58.999Z</time>
      </trkpt>
      <trkpt lat="48.82049" lon="2.33855">
        <ele>104.84</ele>
        <time>2020-03-13T22:59:59.999Z</time>
      </trkpt>
      <trkpt lat="48.8205" lon="2.33849">
        <ele>104.86</ele>
        <time>2020-03-13T23:00:00.999Z</time>
      </trkpt>
      <trkpt lat="48.82051" lon="2.33844">
        <ele>104.88</ele>
        <time>2020-03-13T23:00:01.999Z</time>
      </trkpt>
      <trkpt lat="48.82053" lon="2.33839">
        <ele>104.91</ele>
        <time>2020-03-13T23:00:02.999Z</time>
      </trkpt>
      <trkpt lat="48.82054" lon="2.33833">
        <ele>104.93</ele>
        <time>2020-03-13T23:00:03.999Z</time>
      </trkpt>
      <trkpt lat="48.82056" lon="2.33828">
        <ele>104.96</ele>
        <time>2020-03-13T23:00:04.999Z</time>
      </trkpt>
      <trkpt lat="48.82057" lon="2.33822">
        <ele>104.98</ele>
        <time>2020-03-13T23:00:05.999Z</time>
      </trkpt>
      <trkpt lat="48.82059" lon="2.33817">
        <ele>105.01</ele>
        <time>2020-03-13T23:00:06.999Z</time>
      </trkpt>
      <trkpt lat="48.82061" lon="2.33812">
        <ele>105.04</ele>
        <time>2020-03-13T23:00:07.999Z</time>
      </trkpt>
      <trkpt lat="48.82062" lon="2.33807">
        <ele>105.06</ele>
        <time>2020-03-13T23:00:08.999Z</time>
      </trkpt>
      <trkpt lat="48.82063" lon="2.33802">
        <ele>105.09</ele>
        <time>2020-03-13T23:00:09.999Z</time>
      </trkpt>
      <trkpt lat="48.82065" lon="2.33795">
        <ele>105.12</ele>
        <time>2020-03-13T23:00:10.999Z</time>
      </trkpt>
      <trkpt lat="48.82066" lon="2.3379">
        <ele>105.15</ele>
        <time>2020-03-13T23:00:11.999Z</time>
      </trkpt>
      <trkpt lat="48.82068" lon="2.33785">
        <ele>105.18</ele>
        <time>2020-03-13T23:00:12.999Z</time>
      </trkpt>
      <trkpt lat="48.82068" lon="2.3378">
        <ele>105.21</ele>
        <time>2020-03-13T23:00:13.999Z</time>
      </trkpt>
      <trkpt lat="48.8207" lon="2.33774">
        <ele>105.24</ele>
        <time>2020-03-13T23:00:14.999Z</time>
      </trkpt>
      <trkpt lat="48.82071" lon="2.33769">
        <ele>105.27</ele>
        <time>2020-03-13T23:00:15.999Z</time>
      </trkpt>
      <trkpt lat="48.82072" lon="2.33764">
        <ele>105.29</ele>
        <time>2020-03-13T23:00:16.999Z</time>
      </trkpt>
      <trkpt lat="48.82073" lon="2.33758">
        <ele>105.32</ele>
        <time>2020-03-13T23:00:17.999Z</time>
      </trkpt>
      <trkpt lat="48.82073" lon="2.33753">
        <ele>105.35</ele>
        <time>2020-03-13T23:00:18.999Z</time>
      </trkpt>
      <trkpt lat="48.82074" lon="2.33746">
        <ele>105.38</ele>
        <time>2020-03-13T23:00:19.999Z</time>
      </trkpt>
      <trkpt lat="48.82076" lon="2.3374">
        <ele>105.41</ele>
        <time>2020-03-13T23:00:20.999Z</time>
      </trkpt>
      <trkpt lat="48.82076" lon="2.33734">
        <ele>105.44</ele>
        <time>2020-03-13T23:00:21.999Z</time>
      </trkpt>
      <trkpt lat="48.82077" lon="2.33728">
        <ele>105.47</ele>
        <time>2020-03-13T23:00:22.999Z</time>
      </trkpt>
      <trkpt lat="48.82078" lon="2.33723">
        <ele>105.5</ele>
        <time>2020-03-13T23:00:23.999Z</time>
      </trkpt>
      <trkpt lat="48.82078" lon="2.33719">
        <ele>105.53</ele>
        <time>2020-03-13T23:00:24.999Z</time>
      </trkpt>
      <trkpt lat="48.82079" lon="2.33714">
        <ele>105.56</ele>
        <time>2020-03-13T23:00:25.999Z</time>
      </trkpt>
      <trkpt lat="48.8208" lon="2.3371">
        <ele>105.6</ele>
        <time>2020-03-13T23:00:26.999Z</time>
      </trkpt>
      <trkpt lat="48.8208" lon="2.33705">
        <ele>105.63</ele>
        <time>2020-03-13T23:00:27.999Z</time>
      </trkpt>
      <trkpt lat="48.82081" lon="2.337">
        <ele>105.66</ele>
        <time>2020-03-13T23:00:28.999Z</time>
      </trkpt>
      <trkpt lat="48.82081" lon="2.33695">
        <ele>105.7</ele>
        <time>2020-03-13T23:00:29.999Z</time>
      </trkpt>
      <trkpt lat="48.82082" lon="2.3369">
        <ele>105.74</ele>
        <time>2020-03-13T23:00:30.999Z</time>
      </trkpt>
      <trkpt lat="48.82082" lon="2.33686">
        <ele>105.77</ele>
        <time>2020-03-13T23:00:31.999Z</time>
      </trkpt>
      <trkpt lat="48.82083" lon="2.33681">
        <ele>105.81</ele>
        <time>2020-03-13T23:00:32.999Z</time>
      </trkpt>
      <trkpt lat="48.82084" lon="2.33677">
        <ele>105.85</ele>
        <time>2020-03-13T23:00:33.999Z</time>
      </trkpt>
      <trkpt lat="48.82084" lon="2.33672">
        <ele>105.89</ele>
        <time>2020-03-13T23:00:34.999Z</time>
      </trkpt>
      <trkpt lat="48.82085" lon="2.33668">
        <ele>105.93</ele>
        <time>2020-03-13T23:00:35.999Z</time>
      </trkpt>
      <trkpt lat="48.82087" lon="2.33663">
        <ele>105.97</ele>
        <time>2020-03-13T23:00:36.999Z</time>
      </trkpt>
      <trkpt lat="48.82088" lon="2.33659">
        <ele>106.01</ele>
        <time>2020-03-13T23:00:37.999Z</time>
      </trkpt>
      <trkpt lat="48.8209" lon="2.33654">
        <ele>106.04</ele>
        <time>2020-03-13T23:00:38.999Z</time>
      </trkpt>
      <trkpt lat="48.82091" lon="2.33649">
        <ele>106.08</ele>
        <time>2020-03-13T23:00:39.999Z</time>
      </trkpt>
      <trkpt lat="48.82093" lon="2.33643">
        <ele>106.12</ele>
        <time>2020-03-13T23:00:40.999Z</time>
      </trkpt>
      <trkpt lat="48.82094" lon="2.33637">
        <ele>106.49</ele>
        <time>2020-03-13T23:00:41.999Z</time>
      </trkpt>
      <trkpt lat="48.82096" lon="2.3363">
        <ele>106.81</ele>
        <time>2020-03-13T23:00:42.999Z</time>
      </trkpt>
      <trkpt lat="48.82097" lon="2.33624">
        <ele>107.06</ele>
        <time>2020-03-13T23:00:43.999Z</time>
      </trkpt>
      <trkpt lat="48.82098" lon="2.33617">
        <ele>107.27</ele>
        <time>2020-03-13T23:00:44.999Z</time>
      </trkpt>
      <trkpt lat="48.821" lon="2.33611">
        <ele>107.29</ele>
        <time>2020-03-13T23:00:45.999Z</time>
      </trkpt>
      <trkpt lat="48.82101" lon="2.33606">
        <ele>107.5</ele>
        <time>2020-03-13T23:00:46.999Z</time>
      </trkpt>
      <trkpt lat="48.82103" lon="2.33599">
        <ele>107.67</ele>
        <time>2020-03-13T23:00:47.999Z</time>
      </trkpt>
      <trkpt lat="48.82104" lon="2.33592">
        <ele>107.8</ele>
        <time>2020-03-13T23:00:48.999Z</time>
      </trkpt>
      <trkpt lat="48.82105" lon="2.33586">
        <ele>107.93</ele>
        <time>2020-03-13T23:00:49.999Z</time>
      </trkpt>
      <trkpt lat="48.82106" lon="2.33579">
        <ele>108.04</ele>
        <time>2020-03-13T23:00:50.999Z</time>
      </trkpt>
      <trkpt lat="48.82108" lon="2.33571">
        <ele>108.14</ele>
        <time>2020-03-13T23:00:51.999Z</time>
      </trkpt>
      <trkpt lat="48.8211" lon="2.33564">
        <ele>108.24</ele>
        <time>2020-03-13T23:00:52.999Z</time>
      </trkpt>
      <trkpt lat="48.82112" lon="2.33557">
        <ele>108.37</ele>
        <time>2020-03-13T23:00:53.999Z</time>
      </trkpt>
      <trkpt lat="48.82113" lon="2.3355">
        <ele>108.5</ele>
        <time>2020-03-13T23:00:54.999Z</time>
      </trkpt>
      <trkpt lat="48.82115" lon="2.33543">
        <ele>108.65</ele>
        <time>2020-03-13T23:00:55.999Z</time>
      </trkpt>
      <trkpt lat="48.82116" lon="2.33536">
        <ele>108.79</ele>
        <time>2020-03-13T23:00:56.999Z</time>
      </trkpt>
      <trkpt lat="48.82117" lon="2.33528">
        <ele>108.91</ele>
        <time>2020-03-13T23:00:57.999Z</time>
      </trkpt>
      <trkpt lat="48.82118" lon="2.33522">
        <ele>109.02</ele>
        <time>2020-03-13T23:00:58.999Z</time>
      </trkpt>
      <trkpt lat="48.82121" lon="2.33515">
        <ele>109.12</ele>
        <time>2020-03-13T23:00:59.999Z</time>
      </trkpt>
      <trkpt lat="48.82122" lon="2.33508">
        <ele>109.21</ele>
        <time>2020-03-13T23:01:00.999Z</time>
      </trkpt>
      <trkpt lat="48.82123" lon="2.33502">
        <ele>109.22</ele>
        <time>2020-03-13T23:01:01.999Z</time>
      </trkpt>
      <trkpt lat="48.82125" lon="2.33497">
        <ele>109.23</ele>
        <time>2020-03-13T23:01:02.999Z</time>
      </trkpt>
      <trkpt lat="48.82125" lon="2.33494">
        <ele>109.25</ele>
        <time>2020-03-13T23:01:03.999Z</time>
      </trkpt>
      <trkpt lat="48.82126" lon="2.33489">
        <ele>109.26</ele>
        <time>2020-03-13T23:01:04.999Z</time>
      </trkpt>
      <trkpt lat="48.82127" lon="2.33486">
        <ele>109.28</ele>
        <time>2020-03-13T23:01:05.999Z</time>
      </trkpt>
      <trkpt lat="48.82127" lon="2.33483">
        <ele>109.3</ele>
        <time>2020-03-13T23:01:06.999Z</time>
      </trkpt>
      <trkpt lat="48.82128" lon="2.33479">
        <ele>109.33</ele>
        <time>2020-03-13T23:01:07.999Z</time>
      </trkpt>
      <trkpt lat="48.82128" lon="2.33477">
        <ele>109.36</ele>
        <time>2020-03-13T23:01:08.999Z</time>
      </trkpt>
      <trkpt lat="48.82129" lon="2.33475">
        <ele>109.38</ele>
        <time>2020-03-13T23:01:09.999Z</time>
      </trkpt>
      <trkpt lat="48.8213" lon="2.33472">
        <ele>109.41</ele>
        <time>2020-03-13T23:01:10.999Z</time>
      </trkpt>
      <trkpt lat="48.82131" lon="2.33469">
        <ele>109.44</ele>
        <time>2020-03-13T23:01:11.999Z</time>
      </trkpt>
      <trkpt lat="48.82133" lon="2.33465">
        <ele>109.48</ele>
        <time>2020-03-13T23:01:12.999Z</time>
      </trkpt>
      <trkpt lat="48.82134" lon="2.33463">
        <ele>109.51</ele>
        <time>2020-03-13T23:01:13.999Z</time>
      </trkpt>
      <trkpt lat="48.82136" lon="2.3346">
        <ele>109.55</ele>
        <time>2020-03-13T23:01:14.999Z</time>
      </trkpt>
      <trkpt lat="48.82136" lon="2.33456">
        <ele>109.66</ele>
        <time>2020-03-13T23:01:17.999Z</time>
      </trkpt>
      <trkpt lat="48.82137" lon="2.33454">
        <ele>109.71</ele>
        <time>2020-03-13T23:01:18.999Z</time>
      </trkpt>
      <trkpt lat="48.82135" lon="2.33451">
        <ele>109.75</ele>
        <time>2020-03-13T23:01:19.999Z</time>
      </trkpt>
      <trkpt lat="48.82135" lon="2.33448">
        <ele>109.85</ele>
        <time>2020-03-13T23:01:21.999Z</time>
      </trkpt>
      <trkpt lat="48.82135" lon="2.33447">
        <ele>109.95</ele>
        <time>2020-03-13T23:01:24.999Z</time>
      </trkpt>
      <trkpt lat="48.82136" lon="2.33446">
        <ele>110.33</ele>
        <time>2020-03-13T23:01:35.999Z</time>
      </trkpt>
      <trkpt lat="48.82136" lon="2.33445">
        <ele>110.53</ele>
        <time>2020-03-13T23:01:46.999Z</time>
      </trkpt>
      <trkpt lat="48.82136" lon="2.33443">
        <ele>110.54</ele>
        <time>2020-03-13T23:01:47.999Z</time>
      </trkpt>
      <trkpt lat="48.82136" lon="2.33445">
        <ele>110.95</ele>
        <time>2020-03-13T23:02:24.999Z</time>
      </trkpt>
      <trkpt lat="48.82137" lon="2.33443">
        <ele>111.36</ele>
        <time>2020-03-13T23:02:37.999Z</time>
      </trkpt>
      <trkpt lat="48.82138" lon="2.33441">
        <ele>111.44</ele>
        <time>2020-03-13T23:02:38.999Z</time>
      </trkpt>
      <trkpt lat="48.82138" lon="2.33439">
        <ele>111.52</ele>
        <time>2020-03-13T23:02:39.999Z</time>
      </trkpt>
      <trkpt lat="48.82139" lon="2.33438">
        <ele>111.6</ele>
        <time>2020-03-13T23:02:40.999Z</time>
      </trkpt>
      <trkpt lat="48.8214" lon="2.33435">
        <ele>111.76</ele>
        <time>2020-03-13T23:02:42.999Z</time>
      </trkpt>
      <trkpt lat="48.82141" lon="2.33432">
        <ele>111.84</ele>
        <time>2020-03-13T23:02:43.999Z</time>
      </trkpt>
      <trkpt lat="48.82142" lon="2.33431">
        <ele>111.99</ele>
        <time>2020-03-13T23:02:45.999Z</time>
      </trkpt>
      <trkpt lat="48.82142" lon="2.33429">
        <ele>112.07</ele>
        <time>2020-03-13T23:02:46.999Z</time>
      </trkpt>
      <trkpt lat="48.82143" lon="2.33427">
        <ele>112.22</ele>
        <time>2020-03-13T23:02:48.999Z</time>
      </trkpt>
      <trkpt lat="48.82144" lon="2.33425">
        <ele>112.29</ele>
        <time>2020-03-13T23:02:49.999Z</time>
      </trkpt>
      <trkpt lat="48.82144" lon="2.33422">
        <ele>112.37</ele>
        <time>2020-03-13T23:02:50.999Z</time>
      </trkpt>
      <trkpt lat="48.82145" lon="2.33423">
        <ele>112.58</ele>
        <time>2020-03-13T23:02:53.999Z</time>
      </trkpt>
      <trkpt lat="48.82144" lon="2.33424">
        <ele>112.75</ele>
        <time>2020-03-13T23:03:00.999Z</time>
      </trkpt>
      <trkpt lat="48.82145" lon="2.33427">
        <ele>112.88</ele>
        <time>2020-03-13T23:03:04.999Z</time>
      </trkpt>
      <trkpt lat="48.82145" lon="2.33425">
        <ele>112.89</ele>
        <time>2020-03-13T23:03:05.999Z</time>
      </trkpt>
      <trkpt lat="48.82145" lon="2.33424">
        <ele>112.93</ele>
        <time>2020-03-13T23:03:12.999Z</time>
      </trkpt>
      <trkpt lat="48.82145" lon="2.33422">
        <ele>113.01</ele>
        <time>2020-03-13T23:03:23.999Z</time>
      </trkpt>
      <trkpt lat="48.82144" lon="2.33421">
        <ele>113.11</ele>
        <time>2020-03-13T23:03:34.999Z</time>
      </trkpt>
      <trkpt lat="48.82144" lon="2.33419">
        <ele>113.17</ele>
        <time>2020-03-13T23:03:41.999Z</time>
      </trkpt>
      <trkpt lat="48.82144" lon="2.33418">
        <ele>113.55</ele>
        <time>2020-03-13T23:03:54.999Z</time>
      </trkpt>
      <trkpt lat="48.82145" lon="2.33415">
        <ele>113.73</ele>
        <time>2020-03-13T23:03:56.999Z</time>
      </trkpt>
      <trkpt lat="48.82145" lon="2.33412">
        <ele>113.82</ele>
        <time>2020-03-13T23:03:57.999Z</time>
      </trkpt>
      <trkpt lat="48.82146" lon="2.3341">
        <ele>113.91</ele>
        <time>2020-03-13T23:03:58.999Z</time>
      </trkpt>
      <trkpt lat="48.82146" lon="2.33408">
        <ele>114</ele>
        <time>2020-03-13T23:03:59.999Z</time>
      </trkpt>
      <trkpt lat="48.82147" lon="2.33406">
        <ele>114.09</ele>
        <time>2020-03-13T23:04:00.999Z</time>
      </trkpt>
      <trkpt lat="48.82147" lon="2.33404">
        <ele>114.17</ele>
        <time>2020-03-13T23:04:01.999Z</time>
      </trkpt>
      <trkpt lat="48.82148" lon="2.33402">
        <ele>114.26</ele>
        <time>2020-03-13T23:04:02.999Z</time>
      </trkpt>
      <trkpt lat="48.8215" lon="2.33398">
        <ele>114.34</ele>
        <time>2020-03-13T23:04:03.999Z</time>
      </trkpt>
      <trkpt lat="48.82151" lon="2.33392">
        <ele>114.42</ele>
        <time>2020-03-13T23:04:04.999Z</time>
      </trkpt>
      <trkpt lat="48.82154" lon="2.33388">
        <ele>114.5</ele>
        <time>2020-03-13T23:04:05.999Z</time>
      </trkpt>
      <trkpt lat="48.82156" lon="2.33383">
        <ele>114.57</ele>
        <time>2020-03-13T23:04:06.999Z</time>
      </trkpt>
      <trkpt lat="48.82157" lon="2.3338">
        <ele>114.65</ele>
        <time>2020-03-13T23:04:07.999Z</time>
      </trkpt>
      <trkpt lat="48.82158" lon="2.33376">
        <ele>114.72</ele>
        <time>2020-03-13T23:04:08.999Z</time>
      </trkpt>
      <trkpt lat="48.82159" lon="2.33371">
        <ele>114.8</ele>
        <time>2020-03-13T23:04:09.999Z</time>
      </trkpt>
      <trkpt lat="48.82161" lon="2.33365">
        <ele>114.87</ele>
        <time>2020-03-13T23:04:10.999Z</time>
      </trkpt>
      <trkpt lat="48.82163" lon="2.33359">
        <ele>114.94</ele>
        <time>2020-03-13T23:04:11.999Z</time>
      </trkpt>
      <trkpt lat="48.82165" lon="2.33352">
        <ele>115.01</ele>
        <time>2020-03-13T23:04:12.999Z</time>
      </trkpt>
      <trkpt lat="48.82167" lon="2.33347">
        <ele>115.08</ele>
        <time>2020-03-13T23:04:13.999Z</time>
      </trkpt>
      <trkpt lat="48.82168" lon="2.33341">
        <ele>115.15</ele>
        <time>2020-03-13T23:04:14.999Z</time>
      </trkpt>
      <trkpt lat="48.8217" lon="2.33337">
        <ele>115.21</ele>
        <time>2020-03-13T23:04:15.999Z</time>
      </trkpt>
      <trkpt lat="48.82171" lon="2.33331">
        <ele>115.28</ele>
        <time>2020-03-13T23:04:16.999Z</time>
      </trkpt>
      <trkpt lat="48.82173" lon="2.33324">
        <ele>115.34</ele>
        <time>2020-03-13T23:04:17.999Z</time>
      </trkpt>
      <trkpt lat="48.82175" lon="2.33318">
        <ele>115.41</ele>
        <time>2020-03-13T23:04:18.999Z</time>
      </trkpt>
      <trkpt lat="48.82176" lon="2.33313">
        <ele>115.47</ele>
        <time>2020-03-13T23:04:19.999Z</time>
      </trkpt>
      <trkpt lat="48.82177" lon="2.33307">
        <ele>115.53</ele>
        <time>2020-03-13T23:04:20.999Z</time>
      </trkpt>
      <trkpt lat="48.82178" lon="2.33301">
        <ele>116.14</ele>
        <time>2020-03-13T23:04:21.999Z</time>
      </trkpt>
      <trkpt lat="48.82179" lon="2.33294">
        <ele>116.63</ele>
        <time>2020-03-13T23:04:22.999Z</time>
      </trkpt>
      <trkpt lat="48.8218" lon="2.33288">
        <ele>117.03</ele>
        <time>2020-03-13T23:04:23.999Z</time>
      </trkpt>
      <trkpt lat="48.82181" lon="2.3328">
        <ele>117.34</ele>
        <time>2020-03-13T23:04:24.999Z</time>
      </trkpt>
      <trkpt lat="48.82182" lon="2.33273">
        <ele>117.61</ele>
        <time>2020-03-13T23:04:25.999Z</time>
      </trkpt>
      <trkpt lat="48.82184" lon="2.33266">
        <ele>117.82</ele>
        <time>2020-03-13T23:04:26.999Z</time>
      </trkpt>
      <trkpt lat="48.82185" lon="2.33259">
        <ele>118</ele>
        <time>2020-03-13T23:04:27.999Z</time>
      </trkpt>
      <trkpt lat="48.82187" lon="2.33252">
        <ele>118.13</ele>
        <time>2020-03-13T23:04:28.999Z</time>
      </trkpt>
      <trkpt lat="48.82189" lon="2.33245">
        <ele>118.23</ele>
        <time>2020-03-13T23:04:29.999Z</time>
      </trkpt>
      <trkpt lat="48.82192" lon="2.33237">
        <ele>118.31</ele>
        <time>2020-03-13T23:04:30.999Z</time>
      </trkpt>
      <trkpt lat="48.82194" lon="2.33229">
        <ele>118.38</ele>
        <time>2020-03-13T23:04:31.999Z</time>
      </trkpt>
      <trkpt lat="48.82196" lon="2.33221">
        <ele>118.43</ele>
        <time>2020-03-13T23:04:32.999Z</time>
      </trkpt>
      <trkpt lat="48.82199" lon="2.33213">
        <ele>118.48</ele>
        <time>2020-03-13T23:04:33.999Z</time>
      </trkpt>
      <trkpt lat="48.82201" lon="2.33204">
        <ele>118.52</ele>
        <time>2020-03-13T23:04:34.999Z</time>
      </trkpt>
      <trkpt lat="48.82202" lon="2.33196">
        <ele>118.55</ele>
        <time>2020-03-13T23:04:35.999Z</time>
      </trkpt>
      <trkpt lat="48.82204" lon="2.33187">
        <ele>118.57</ele>
        <time>2020-03-13T23:04:36.999Z</time>
      </trkpt>
      <trkpt lat="48.82205" lon="2.33176">
        <ele>118.58</ele>
        <time>2020-03-13T23:04:37.999Z</time>
      </trkpt>
      <trkpt lat="48.82207" lon="2.33167">
        <ele>118.57</ele>
        <time>2020-03-13T23:04:38.999Z</time>
      </trkpt>
      <trkpt lat="48.82208" lon="2.33159">
        <ele>118.57</ele>
        <time>2020-03-13T23:04:39.999Z</time>
      </trkpt>
      <trkpt lat="48.8221" lon="2.33151">
        <ele>118.57</ele>
        <time>2020-03-13T23:04:40.999Z</time>
      </trkpt>
      <trkpt lat="48.82212" lon="2.33142">
        <ele>118.57</ele>
        <time>2020-03-13T23:04:41.999Z</time>
      </trkpt>
      <trkpt lat="48.82214" lon="2.33136">
        <ele>118.58</ele>
        <time>2020-03-13T23:04:42.999Z</time>
      </trkpt>
      <trkpt lat="48.82216" lon="2.33129">
        <ele>118.59</ele>
        <time>2020-03-13T23:04:43.999Z</time>
      </trkpt>
      <trkpt lat="48.82217" lon="2.3312">
        <ele>118.6</ele>
        <time>2020-03-13T23:04:44.999Z</time>
      </trkpt>
      <trkpt lat="48.82217" lon="2.3311">
        <ele>118.59</ele>
        <time>2020-03-13T23:04:45.999Z</time>
      </trkpt>
      <trkpt lat="48.82218" lon="2.33102">
        <ele>118.59</ele>
        <time>2020-03-13T23:04:46.999Z</time>
      </trkpt>
      <trkpt lat="48.8222" lon="2.33095">
        <ele>118.58</ele>
        <time>2020-03-13T23:04:47.999Z</time>
      </trkpt>
      <trkpt lat="48.8222" lon="2.3309">
        <ele>118.57</ele>
        <time>2020-03-13T23:04:48.999Z</time>
      </trkpt>
      <trkpt lat="48.82222" lon="2.33085">
        <ele>118.56</ele>
        <time>2020-03-13T23:04:49.999Z</time>
      </trkpt>
      <trkpt lat="48.82222" lon="2.3308">
        <ele>118.56</ele>
        <time>2020-03-13T23:04:50.999Z</time>
      </trkpt>
      <trkpt lat="48.82224" lon="2.33073">
        <ele>118.56</ele>
        <time>2020-03-13T23:04:51.999Z</time>
      </trkpt>
      <trkpt lat="48.82226" lon="2.33066">
        <ele>118.56</ele>
        <time>2020-03-13T23:04:52.999Z</time>
      </trkpt>
      <trkpt lat="48.82227" lon="2.33059">
        <ele>118.55</ele>
        <time>2020-03-13T23:04:53.999Z</time>
      </trkpt>
      <trkpt lat="48.82228" lon="2.33053">
        <ele>118.55</ele>
        <time>2020-03-13T23:04:54.999Z</time>
      </trkpt>
      <trkpt lat="48.8223" lon="2.33046">
        <ele>118.54</ele>
        <time>2020-03-13T23:04:55.999Z</time>
      </trkpt>
      <trkpt lat="48.82232" lon="2.33038">
        <ele>118.54</ele>
        <time>2020-03-13T23:04:56.999Z</time>
      </trkpt>
      <trkpt lat="48.82233" lon="2.3303">
        <ele>118.53</ele>
        <time>2020-03-13T23:04:57.999Z</time>
      </trkpt>
      <trkpt lat="48.82234" lon="2.33023">
        <ele>118.53</ele>
        <time>2020-03-13T23:04:58.999Z</time>
      </trkpt>
      <trkpt lat="48.82235" lon="2.33016">
        <ele>118.53</ele>
        <time>2020-03-13T23:04:59.999Z</time>
      </trkpt>
      <trkpt lat="48.82237" lon="2.33009">
        <ele>118.54</ele>
        <time>2020-03-13T23:05:00.999Z</time>
      </trkpt>
      <trkpt lat="48.82239" lon="2.33002">
        <ele>118.54</ele>
        <time>2020-03-13T23:05:01.999Z</time>
      </trkpt>
      <trkpt lat="48.8224" lon="2.32994">
        <ele>118.54</ele>
        <time>2020-03-13T23:05:02.999Z</time>
      </trkpt>
      <trkpt lat="48.82241" lon="2.32988">
        <ele>118.54</ele>
        <time>2020-03-13T23:05:03.999Z</time>
      </trkpt>
      <trkpt lat="48.82244" lon="2.32981">
        <ele>118.54</ele>
        <time>2020-03-13T23:05:04.999Z</time>
      </trkpt>
      <trkpt lat="48.82246" lon="2.32973">
        <ele>118.54</ele>
        <time>2020-03-13T23:05:05.999Z</time>
      </trkpt>
      <trkpt lat="48.82247" lon="2.32965">
        <ele>118.54</ele>
        <time>2020-03-13T23:05:06.999Z</time>
      </trkpt>
      <trkpt lat="48.82249" lon="2.32956">
        <ele>118.54</ele>
        <time>2020-03-13T23:05:07.999Z</time>
      </trkpt>
      <trkpt lat="48.8225" lon="2.32948">
        <ele>118.54</ele>
        <time>2020-03-13T23:05:08.999Z</time>
      </trkpt>
      <trkpt lat="48.82252" lon="2.32939">
        <ele>118.55</ele>
        <time>2020-03-13T23:05:09.999Z</time>
      </trkpt>
      <trkpt lat="48.82253" lon="2.3293">
        <ele>118.55</ele>
        <time>2020-03-13T23:05:10.999Z</time>
      </trkpt>
      <trkpt lat="48.82255" lon="2.32921">
        <ele>118.56</ele>
        <time>2020-03-13T23:05:11.999Z</time>
      </trkpt>
      <trkpt lat="48.82257" lon="2.32913">
        <ele>118.56</ele>
        <time>2020-03-13T23:05:12.999Z</time>
      </trkpt>
      <trkpt lat="48.82258" lon="2.32906">
        <ele>118.56</ele>
        <time>2020-03-13T23:05:13.999Z</time>
      </trkpt>
      <trkpt lat="48.8226" lon="2.32898">
        <ele>118.56</ele>
        <time>2020-03-13T23:05:14.999Z</time>
      </trkpt>
      <trkpt lat="48.82262" lon="2.3289">
        <ele>118.56</ele>
        <time>2020-03-13T23:05:15.999Z</time>
      </trkpt>
      <trkpt lat="48.82264" lon="2.32881">
        <ele>118.56</ele>
        <time>2020-03-13T23:05:16.999Z</time>
      </trkpt>
      <trkpt lat="48.82266" lon="2.32873">
        <ele>118.57</ele>
        <time>2020-03-13T23:05:17.999Z</time>
      </trkpt>
      <trkpt lat="48.82268" lon="2.32864">
        <ele>118.58</ele>
        <time>2020-03-13T23:05:18.999Z</time>
      </trkpt>
      <trkpt lat="48.8227" lon="2.32856">
        <ele>118.58</ele>
        <time>2020-03-13T23:05:19.999Z</time>
      </trkpt>
      <trkpt lat="48.82272" lon="2.32847">
        <ele>118.59</ele>
        <time>2020-03-13T23:05:20.999Z</time>
      </trkpt>
      <trkpt lat="48.82274" lon="2.32838">
        <ele>118.6</ele>
        <time>2020-03-13T23:05:21.999Z</time>
      </trkpt>
      <trkpt lat="48.82276" lon="2.32829">
        <ele>118.6</ele>
        <time>2020-03-13T23:05:22.999Z</time>
      </trkpt>
      <trkpt lat="48.82278" lon="2.32821">
        <ele>118.61</ele>
        <time>2020-03-13T23:05:23.999Z</time>
      </trkpt>
      <trkpt lat="48.8228" lon="2.32813">
        <ele>118.62</ele>
        <time>2020-03-13T23:05:24.999Z</time>
      </trkpt>
      <trkpt lat="48.82281" lon="2.32802">
        <ele>118.62</ele>
        <time>2020-03-13T23:05:25.999Z</time>
      </trkpt>
      <trkpt lat="48.82282" lon="2.32794">
        <ele>118.63</ele>
        <time>2020-03-13T23:05:26.999Z</time>
      </trkpt>
      <trkpt lat="48.82284" lon="2.32783">
        <ele>118.63</ele>
        <time>2020-03-13T23:05:27.999Z</time>
      </trkpt>
      <trkpt lat="48.82286" lon="2.32773">
        <ele>118.62</ele>
        <time>2020-03-13T23:05:28.999Z</time>
      </trkpt>
      <trkpt lat="48.82287" lon="2.32763">
        <ele>118.62</ele>
        <time>2020-03-13T23:05:29.999Z</time>
      </trkpt>
      <trkpt lat="48.82289" lon="2.32754">
        <ele>118.62</ele>
        <time>2020-03-13T23:05:30.999Z</time>
      </trkpt>
      <trkpt lat="48.8229" lon="2.32746">
        <ele>118.62</ele>
        <time>2020-03-13T23:05:31.999Z</time>
      </trkpt>
      <trkpt lat="48.82292" lon="2.32737">
        <ele>118.62</ele>
        <time>2020-03-13T23:05:32.999Z</time>
      </trkpt>
      <trkpt lat="48.82293" lon="2.32729">
        <ele>118.62</ele>
        <time>2020-03-13T23:05:33.999Z</time>
      </trkpt>
      <trkpt lat="48.82295" lon="2.3272">
        <ele>118.62</ele>
        <time>2020-03-13T23:05:34.999Z</time>
      </trkpt>
      <trkpt lat="48.82296" lon="2.3271">
        <ele>118.61</ele>
        <time>2020-03-13T23:05:35.999Z</time>
      </trkpt>
      <trkpt lat="48.82297" lon="2.327">
        <ele>118.59</ele>
        <time>2020-03-13T23:05:36.999Z</time>
      </trkpt>
      <trkpt lat="48.82298" lon="2.32691">
        <ele>118.58</ele>
        <time>2020-03-13T23:05:37.999Z</time>
      </trkpt>
      <trkpt lat="48.823" lon="2.32682">
        <ele>118.57</ele>
        <time>2020-03-13T23:05:38.999Z</time>
      </trkpt>
      <trkpt lat="48.82302" lon="2.32674">
        <ele>118.56</ele>
        <time>2020-03-13T23:05:39.999Z</time>
      </trkpt>
      <trkpt lat="48.82304" lon="2.32665">
        <ele>118.55</ele>
        <time>2020-03-13T23:05:40.999Z</time>
      </trkpt>
      <trkpt lat="48.82305" lon="2.32657">
        <ele>118.54</ele>
        <time>2020-03-13T23:05:41.999Z</time>
      </trkpt>
      <trkpt lat="48.82306" lon="2.32649">
        <ele>118.53</ele>
        <time>2020-03-13T23:05:42.999Z</time>
      </trkpt>
      <trkpt lat="48.82308" lon="2.32642">
        <ele>118.52</ele>
        <time>2020-03-13T23:05:43.999Z</time>
      </trkpt>
      <trkpt lat="48.8231" lon="2.32636">
        <ele>118.51</ele>
        <time>2020-03-13T23:05:44.999Z</time>
      </trkpt>
      <trkpt lat="48.82311" lon="2.32628">
        <ele>118.51</ele>
        <time>2020-03-13T23:05:45.999Z</time>
      </trkpt>
      <trkpt lat="48.82313" lon="2.32621">
        <ele>118.51</ele>
        <time>2020-03-13T23:05:46.999Z</time>
      </trkpt>
      <trkpt lat="48.82314" lon="2.32613">
        <ele>118.51</ele>
        <time>2020-03-13T23:05:47.999Z</time>
      </trkpt>
      <trkpt lat="48.82315" lon="2.32605">
        <ele>118.51</ele>
        <time>2020-03-13T23:05:48.999Z</time>
      </trkpt>
      <trkpt lat="48.82316" lon="2.32598">
        <ele>118.51</ele>
        <time>2020-03-13T23:05:49.999Z</time>
      </trkpt>
      <trkpt lat="48.82317" lon="2.32592">
        <ele>118.51</ele>
        <time>2020-03-13T23:05:50.999Z</time>
      </trkpt>
      <trkpt lat="48.82318" lon="2.32588">
        <ele>118.51</ele>
        <time>2020-03-13T23:05:51.999Z</time>
      </trkpt>
      <trkpt lat="48.82319" lon="2.32584">
        <ele>118.52</ele>
        <time>2020-03-13T23:05:52.999Z</time>
      </trkpt>
      <trkpt lat="48.8232" lon="2.32579">
        <ele>118.52</ele>
        <time>2020-03-13T23:05:53.999Z</time>
      </trkpt>
      <trkpt lat="48.82322" lon="2.32575">
        <ele>118.52</ele>
        <time>2020-03-13T23:05:54.999Z</time>
      </trkpt>
      <trkpt lat="48.82324" lon="2.32571">
        <ele>118.53</ele>
        <time>2020-03-13T23:05:55.999Z</time>
      </trkpt>
      <trkpt lat="48.82325" lon="2.32567">
        <ele>118.53</ele>
        <time>2020-03-13T23:05:56.999Z</time>
      </trkpt>
      <trkpt lat="48.82327" lon="2.32562">
        <ele>118.53</ele>
        <time>2020-03-13T23:05:57.999Z</time>
      </trkpt>
      <trkpt lat="48.82329" lon="2.32557">
        <ele>118.56</ele>
        <time>2020-03-13T23:05:58.999Z</time>
      </trkpt>
      <trkpt lat="48.8233" lon="2.32552">
        <ele>118.59</ele>
        <time>2020-03-13T23:05:59.999Z</time>
      </trkpt>
      <trkpt lat="48.82331" lon="2.32546">
        <ele>118.64</ele>
        <time>2020-03-13T23:06:00.999Z</time>
      </trkpt>
      <trkpt lat="48.82333" lon="2.3254">
        <ele>118.71</ele>
        <time>2020-03-13T23:06:01.999Z</time>
      </trkpt>
      <trkpt lat="48.82334" lon="2.32534">
        <ele>118.79</ele>
        <time>2020-03-13T23:06:02.999Z</time>
      </trkpt>
      <trkpt lat="48.82336" lon="2.3253">
        <ele>118.89</ele>
        <time>2020-03-13T23:06:03.999Z</time>
      </trkpt>
      <trkpt lat="48.82337" lon="2.32524">
        <ele>118.97</ele>
        <time>2020-03-13T23:06:04.999Z</time>
      </trkpt>
      <trkpt lat="48.82339" lon="2.32518">
        <ele>119.03</ele>
        <time>2020-03-13T23:06:05.999Z</time>
      </trkpt>
      <trkpt lat="48.8234" lon="2.32512">
        <ele>119.07</ele>
        <time>2020-03-13T23:06:06.999Z</time>
      </trkpt>
      <trkpt lat="48.82341" lon="2.32506">
        <ele>119.1</ele>
        <time>2020-03-13T23:06:07.999Z</time>
      </trkpt>
      <trkpt lat="48.82343" lon="2.325">
        <ele>119.13</ele>
        <time>2020-03-13T23:06:08.999Z</time>
      </trkpt>
      <trkpt lat="48.82345" lon="2.32494">
        <ele>119.14</ele>
        <time>2020-03-13T23:06:09.999Z</time>
      </trkpt>
      <trkpt lat="48.82346" lon="2.32488">
        <ele>119.14</ele>
        <time>2020-03-13T23:06:10.999Z</time>
      </trkpt>
      <trkpt lat="48.82348" lon="2.32482">
        <ele>119.14</ele>
        <time>2020-03-13T23:06:11.999Z</time>
      </trkpt>
      <trkpt lat="48.8235" lon="2.32476">
        <ele>119.14</ele>
        <time>2020-03-13T23:06:12.999Z</time>
      </trkpt>
      <trkpt lat="48.82352" lon="2.3247">
        <ele>119.14</ele>
        <time>2020-03-13T23:06:13.999Z</time>
      </trkpt>
      <trkpt lat="48.82354" lon="2.32462">
        <ele>119.14</ele>
        <time>2020-03-13T23:06:14.999Z</time>
      </trkpt>
      <trkpt lat="48.82356" lon="2.32454">
        <ele>119.13</ele>
        <time>2020-03-13T23:06:15.999Z</time>
      </trkpt>
      <trkpt lat="48.82358" lon="2.32447">
        <ele>119.12</ele>
        <time>2020-03-13T23:06:16.999Z</time>
      </trkpt>
      <trkpt lat="48.8236" lon="2.32441">
        <ele>119.11</ele>
        <time>2020-03-13T23:06:17.999Z</time>
      </trkpt>
      <trkpt lat="48.82363" lon="2.32434">
        <ele>119.1</ele>
        <time>2020-03-13T23:06:18.999Z</time>
      </trkpt>
      <trkpt lat="48.82366" lon="2.32427">
        <ele>119.1</ele>
        <time>2020-03-13T23:06:19.999Z</time>
      </trkpt>
      <trkpt lat="48.82368" lon="2.32421">
        <ele>119.09</ele>
        <time>2020-03-13T23:06:20.999Z</time>
      </trkpt>
      <trkpt lat="48.8237" lon="2.32413">
        <ele>119.09</ele>
        <time>2020-03-13T23:06:21.999Z</time>
      </trkpt>
      <trkpt lat="48.82371" lon="2.32406">
        <ele>119.08</ele>
        <time>2020-03-13T23:06:22.999Z</time>
      </trkpt>
      <trkpt lat="48.82373" lon="2.32398">
        <ele>119.09</ele>
        <time>2020-03-13T23:06:23.999Z</time>
      </trkpt>
      <trkpt lat="48.82375" lon="2.32391">
        <ele>119.1</ele>
        <time>2020-03-13T23:06:24.999Z</time>
      </trkpt>
      <trkpt lat="48.82378" lon="2.32384">
        <ele>119.11</ele>
        <time>2020-03-13T23:06:25.999Z</time>
      </trkpt>
      <trkpt lat="48.82379" lon="2.32377">
        <ele>119.12</ele>
        <time>2020-03-13T23:06:26.999Z</time>
      </trkpt>
      <trkpt lat="48.82381" lon="2.3237">
        <ele>119.13</ele>
        <time>2020-03-13T23:06:27.999Z</time>
      </trkpt>
      <trkpt lat="48.82382" lon="2.32363">
        <ele>119.13</ele>
        <time>2020-03-13T23:06:28.999Z</time>
      </trkpt>
      <trkpt lat="48.82384" lon="2.32357">
        <ele>119.13</ele>
        <time>2020-03-13T23:06:29.999Z</time>
      </trkpt>
      <trkpt lat="48.82386" lon="2.3235">
        <ele>119.13</ele>
        <time>2020-03-13T23:06:30.999Z</time>
      </trkpt>
      <trkpt lat="48.82387" lon="2.32344">
        <ele>119.12</ele>
        <time>2020-03-13T23:06:31.999Z</time>
      </trkpt>
      <trkpt lat="48.82389" lon="2.32337">
        <ele>119.11</ele>
        <time>2020-03-13T23:06:32.999Z</time>
      </trkpt>
      <trkpt lat="48.82391" lon="2.3233">
        <ele>119.09</ele>
        <time>2020-03-13T23:06:33.999Z</time>
      </trkpt>
      <trkpt lat="48.82392" lon="2.32323">
        <ele>119.08</ele>
        <time>2020-03-13T23:06:34.999Z</time>
      </trkpt>
      <trkpt lat="48.82393" lon="2.32316">
        <ele>119.06</ele>
        <time>2020-03-13T23:06:35.999Z</time>
      </trkpt>
      <trkpt lat="48.82395" lon="2.32309">
        <ele>119.05</ele>
        <time>2020-03-13T23:06:36.999Z</time>
      </trkpt>
      <trkpt lat="48.82396" lon="2.32302">
        <ele>119.03</ele>
        <time>2020-03-13T23:06:37.999Z</time>
      </trkpt>
      <trkpt lat="48.82398" lon="2.32295">
        <ele>119.01</ele>
        <time>2020-03-13T23:06:38.999Z</time>
      </trkpt>
      <trkpt lat="48.82399" lon="2.32287">
        <ele>119</ele>
        <time>2020-03-13T23:06:39.999Z</time>
      </trkpt>
      <trkpt lat="48.824" lon="2.3228">
        <ele>118.98</ele>
        <time>2020-03-13T23:06:40.999Z</time>
      </trkpt>
      <trkpt lat="48.82402" lon="2.32272">
        <ele>118.96</ele>
        <time>2020-03-13T23:06:41.999Z</time>
      </trkpt>
      <trkpt lat="48.82403" lon="2.32265">
        <ele>118.94</ele>
        <time>2020-03-13T23:06:42.999Z</time>
      </trkpt>
      <trkpt lat="48.82405" lon="2.32259">
        <ele>118.93</ele>
        <time>2020-03-13T23:06:43.999Z</time>
      </trkpt>
      <trkpt lat="48.82406" lon="2.32251">
        <ele>118.91</ele>
        <time>2020-03-13T23:06:44.999Z</time>
      </trkpt>
      <trkpt lat="48.82409" lon="2.32243">
        <ele>118.91</ele>
        <time>2020-03-13T23:06:45.999Z</time>
      </trkpt>
      <trkpt lat="48.82411" lon="2.32236">
        <ele>118.9</ele>
        <time>2020-03-13T23:06:46.999Z</time>
      </trkpt>
      <trkpt lat="48.82412" lon="2.32226">
        <ele>118.89</ele>
        <time>2020-03-13T23:06:47.999Z</time>
      </trkpt>
      <trkpt lat="48.82413" lon="2.32219">
        <ele>118.88</ele>
        <time>2020-03-13T23:06:48.999Z</time>
      </trkpt>
      <trkpt lat="48.82415" lon="2.32211">
        <ele>118.87</ele>
        <time>2020-03-13T23:06:49.999Z</time>
      </trkpt>
      <trkpt lat="48.82416" lon="2.32203">
        <ele>118.85</ele>
        <time>2020-03-13T23:06:50.999Z</time>
      </trkpt>
      <trkpt lat="48.82418" lon="2.32195">
        <ele>118.84</ele>
        <time>2020-03-13T23:06:51.999Z</time>
      </trkpt>
      <trkpt lat="48.82419" lon="2.32188">
        <ele>118.81</ele>
        <time>2020-03-13T23:06:52.999Z</time>
      </trkpt>
      <trkpt lat="48.82421" lon="2.3218">
        <ele>118.79</ele>
        <time>2020-03-13T23:06:53.999Z</time>
      </trkpt>
      <trkpt lat="48.82423" lon="2.32172">
        <ele>118.76</ele>
        <time>2020-03-13T23:06:54.999Z</time>
      </trkpt>
      <trkpt lat="48.82425" lon="2.32165">
        <ele>118.74</ele>
        <time>2020-03-13T23:06:55.999Z</time>
      </trkpt>
      <trkpt lat="48.82427" lon="2.32158">
        <ele>118.71</ele>
        <time>2020-03-13T23:06:56.999Z</time>
      </trkpt>
      <trkpt lat="48.82429" lon="2.3215">
        <ele>118.69</ele>
        <time>2020-03-13T23:06:57.999Z</time>
      </trkpt>
      <trkpt lat="48.82431" lon="2.32142">
        <ele>118.67</ele>
        <time>2020-03-13T23:06:58.999Z</time>
      </trkpt>
      <trkpt lat="48.82432" lon="2.32134">
        <ele>118.65</ele>
        <time>2020-03-13T23:06:59.999Z</time>
      </trkpt>
      <trkpt lat="48.82435" lon="2.32125">
        <ele>118.64</ele>
        <time>2020-03-13T23:07:00.999Z</time>
      </trkpt>
      <trkpt lat="48.82436" lon="2.32117">
        <ele>118.63</ele>
        <time>2020-03-13T23:07:01.999Z</time>
      </trkpt>
      <trkpt lat="48.82439" lon="2.32108">
        <ele>118.61</ele>
        <time>2020-03-13T23:07:02.999Z</time>
      </trkpt>
      <trkpt lat="48.82441" lon="2.32099">
        <ele>118.59</ele>
        <time>2020-03-13T23:07:03.999Z</time>
      </trkpt>
      <trkpt lat="48.82442" lon="2.32091">
        <ele>118.56</ele>
        <time>2020-03-13T23:07:04.999Z</time>
      </trkpt>
      <trkpt lat="48.82444" lon="2.32082">
        <ele>118.54</ele>
        <time>2020-03-13T23:07:05.999Z</time>
      </trkpt>
      <trkpt lat="48.82445" lon="2.32075">
        <ele>118.52</ele>
        <time>2020-03-13T23:07:06.999Z</time>
      </trkpt>
      <trkpt lat="48.82445" lon="2.32066">
        <ele>118.49</ele>
        <time>2020-03-13T23:07:07.999Z</time>
      </trkpt>
      <trkpt lat="48.82447" lon="2.32058">
        <ele>118.46</ele>
        <time>2020-03-13T23:07:08.999Z</time>
      </trkpt>
      <trkpt lat="48.82448" lon="2.32051">
        <ele>118.44</ele>
        <time>2020-03-13T23:07:09.999Z</time>
      </trkpt>
      <trkpt lat="48.82449" lon="2.32043">
        <ele>118.41</ele>
        <time>2020-03-13T23:07:10.999Z</time>
      </trkpt>
      <trkpt lat="48.82451" lon="2.32036">
        <ele>118.39</ele>
        <time>2020-03-13T23:07:11.999Z</time>
      </trkpt>
      <trkpt lat="48.82453" lon="2.32029">
        <ele>118.38</ele>
        <time>2020-03-13T23:07:12.999Z</time>
      </trkpt>
      <trkpt lat="48.82455" lon="2.32021">
        <ele>118.36</ele>
        <time>2020-03-13T23:07:13.999Z</time>
      </trkpt>
      <trkpt lat="48.82456" lon="2.32014">
        <ele>118.34</ele>
        <time>2020-03-13T23:07:14.999Z</time>
      </trkpt>
      <trkpt lat="48.82458" lon="2.32006">
        <ele>118.32</ele>
        <time>2020-03-13T23:07:15.999Z</time>
      </trkpt>
      <trkpt lat="48.8246" lon="2.31999">
        <ele>118.3</ele>
        <time>2020-03-13T23:07:16.999Z</time>
      </trkpt>
      <trkpt lat="48.82461" lon="2.31991">
        <ele>118.28</ele>
        <time>2020-03-13T23:07:17.999Z</time>
      </trkpt>
      <trkpt lat="48.82463" lon="2.31983">
        <ele>118.25</ele>
        <time>2020-03-13T23:07:18.999Z</time>
      </trkpt>
      <trkpt lat="48.82465" lon="2.31976">
        <ele>118.23</ele>
        <time>2020-03-13T23:07:19.999Z</time>
      </trkpt>
      <trkpt lat="48.82467" lon="2.31969">
        <ele>118.2</ele>
        <time>2020-03-13T23:07:20.999Z</time>
      </trkpt>
      <trkpt lat="48.82469" lon="2.3196">
        <ele>118.17</ele>
        <time>2020-03-13T23:07:21.999Z</time>
      </trkpt>
      <trkpt lat="48.82471" lon="2.31953">
        <ele>118.15</ele>
        <time>2020-03-13T23:07:22.999Z</time>
      </trkpt>
      <trkpt lat="48.82472" lon="2.31945">
        <ele>118.13</ele>
        <time>2020-03-13T23:07:23.999Z</time>
      </trkpt>
      <trkpt lat="48.82474" lon="2.31937">
        <ele>118.12</ele>
        <time>2020-03-13T23:07:24.999Z</time>
      </trkpt>
      <trkpt lat="48.82476" lon="2.3193">
        <ele>118.11</ele>
        <time>2020-03-13T23:07:25.999Z</time>
      </trkpt>
      <trkpt lat="48.82477" lon="2.31923">
        <ele>118.1</ele>
        <time>2020-03-13T23:07:26.999Z</time>
      </trkpt>
      <trkpt lat="48.82479" lon="2.31916">
        <ele>118.09</ele>
        <time>2020-03-13T23:07:27.999Z</time>
      </trkpt>
      <trkpt lat="48.82481" lon="2.31909">
        <ele>118.08</ele>
        <time>2020-03-13T23:07:28.999Z</time>
      </trkpt>
      <trkpt lat="48.82482" lon="2.31902">
        <ele>118.07</ele>
        <time>2020-03-13T23:07:29.999Z</time>
      </trkpt>
      <trkpt lat="48.82484" lon="2.31895">
        <ele>118.05</ele>
        <time>2020-03-13T23:07:30.999Z</time>
      </trkpt>
      <trkpt lat="48.82485" lon="2.31887">
        <ele>118.04</ele>
        <time>2020-03-13T23:07:31.999Z</time>
      </trkpt>
      <trkpt lat="48.82487" lon="2.31881">
        <ele>118.04</ele>
        <time>2020-03-13T23:07:32.999Z</time>
      </trkpt>
      <trkpt lat="48.82488" lon="2.31873">
        <ele>118.04</ele>
        <time>2020-03-13T23:07:33.999Z</time>
      </trkpt>
      <trkpt lat="48.82489" lon="2.31867">
        <ele>118.04</ele>
        <time>2020-03-13T23:07:34.999Z</time>
      </trkpt>
      <trkpt lat="48.8249" lon="2.31862">
        <ele>118.04</ele>
        <time>2020-03-13T23:07:35.999Z</time>
      </trkpt>
      <trkpt lat="48.82492" lon="2.31857">
        <ele>118.03</ele>
        <time>2020-03-13T23:07:36.999Z</time>
      </trkpt>
      <trkpt lat="48.82493" lon="2.31851">
        <ele>118.02</ele>
        <time>2020-03-13T23:07:37.999Z</time>
      </trkpt>
      <trkpt lat="48.82494" lon="2.31845">
        <ele>118</ele>
        <time>2020-03-13T23:07:38.999Z</time>
      </trkpt>
      <trkpt lat="48.82495" lon="2.31839">
        <ele>117.98</ele>
        <time>2020-03-13T23:07:39.999Z</time>
      </trkpt>
      <trkpt lat="48.82497" lon="2.31833">
        <ele>117.96</ele>
        <time>2020-03-13T23:07:40.999Z</time>
      </trkpt>
      <trkpt lat="48.82498" lon="2.31826">
        <ele>117.95</ele>
        <time>2020-03-13T23:07:41.999Z</time>
      </trkpt>
      <trkpt lat="48.82499" lon="2.31819">
        <ele>117.93</ele>
        <time>2020-03-13T23:07:42.999Z</time>
      </trkpt>
      <trkpt lat="48.825" lon="2.31814">
        <ele>117.91</ele>
        <time>2020-03-13T23:07:43.999Z</time>
      </trkpt>
      <trkpt lat="48.82502" lon="2.31807">
        <ele>117.89</ele>
        <time>2020-03-13T23:07:44.999Z</time>
      </trkpt>
      <trkpt lat="48.82503" lon="2.318">
        <ele>117.87</ele>
        <time>2020-03-13T23:07:45.999Z</time>
      </trkpt>
      <trkpt lat="48.82504" lon="2.31793">
        <ele>117.84</ele>
        <time>2020-03-13T23:07:46.999Z</time>
      </trkpt>
      <trkpt lat="48.82506" lon="2.31787">
        <ele>117.82</ele>
        <time>2020-03-13T23:07:47.999Z</time>
      </trkpt>
      <trkpt lat="48.82507" lon="2.3178">
        <ele>117.79</ele>
        <time>2020-03-13T23:07:48.999Z</time>
      </trkpt>
      <trkpt lat="48.82509" lon="2.31773">
        <ele>117.77</ele>
        <time>2020-03-13T23:07:49.999Z</time>
      </trkpt>
      <trkpt lat="48.82511" lon="2.31766">
        <ele>117.75</ele>
        <time>2020-03-13T23:07:50.999Z</time>
      </trkpt>
      <trkpt lat="48.82513" lon="2.31758">
        <ele>117.72</ele>
        <time>2020-03-13T23:07:51.999Z</time>
      </trkpt>
      <trkpt lat="48.82515" lon="2.31751">
        <ele>117.7</ele>
        <time>2020-03-13T23:07:52.999Z</time>
      </trkpt>
      <trkpt lat="48.82517" lon="2.31743">
        <ele>117.68</ele>
        <time>2020-03-13T23:07:53.999Z</time>
      </trkpt>
      <trkpt lat="48.82519" lon="2.31735">
        <ele>117.67</ele>
        <time>2020-03-13T23:07:54.999Z</time>
      </trkpt>
      <trkpt lat="48.82521" lon="2.31727">
        <ele>117.65</ele>
        <time>2020-03-13T23:07:55.999Z</time>
      </trkpt>
      <trkpt lat="48.82523" lon="2.3172">
        <ele>117.64</ele>
        <time>2020-03-13T23:07:56.999Z</time>
      </trkpt>
      <trkpt lat="48.82525" lon="2.31712">
        <ele>117.62</ele>
        <time>2020-03-13T23:07:57.999Z</time>
      </trkpt>
      <trkpt lat="48.82527" lon="2.31705">
        <ele>117.6</ele>
        <time>2020-03-13T23:07:58.999Z</time>
      </trkpt>
      <trkpt lat="48.82529" lon="2.31698">
        <ele>117.58</ele>
        <time>2020-03-13T23:07:59.999Z</time>
      </trkpt>
      <trkpt lat="48.82531" lon="2.31691">
        <ele>117.56</ele>
        <time>2020-03-13T23:08:00.999Z</time>
      </trkpt>
      <trkpt lat="48.82532" lon="2.31683">
        <ele>117.53</ele>
        <time>2020-03-13T23:08:01.999Z</time>
      </trkpt>
      <trkpt lat="48.82534" lon="2.31676">
        <ele>117.49</ele>
        <time>2020-03-13T23:08:02.999Z</time>
      </trkpt>
      <trkpt lat="48.82536" lon="2.31669">
        <ele>117.46</ele>
        <time>2020-03-13T23:08:03.999Z</time>
      </trkpt>
      <trkpt lat="48.82537" lon="2.31662">
        <ele>117.44</ele>
        <time>2020-03-13T23:08:04.999Z</time>
      </trkpt>
      <trkpt lat="48.82538" lon="2.31653">
        <ele>117.4</ele>
        <time>2020-03-13T23:08:05.999Z</time>
      </trkpt>
      <trkpt lat="48.82538" lon="2.31642">
        <ele>117.36</ele>
        <time>2020-03-13T23:08:06.999Z</time>
      </trkpt>
      <trkpt lat="48.8254" lon="2.31633">
        <ele>117.32</ele>
        <time>2020-03-13T23:08:07.999Z</time>
      </trkpt>
      <trkpt lat="48.82541" lon="2.31625">
        <ele>117.28</ele>
        <time>2020-03-13T23:08:08.999Z</time>
      </trkpt>
      <trkpt lat="48.82543" lon="2.31617">
        <ele>117.24</ele>
        <time>2020-03-13T23:08:09.999Z</time>
      </trkpt>
      <trkpt lat="48.82545" lon="2.31609">
        <ele>117.21</ele>
        <time>2020-03-13T23:08:10.999Z</time>
      </trkpt>
      <trkpt lat="48.82547" lon="2.31601">
        <ele>117.18</ele>
        <time>2020-03-13T23:08:11.999Z</time>
      </trkpt>
      <trkpt lat="48.82549" lon="2.31592">
        <ele>117.15</ele>
        <time>2020-03-13T23:08:12.999Z</time>
      </trkpt>
      <trkpt lat="48.82551" lon="2.31584">
        <ele>117.12</ele>
        <time>2020-03-13T23:08:13.999Z</time>
      </trkpt>
      <trkpt lat="48.82552" lon="2.31576">
        <ele>117.1</ele>
        <time>2020-03-13T23:08:14.999Z</time>
      </trkpt>
      <trkpt lat="48.82554" lon="2.31567">
        <ele>117.08</ele>
        <time>2020-03-13T23:08:15.999Z</time>
      </trkpt>
      <trkpt lat="48.82555" lon="2.31558">
        <ele>117.07</ele>
        <time>2020-03-13T23:08:16.999Z</time>
      </trkpt>
      <trkpt lat="48.82558" lon="2.3155">
        <ele>117.06</ele>
        <time>2020-03-13T23:08:17.999Z</time>
      </trkpt>
      <trkpt lat="48.82559" lon="2.31541">
        <ele>117.04</ele>
        <time>2020-03-13T23:08:18.999Z</time>
      </trkpt>
      <trkpt lat="48.82561" lon="2.31532">
        <ele>117.03</ele>
        <time>2020-03-13T23:08:19.999Z</time>
      </trkpt>
      <trkpt lat="48.82564" lon="2.31523">
        <ele>117.02</ele>
        <time>2020-03-13T23:08:20.999Z</time>
      </trkpt>
      <trkpt lat="48.82566" lon="2.31514">
        <ele>117</ele>
        <time>2020-03-13T23:08:21.999Z</time>
      </trkpt>
      <trkpt lat="48.82568" lon="2.31505">
        <ele>116.98</ele>
        <time>2020-03-13T23:08:22.999Z</time>
      </trkpt>
      <trkpt lat="48.82571" lon="2.31496">
        <ele>116.95</ele>
        <time>2020-03-13T23:08:23.999Z</time>
      </trkpt>
      <trkpt lat="48.82573" lon="2.31487">
        <ele>116.92</ele>
        <time>2020-03-13T23:08:24.999Z</time>
      </trkpt>
      <trkpt lat="48.82574" lon="2.31478">
        <ele>116.89</ele>
        <time>2020-03-13T23:08:25.999Z</time>
      </trkpt>
      <trkpt lat="48.82576" lon="2.3147">
        <ele>116.87</ele>
        <time>2020-03-13T23:08:26.999Z</time>
      </trkpt>
      <trkpt lat="48.82578" lon="2.31463">
        <ele>116.84</ele>
        <time>2020-03-13T23:08:27.999Z</time>
      </trkpt>
      <trkpt lat="48.8258" lon="2.31455">
        <ele>116.82</ele>
        <time>2020-03-13T23:08:28.999Z</time>
      </trkpt>
      <trkpt lat="48.82582" lon="2.31446">
        <ele>116.79</ele>
        <time>2020-03-13T23:08:29.999Z</time>
      </trkpt>
      <trkpt lat="48.82584" lon="2.31438">
        <ele>116.77</ele>
        <time>2020-03-13T23:08:30.999Z</time>
      </trkpt>
      <trkpt lat="48.82586" lon="2.31429">
        <ele>116.75</ele>
        <time>2020-03-13T23:08:31.999Z</time>
      </trkpt>
      <trkpt lat="48.82588" lon="2.31421">
        <ele>116.72</ele>
        <time>2020-03-13T23:08:32.999Z</time>
      </trkpt>
      <trkpt lat="48.82591" lon="2.31412">
        <ele>116.69</ele>
        <time>2020-03-13T23:08:33.999Z</time>
      </trkpt>
      <trkpt lat="48.82593" lon="2.31404">
        <ele>116.66</ele>
        <time>2020-03-13T23:08:34.999Z</time>
      </trkpt>
      <trkpt lat="48.82596" lon="2.31396">
        <ele>116.64</ele>
        <time>2020-03-13T23:08:35.999Z</time>
      </trkpt>
      <trkpt lat="48.82597" lon="2.31388">
        <ele>116.62</ele>
        <time>2020-03-13T23:08:36.999Z</time>
      </trkpt>
      <trkpt lat="48.82599" lon="2.31379">
        <ele>116.59</ele>
        <time>2020-03-13T23:08:37.999Z</time>
      </trkpt>
      <trkpt lat="48.826" lon="2.31371">
        <ele>116.56</ele>
        <time>2020-03-13T23:08:38.999Z</time>
      </trkpt>
      <trkpt lat="48.82602" lon="2.31362">
        <ele>116.53</ele>
        <time>2020-03-13T23:08:39.999Z</time>
      </trkpt>
      <trkpt lat="48.82604" lon="2.31353">
        <ele>116.5</ele>
        <time>2020-03-13T23:08:40.999Z</time>
      </trkpt>
      <trkpt lat="48.82606" lon="2.31344">
        <ele>116.47</ele>
        <time>2020-03-13T23:08:41.999Z</time>
      </trkpt>
      <trkpt lat="48.82608" lon="2.31335">
        <ele>116.44</ele>
        <time>2020-03-13T23:08:42.999Z</time>
      </trkpt>
      <trkpt lat="48.8261" lon="2.31326">
        <ele>116.41</ele>
        <time>2020-03-13T23:08:43.999Z</time>
      </trkpt>
      <trkpt lat="48.82612" lon="2.31318">
        <ele>116.39</ele>
        <time>2020-03-13T23:08:44.999Z</time>
      </trkpt>
      <trkpt lat="48.82613" lon="2.31311">
        <ele>116.37</ele>
        <time>2020-03-13T23:08:45.999Z</time>
      </trkpt>
      <trkpt lat="48.82615" lon="2.31303">
        <ele>116.35</ele>
        <time>2020-03-13T23:08:46.999Z</time>
      </trkpt>
      <trkpt lat="48.82617" lon="2.31295">
        <ele>116.33</ele>
        <time>2020-03-13T23:08:47.999Z</time>
      </trkpt>
      <trkpt lat="48.82618" lon="2.31287">
        <ele>116.31</ele>
        <time>2020-03-13T23:08:48.999Z</time>
      </trkpt>
      <trkpt lat="48.82619" lon="2.31279">
        <ele>116.29</ele>
        <time>2020-03-13T23:08:49.999Z</time>
      </trkpt>
      <trkpt lat="48.8262" lon="2.31271">
        <ele>116.28</ele>
        <time>2020-03-13T23:08:50.999Z</time>
      </trkpt>
      <trkpt lat="48.82622" lon="2.31263">
        <ele>116.26</ele>
        <time>2020-03-13T23:08:51.999Z</time>
      </trkpt>
      <trkpt lat="48.82623" lon="2.31255">
        <ele>116.25</ele>
        <time>2020-03-13T23:08:52.999Z</time>
      </trkpt>
      <trkpt lat="48.82625" lon="2.31248">
        <ele>116.24</ele>
        <time>2020-03-13T23:08:53.999Z</time>
      </trkpt>
      <trkpt lat="48.82626" lon="2.3124">
        <ele>116.23</ele>
        <time>2020-03-13T23:08:54.999Z</time>
      </trkpt>
      <trkpt lat="48.82627" lon="2.31232">
        <ele>116.22</ele>
        <time>2020-03-13T23:08:55.999Z</time>
      </trkpt>
      <trkpt lat="48.82629" lon="2.31223">
        <ele>116.22</ele>
        <time>2020-03-13T23:08:56.999Z</time>
      </trkpt>
      <trkpt lat="48.82631" lon="2.31216">
        <ele>116.22</ele>
        <time>2020-03-13T23:08:57.999Z</time>
      </trkpt>
      <trkpt lat="48.82633" lon="2.31208">
        <ele>116.21</ele>
        <time>2020-03-13T23:08:58.999Z</time>
      </trkpt>
      <trkpt lat="48.82635" lon="2.31199">
        <ele>116.21</ele>
        <time>2020-03-13T23:08:59.999Z</time>
      </trkpt>
      <trkpt lat="48.82636" lon="2.31192">
        <ele>116.2</ele>
        <time>2020-03-13T23:09:00.999Z</time>
      </trkpt>
      <trkpt lat="48.82638" lon="2.31184">
        <ele>116.19</ele>
        <time>2020-03-13T23:09:01.999Z</time>
      </trkpt>
      <trkpt lat="48.8264" lon="2.31176">
        <ele>116.17</ele>
        <time>2020-03-13T23:09:02.999Z</time>
      </trkpt>
      <trkpt lat="48.82642" lon="2.31169">
        <ele>116.15</ele>
        <time>2020-03-13T23:09:03.999Z</time>
      </trkpt>
      <trkpt lat="48.82644" lon="2.31162">
        <ele>116.14</ele>
        <time>2020-03-13T23:09:04.999Z</time>
      </trkpt>
      <trkpt lat="48.82646" lon="2.31154">
        <ele>116.13</ele>
        <time>2020-03-13T23:09:05.999Z</time>
      </trkpt>
      <trkpt lat="48.82648" lon="2.31146">
        <ele>116.11</ele>
        <time>2020-03-13T23:09:06.999Z</time>
      </trkpt>
      <trkpt lat="48.8265" lon="2.31139">
        <ele>116.1</ele>
        <time>2020-03-13T23:09:07.999Z</time>
      </trkpt>
      <trkpt lat="48.82652" lon="2.31131">
        <ele>116.08</ele>
        <time>2020-03-13T23:09:08.999Z</time>
      </trkpt>
      <trkpt lat="48.82654" lon="2.31123">
        <ele>116.07</ele>
        <time>2020-03-13T23:09:09.999Z</time>
      </trkpt>
      <trkpt lat="48.82656" lon="2.31115">
        <ele>116.05</ele>
        <time>2020-03-13T23:09:10.999Z</time>
      </trkpt>
      <trkpt lat="48.82658" lon="2.31106">
        <ele>116.03</ele>
        <time>2020-03-13T23:09:11.999Z</time>
      </trkpt>
      <trkpt lat="48.8266" lon="2.31099">
        <ele>116.01</ele>
        <time>2020-03-13T23:09:12.999Z</time>
      </trkpt>
      <trkpt lat="48.82662" lon="2.31091">
        <ele>116</ele>
        <time>2020-03-13T23:09:13.999Z</time>
      </trkpt>
      <trkpt lat="48.82663" lon="2.31083">
        <ele>115.98</ele>
        <time>2020-03-13T23:09:14.999Z</time>
      </trkpt>
      <trkpt lat="48.82666" lon="2.31076">
        <ele>115.97</ele>
        <time>2020-03-13T23:09:15.999Z</time>
      </trkpt>
      <trkpt lat="48.82667" lon="2.31067">
        <ele>115.95</ele>
        <time>2020-03-13T23:09:16.999Z</time>
      </trkpt>
      <trkpt lat="48.82669" lon="2.31059">
        <ele>115.93</ele>
        <time>2020-03-13T23:09:17.999Z</time>
      </trkpt>
      <trkpt lat="48.8267" lon="2.31051">
        <ele>115.92</ele>
        <time>2020-03-13T23:09:18.999Z</time>
      </trkpt>
      <trkpt lat="48.82672" lon="2.31042">
        <ele>115.91</ele>
        <time>2020-03-13T23:09:19.999Z</time>
      </trkpt>
      <trkpt lat="48.82673" lon="2.31032">
        <ele>115.9</ele>
        <time>2020-03-13T23:09:20.999Z</time>
      </trkpt>
      <trkpt lat="48.82674" lon="2.31023">
        <ele>115.9</ele>
        <time>2020-03-13T23:09:21.999Z</time>
      </trkpt>
      <trkpt lat="48.82676" lon="2.31014">
        <ele>115.89</ele>
        <time>2020-03-13T23:09:22.999Z</time>
      </trkpt>
      <trkpt lat="48.82678" lon="2.31006">
        <ele>115.88</ele>
        <time>2020-03-13T23:09:23.999Z</time>
      </trkpt>
      <trkpt lat="48.8268" lon="2.30997">
        <ele>115.88</ele>
        <time>2020-03-13T23:09:24.999Z</time>
      </trkpt>
      <trkpt lat="48.82682" lon="2.30988">
        <ele>115.88</ele>
        <time>2020-03-13T23:09:25.999Z</time>
      </trkpt>
      <trkpt lat="48.82684" lon="2.30979">
        <ele>115.88</ele>
        <time>2020-03-13T23:09:26.999Z</time>
      </trkpt>
      <trkpt lat="48.82686" lon="2.3097">
        <ele>115.87</ele>
        <time>2020-03-13T23:09:27.999Z</time>
      </trkpt>
      <trkpt lat="48.82688" lon="2.30961">
        <ele>115.86</ele>
        <time>2020-03-13T23:09:28.999Z</time>
      </trkpt>
      <trkpt lat="48.8269" lon="2.30953">
        <ele>115.85</ele>
        <time>2020-03-13T23:09:29.999Z</time>
      </trkpt>
      <trkpt lat="48.82692" lon="2.30943">
        <ele>115.85</ele>
        <time>2020-03-13T23:09:30.999Z</time>
      </trkpt>
      <trkpt lat="48.82694" lon="2.30934">
        <ele>115.84</ele>
        <time>2020-03-13T23:09:31.999Z</time>
      </trkpt>
      <trkpt lat="48.82696" lon="2.30925">
        <ele>115.83</ele>
        <time>2020-03-13T23:09:32.999Z</time>
      </trkpt>
      <trkpt lat="48.82698" lon="2.30915">
        <ele>115.82</ele>
        <time>2020-03-13T23:09:33.999Z</time>
      </trkpt>
      <trkpt lat="48.82699" lon="2.30905">
        <ele>115.8</ele>
        <time>2020-03-13T23:09:34.999Z</time>
      </trkpt>
      <trkpt lat="48.82701" lon="2.30897">
        <ele>115.8</ele>
        <time>2020-03-13T23:09:35.999Z</time>
      </trkpt>
      <trkpt lat="48.82702" lon="2.30887">
        <ele>115.79</ele>
        <time>2020-03-13T23:09:36.999Z</time>
      </trkpt>
      <trkpt lat="48.82704" lon="2.30878">
        <ele>115.78</ele>
        <time>2020-03-13T23:09:37.999Z</time>
      </trkpt>
      <trkpt lat="48.82707" lon="2.30871">
        <ele>115.77</ele>
        <time>2020-03-13T23:09:38.999Z</time>
      </trkpt>
      <trkpt lat="48.82709" lon="2.30862">
        <ele>115.76</ele>
        <time>2020-03-13T23:09:39.999Z</time>
      </trkpt>
      <trkpt lat="48.82712" lon="2.30853">
        <ele>115.76</ele>
        <time>2020-03-13T23:09:40.999Z</time>
      </trkpt>
      <trkpt lat="48.82714" lon="2.30845">
        <ele>115.74</ele>
        <time>2020-03-13T23:09:41.999Z</time>
      </trkpt>
      <trkpt lat="48.82716" lon="2.30837">
        <ele>115.73</ele>
        <time>2020-03-13T23:09:42.999Z</time>
      </trkpt>
      <trkpt lat="48.82718" lon="2.30828">
        <ele>115.71</ele>
        <time>2020-03-13T23:09:43.999Z</time>
      </trkpt>
      <trkpt lat="48.8272" lon="2.3082">
        <ele>115.7</ele>
        <time>2020-03-13T23:09:44.999Z</time>
      </trkpt>
      <trkpt lat="48.82722" lon="2.30812">
        <ele>115.68</ele>
        <time>2020-03-13T23:09:45.999Z</time>
      </trkpt>
      <trkpt lat="48.82724" lon="2.30804">
        <ele>115.66</ele>
        <time>2020-03-13T23:09:46.999Z</time>
      </trkpt>
      <trkpt lat="48.82726" lon="2.30796">
        <ele>115.65</ele>
        <time>2020-03-13T23:09:47.999Z</time>
      </trkpt>
      <trkpt lat="48.82728" lon="2.30788">
        <ele>115.64</ele>
        <time>2020-03-13T23:09:48.999Z</time>
      </trkpt>
      <trkpt lat="48.82731" lon="2.3078">
        <ele>115.63</ele>
        <time>2020-03-13T23:09:49.999Z</time>
      </trkpt>
      <trkpt lat="48.82733" lon="2.30771">
        <ele>115.62</ele>
        <time>2020-03-13T23:09:50.999Z</time>
      </trkpt>
      <trkpt lat="48.82734" lon="2.30762">
        <ele>115.6</ele>
        <time>2020-03-13T23:09:51.999Z</time>
      </trkpt>
      <trkpt lat="48.82736" lon="2.30753">
        <ele>115.59</ele>
        <time>2020-03-13T23:09:52.999Z</time>
      </trkpt>
      <trkpt lat="48.82738" lon="2.30745">
        <ele>115.58</ele>
        <time>2020-03-13T23:09:53.999Z</time>
      </trkpt>
      <trkpt lat="48.8274" lon="2.30738">
        <ele>115.58</ele>
        <time>2020-03-13T23:09:54.999Z</time>
      </trkpt>
      <trkpt lat="48.82742" lon="2.3073">
        <ele>115.58</ele>
        <time>2020-03-13T23:09:55.999Z</time>
      </trkpt>
      <trkpt lat="48.82744" lon="2.30723">
        <ele>115.58</ele>
        <time>2020-03-13T23:09:56.999Z</time>
      </trkpt>
      <trkpt lat="48.82745" lon="2.30716">
        <ele>115.6</ele>
        <time>2020-03-13T23:09:57.999Z</time>
      </trkpt>
      <trkpt lat="48.82747" lon="2.30709">
        <ele>115.61</ele>
        <time>2020-03-13T23:09:58.999Z</time>
      </trkpt>
      <trkpt lat="48.82748" lon="2.30702">
        <ele>115.63</ele>
        <time>2020-03-13T23:09:59.999Z</time>
      </trkpt>
      <trkpt lat="48.82752" lon="2.30689">
        <ele>115.65</ele>
        <time>2020-03-13T23:10:01.999Z</time>
      </trkpt>
      <trkpt lat="48.82753" lon="2.30683">
        <ele>115.66</ele>
        <time>2020-03-13T23:10:02.999Z</time>
      </trkpt>
      <trkpt lat="48.82756" lon="2.30675">
        <ele>115.64</ele>
        <time>2020-03-13T23:10:03.999Z</time>
      </trkpt>
      <trkpt lat="48.82759" lon="2.30668">
        <ele>115.62</ele>
        <time>2020-03-13T23:10:04.999Z</time>
      </trkpt>
      <trkpt lat="48.82759" lon="2.30659">
        <ele>115.59</ele>
        <time>2020-03-13T23:10:05.999Z</time>
      </trkpt>
      <trkpt lat="48.8276" lon="2.30652">
        <ele>115.56</ele>
        <time>2020-03-13T23:10:06.999Z</time>
      </trkpt>
      <trkpt lat="48.8276" lon="2.30646">
        <ele>115.54</ele>
        <time>2020-03-13T23:10:07.999Z</time>
      </trkpt>
      <trkpt lat="48.82761" lon="2.3064">
        <ele>115.53</ele>
        <time>2020-03-13T23:10:08.999Z</time>
      </trkpt>
      <trkpt lat="48.82762" lon="2.30634">
        <ele>115.53</ele>
        <time>2020-03-13T23:10:09.999Z</time>
      </trkpt>
      <trkpt lat="48.82762" lon="2.30629">
        <ele>115.53</ele>
        <time>2020-03-13T23:10:10.999Z</time>
      </trkpt>
      <trkpt lat="48.82763" lon="2.30624">
        <ele>115.52</ele>
        <time>2020-03-13T23:10:11.999Z</time>
      </trkpt>
      <trkpt lat="48.82763" lon="2.30618">
        <ele>115.5</ele>
        <time>2020-03-13T23:10:12.999Z</time>
      </trkpt>
      <trkpt lat="48.82764" lon="2.30612">
        <ele>115.49</ele>
        <time>2020-03-13T23:10:13.999Z</time>
      </trkpt>
      <trkpt lat="48.82766" lon="2.30606">
        <ele>115.48</ele>
        <time>2020-03-13T23:10:14.999Z</time>
      </trkpt>
      <trkpt lat="48.82767" lon="2.306">
        <ele>115.48</ele>
        <time>2020-03-13T23:10:15.999Z</time>
      </trkpt>
      <trkpt lat="48.82769" lon="2.30594">
        <ele>115.48</ele>
        <time>2020-03-13T23:10:16.999Z</time>
      </trkpt>
      <trkpt lat="48.8277" lon="2.30589">
        <ele>115.48</ele>
        <time>2020-03-13T23:10:17.999Z</time>
      </trkpt>
      <trkpt lat="48.82771" lon="2.30584">
        <ele>115.48</ele>
        <time>2020-03-13T23:10:18.999Z</time>
      </trkpt>
      <trkpt lat="48.82772" lon="2.3058">
        <ele>115.48</ele>
        <time>2020-03-13T23:10:19.999Z</time>
      </trkpt>
      <trkpt lat="48.82772" lon="2.30577">
        <ele>115.48</ele>
        <time>2020-03-13T23:10:20.999Z</time>
      </trkpt>
      <trkpt lat="48.82773" lon="2.30574">
        <ele>115.48</ele>
        <time>2020-03-13T23:10:21.999Z</time>
      </trkpt>
      <trkpt lat="48.82774" lon="2.30572">
        <ele>115.48</ele>
        <time>2020-03-13T23:10:22.999Z</time>
      </trkpt>
      <trkpt lat="48.82774" lon="2.3057">
        <ele>115.48</ele>
        <time>2020-03-13T23:10:23.999Z</time>
      </trkpt>
      <trkpt lat="48.82775" lon="2.30567">
        <ele>115.48</ele>
        <time>2020-03-13T23:10:24.999Z</time>
      </trkpt>
      <trkpt lat="48.82775" lon="2.30566">
        <ele>115.47</ele>
        <time>2020-03-13T23:10:25.999Z</time>
      </trkpt>
      <trkpt lat="48.82775" lon="2.30564">
        <ele>115.47</ele>
        <time>2020-03-13T23:10:26.999Z</time>
      </trkpt>
      <trkpt lat="48.82776" lon="2.30562">
        <ele>115.47</ele>
        <time>2020-03-13T23:10:28.999Z</time>
      </trkpt>
      <trkpt lat="48.82777" lon="2.30561">
        <ele>115.47</ele>
        <time>2020-03-13T23:10:29.999Z</time>
      </trkpt>
      <trkpt lat="48.82778" lon="2.3056">
        <ele>115.47</ele>
        <time>2020-03-13T23:10:31.999Z</time>
      </trkpt>
      <trkpt lat="48.82779" lon="2.3056">
        <ele>115.45</ele>
        <time>2020-03-13T23:11:15.999Z</time>
      </trkpt>
      <trkpt lat="48.8278" lon="2.30559">
        <ele>115.44</ele>
        <time>2020-03-13T23:11:21.999Z</time>
      </trkpt>
      <trkpt lat="48.82782" lon="2.30561">
        <ele>115.4</ele>
        <time>2020-03-13T23:11:31.999Z</time>
      </trkpt>
      <trkpt lat="48.82784" lon="2.30561">
        <ele>115.38</ele>
        <time>2020-03-13T23:11:33.999Z</time>
      </trkpt>
      <trkpt lat="48.82785" lon="2.30561">
        <ele>115.37</ele>
        <time>2020-03-13T23:11:34.999Z</time>
      </trkpt>
      <trkpt lat="48.82786" lon="2.30563">
        <ele>115.36</ele>
        <time>2020-03-13T23:11:35.999Z</time>
      </trkpt>
      <trkpt lat="48.82787" lon="2.30564">
        <ele>115.35</ele>
        <time>2020-03-13T23:11:36.999Z</time>
      </trkpt>
      <trkpt lat="48.82789" lon="2.30567">
        <ele>115.34</ele>
        <time>2020-03-13T23:11:37.999Z</time>
      </trkpt>
      <trkpt lat="48.82791" lon="2.3057">
        <ele>115.33</ele>
        <time>2020-03-13T23:11:38.999Z</time>
      </trkpt>
      <trkpt lat="48.82792" lon="2.30573">
        <ele>115.33</ele>
        <time>2020-03-13T23:11:39.999Z</time>
      </trkpt>
      <trkpt lat="48.82793" lon="2.30577">
        <ele>115.32</ele>
        <time>2020-03-13T23:11:40.999Z</time>
      </trkpt>
      <trkpt lat="48.82794" lon="2.30579">
        <ele>115.31</ele>
        <time>2020-03-13T23:11:41.999Z</time>
      </trkpt>
      <trkpt lat="48.82795" lon="2.30583">
        <ele>115.3</ele>
        <time>2020-03-13T23:11:42.999Z</time>
      </trkpt>
      <trkpt lat="48.82796" lon="2.30585">
        <ele>115.3</ele>
        <time>2020-03-13T23:11:43.999Z</time>
      </trkpt>
      <trkpt lat="48.82798" lon="2.30589">
        <ele>115.29</ele>
        <time>2020-03-13T23:11:44.999Z</time>
      </trkpt>
      <trkpt lat="48.82799" lon="2.30592">
        <ele>115.28</ele>
        <time>2020-03-13T23:11:45.999Z</time>
      </trkpt>
      <trkpt lat="48.82801" lon="2.30595">
        <ele>115.28</ele>
        <time>2020-03-13T23:11:46.999Z</time>
      </trkpt>
      <trkpt lat="48.82802" lon="2.30598">
        <ele>115.27</ele>
        <time>2020-03-13T23:11:47.999Z</time>
      </trkpt>
      <trkpt lat="48.82804" lon="2.30601">
        <ele>115.27</ele>
        <time>2020-03-13T23:11:48.999Z</time>
      </trkpt>
      <trkpt lat="48.82805" lon="2.30603">
        <ele>115.26</ele>
        <time>2020-03-13T23:11:49.999Z</time>
      </trkpt>
      <trkpt lat="48.82806" lon="2.30605">
        <ele>115.26</ele>
        <time>2020-03-13T23:11:50.999Z</time>
      </trkpt>
      <trkpt lat="48.82807" lon="2.30607">
        <ele>115.26</ele>
        <time>2020-03-13T23:11:51.999Z</time>
      </trkpt>
      <trkpt lat="48.82809" lon="2.30609">
        <ele>115.26</ele>
        <time>2020-03-13T23:11:52.999Z</time>
      </trkpt>
      <trkpt lat="48.82814" lon="2.30614">
        <ele>115.27</ele>
        <time>2020-03-13T23:11:53.999Z</time>
      </trkpt>
      <trkpt lat="48.82817" lon="2.3062">
        <ele>115.27</ele>
        <time>2020-03-13T23:11:54.999Z</time>
      </trkpt>
      <trkpt lat="48.82826" lon="2.30615">
        <ele>115.32</ele>
        <time>2020-03-13T23:11:55.999Z</time>
      </trkpt>
      <trkpt lat="48.82836" lon="2.30614">
        <ele>115.36</ele>
        <time>2020-03-13T23:11:56.999Z</time>
      </trkpt>
      <trkpt lat="48.82841" lon="2.3062">
        <ele>115.36</ele>
        <time>2020-03-13T23:11:57.999Z</time>
      </trkpt>
      <trkpt lat="48.82845" lon="2.30624">
        <ele>115.37</ele>
        <time>2020-03-13T23:11:58.999Z</time>
      </trkpt>
      <trkpt lat="48.8286" lon="2.30634">
        <ele>115.41</ele>
        <time>2020-03-13T23:12:00.999Z</time>
      </trkpt>
      <trkpt lat="48.82862" lon="2.30641">
        <ele>115.42</ele>
        <time>2020-03-13T23:12:01.999Z</time>
      </trkpt>
      <trkpt lat="48.82862" lon="2.30649">
        <ele>115.42</ele>
        <time>2020-03-13T23:12:02.999Z</time>
      </trkpt>
      <trkpt lat="48.82864" lon="2.30656">
        <ele>115.42</ele>
        <time>2020-03-13T23:12:03.999Z</time>
      </trkpt>
      <trkpt lat="48.82865" lon="2.30664">
        <ele>115.42</ele>
        <time>2020-03-13T23:12:04.999Z</time>
      </trkpt>
      <trkpt lat="48.82864" lon="2.30671">
        <ele>115.45</ele>
        <time>2020-03-13T23:12:05.999Z</time>
      </trkpt>
      <trkpt lat="48.82863" lon="2.30682">
        <ele>115.47</ele>
        <time>2020-03-13T23:12:06.999Z</time>
      </trkpt>
      <trkpt lat="48.82863" lon="2.30688">
        <ele>115.48</ele>
        <time>2020-03-13T23:12:07.999Z</time>
      </trkpt>
      <trkpt lat="48.82865" lon="2.30694">
        <ele>115.49</ele>
        <time>2020-03-13T23:12:08.999Z</time>
      </trkpt>
      <trkpt lat="48.82867" lon="2.30699">
        <ele>115.5</ele>
        <time>2020-03-13T23:12:09.999Z</time>
      </trkpt>
      <trkpt lat="48.82868" lon="2.30704">
        <ele>115.5</ele>
        <time>2020-03-13T23:12:10.999Z</time>
      </trkpt>
      <trkpt lat="48.82869" lon="2.30709">
        <ele>115.5</ele>
        <time>2020-03-13T23:12:11.999Z</time>
      </trkpt>
      <trkpt lat="48.82869" lon="2.30714">
        <ele>115.51</ele>
        <time>2020-03-13T23:12:13.000Z</time>
      </trkpt>
      <trkpt lat="48.82869" lon="2.30718">
        <ele>115.51</ele>
        <time>2020-03-13T23:12:14.000Z</time>
      </trkpt>
      <trkpt lat="48.8287" lon="2.30723">
        <ele>115.51</ele>
        <time>2020-03-13T23:12:15.000Z</time>
      </trkpt>
      <trkpt lat="48.82872" lon="2.30727">
        <ele>115.52</ele>
        <time>2020-03-13T23:12:16.000Z</time>
      </trkpt>
      <trkpt lat="48.82874" lon="2.30731">
        <ele>115.53</ele>
        <time>2020-03-13T23:12:17.000Z</time>
      </trkpt>
      <trkpt lat="48.82875" lon="2.30735">
        <ele>115.53</ele>
        <time>2020-03-13T23:12:18.000Z</time>
      </trkpt>
      <trkpt lat="48.82877" lon="2.3074">
        <ele>115.53</ele>
        <time>2020-03-13T23:12:19.000Z</time>
      </trkpt>
      <trkpt lat="48.82878" lon="2.30744">
        <ele>115.54</ele>
        <time>2020-03-13T23:12:20.000Z</time>
      </trkpt>
      <trkpt lat="48.8288" lon="2.30748">
        <ele>115.54</ele>
        <time>2020-03-13T23:12:21.000Z</time>
      </trkpt>
      <trkpt lat="48.82881" lon="2.30754">
        <ele>115.57</ele>
        <time>2020-03-13T23:12:22.000Z</time>
      </trkpt>
      <trkpt lat="48.82883" lon="2.3076">
        <ele>115.6</ele>
        <time>2020-03-13T23:12:23.000Z</time>
      </trkpt>
      <trkpt lat="48.82885" lon="2.30767">
        <ele>115.62</ele>
        <time>2020-03-13T23:12:24.000Z</time>
      </trkpt>
      <trkpt lat="48.82888" lon="2.30774">
        <ele>115.63</ele>
        <time>2020-03-13T23:12:25.000Z</time>
      </trkpt>
      <trkpt lat="48.82891" lon="2.3078">
        <ele>115.63</ele>
        <time>2020-03-13T23:12:26.000Z</time>
      </trkpt>
      <trkpt lat="48.82894" lon="2.30787">
        <ele>115.62</ele>
        <time>2020-03-13T23:12:27.000Z</time>
      </trkpt>
      <trkpt lat="48.82897" lon="2.30792">
        <ele>115.62</ele>
        <time>2020-03-13T23:12:28.000Z</time>
      </trkpt>
      <trkpt lat="48.829" lon="2.30798">
        <ele>115.62</ele>
        <time>2020-03-13T23:12:29.000Z</time>
      </trkpt>
      <trkpt lat="48.82902" lon="2.30804">
        <ele>115.62</ele>
        <time>2020-03-13T23:12:30.000Z</time>
      </trkpt>
      <trkpt lat="48.82905" lon="2.30812">
        <ele>115.62</ele>
        <time>2020-03-13T23:12:31.000Z</time>
      </trkpt>
      <trkpt lat="48.82908" lon="2.30819">
        <ele>115.62</ele>
        <time>2020-03-13T23:12:32.000Z</time>
      </trkpt>
      <trkpt lat="48.82911" lon="2.30826">
        <ele>115.61</ele>
        <time>2020-03-13T23:12:33.000Z</time>
      </trkpt>
      <trkpt lat="48.82914" lon="2.30832">
        <ele>115.61</ele>
        <time>2020-03-13T23:12:34.000Z</time>
      </trkpt>
      <trkpt lat="48.82917" lon="2.30837">
        <ele>115.62</ele>
        <time>2020-03-13T23:12:35.000Z</time>
      </trkpt>
      <trkpt lat="48.8292" lon="2.30843">
        <ele>115.62</ele>
        <time>2020-03-13T23:12:36.000Z</time>
      </trkpt>
      <trkpt lat="48.82923" lon="2.3085">
        <ele>115.63</ele>
        <time>2020-03-13T23:12:37.000Z</time>
      </trkpt>
      <trkpt lat="48.82927" lon="2.30856">
        <ele>115.64</ele>
        <time>2020-03-13T23:12:38.000Z</time>
      </trkpt>
      <trkpt lat="48.82931" lon="2.30863">
        <ele>115.66</ele>
        <time>2020-03-13T23:12:39.000Z</time>
      </trkpt>
      <trkpt lat="48.82934" lon="2.30868">
        <ele>115.69</ele>
        <time>2020-03-13T23:12:40.000Z</time>
      </trkpt>
      <trkpt lat="48.82937" lon="2.30874">
        <ele>115.71</ele>
        <time>2020-03-13T23:12:41.000Z</time>
      </trkpt>
      <trkpt lat="48.8294" lon="2.3088">
        <ele>115.74</ele>
        <time>2020-03-13T23:12:42.000Z</time>
      </trkpt>
      <trkpt lat="48.82943" lon="2.30886">
        <ele>115.77</ele>
        <time>2020-03-13T23:12:43.000Z</time>
      </trkpt>
      <trkpt lat="48.82947" lon="2.30893">
        <ele>115.79</ele>
        <time>2020-03-13T23:12:44.000Z</time>
      </trkpt>
      <trkpt lat="48.8295" lon="2.30899">
        <ele>115.82</ele>
        <time>2020-03-13T23:12:45.000Z</time>
      </trkpt>
      <trkpt lat="48.82954" lon="2.30903">
        <ele>115.84</ele>
        <time>2020-03-13T23:12:46.000Z</time>
      </trkpt>
      <trkpt lat="48.82959" lon="2.30908">
        <ele>115.86</ele>
        <time>2020-03-13T23:12:47.000Z</time>
      </trkpt>
      <trkpt lat="48.82964" lon="2.30913">
        <ele>115.88</ele>
        <time>2020-03-13T23:12:48.000Z</time>
      </trkpt>
      <trkpt lat="48.82969" lon="2.30917">
        <ele>115.9</ele>
        <time>2020-03-13T23:12:49.000Z</time>
      </trkpt>
      <trkpt lat="48.82973" lon="2.30923">
        <ele>115.91</ele>
        <time>2020-03-13T23:12:50.000Z</time>
      </trkpt>
      <trkpt lat="48.82977" lon="2.30928">
        <ele>115.92</ele>
        <time>2020-03-13T23:12:51.000Z</time>
      </trkpt>
      <trkpt lat="48.82981" lon="2.30933">
        <ele>115.92</ele>
        <time>2020-03-13T23:12:52.000Z</time>
      </trkpt>
      <trkpt lat="48.82985" lon="2.30939">
        <ele>115.92</ele>
        <time>2020-03-13T23:12:53.000Z</time>
      </trkpt>
      <trkpt lat="48.82988" lon="2.30946">
        <ele>115.92</ele>
        <time>2020-03-13T23:12:54.000Z</time>
      </trkpt>
      <trkpt lat="48.8299" lon="2.30953">
        <ele>115.92</ele>
        <time>2020-03-13T23:12:55.000Z</time>
      </trkpt>
      <trkpt lat="48.82993" lon="2.3096">
        <ele>115.91</ele>
        <time>2020-03-13T23:12:56.000Z</time>
      </trkpt>
      <trkpt lat="48.82995" lon="2.30966">
        <ele>115.91</ele>
        <time>2020-03-13T23:12:57.000Z</time>
      </trkpt>
      <trkpt lat="48.82997" lon="2.3097">
        <ele>115.9</ele>
        <time>2020-03-13T23:12:58.000Z</time>
      </trkpt>
      <trkpt lat="48.83" lon="2.30976">
        <ele>115.9</ele>
        <time>2020-03-13T23:12:59.000Z</time>
      </trkpt>
      <trkpt lat="48.83003" lon="2.30981">
        <ele>115.89</ele>
        <time>2020-03-13T23:13:00.000Z</time>
      </trkpt>
      <trkpt lat="48.83005" lon="2.30987">
        <ele>115.88</ele>
        <time>2020-03-13T23:13:01.000Z</time>
      </trkpt>
      <trkpt lat="48.83007" lon="2.30993">
        <ele>115.88</ele>
        <time>2020-03-13T23:13:02.000Z</time>
      </trkpt>
      <trkpt lat="48.83009" lon="2.31">
        <ele>115.87</ele>
        <time>2020-03-13T23:13:03.000Z</time>
      </trkpt>
      <trkpt lat="48.8301" lon="2.31005">
        <ele>115.86</ele>
        <time>2020-03-13T23:13:04.000Z</time>
      </trkpt>
      <trkpt lat="48.83013" lon="2.31011">
        <ele>115.85</ele>
        <time>2020-03-13T23:13:05.000Z</time>
      </trkpt>
      <trkpt lat="48.83016" lon="2.31017">
        <ele>115.84</ele>
        <time>2020-03-13T23:13:06.000Z</time>
      </trkpt>
      <trkpt lat="48.83018" lon="2.31023">
        <ele>115.84</ele>
        <time>2020-03-13T23:13:07.000Z</time>
      </trkpt>
      <trkpt lat="48.83021" lon="2.3103">
        <ele>115.83</ele>
        <time>2020-03-13T23:13:08.000Z</time>
      </trkpt>
      <trkpt lat="48.83024" lon="2.31037">
        <ele>115.82</ele>
        <time>2020-03-13T23:13:09.000Z</time>
      </trkpt>
      <trkpt lat="48.83026" lon="2.31044">
        <ele>115.82</ele>
        <time>2020-03-13T23:13:10.000Z</time>
      </trkpt>
      <trkpt lat="48.83029" lon="2.31051">
        <ele>115.81</ele>
        <time>2020-03-13T23:13:11.000Z</time>
      </trkpt>
      <trkpt lat="48.83031" lon="2.31057">
        <ele>115.8</ele>
        <time>2020-03-13T23:13:12.000Z</time>
      </trkpt>
      <trkpt lat="48.83033" lon="2.31063">
        <ele>115.8</ele>
        <time>2020-03-13T23:13:13.000Z</time>
      </trkpt>
      <trkpt lat="48.83035" lon="2.31067">
        <ele>115.8</ele>
        <time>2020-03-13T23:13:14.000Z</time>
      </trkpt>
      <trkpt lat="48.83037" lon="2.31074">
        <ele>115.8</ele>
        <time>2020-03-13T23:13:15.000Z</time>
      </trkpt>
      <trkpt lat="48.83038" lon="2.31078">
        <ele>115.8</ele>
        <time>2020-03-13T23:13:16.000Z</time>
      </trkpt>
      <trkpt lat="48.8304" lon="2.31084">
        <ele>115.79</ele>
        <time>2020-03-13T23:13:17.000Z</time>
      </trkpt>
      <trkpt lat="48.83041" lon="2.31089">
        <ele>115.79</ele>
        <time>2020-03-13T23:13:18.000Z</time>
      </trkpt>
      <trkpt lat="48.83043" lon="2.31093">
        <ele>115.79</ele>
        <time>2020-03-13T23:13:19.000Z</time>
      </trkpt>
      <trkpt lat="48.83044" lon="2.31098">
        <ele>115.79</ele>
        <time>2020-03-13T23:13:20.000Z</time>
      </trkpt>
      <trkpt lat="48.83049" lon="2.31108">
        <ele>115.74</ele>
        <time>2020-03-13T23:13:22.000Z</time>
      </trkpt>
      <trkpt lat="48.83051" lon="2.31112">
        <ele>115.72</ele>
        <time>2020-03-13T23:13:23.000Z</time>
      </trkpt>
      <trkpt lat="48.83053" lon="2.31118">
        <ele>115.71</ele>
        <time>2020-03-13T23:13:24.000Z</time>
      </trkpt>
      <trkpt lat="48.83056" lon="2.31124">
        <ele>115.7</ele>
        <time>2020-03-13T23:13:25.000Z</time>
      </trkpt>
      <trkpt lat="48.83058" lon="2.31132">
        <ele>115.68</ele>
        <time>2020-03-13T23:13:26.000Z</time>
      </trkpt>
      <trkpt lat="48.83061" lon="2.31139">
        <ele>115.68</ele>
        <time>2020-03-13T23:13:27.000Z</time>
      </trkpt>
      <trkpt lat="48.83064" lon="2.31146">
        <ele>115.67</ele>
        <time>2020-03-13T23:13:28.000Z</time>
      </trkpt>
      <trkpt lat="48.83067" lon="2.31153">
        <ele>115.66</ele>
        <time>2020-03-13T23:13:29.000Z</time>
      </trkpt>
      <trkpt lat="48.8307" lon="2.31159">
        <ele>115.65</ele>
        <time>2020-03-13T23:13:30.000Z</time>
      </trkpt>
      <trkpt lat="48.83072" lon="2.31165">
        <ele>115.64</ele>
        <time>2020-03-13T23:13:31.000Z</time>
      </trkpt>
      <trkpt lat="48.83075" lon="2.31172">
        <ele>115.63</ele>
        <time>2020-03-13T23:13:32.000Z</time>
      </trkpt>
      <trkpt lat="48.83077" lon="2.31178">
        <ele>115.63</ele>
        <time>2020-03-13T23:13:33.000Z</time>
      </trkpt>
      <trkpt lat="48.8308" lon="2.31184">
        <ele>115.64</ele>
        <time>2020-03-13T23:13:34.000Z</time>
      </trkpt>
      <trkpt lat="48.83083" lon="2.3119">
        <ele>115.65</ele>
        <time>2020-03-13T23:13:35.000Z</time>
      </trkpt>
      <trkpt lat="48.83086" lon="2.31196">
        <ele>115.66</ele>
        <time>2020-03-13T23:13:36.000Z</time>
      </trkpt>
      <trkpt lat="48.83088" lon="2.31201">
        <ele>115.67</ele>
        <time>2020-03-13T23:13:37.000Z</time>
      </trkpt>
      <trkpt lat="48.83091" lon="2.31207">
        <ele>115.67</ele>
        <time>2020-03-13T23:13:38.000Z</time>
      </trkpt>
      <trkpt lat="48.83092" lon="2.31213">
        <ele>115.67</ele>
        <time>2020-03-13T23:13:39.000Z</time>
      </trkpt>
      <trkpt lat="48.83094" lon="2.31219">
        <ele>115.67</ele>
        <time>2020-03-13T23:13:40.000Z</time>
      </trkpt>
      <trkpt lat="48.83096" lon="2.31224">
        <ele>115.67</ele>
        <time>2020-03-13T23:13:41.000Z</time>
      </trkpt>
      <trkpt lat="48.83097" lon="2.3123">
        <ele>115.65</ele>
        <time>2020-03-13T23:13:42.000Z</time>
      </trkpt>
      <trkpt lat="48.83099" lon="2.31236">
        <ele>115.64</ele>
        <time>2020-03-13T23:13:43.000Z</time>
      </trkpt>
      <trkpt lat="48.83102" lon="2.31242">
        <ele>115.62</ele>
        <time>2020-03-13T23:13:44.000Z</time>
      </trkpt>
      <trkpt lat="48.83105" lon="2.31248">
        <ele>115.61</ele>
        <time>2020-03-13T23:13:45.000Z</time>
      </trkpt>
      <trkpt lat="48.83107" lon="2.31254">
        <ele>115.59</ele>
        <time>2020-03-13T23:13:46.000Z</time>
      </trkpt>
      <trkpt lat="48.8311" lon="2.31261">
        <ele>115.59</ele>
        <time>2020-03-13T23:13:47.000Z</time>
      </trkpt>
      <trkpt lat="48.83113" lon="2.31267">
        <ele>115.59</ele>
        <time>2020-03-13T23:13:48.000Z</time>
      </trkpt>
      <trkpt lat="48.83116" lon="2.31274">
        <ele>115.58</ele>
        <time>2020-03-13T23:13:49.000Z</time>
      </trkpt>
      <trkpt lat="48.83118" lon="2.3128">
        <ele>115.58</ele>
        <time>2020-03-13T23:13:50.000Z</time>
      </trkpt>
      <trkpt lat="48.8312" lon="2.31285">
        <ele>115.57</ele>
        <time>2020-03-13T23:13:51.000Z</time>
      </trkpt>
      <trkpt lat="48.83123" lon="2.31291">
        <ele>115.56</ele>
        <time>2020-03-13T23:13:52.000Z</time>
      </trkpt>
      <trkpt lat="48.83126" lon="2.31297">
        <ele>115.55</ele>
        <time>2020-03-13T23:13:53.000Z</time>
      </trkpt>
      <trkpt lat="48.8313" lon="2.31302">
        <ele>115.54</ele>
        <time>2020-03-13T23:13:54.000Z</time>
      </trkpt>
      <trkpt lat="48.83134" lon="2.31307">
        <ele>115.54</ele>
        <time>2020-03-13T23:13:55.000Z</time>
      </trkpt>
      <trkpt lat="48.83138" lon="2.31312">
        <ele>115.53</ele>
        <time>2020-03-13T23:13:56.000Z</time>
      </trkpt>
      <trkpt lat="48.83141" lon="2.31319">
        <ele>115.52</ele>
        <time>2020-03-13T23:13:57.000Z</time>
      </trkpt>
      <trkpt lat="48.83143" lon="2.31325">
        <ele>115.51</ele>
        <time>2020-03-13T23:13:58.000Z</time>
      </trkpt>
      <trkpt lat="48.83146" lon="2.31331">
        <ele>115.5</ele>
        <time>2020-03-13T23:13:59.000Z</time>
      </trkpt>
      <trkpt lat="48.83149" lon="2.31338">
        <ele>115.5</ele>
        <time>2020-03-13T23:14:00.000Z</time>
      </trkpt>
      <trkpt lat="48.83152" lon="2.31344">
        <ele>115.5</ele>
        <time>2020-03-13T23:14:01.000Z</time>
      </trkpt>
      <trkpt lat="48.83154" lon="2.31351">
        <ele>115.49</ele>
        <time>2020-03-13T23:14:02.000Z</time>
      </trkpt>
      <trkpt lat="48.83157" lon="2.31356">
        <ele>115.48</ele>
        <time>2020-03-13T23:14:03.000Z</time>
      </trkpt>
      <trkpt lat="48.83159" lon="2.31361">
        <ele>115.46</ele>
        <time>2020-03-13T23:14:04.000Z</time>
      </trkpt>
      <trkpt lat="48.83162" lon="2.31366">
        <ele>115.44</ele>
        <time>2020-03-13T23:14:05.000Z</time>
      </trkpt>
      <trkpt lat="48.83164" lon="2.31371">
        <ele>115.41</ele>
        <time>2020-03-13T23:14:06.000Z</time>
      </trkpt>
      <trkpt lat="48.83167" lon="2.31376">
        <ele>115.39</ele>
        <time>2020-03-13T23:14:07.000Z</time>
      </trkpt>
      <trkpt lat="48.83169" lon="2.31382">
        <ele>115.37</ele>
        <time>2020-03-13T23:14:08.000Z</time>
      </trkpt>
      <trkpt lat="48.83171" lon="2.31387">
        <ele>115.37</ele>
        <time>2020-03-13T23:14:09.000Z</time>
      </trkpt>
      <trkpt lat="48.83173" lon="2.31391">
        <ele>115.36</ele>
        <time>2020-03-13T23:14:10.000Z</time>
      </trkpt>
      <trkpt lat="48.83175" lon="2.31395">
        <ele>115.36</ele>
        <time>2020-03-13T23:14:11.000Z</time>
      </trkpt>
      <trkpt lat="48.83177" lon="2.31399">
        <ele>115.36</ele>
        <time>2020-03-13T23:14:12.000Z</time>
      </trkpt>
      <trkpt lat="48.83179" lon="2.31402">
        <ele>115.36</ele>
        <time>2020-03-13T23:14:13.000Z</time>
      </trkpt>
      <trkpt lat="48.83181" lon="2.31406">
        <ele>115.35</ele>
        <time>2020-03-13T23:14:14.000Z</time>
      </trkpt>
      <trkpt lat="48.83183" lon="2.3141">
        <ele>115.35</ele>
        <time>2020-03-13T23:14:15.000Z</time>
      </trkpt>
      <trkpt lat="48.83185" lon="2.31414">
        <ele>115.35</ele>
        <time>2020-03-13T23:14:16.000Z</time>
      </trkpt>
      <trkpt lat="48.83187" lon="2.31419">
        <ele>115.34</ele>
        <time>2020-03-13T23:14:17.000Z</time>
      </trkpt>
      <trkpt lat="48.8319" lon="2.31423">
        <ele>115.31</ele>
        <time>2020-03-13T23:14:18.000Z</time>
      </trkpt>
      <trkpt lat="48.83192" lon="2.31428">
        <ele>115.29</ele>
        <time>2020-03-13T23:14:19.000Z</time>
      </trkpt>
      <trkpt lat="48.83194" lon="2.31433">
        <ele>115.27</ele>
        <time>2020-03-13T23:14:20.000Z</time>
      </trkpt>
      <trkpt lat="48.83196" lon="2.31438">
        <ele>115.25</ele>
        <time>2020-03-13T23:14:21.000Z</time>
      </trkpt>
      <trkpt lat="48.83198" lon="2.31443">
        <ele>115.23</ele>
        <time>2020-03-13T23:14:22.000Z</time>
      </trkpt>
      <trkpt lat="48.832" lon="2.31448">
        <ele>115.23</ele>
        <time>2020-03-13T23:14:23.000Z</time>
      </trkpt>
      <trkpt lat="48.83202" lon="2.31453">
        <ele>115.23</ele>
        <time>2020-03-13T23:14:24.000Z</time>
      </trkpt>
      <trkpt lat="48.83204" lon="2.31458">
        <ele>115.21</ele>
        <time>2020-03-13T23:14:25.000Z</time>
      </trkpt>
      <trkpt lat="48.83206" lon="2.31463">
        <ele>115.2</ele>
        <time>2020-03-13T23:14:26.000Z</time>
      </trkpt>
      <trkpt lat="48.83209" lon="2.31468">
        <ele>115.18</ele>
        <time>2020-03-13T23:14:27.000Z</time>
      </trkpt>
      <trkpt lat="48.83212" lon="2.31474">
        <ele>115.17</ele>
        <time>2020-03-13T23:14:28.000Z</time>
      </trkpt>
      <trkpt lat="48.83214" lon="2.31479">
        <ele>115.16</ele>
        <time>2020-03-13T23:14:29.000Z</time>
      </trkpt>
      <trkpt lat="48.83217" lon="2.31484">
        <ele>115.15</ele>
        <time>2020-03-13T23:14:30.000Z</time>
      </trkpt>
      <trkpt lat="48.83219" lon="2.3149">
        <ele>115.14</ele>
        <time>2020-03-13T23:14:31.000Z</time>
      </trkpt>
      <trkpt lat="48.83221" lon="2.31496">
        <ele>115.13</ele>
        <time>2020-03-13T23:14:32.000Z</time>
      </trkpt>
      <trkpt lat="48.83223" lon="2.31502">
        <ele>115.11</ele>
        <time>2020-03-13T23:14:33.000Z</time>
      </trkpt>
      <trkpt lat="48.83226" lon="2.31508">
        <ele>115.09</ele>
        <time>2020-03-13T23:14:34.000Z</time>
      </trkpt>
      <trkpt lat="48.83229" lon="2.31512">
        <ele>115.07</ele>
        <time>2020-03-13T23:14:35.000Z</time>
      </trkpt>
      <trkpt lat="48.83232" lon="2.31518">
        <ele>115.05</ele>
        <time>2020-03-13T23:14:36.000Z</time>
      </trkpt>
      <trkpt lat="48.83235" lon="2.31524">
        <ele>115.03</ele>
        <time>2020-03-13T23:14:37.000Z</time>
      </trkpt>
      <trkpt lat="48.83239" lon="2.31529">
        <ele>115.03</ele>
        <time>2020-03-13T23:14:38.000Z</time>
      </trkpt>
      <trkpt lat="48.83242" lon="2.31535">
        <ele>115.03</ele>
        <time>2020-03-13T23:14:39.000Z</time>
      </trkpt>
      <trkpt lat="48.83246" lon="2.31541">
        <ele>115.03</ele>
        <time>2020-03-13T23:14:40.000Z</time>
      </trkpt>
      <trkpt lat="48.83249" lon="2.31545">
        <ele>115.03</ele>
        <time>2020-03-13T23:14:41.000Z</time>
      </trkpt>
      <trkpt lat="48.83253" lon="2.3155">
        <ele>115.04</ele>
        <time>2020-03-13T23:14:42.000Z</time>
      </trkpt>
      <trkpt lat="48.83257" lon="2.31555">
        <ele>115.05</ele>
        <time>2020-03-13T23:14:43.000Z</time>
      </trkpt>
      <trkpt lat="48.8326" lon="2.31559">
        <ele>115.06</ele>
        <time>2020-03-13T23:14:44.000Z</time>
      </trkpt>
      <trkpt lat="48.83263" lon="2.31564">
        <ele>115.07</ele>
        <time>2020-03-13T23:14:45.000Z</time>
      </trkpt>
      <trkpt lat="48.83266" lon="2.31569">
        <ele>115.08</ele>
        <time>2020-03-13T23:14:46.000Z</time>
      </trkpt>
      <trkpt lat="48.83268" lon="2.31572">
        <ele>115.09</ele>
        <time>2020-03-13T23:14:47.000Z</time>
      </trkpt>
      <trkpt lat="48.83271" lon="2.31577">
        <ele>115.09</ele>
        <time>2020-03-13T23:14:48.000Z</time>
      </trkpt>
      <trkpt lat="48.83274" lon="2.31581">
        <ele>115.1</ele>
        <time>2020-03-13T23:14:49.000Z</time>
      </trkpt>
      <trkpt lat="48.83277" lon="2.31586">
        <ele>115.1</ele>
        <time>2020-03-13T23:14:50.000Z</time>
      </trkpt>
      <trkpt lat="48.83279" lon="2.3159">
        <ele>115.1</ele>
        <time>2020-03-13T23:14:51.000Z</time>
      </trkpt>
      <trkpt lat="48.83281" lon="2.31595">
        <ele>115.1</ele>
        <time>2020-03-13T23:14:52.000Z</time>
      </trkpt>
      <trkpt lat="48.83284" lon="2.316">
        <ele>115.1</ele>
        <time>2020-03-13T23:14:53.000Z</time>
      </trkpt>
      <trkpt lat="48.83286" lon="2.31605">
        <ele>115.11</ele>
        <time>2020-03-13T23:14:54.000Z</time>
      </trkpt>
      <trkpt lat="48.83289" lon="2.31609">
        <ele>115.11</ele>
        <time>2020-03-13T23:14:55.000Z</time>
      </trkpt>
      <trkpt lat="48.83291" lon="2.31614">
        <ele>115.12</ele>
        <time>2020-03-13T23:14:56.000Z</time>
      </trkpt>
      <trkpt lat="48.83293" lon="2.31619">
        <ele>115.12</ele>
        <time>2020-03-13T23:14:57.000Z</time>
      </trkpt>
      <trkpt lat="48.83295" lon="2.31624">
        <ele>115.12</ele>
        <time>2020-03-13T23:14:58.000Z</time>
      </trkpt>
      <trkpt lat="48.83297" lon="2.31629">
        <ele>115.12</ele>
        <time>2020-03-13T23:14:59.000Z</time>
      </trkpt>
      <trkpt lat="48.83299" lon="2.31633">
        <ele>115.12</ele>
        <time>2020-03-13T23:15:00.000Z</time>
      </trkpt>
      <trkpt lat="48.83301" lon="2.31639">
        <ele>115.12</ele>
        <time>2020-03-13T23:15:01.000Z</time>
      </trkpt>
      <trkpt lat="48.83302" lon="2.31643">
        <ele>115.12</ele>
        <time>2020-03-13T23:15:02.000Z</time>
      </trkpt>
      <trkpt lat="48.83305" lon="2.31648">
        <ele>115.12</ele>
        <time>2020-03-13T23:15:03.000Z</time>
      </trkpt>
      <trkpt lat="48.83307" lon="2.31652">
        <ele>115.12</ele>
        <time>2020-03-13T23:15:04.000Z</time>
      </trkpt>
      <trkpt lat="48.83309" lon="2.31657">
        <ele>115.12</ele>
        <time>2020-03-13T23:15:05.000Z</time>
      </trkpt>
      <trkpt lat="48.83312" lon="2.31661">
        <ele>115.13</ele>
        <time>2020-03-13T23:15:06.000Z</time>
      </trkpt>
      <trkpt lat="48.83314" lon="2.31665">
        <ele>115.13</ele>
        <time>2020-03-13T23:15:07.000Z</time>
      </trkpt>
      <trkpt lat="48.83316" lon="2.31668">
        <ele>115.13</ele>
        <time>2020-03-13T23:15:08.000Z</time>
      </trkpt>
      <trkpt lat="48.83319" lon="2.31673">
        <ele>115.13</ele>
        <time>2020-03-13T23:15:09.000Z</time>
      </trkpt>
      <trkpt lat="48.83321" lon="2.31677">
        <ele>115.13</ele>
        <time>2020-03-13T23:15:10.000Z</time>
      </trkpt>
      <trkpt lat="48.83324" lon="2.31681">
        <ele>115.13</ele>
        <time>2020-03-13T23:15:11.000Z</time>
      </trkpt>
      <trkpt lat="48.83327" lon="2.31685">
        <ele>115.13</ele>
        <time>2020-03-13T23:15:12.000Z</time>
      </trkpt>
      <trkpt lat="48.8333" lon="2.31689">
        <ele>115.13</ele>
        <time>2020-03-13T23:15:13.000Z</time>
      </trkpt>
      <trkpt lat="48.83332" lon="2.31694">
        <ele>115.13</ele>
        <time>2020-03-13T23:15:14.000Z</time>
      </trkpt>
      <trkpt lat="48.83335" lon="2.31699">
        <ele>115.13</ele>
        <time>2020-03-13T23:15:15.000Z</time>
      </trkpt>
      <trkpt lat="48.83338" lon="2.31703">
        <ele>115.13</ele>
        <time>2020-03-13T23:15:16.000Z</time>
      </trkpt>
      <trkpt lat="48.83341" lon="2.31707">
        <ele>115.13</ele>
        <time>2020-03-13T23:15:17.000Z</time>
      </trkpt>
      <trkpt lat="48.83345" lon="2.31711">
        <ele>115.13</ele>
        <time>2020-03-13T23:15:18.000Z</time>
      </trkpt>
      <trkpt lat="48.83348" lon="2.31716">
        <ele>115.12</ele>
        <time>2020-03-13T23:15:19.000Z</time>
      </trkpt>
      <trkpt lat="48.83351" lon="2.31721">
        <ele>115.11</ele>
        <time>2020-03-13T23:15:20.000Z</time>
      </trkpt>
      <trkpt lat="48.83353" lon="2.31726">
        <ele>115.11</ele>
        <time>2020-03-13T23:15:21.000Z</time>
      </trkpt>
      <trkpt lat="48.83357" lon="2.31732">
        <ele>115.1</ele>
        <time>2020-03-13T23:15:22.000Z</time>
      </trkpt>
      <trkpt lat="48.8336" lon="2.31738">
        <ele>115.1</ele>
        <time>2020-03-13T23:15:23.000Z</time>
      </trkpt>
      <trkpt lat="48.83364" lon="2.31743">
        <ele>115.09</ele>
        <time>2020-03-13T23:15:24.000Z</time>
      </trkpt>
      <trkpt lat="48.83367" lon="2.31748">
        <ele>115.09</ele>
        <time>2020-03-13T23:15:25.000Z</time>
      </trkpt>
      <trkpt lat="48.8337" lon="2.31753">
        <ele>115.08</ele>
        <time>2020-03-13T23:15:26.000Z</time>
      </trkpt>
      <trkpt lat="48.83373" lon="2.31757">
        <ele>115.08</ele>
        <time>2020-03-13T23:15:27.000Z</time>
      </trkpt>
      <trkpt lat="48.83375" lon="2.31762">
        <ele>115.07</ele>
        <time>2020-03-13T23:15:28.000Z</time>
      </trkpt>
      <trkpt lat="48.83379" lon="2.31768">
        <ele>115.08</ele>
        <time>2020-03-13T23:15:29.000Z</time>
      </trkpt>
      <trkpt lat="48.83382" lon="2.31773">
        <ele>115.08</ele>
        <time>2020-03-13T23:15:30.000Z</time>
      </trkpt>
      <trkpt lat="48.83384" lon="2.31779">
        <ele>115.08</ele>
        <time>2020-03-13T23:15:31.000Z</time>
      </trkpt>
      <trkpt lat="48.83387" lon="2.31784">
        <ele>115.08</ele>
        <time>2020-03-13T23:15:32.000Z</time>
      </trkpt>
      <trkpt lat="48.83389" lon="2.31789">
        <ele>115.08</ele>
        <time>2020-03-13T23:15:33.000Z</time>
      </trkpt>
      <trkpt lat="48.83392" lon="2.31793">
        <ele>115.08</ele>
        <time>2020-03-13T23:15:34.000Z</time>
      </trkpt>
      <trkpt lat="48.83394" lon="2.31798">
        <ele>115.08</ele>
        <time>2020-03-13T23:15:35.000Z</time>
      </trkpt>
      <trkpt lat="48.83397" lon="2.31804">
        <ele>115.08</ele>
        <time>2020-03-13T23:15:36.000Z</time>
      </trkpt>
      <trkpt lat="48.83399" lon="2.31808">
        <ele>115.08</ele>
        <time>2020-03-13T23:15:37.000Z</time>
      </trkpt>
      <trkpt lat="48.834" lon="2.31813">
        <ele>115.08</ele>
        <time>2020-03-13T23:15:38.000Z</time>
      </trkpt>
      <trkpt lat="48.83402" lon="2.31818">
        <ele>115.08</ele>
        <time>2020-03-13T23:15:39.000Z</time>
      </trkpt>
      <trkpt lat="48.83404" lon="2.31824">
        <ele>115.07</ele>
        <time>2020-03-13T23:15:40.000Z</time>
      </trkpt>
      <trkpt lat="48.83407" lon="2.31829">
        <ele>115.05</ele>
        <time>2020-03-13T23:15:41.000Z</time>
      </trkpt>
      <trkpt lat="48.8341" lon="2.31834">
        <ele>115.04</ele>
        <time>2020-03-13T23:15:42.000Z</time>
      </trkpt>
      <trkpt lat="48.83412" lon="2.3184">
        <ele>115.02</ele>
        <time>2020-03-13T23:15:43.000Z</time>
      </trkpt>
      <trkpt lat="48.83415" lon="2.31845">
        <ele>115.01</ele>
        <time>2020-03-13T23:15:44.000Z</time>
      </trkpt>
      <trkpt lat="48.83417" lon="2.3185">
        <ele>115</ele>
        <time>2020-03-13T23:15:45.000Z</time>
      </trkpt>
      <trkpt lat="48.83419" lon="2.31855">
        <ele>114.99</ele>
        <time>2020-03-13T23:15:46.000Z</time>
      </trkpt>
      <trkpt lat="48.83422" lon="2.31861">
        <ele>114.97</ele>
        <time>2020-03-13T23:15:47.000Z</time>
      </trkpt>
      <trkpt lat="48.83425" lon="2.31867">
        <ele>114.96</ele>
        <time>2020-03-13T23:15:48.000Z</time>
      </trkpt>
      <trkpt lat="48.83428" lon="2.31873">
        <ele>114.95</ele>
        <time>2020-03-13T23:15:49.000Z</time>
      </trkpt>
      <trkpt lat="48.83431" lon="2.31878">
        <ele>114.94</ele>
        <time>2020-03-13T23:15:50.000Z</time>
      </trkpt>
      <trkpt lat="48.83433" lon="2.31884">
        <ele>114.93</ele>
        <time>2020-03-13T23:15:51.000Z</time>
      </trkpt>
      <trkpt lat="48.83436" lon="2.3189">
        <ele>114.92</ele>
        <time>2020-03-13T23:15:52.000Z</time>
      </trkpt>
      <trkpt lat="48.83439" lon="2.31896">
        <ele>114.91</ele>
        <time>2020-03-13T23:15:53.000Z</time>
      </trkpt>
      <trkpt lat="48.83441" lon="2.31902">
        <ele>114.9</ele>
        <time>2020-03-13T23:15:54.000Z</time>
      </trkpt>
      <trkpt lat="48.83444" lon="2.31906">
        <ele>114.89</ele>
        <time>2020-03-13T23:15:55.000Z</time>
      </trkpt>
      <trkpt lat="48.83446" lon="2.31911">
        <ele>114.88</ele>
        <time>2020-03-13T23:15:56.000Z</time>
      </trkpt>
      <trkpt lat="48.83448" lon="2.31917">
        <ele>114.88</ele>
        <time>2020-03-13T23:15:57.000Z</time>
      </trkpt>
      <trkpt lat="48.83451" lon="2.31921">
        <ele>114.88</ele>
        <time>2020-03-13T23:15:58.000Z</time>
      </trkpt>
      <trkpt lat="48.83453" lon="2.31925">
        <ele>114.88</ele>
        <time>2020-03-13T23:15:59.000Z</time>
      </trkpt>
      <trkpt lat="48.83455" lon="2.31929">
        <ele>114.88</ele>
        <time>2020-03-13T23:16:00.000Z</time>
      </trkpt>
      <trkpt lat="48.83457" lon="2.31933">
        <ele>114.88</ele>
        <time>2020-03-13T23:16:01.000Z</time>
      </trkpt>
      <trkpt lat="48.83459" lon="2.31937">
        <ele>114.88</ele>
        <time>2020-03-13T23:16:02.000Z</time>
      </trkpt>
      <trkpt lat="48.83461" lon="2.31941">
        <ele>114.85</ele>
        <time>2020-03-13T23:16:03.000Z</time>
      </trkpt>
      <trkpt lat="48.83464" lon="2.31947">
        <ele>114.85</ele>
        <time>2020-03-13T23:16:04.000Z</time>
      </trkpt>
      <trkpt lat="48.83466" lon="2.31952">
        <ele>114.85</ele>
        <time>2020-03-13T23:16:05.000Z</time>
      </trkpt>
      <trkpt lat="48.83467" lon="2.31957">
        <ele>114.83</ele>
        <time>2020-03-13T23:16:06.000Z</time>
      </trkpt>
      <trkpt lat="48.83469" lon="2.31963">
        <ele>114.83</ele>
        <time>2020-03-13T23:16:07.000Z</time>
      </trkpt>
      <trkpt lat="48.83472" lon="2.31968">
        <ele>114.81</ele>
        <time>2020-03-13T23:16:08.000Z</time>
      </trkpt>
      <trkpt lat="48.83474" lon="2.31973">
        <ele>114.8</ele>
        <time>2020-03-13T23:16:09.000Z</time>
      </trkpt>
      <trkpt lat="48.83477" lon="2.31978">
        <ele>114.79</ele>
        <time>2020-03-13T23:16:10.000Z</time>
      </trkpt>
      <trkpt lat="48.8348" lon="2.31984">
        <ele>114.78</ele>
        <time>2020-03-13T23:16:11.000Z</time>
      </trkpt>
      <trkpt lat="48.83482" lon="2.3199">
        <ele>114.76</ele>
        <time>2020-03-13T23:16:12.000Z</time>
      </trkpt>
      <trkpt lat="48.83486" lon="2.31995">
        <ele>114.75</ele>
        <time>2020-03-13T23:16:13.000Z</time>
      </trkpt>
      <trkpt lat="48.83489" lon="2.32001">
        <ele>114.74</ele>
        <time>2020-03-13T23:16:14.000Z</time>
      </trkpt>
      <trkpt lat="48.83493" lon="2.32006">
        <ele>114.75</ele>
        <time>2020-03-13T23:16:15.000Z</time>
      </trkpt>
      <trkpt lat="48.83496" lon="2.32012">
        <ele>114.76</ele>
        <time>2020-03-13T23:16:16.000Z</time>
      </trkpt>
      <trkpt lat="48.83499" lon="2.32017">
        <ele>114.77</ele>
        <time>2020-03-13T23:16:17.000Z</time>
      </trkpt>
      <trkpt lat="48.83502" lon="2.32022">
        <ele>114.78</ele>
        <time>2020-03-13T23:16:18.000Z</time>
      </trkpt>
      <trkpt lat="48.83505" lon="2.32027">
        <ele>114.79</ele>
        <time>2020-03-13T23:16:19.000Z</time>
      </trkpt>
      <trkpt lat="48.83507" lon="2.32032">
        <ele>114.79</ele>
        <time>2020-03-13T23:16:20.000Z</time>
      </trkpt>
      <trkpt lat="48.8351" lon="2.32037">
        <ele>114.79</ele>
        <time>2020-03-13T23:16:21.000Z</time>
      </trkpt>
      <trkpt lat="48.83512" lon="2.32041">
        <ele>114.78</ele>
        <time>2020-03-13T23:16:22.000Z</time>
      </trkpt>
      <trkpt lat="48.83515" lon="2.32046">
        <ele>114.77</ele>
        <time>2020-03-13T23:16:23.000Z</time>
      </trkpt>
      <trkpt lat="48.83517" lon="2.32052">
        <ele>114.77</ele>
        <time>2020-03-13T23:16:24.000Z</time>
      </trkpt>
      <trkpt lat="48.8352" lon="2.32057">
        <ele>114.77</ele>
        <time>2020-03-13T23:16:25.000Z</time>
      </trkpt>
      <trkpt lat="48.83524" lon="2.32063">
        <ele>114.76</ele>
        <time>2020-03-13T23:16:26.000Z</time>
      </trkpt>
      <trkpt lat="48.83527" lon="2.32068">
        <ele>114.76</ele>
        <time>2020-03-13T23:16:27.000Z</time>
      </trkpt>
      <trkpt lat="48.8353" lon="2.32074">
        <ele>114.75</ele>
        <time>2020-03-13T23:16:28.000Z</time>
      </trkpt>
      <trkpt lat="48.83534" lon="2.32079">
        <ele>114.75</ele>
        <time>2020-03-13T23:16:29.000Z</time>
      </trkpt>
      <trkpt lat="48.83537" lon="2.32085">
        <ele>114.75</ele>
        <time>2020-03-13T23:16:30.000Z</time>
      </trkpt>
      <trkpt lat="48.8354" lon="2.32091">
        <ele>114.74</ele>
        <time>2020-03-13T23:16:31.000Z</time>
      </trkpt>
      <trkpt lat="48.83543" lon="2.32096">
        <ele>114.74</ele>
        <time>2020-03-13T23:16:32.000Z</time>
      </trkpt>
      <trkpt lat="48.83546" lon="2.32103">
        <ele>114.74</ele>
        <time>2020-03-13T23:16:33.000Z</time>
      </trkpt>
      <trkpt lat="48.83549" lon="2.32109">
        <ele>114.74</ele>
        <time>2020-03-13T23:16:34.000Z</time>
      </trkpt>
      <trkpt lat="48.83552" lon="2.32115">
        <ele>114.73</ele>
        <time>2020-03-13T23:16:35.000Z</time>
      </trkpt>
      <trkpt lat="48.83556" lon="2.32121">
        <ele>114.73</ele>
        <time>2020-03-13T23:16:36.000Z</time>
      </trkpt>
      <trkpt lat="48.83559" lon="2.32127">
        <ele>114.72</ele>
        <time>2020-03-13T23:16:37.000Z</time>
      </trkpt>
      <trkpt lat="48.83562" lon="2.32133">
        <ele>114.72</ele>
        <time>2020-03-13T23:16:38.000Z</time>
      </trkpt>
      <trkpt lat="48.83565" lon="2.32139">
        <ele>114.72</ele>
        <time>2020-03-13T23:16:39.000Z</time>
      </trkpt>
      <trkpt lat="48.83568" lon="2.32144">
        <ele>114.71</ele>
        <time>2020-03-13T23:16:40.000Z</time>
      </trkpt>
      <trkpt lat="48.83572" lon="2.3215">
        <ele>114.71</ele>
        <time>2020-03-13T23:16:41.000Z</time>
      </trkpt>
      <trkpt lat="48.83575" lon="2.32155">
        <ele>114.71</ele>
        <time>2020-03-13T23:16:42.000Z</time>
      </trkpt>
      <trkpt lat="48.83578" lon="2.32161">
        <ele>114.71</ele>
        <time>2020-03-13T23:16:43.000Z</time>
      </trkpt>
      <trkpt lat="48.83582" lon="2.32167">
        <ele>114.7</ele>
        <time>2020-03-13T23:16:44.000Z</time>
      </trkpt>
      <trkpt lat="48.83585" lon="2.32172">
        <ele>114.7</ele>
        <time>2020-03-13T23:16:45.000Z</time>
      </trkpt>
      <trkpt lat="48.83588" lon="2.32178">
        <ele>114.69</ele>
        <time>2020-03-13T23:16:46.000Z</time>
      </trkpt>
      <trkpt lat="48.83592" lon="2.32183">
        <ele>114.69</ele>
        <time>2020-03-13T23:16:47.000Z</time>
      </trkpt>
      <trkpt lat="48.83595" lon="2.32189">
        <ele>114.68</ele>
        <time>2020-03-13T23:16:48.000Z</time>
      </trkpt>
      <trkpt lat="48.83599" lon="2.32195">
        <ele>114.68</ele>
        <time>2020-03-13T23:16:49.000Z</time>
      </trkpt>
      <trkpt lat="48.83602" lon="2.322">
        <ele>114.67</ele>
        <time>2020-03-13T23:16:50.000Z</time>
      </trkpt>
      <trkpt lat="48.83605" lon="2.32206">
        <ele>114.67</ele>
        <time>2020-03-13T23:16:51.000Z</time>
      </trkpt>
      <trkpt lat="48.83609" lon="2.32213">
        <ele>114.66</ele>
        <time>2020-03-13T23:16:52.000Z</time>
      </trkpt>
      <trkpt lat="48.83612" lon="2.3222">
        <ele>114.66</ele>
        <time>2020-03-13T23:16:53.000Z</time>
      </trkpt>
      <trkpt lat="48.83616" lon="2.32226">
        <ele>114.66</ele>
        <time>2020-03-13T23:16:54.000Z</time>
      </trkpt>
      <trkpt lat="48.8362" lon="2.32232">
        <ele>114.66</ele>
        <time>2020-03-13T23:16:55.000Z</time>
      </trkpt>
      <trkpt lat="48.83624" lon="2.32237">
        <ele>114.66</ele>
        <time>2020-03-13T23:16:56.000Z</time>
      </trkpt>
      <trkpt lat="48.83627" lon="2.32242">
        <ele>114.65</ele>
        <time>2020-03-13T23:16:57.000Z</time>
      </trkpt>
      <trkpt lat="48.83631" lon="2.32248">
        <ele>114.65</ele>
        <time>2020-03-13T23:16:58.000Z</time>
      </trkpt>
      <trkpt lat="48.83634" lon="2.32255">
        <ele>114.66</ele>
        <time>2020-03-13T23:16:59.000Z</time>
      </trkpt>
      <trkpt lat="48.83637" lon="2.32261">
        <ele>114.67</ele>
        <time>2020-03-13T23:17:00.000Z</time>
      </trkpt>
      <trkpt lat="48.83641" lon="2.32268">
        <ele>114.67</ele>
        <time>2020-03-13T23:17:01.000Z</time>
      </trkpt>
      <trkpt lat="48.83644" lon="2.32274">
        <ele>114.68</ele>
        <time>2020-03-13T23:17:02.000Z</time>
      </trkpt>
      <trkpt lat="48.83646" lon="2.3228">
        <ele>114.68</ele>
        <time>2020-03-13T23:17:03.000Z</time>
      </trkpt>
      <trkpt lat="48.83649" lon="2.32285">
        <ele>114.67</ele>
        <time>2020-03-13T23:17:04.000Z</time>
      </trkpt>
      <trkpt lat="48.83652" lon="2.3229">
        <ele>114.66</ele>
        <time>2020-03-13T23:17:05.000Z</time>
      </trkpt>
      <trkpt lat="48.83654" lon="2.32295">
        <ele>114.65</ele>
        <time>2020-03-13T23:17:06.000Z</time>
      </trkpt>
      <trkpt lat="48.83657" lon="2.32299">
        <ele>114.65</ele>
        <time>2020-03-13T23:17:07.000Z</time>
      </trkpt>
      <trkpt lat="48.83659" lon="2.32302">
        <ele>114.65</ele>
        <time>2020-03-13T23:17:08.000Z</time>
      </trkpt>
      <trkpt lat="48.83661" lon="2.32306">
        <ele>114.65</ele>
        <time>2020-03-13T23:17:09.000Z</time>
      </trkpt>
      <trkpt lat="48.83664" lon="2.32308">
        <ele>114.65</ele>
        <time>2020-03-13T23:17:10.000Z</time>
      </trkpt>
      <trkpt lat="48.83666" lon="2.32311">
        <ele>114.65</ele>
        <time>2020-03-13T23:17:11.000Z</time>
      </trkpt>
      <trkpt lat="48.83668" lon="2.32311">
        <ele>114.65</ele>
        <time>2020-03-13T23:17:12.000Z</time>
      </trkpt>
      <trkpt lat="48.8367" lon="2.32312">
        <ele>114.65</ele>
        <time>2020-03-13T23:17:13.000Z</time>
      </trkpt>
      <trkpt lat="48.83671" lon="2.32314">
        <ele>114.65</ele>
        <time>2020-03-13T23:17:14.000Z</time>
      </trkpt>
      <trkpt lat="48.83673" lon="2.32314">
        <ele>114.65</ele>
        <time>2020-03-13T23:17:15.000Z</time>
      </trkpt>
      <trkpt lat="48.83672" lon="2.32313">
        <ele>114.66</ele>
        <time>2020-03-13T23:17:23.000Z</time>
      </trkpt>
      <trkpt lat="48.83673" lon="2.32314">
        <ele>114.66</ele>
        <time>2020-03-13T23:17:24.000Z</time>
      </trkpt>
      <trkpt lat="48.83675" lon="2.32313">
        <ele>114.66</ele>
        <time>2020-03-13T23:17:25.000Z</time>
      </trkpt>
      <trkpt lat="48.83677" lon="2.32311">
        <ele>114.66</ele>
        <time>2020-03-13T23:17:26.000Z</time>
      </trkpt>
      <trkpt lat="48.83679" lon="2.32305">
        <ele>114.66</ele>
        <time>2020-03-13T23:17:27.000Z</time>
      </trkpt>
      <trkpt lat="48.8368" lon="2.32302">
        <ele>114.66</ele>
        <time>2020-03-13T23:17:28.000Z</time>
      </trkpt>
      <trkpt lat="48.8368" lon="2.32299">
        <ele>114.65</ele>
        <time>2020-03-13T23:17:29.000Z</time>
      </trkpt>
      <trkpt lat="48.83681" lon="2.32298">
        <ele>114.65</ele>
        <time>2020-03-13T23:17:30.000Z</time>
      </trkpt>
      <trkpt lat="48.83685" lon="2.32299">
        <ele>114.64</ele>
        <time>2020-03-13T23:17:31.000Z</time>
      </trkpt>
      <trkpt lat="48.83687" lon="2.32299">
        <ele>114.63</ele>
        <time>2020-03-13T23:17:32.000Z</time>
      </trkpt>
      <trkpt lat="48.83692" lon="2.32296">
        <ele>114.6</ele>
        <time>2020-03-13T23:17:36.000Z</time>
      </trkpt>
      <trkpt lat="48.83693" lon="2.32294">
        <ele>114.59</ele>
        <time>2020-03-13T23:17:37.000Z</time>
      </trkpt>
      <trkpt lat="48.83696" lon="2.32293">
        <ele>114.58</ele>
        <time>2020-03-13T23:17:38.000Z</time>
      </trkpt>
      <trkpt lat="48.83698" lon="2.32293">
        <ele>114.57</ele>
        <time>2020-03-13T23:17:39.000Z</time>
      </trkpt>
      <trkpt lat="48.83701" lon="2.3229">
        <ele>114.56</ele>
        <time>2020-03-13T23:17:40.000Z</time>
      </trkpt>
      <trkpt lat="48.83705" lon="2.32287">
        <ele>114.55</ele>
        <time>2020-03-13T23:17:41.000Z</time>
      </trkpt>
      <trkpt lat="48.83709" lon="2.32283">
        <ele>114.54</ele>
        <time>2020-03-13T23:17:42.000Z</time>
      </trkpt>
      <trkpt lat="48.83712" lon="2.32282">
        <ele>114.54</ele>
        <time>2020-03-13T23:17:43.000Z</time>
      </trkpt>
      <trkpt lat="48.83715" lon="2.32282">
        <ele>114.53</ele>
        <time>2020-03-13T23:17:44.000Z</time>
      </trkpt>
      <trkpt lat="48.83721" lon="2.32284">
        <ele>114.53</ele>
        <time>2020-03-13T23:17:45.000Z</time>
      </trkpt>
      <trkpt lat="48.83725" lon="2.32286">
        <ele>114.54</ele>
        <time>2020-03-13T23:17:46.000Z</time>
      </trkpt>
      <trkpt lat="48.83729" lon="2.32285">
        <ele>114.54</ele>
        <time>2020-03-13T23:17:47.000Z</time>
      </trkpt>
      <trkpt lat="48.83732" lon="2.32286">
        <ele>114.54</ele>
        <time>2020-03-13T23:17:48.000Z</time>
      </trkpt>
      <trkpt lat="48.83735" lon="2.32291">
        <ele>114.55</ele>
        <time>2020-03-13T23:17:49.000Z</time>
      </trkpt>
      <trkpt lat="48.83739" lon="2.32296">
        <ele>114.56</ele>
        <time>2020-03-13T23:17:50.000Z</time>
      </trkpt>
      <trkpt lat="48.83742" lon="2.32299">
        <ele>114.57</ele>
        <time>2020-03-13T23:17:51.000Z</time>
      </trkpt>
      <trkpt lat="48.83743" lon="2.32299">
        <ele>114.59</ele>
        <time>2020-03-13T23:17:52.000Z</time>
      </trkpt>
      <trkpt lat="48.83745" lon="2.323">
        <ele>114.61</ele>
        <time>2020-03-13T23:17:54.000Z</time>
      </trkpt>
      <trkpt lat="48.83745" lon="2.32301">
        <ele>114.62</ele>
        <time>2020-03-13T23:17:55.000Z</time>
      </trkpt>
      <trkpt lat="48.83747" lon="2.32302">
        <ele>114.63</ele>
        <time>2020-03-13T23:17:56.000Z</time>
      </trkpt>
      <trkpt lat="48.83748" lon="2.32304">
        <ele>114.64</ele>
        <time>2020-03-13T23:17:57.000Z</time>
      </trkpt>
      <trkpt lat="48.83749" lon="2.32303">
        <ele>114.67</ele>
        <time>2020-03-13T23:17:59.000Z</time>
      </trkpt>
      <trkpt lat="48.8375" lon="2.32303">
        <ele>114.68</ele>
        <time>2020-03-13T23:18:00.000Z</time>
      </trkpt>
      <trkpt lat="48.83752" lon="2.32302">
        <ele>114.7</ele>
        <time>2020-03-13T23:18:01.000Z</time>
      </trkpt>
      <trkpt lat="48.83754" lon="2.323">
        <ele>114.71</ele>
        <time>2020-03-13T23:18:02.000Z</time>
      </trkpt>
      <trkpt lat="48.83756" lon="2.32299">
        <ele>114.73</ele>
        <time>2020-03-13T23:18:03.000Z</time>
      </trkpt>
      <trkpt lat="48.8376" lon="2.32297">
        <ele>114.74</ele>
        <time>2020-03-13T23:18:04.000Z</time>
      </trkpt>
      <trkpt lat="48.83764" lon="2.32295">
        <ele>114.76</ele>
        <time>2020-03-13T23:18:05.000Z</time>
      </trkpt>
      <trkpt lat="48.83768" lon="2.32292">
        <ele>114.77</ele>
        <time>2020-03-13T23:18:06.000Z</time>
      </trkpt>
      <trkpt lat="48.83772" lon="2.3229">
        <ele>114.79</ele>
        <time>2020-03-13T23:18:07.000Z</time>
      </trkpt>
      <trkpt lat="48.83776" lon="2.32287">
        <ele>114.93</ele>
        <time>2020-03-13T23:18:08.000Z</time>
      </trkpt>
      <trkpt lat="48.83778" lon="2.32287">
        <ele>115.05</ele>
        <time>2020-03-13T23:18:09.000Z</time>
      </trkpt>
      <trkpt lat="48.83782" lon="2.32284">
        <ele>115.14</ele>
        <time>2020-03-13T23:18:10.000Z</time>
      </trkpt>
      <trkpt lat="48.83787" lon="2.32282">
        <ele>115.21</ele>
        <time>2020-03-13T23:18:11.000Z</time>
      </trkpt>
      <trkpt lat="48.83791" lon="2.3228">
        <ele>115.27</ele>
        <time>2020-03-13T23:18:12.000Z</time>
      </trkpt>
      <trkpt lat="48.83796" lon="2.32278">
        <ele>115.32</ele>
        <time>2020-03-13T23:18:13.000Z</time>
      </trkpt>
      <trkpt lat="48.838" lon="2.32277">
        <ele>115.36</ele>
        <time>2020-03-13T23:18:14.000Z</time>
      </trkpt>
      <trkpt lat="48.83805" lon="2.32275">
        <ele>115.39</ele>
        <time>2020-03-13T23:18:15.000Z</time>
      </trkpt>
      <trkpt lat="48.8381" lon="2.32273">
        <ele>115.42</ele>
        <time>2020-03-13T23:18:16.000Z</time>
      </trkpt>
      <trkpt lat="48.83815" lon="2.32272">
        <ele>115.45</ele>
        <time>2020-03-13T23:18:17.000Z</time>
      </trkpt>
      <trkpt lat="48.83819" lon="2.3227">
        <ele>115.48</ele>
        <time>2020-03-13T23:18:18.000Z</time>
      </trkpt>
      <trkpt lat="48.83824" lon="2.32268">
        <ele>115.52</ele>
        <time>2020-03-13T23:18:19.000Z</time>
      </trkpt>
      <trkpt lat="48.83829" lon="2.32266">
        <ele>115.55</ele>
        <time>2020-03-13T23:18:20.000Z</time>
      </trkpt>
      <trkpt lat="48.83834" lon="2.32264">
        <ele>115.58</ele>
        <time>2020-03-13T23:18:21.000Z</time>
      </trkpt>
      <trkpt lat="48.83838" lon="2.32262">
        <ele>115.62</ele>
        <time>2020-03-13T23:18:22.000Z</time>
      </trkpt>
      <trkpt lat="48.83843" lon="2.3226">
        <ele>115.66</ele>
        <time>2020-03-13T23:18:23.000Z</time>
      </trkpt>
      <trkpt lat="48.83848" lon="2.32258">
        <ele>115.71</ele>
        <time>2020-03-13T23:18:24.000Z</time>
      </trkpt>
      <trkpt lat="48.83852" lon="2.32255">
        <ele>115.77</ele>
        <time>2020-03-13T23:18:25.000Z</time>
      </trkpt>
      <trkpt lat="48.83857" lon="2.32255">
        <ele>115.82</ele>
        <time>2020-03-13T23:18:26.000Z</time>
      </trkpt>
      <trkpt lat="48.83861" lon="2.32252">
        <ele>115.87</ele>
        <time>2020-03-13T23:18:27.000Z</time>
      </trkpt>
      <trkpt lat="48.83865" lon="2.32251">
        <ele>115.91</ele>
        <time>2020-03-13T23:18:28.000Z</time>
      </trkpt>
      <trkpt lat="48.83869" lon="2.32249">
        <ele>115.94</ele>
        <time>2020-03-13T23:18:29.000Z</time>
      </trkpt>
      <trkpt lat="48.83873" lon="2.32247">
        <ele>115.96</ele>
        <time>2020-03-13T23:18:30.000Z</time>
      </trkpt>
      <trkpt lat="48.83878" lon="2.32244">
        <ele>115.98</ele>
        <time>2020-03-13T23:18:31.000Z</time>
      </trkpt>
      <trkpt lat="48.83883" lon="2.32241">
        <ele>116.01</ele>
        <time>2020-03-13T23:18:32.000Z</time>
      </trkpt>
      <trkpt lat="48.83888" lon="2.32239">
        <ele>116.03</ele>
        <time>2020-03-13T23:18:33.000Z</time>
      </trkpt>
      <trkpt lat="48.83893" lon="2.32237">
        <ele>116.07</ele>
        <time>2020-03-13T23:18:34.000Z</time>
      </trkpt>
      <trkpt lat="48.83899" lon="2.32234">
        <ele>116.12</ele>
        <time>2020-03-13T23:18:35.000Z</time>
      </trkpt>
      <trkpt lat="48.83904" lon="2.3223">
        <ele>116.16</ele>
        <time>2020-03-13T23:18:36.000Z</time>
      </trkpt>
      <trkpt lat="48.83908" lon="2.32228">
        <ele>116.2</ele>
        <time>2020-03-13T23:18:37.000Z</time>
      </trkpt>
      <trkpt lat="48.83916" lon="2.32225">
        <ele>116.23</ele>
        <time>2020-03-13T23:18:38.000Z</time>
      </trkpt>
      <trkpt lat="48.83922" lon="2.32221">
        <ele>116.25</ele>
        <time>2020-03-13T23:18:39.000Z</time>
      </trkpt>
      <trkpt lat="48.83928" lon="2.32218">
        <ele>116.27</ele>
        <time>2020-03-13T23:18:40.000Z</time>
      </trkpt>
      <trkpt lat="48.83933" lon="2.32218">
        <ele>116.3</ele>
        <time>2020-03-13T23:18:41.000Z</time>
      </trkpt>
      <trkpt lat="48.83938" lon="2.32215">
        <ele>116.34</ele>
        <time>2020-03-13T23:18:42.000Z</time>
      </trkpt>
      <trkpt lat="48.83944" lon="2.32211">
        <ele>116.39</ele>
        <time>2020-03-13T23:18:43.000Z</time>
      </trkpt>
      <trkpt lat="48.8395" lon="2.32207">
        <ele>116.48</ele>
        <time>2020-03-13T23:18:44.000Z</time>
      </trkpt>
      <trkpt lat="48.83956" lon="2.322">
        <ele>116.58</ele>
        <time>2020-03-13T23:18:45.000Z</time>
      </trkpt>
      <trkpt lat="48.83961" lon="2.32194">
        <ele>116.69</ele>
        <time>2020-03-13T23:18:46.000Z</time>
      </trkpt>
      <trkpt lat="48.83965" lon="2.32186">
        <ele>116.8</ele>
        <time>2020-03-13T23:18:47.000Z</time>
      </trkpt>
      <trkpt lat="48.8397" lon="2.32183">
        <ele>116.88</ele>
        <time>2020-03-13T23:18:48.000Z</time>
      </trkpt>
      <trkpt lat="48.83974" lon="2.32181">
        <ele>116.93</ele>
        <time>2020-03-13T23:18:49.000Z</time>
      </trkpt>
      <trkpt lat="48.83981" lon="2.32181">
        <ele>116.87</ele>
        <time>2020-03-13T23:18:50.000Z</time>
      </trkpt>
      <trkpt lat="48.83989" lon="2.32184">
        <ele>116.83</ele>
        <time>2020-03-13T23:18:51.000Z</time>
      </trkpt>
      <trkpt lat="48.83997" lon="2.32186">
        <ele>116.81</ele>
        <time>2020-03-13T23:18:52.000Z</time>
      </trkpt>
      <trkpt lat="48.84002" lon="2.32184">
        <ele>116.83</ele>
        <time>2020-03-13T23:18:53.000Z</time>
      </trkpt>
      <trkpt lat="48.84007" lon="2.32182">
        <ele>116.83</ele>
        <time>2020-03-13T23:18:54.000Z</time>
      </trkpt>
      <trkpt lat="48.84012" lon="2.3218">
        <ele>116.87</ele>
        <time>2020-03-13T23:18:55.000Z</time>
      </trkpt>
      <trkpt lat="48.84016" lon="2.32176">
        <ele>116.9</ele>
        <time>2020-03-13T23:18:56.000Z</time>
      </trkpt>
      <trkpt lat="48.84021" lon="2.32173">
        <ele>116.9</ele>
        <time>2020-03-13T23:18:57.000Z</time>
      </trkpt>
      <trkpt lat="48.84026" lon="2.3217">
        <ele>116.89</ele>
        <time>2020-03-13T23:18:58.000Z</time>
      </trkpt>
      <trkpt lat="48.84031" lon="2.32166">
        <ele>116.88</ele>
        <time>2020-03-13T23:18:59.000Z</time>
      </trkpt>
      <trkpt lat="48.84036" lon="2.32164">
        <ele>116.88</ele>
        <time>2020-03-13T23:19:00.000Z</time>
      </trkpt>
      <trkpt lat="48.84042" lon="2.32162">
        <ele>116.92</ele>
        <time>2020-03-13T23:19:01.000Z</time>
      </trkpt>
      <trkpt lat="48.84048" lon="2.32158">
        <ele>116.94</ele>
        <time>2020-03-13T23:19:02.000Z</time>
      </trkpt>
      <trkpt lat="48.84054" lon="2.32156">
        <ele>116.98</ele>
        <time>2020-03-13T23:19:03.000Z</time>
      </trkpt>
      <trkpt lat="48.8406" lon="2.32152">
        <ele>117.02</ele>
        <time>2020-03-13T23:19:04.000Z</time>
      </trkpt>
      <trkpt lat="48.84065" lon="2.32145">
        <ele>117.04</ele>
        <time>2020-03-13T23:19:05.000Z</time>
      </trkpt>
      <trkpt lat="48.8407" lon="2.32143">
        <ele>117.04</ele>
        <time>2020-03-13T23:19:06.000Z</time>
      </trkpt>
      <trkpt lat="48.84077" lon="2.32141">
        <ele>117.06</ele>
        <time>2020-03-13T23:19:07.000Z</time>
      </trkpt>
      <trkpt lat="48.84082" lon="2.3214">
        <ele>117.13</ele>
        <time>2020-03-13T23:19:08.000Z</time>
      </trkpt>
      <trkpt lat="48.84087" lon="2.32138">
        <ele>117.12</ele>
        <time>2020-03-13T23:19:09.000Z</time>
      </trkpt>
      <trkpt lat="48.84091" lon="2.32135">
        <ele>117.07</ele>
        <time>2020-03-13T23:19:10.000Z</time>
      </trkpt>
      <trkpt lat="48.84095" lon="2.32133">
        <ele>117.08</ele>
        <time>2020-03-13T23:19:11.000Z</time>
      </trkpt>
      <trkpt lat="48.84098" lon="2.32132">
        <ele>117.07</ele>
        <time>2020-03-13T23:19:12.000Z</time>
      </trkpt>
      <trkpt lat="48.84102" lon="2.32132">
        <ele>117.07</ele>
        <time>2020-03-13T23:19:13.000Z</time>
      </trkpt>
      <trkpt lat="48.84104" lon="2.32131">
        <ele>117.06</ele>
        <time>2020-03-13T23:19:14.000Z</time>
      </trkpt>
      <trkpt lat="48.84107" lon="2.32132">
        <ele>117.07</ele>
        <time>2020-03-13T23:19:15.000Z</time>
      </trkpt>
      <trkpt lat="48.84108" lon="2.32132">
        <ele>117.07</ele>
        <time>2020-03-13T23:19:16.000Z</time>
      </trkpt>
      <trkpt lat="48.8411" lon="2.32132">
        <ele>117.06</ele>
        <time>2020-03-13T23:19:18.000Z</time>
      </trkpt>
      <trkpt lat="48.84111" lon="2.32132">
        <ele>117.05</ele>
        <time>2020-03-13T23:19:20.000Z</time>
      </trkpt>
      <trkpt lat="48.84111" lon="2.32133">
        <ele>117.03</ele>
        <time>2020-03-13T23:19:26.000Z</time>
      </trkpt>
      <trkpt lat="48.8411" lon="2.32134">
        <ele>116.83</ele>
        <time>2020-03-13T23:19:31.000Z</time>
      </trkpt>
      <trkpt lat="48.84109" lon="2.32135">
        <ele>116.68</ele>
        <time>2020-03-13T23:19:34.000Z</time>
      </trkpt>
      <trkpt lat="48.8411" lon="2.32134">
        <ele>116.55</ele>
        <time>2020-03-13T23:19:36.000Z</time>
      </trkpt>
      <trkpt lat="48.84111" lon="2.32133">
        <ele>116.49</ele>
        <time>2020-03-13T23:19:37.000Z</time>
      </trkpt>
      <trkpt lat="48.84113" lon="2.32132">
        <ele>116.43</ele>
        <time>2020-03-13T23:19:38.000Z</time>
      </trkpt>
      <trkpt lat="48.84114" lon="2.3213">
        <ele>116.38</ele>
        <time>2020-03-13T23:19:39.000Z</time>
      </trkpt>
      <trkpt lat="48.84115" lon="2.32129">
        <ele>116.33</ele>
        <time>2020-03-13T23:19:40.000Z</time>
      </trkpt>
      <trkpt lat="48.84117" lon="2.32128">
        <ele>116.28</ele>
        <time>2020-03-13T23:19:41.000Z</time>
      </trkpt>
      <trkpt lat="48.84118" lon="2.32126">
        <ele>116.24</ele>
        <time>2020-03-13T23:19:42.000Z</time>
      </trkpt>
      <trkpt lat="48.8412" lon="2.32125">
        <ele>116.19</ele>
        <time>2020-03-13T23:19:43.000Z</time>
      </trkpt>
      <trkpt lat="48.84121" lon="2.32123">
        <ele>116.15</ele>
        <time>2020-03-13T23:19:44.000Z</time>
      </trkpt>
      <trkpt lat="48.84121" lon="2.32122">
        <ele>116.08</ele>
        <time>2020-03-13T23:19:46.000Z</time>
      </trkpt>
      <trkpt lat="48.84122" lon="2.32124">
        <ele>115.89</ele>
        <time>2020-03-13T23:19:53.000Z</time>
      </trkpt>
      <trkpt lat="48.84122" lon="2.32124">
        <ele>115.83</ele>
        <time>2020-03-13T23:20:08.000Z</time>
      </trkpt>
    </trkseg>
  </trk>
</gpx>